<?xml version='1.0' encoding='UTF-8'?><gpx version="1.1" creator="JPX - https://github.com/jenetics/jpx" xmlns="http://www.topografix.com/GPX/1/1"><trk><trkseg><trkpt lat="42.6897783" lon="2.9075367"><ele>45.0</ele><time>2026-04-08T13:03:28.917Z</time></trkpt><trkpt lat="42.6896917" lon="2.9075783"><ele>45.0</ele><time>2026-04-08T13:07:52.919Z</time></trkpt><trkpt lat="42.6896767" lon="2.9074883"><ele>45.0</ele><time>2026-04-08T13:08:03.918Z</time></trkpt><trkpt lat="42.68964" lon="2.90737"><ele>45.0</ele><time>2026-04-08T13:08:05.919Z</time></trkpt><trkpt lat="42.689605" lon="2.9072883"><ele>45.0</ele><time>2026-04-08T13:08:06.919Z</time></trkpt><trkpt lat="42.6895733" lon="2.907205"><ele>45.0</ele><time>2026-04-08T13:08:07.918Z</time></trkpt><trkpt lat="42.6895483" lon="2.9071217"><ele>45.0</ele><time>2026-04-08T13:08:08.919Z</time></trkpt><trkpt lat="42.6895233" lon="2.90704"><ele>45.0</ele><time>2026-04-08T13:08:09.919Z</time></trkpt><trkpt lat="42.6894767" lon="2.9068867"><ele>45.0</ele><time>2026-04-08T13:08:11.919Z</time></trkpt><trkpt lat="42.6894383" lon="2.90675"><ele>45.0</ele><time>2026-04-08T13:08:13.918Z</time></trkpt><trkpt lat="42.6894017" lon="2.9066383"><ele>45.0</ele><time>2026-04-08T13:08:15.918Z</time></trkpt><trkpt lat="42.68937" lon="2.9065283"><ele>44.833333333333336</ele><time>2026-04-08T13:08:17.918Z</time></trkpt><trkpt lat="42.6893333" lon="2.9064533"><ele>44.666666666666664</ele><time>2026-04-08T13:08:19.918Z</time></trkpt><trkpt lat="42.6892767" lon="2.906405"><ele>44.5</ele><time>2026-04-08T13:08:21.917Z</time></trkpt><trkpt lat="42.6892117" lon="2.90642"><ele>44.33333333333333</ele><time>2026-04-08T13:08:23.918Z</time></trkpt><trkpt lat="42.68914" lon="2.9065017"><ele>44.166666666666664</ele><time>2026-04-08T13:08:25.917Z</time></trkpt><trkpt lat="42.689055" lon="2.9066233"><ele>44.0</ele><time>2026-04-08T13:08:27.918Z</time></trkpt><trkpt lat="42.6890017" lon="2.9067017"><ele>43.75</ele><time>2026-04-08T13:08:28.917Z</time></trkpt><trkpt lat="42.6889417" lon="2.9067833"><ele>43.5</ele><time>2026-04-08T13:08:29.918Z</time></trkpt><trkpt lat="42.6888817" lon="2.90687"><ele>43.25</ele><time>2026-04-08T13:08:30.918Z</time></trkpt><trkpt lat="42.6887567" lon="2.9070483"><ele>43.0</ele><time>2026-04-08T13:08:32.918Z</time></trkpt><trkpt lat="42.68869" lon="2.9071467"><ele>43.0</ele><time>2026-04-08T13:08:33.918Z</time></trkpt><trkpt lat="42.68862" lon="2.9072467"><ele>43.0</ele><time>2026-04-08T13:08:34.917Z</time></trkpt><trkpt lat="42.688555" lon="2.907345"><ele>43.0</ele><time>2026-04-08T13:08:35.918Z</time></trkpt><trkpt lat="42.68849" lon="2.9074367"><ele>43.0</ele><time>2026-04-08T13:08:36.918Z</time></trkpt><trkpt lat="42.688425" lon="2.9075233"><ele>43.0</ele><time>2026-04-08T13:08:37.917Z</time></trkpt><trkpt lat="42.6883617" lon="2.9076133"><ele>42.833333333333336</ele><time>2026-04-08T13:08:38.918Z</time></trkpt><trkpt lat="42.6882983" lon="2.9077067"><ele>42.66666666666667</ele><time>2026-04-08T13:08:39.918Z</time></trkpt><trkpt lat="42.68824" lon="2.9077967"><ele>42.5</ele><time>2026-04-08T13:08:40.917Z</time></trkpt><trkpt lat="42.688185" lon="2.90788"><ele>42.333333333333336</ele><time>2026-04-08T13:08:41.918Z</time></trkpt><trkpt lat="42.6881367" lon="2.90796"><ele>42.166666666666664</ele><time>2026-04-08T13:08:42.918Z</time></trkpt><trkpt lat="42.6880883" lon="2.9080267"><ele>42.0</ele><time>2026-04-08T13:08:43.918Z</time></trkpt><trkpt lat="42.6880117" lon="2.90813"><ele>42.0</ele><time>2026-04-08T13:08:45.918Z</time></trkpt><trkpt lat="42.6879417" lon="2.9081583"><ele>42.0</ele><time>2026-04-08T13:08:47.917Z</time></trkpt><trkpt lat="42.68781" lon="2.9081083"><ele>42.0</ele><time>2026-04-08T13:08:49.917Z</time></trkpt><trkpt lat="42.68774" lon="2.908115"><ele>42.0</ele><time>2026-04-08T13:08:50.918Z</time></trkpt><trkpt lat="42.6876767" lon="2.9081533"><ele>42.0</ele><time>2026-04-08T13:08:51.917Z</time></trkpt><trkpt lat="42.687605" lon="2.9081983"><ele>42.0</ele><time>2026-04-08T13:08:52.917Z</time></trkpt><trkpt lat="42.6875417" lon="2.9082233"><ele>42.333333333333336</ele><time>2026-04-08T13:08:53.918Z</time></trkpt><trkpt lat="42.6874733" lon="2.9082217"><ele>42.666666666666664</ele><time>2026-04-08T13:08:54.918Z</time></trkpt><trkpt lat="42.6874133" lon="2.9081817"><ele>43.0</ele><time>2026-04-08T13:08:55.918Z</time></trkpt><trkpt lat="42.687355" lon="2.9081133"><ele>43.33333333333333</ele><time>2026-04-08T13:08:56.918Z</time></trkpt><trkpt lat="42.68729" lon="2.9080317"><ele>43.666666666666664</ele><time>2026-04-08T13:08:57.918Z</time></trkpt><trkpt lat="42.6872083" lon="2.90795"><ele>44.0</ele><time>2026-04-08T13:08:58.918Z</time></trkpt><trkpt lat="42.6871283" lon="2.9078667"><ele>44.0</ele><time>2026-04-08T13:08:59.918Z</time></trkpt><trkpt lat="42.6870483" lon="2.90778"><ele>44.0</ele><time>2026-04-08T13:09:00.918Z</time></trkpt><trkpt lat="42.6869733" lon="2.9076933"><ele>44.0</ele><time>2026-04-08T13:09:01.917Z</time></trkpt><trkpt lat="42.6869017" lon="2.9076067"><ele>44.0</ele><time>2026-04-08T13:09:02.918Z</time></trkpt><trkpt lat="42.6868433" lon="2.907535"><ele>44.0</ele><time>2026-04-08T13:09:03.918Z</time></trkpt><trkpt lat="42.6867683" lon="2.9074533"><ele>44.33333333333333</ele><time>2026-04-08T13:09:05.918Z</time></trkpt><trkpt lat="42.6867017" lon="2.9073333"><ele>44.666666666666664</ele><time>2026-04-08T13:09:07.918Z</time></trkpt><trkpt lat="42.686685" lon="2.9072383"><ele>45.0</ele><time>2026-04-08T13:09:08.918Z</time></trkpt><trkpt lat="42.6866833" lon="2.9071217"><ele>45.333333333333336</ele><time>2026-04-08T13:09:09.918Z</time></trkpt><trkpt lat="42.6866717" lon="2.906995"><ele>45.66666666666667</ele><time>2026-04-08T13:09:10.918Z</time></trkpt><trkpt lat="42.6866483" lon="2.9068817"><ele>46.0</ele><time>2026-04-08T13:09:11.917Z</time></trkpt><trkpt lat="42.6866017" lon="2.9067917"><ele>46.0</ele><time>2026-04-08T13:09:12.918Z</time></trkpt><trkpt lat="42.6865333" lon="2.9067333"><ele>46.0</ele><time>2026-04-08T13:09:13.917Z</time></trkpt><trkpt lat="42.686445" lon="2.9066933"><ele>46.0</ele><time>2026-04-08T13:09:14.918Z</time></trkpt><trkpt lat="42.6863417" lon="2.9066983"><ele>46.0</ele><time>2026-04-08T13:09:15.918Z</time></trkpt><trkpt lat="42.6862467" lon="2.906755"><ele>46.0</ele><time>2026-04-08T13:09:16.918Z</time></trkpt><trkpt lat="42.6861783" lon="2.9068583"><ele>46.0</ele><time>2026-04-08T13:09:17.918Z</time></trkpt><trkpt lat="42.68614" lon="2.906985"><ele>46.0</ele><time>2026-04-08T13:09:18.917Z</time></trkpt><trkpt lat="42.6861333" lon="2.9071233"><ele>46.0</ele><time>2026-04-08T13:09:19.918Z</time></trkpt><trkpt lat="42.6861133" lon="2.9072667"><ele>46.0</ele><time>2026-04-08T13:09:20.917Z</time></trkpt><trkpt lat="42.6860733" lon="2.9073983"><ele>46.0</ele><time>2026-04-08T13:09:21.917Z</time></trkpt><trkpt lat="42.6860017" lon="2.9075217"><ele>46.0</ele><time>2026-04-08T13:09:22.918Z</time></trkpt><trkpt lat="42.685915" lon="2.907645"><ele>46.0</ele><time>2026-04-08T13:09:23.918Z</time></trkpt><trkpt lat="42.6858233" lon="2.907775"><ele>46.0</ele><time>2026-04-08T13:09:24.917Z</time></trkpt><trkpt lat="42.6857467" lon="2.9079"><ele>46.0</ele><time>2026-04-08T13:09:25.917Z</time></trkpt><trkpt lat="42.6856467" lon="2.90803"><ele>46.0</ele><time>2026-04-08T13:09:26.918Z</time></trkpt><trkpt lat="42.6855233" lon="2.9081467"><ele>46.0</ele><time>2026-04-08T13:09:27.917Z</time></trkpt><trkpt lat="42.6854083" lon="2.90825"><ele>46.0</ele><time>2026-04-08T13:09:28.917Z</time></trkpt><trkpt lat="42.68528" lon="2.9083517"><ele>46.0</ele><time>2026-04-08T13:09:29.917Z</time></trkpt><trkpt lat="42.6851383" lon="2.908455"><ele>46.0</ele><time>2026-04-08T13:09:30.917Z</time></trkpt><trkpt lat="42.6849967" lon="2.9085467"><ele>46.0</ele><time>2026-04-08T13:09:31.918Z</time></trkpt><trkpt lat="42.6848533" lon="2.9086333"><ele>46.0</ele><time>2026-04-08T13:09:32.917Z</time></trkpt><trkpt lat="42.684705" lon="2.9087067"><ele>46.0</ele><time>2026-04-08T13:09:33.916Z</time></trkpt><trkpt lat="42.6845633" lon="2.908785"><ele>46.0</ele><time>2026-04-08T13:09:34.918Z</time></trkpt><trkpt lat="42.6844267" lon="2.9088583"><ele>46.0</ele><time>2026-04-08T13:09:35.918Z</time></trkpt><trkpt lat="42.6842867" lon="2.9089317"><ele>45.0</ele><time>2026-04-08T13:09:36.917Z</time></trkpt><trkpt lat="42.6841467" lon="2.909"><ele>44.0</ele><time>2026-04-08T13:09:37.918Z</time></trkpt><trkpt lat="42.6840067" lon="2.9090683"><ele>43.0</ele><time>2026-04-08T13:09:38.918Z</time></trkpt><trkpt lat="42.6838767" lon="2.9091317"><ele>42.0</ele><time>2026-04-08T13:09:39.917Z</time></trkpt><trkpt lat="42.683745" lon="2.909195"><ele>42.0</ele><time>2026-04-08T13:09:40.917Z</time></trkpt><trkpt lat="42.6836233" lon="2.9092633"><ele>42.0</ele><time>2026-04-08T13:09:41.918Z</time></trkpt><trkpt lat="42.6835083" lon="2.9093333"><ele>42.0</ele><time>2026-04-08T13:09:42.918Z</time></trkpt><trkpt lat="42.683385" lon="2.909405"><ele>42.0</ele><time>2026-04-08T13:09:43.918Z</time></trkpt><trkpt lat="42.6832617" lon="2.9094767"><ele>42.0</ele><time>2026-04-08T13:09:44.918Z</time></trkpt><trkpt lat="42.6831383" lon="2.9095467"><ele>42.0</ele><time>2026-04-08T13:09:45.917Z</time></trkpt><trkpt lat="42.6830167" lon="2.9096167"><ele>42.0</ele><time>2026-04-08T13:09:46.918Z</time></trkpt><trkpt lat="42.6828867" lon="2.9096883"><ele>42.0</ele><time>2026-04-08T13:09:47.918Z</time></trkpt><trkpt lat="42.6827567" lon="2.9097583"><ele>42.25</ele><time>2026-04-08T13:09:48.917Z</time></trkpt><trkpt lat="42.682625" lon="2.909835"><ele>42.5</ele><time>2026-04-08T13:09:49.918Z</time></trkpt><trkpt lat="42.6825" lon="2.9099117"><ele>42.75</ele><time>2026-04-08T13:09:50.918Z</time></trkpt><trkpt lat="42.682375" lon="2.9099767"><ele>43.0</ele><time>2026-04-08T13:09:51.918Z</time></trkpt><trkpt lat="42.6822533" lon="2.910045"><ele>42.5</ele><time>2026-04-08T13:09:52.918Z</time></trkpt><trkpt lat="42.6821317" lon="2.9101133"><ele>42.0</ele><time>2026-04-08T13:09:53.918Z</time></trkpt><trkpt lat="42.6820117" lon="2.91018"><ele>41.5</ele><time>2026-04-08T13:09:54.918Z</time></trkpt><trkpt lat="42.6818883" lon="2.9102417"><ele>41.0</ele><time>2026-04-08T13:09:55.918Z</time></trkpt><trkpt lat="42.681765" lon="2.9103"><ele>40.8</ele><time>2026-04-08T13:09:56.918Z</time></trkpt><trkpt lat="42.6816533" lon="2.9103533"><ele>40.599999999999994</ele><time>2026-04-08T13:09:57.918Z</time></trkpt><trkpt lat="42.6815583" lon="2.9104033"><ele>40.4</ele><time>2026-04-08T13:09:58.918Z</time></trkpt><trkpt lat="42.6814733" lon="2.9104517"><ele>40.2</ele><time>2026-04-08T13:09:59.918Z</time></trkpt><trkpt lat="42.6813967" lon="2.9104967"><ele>40.0</ele><time>2026-04-08T13:10:00.918Z</time></trkpt><trkpt lat="42.68133" lon="2.9105283"><ele>40.0</ele><time>2026-04-08T13:10:01.918Z</time></trkpt><trkpt lat="42.6812083" lon="2.9105517"><ele>40.0</ele><time>2026-04-08T13:10:03.918Z</time></trkpt><trkpt lat="42.681135" lon="2.91055"><ele>40.0</ele><time>2026-04-08T13:10:04.917Z</time></trkpt><trkpt lat="42.6810467" lon="2.910525"><ele>40.0</ele><time>2026-04-08T13:10:05.918Z</time></trkpt><trkpt lat="42.680955" lon="2.9105233"><ele>40.0</ele><time>2026-04-08T13:10:06.918Z</time></trkpt><trkpt lat="42.6808733" lon="2.9105683"><ele>40.0</ele><time>2026-04-08T13:10:07.917Z</time></trkpt><trkpt lat="42.6808017" lon="2.9106517"><ele>40.0</ele><time>2026-04-08T13:10:08.918Z</time></trkpt><trkpt lat="42.680745" lon="2.9107633"><ele>40.0</ele><time>2026-04-08T13:10:09.918Z</time></trkpt><trkpt lat="42.6806783" lon="2.9108533"><ele>40.0</ele><time>2026-04-08T13:10:10.918Z</time></trkpt><trkpt lat="42.6805917" lon="2.910915"><ele>40.0</ele><time>2026-04-08T13:10:11.918Z</time></trkpt><trkpt lat="42.6804917" lon="2.9109667"><ele>40.0</ele><time>2026-04-08T13:10:12.918Z</time></trkpt><trkpt lat="42.680385" lon="2.91103"><ele>40.0</ele><time>2026-04-08T13:10:13.918Z</time></trkpt><trkpt lat="42.6802767" lon="2.9110967"><ele>40.0</ele><time>2026-04-08T13:10:14.918Z</time></trkpt><trkpt lat="42.68016" lon="2.9111667"><ele>40.0</ele><time>2026-04-08T13:10:15.918Z</time></trkpt><trkpt lat="42.6800467" lon="2.91123"><ele>40.0</ele><time>2026-04-08T13:10:16.918Z</time></trkpt><trkpt lat="42.679925" lon="2.9112983"><ele>40.0</ele><time>2026-04-08T13:10:17.917Z</time></trkpt><trkpt lat="42.6798033" lon="2.9113733"><ele>40.0</ele><time>2026-04-08T13:10:18.918Z</time></trkpt><trkpt lat="42.679685" lon="2.9114383"><ele>40.0</ele><time>2026-04-08T13:10:19.918Z</time></trkpt><trkpt lat="42.67957" lon="2.9115033"><ele>40.0</ele><time>2026-04-08T13:10:20.918Z</time></trkpt><trkpt lat="42.6794533" lon="2.9115683"><ele>40.0</ele><time>2026-04-08T13:10:21.917Z</time></trkpt><trkpt lat="42.6793367" lon="2.911635"><ele>40.0</ele><time>2026-04-08T13:10:22.918Z</time></trkpt><trkpt lat="42.67922" lon="2.9117"><ele>40.0</ele><time>2026-04-08T13:10:23.917Z</time></trkpt><trkpt lat="42.67911" lon="2.91176"><ele>39.0</ele><time>2026-04-08T13:10:24.918Z</time></trkpt><trkpt lat="42.6790017" lon="2.9118233"><ele>38.0</ele><time>2026-04-08T13:10:25.918Z</time></trkpt><trkpt lat="42.6788983" lon="2.911885"><ele>37.0</ele><time>2026-04-08T13:10:26.918Z</time></trkpt><trkpt lat="42.6787933" lon="2.9119567"><ele>36.0</ele><time>2026-04-08T13:10:27.918Z</time></trkpt><trkpt lat="42.678695" lon="2.9120317"><ele>36.0</ele><time>2026-04-08T13:10:28.918Z</time></trkpt><trkpt lat="42.6786033" lon="2.9121067"><ele>36.0</ele><time>2026-04-08T13:10:29.918Z</time></trkpt><trkpt lat="42.6785167" lon="2.9121817"><ele>36.0</ele><time>2026-04-08T13:10:30.918Z</time></trkpt><trkpt lat="42.6784433" lon="2.91225"><ele>36.0</ele><time>2026-04-08T13:10:31.918Z</time></trkpt><trkpt lat="42.6782583" lon="2.9124483"><ele>36.0</ele><time>2026-04-08T13:10:34.918Z</time></trkpt><trkpt lat="42.6782083" lon="2.9125083"><ele>36.0</ele><time>2026-04-08T13:10:35.918Z</time></trkpt><trkpt lat="42.6781167" lon="2.9126183"><ele>36.0</ele><time>2026-04-08T13:10:37.918Z</time></trkpt><trkpt lat="42.67801" lon="2.9126883"><ele>36.0</ele><time>2026-04-08T13:10:39.918Z</time></trkpt><trkpt lat="42.6779333" lon="2.9126867"><ele>36.0</ele><time>2026-04-08T13:10:40.918Z</time></trkpt><trkpt lat="42.67784" lon="2.9126783"><ele>37.25</ele><time>2026-04-08T13:10:41.918Z</time></trkpt><trkpt lat="42.6777417" lon="2.912725"><ele>38.5</ele><time>2026-04-08T13:10:42.918Z</time></trkpt><trkpt lat="42.67765" lon="2.912815"><ele>39.75</ele><time>2026-04-08T13:10:43.918Z</time></trkpt><trkpt lat="42.6775433" lon="2.912895"><ele>41.0</ele><time>2026-04-08T13:10:44.917Z</time></trkpt><trkpt lat="42.6774167" lon="2.9129517"><ele>41.0</ele><time>2026-04-08T13:10:45.918Z</time></trkpt><trkpt lat="42.6772767" lon="2.9129817"><ele>41.0</ele><time>2026-04-08T13:10:46.918Z</time></trkpt><trkpt lat="42.6771267" lon="2.91302"><ele>41.0</ele><time>2026-04-08T13:10:47.918Z</time></trkpt><trkpt lat="42.676965" lon="2.9130617"><ele>42.0</ele><time>2026-04-08T13:10:48.918Z</time></trkpt><trkpt lat="42.6767917" lon="2.9131067"><ele>43.0</ele><time>2026-04-08T13:10:49.918Z</time></trkpt><trkpt lat="42.67662" lon="2.913165"><ele>44.0</ele><time>2026-04-08T13:10:50.918Z</time></trkpt><trkpt lat="42.67645" lon="2.91323"><ele>44.0</ele><time>2026-04-08T13:10:51.918Z</time></trkpt><trkpt lat="42.6762783" lon="2.9132967"><ele>44.0</ele><time>2026-04-08T13:10:52.918Z</time></trkpt><trkpt lat="42.6761117" lon="2.9133767"><ele>44.0</ele><time>2026-04-08T13:10:53.917Z</time></trkpt><trkpt lat="42.6759483" lon="2.9134583"><ele>43.666666666666664</ele><time>2026-04-08T13:10:54.917Z</time></trkpt><trkpt lat="42.6757883" lon="2.9135433"><ele>43.333333333333336</ele><time>2026-04-08T13:10:55.919Z</time></trkpt><trkpt lat="42.6756267" lon="2.9136283"><ele>43.0</ele><time>2026-04-08T13:10:56.919Z</time></trkpt><trkpt lat="42.6754633" lon="2.9137167"><ele>43.0</ele><time>2026-04-08T13:10:57.919Z</time></trkpt><trkpt lat="42.6753067" lon="2.9137983"><ele>43.0</ele><time>2026-04-08T13:10:58.919Z</time></trkpt><trkpt lat="42.6751533" lon="2.91388"><ele>43.0</ele><time>2026-04-08T13:10:59.918Z</time></trkpt><trkpt lat="42.6750017" lon="2.9139667"><ele>43.0</ele><time>2026-04-08T13:11:00.919Z</time></trkpt><trkpt lat="42.6748467" lon="2.9140567"><ele>43.0</ele><time>2026-04-08T13:11:01.919Z</time></trkpt><trkpt lat="42.67469" lon="2.914145"><ele>43.0</ele><time>2026-04-08T13:11:02.919Z</time></trkpt><trkpt lat="42.6745317" lon="2.91423"><ele>42.333333333333336</ele><time>2026-04-08T13:11:03.918Z</time></trkpt><trkpt lat="42.674375" lon="2.9143167"><ele>41.666666666666664</ele><time>2026-04-08T13:11:04.919Z</time></trkpt><trkpt lat="42.674215" lon="2.9143983"><ele>41.0</ele><time>2026-04-08T13:11:05.919Z</time></trkpt><trkpt lat="42.674055" lon="2.9144817"><ele>41.0</ele><time>2026-04-08T13:11:06.919Z</time></trkpt><trkpt lat="42.6739" lon="2.914575"><ele>41.0</ele><time>2026-04-08T13:11:07.919Z</time></trkpt><trkpt lat="42.6737433" lon="2.914665"><ele>41.0</ele><time>2026-04-08T13:11:08.919Z</time></trkpt><trkpt lat="42.6735867" lon="2.9147517"><ele>41.0</ele><time>2026-04-08T13:11:09.919Z</time></trkpt><trkpt lat="42.67343" lon="2.9148383"><ele>41.0</ele><time>2026-04-08T13:11:10.918Z</time></trkpt><trkpt lat="42.6732717" lon="2.9149283"><ele>41.0</ele><time>2026-04-08T13:11:11.918Z</time></trkpt><trkpt lat="42.6731117" lon="2.915015"><ele>40.666666666666664</ele><time>2026-04-08T13:11:12.919Z</time></trkpt><trkpt lat="42.6729517" lon="2.9151033"><ele>40.333333333333336</ele><time>2026-04-08T13:11:13.918Z</time></trkpt><trkpt lat="42.6727917" lon="2.915195"><ele>40.0</ele><time>2026-04-08T13:11:14.918Z</time></trkpt><trkpt lat="42.6726317" lon="2.9152817"><ele>40.0</ele><time>2026-04-08T13:11:15.919Z</time></trkpt><trkpt lat="42.6724733" lon="2.9153683"><ele>40.0</ele><time>2026-04-08T13:11:16.919Z</time></trkpt><trkpt lat="42.67231" lon="2.915455"><ele>40.0</ele><time>2026-04-08T13:11:17.919Z</time></trkpt><trkpt lat="42.672145" lon="2.9155433"><ele>40.0</ele><time>2026-04-08T13:11:18.918Z</time></trkpt><trkpt lat="42.67198" lon="2.9156317"><ele>40.0</ele><time>2026-04-08T13:11:19.919Z</time></trkpt><trkpt lat="42.6718133" lon="2.9157267"><ele>40.0</ele><time>2026-04-08T13:11:20.919Z</time></trkpt><trkpt lat="42.6716483" lon="2.9158167"><ele>39.333333333333336</ele><time>2026-04-08T13:11:21.918Z</time></trkpt><trkpt lat="42.6714783" lon="2.9159017"><ele>38.666666666666664</ele><time>2026-04-08T13:11:22.919Z</time></trkpt><trkpt lat="42.67132" lon="2.9159633"><ele>38.0</ele><time>2026-04-08T13:11:23.919Z</time></trkpt><trkpt lat="42.6711667" lon="2.9160167"><ele>38.5</ele><time>2026-04-08T13:11:24.919Z</time></trkpt><trkpt lat="42.6710283" lon="2.9160633"><ele>39.0</ele><time>2026-04-08T13:11:25.919Z</time></trkpt><trkpt lat="42.6709017" lon="2.9161033"><ele>39.5</ele><time>2026-04-08T13:11:26.919Z</time></trkpt><trkpt lat="42.6707883" lon="2.916135"><ele>40.0</ele><time>2026-04-08T13:11:27.919Z</time></trkpt><trkpt lat="42.6706883" lon="2.916165"><ele>40.0</ele><time>2026-04-08T13:11:28.918Z</time></trkpt><trkpt lat="42.670595" lon="2.9161883"><ele>40.0</ele><time>2026-04-08T13:11:29.919Z</time></trkpt><trkpt lat="42.67051" lon="2.91619"><ele>40.0</ele><time>2026-04-08T13:11:30.919Z</time></trkpt><trkpt lat="42.6704317" lon="2.9161667"><ele>40.0</ele><time>2026-04-08T13:11:31.919Z</time></trkpt><trkpt lat="42.6703617" lon="2.9161117"><ele>40.0</ele><time>2026-04-08T13:11:32.918Z</time></trkpt><trkpt lat="42.670285" lon="2.9160667"><ele>40.0</ele><time>2026-04-08T13:11:33.919Z</time></trkpt><trkpt lat="42.6702017" lon="2.9160483"><ele>38.8</ele><time>2026-04-08T13:11:34.918Z</time></trkpt><trkpt lat="42.670115" lon="2.91607"><ele>37.6</ele><time>2026-04-08T13:11:35.918Z</time></trkpt><trkpt lat="42.6700317" lon="2.9161283"><ele>36.4</ele><time>2026-04-08T13:11:36.919Z</time></trkpt><trkpt lat="42.66996" lon="2.91622"><ele>35.2</ele><time>2026-04-08T13:11:37.919Z</time></trkpt><trkpt lat="42.669915" lon="2.91634"><ele>34.0</ele><time>2026-04-08T13:11:38.919Z</time></trkpt><trkpt lat="42.66988" lon="2.9164583"><ele>34.0</ele><time>2026-04-08T13:11:39.919Z</time></trkpt><trkpt lat="42.6698217" lon="2.9165683"><ele>34.0</ele><time>2026-04-08T13:11:40.918Z</time></trkpt><trkpt lat="42.669745" lon="2.9166717"><ele>34.0</ele><time>2026-04-08T13:11:41.919Z</time></trkpt><trkpt lat="42.6696533" lon="2.9167683"><ele>34.0</ele><time>2026-04-08T13:11:42.919Z</time></trkpt><trkpt lat="42.6695417" lon="2.9168667"><ele>33.0</ele><time>2026-04-08T13:11:43.919Z</time></trkpt><trkpt lat="42.669425" lon="2.9169633"><ele>32.0</ele><time>2026-04-08T13:11:44.919Z</time></trkpt><trkpt lat="42.669305" lon="2.9170567"><ele>31.0</ele><time>2026-04-08T13:11:45.918Z</time></trkpt><trkpt lat="42.6691783" lon="2.9171433"><ele>30.0</ele><time>2026-04-08T13:11:46.919Z</time></trkpt><trkpt lat="42.6690483" lon="2.91722"><ele>30.0</ele><time>2026-04-08T13:11:47.918Z</time></trkpt><trkpt lat="42.668915" lon="2.9172917"><ele>30.0</ele><time>2026-04-08T13:11:48.918Z</time></trkpt><trkpt lat="42.668785" lon="2.9173617"><ele>30.0</ele><time>2026-04-08T13:11:49.919Z</time></trkpt><trkpt lat="42.6683933" lon="2.917575"><ele>30.0</ele><time>2026-04-08T13:11:52.919Z</time></trkpt><trkpt lat="42.668255" lon="2.9176467"><ele>30.0</ele><time>2026-04-08T13:11:53.918Z</time></trkpt><trkpt lat="42.6681167" lon="2.9177167"><ele>30.0</ele><time>2026-04-08T13:11:54.919Z</time></trkpt><trkpt lat="42.667985" lon="2.9177883"><ele>30.0</ele><time>2026-04-08T13:11:55.918Z</time></trkpt><trkpt lat="42.6675917" lon="2.9180317"><ele>30.0</ele><time>2026-04-08T13:11:58.919Z</time></trkpt><trkpt lat="42.66746" lon="2.91811"><ele>30.0</ele><time>2026-04-08T13:11:59.919Z</time></trkpt><trkpt lat="42.6673417" lon="2.9181817"><ele>30.0</ele><time>2026-04-08T13:12:00.919Z</time></trkpt><trkpt lat="42.6672183" lon="2.9182483"><ele>30.0</ele><time>2026-04-08T13:12:01.919Z</time></trkpt><trkpt lat="42.66682" lon="2.9184633"><ele>29.75</ele><time>2026-04-08T13:12:04.919Z</time></trkpt><trkpt lat="42.6666833" lon="2.91853"><ele>29.5</ele><time>2026-04-08T13:12:05.918Z</time></trkpt><trkpt lat="42.6665483" lon="2.918585"><ele>29.25</ele><time>2026-04-08T13:12:06.919Z</time></trkpt><trkpt lat="42.666435" lon="2.9186233"><ele>29.0</ele><time>2026-04-08T13:12:07.919Z</time></trkpt><trkpt lat="42.6663367" lon="2.918655"><ele>29.0</ele><time>2026-04-08T13:12:08.919Z</time></trkpt><trkpt lat="42.6662617" lon="2.9186867"><ele>29.0</ele><time>2026-04-08T13:12:09.919Z</time></trkpt><trkpt lat="42.6661833" lon="2.918715"><ele>29.0</ele><time>2026-04-08T13:12:11.919Z</time></trkpt><trkpt lat="42.6661167" lon="2.9187317"><ele>29.0</ele><time>2026-04-08T13:12:13.918Z</time></trkpt><trkpt lat="42.6659967" lon="2.9187567"><ele>29.0</ele><time>2026-04-08T13:12:16.919Z</time></trkpt><trkpt lat="42.6658733" lon="2.9187233"><ele>28.999999999999996</ele><time>2026-04-08T13:12:18.918Z</time></trkpt><trkpt lat="42.665795" lon="2.9186883"><ele>29.0</ele><time>2026-04-08T13:12:19.919Z</time></trkpt><trkpt lat="42.6657083" lon="2.9186683"><ele>29.0</ele><time>2026-04-08T13:12:20.919Z</time></trkpt><trkpt lat="42.66562" lon="2.9186817"><ele>29.0</ele><time>2026-04-08T13:12:21.918Z</time></trkpt><trkpt lat="42.6655417" lon="2.91873"><ele>28.999999999999996</ele><time>2026-04-08T13:12:22.919Z</time></trkpt><trkpt lat="42.6654667" lon="2.9187917"><ele>29.0</ele><time>2026-04-08T13:12:23.919Z</time></trkpt><trkpt lat="42.66539" lon="2.9188267"><ele>28.999999999999996</ele><time>2026-04-08T13:12:24.919Z</time></trkpt><trkpt lat="42.6653083" lon="2.9188217"><ele>29.0</ele><time>2026-04-08T13:12:25.918Z</time></trkpt><trkpt lat="42.6652317" lon="2.918775"><ele>29.0</ele><time>2026-04-08T13:12:26.919Z</time></trkpt><trkpt lat="42.6651717" lon="2.918685"><ele>29.0</ele><time>2026-04-08T13:12:27.918Z</time></trkpt><trkpt lat="42.6651333" lon="2.9185717"><ele>28.999999999999996</ele><time>2026-04-08T13:12:28.918Z</time></trkpt><trkpt lat="42.6651017" lon="2.9184533"><ele>29.0</ele><time>2026-04-08T13:12:29.919Z</time></trkpt><trkpt lat="42.6650717" lon="2.9183233"><ele>28.799999999999997</ele><time>2026-04-08T13:12:30.919Z</time></trkpt><trkpt lat="42.6650367" lon="2.91819"><ele>28.599999999999998</ele><time>2026-04-08T13:12:31.918Z</time></trkpt><trkpt lat="42.66499" lon="2.91807"><ele>28.4</ele><time>2026-04-08T13:12:32.918Z</time></trkpt><trkpt lat="42.6649267" lon="2.917965"><ele>28.2</ele><time>2026-04-08T13:12:33.918Z</time></trkpt><trkpt lat="42.6648483" lon="2.9178817"><ele>28.0</ele><time>2026-04-08T13:12:34.918Z</time></trkpt><trkpt lat="42.6647567" lon="2.9178283"><ele>28.0</ele><time>2026-04-08T13:12:35.918Z</time></trkpt><trkpt lat="42.6646533" lon="2.91781"><ele>27.999999999999996</ele><time>2026-04-08T13:12:36.919Z</time></trkpt><trkpt lat="42.66455" lon="2.9178167"><ele>27.999999999999996</ele><time>2026-04-08T13:12:37.918Z</time></trkpt><trkpt lat="42.6644433" lon="2.9178483"><ele>28.0</ele><time>2026-04-08T13:12:38.918Z</time></trkpt><trkpt lat="42.6643417" lon="2.9179033"><ele>28.0</ele><time>2026-04-08T13:12:39.919Z</time></trkpt><trkpt lat="42.6642517" lon="2.9179933"><ele>28.2</ele><time>2026-04-08T13:12:40.919Z</time></trkpt><trkpt lat="42.6641833" lon="2.91811"><ele>28.4</ele><time>2026-04-08T13:12:41.919Z</time></trkpt><trkpt lat="42.6641417" lon="2.9182433"><ele>28.599999999999998</ele><time>2026-04-08T13:12:42.918Z</time></trkpt><trkpt lat="42.6641083" lon="2.91839"><ele>28.799999999999997</ele><time>2026-04-08T13:12:43.918Z</time></trkpt><trkpt lat="42.6640733" lon="2.9185417"><ele>29.0</ele><time>2026-04-08T13:12:44.919Z</time></trkpt><trkpt lat="42.6640367" lon="2.9186917"><ele>29.0</ele><time>2026-04-08T13:12:45.919Z</time></trkpt><trkpt lat="42.6639983" lon="2.9188367"><ele>29.0</ele><time>2026-04-08T13:12:46.919Z</time></trkpt><trkpt lat="42.663965" lon="2.9189767"><ele>29.0</ele><time>2026-04-08T13:12:47.919Z</time></trkpt><trkpt lat="42.6639283" lon="2.9191117"><ele>29.0</ele><time>2026-04-08T13:12:48.918Z</time></trkpt><trkpt lat="42.6638833" lon="2.91924"><ele>29.0</ele><time>2026-04-08T13:12:49.918Z</time></trkpt><trkpt lat="42.6638267" lon="2.919345"><ele>29.166666666666664</ele><time>2026-04-08T13:12:50.919Z</time></trkpt><trkpt lat="42.6637533" lon="2.9194217"><ele>29.333333333333332</ele><time>2026-04-08T13:12:51.919Z</time></trkpt><trkpt lat="42.6636867" lon="2.9195033"><ele>29.5</ele><time>2026-04-08T13:12:52.919Z</time></trkpt><trkpt lat="42.66365" lon="2.9196067"><ele>29.666666666666664</ele><time>2026-04-08T13:12:53.919Z</time></trkpt><trkpt lat="42.66364" lon="2.9197183"><ele>29.833333333333332</ele><time>2026-04-08T13:12:54.919Z</time></trkpt><trkpt lat="42.6636517" lon="2.919835"><ele>30.0</ele><time>2026-04-08T13:12:55.919Z</time></trkpt><trkpt lat="42.6636517" lon="2.9199567"><ele>30.0</ele><time>2026-04-08T13:12:56.919Z</time></trkpt><trkpt lat="42.6636183" lon="2.92008"><ele>30.0</ele><time>2026-04-08T13:12:57.919Z</time></trkpt><trkpt lat="42.66355" lon="2.9201867"><ele>30.0</ele><time>2026-04-08T13:12:58.919Z</time></trkpt><trkpt lat="42.663465" lon="2.920295"><ele>30.0</ele><time>2026-04-08T13:12:59.919Z</time></trkpt><trkpt lat="42.6633683" lon="2.9204133"><ele>30.0</ele><time>2026-04-08T13:13:00.918Z</time></trkpt><trkpt lat="42.6632567" lon="2.9205383"><ele>29.666666666666664</ele><time>2026-04-08T13:13:01.919Z</time></trkpt><trkpt lat="42.6631283" lon="2.920665"><ele>29.333333333333332</ele><time>2026-04-08T13:13:02.919Z</time></trkpt><trkpt lat="42.66298" lon="2.92079"><ele>29.0</ele><time>2026-04-08T13:13:03.919Z</time></trkpt><trkpt lat="42.66281" lon="2.920915"><ele>28.666666666666664</ele><time>2026-04-08T13:13:04.919Z</time></trkpt><trkpt lat="42.662625" lon="2.9210383"><ele>28.333333333333336</ele><time>2026-04-08T13:13:05.918Z</time></trkpt><trkpt lat="42.662435" lon="2.9211667"><ele>28.0</ele><time>2026-04-08T13:13:06.919Z</time></trkpt><trkpt lat="42.662245" lon="2.9213033"><ele>28.0</ele><time>2026-04-08T13:13:07.919Z</time></trkpt><trkpt lat="42.6620583" lon="2.9214467"><ele>28.0</ele><time>2026-04-08T13:13:08.918Z</time></trkpt><trkpt lat="42.6618667" lon="2.921595"><ele>28.0</ele><time>2026-04-08T13:13:09.919Z</time></trkpt><trkpt lat="42.6616767" lon="2.92174"><ele>27.0</ele><time>2026-04-08T13:13:10.918Z</time></trkpt><trkpt lat="42.661485" lon="2.9218917"><ele>26.0</ele><time>2026-04-08T13:13:11.919Z</time></trkpt><trkpt lat="42.6612883" lon="2.9220517"><ele>26.5</ele><time>2026-04-08T13:13:12.918Z</time></trkpt><trkpt lat="42.661085" lon="2.9222133"><ele>27.0</ele><time>2026-04-08T13:13:13.919Z</time></trkpt><trkpt lat="42.6608833" lon="2.92237"><ele>27.0</ele><time>2026-04-08T13:13:14.919Z</time></trkpt><trkpt lat="42.660675" lon="2.9225283"><ele>27.0</ele><time>2026-04-08T13:13:15.918Z</time></trkpt><trkpt lat="42.6604633" lon="2.922685"><ele>27.0</ele><time>2026-04-08T13:13:16.919Z</time></trkpt><trkpt lat="42.6602567" lon="2.92284"><ele>27.0</ele><time>2026-04-08T13:13:17.919Z</time></trkpt><trkpt lat="42.660055" lon="2.922995"><ele>27.0</ele><time>2026-04-08T13:13:18.919Z</time></trkpt><trkpt lat="42.6598483" lon="2.9231533"><ele>27.0</ele><time>2026-04-08T13:13:19.919Z</time></trkpt><trkpt lat="42.65964" lon="2.9233117"><ele>27.0</ele><time>2026-04-08T13:13:20.918Z</time></trkpt><trkpt lat="42.6594233" lon="2.923465"><ele>27.0</ele><time>2026-04-08T13:13:21.918Z</time></trkpt><trkpt lat="42.659195" lon="2.9236233"><ele>27.0</ele><time>2026-04-08T13:13:22.919Z</time></trkpt><trkpt lat="42.6589667" lon="2.9237867"><ele>27.0</ele><time>2026-04-08T13:13:23.918Z</time></trkpt><trkpt lat="42.6587533" lon="2.9239467"><ele>27.0</ele><time>2026-04-08T13:13:24.918Z</time></trkpt><trkpt lat="42.6585367" lon="2.9241117"><ele>27.0</ele><time>2026-04-08T13:13:25.919Z</time></trkpt><trkpt lat="42.6583133" lon="2.9242783"><ele>26.5</ele><time>2026-04-08T13:13:26.919Z</time></trkpt><trkpt lat="42.6580867" lon="2.9244483"><ele>26.0</ele><time>2026-04-08T13:13:27.919Z</time></trkpt><trkpt lat="42.6578683" lon="2.924615"><ele>25.5</ele><time>2026-04-08T13:13:28.919Z</time></trkpt><trkpt lat="42.657645" lon="2.9247767"><ele>25.0</ele><time>2026-04-08T13:13:29.919Z</time></trkpt><trkpt lat="42.6574167" lon="2.924935"><ele>25.5</ele><time>2026-04-08T13:13:30.919Z</time></trkpt><trkpt lat="42.6571783" lon="2.9250883"><ele>26.0</ele><time>2026-04-08T13:13:31.919Z</time></trkpt><trkpt lat="42.65694" lon="2.925235"><ele>24.5</ele><time>2026-04-08T13:13:32.919Z</time></trkpt><trkpt lat="42.6567033" lon="2.9253733"><ele>23.0</ele><time>2026-04-08T13:13:33.919Z</time></trkpt><trkpt lat="42.6564683" lon="2.9255017"><ele>23.0</ele><time>2026-04-08T13:13:34.919Z</time></trkpt><trkpt lat="42.6562267" lon="2.9256267"><ele>23.0</ele><time>2026-04-08T13:13:35.918Z</time></trkpt><trkpt lat="42.6559833" lon="2.925745"><ele>23.5</ele><time>2026-04-08T13:13:36.918Z</time></trkpt><trkpt lat="42.6557433" lon="2.925855"><ele>24.0</ele><time>2026-04-08T13:13:37.917Z</time></trkpt><trkpt lat="42.6554967" lon="2.9259567"><ele>24.0</ele><time>2026-04-08T13:13:38.918Z</time></trkpt><trkpt lat="42.6552383" lon="2.926055"><ele>24.0</ele><time>2026-04-08T13:13:39.918Z</time></trkpt><trkpt lat="42.6549767" lon="2.9261483"><ele>24.0</ele><time>2026-04-08T13:13:40.918Z</time></trkpt><trkpt lat="42.6547167" lon="2.9262333"><ele>24.0</ele><time>2026-04-08T13:13:41.917Z</time></trkpt><trkpt lat="42.6544533" lon="2.9263183"><ele>22.5</ele><time>2026-04-08T13:13:42.918Z</time></trkpt><trkpt lat="42.654195" lon="2.9264017"><ele>21.0</ele><time>2026-04-08T13:13:43.918Z</time></trkpt><trkpt lat="42.6539367" lon="2.92648"><ele>21.0</ele><time>2026-04-08T13:13:44.917Z</time></trkpt><trkpt lat="42.6536767" lon="2.926555"><ele>21.0</ele><time>2026-04-08T13:13:45.918Z</time></trkpt><trkpt lat="42.6534233" lon="2.9266233"><ele>21.0</ele><time>2026-04-08T13:13:46.918Z</time></trkpt><trkpt lat="42.6531667" lon="2.926695"><ele>21.0</ele><time>2026-04-08T13:13:47.918Z</time></trkpt><trkpt lat="42.6529133" lon="2.9267683"><ele>21.0</ele><time>2026-04-08T13:13:48.918Z</time></trkpt><trkpt lat="42.6526567" lon="2.9268417"><ele>21.0</ele><time>2026-04-08T13:13:49.918Z</time></trkpt><trkpt lat="42.6523967" lon="2.9269183"><ele>21.0</ele><time>2026-04-08T13:13:50.917Z</time></trkpt><trkpt lat="42.6521317" lon="2.9269983"><ele>21.0</ele><time>2026-04-08T13:13:51.917Z</time></trkpt><trkpt lat="42.6518633" lon="2.9270767"><ele>21.0</ele><time>2026-04-08T13:13:52.917Z</time></trkpt><trkpt lat="42.6515933" lon="2.927155"><ele>21.0</ele><time>2026-04-08T13:13:53.918Z</time></trkpt><trkpt lat="42.651325" lon="2.9272333"><ele>21.5</ele><time>2026-04-08T13:13:54.918Z</time></trkpt><trkpt lat="42.6510517" lon="2.9273167"><ele>22.0</ele><time>2026-04-08T13:13:55.918Z</time></trkpt><trkpt lat="42.6507783" lon="2.9274"><ele>22.0</ele><time>2026-04-08T13:13:56.918Z</time></trkpt><trkpt lat="42.6505033" lon="2.9274783"><ele>22.0</ele><time>2026-04-08T13:13:57.918Z</time></trkpt><trkpt lat="42.65023" lon="2.9275583"><ele>21.5</ele><time>2026-04-08T13:13:58.917Z</time></trkpt><trkpt lat="42.6499567" lon="2.9276333"><ele>21.0</ele><time>2026-04-08T13:13:59.917Z</time></trkpt><trkpt lat="42.6496867" lon="2.92771"><ele>21.0</ele><time>2026-04-08T13:14:00.918Z</time></trkpt><trkpt lat="42.6494167" lon="2.9277833"><ele>21.0</ele><time>2026-04-08T13:14:01.917Z</time></trkpt><trkpt lat="42.6491517" lon="2.9278583"><ele>21.0</ele><time>2026-04-08T13:14:02.918Z</time></trkpt><trkpt lat="42.6488917" lon="2.9279367"><ele>21.0</ele><time>2026-04-08T13:14:03.918Z</time></trkpt><trkpt lat="42.6486317" lon="2.92803"><ele>21.0</ele><time>2026-04-08T13:14:04.918Z</time></trkpt><trkpt lat="42.6483733" lon="2.928135"><ele>21.0</ele><time>2026-04-08T13:14:05.918Z</time></trkpt><trkpt lat="42.648125" lon="2.9282617"><ele>21.5</ele><time>2026-04-08T13:14:06.918Z</time></trkpt><trkpt lat="42.6478733" lon="2.928415"><ele>22.0</ele><time>2026-04-08T13:14:07.918Z</time></trkpt><trkpt lat="42.6476333" lon="2.9285917"><ele>22.0</ele><time>2026-04-08T13:14:08.918Z</time></trkpt><trkpt lat="42.6473983" lon="2.928785"><ele>22.0</ele><time>2026-04-08T13:14:09.918Z</time></trkpt><trkpt lat="42.6471683" lon="2.9289867"><ele>21.5</ele><time>2026-04-08T13:14:10.918Z</time></trkpt><trkpt lat="42.6469367" lon="2.9291833"><ele>21.0</ele><time>2026-04-08T13:14:11.917Z</time></trkpt><trkpt lat="42.6467017" lon="2.9293833"><ele>19.5</ele><time>2026-04-08T13:14:12.918Z</time></trkpt><trkpt lat="42.646465" lon="2.9295817"><ele>18.0</ele><time>2026-04-08T13:14:13.918Z</time></trkpt><trkpt lat="42.64623" lon="2.9297817"><ele>18.0</ele><time>2026-04-08T13:14:14.917Z</time></trkpt><trkpt lat="42.6459967" lon="2.92998"><ele>18.0</ele><time>2026-04-08T13:14:15.918Z</time></trkpt><trkpt lat="42.6457667" lon="2.9301817"><ele>18.0</ele><time>2026-04-08T13:14:16.918Z</time></trkpt><trkpt lat="42.6455333" lon="2.9303783"><ele>18.0</ele><time>2026-04-08T13:14:17.918Z</time></trkpt><trkpt lat="42.6453" lon="2.930575"><ele>18.0</ele><time>2026-04-08T13:14:18.918Z</time></trkpt><trkpt lat="42.64507" lon="2.9307733"><ele>18.0</ele><time>2026-04-08T13:14:19.918Z</time></trkpt><trkpt lat="42.644835" lon="2.930975"><ele>18.0</ele><time>2026-04-08T13:14:20.918Z</time></trkpt><trkpt lat="42.6446017" lon="2.931175"><ele>18.0</ele><time>2026-04-08T13:14:21.918Z</time></trkpt><trkpt lat="42.6443683" lon="2.931375"><ele>17.0</ele><time>2026-04-08T13:14:22.917Z</time></trkpt><trkpt lat="42.6441367" lon="2.93157"><ele>16.0</ele><time>2026-04-08T13:14:23.918Z</time></trkpt><trkpt lat="42.643905" lon="2.9317667"><ele>15.5</ele><time>2026-04-08T13:14:24.918Z</time></trkpt><trkpt lat="42.64367" lon="2.9319617"><ele>15.0</ele><time>2026-04-08T13:14:25.918Z</time></trkpt><trkpt lat="42.6434433" lon="2.9321567"><ele>15.0</ele><time>2026-04-08T13:14:26.917Z</time></trkpt><trkpt lat="42.64322" lon="2.9323517"><ele>15.0</ele><time>2026-04-08T13:14:27.918Z</time></trkpt><trkpt lat="42.6429933" lon="2.9325467"><ele>16.5</ele><time>2026-04-08T13:14:28.918Z</time></trkpt><trkpt lat="42.6427683" lon="2.9327417"><ele>18.0</ele><time>2026-04-08T13:14:29.918Z</time></trkpt><trkpt lat="42.6425417" lon="2.932935"><ele>18.0</ele><time>2026-04-08T13:14:30.917Z</time></trkpt><trkpt lat="42.6423183" lon="2.93313"><ele>18.0</ele><time>2026-04-08T13:14:31.918Z</time></trkpt><trkpt lat="42.6420933" lon="2.93333"><ele>18.0</ele><time>2026-04-08T13:14:32.918Z</time></trkpt><trkpt lat="42.641865" lon="2.9335367"><ele>18.0</ele><time>2026-04-08T13:14:33.917Z</time></trkpt><trkpt lat="42.6416367" lon="2.9337467"><ele>18.0</ele><time>2026-04-08T13:14:34.918Z</time></trkpt><trkpt lat="42.641405" lon="2.9339567"><ele>18.0</ele><time>2026-04-08T13:14:35.918Z</time></trkpt><trkpt lat="42.6411733" lon="2.9341683"><ele>17.5</ele><time>2026-04-08T13:14:36.918Z</time></trkpt><trkpt lat="42.64094" lon="2.9343767"><ele>17.0</ele><time>2026-04-08T13:14:37.918Z</time></trkpt><trkpt lat="42.6407083" lon="2.9345783"><ele>17.0</ele><time>2026-04-08T13:14:38.918Z</time></trkpt><trkpt lat="42.64048" lon="2.9347767"><ele>17.0</ele><time>2026-04-08T13:14:39.918Z</time></trkpt><trkpt lat="42.6402533" lon="2.934975"><ele>17.0</ele><time>2026-04-08T13:14:40.918Z</time></trkpt><trkpt lat="42.6400283" lon="2.935165"><ele>17.0</ele><time>2026-04-08T13:14:41.917Z</time></trkpt><trkpt lat="42.639805" lon="2.9353633"><ele>17.0</ele><time>2026-04-08T13:14:42.917Z</time></trkpt><trkpt lat="42.639585" lon="2.935555"><ele>17.0</ele><time>2026-04-08T13:14:43.918Z</time></trkpt><trkpt lat="42.639365" lon="2.9357533"><ele>17.0</ele><time>2026-04-08T13:14:44.918Z</time></trkpt><trkpt lat="42.6391467" lon="2.93595"><ele>17.0</ele><time>2026-04-08T13:14:45.918Z</time></trkpt><trkpt lat="42.6389233" lon="2.9361483"><ele>17.0</ele><time>2026-04-08T13:14:46.917Z</time></trkpt><trkpt lat="42.6386967" lon="2.9363517"><ele>17.0</ele><time>2026-04-08T13:14:47.918Z</time></trkpt><trkpt lat="42.6384683" lon="2.9365533"><ele>17.5</ele><time>2026-04-08T13:14:48.918Z</time></trkpt><trkpt lat="42.638245" lon="2.93675"><ele>18.0</ele><time>2026-04-08T13:14:49.918Z</time></trkpt><trkpt lat="42.6380167" lon="2.9369483"><ele>17.0</ele><time>2026-04-08T13:14:50.918Z</time></trkpt><trkpt lat="42.6377917" lon="2.9371517"><ele>16.0</ele><time>2026-04-08T13:14:51.918Z</time></trkpt><trkpt lat="42.6375633" lon="2.937355"><ele>14.0</ele><time>2026-04-08T13:14:52.918Z</time></trkpt><trkpt lat="42.637335" lon="2.9375583"><ele>12.0</ele><time>2026-04-08T13:14:53.918Z</time></trkpt><trkpt lat="42.637105" lon="2.9377617"><ele>12.0</ele><time>2026-04-08T13:14:54.918Z</time></trkpt><trkpt lat="42.6368767" lon="2.937965"><ele>12.0</ele><time>2026-04-08T13:14:55.918Z</time></trkpt><trkpt lat="42.63665" lon="2.93817"><ele>12.0</ele><time>2026-04-08T13:14:56.918Z</time></trkpt><trkpt lat="42.6364183" lon="2.9383717"><ele>12.0</ele><time>2026-04-08T13:14:57.918Z</time></trkpt><trkpt lat="42.6361867" lon="2.9385817"><ele>13.0</ele><time>2026-04-08T13:14:58.918Z</time></trkpt><trkpt lat="42.6359567" lon="2.9387867"><ele>14.0</ele><time>2026-04-08T13:14:59.917Z</time></trkpt><trkpt lat="42.635725" lon="2.938995"><ele>14.0</ele><time>2026-04-08T13:15:00.917Z</time></trkpt><trkpt lat="42.63549" lon="2.9392"><ele>14.0</ele><time>2026-04-08T13:15:01.918Z</time></trkpt><trkpt lat="42.6352583" lon="2.93941"><ele>13.5</ele><time>2026-04-08T13:15:02.918Z</time></trkpt><trkpt lat="42.635025" lon="2.9396217"><ele>13.0</ele><time>2026-04-08T13:15:03.918Z</time></trkpt><trkpt lat="42.6347883" lon="2.9398283"><ele>13.0</ele><time>2026-04-08T13:15:04.918Z</time></trkpt><trkpt lat="42.634555" lon="2.9400333"><ele>13.0</ele><time>2026-04-08T13:15:05.917Z</time></trkpt><trkpt lat="42.63432" lon="2.94024"><ele>12.5</ele><time>2026-04-08T13:15:06.918Z</time></trkpt><trkpt lat="42.6340867" lon="2.9404467"><ele>12.0</ele><time>2026-04-08T13:15:07.918Z</time></trkpt><trkpt lat="42.6338533" lon="2.9406467"><ele>12.5</ele><time>2026-04-08T13:15:08.918Z</time></trkpt><trkpt lat="42.6336217" lon="2.94085"><ele>13.0</ele><time>2026-04-08T13:15:09.918Z</time></trkpt><trkpt lat="42.6333867" lon="2.941045"><ele>13.0</ele><time>2026-04-08T13:15:10.917Z</time></trkpt><trkpt lat="42.63315" lon="2.9412383"><ele>13.0</ele><time>2026-04-08T13:15:11.918Z</time></trkpt><trkpt lat="42.6329117" lon="2.94143"><ele>13.5</ele><time>2026-04-08T13:15:12.918Z</time></trkpt><trkpt lat="42.632675" lon="2.94162"><ele>14.0</ele><time>2026-04-08T13:15:13.917Z</time></trkpt><trkpt lat="42.632435" lon="2.9417983"><ele>13.0</ele><time>2026-04-08T13:15:14.918Z</time></trkpt><trkpt lat="42.6321967" lon="2.94198"><ele>12.0</ele><time>2026-04-08T13:15:15.918Z</time></trkpt><trkpt lat="42.6319567" lon="2.9421683"><ele>12.0</ele><time>2026-04-08T13:15:16.917Z</time></trkpt><trkpt lat="42.6317167" lon="2.9423633"><ele>12.0</ele><time>2026-04-08T13:15:17.918Z</time></trkpt><trkpt lat="42.6314867" lon="2.9425517"><ele>12.0</ele><time>2026-04-08T13:15:18.918Z</time></trkpt><trkpt lat="42.6312533" lon="2.9427433"><ele>12.0</ele><time>2026-04-08T13:15:19.918Z</time></trkpt><trkpt lat="42.6310183" lon="2.9429433"><ele>12.0</ele><time>2026-04-08T13:15:20.917Z</time></trkpt><trkpt lat="42.6307883" lon="2.9431417"><ele>12.0</ele><time>2026-04-08T13:15:21.917Z</time></trkpt><trkpt lat="42.6305617" lon="2.9433433"><ele>11.5</ele><time>2026-04-08T13:15:22.918Z</time></trkpt><trkpt lat="42.630335" lon="2.9435433"><ele>11.0</ele><time>2026-04-08T13:15:23.918Z</time></trkpt><trkpt lat="42.6301083" lon="2.9437433"><ele>11.0</ele><time>2026-04-08T13:15:24.918Z</time></trkpt><trkpt lat="42.6298817" lon="2.9439433"><ele>11.0</ele><time>2026-04-08T13:15:25.918Z</time></trkpt><trkpt lat="42.6296533" lon="2.9441483"><ele>11.5</ele><time>2026-04-08T13:15:26.918Z</time></trkpt><trkpt lat="42.6294233" lon="2.94435"><ele>12.0</ele><time>2026-04-08T13:15:27.918Z</time></trkpt><trkpt lat="42.629195" lon="2.94455"><ele>12.0</ele><time>2026-04-08T13:15:28.918Z</time></trkpt><trkpt lat="42.6289683" lon="2.9447567"><ele>12.0</ele><time>2026-04-08T13:15:29.918Z</time></trkpt><trkpt lat="42.6287333" lon="2.9449617"><ele>11.5</ele><time>2026-04-08T13:15:30.917Z</time></trkpt><trkpt lat="42.628505" lon="2.9451667"><ele>11.0</ele><time>2026-04-08T13:15:31.918Z</time></trkpt><trkpt lat="42.62828" lon="2.945375"><ele>11.0</ele><time>2026-04-08T13:15:32.918Z</time></trkpt><trkpt lat="42.6280567" lon="2.9455833"><ele>11.0</ele><time>2026-04-08T13:15:33.917Z</time></trkpt><trkpt lat="42.6278317" lon="2.9457883"><ele>11.5</ele><time>2026-04-08T13:15:34.918Z</time></trkpt><trkpt lat="42.6276" lon="2.9459917"><ele>12.0</ele><time>2026-04-08T13:15:35.917Z</time></trkpt><trkpt lat="42.627365" lon="2.9461917"><ele>12.0</ele><time>2026-04-08T13:15:36.917Z</time></trkpt><trkpt lat="42.62713" lon="2.946385"><ele>12.0</ele><time>2026-04-08T13:15:37.918Z</time></trkpt><trkpt lat="42.6268967" lon="2.9465833"><ele>12.0</ele><time>2026-04-08T13:15:38.918Z</time></trkpt><trkpt lat="42.626665" lon="2.946785"><ele>12.0</ele><time>2026-04-08T13:15:39.917Z</time></trkpt><trkpt lat="42.626435" lon="2.946985"><ele>12.0</ele><time>2026-04-08T13:15:40.918Z</time></trkpt><trkpt lat="42.626205" lon="2.94718"><ele>12.0</ele><time>2026-04-08T13:15:41.917Z</time></trkpt><trkpt lat="42.6259717" lon="2.94738"><ele>15.5</ele><time>2026-04-08T13:15:42.918Z</time></trkpt><trkpt lat="42.6257383" lon="2.9475817"><ele>19.0</ele><time>2026-04-08T13:15:43.917Z</time></trkpt><trkpt lat="42.62551" lon="2.9477783"><ele>16.0</ele><time>2026-04-08T13:15:44.918Z</time></trkpt><trkpt lat="42.625275" lon="2.9479767"><ele>13.0</ele><time>2026-04-08T13:15:45.917Z</time></trkpt><trkpt lat="42.6250433" lon="2.9481767"><ele>14.5</ele><time>2026-04-08T13:15:46.918Z</time></trkpt><trkpt lat="42.624815" lon="2.9483783"><ele>16.0</ele><time>2026-04-08T13:15:47.918Z</time></trkpt><trkpt lat="42.6245867" lon="2.9485783"><ele>13.0</ele><time>2026-04-08T13:15:48.917Z</time></trkpt><trkpt lat="42.6243567" lon="2.948785"><ele>10.0</ele><time>2026-04-08T13:15:49.918Z</time></trkpt><trkpt lat="42.6241267" lon="2.9489867"><ele>10.0</ele><time>2026-04-08T13:15:50.918Z</time></trkpt><trkpt lat="42.6238983" lon="2.94919"><ele>10.0</ele><time>2026-04-08T13:15:51.918Z</time></trkpt><trkpt lat="42.62367" lon="2.9493967"><ele>9.5</ele><time>2026-04-08T13:15:52.917Z</time></trkpt><trkpt lat="42.6234383" lon="2.9496017"><ele>9.0</ele><time>2026-04-08T13:15:53.918Z</time></trkpt><trkpt lat="42.6232083" lon="2.9498033"><ele>9.0</ele><time>2026-04-08T13:15:54.917Z</time></trkpt><trkpt lat="42.6229783" lon="2.9500083"><ele>9.0</ele><time>2026-04-08T13:15:55.918Z</time></trkpt><trkpt lat="42.622745" lon="2.950215"><ele>10.5</ele><time>2026-04-08T13:15:56.917Z</time></trkpt><trkpt lat="42.6225167" lon="2.95042"><ele>12.0</ele><time>2026-04-08T13:15:57.918Z</time></trkpt><trkpt lat="42.6222883" lon="2.95062"><ele>12.0</ele><time>2026-04-08T13:15:58.918Z</time></trkpt><trkpt lat="42.622055" lon="2.9508217"><ele>12.0</ele><time>2026-04-08T13:15:59.918Z</time></trkpt><trkpt lat="42.6218217" lon="2.9510283"><ele>11.5</ele><time>2026-04-08T13:16:00.918Z</time></trkpt><trkpt lat="42.6215967" lon="2.951235"><ele>11.0</ele><time>2026-04-08T13:16:01.918Z</time></trkpt><trkpt lat="42.621365" lon="2.9514433"><ele>11.0</ele><time>2026-04-08T13:16:02.918Z</time></trkpt><trkpt lat="42.6211367" lon="2.9516467"><ele>11.0</ele><time>2026-04-08T13:16:03.918Z</time></trkpt><trkpt lat="42.6209033" lon="2.95185"><ele>10.0</ele><time>2026-04-08T13:16:04.918Z</time></trkpt><trkpt lat="42.6206733" lon="2.9520533"><ele>9.0</ele><time>2026-04-08T13:16:05.918Z</time></trkpt><trkpt lat="42.620445" lon="2.9522533"><ele>9.0</ele><time>2026-04-08T13:16:06.918Z</time></trkpt><trkpt lat="42.6202183" lon="2.95246"><ele>9.0</ele><time>2026-04-08T13:16:07.918Z</time></trkpt><trkpt lat="42.6199883" lon="2.952665"><ele>8.5</ele><time>2026-04-08T13:16:08.919Z</time></trkpt><trkpt lat="42.6197567" lon="2.9528683"><ele>8.0</ele><time>2026-04-08T13:16:09.919Z</time></trkpt><trkpt lat="42.6195283" lon="2.95307"><ele>8.5</ele><time>2026-04-08T13:16:10.919Z</time></trkpt><trkpt lat="42.6192983" lon="2.9532717"><ele>9.0</ele><time>2026-04-08T13:16:11.919Z</time></trkpt><trkpt lat="42.6190683" lon="2.953475"><ele>10.0</ele><time>2026-04-08T13:16:12.919Z</time></trkpt><trkpt lat="42.6188367" lon="2.95368"><ele>11.0</ele><time>2026-04-08T13:16:13.919Z</time></trkpt><trkpt lat="42.6186083" lon="2.9538833"><ele>11.0</ele><time>2026-04-08T13:16:14.919Z</time></trkpt><trkpt lat="42.6183817" lon="2.9540883"><ele>11.0</ele><time>2026-04-08T13:16:15.918Z</time></trkpt><trkpt lat="42.61816" lon="2.954305"><ele>11.0</ele><time>2026-04-08T13:16:16.918Z</time></trkpt><trkpt lat="42.6179483" lon="2.9545383"><ele>11.0</ele><time>2026-04-08T13:16:17.919Z</time></trkpt><trkpt lat="42.6177433" lon="2.954785"><ele>10.0</ele><time>2026-04-08T13:16:18.919Z</time></trkpt><trkpt lat="42.6175483" lon="2.95504"><ele>9.0</ele><time>2026-04-08T13:16:19.918Z</time></trkpt><trkpt lat="42.6173617" lon="2.955315"><ele>9.0</ele><time>2026-04-08T13:16:20.918Z</time></trkpt><trkpt lat="42.6171817" lon="2.955595"><ele>9.0</ele><time>2026-04-08T13:16:21.919Z</time></trkpt><trkpt lat="42.61701" lon="2.955885"><ele>9.5</ele><time>2026-04-08T13:16:22.919Z</time></trkpt><trkpt lat="42.6168533" lon="2.956185"><ele>10.0</ele><time>2026-04-08T13:16:23.919Z</time></trkpt><trkpt lat="42.6167017" lon="2.9564933"><ele>11.0</ele><time>2026-04-08T13:16:24.919Z</time></trkpt><trkpt lat="42.6165633" lon="2.9568133"><ele>12.0</ele><time>2026-04-08T13:16:25.919Z</time></trkpt><trkpt lat="42.6164417" lon="2.9571517"><ele>12.0</ele><time>2026-04-08T13:16:26.919Z</time></trkpt><trkpt lat="42.6163417" lon="2.95749"><ele>12.0</ele><time>2026-04-08T13:16:27.919Z</time></trkpt><trkpt lat="42.6162417" lon="2.9578367"><ele>12.5</ele><time>2026-04-08T13:16:28.918Z</time></trkpt><trkpt lat="42.61616" lon="2.9581867"><ele>13.0</ele><time>2026-04-08T13:16:29.919Z</time></trkpt><trkpt lat="42.6160933" lon="2.9585433"><ele>12.0</ele><time>2026-04-08T13:16:30.919Z</time></trkpt><trkpt lat="42.616035" lon="2.9589083"><ele>11.0</ele><time>2026-04-08T13:16:31.918Z</time></trkpt><trkpt lat="42.6159883" lon="2.959275"><ele>11.0</ele><time>2026-04-08T13:16:32.918Z</time></trkpt><trkpt lat="42.615955" lon="2.9596483"><ele>11.0</ele><time>2026-04-08T13:16:33.918Z</time></trkpt><trkpt lat="42.6159333" lon="2.960015"><ele>10.0</ele><time>2026-04-08T13:16:34.919Z</time></trkpt><trkpt lat="42.6159267" lon="2.960385"><ele>9.0</ele><time>2026-04-08T13:16:35.919Z</time></trkpt><trkpt lat="42.6159367" lon="2.9607533"><ele>9.5</ele><time>2026-04-08T13:16:36.918Z</time></trkpt><trkpt lat="42.6159567" lon="2.9611217"><ele>10.0</ele><time>2026-04-08T13:16:37.918Z</time></trkpt><trkpt lat="42.6159883" lon="2.9614967"><ele>10.0</ele><time>2026-04-08T13:16:38.918Z</time></trkpt><trkpt lat="42.6160367" lon="2.9618667"><ele>10.0</ele><time>2026-04-08T13:16:39.919Z</time></trkpt><trkpt lat="42.6160967" lon="2.9622333"><ele>10.0</ele><time>2026-04-08T13:16:40.919Z</time></trkpt><trkpt lat="42.6161583" lon="2.9625967"><ele>10.0</ele><time>2026-04-08T13:16:41.919Z</time></trkpt><trkpt lat="42.6162217" lon="2.9629567"><ele>10.0</ele><time>2026-04-08T13:16:42.919Z</time></trkpt><trkpt lat="42.6162867" lon="2.963315"><ele>10.0</ele><time>2026-04-08T13:16:43.919Z</time></trkpt><trkpt lat="42.6163533" lon="2.963675"><ele>10.5</ele><time>2026-04-08T13:16:44.919Z</time></trkpt><trkpt lat="42.6164133" lon="2.964035"><ele>11.0</ele><time>2026-04-08T13:16:45.919Z</time></trkpt><trkpt lat="42.6164767" lon="2.9643967"><ele>11.0</ele><time>2026-04-08T13:16:46.919Z</time></trkpt><trkpt lat="42.6165367" lon="2.9647617"><ele>11.0</ele><time>2026-04-08T13:16:47.919Z</time></trkpt><trkpt lat="42.6165883" lon="2.96513"><ele>9.5</ele><time>2026-04-08T13:16:48.919Z</time></trkpt><trkpt lat="42.6166267" lon="2.9654983"><ele>8.0</ele><time>2026-04-08T13:16:49.919Z</time></trkpt><trkpt lat="42.616645" lon="2.9658683"><ele>8.0</ele><time>2026-04-08T13:16:50.919Z</time></trkpt><trkpt lat="42.61665" lon="2.96624"><ele>8.0</ele><time>2026-04-08T13:16:51.919Z</time></trkpt><trkpt lat="42.61665" lon="2.966615"><ele>8.0</ele><time>2026-04-08T13:16:52.919Z</time></trkpt><trkpt lat="42.6166517" lon="2.96699"><ele>8.0</ele><time>2026-04-08T13:16:53.919Z</time></trkpt><trkpt lat="42.6166567" lon="2.9673667"><ele>8.0</ele><time>2026-04-08T13:16:54.919Z</time></trkpt><trkpt lat="42.616665" lon="2.96774"><ele>8.0</ele><time>2026-04-08T13:16:55.919Z</time></trkpt><trkpt lat="42.6166667" lon="2.9681117"><ele>8.5</ele><time>2026-04-08T13:16:56.918Z</time></trkpt><trkpt lat="42.6166683" lon="2.9684817"><ele>9.0</ele><time>2026-04-08T13:16:57.919Z</time></trkpt><trkpt lat="42.6166717" lon="2.96885"><ele>9.5</ele><time>2026-04-08T13:16:58.919Z</time></trkpt><trkpt lat="42.6166733" lon="2.9692217"><ele>10.0</ele><time>2026-04-08T13:16:59.918Z</time></trkpt><trkpt lat="42.6166783" lon="2.9695917"><ele>10.0</ele><time>2026-04-08T13:17:00.919Z</time></trkpt><trkpt lat="42.6166817" lon="2.9699617"><ele>10.0</ele><time>2026-04-08T13:17:01.919Z</time></trkpt><trkpt lat="42.616685" lon="2.97033"><ele>9.5</ele><time>2026-04-08T13:17:02.919Z</time></trkpt><trkpt lat="42.616685" lon="2.9707017"><ele>9.0</ele><time>2026-04-08T13:17:03.919Z</time></trkpt><trkpt lat="42.616685" lon="2.9710733"><ele>9.0</ele><time>2026-04-08T13:17:04.919Z</time></trkpt><trkpt lat="42.616685" lon="2.9714433"><ele>9.0</ele><time>2026-04-08T13:17:05.919Z</time></trkpt><trkpt lat="42.616685" lon="2.97182"><ele>8.5</ele><time>2026-04-08T13:17:06.918Z</time></trkpt><trkpt lat="42.616685" lon="2.972195"><ele>8.0</ele><time>2026-04-08T13:17:07.919Z</time></trkpt><trkpt lat="42.6166867" lon="2.97257"><ele>8.0</ele><time>2026-04-08T13:17:08.918Z</time></trkpt><trkpt lat="42.6166783" lon="2.97295"><ele>8.0</ele><time>2026-04-08T13:17:09.919Z</time></trkpt><trkpt lat="42.61666" lon="2.9733217"><ele>8.0</ele><time>2026-04-08T13:17:10.919Z</time></trkpt><trkpt lat="42.616635" lon="2.9736867"><ele>8.0</ele><time>2026-04-08T13:17:11.919Z</time></trkpt><trkpt lat="42.6165967" lon="2.97405"><ele>7.0</ele><time>2026-04-08T13:17:12.919Z</time></trkpt><trkpt lat="42.6165533" lon="2.9744233"><ele>6.0</ele><time>2026-04-08T13:17:13.919Z</time></trkpt><trkpt lat="42.616515" lon="2.9747933"><ele>6.5</ele><time>2026-04-08T13:17:14.919Z</time></trkpt><trkpt lat="42.6164767" lon="2.9751617"><ele>7.0</ele><time>2026-04-08T13:17:15.919Z</time></trkpt><trkpt lat="42.61643" lon="2.975525"><ele>7.5</ele><time>2026-04-08T13:17:16.919Z</time></trkpt><trkpt lat="42.6163917" lon="2.9758917"><ele>8.0</ele><time>2026-04-08T13:17:17.918Z</time></trkpt><trkpt lat="42.61635" lon="2.9762583"><ele>8.0</ele><time>2026-04-08T13:17:18.918Z</time></trkpt><trkpt lat="42.6163017" lon="2.976625"><ele>8.0</ele><time>2026-04-08T13:17:19.918Z</time></trkpt><trkpt lat="42.6162533" lon="2.976985"><ele>8.5</ele><time>2026-04-08T13:17:20.919Z</time></trkpt><trkpt lat="42.6162033" lon="2.9773467"><ele>9.0</ele><time>2026-04-08T13:17:21.919Z</time></trkpt><trkpt lat="42.6161517" lon="2.9777067"><ele>8.0</ele><time>2026-04-08T13:17:22.919Z</time></trkpt><trkpt lat="42.6161067" lon="2.97807"><ele>7.0</ele><time>2026-04-08T13:17:23.919Z</time></trkpt><trkpt lat="42.616055" lon="2.9784333"><ele>6.5</ele><time>2026-04-08T13:17:24.919Z</time></trkpt><trkpt lat="42.6160017" lon="2.9788017"><ele>6.0</ele><time>2026-04-08T13:17:25.918Z</time></trkpt><trkpt lat="42.61583" lon="2.97989"><ele>6.0</ele><time>2026-04-08T13:17:28.918Z</time></trkpt><trkpt lat="42.615745" lon="2.9802417"><ele>6.0</ele><time>2026-04-08T13:17:29.919Z</time></trkpt><trkpt lat="42.6156483" lon="2.9805867"><ele>6.0</ele><time>2026-04-08T13:17:30.919Z</time></trkpt><trkpt lat="42.61554" lon="2.9809283"><ele>6.0</ele><time>2026-04-08T13:17:31.919Z</time></trkpt><trkpt lat="42.6154167" lon="2.9812633"><ele>6.0</ele><time>2026-04-08T13:17:32.919Z</time></trkpt><trkpt lat="42.6152833" lon="2.9815883"><ele>6.0</ele><time>2026-04-08T13:17:33.919Z</time></trkpt><trkpt lat="42.6151383" lon="2.9819033"><ele>6.5</ele><time>2026-04-08T13:17:34.919Z</time></trkpt><trkpt lat="42.6149817" lon="2.9822067"><ele>7.0</ele><time>2026-04-08T13:17:35.919Z</time></trkpt><trkpt lat="42.6148133" lon="2.9825017"><ele>7.0</ele><time>2026-04-08T13:17:36.918Z</time></trkpt><trkpt lat="42.6146317" lon="2.9827833"><ele>7.0</ele><time>2026-04-08T13:17:37.919Z</time></trkpt><trkpt lat="42.6142367" lon="2.9833"><ele>8.0</ele><time>2026-04-08T13:17:39.918Z</time></trkpt><trkpt lat="42.614025" lon="2.9835333"><ele>9.0</ele><time>2026-04-08T13:17:40.919Z</time></trkpt><trkpt lat="42.61381" lon="2.9837533"><ele>8.0</ele><time>2026-04-08T13:17:41.919Z</time></trkpt><trkpt lat="42.6135867" lon="2.9839583"><ele>7.0</ele><time>2026-04-08T13:17:42.919Z</time></trkpt><trkpt lat="42.6133517" lon="2.984155"><ele>7.5</ele><time>2026-04-08T13:17:43.919Z</time></trkpt><trkpt lat="42.6131067" lon="2.9843333"><ele>8.0</ele><time>2026-04-08T13:17:44.919Z</time></trkpt><trkpt lat="42.612855" lon="2.984485"><ele>7.5</ele><time>2026-04-08T13:17:45.919Z</time></trkpt><trkpt lat="42.6126" lon="2.9846283"><ele>7.0</ele><time>2026-04-08T13:17:46.919Z</time></trkpt><trkpt lat="42.612345" lon="2.9847467"><ele>7.0</ele><time>2026-04-08T13:17:47.919Z</time></trkpt><trkpt lat="42.6120833" lon="2.984845"><ele>7.0</ele><time>2026-04-08T13:17:48.919Z</time></trkpt><trkpt lat="42.6118183" lon="2.9849233"><ele>7.0</ele><time>2026-04-08T13:17:49.918Z</time></trkpt><trkpt lat="42.6115533" lon="2.9849833"><ele>7.0</ele><time>2026-04-08T13:17:50.919Z</time></trkpt><trkpt lat="42.6112867" lon="2.985025"><ele>8.0</ele><time>2026-04-08T13:17:51.918Z</time></trkpt><trkpt lat="42.6110183" lon="2.9850433"><ele>9.0</ele><time>2026-04-08T13:17:52.919Z</time></trkpt><trkpt lat="42.6107467" lon="2.9850433"><ele>9.0</ele><time>2026-04-08T13:17:53.918Z</time></trkpt><trkpt lat="42.6104783" lon="2.98502"><ele>9.0</ele><time>2026-04-08T13:17:54.919Z</time></trkpt><trkpt lat="42.61021" lon="2.9849833"><ele>8.0</ele><time>2026-04-08T13:17:55.918Z</time></trkpt><trkpt lat="42.6099417" lon="2.9849317"><ele>7.0</ele><time>2026-04-08T13:17:56.918Z</time></trkpt><trkpt lat="42.6096733" lon="2.9848633"><ele>7.5</ele><time>2026-04-08T13:17:57.919Z</time></trkpt><trkpt lat="42.609405" lon="2.98479"><ele>8.0</ele><time>2026-04-08T13:17:58.919Z</time></trkpt><trkpt lat="42.60914" lon="2.9847133"><ele>8.0</ele><time>2026-04-08T13:17:59.919Z</time></trkpt><trkpt lat="42.6088767" lon="2.9846367"><ele>8.0</ele><time>2026-04-08T13:18:00.918Z</time></trkpt><trkpt lat="42.6086117" lon="2.9845617"><ele>8.0</ele><time>2026-04-08T13:18:01.919Z</time></trkpt><trkpt lat="42.6083383" lon="2.984485"><ele>8.0</ele><time>2026-04-08T13:18:02.918Z</time></trkpt><trkpt lat="42.6080667" lon="2.9844067"><ele>8.5</ele><time>2026-04-08T13:18:03.919Z</time></trkpt><trkpt lat="42.6077967" lon="2.9843283"><ele>9.0</ele><time>2026-04-08T13:18:04.918Z</time></trkpt><trkpt lat="42.6075283" lon="2.9842467"><ele>9.5</ele><time>2026-04-08T13:18:05.919Z</time></trkpt><trkpt lat="42.6072583" lon="2.9841683"><ele>10.0</ele><time>2026-04-08T13:18:06.919Z</time></trkpt><trkpt lat="42.6069883" lon="2.984085"><ele>10.0</ele><time>2026-04-08T13:18:07.918Z</time></trkpt><trkpt lat="42.60672" lon="2.9840017"><ele>10.0</ele><time>2026-04-08T13:18:08.919Z</time></trkpt><trkpt lat="42.6064467" lon="2.9839283"><ele>10.0</ele><time>2026-04-08T13:18:09.918Z</time></trkpt><trkpt lat="42.6061767" lon="2.9838617"><ele>10.0</ele><time>2026-04-08T13:18:10.919Z</time></trkpt><trkpt lat="42.605905" lon="2.9838033"><ele>11.0</ele><time>2026-04-08T13:18:11.918Z</time></trkpt><trkpt lat="42.6056267" lon="2.9837533"><ele>12.0</ele><time>2026-04-08T13:18:12.919Z</time></trkpt><trkpt lat="42.6053483" lon="2.9837117"><ele>10.5</ele><time>2026-04-08T13:18:13.919Z</time></trkpt><trkpt lat="42.605075" lon="2.9836783"><ele>9.0</ele><time>2026-04-08T13:18:14.918Z</time></trkpt><trkpt lat="42.6048" lon="2.983655"><ele>9.0</ele><time>2026-04-08T13:18:15.919Z</time></trkpt><trkpt lat="42.6045267" lon="2.9836383"><ele>9.0</ele><time>2026-04-08T13:18:16.918Z</time></trkpt><trkpt lat="42.6042533" lon="2.9836317"><ele>8.5</ele><time>2026-04-08T13:18:17.918Z</time></trkpt><trkpt lat="42.6039817" lon="2.9836433"><ele>8.0</ele><time>2026-04-08T13:18:18.918Z</time></trkpt><trkpt lat="42.603715" lon="2.98366"><ele>8.0</ele><time>2026-04-08T13:18:19.919Z</time></trkpt><trkpt lat="42.6034417" lon="2.98368"><ele>8.0</ele><time>2026-04-08T13:18:20.918Z</time></trkpt><trkpt lat="42.6031683" lon="2.9836967"><ele>8.0</ele><time>2026-04-08T13:18:21.919Z</time></trkpt><trkpt lat="42.6028933" lon="2.983715"><ele>8.0</ele><time>2026-04-08T13:18:22.918Z</time></trkpt><trkpt lat="42.6026217" lon="2.9837317"><ele>8.5</ele><time>2026-04-08T13:18:23.918Z</time></trkpt><trkpt lat="42.6023483" lon="2.9837433"><ele>9.0</ele><time>2026-04-08T13:18:24.919Z</time></trkpt><trkpt lat="42.6020733" lon="2.9837333"><ele>9.5</ele><time>2026-04-08T13:18:25.918Z</time></trkpt><trkpt lat="42.6018033" lon="2.9837067"><ele>10.0</ele><time>2026-04-08T13:18:26.918Z</time></trkpt><trkpt lat="42.6015333" lon="2.9836583"><ele>10.0</ele><time>2026-04-08T13:18:27.919Z</time></trkpt><trkpt lat="42.6012667" lon="2.9835967"><ele>10.0</ele><time>2026-04-08T13:18:28.919Z</time></trkpt><trkpt lat="42.6009967" lon="2.9835217"><ele>10.0</ele><time>2026-04-08T13:18:29.919Z</time></trkpt><trkpt lat="42.600735" lon="2.9834333"><ele>10.0</ele><time>2026-04-08T13:18:30.919Z</time></trkpt><trkpt lat="42.6004733" lon="2.98333"><ele>10.0</ele><time>2026-04-08T13:18:31.919Z</time></trkpt><trkpt lat="42.59995" lon="2.9830933"><ele>10.0</ele><time>2026-04-08T13:18:33.917Z</time></trkpt><trkpt lat="42.5996967" lon="2.98295"><ele>10.0</ele><time>2026-04-08T13:18:34.917Z</time></trkpt><trkpt lat="42.5994467" lon="2.9827967"><ele>10.5</ele><time>2026-04-08T13:18:35.918Z</time></trkpt><trkpt lat="42.5992" lon="2.9826283"><ele>11.0</ele><time>2026-04-08T13:18:36.917Z</time></trkpt><trkpt lat="42.598955" lon="2.9824583"><ele>11.5</ele><time>2026-04-08T13:18:37.917Z</time></trkpt><trkpt lat="42.5987083" lon="2.9822933"><ele>12.0</ele><time>2026-04-08T13:18:38.918Z</time></trkpt><trkpt lat="42.5984617" lon="2.9821317"><ele>12.0</ele><time>2026-04-08T13:18:39.918Z</time></trkpt><trkpt lat="42.5982133" lon="2.9819833"><ele>12.0</ele><time>2026-04-08T13:18:40.917Z</time></trkpt><trkpt lat="42.59796" lon="2.9818433"><ele>11.5</ele><time>2026-04-08T13:18:41.917Z</time></trkpt><trkpt lat="42.5977" lon="2.9817167"><ele>11.0</ele><time>2026-04-08T13:18:42.918Z</time></trkpt><trkpt lat="42.5974383" lon="2.9815967"><ele>11.0</ele><time>2026-04-08T13:18:43.917Z</time></trkpt><trkpt lat="42.597175" lon="2.98149"><ele>11.0</ele><time>2026-04-08T13:18:44.918Z</time></trkpt><trkpt lat="42.5969133" lon="2.9814"><ele>11.0</ele><time>2026-04-08T13:18:45.918Z</time></trkpt><trkpt lat="42.5966483" lon="2.981325"><ele>11.0</ele><time>2026-04-08T13:18:46.917Z</time></trkpt><trkpt lat="42.596385" lon="2.9812533"><ele>12.0</ele><time>2026-04-08T13:18:47.917Z</time></trkpt><trkpt lat="42.5961217" lon="2.9811933"><ele>13.0</ele><time>2026-04-08T13:18:48.918Z</time></trkpt><trkpt lat="42.5958517" lon="2.9811483"><ele>13.0</ele><time>2026-04-08T13:18:49.917Z</time></trkpt><trkpt lat="42.5955733" lon="2.9811233"><ele>13.0</ele><time>2026-04-08T13:18:50.918Z</time></trkpt><trkpt lat="42.595295" lon="2.9811133"><ele>11.5</ele><time>2026-04-08T13:18:51.918Z</time></trkpt><trkpt lat="42.595015" lon="2.98112"><ele>10.0</ele><time>2026-04-08T13:18:52.918Z</time></trkpt><trkpt lat="42.5947367" lon="2.9811383"><ele>10.0</ele><time>2026-04-08T13:18:53.918Z</time></trkpt><trkpt lat="42.59446" lon="2.98117"><ele>10.0</ele><time>2026-04-08T13:18:54.918Z</time></trkpt><trkpt lat="42.5941867" lon="2.9812167"><ele>10.0</ele><time>2026-04-08T13:18:55.918Z</time></trkpt><trkpt lat="42.5939217" lon="2.9812733"><ele>10.0</ele><time>2026-04-08T13:18:56.918Z</time></trkpt><trkpt lat="42.5936483" lon="2.98134"><ele>10.5</ele><time>2026-04-08T13:18:57.918Z</time></trkpt><trkpt lat="42.5933783" lon="2.9814083"><ele>11.0</ele><time>2026-04-08T13:18:58.918Z</time></trkpt><trkpt lat="42.5931067" lon="2.9814717"><ele>11.0</ele><time>2026-04-08T13:18:59.918Z</time></trkpt><trkpt lat="42.59284" lon="2.9815317"><ele>11.0</ele><time>2026-04-08T13:19:00.918Z</time></trkpt><trkpt lat="42.5925667" lon="2.981595"><ele>11.0</ele><time>2026-04-08T13:19:01.917Z</time></trkpt><trkpt lat="42.5922967" lon="2.9816567"><ele>11.0</ele><time>2026-04-08T13:19:02.917Z</time></trkpt><trkpt lat="42.5920267" lon="2.9817233"><ele>11.0</ele><time>2026-04-08T13:19:03.918Z</time></trkpt><trkpt lat="42.5917533" lon="2.9817917"><ele>11.0</ele><time>2026-04-08T13:19:04.918Z</time></trkpt><trkpt lat="42.5914833" lon="2.9818567"><ele>11.0</ele><time>2026-04-08T13:19:05.917Z</time></trkpt><trkpt lat="42.5912117" lon="2.9819233"><ele>11.0</ele><time>2026-04-08T13:19:06.917Z</time></trkpt><trkpt lat="42.5909433" lon="2.9819883"><ele>12.0</ele><time>2026-04-08T13:19:07.918Z</time></trkpt><trkpt lat="42.5906733" lon="2.9820567"><ele>13.0</ele><time>2026-04-08T13:19:08.917Z</time></trkpt><trkpt lat="42.5904033" lon="2.9821217"><ele>14.5</ele><time>2026-04-08T13:19:09.918Z</time></trkpt><trkpt lat="42.5901333" lon="2.9821833"><ele>16.0</ele><time>2026-04-08T13:19:10.918Z</time></trkpt><trkpt lat="42.589865" lon="2.982245"><ele>16.0</ele><time>2026-04-08T13:19:11.918Z</time></trkpt><trkpt lat="42.5895917" lon="2.9823133"><ele>16.0</ele><time>2026-04-08T13:19:12.918Z</time></trkpt><trkpt lat="42.5893217" lon="2.9823933"><ele>14.5</ele><time>2026-04-08T13:19:13.918Z</time></trkpt><trkpt lat="42.5890583" lon="2.98248"><ele>13.0</ele><time>2026-04-08T13:19:14.918Z</time></trkpt><trkpt lat="42.5887917" lon="2.9825767"><ele>12.0</ele><time>2026-04-08T13:19:15.918Z</time></trkpt><trkpt lat="42.5885317" lon="2.9826917"><ele>11.0</ele><time>2026-04-08T13:19:16.918Z</time></trkpt><trkpt lat="42.5882733" lon="2.982815"><ele>11.0</ele><time>2026-04-08T13:19:17.918Z</time></trkpt><trkpt lat="42.58802" lon="2.9829617"><ele>11.0</ele><time>2026-04-08T13:19:18.918Z</time></trkpt><trkpt lat="42.5877733" lon="2.983115"><ele>11.5</ele><time>2026-04-08T13:19:19.917Z</time></trkpt><trkpt lat="42.58753" lon="2.98328"><ele>12.0</ele><time>2026-04-08T13:19:20.917Z</time></trkpt><trkpt lat="42.5872933" lon="2.9834617"><ele>12.0</ele><time>2026-04-08T13:19:21.918Z</time></trkpt><trkpt lat="42.5870633" lon="2.9836533"><ele>12.0</ele><time>2026-04-08T13:19:22.917Z</time></trkpt><trkpt lat="42.586835" lon="2.9838517"><ele>12.0</ele><time>2026-04-08T13:19:23.918Z</time></trkpt><trkpt lat="42.58662" lon="2.9840383"><ele>12.0</ele><time>2026-04-08T13:19:24.917Z</time></trkpt><trkpt lat="42.58642" lon="2.9842217"><ele>12.0</ele><time>2026-04-08T13:19:25.918Z</time></trkpt><trkpt lat="42.5862183" lon="2.98441"><ele>12.0</ele><time>2026-04-08T13:19:26.917Z</time></trkpt><trkpt lat="42.5860117" lon="2.9845933"><ele>12.5</ele><time>2026-04-08T13:19:27.917Z</time></trkpt><trkpt lat="42.5858083" lon="2.9847767"><ele>13.0</ele><time>2026-04-08T13:19:28.918Z</time></trkpt><trkpt lat="42.5856117" lon="2.9849617"><ele>13.0</ele><time>2026-04-08T13:19:29.918Z</time></trkpt><trkpt lat="42.5854233" lon="2.9851433"><ele>13.0</ele><time>2026-04-08T13:19:30.918Z</time></trkpt><trkpt lat="42.585235" lon="2.9853117"><ele>13.666666666666666</ele><time>2026-04-08T13:19:31.918Z</time></trkpt><trkpt lat="42.58505" lon="2.9854717"><ele>14.333333333333332</ele><time>2026-04-08T13:19:32.917Z</time></trkpt><trkpt lat="42.5848733" lon="2.9856233"><ele>15.0</ele><time>2026-04-08T13:19:33.918Z</time></trkpt><trkpt lat="42.5847067" lon="2.9857717"><ele>15.0</ele><time>2026-04-08T13:19:34.918Z</time></trkpt><trkpt lat="42.5845483" lon="2.9859083"><ele>15.0</ele><time>2026-04-08T13:19:35.918Z</time></trkpt><trkpt lat="42.584405" lon="2.98604"><ele>15.0</ele><time>2026-04-08T13:19:36.918Z</time></trkpt><trkpt lat="42.58426" lon="2.9861683"><ele>15.0</ele><time>2026-04-08T13:19:37.918Z</time></trkpt><trkpt lat="42.5841283" lon="2.9862867"><ele>15.0</ele><time>2026-04-08T13:19:38.918Z</time></trkpt><trkpt lat="42.5839983" lon="2.9863883"><ele>15.0</ele><time>2026-04-08T13:19:39.918Z</time></trkpt><trkpt lat="42.583875" lon="2.98646"><ele>15.0</ele><time>2026-04-08T13:19:40.918Z</time></trkpt><trkpt lat="42.583755" lon="2.986505"><ele>14.6</ele><time>2026-04-08T13:19:41.918Z</time></trkpt><trkpt lat="42.5836383" lon="2.9865133"><ele>14.2</ele><time>2026-04-08T13:19:42.918Z</time></trkpt><trkpt lat="42.5835417" lon="2.9864733"><ele>13.8</ele><time>2026-04-08T13:19:43.917Z</time></trkpt><trkpt lat="42.5834583" lon="2.9864017"><ele>13.4</ele><time>2026-04-08T13:19:44.917Z</time></trkpt><trkpt lat="42.5833967" lon="2.986305"><ele>13.0</ele><time>2026-04-08T13:19:45.918Z</time></trkpt><trkpt lat="42.5833617" lon="2.9861933"><ele>13.0</ele><time>2026-04-08T13:19:46.918Z</time></trkpt><trkpt lat="42.58335" lon="2.98607"><ele>13.0</ele><time>2026-04-08T13:19:47.918Z</time></trkpt><trkpt lat="42.583365" lon="2.985955"><ele>13.0</ele><time>2026-04-08T13:19:48.917Z</time></trkpt><trkpt lat="42.5834" lon="2.9858467"><ele>13.0</ele><time>2026-04-08T13:19:49.917Z</time></trkpt><trkpt lat="42.5834417" lon="2.98573"><ele>13.0</ele><time>2026-04-08T13:19:50.917Z</time></trkpt><trkpt lat="42.583485" lon="2.9856167"><ele>12.833333333333332</ele><time>2026-04-08T13:19:51.917Z</time></trkpt><trkpt lat="42.5835267" lon="2.9855167"><ele>12.666666666666666</ele><time>2026-04-08T13:19:52.918Z</time></trkpt><trkpt lat="42.5835617" lon="2.9854433"><ele>12.5</ele><time>2026-04-08T13:19:53.917Z</time></trkpt><trkpt lat="42.5836217" lon="2.9853783"><ele>12.333333333333332</ele><time>2026-04-08T13:19:55.918Z</time></trkpt><trkpt lat="42.5837067" lon="2.985285"><ele>12.166666666666666</ele><time>2026-04-08T13:19:57.918Z</time></trkpt><trkpt lat="42.5837567" lon="2.985225"><ele>12.0</ele><time>2026-04-08T13:19:58.918Z</time></trkpt><trkpt lat="42.583795" lon="2.9851483"><ele>12.166666666666666</ele><time>2026-04-08T13:19:59.918Z</time></trkpt><trkpt lat="42.5838017" lon="2.9850567"><ele>12.333333333333332</ele><time>2026-04-08T13:20:00.918Z</time></trkpt><trkpt lat="42.5837833" lon="2.9849667"><ele>12.5</ele><time>2026-04-08T13:20:01.918Z</time></trkpt><trkpt lat="42.5837367" lon="2.98489"><ele>12.666666666666666</ele><time>2026-04-08T13:20:02.918Z</time></trkpt><trkpt lat="42.5836783" lon="2.9848067"><ele>12.833333333333332</ele><time>2026-04-08T13:20:03.917Z</time></trkpt><trkpt lat="42.583625" lon="2.98471"><ele>13.0</ele><time>2026-04-08T13:20:04.918Z</time></trkpt><trkpt lat="42.5835817" lon="2.984595"><ele>13.0</ele><time>2026-04-08T13:20:05.918Z</time></trkpt><trkpt lat="42.5835433" lon="2.984465"><ele>13.0</ele><time>2026-04-08T13:20:06.918Z</time></trkpt><trkpt lat="42.5835067" lon="2.98432"><ele>13.0</ele><time>2026-04-08T13:20:07.918Z</time></trkpt><trkpt lat="42.5834633" lon="2.9841567"><ele>13.0</ele><time>2026-04-08T13:20:08.918Z</time></trkpt><trkpt lat="42.5834167" lon="2.983975"><ele>13.333333333333332</ele><time>2026-04-08T13:20:09.918Z</time></trkpt><trkpt lat="42.5833717" lon="2.9837733"><ele>13.666666666666668</ele><time>2026-04-08T13:20:10.918Z</time></trkpt><trkpt lat="42.5833233" lon="2.9835717"><ele>14.0</ele><time>2026-04-08T13:20:11.918Z</time></trkpt><trkpt lat="42.5832683" lon="2.9833617"><ele>13.666666666666668</ele><time>2026-04-08T13:20:12.918Z</time></trkpt><trkpt lat="42.5832033" lon="2.9831367"><ele>13.333333333333332</ele><time>2026-04-08T13:20:13.918Z</time></trkpt><trkpt lat="42.5831383" lon="2.9829033"><ele>13.0</ele><time>2026-04-08T13:20:14.918Z</time></trkpt><trkpt lat="42.5830733" lon="2.982665"><ele>13.0</ele><time>2026-04-08T13:20:15.918Z</time></trkpt><trkpt lat="42.5830083" lon="2.9824267"><ele>13.0</ele><time>2026-04-08T13:20:16.917Z</time></trkpt><trkpt lat="42.5829417" lon="2.9821867"><ele>13.0</ele><time>2026-04-08T13:20:17.918Z</time></trkpt><trkpt lat="42.58289" lon="2.981945"><ele>13.0</ele><time>2026-04-08T13:20:18.917Z</time></trkpt><trkpt lat="42.5828533" lon="2.9816933"><ele>13.0</ele><time>2026-04-08T13:20:19.918Z</time></trkpt><trkpt lat="42.5828267" lon="2.981445"><ele>13.0</ele><time>2026-04-08T13:20:20.917Z</time></trkpt><trkpt lat="42.5828067" lon="2.9811933"><ele>13.333333333333332</ele><time>2026-04-08T13:20:21.918Z</time></trkpt><trkpt lat="42.582785" lon="2.98094"><ele>13.666666666666668</ele><time>2026-04-08T13:20:22.918Z</time></trkpt><trkpt lat="42.5827617" lon="2.980685"><ele>14.0</ele><time>2026-04-08T13:20:23.918Z</time></trkpt><trkpt lat="42.5827383" lon="2.9804267"><ele>14.333333333333334</ele><time>2026-04-08T13:20:24.918Z</time></trkpt><trkpt lat="42.582715" lon="2.98017"><ele>14.666666666666668</ele><time>2026-04-08T13:20:25.918Z</time></trkpt><trkpt lat="42.5826917" lon="2.9799217"><ele>15.0</ele><time>2026-04-08T13:20:26.917Z</time></trkpt><trkpt lat="42.5826683" lon="2.979675"><ele>15.0</ele><time>2026-04-08T13:20:27.918Z</time></trkpt><trkpt lat="42.5826417" lon="2.97943"><ele>15.0</ele><time>2026-04-08T13:20:28.918Z</time></trkpt><trkpt lat="42.582595" lon="2.9791917"><ele>15.0</ele><time>2026-04-08T13:20:29.918Z</time></trkpt><trkpt lat="42.5825383" lon="2.9789567"><ele>15.333333333333332</ele><time>2026-04-08T13:20:30.918Z</time></trkpt><trkpt lat="42.5824817" lon="2.9787217"><ele>15.666666666666666</ele><time>2026-04-08T13:20:31.917Z</time></trkpt><trkpt lat="42.5824183" lon="2.9784883"><ele>16.0</ele><time>2026-04-08T13:20:32.918Z</time></trkpt><trkpt lat="42.5823517" lon="2.9782717"><ele>16.0</ele><time>2026-04-08T13:20:33.918Z</time></trkpt><trkpt lat="42.5822967" lon="2.9780883"><ele>16.0</ele><time>2026-04-08T13:20:34.918Z</time></trkpt><trkpt lat="42.5822233" lon="2.9779333"><ele>16.0</ele><time>2026-04-08T13:20:35.918Z</time></trkpt><trkpt lat="42.5821233" lon="2.9778017"><ele>16.0</ele><time>2026-04-08T13:20:36.917Z</time></trkpt><trkpt lat="42.5820083" lon="2.9776817"><ele>15.666666666666666</ele><time>2026-04-08T13:20:37.918Z</time></trkpt><trkpt lat="42.581875" lon="2.9775833"><ele>15.333333333333332</ele><time>2026-04-08T13:20:38.917Z</time></trkpt><trkpt lat="42.581725" lon="2.977485"><ele>15.0</ele><time>2026-04-08T13:20:39.917Z</time></trkpt><trkpt lat="42.5815783" lon="2.9773833"><ele>15.0</ele><time>2026-04-08T13:20:40.917Z</time></trkpt><trkpt lat="42.5814417" lon="2.9772717"><ele>15.0</ele><time>2026-04-08T13:20:41.917Z</time></trkpt><trkpt lat="42.581325" lon="2.9771417"><ele>15.0</ele><time>2026-04-08T13:20:42.918Z</time></trkpt><trkpt lat="42.5812133" lon="2.977"><ele>14.666666666666668</ele><time>2026-04-08T13:20:43.918Z</time></trkpt><trkpt lat="42.5811167" lon="2.976835"><ele>14.333333333333334</ele><time>2026-04-08T13:20:44.917Z</time></trkpt><trkpt lat="42.5810133" lon="2.976655"><ele>14.0</ele><time>2026-04-08T13:20:45.918Z</time></trkpt><trkpt lat="42.580905" lon="2.9764733"><ele>14.0</ele><time>2026-04-08T13:20:46.918Z</time></trkpt><trkpt lat="42.580795" lon="2.9762833"><ele>14.0</ele><time>2026-04-08T13:20:47.918Z</time></trkpt><trkpt lat="42.580685" lon="2.9760933"><ele>14.0</ele><time>2026-04-08T13:20:48.918Z</time></trkpt><trkpt lat="42.5805717" lon="2.97589"><ele>14.0</ele><time>2026-04-08T13:20:49.918Z</time></trkpt><trkpt lat="42.580455" lon="2.9756833"><ele>14.0</ele><time>2026-04-08T13:20:50.918Z</time></trkpt><trkpt lat="42.5803433" lon="2.9754717"><ele>14.0</ele><time>2026-04-08T13:20:51.918Z</time></trkpt><trkpt lat="42.58023" lon="2.9752567"><ele>14.0</ele><time>2026-04-08T13:20:52.917Z</time></trkpt><trkpt lat="42.5801183" lon="2.9750417"><ele>14.0</ele><time>2026-04-08T13:20:53.918Z</time></trkpt><trkpt lat="42.58002" lon="2.9748267"><ele>14.0</ele><time>2026-04-08T13:20:54.918Z</time></trkpt><trkpt lat="42.579945" lon="2.9746083"><ele>14.0</ele><time>2026-04-08T13:20:55.919Z</time></trkpt><trkpt lat="42.5798783" lon="2.9743733"><ele>14.0</ele><time>2026-04-08T13:20:56.919Z</time></trkpt><trkpt lat="42.5798483" lon="2.9741267"><ele>14.0</ele><time>2026-04-08T13:20:57.918Z</time></trkpt><trkpt lat="42.579825" lon="2.9738733"><ele>14.0</ele><time>2026-04-08T13:20:58.919Z</time></trkpt><trkpt lat="42.5798017" lon="2.9736233"><ele>14.0</ele><time>2026-04-08T13:20:59.919Z</time></trkpt><trkpt lat="42.57978" lon="2.9733683"><ele>14.0</ele><time>2026-04-08T13:21:00.918Z</time></trkpt><trkpt lat="42.5797367" lon="2.9731183"><ele>14.0</ele><time>2026-04-08T13:21:01.919Z</time></trkpt><trkpt lat="42.5796833" lon="2.9728683"><ele>14.0</ele><time>2026-04-08T13:21:02.919Z</time></trkpt><trkpt lat="42.579625" lon="2.9726217"><ele>14.0</ele><time>2026-04-08T13:21:03.919Z</time></trkpt><trkpt lat="42.5795733" lon="2.9723817"><ele>14.0</ele><time>2026-04-08T13:21:04.919Z</time></trkpt><trkpt lat="42.5795233" lon="2.9721467"><ele>14.0</ele><time>2026-04-08T13:21:05.919Z</time></trkpt><trkpt lat="42.5794683" lon="2.971905"><ele>14.0</ele><time>2026-04-08T13:21:06.919Z</time></trkpt><trkpt lat="42.5794117" lon="2.9716633"><ele>14.333333333333334</ele><time>2026-04-08T13:21:07.918Z</time></trkpt><trkpt lat="42.5793533" lon="2.9714317"><ele>14.666666666666668</ele><time>2026-04-08T13:21:08.919Z</time></trkpt><trkpt lat="42.5792983" lon="2.971205"><ele>15.0</ele><time>2026-04-08T13:21:09.918Z</time></trkpt><trkpt lat="42.5792317" lon="2.9709883"><ele>15.333333333333332</ele><time>2026-04-08T13:21:10.919Z</time></trkpt><trkpt lat="42.5791467" lon="2.97078"><ele>15.666666666666666</ele><time>2026-04-08T13:21:11.919Z</time></trkpt><trkpt lat="42.5790467" lon="2.9705783"><ele>16.0</ele><time>2026-04-08T13:21:12.918Z</time></trkpt><trkpt lat="42.5789267" lon="2.970385"><ele>16.0</ele><time>2026-04-08T13:21:13.919Z</time></trkpt><trkpt lat="42.5788033" lon="2.9701867"><ele>16.0</ele><time>2026-04-08T13:21:14.919Z</time></trkpt><trkpt lat="42.5786783" lon="2.9699883"><ele>16.0</ele><time>2026-04-08T13:21:15.919Z</time></trkpt><trkpt lat="42.5785683" lon="2.9697817"><ele>16.0</ele><time>2026-04-08T13:21:16.919Z</time></trkpt><trkpt lat="42.5784833" lon="2.9695517"><ele>16.0</ele><time>2026-04-08T13:21:17.919Z</time></trkpt><trkpt lat="42.57841" lon="2.9693117"><ele>16.0</ele><time>2026-04-08T13:21:18.919Z</time></trkpt><trkpt lat="42.5783333" lon="2.96908"><ele>16.0</ele><time>2026-04-08T13:21:19.919Z</time></trkpt><trkpt lat="42.57826" lon="2.9688683"><ele>16.0</ele><time>2026-04-08T13:21:20.919Z</time></trkpt><trkpt lat="42.5781583" lon="2.9686783"><ele>16.0</ele><time>2026-04-08T13:21:21.919Z</time></trkpt><trkpt lat="42.5780417" lon="2.9685017"><ele>16.0</ele><time>2026-04-08T13:21:22.919Z</time></trkpt><trkpt lat="42.5779183" lon="2.9683167"><ele>16.0</ele><time>2026-04-08T13:21:23.919Z</time></trkpt><trkpt lat="42.5777933" lon="2.968125"><ele>16.0</ele><time>2026-04-08T13:21:24.919Z</time></trkpt><trkpt lat="42.57766" lon="2.96793"><ele>16.333333333333332</ele><time>2026-04-08T13:21:25.919Z</time></trkpt><trkpt lat="42.5775217" lon="2.9677317"><ele>16.666666666666668</ele><time>2026-04-08T13:21:26.919Z</time></trkpt><trkpt lat="42.5773917" lon="2.9675333"><ele>17.0</ele><time>2026-04-08T13:21:27.918Z</time></trkpt><trkpt lat="42.5772617" lon="2.9673417"><ele>17.333333333333336</ele><time>2026-04-08T13:21:28.919Z</time></trkpt><trkpt lat="42.5771483" lon="2.967135"><ele>17.666666666666668</ele><time>2026-04-08T13:21:29.919Z</time></trkpt><trkpt lat="42.5770417" lon="2.9669317"><ele>18.0</ele><time>2026-04-08T13:21:30.919Z</time></trkpt><trkpt lat="42.576945" lon="2.9667267"><ele>17.666666666666668</ele><time>2026-04-08T13:21:31.919Z</time></trkpt><trkpt lat="42.576855" lon="2.966535"><ele>17.333333333333336</ele><time>2026-04-08T13:21:32.919Z</time></trkpt><trkpt lat="42.57677" lon="2.96635"><ele>17.0</ele><time>2026-04-08T13:21:33.919Z</time></trkpt><trkpt lat="42.5766983" lon="2.9661683"><ele>17.0</ele><time>2026-04-08T13:21:34.919Z</time></trkpt><trkpt lat="42.57664" lon="2.966"><ele>17.0</ele><time>2026-04-08T13:21:35.919Z</time></trkpt><trkpt lat="42.576585" lon="2.9658517"><ele>17.0</ele><time>2026-04-08T13:21:36.919Z</time></trkpt><trkpt lat="42.5765367" lon="2.965735"><ele>17.0</ele><time>2026-04-08T13:21:37.919Z</time></trkpt><trkpt lat="42.5765033" lon="2.965655"><ele>17.0</ele><time>2026-04-08T13:21:38.919Z</time></trkpt><trkpt lat="42.5764817" lon="2.9655433"><ele>17.333333333333336</ele><time>2026-04-08T13:21:40.919Z</time></trkpt><trkpt lat="42.5764133" lon="2.96545"><ele>17.666666666666668</ele><time>2026-04-08T13:21:42.919Z</time></trkpt><trkpt lat="42.5763733" lon="2.96538"><ele>18.0</ele><time>2026-04-08T13:21:43.919Z</time></trkpt><trkpt lat="42.57633" lon="2.9653"><ele>18.333333333333332</ele><time>2026-04-08T13:21:44.919Z</time></trkpt><trkpt lat="42.576285" lon="2.9652217"><ele>18.666666666666664</ele><time>2026-04-08T13:21:45.919Z</time></trkpt><trkpt lat="42.5762433" lon="2.9651367"><ele>19.0</ele><time>2026-04-08T13:21:46.919Z</time></trkpt><trkpt lat="42.5761983" lon="2.9650383"><ele>19.2</ele><time>2026-04-08T13:21:47.919Z</time></trkpt><trkpt lat="42.57616" lon="2.9649367"><ele>19.4</ele><time>2026-04-08T13:21:48.919Z</time></trkpt><trkpt lat="42.5761167" lon="2.9648267"><ele>19.6</ele><time>2026-04-08T13:21:49.919Z</time></trkpt><trkpt lat="42.5760617" lon="2.9647167"><ele>19.8</ele><time>2026-04-08T13:21:50.919Z</time></trkpt><trkpt lat="42.5760033" lon="2.9646033"><ele>20.0</ele><time>2026-04-08T13:21:51.919Z</time></trkpt><trkpt lat="42.575945" lon="2.9644883"><ele>20.0</ele><time>2026-04-08T13:21:52.918Z</time></trkpt><trkpt lat="42.5758833" lon="2.9643733"><ele>20.0</ele><time>2026-04-08T13:21:53.919Z</time></trkpt><trkpt lat="42.5758217" lon="2.9642583"><ele>20.0</ele><time>2026-04-08T13:21:54.919Z</time></trkpt><trkpt lat="42.5757633" lon="2.9641467"><ele>20.0</ele><time>2026-04-08T13:21:55.919Z</time></trkpt><trkpt lat="42.5757117" lon="2.9640383"><ele>20.0</ele><time>2026-04-08T13:21:56.919Z</time></trkpt><trkpt lat="42.575665" lon="2.9639317"><ele>19.8</ele><time>2026-04-08T13:21:57.918Z</time></trkpt><trkpt lat="42.5756233" lon="2.963845"><ele>19.6</ele><time>2026-04-08T13:21:58.919Z</time></trkpt><trkpt lat="42.5755633" lon="2.9637067"><ele>19.4</ele><time>2026-04-08T13:22:00.918Z</time></trkpt><trkpt lat="42.5755133" lon="2.9636033"><ele>19.2</ele><time>2026-04-08T13:22:02.919Z</time></trkpt><trkpt lat="42.5754417" lon="2.96352"><ele>19.0</ele><time>2026-04-08T13:22:04.919Z</time></trkpt><trkpt lat="42.575335" lon="2.963435"><ele>19.166666666666664</ele><time>2026-04-08T13:22:06.919Z</time></trkpt><trkpt lat="42.5752683" lon="2.963395"><ele>19.333333333333332</ele><time>2026-04-08T13:22:07.919Z</time></trkpt><trkpt lat="42.5751917" lon="2.963355"><ele>19.5</ele><time>2026-04-08T13:22:08.919Z</time></trkpt><trkpt lat="42.5751167" lon="2.9633133"><ele>19.666666666666668</ele><time>2026-04-08T13:22:09.919Z</time></trkpt><trkpt lat="42.5750417" lon="2.96328"><ele>19.833333333333336</ele><time>2026-04-08T13:22:10.919Z</time></trkpt><trkpt lat="42.5749667" lon="2.96324"><ele>20.0</ele><time>2026-04-08T13:22:11.919Z</time></trkpt><trkpt lat="42.5748967" lon="2.963205"><ele>20.0</ele><time>2026-04-08T13:22:12.919Z</time></trkpt><trkpt lat="42.5748217" lon="2.963165"><ele>20.0</ele><time>2026-04-08T13:22:13.918Z</time></trkpt><trkpt lat="42.5747433" lon="2.9631233"><ele>20.0</ele><time>2026-04-08T13:22:14.918Z</time></trkpt><trkpt lat="42.574665" lon="2.9630767"><ele>20.0</ele><time>2026-04-08T13:22:15.919Z</time></trkpt><trkpt lat="42.574585" lon="2.9630283"><ele>20.0</ele><time>2026-04-08T13:22:16.919Z</time></trkpt><trkpt lat="42.5745033" lon="2.962975"><ele>20.0</ele><time>2026-04-08T13:22:17.919Z</time></trkpt><trkpt lat="42.5744217" lon="2.9629183"><ele>19.8</ele><time>2026-04-08T13:22:18.918Z</time></trkpt><trkpt lat="42.57434" lon="2.96286"><ele>19.6</ele><time>2026-04-08T13:22:19.919Z</time></trkpt><trkpt lat="42.5742567" lon="2.9628"><ele>19.4</ele><time>2026-04-08T13:22:20.918Z</time></trkpt><trkpt lat="42.5741767" lon="2.9627433"><ele>19.2</ele><time>2026-04-08T13:22:21.919Z</time></trkpt><trkpt lat="42.5740917" lon="2.9626833"><ele>19.0</ele><time>2026-04-08T13:22:22.919Z</time></trkpt><trkpt lat="42.5740117" lon="2.9626133"><ele>19.0</ele><time>2026-04-08T13:22:23.919Z</time></trkpt><trkpt lat="42.5739283" lon="2.9625417"><ele>19.0</ele><time>2026-04-08T13:22:24.919Z</time></trkpt><trkpt lat="42.5738383" lon="2.9624633"><ele>19.0</ele><time>2026-04-08T13:22:25.918Z</time></trkpt><trkpt lat="42.57375" lon="2.96239"><ele>19.0</ele><time>2026-04-08T13:22:26.918Z</time></trkpt><trkpt lat="42.5736583" lon="2.9623117"><ele>19.0</ele><time>2026-04-08T13:22:27.919Z</time></trkpt><trkpt lat="42.5735667" lon="2.9622333"><ele>19.0</ele><time>2026-04-08T13:22:28.919Z</time></trkpt><trkpt lat="42.5734767" lon="2.9621617"><ele>19.0</ele><time>2026-04-08T13:22:29.919Z</time></trkpt><trkpt lat="42.5733883" lon="2.9620933"><ele>19.0</ele><time>2026-04-08T13:22:30.919Z</time></trkpt><trkpt lat="42.5733017" lon="2.96203"><ele>19.0</ele><time>2026-04-08T13:22:31.919Z</time></trkpt><trkpt lat="42.5732217" lon="2.9619633"><ele>19.0</ele><time>2026-04-08T13:22:32.919Z</time></trkpt><trkpt lat="42.5731433" lon="2.961895"><ele>19.0</ele><time>2026-04-08T13:22:33.918Z</time></trkpt><trkpt lat="42.573065" lon="2.96184"><ele>19.0</ele><time>2026-04-08T13:22:34.919Z</time></trkpt><trkpt lat="42.5729817" lon="2.9618"><ele>19.0</ele><time>2026-04-08T13:22:35.919Z</time></trkpt><trkpt lat="42.5728983" lon="2.9617617"><ele>19.0</ele><time>2026-04-08T13:22:36.919Z</time></trkpt><trkpt lat="42.5728167" lon="2.9617233"><ele>19.0</ele><time>2026-04-08T13:22:37.919Z</time></trkpt><trkpt lat="42.57274" lon="2.9616767"><ele>19.0</ele><time>2026-04-08T13:22:38.919Z</time></trkpt><trkpt lat="42.572675" lon="2.961605"><ele>19.333333333333332</ele><time>2026-04-08T13:22:39.918Z</time></trkpt><trkpt lat="42.5726167" lon="2.9615183"><ele>19.666666666666664</ele><time>2026-04-08T13:22:40.919Z</time></trkpt><trkpt lat="42.5725583" lon="2.96142"><ele>20.0</ele><time>2026-04-08T13:22:41.919Z</time></trkpt><trkpt lat="42.5725" lon="2.961325"><ele>20.333333333333332</ele><time>2026-04-08T13:22:42.918Z</time></trkpt><trkpt lat="42.5724333" lon="2.9612383"><ele>20.666666666666668</ele><time>2026-04-08T13:22:43.919Z</time></trkpt><trkpt lat="42.5723717" lon="2.9611633"><ele>21.0</ele><time>2026-04-08T13:22:44.919Z</time></trkpt><trkpt lat="42.5723083" lon="2.961095"><ele>21.0</ele><time>2026-04-08T13:22:45.918Z</time></trkpt><trkpt lat="42.5722517" lon="2.9610483"><ele>21.0</ele><time>2026-04-08T13:22:46.919Z</time></trkpt><trkpt lat="42.5721867" lon="2.9610333"><ele>21.0</ele><time>2026-04-08T13:22:47.918Z</time></trkpt><trkpt lat="42.57211" lon="2.96101"><ele>21.0</ele><time>2026-04-08T13:22:48.919Z</time></trkpt><trkpt lat="42.572045" lon="2.96097"><ele>21.0</ele><time>2026-04-08T13:22:49.919Z</time></trkpt><trkpt lat="42.5719833" lon="2.96091"><ele>21.0</ele><time>2026-04-08T13:22:50.919Z</time></trkpt><trkpt lat="42.5719267" lon="2.96085"><ele>21.0</ele><time>2026-04-08T13:22:51.919Z</time></trkpt><trkpt lat="42.57188" lon="2.96079"><ele>21.200000000000003</ele><time>2026-04-08T13:22:52.918Z</time></trkpt><trkpt lat="42.5717933" lon="2.9606783"><ele>21.400000000000002</ele><time>2026-04-08T13:22:54.919Z</time></trkpt><trkpt lat="42.5717367" lon="2.9606133"><ele>21.6</ele><time>2026-04-08T13:22:55.918Z</time></trkpt><trkpt lat="42.5716683" lon="2.9604783"><ele>21.8</ele><time>2026-04-08T13:22:57.919Z</time></trkpt><trkpt lat="42.5716233" lon="2.960385"><ele>22.0</ele><time>2026-04-08T13:22:59.919Z</time></trkpt><trkpt lat="42.5715783" lon="2.9602667"><ele>22.0</ele><time>2026-04-08T13:23:01.919Z</time></trkpt><trkpt lat="42.5715117" lon="2.9601317"><ele>22.0</ele><time>2026-04-08T13:23:03.918Z</time></trkpt><trkpt lat="42.57142" lon="2.9599767"><ele>22.0</ele><time>2026-04-08T13:23:05.919Z</time></trkpt><trkpt lat="42.5713783" lon="2.9598933"><ele>22.0</ele><time>2026-04-08T13:23:06.918Z</time></trkpt><trkpt lat="42.5713367" lon="2.959815"><ele>22.0</ele><time>2026-04-08T13:23:07.918Z</time></trkpt><trkpt lat="42.5712967" lon="2.9597367"><ele>22.166666666666664</ele><time>2026-04-08T13:23:08.919Z</time></trkpt><trkpt lat="42.5712533" lon="2.9596517"><ele>22.333333333333332</ele><time>2026-04-08T13:23:09.918Z</time></trkpt><trkpt lat="42.571205" lon="2.959555"><ele>22.5</ele><time>2026-04-08T13:23:10.918Z</time></trkpt><trkpt lat="42.571155" lon="2.9594583"><ele>22.666666666666668</ele><time>2026-04-08T13:23:11.917Z</time></trkpt><trkpt lat="42.571105" lon="2.9593833"><ele>22.833333333333336</ele><time>2026-04-08T13:23:12.918Z</time></trkpt><trkpt lat="42.57106" lon="2.95931"><ele>23.0</ele><time>2026-04-08T13:23:13.918Z</time></trkpt><trkpt lat="42.5710133" lon="2.959235"><ele>23.0</ele><time>2026-04-08T13:23:14.917Z</time></trkpt><trkpt lat="42.57093" lon="2.9591133"><ele>23.0</ele><time>2026-04-08T13:23:16.918Z</time></trkpt><trkpt lat="42.5708633" lon="2.9590833"><ele>23.0</ele><time>2026-04-08T13:23:17.918Z</time></trkpt><trkpt lat="42.5707983" lon="2.9590683"><ele>23.0</ele><time>2026-04-08T13:23:18.918Z</time></trkpt><trkpt lat="42.5707" lon="2.9590783"><ele>23.0</ele><time>2026-04-08T13:23:19.918Z</time></trkpt><trkpt lat="42.5706117" lon="2.95909"><ele>23.0</ele><time>2026-04-08T13:23:20.917Z</time></trkpt><trkpt lat="42.5705183" lon="2.9590983"><ele>23.0</ele><time>2026-04-08T13:23:21.918Z</time></trkpt><trkpt lat="42.5704217" lon="2.9591067"><ele>23.0</ele><time>2026-04-08T13:23:22.918Z</time></trkpt><trkpt lat="42.5703233" lon="2.9591017"><ele>23.0</ele><time>2026-04-08T13:23:23.918Z</time></trkpt><trkpt lat="42.57023" lon="2.9590867"><ele>23.0</ele><time>2026-04-08T13:23:24.917Z</time></trkpt><trkpt lat="42.570135" lon="2.9590617"><ele>23.0</ele><time>2026-04-08T13:23:25.918Z</time></trkpt><trkpt lat="42.57004" lon="2.95903"><ele>22.599999999999998</ele><time>2026-04-08T13:23:26.918Z</time></trkpt><trkpt lat="42.5699417" lon="2.958995"><ele>22.2</ele><time>2026-04-08T13:23:27.918Z</time></trkpt><trkpt lat="42.5698383" lon="2.958965"><ele>21.8</ele><time>2026-04-08T13:23:28.918Z</time></trkpt><trkpt lat="42.56973" lon="2.958935"><ele>21.4</ele><time>2026-04-08T13:23:29.918Z</time></trkpt><trkpt lat="42.5696233" lon="2.9588983"><ele>21.0</ele><time>2026-04-08T13:23:30.918Z</time></trkpt><trkpt lat="42.569515" lon="2.9588583"><ele>21.0</ele><time>2026-04-08T13:23:31.917Z</time></trkpt><trkpt lat="42.5694" lon="2.95882"><ele>21.0</ele><time>2026-04-08T13:23:32.918Z</time></trkpt><trkpt lat="42.5692883" lon="2.9587783"><ele>21.0</ele><time>2026-04-08T13:23:33.918Z</time></trkpt><trkpt lat="42.5691717" lon="2.9587417"><ele>21.0</ele><time>2026-04-08T13:23:34.917Z</time></trkpt><trkpt lat="42.56905" lon="2.9587117"><ele>21.0</ele><time>2026-04-08T13:23:35.918Z</time></trkpt><trkpt lat="42.56894" lon="2.9587033"><ele>21.0</ele><time>2026-04-08T13:23:36.918Z</time></trkpt><trkpt lat="42.5688283" lon="2.9587233"><ele>21.0</ele><time>2026-04-08T13:23:37.918Z</time></trkpt><trkpt lat="42.5687183" lon="2.958775"><ele>21.0</ele><time>2026-04-08T13:23:38.918Z</time></trkpt><trkpt lat="42.5686183" lon="2.9588467"><ele>20.75</ele><time>2026-04-08T13:23:39.918Z</time></trkpt><trkpt lat="42.5685233" lon="2.958935"><ele>20.5</ele><time>2026-04-08T13:23:40.918Z</time></trkpt><trkpt lat="42.56843" lon="2.959035"><ele>20.25</ele><time>2026-04-08T13:23:41.918Z</time></trkpt><trkpt lat="42.5683367" lon="2.959135"><ele>20.0</ele><time>2026-04-08T13:23:42.918Z</time></trkpt><trkpt lat="42.56824" lon="2.95924"><ele>20.0</ele><time>2026-04-08T13:23:43.918Z</time></trkpt><trkpt lat="42.568145" lon="2.9593367"><ele>20.0</ele><time>2026-04-08T13:23:44.918Z</time></trkpt><trkpt lat="42.5680633" lon="2.9594217"><ele>20.0</ele><time>2026-04-08T13:23:45.918Z</time></trkpt><trkpt lat="42.5679683" lon="2.959495"><ele>20.0</ele><time>2026-04-08T13:23:46.918Z</time></trkpt><trkpt lat="42.5678633" lon="2.9595383"><ele>20.0</ele><time>2026-04-08T13:23:47.917Z</time></trkpt><trkpt lat="42.567755" lon="2.95956"><ele>20.0</ele><time>2026-04-08T13:23:48.917Z</time></trkpt><trkpt lat="42.5676517" lon="2.9595917"><ele>20.0</ele><time>2026-04-08T13:23:49.918Z</time></trkpt><trkpt lat="42.5675483" lon="2.95965"><ele>20.0</ele><time>2026-04-08T13:23:50.918Z</time></trkpt><trkpt lat="42.5674533" lon="2.9597167"><ele>20.0</ele><time>2026-04-08T13:23:51.918Z</time></trkpt><trkpt lat="42.567365" lon="2.9598"><ele>20.0</ele><time>2026-04-08T13:23:52.917Z</time></trkpt><trkpt lat="42.5672783" lon="2.9598983"><ele>20.0</ele><time>2026-04-08T13:23:53.917Z</time></trkpt><trkpt lat="42.567185" lon="2.960005"><ele>20.0</ele><time>2026-04-08T13:23:54.917Z</time></trkpt><trkpt lat="42.5670867" lon="2.960115"><ele>20.0</ele><time>2026-04-08T13:23:55.918Z</time></trkpt><trkpt lat="42.5669867" lon="2.9602317"><ele>20.0</ele><time>2026-04-08T13:23:56.918Z</time></trkpt><trkpt lat="42.5668833" lon="2.9603533"><ele>20.2</ele><time>2026-04-08T13:23:57.917Z</time></trkpt><trkpt lat="42.566785" lon="2.960465"><ele>20.4</ele><time>2026-04-08T13:23:58.918Z</time></trkpt><trkpt lat="42.5666983" lon="2.9605517"><ele>20.6</ele><time>2026-04-08T13:23:59.918Z</time></trkpt><trkpt lat="42.56663" lon="2.9606183"><ele>20.8</ele><time>2026-04-08T13:24:00.918Z</time></trkpt><trkpt lat="42.5665517" lon="2.9607033"><ele>21.0</ele><time>2026-04-08T13:24:02.917Z</time></trkpt><trkpt lat="42.5664617" lon="2.9608117"><ele>21.333333333333332</ele><time>2026-04-08T13:24:04.917Z</time></trkpt><trkpt lat="42.5664067" lon="2.9608717"><ele>21.666666666666668</ele><time>2026-04-08T13:24:05.918Z</time></trkpt><trkpt lat="42.5663533" lon="2.96094"><ele>22.0</ele><time>2026-04-08T13:24:06.918Z</time></trkpt><trkpt lat="42.5662883" lon="2.9610167"><ele>22.333333333333336</ele><time>2026-04-08T13:24:07.918Z</time></trkpt><trkpt lat="42.566225" lon="2.9610867"><ele>22.666666666666668</ele><time>2026-04-08T13:24:08.917Z</time></trkpt><trkpt lat="42.566175" lon="2.9611417"><ele>23.0</ele><time>2026-04-08T13:24:09.918Z</time></trkpt><trkpt lat="42.5660983" lon="2.9612183"><ele>23.0</ele><time>2026-04-08T13:24:11.917Z</time></trkpt><trkpt lat="42.5659867" lon="2.961325"><ele>23.0</ele><time>2026-04-08T13:24:13.918Z</time></trkpt><trkpt lat="42.5659183" lon="2.9613867"><ele>23.0</ele><time>2026-04-08T13:24:14.918Z</time></trkpt><trkpt lat="42.5658517" lon="2.9614483"><ele>23.0</ele><time>2026-04-08T13:24:15.918Z</time></trkpt><trkpt lat="42.5657817" lon="2.961515"><ele>23.0</ele><time>2026-04-08T13:24:16.917Z</time></trkpt><trkpt lat="42.5657067" lon="2.9615883"><ele>23.0</ele><time>2026-04-08T13:24:17.918Z</time></trkpt><trkpt lat="42.5656217" lon="2.96167"><ele>23.0</ele><time>2026-04-08T13:24:18.918Z</time></trkpt><trkpt lat="42.56553" lon="2.9617517"><ele>23.0</ele><time>2026-04-08T13:24:19.918Z</time></trkpt><trkpt lat="42.565435" lon="2.9618467"><ele>23.0</ele><time>2026-04-08T13:24:20.918Z</time></trkpt><trkpt lat="42.5653367" lon="2.9619417"><ele>22.5</ele><time>2026-04-08T13:24:21.918Z</time></trkpt><trkpt lat="42.5652317" lon="2.96204"><ele>22.0</ele><time>2026-04-08T13:24:22.918Z</time></trkpt><trkpt lat="42.5651267" lon="2.9621433"><ele>21.5</ele><time>2026-04-08T13:24:23.918Z</time></trkpt><trkpt lat="42.5650183" lon="2.962255"><ele>21.0</ele><time>2026-04-08T13:24:24.918Z</time></trkpt><trkpt lat="42.5648983" lon="2.9623767"><ele>21.0</ele><time>2026-04-08T13:24:25.918Z</time></trkpt><trkpt lat="42.5647767" lon="2.9624983"><ele>21.0</ele><time>2026-04-08T13:24:26.918Z</time></trkpt><trkpt lat="42.564655" lon="2.9626167"><ele>21.0</ele><time>2026-04-08T13:24:27.918Z</time></trkpt><trkpt lat="42.56453" lon="2.9627417"><ele>22.0</ele><time>2026-04-08T13:24:28.918Z</time></trkpt><trkpt lat="42.5644117" lon="2.9628667"><ele>23.0</ele><time>2026-04-08T13:24:29.917Z</time></trkpt><trkpt lat="42.564285" lon="2.962995"><ele>24.0</ele><time>2026-04-08T13:24:30.918Z</time></trkpt><trkpt lat="42.5641617" lon="2.963125"><ele>24.0</ele><time>2026-04-08T13:24:31.917Z</time></trkpt><trkpt lat="42.5640333" lon="2.9632567"><ele>24.0</ele><time>2026-04-08T13:24:32.918Z</time></trkpt><trkpt lat="42.5638983" lon="2.9633833"><ele>24.0</ele><time>2026-04-08T13:24:33.917Z</time></trkpt><trkpt lat="42.5637617" lon="2.963505"><ele>24.333333333333336</ele><time>2026-04-08T13:24:34.917Z</time></trkpt><trkpt lat="42.5636183" lon="2.9636267"><ele>24.666666666666668</ele><time>2026-04-08T13:24:35.918Z</time></trkpt><trkpt lat="42.5634717" lon="2.963745"><ele>25.0</ele><time>2026-04-08T13:24:36.917Z</time></trkpt><trkpt lat="42.5633183" lon="2.963855"><ele>25.0</ele><time>2026-04-08T13:24:37.918Z</time></trkpt><trkpt lat="42.5631633" lon="2.9639683"><ele>25.0</ele><time>2026-04-08T13:24:38.918Z</time></trkpt><trkpt lat="42.5630117" lon="2.9640883"><ele>25.0</ele><time>2026-04-08T13:24:39.918Z</time></trkpt><trkpt lat="42.5628467" lon="2.9642067"><ele>25.0</ele><time>2026-04-08T13:24:40.917Z</time></trkpt><trkpt lat="42.5626717" lon="2.96433"><ele>25.0</ele><time>2026-04-08T13:24:41.917Z</time></trkpt><trkpt lat="42.5625" lon="2.9644533"><ele>25.0</ele><time>2026-04-08T13:24:42.918Z</time></trkpt><trkpt lat="42.5623333" lon="2.96456"><ele>25.0</ele><time>2026-04-08T13:24:43.918Z</time></trkpt><trkpt lat="42.56217" lon="2.96465"><ele>25.0</ele><time>2026-04-08T13:24:44.918Z</time></trkpt><trkpt lat="42.562" lon="2.9647183"><ele>25.0</ele><time>2026-04-08T13:24:45.918Z</time></trkpt><trkpt lat="42.56183" lon="2.9647633"><ele>25.333333333333336</ele><time>2026-04-08T13:24:46.918Z</time></trkpt><trkpt lat="42.5616483" lon="2.96479"><ele>25.666666666666664</ele><time>2026-04-08T13:24:47.918Z</time></trkpt><trkpt lat="42.5614533" lon="2.9647983"><ele>26.0</ele><time>2026-04-08T13:24:48.918Z</time></trkpt><trkpt lat="42.5612533" lon="2.9647717"><ele>26.0</ele><time>2026-04-08T13:24:49.918Z</time></trkpt><trkpt lat="42.56105" lon="2.9647233"><ele>26.0</ele><time>2026-04-08T13:24:50.917Z</time></trkpt><trkpt lat="42.5608533" lon="2.9646867"><ele>26.0</ele><time>2026-04-08T13:24:51.918Z</time></trkpt><trkpt lat="42.5606617" lon="2.9646617"><ele>26.0</ele><time>2026-04-08T13:24:52.917Z</time></trkpt><trkpt lat="42.5604683" lon="2.9646433"><ele>26.0</ele><time>2026-04-08T13:24:53.918Z</time></trkpt><trkpt lat="42.5602867" lon="2.9646433"><ele>26.0</ele><time>2026-04-08T13:24:54.918Z</time></trkpt><trkpt lat="42.5601117" lon="2.9646567"><ele>26.666666666666664</ele><time>2026-04-08T13:24:55.917Z</time></trkpt><trkpt lat="42.5599383" lon="2.96471"><ele>27.333333333333336</ele><time>2026-04-08T13:24:56.918Z</time></trkpt><trkpt lat="42.5597667" lon="2.9647767"><ele>28.0</ele><time>2026-04-08T13:24:57.918Z</time></trkpt><trkpt lat="42.5596" lon="2.9648567"><ele>28.5</ele><time>2026-04-08T13:24:58.918Z</time></trkpt><trkpt lat="42.55943" lon="2.9649433"><ele>29.0</ele><time>2026-04-08T13:24:59.918Z</time></trkpt><trkpt lat="42.558975" lon="2.9651317"><ele>29.0</ele><time>2026-04-08T13:25:02.918Z</time></trkpt><trkpt lat="42.55884" lon="2.96515"><ele>29.0</ele><time>2026-04-08T13:25:03.918Z</time></trkpt><trkpt lat="42.5587217" lon="2.9651583"><ele>29.0</ele><time>2026-04-08T13:25:04.918Z</time></trkpt><trkpt lat="42.5586167" lon="2.965155"><ele>29.0</ele><time>2026-04-08T13:25:05.918Z</time></trkpt><trkpt lat="42.5583783" lon="2.9650783"><ele>29.333333333333332</ele><time>2026-04-08T13:25:08.917Z</time></trkpt><trkpt lat="42.5583217" lon="2.9650133"><ele>29.666666666666664</ele><time>2026-04-08T13:25:09.918Z</time></trkpt><trkpt lat="42.5582633" lon="2.964935"><ele>30.0</ele><time>2026-04-08T13:25:10.918Z</time></trkpt><trkpt lat="42.558215" lon="2.96485"><ele>30.333333333333336</ele><time>2026-04-08T13:25:11.918Z</time></trkpt><trkpt lat="42.5581933" lon="2.9647383"><ele>30.666666666666668</ele><time>2026-04-08T13:25:12.918Z</time></trkpt><trkpt lat="42.5581917" lon="2.96461"><ele>31.0</ele><time>2026-04-08T13:25:13.918Z</time></trkpt><trkpt lat="42.558185" lon="2.9644567"><ele>31.0</ele><time>2026-04-08T13:25:14.918Z</time></trkpt><trkpt lat="42.5581717" lon="2.964295"><ele>31.0</ele><time>2026-04-08T13:25:15.917Z</time></trkpt><trkpt lat="42.55816" lon="2.9641267"><ele>31.0</ele><time>2026-04-08T13:25:16.917Z</time></trkpt><trkpt lat="42.5581517" lon="2.963945"><ele>31.0</ele><time>2026-04-08T13:25:17.918Z</time></trkpt><trkpt lat="42.5581417" lon="2.96375"><ele>30.5</ele><time>2026-04-08T13:25:18.918Z</time></trkpt><trkpt lat="42.5581333" lon="2.9635617"><ele>30.0</ele><time>2026-04-08T13:25:19.918Z</time></trkpt><trkpt lat="42.5581283" lon="2.9633767"><ele>29.5</ele><time>2026-04-08T13:25:20.917Z</time></trkpt><trkpt lat="42.5581233" lon="2.9631967"><ele>29.0</ele><time>2026-04-08T13:25:21.918Z</time></trkpt><trkpt lat="42.5581183" lon="2.9630183"><ele>29.0</ele><time>2026-04-08T13:25:22.917Z</time></trkpt><trkpt lat="42.5581083" lon="2.9628367"><ele>29.0</ele><time>2026-04-08T13:25:23.918Z</time></trkpt><trkpt lat="42.5581017" lon="2.962645"><ele>29.0</ele><time>2026-04-08T13:25:24.919Z</time></trkpt><trkpt lat="42.558095" lon="2.9624417"><ele>29.0</ele><time>2026-04-08T13:25:25.918Z</time></trkpt><trkpt lat="42.5580867" lon="2.9622317"><ele>29.0</ele><time>2026-04-08T13:25:26.918Z</time></trkpt><trkpt lat="42.5580783" lon="2.9620217"><ele>29.0</ele><time>2026-04-08T13:25:27.919Z</time></trkpt><trkpt lat="42.5580783" lon="2.9618033"><ele>29.0</ele><time>2026-04-08T13:25:28.918Z</time></trkpt><trkpt lat="42.5580767" lon="2.9615783"><ele>29.333333333333332</ele><time>2026-04-08T13:25:29.919Z</time></trkpt><trkpt lat="42.5580733" lon="2.9613367"><ele>29.666666666666664</ele><time>2026-04-08T13:25:30.918Z</time></trkpt><trkpt lat="42.5580583" lon="2.961075"><ele>30.0</ele><time>2026-04-08T13:25:31.919Z</time></trkpt><trkpt lat="42.5580333" lon="2.9607967"><ele>30.333333333333336</ele><time>2026-04-08T13:25:32.919Z</time></trkpt><trkpt lat="42.558005" lon="2.9605183"><ele>30.666666666666668</ele><time>2026-04-08T13:25:33.918Z</time></trkpt><trkpt lat="42.5579667" lon="2.9602317"><ele>31.0</ele><time>2026-04-08T13:25:34.919Z</time></trkpt><trkpt lat="42.55793" lon="2.9599467"><ele>31.333333333333336</ele><time>2026-04-08T13:25:35.918Z</time></trkpt><trkpt lat="42.5578833" lon="2.95967"><ele>31.666666666666664</ele><time>2026-04-08T13:25:36.918Z</time></trkpt><trkpt lat="42.5578317" lon="2.9594"><ele>32.0</ele><time>2026-04-08T13:25:37.919Z</time></trkpt><trkpt lat="42.55778" lon="2.9591333"><ele>32.0</ele><time>2026-04-08T13:25:38.919Z</time></trkpt><trkpt lat="42.5577217" lon="2.9588733"><ele>32.0</ele><time>2026-04-08T13:25:39.919Z</time></trkpt><trkpt lat="42.5576617" lon="2.9586133"><ele>32.0</ele><time>2026-04-08T13:25:40.918Z</time></trkpt><trkpt lat="42.5576" lon="2.958355"><ele>32.0</ele><time>2026-04-08T13:25:41.919Z</time></trkpt><trkpt lat="42.5575283" lon="2.9581"><ele>32.0</ele><time>2026-04-08T13:25:42.918Z</time></trkpt><trkpt lat="42.5574517" lon="2.9578533"><ele>32.0</ele><time>2026-04-08T13:25:43.919Z</time></trkpt><trkpt lat="42.5573733" lon="2.957615"><ele>32.0</ele><time>2026-04-08T13:25:44.919Z</time></trkpt><trkpt lat="42.5572883" lon="2.9573817"><ele>32.0</ele><time>2026-04-08T13:25:45.918Z</time></trkpt><trkpt lat="42.5572017" lon="2.9571517"><ele>32.0</ele><time>2026-04-08T13:25:46.918Z</time></trkpt><trkpt lat="42.5571133" lon="2.956925"><ele>32.0</ele><time>2026-04-08T13:25:47.919Z</time></trkpt><trkpt lat="42.5570167" lon="2.9567033"><ele>32.0</ele><time>2026-04-08T13:25:48.919Z</time></trkpt><trkpt lat="42.5569183" lon="2.9564867"><ele>32.0</ele><time>2026-04-08T13:25:49.919Z</time></trkpt><trkpt lat="42.5568167" lon="2.95627"><ele>32.33333333333333</ele><time>2026-04-08T13:25:50.919Z</time></trkpt><trkpt lat="42.5567067" lon="2.956055"><ele>32.666666666666664</ele><time>2026-04-08T13:25:51.919Z</time></trkpt><trkpt lat="42.5565917" lon="2.9558483"><ele>33.0</ele><time>2026-04-08T13:25:52.919Z</time></trkpt><trkpt lat="42.5564767" lon="2.9556433"><ele>33.0</ele><time>2026-04-08T13:25:53.918Z</time></trkpt><trkpt lat="42.5563583" lon="2.955445"><ele>33.0</ele><time>2026-04-08T13:25:54.919Z</time></trkpt><trkpt lat="42.5562367" lon="2.9552467"><ele>33.0</ele><time>2026-04-08T13:25:55.918Z</time></trkpt><trkpt lat="42.5561067" lon="2.9550533"><ele>33.0</ele><time>2026-04-08T13:25:56.919Z</time></trkpt><trkpt lat="42.5559717" lon="2.9548633"><ele>33.0</ele><time>2026-04-08T13:25:57.919Z</time></trkpt><trkpt lat="42.5558383" lon="2.9546767"><ele>33.0</ele><time>2026-04-08T13:25:58.919Z</time></trkpt><trkpt lat="42.5557033" lon="2.954495"><ele>33.0</ele><time>2026-04-08T13:25:59.919Z</time></trkpt><trkpt lat="42.5555617" lon="2.95432"><ele>33.0</ele><time>2026-04-08T13:26:00.919Z</time></trkpt><trkpt lat="42.55542" lon="2.95415"><ele>33.0</ele><time>2026-04-08T13:26:01.919Z</time></trkpt><trkpt lat="42.555275" lon="2.9539817"><ele>33.666666666666664</ele><time>2026-04-08T13:26:02.918Z</time></trkpt><trkpt lat="42.555125" lon="2.9538183"><ele>34.33333333333333</ele><time>2026-04-08T13:26:03.919Z</time></trkpt><trkpt lat="42.554975" lon="2.9536533"><ele>35.0</ele><time>2026-04-08T13:26:04.919Z</time></trkpt><trkpt lat="42.554825" lon="2.9534883"><ele>34.666666666666664</ele><time>2026-04-08T13:26:05.919Z</time></trkpt><trkpt lat="42.5546767" lon="2.953325"><ele>34.333333333333336</ele><time>2026-04-08T13:26:06.919Z</time></trkpt><trkpt lat="42.5545267" lon="2.95316"><ele>34.0</ele><time>2026-04-08T13:26:07.919Z</time></trkpt><trkpt lat="42.5543783" lon="2.952995"><ele>34.333333333333336</ele><time>2026-04-08T13:26:08.919Z</time></trkpt><trkpt lat="42.55423" lon="2.9528267"><ele>34.666666666666664</ele><time>2026-04-08T13:26:09.919Z</time></trkpt><trkpt lat="42.5540833" lon="2.952655"><ele>35.0</ele><time>2026-04-08T13:26:10.919Z</time></trkpt><trkpt lat="42.55394" lon="2.9524817"><ele>35.0</ele><time>2026-04-08T13:26:11.919Z</time></trkpt><trkpt lat="42.5537983" lon="2.9523017"><ele>35.0</ele><time>2026-04-08T13:26:12.919Z</time></trkpt><trkpt lat="42.5536633" lon="2.95212"><ele>35.0</ele><time>2026-04-08T13:26:13.919Z</time></trkpt><trkpt lat="42.5535383" lon="2.951935"><ele>35.666666666666664</ele><time>2026-04-08T13:26:14.919Z</time></trkpt><trkpt lat="42.5534117" lon="2.95176"><ele>36.333333333333336</ele><time>2026-04-08T13:26:15.919Z</time></trkpt><trkpt lat="42.5532933" lon="2.951585"><ele>37.0</ele><time>2026-04-08T13:26:16.918Z</time></trkpt><trkpt lat="42.5531767" lon="2.951405"><ele>37.0</ele><time>2026-04-08T13:26:17.919Z</time></trkpt><trkpt lat="42.5530617" lon="2.9512333"><ele>37.0</ele><time>2026-04-08T13:26:18.918Z</time></trkpt><trkpt lat="42.5529533" lon="2.9510633"><ele>37.0</ele><time>2026-04-08T13:26:19.918Z</time></trkpt><trkpt lat="42.5528483" lon="2.95089"><ele>37.66666666666667</ele><time>2026-04-08T13:26:20.919Z</time></trkpt><trkpt lat="42.552745" lon="2.9507133"><ele>38.333333333333336</ele><time>2026-04-08T13:26:21.919Z</time></trkpt><trkpt lat="42.552645" lon="2.9505367"><ele>39.0</ele><time>2026-04-08T13:26:22.919Z</time></trkpt><trkpt lat="42.5525483" lon="2.9503633"><ele>39.0</ele><time>2026-04-08T13:26:23.918Z</time></trkpt><trkpt lat="42.5524483" lon="2.9501967"><ele>39.0</ele><time>2026-04-08T13:26:24.918Z</time></trkpt><trkpt lat="42.55235" lon="2.9500267"><ele>39.0</ele><time>2026-04-08T13:26:25.918Z</time></trkpt><trkpt lat="42.5522583" lon="2.9498533"><ele>39.333333333333336</ele><time>2026-04-08T13:26:26.919Z</time></trkpt><trkpt lat="42.5521683" lon="2.9496833"><ele>39.66666666666667</ele><time>2026-04-08T13:26:27.919Z</time></trkpt><trkpt lat="42.552075" lon="2.9494983"><ele>40.0</ele><time>2026-04-08T13:26:28.919Z</time></trkpt><trkpt lat="42.5519833" lon="2.9493033"><ele>39.66666666666667</ele><time>2026-04-08T13:26:29.919Z</time></trkpt><trkpt lat="42.5518917" lon="2.949105"><ele>39.333333333333336</ele><time>2026-04-08T13:26:30.918Z</time></trkpt><trkpt lat="42.5517983" lon="2.948905"><ele>39.0</ele><time>2026-04-08T13:26:31.918Z</time></trkpt><trkpt lat="42.5517083" lon="2.9487017"><ele>39.0</ele><time>2026-04-08T13:26:32.918Z</time></trkpt><trkpt lat="42.5516217" lon="2.9484933"><ele>39.0</ele><time>2026-04-08T13:26:33.918Z</time></trkpt><trkpt lat="42.55154" lon="2.94828"><ele>39.0</ele><time>2026-04-08T13:26:34.918Z</time></trkpt><trkpt lat="42.5514617" lon="2.948065"><ele>39.0</ele><time>2026-04-08T13:26:35.919Z</time></trkpt><trkpt lat="42.5513817" lon="2.9478467"><ele>39.0</ele><time>2026-04-08T13:26:36.919Z</time></trkpt><trkpt lat="42.5513083" lon="2.947635"><ele>39.0</ele><time>2026-04-08T13:26:37.919Z</time></trkpt><trkpt lat="42.5512333" lon="2.9474183"><ele>39.0</ele><time>2026-04-08T13:26:38.919Z</time></trkpt><trkpt lat="42.5511617" lon="2.9472017"><ele>39.0</ele><time>2026-04-08T13:26:39.919Z</time></trkpt><trkpt lat="42.55109" lon="2.9469767"><ele>39.0</ele><time>2026-04-08T13:26:40.919Z</time></trkpt><trkpt lat="42.5510217" lon="2.94675"><ele>39.0</ele><time>2026-04-08T13:26:41.919Z</time></trkpt><trkpt lat="42.550955" lon="2.9465217"><ele>39.0</ele><time>2026-04-08T13:26:42.919Z</time></trkpt><trkpt lat="42.55089" lon="2.9462917"><ele>39.0</ele><time>2026-04-08T13:26:43.918Z</time></trkpt><trkpt lat="42.5508233" lon="2.946065"><ele>39.0</ele><time>2026-04-08T13:26:44.919Z</time></trkpt><trkpt lat="42.5507583" lon="2.9458383"><ele>39.0</ele><time>2026-04-08T13:26:45.919Z</time></trkpt><trkpt lat="42.550695" lon="2.945615"><ele>39.0</ele><time>2026-04-08T13:26:46.918Z</time></trkpt><trkpt lat="42.5506267" lon="2.9453917"><ele>39.0</ele><time>2026-04-08T13:26:47.919Z</time></trkpt><trkpt lat="42.5505617" lon="2.9451667"><ele>39.0</ele><time>2026-04-08T13:26:48.919Z</time></trkpt><trkpt lat="42.5504983" lon="2.94494"><ele>39.0</ele><time>2026-04-08T13:26:49.918Z</time></trkpt><trkpt lat="42.5504333" lon="2.9447133"><ele>39.333333333333336</ele><time>2026-04-08T13:26:50.919Z</time></trkpt><trkpt lat="42.550365" lon="2.9444833"><ele>39.66666666666667</ele><time>2026-04-08T13:26:51.919Z</time></trkpt><trkpt lat="42.5502983" lon="2.9442517"><ele>40.0</ele><time>2026-04-08T13:26:52.919Z</time></trkpt><trkpt lat="42.55023" lon="2.9440217"><ele>40.0</ele><time>2026-04-08T13:26:53.919Z</time></trkpt><trkpt lat="42.550165" lon="2.9437883"><ele>40.0</ele><time>2026-04-08T13:26:54.918Z</time></trkpt><trkpt lat="42.550095" lon="2.943555"><ele>40.0</ele><time>2026-04-08T13:26:55.919Z</time></trkpt><trkpt lat="42.5500233" lon="2.943315"><ele>40.66666666666667</ele><time>2026-04-08T13:26:56.919Z</time></trkpt><trkpt lat="42.5499467" lon="2.943075"><ele>41.333333333333336</ele><time>2026-04-08T13:26:57.919Z</time></trkpt><trkpt lat="42.549875" lon="2.94283"><ele>42.0</ele><time>2026-04-08T13:26:58.919Z</time></trkpt><trkpt lat="42.5498083" lon="2.9425883"><ele>42.0</ele><time>2026-04-08T13:26:59.919Z</time></trkpt><trkpt lat="42.549735" lon="2.9423467"><ele>42.0</ele><time>2026-04-08T13:27:00.918Z</time></trkpt><trkpt lat="42.5496633" lon="2.9421083"><ele>42.0</ele><time>2026-04-08T13:27:01.919Z</time></trkpt><trkpt lat="42.5495917" lon="2.94187"><ele>41.666666666666664</ele><time>2026-04-08T13:27:02.919Z</time></trkpt><trkpt lat="42.54952" lon="2.94163"><ele>41.33333333333333</ele><time>2026-04-08T13:27:03.919Z</time></trkpt><trkpt lat="42.5494517" lon="2.9413883"><ele>41.0</ele><time>2026-04-08T13:27:04.918Z</time></trkpt><trkpt lat="42.5493817" lon="2.941145"><ele>41.0</ele><time>2026-04-08T13:27:05.919Z</time></trkpt><trkpt lat="42.54931" lon="2.9409"><ele>41.0</ele><time>2026-04-08T13:27:06.919Z</time></trkpt><trkpt lat="42.5492383" lon="2.9406567"><ele>41.0</ele><time>2026-04-08T13:27:07.919Z</time></trkpt><trkpt lat="42.5491667" lon="2.9404133"><ele>40.666666666666664</ele><time>2026-04-08T13:27:08.919Z</time></trkpt><trkpt lat="42.5490983" lon="2.9401683"><ele>40.333333333333336</ele><time>2026-04-08T13:27:09.919Z</time></trkpt><trkpt lat="42.5490283" lon="2.9399233"><ele>40.0</ele><time>2026-04-08T13:27:10.919Z</time></trkpt><trkpt lat="42.54896" lon="2.9396767"><ele>40.0</ele><time>2026-04-08T13:27:11.919Z</time></trkpt><trkpt lat="42.54889" lon="2.9394333"><ele>40.0</ele><time>2026-04-08T13:27:12.919Z</time></trkpt><trkpt lat="42.5488183" lon="2.939195"><ele>40.0</ele><time>2026-04-08T13:27:13.918Z</time></trkpt><trkpt lat="42.5487483" lon="2.9389583"><ele>41.333333333333336</ele><time>2026-04-08T13:27:14.919Z</time></trkpt><trkpt lat="42.54868" lon="2.9387217"><ele>42.666666666666664</ele><time>2026-04-08T13:27:15.919Z</time></trkpt><trkpt lat="42.5486133" lon="2.9384833"><ele>44.0</ele><time>2026-04-08T13:27:16.919Z</time></trkpt><trkpt lat="42.5485533" lon="2.9382433"><ele>44.0</ele><time>2026-04-08T13:27:17.919Z</time></trkpt><trkpt lat="42.5484967" lon="2.9380033"><ele>44.0</ele><time>2026-04-08T13:27:18.919Z</time></trkpt><trkpt lat="42.54844" lon="2.9377583"><ele>44.0</ele><time>2026-04-08T13:27:19.918Z</time></trkpt><trkpt lat="42.548385" lon="2.937515"><ele>43.666666666666664</ele><time>2026-04-08T13:27:20.919Z</time></trkpt><trkpt lat="42.5483333" lon="2.9372667"><ele>43.333333333333336</ele><time>2026-04-08T13:27:21.919Z</time></trkpt><trkpt lat="42.548285" lon="2.9370133"><ele>43.0</ele><time>2026-04-08T13:27:22.919Z</time></trkpt><trkpt lat="42.5482417" lon="2.9367567"><ele>42.333333333333336</ele><time>2026-04-08T13:27:23.919Z</time></trkpt><trkpt lat="42.5482033" lon="2.936495"><ele>41.666666666666664</ele><time>2026-04-08T13:27:24.918Z</time></trkpt><trkpt lat="42.5481683" lon="2.9362317"><ele>41.0</ele><time>2026-04-08T13:27:25.919Z</time></trkpt><trkpt lat="42.548135" lon="2.9359733"><ele>41.0</ele><time>2026-04-08T13:27:26.919Z</time></trkpt><trkpt lat="42.5481" lon="2.9357117"><ele>41.0</ele><time>2026-04-08T13:27:27.918Z</time></trkpt><trkpt lat="42.54807" lon="2.9354483"><ele>41.0</ele><time>2026-04-08T13:27:28.919Z</time></trkpt><trkpt lat="42.5480433" lon="2.935185"><ele>41.0</ele><time>2026-04-08T13:27:29.918Z</time></trkpt><trkpt lat="42.54802" lon="2.9349217"><ele>41.0</ele><time>2026-04-08T13:27:30.918Z</time></trkpt><trkpt lat="42.5480033" lon="2.9346567"><ele>41.0</ele><time>2026-04-08T13:27:31.917Z</time></trkpt><trkpt lat="42.54799" lon="2.9343917"><ele>41.0</ele><time>2026-04-08T13:27:32.918Z</time></trkpt><trkpt lat="42.547975" lon="2.9341267"><ele>41.0</ele><time>2026-04-08T13:27:33.918Z</time></trkpt><trkpt lat="42.547965" lon="2.9338667"><ele>41.0</ele><time>2026-04-08T13:27:34.917Z</time></trkpt><trkpt lat="42.5479583" lon="2.933605"><ele>40.666666666666664</ele><time>2026-04-08T13:27:35.918Z</time></trkpt><trkpt lat="42.547955" lon="2.933345"><ele>40.333333333333336</ele><time>2026-04-08T13:27:36.917Z</time></trkpt><trkpt lat="42.5479517" lon="2.933085"><ele>40.0</ele><time>2026-04-08T13:27:37.918Z</time></trkpt><trkpt lat="42.54795" lon="2.93283"><ele>40.0</ele><time>2026-04-08T13:27:38.917Z</time></trkpt><trkpt lat="42.5479517" lon="2.9325767"><ele>40.0</ele><time>2026-04-08T13:27:39.918Z</time></trkpt><trkpt lat="42.5479567" lon="2.9323233"><ele>40.0</ele><time>2026-04-08T13:27:40.917Z</time></trkpt><trkpt lat="42.5479667" lon="2.932065"><ele>40.0</ele><time>2026-04-08T13:27:41.918Z</time></trkpt><trkpt lat="42.5479783" lon="2.931815"><ele>40.0</ele><time>2026-04-08T13:27:42.918Z</time></trkpt><trkpt lat="42.5479917" lon="2.9315633"><ele>40.0</ele><time>2026-04-08T13:27:43.918Z</time></trkpt><trkpt lat="42.548005" lon="2.931315"><ele>40.0</ele><time>2026-04-08T13:27:44.918Z</time></trkpt><trkpt lat="42.5480233" lon="2.931065"><ele>40.0</ele><time>2026-04-08T13:27:45.918Z</time></trkpt><trkpt lat="42.548035" lon="2.9308133"><ele>40.0</ele><time>2026-04-08T13:27:46.918Z</time></trkpt><trkpt lat="42.5480467" lon="2.9305567"><ele>40.333333333333336</ele><time>2026-04-08T13:27:47.917Z</time></trkpt><trkpt lat="42.5480567" lon="2.9302883"><ele>40.666666666666664</ele><time>2026-04-08T13:27:48.918Z</time></trkpt><trkpt lat="42.54807" lon="2.9300233"><ele>41.0</ele><time>2026-04-08T13:27:49.918Z</time></trkpt><trkpt lat="42.54809" lon="2.9297567"><ele>41.33333333333333</ele><time>2026-04-08T13:27:50.917Z</time></trkpt><trkpt lat="42.54811" lon="2.92949"><ele>41.666666666666664</ele><time>2026-04-08T13:27:51.918Z</time></trkpt><trkpt lat="42.5481267" lon="2.929225"><ele>42.0</ele><time>2026-04-08T13:27:52.918Z</time></trkpt><trkpt lat="42.5481467" lon="2.9289617"><ele>42.0</ele><time>2026-04-08T13:27:53.917Z</time></trkpt><trkpt lat="42.5481667" lon="2.9287"><ele>42.0</ele><time>2026-04-08T13:27:54.918Z</time></trkpt><trkpt lat="42.5481833" lon="2.92844"><ele>42.0</ele><time>2026-04-08T13:27:55.918Z</time></trkpt><trkpt lat="42.5482017" lon="2.9281833"><ele>41.333333333333336</ele><time>2026-04-08T13:27:56.917Z</time></trkpt><trkpt lat="42.5482167" lon="2.92793"><ele>40.66666666666667</ele><time>2026-04-08T13:27:57.918Z</time></trkpt><trkpt lat="42.548235" lon="2.92768"><ele>40.0</ele><time>2026-04-08T13:27:58.918Z</time></trkpt><trkpt lat="42.5482517" lon="2.9274333"><ele>40.0</ele><time>2026-04-08T13:27:59.918Z</time></trkpt><trkpt lat="42.548265" lon="2.92718"><ele>40.0</ele><time>2026-04-08T13:28:00.918Z</time></trkpt><trkpt lat="42.548285" lon="2.9269283"><ele>40.0</ele><time>2026-04-08T13:28:01.917Z</time></trkpt><trkpt lat="42.5483083" lon="2.9266767"><ele>40.66666666666667</ele><time>2026-04-08T13:28:02.918Z</time></trkpt><trkpt lat="42.5483267" lon="2.9264283"><ele>41.333333333333336</ele><time>2026-04-08T13:28:03.918Z</time></trkpt><trkpt lat="42.5483467" lon="2.92618"><ele>42.0</ele><time>2026-04-08T13:28:04.918Z</time></trkpt><trkpt lat="42.5483667" lon="2.9259333"><ele>42.333333333333336</ele><time>2026-04-08T13:28:05.918Z</time></trkpt><trkpt lat="42.5483867" lon="2.9256833"><ele>42.66666666666667</ele><time>2026-04-08T13:28:06.918Z</time></trkpt><trkpt lat="42.5484083" lon="2.9254283"><ele>43.0</ele><time>2026-04-08T13:28:07.918Z</time></trkpt><trkpt lat="42.5484283" lon="2.9251683"><ele>42.66666666666667</ele><time>2026-04-08T13:28:08.917Z</time></trkpt><trkpt lat="42.5484467" lon="2.924905"><ele>42.333333333333336</ele><time>2026-04-08T13:28:09.918Z</time></trkpt><trkpt lat="42.5484633" lon="2.924645"><ele>42.0</ele><time>2026-04-08T13:28:10.918Z</time></trkpt><trkpt lat="42.54848" lon="2.9243817"><ele>42.0</ele><time>2026-04-08T13:28:11.918Z</time></trkpt><trkpt lat="42.5484967" lon="2.924115"><ele>42.0</ele><time>2026-04-08T13:28:12.918Z</time></trkpt><trkpt lat="42.5485133" lon="2.92385"><ele>42.0</ele><time>2026-04-08T13:28:13.918Z</time></trkpt><trkpt lat="42.5485283" lon="2.923585"><ele>42.0</ele><time>2026-04-08T13:28:14.918Z</time></trkpt><trkpt lat="42.5485433" lon="2.9233167"><ele>42.0</ele><time>2026-04-08T13:28:15.917Z</time></trkpt><trkpt lat="42.54856" lon="2.92305"><ele>42.0</ele><time>2026-04-08T13:28:16.918Z</time></trkpt><trkpt lat="42.548575" lon="2.922785"><ele>42.666666666666664</ele><time>2026-04-08T13:28:17.918Z</time></trkpt><trkpt lat="42.5485817" lon="2.9225183"><ele>43.33333333333333</ele><time>2026-04-08T13:28:18.918Z</time></trkpt><trkpt lat="42.5485883" lon="2.9222583"><ele>44.0</ele><time>2026-04-08T13:28:19.918Z</time></trkpt><trkpt lat="42.5485917" lon="2.922"><ele>44.0</ele><time>2026-04-08T13:28:20.918Z</time></trkpt><trkpt lat="42.548595" lon="2.9217383"><ele>44.0</ele><time>2026-04-08T13:28:21.918Z</time></trkpt><trkpt lat="42.548595" lon="2.921475"><ele>44.0</ele><time>2026-04-08T13:28:22.918Z</time></trkpt><trkpt lat="42.5485933" lon="2.9212133"><ele>44.0</ele><time>2026-04-08T13:28:23.918Z</time></trkpt><trkpt lat="42.5485867" lon="2.9209533"><ele>44.0</ele><time>2026-04-08T13:28:24.917Z</time></trkpt><trkpt lat="42.5485733" lon="2.92069"><ele>44.0</ele><time>2026-04-08T13:28:25.918Z</time></trkpt><trkpt lat="42.5485567" lon="2.9204283"><ele>44.0</ele><time>2026-04-08T13:28:26.918Z</time></trkpt><trkpt lat="42.5485383" lon="2.92017"><ele>44.0</ele><time>2026-04-08T13:28:27.918Z</time></trkpt><trkpt lat="42.5485183" lon="2.919915"><ele>44.0</ele><time>2026-04-08T13:28:28.918Z</time></trkpt><trkpt lat="42.5484983" lon="2.9196683"><ele>44.0</ele><time>2026-04-08T13:28:29.918Z</time></trkpt><trkpt lat="42.5484767" lon="2.919425"><ele>44.0</ele><time>2026-04-08T13:28:30.918Z</time></trkpt><trkpt lat="42.54846" lon="2.9191817"><ele>44.0</ele><time>2026-04-08T13:28:31.918Z</time></trkpt><trkpt lat="42.5484417" lon="2.9189367"><ele>44.0</ele><time>2026-04-08T13:28:32.918Z</time></trkpt><trkpt lat="42.5484233" lon="2.91869"><ele>44.0</ele><time>2026-04-08T13:28:33.918Z</time></trkpt><trkpt lat="42.5484" lon="2.918445"><ele>44.0</ele><time>2026-04-08T13:28:34.917Z</time></trkpt><trkpt lat="42.5483767" lon="2.9181983"><ele>44.0</ele><time>2026-04-08T13:28:35.918Z</time></trkpt><trkpt lat="42.54835" lon="2.9179483"><ele>44.0</ele><time>2026-04-08T13:28:36.918Z</time></trkpt><trkpt lat="42.5483233" lon="2.917695"><ele>44.0</ele><time>2026-04-08T13:28:37.918Z</time></trkpt><trkpt lat="42.5482933" lon="2.9174417"><ele>44.33333333333333</ele><time>2026-04-08T13:28:38.918Z</time></trkpt><trkpt lat="42.5482633" lon="2.9171817"><ele>44.666666666666664</ele><time>2026-04-08T13:28:39.917Z</time></trkpt><trkpt lat="42.54823" lon="2.91692"><ele>45.0</ele><time>2026-04-08T13:28:40.917Z</time></trkpt><trkpt lat="42.5481967" lon="2.91666"><ele>45.0</ele><time>2026-04-08T13:28:41.918Z</time></trkpt><trkpt lat="42.5481517" lon="2.9163967"><ele>45.0</ele><time>2026-04-08T13:28:42.917Z</time></trkpt><trkpt lat="42.5481117" lon="2.916135"><ele>45.0</ele><time>2026-04-08T13:28:43.918Z</time></trkpt><trkpt lat="42.5480683" lon="2.9158683"><ele>45.0</ele><time>2026-04-08T13:28:44.918Z</time></trkpt><trkpt lat="42.54802" lon="2.9156033"><ele>45.0</ele><time>2026-04-08T13:28:45.918Z</time></trkpt><trkpt lat="42.54796" lon="2.9153367"><ele>45.0</ele><time>2026-04-08T13:28:46.918Z</time></trkpt><trkpt lat="42.5478967" lon="2.91507"><ele>45.333333333333336</ele><time>2026-04-08T13:28:47.917Z</time></trkpt><trkpt lat="42.5478267" lon="2.9148117"><ele>45.66666666666667</ele><time>2026-04-08T13:28:48.918Z</time></trkpt><trkpt lat="42.5477583" lon="2.9145567"><ele>46.0</ele><time>2026-04-08T13:28:49.917Z</time></trkpt><trkpt lat="42.54769" lon="2.9143067"><ele>46.0</ele><time>2026-04-08T13:28:50.918Z</time></trkpt><trkpt lat="42.5476167" lon="2.9140617"><ele>46.0</ele><time>2026-04-08T13:28:51.918Z</time></trkpt><trkpt lat="42.5475433" lon="2.9138217"><ele>46.0</ele><time>2026-04-08T13:28:52.918Z</time></trkpt><trkpt lat="42.54747" lon="2.913585"><ele>45.66666666666667</ele><time>2026-04-08T13:28:53.918Z</time></trkpt><trkpt lat="42.5473933" lon="2.91335"><ele>45.333333333333336</ele><time>2026-04-08T13:28:54.917Z</time></trkpt><trkpt lat="42.5473167" lon="2.9131183"><ele>45.0</ele><time>2026-04-08T13:28:55.917Z</time></trkpt><trkpt lat="42.547235" lon="2.9128917"><ele>45.0</ele><time>2026-04-08T13:28:56.918Z</time></trkpt><trkpt lat="42.54715" lon="2.91267"><ele>45.0</ele><time>2026-04-08T13:28:57.918Z</time></trkpt><trkpt lat="42.5470633" lon="2.9124483"><ele>45.0</ele><time>2026-04-08T13:28:58.918Z</time></trkpt><trkpt lat="42.54698" lon="2.9122233"><ele>45.0</ele><time>2026-04-08T13:28:59.918Z</time></trkpt><trkpt lat="42.5469017" lon="2.911995"><ele>45.0</ele><time>2026-04-08T13:29:00.918Z</time></trkpt><trkpt lat="42.54682" lon="2.9117683"><ele>45.0</ele><time>2026-04-08T13:29:01.918Z</time></trkpt><trkpt lat="42.5467367" lon="2.911545"><ele>45.0</ele><time>2026-04-08T13:29:02.918Z</time></trkpt><trkpt lat="42.54665" lon="2.9113217"><ele>45.0</ele><time>2026-04-08T13:29:03.918Z</time></trkpt><trkpt lat="42.5465617" lon="2.9110967"><ele>45.0</ele><time>2026-04-08T13:29:04.918Z</time></trkpt><trkpt lat="42.5464717" lon="2.9108733"><ele>45.333333333333336</ele><time>2026-04-08T13:29:05.917Z</time></trkpt><trkpt lat="42.546385" lon="2.9106517"><ele>45.66666666666667</ele><time>2026-04-08T13:29:06.918Z</time></trkpt><trkpt lat="42.5462983" lon="2.9104267"><ele>46.0</ele><time>2026-04-08T13:29:07.918Z</time></trkpt><trkpt lat="42.5462117" lon="2.9102017"><ele>46.0</ele><time>2026-04-08T13:29:08.918Z</time></trkpt><trkpt lat="42.5461217" lon="2.9099767"><ele>46.0</ele><time>2026-04-08T13:29:09.917Z</time></trkpt><trkpt lat="42.5460367" lon="2.9097483"><ele>46.0</ele><time>2026-04-08T13:29:10.918Z</time></trkpt><trkpt lat="42.5459467" lon="2.9095233"><ele>46.0</ele><time>2026-04-08T13:29:11.918Z</time></trkpt><trkpt lat="42.5458567" lon="2.909295"><ele>46.0</ele><time>2026-04-08T13:29:12.918Z</time></trkpt><trkpt lat="42.545765" lon="2.9090667"><ele>46.0</ele><time>2026-04-08T13:29:13.918Z</time></trkpt><trkpt lat="42.54567" lon="2.9088417"><ele>46.0</ele><time>2026-04-08T13:29:14.918Z</time></trkpt><trkpt lat="42.5455767" lon="2.90861"><ele>46.0</ele><time>2026-04-08T13:29:15.917Z</time></trkpt><trkpt lat="42.5454833" lon="2.90838"><ele>46.0</ele><time>2026-04-08T13:29:16.918Z</time></trkpt><trkpt lat="42.5453883" lon="2.90815"><ele>46.333333333333336</ele><time>2026-04-08T13:29:17.918Z</time></trkpt><trkpt lat="42.545295" lon="2.907915"><ele>46.666666666666664</ele><time>2026-04-08T13:29:18.918Z</time></trkpt><trkpt lat="42.5452017" lon="2.9076817"><ele>47.0</ele><time>2026-04-08T13:29:19.918Z</time></trkpt><trkpt lat="42.5451117" lon="2.9074433"><ele>47.33333333333333</ele><time>2026-04-08T13:29:20.917Z</time></trkpt><trkpt lat="42.5450183" lon="2.9072067"><ele>47.666666666666664</ele><time>2026-04-08T13:29:21.918Z</time></trkpt><trkpt lat="42.5449233" lon="2.9069733"><ele>48.0</ele><time>2026-04-08T13:29:22.918Z</time></trkpt><trkpt lat="42.5448317" lon="2.90674"><ele>48.66666666666667</ele><time>2026-04-08T13:29:23.918Z</time></trkpt><trkpt lat="42.5447383" lon="2.9065083"><ele>49.333333333333336</ele><time>2026-04-08T13:29:24.917Z</time></trkpt><trkpt lat="42.5446483" lon="2.9062767"><ele>50.0</ele><time>2026-04-08T13:29:25.918Z</time></trkpt><trkpt lat="42.5445617" lon="2.9060433"><ele>50.0</ele><time>2026-04-08T13:29:26.918Z</time></trkpt><trkpt lat="42.544475" lon="2.9058133"><ele>50.0</ele><time>2026-04-08T13:29:27.917Z</time></trkpt><trkpt lat="42.5443833" lon="2.9055883"><ele>50.0</ele><time>2026-04-08T13:29:28.917Z</time></trkpt><trkpt lat="42.5442933" lon="2.9053617"><ele>50.0</ele><time>2026-04-08T13:29:29.917Z</time></trkpt><trkpt lat="42.5442" lon="2.9051367"><ele>50.0</ele><time>2026-04-08T13:29:30.918Z</time></trkpt><trkpt lat="42.5441067" lon="2.9049117"><ele>50.0</ele><time>2026-04-08T13:29:31.918Z</time></trkpt><trkpt lat="42.5440117" lon="2.904685"><ele>50.0</ele><time>2026-04-08T13:29:32.918Z</time></trkpt><trkpt lat="42.54392" lon="2.9044533"><ele>50.0</ele><time>2026-04-08T13:29:33.917Z</time></trkpt><trkpt lat="42.5438333" lon="2.90422"><ele>50.0</ele><time>2026-04-08T13:29:34.918Z</time></trkpt><trkpt lat="42.54374" lon="2.9039867"><ele>50.0</ele><time>2026-04-08T13:29:35.918Z</time></trkpt><trkpt lat="42.5436483" lon="2.9037517"><ele>50.0</ele><time>2026-04-08T13:29:36.918Z</time></trkpt><trkpt lat="42.5435583" lon="2.90352"><ele>50.0</ele><time>2026-04-08T13:29:37.919Z</time></trkpt><trkpt lat="42.54347" lon="2.9032883"><ele>50.66666666666667</ele><time>2026-04-08T13:29:38.919Z</time></trkpt><trkpt lat="42.5433833" lon="2.903055"><ele>51.33333333333333</ele><time>2026-04-08T13:29:39.919Z</time></trkpt><trkpt lat="42.5433017" lon="2.902815"><ele>52.0</ele><time>2026-04-08T13:29:40.919Z</time></trkpt><trkpt lat="42.543225" lon="2.90257"><ele>52.0</ele><time>2026-04-08T13:29:41.919Z</time></trkpt><trkpt lat="42.5431467" lon="2.9023267"><ele>52.0</ele><time>2026-04-08T13:29:42.919Z</time></trkpt><trkpt lat="42.54307" lon="2.90208"><ele>52.0</ele><time>2026-04-08T13:29:43.919Z</time></trkpt><trkpt lat="42.5429917" lon="2.9018333"><ele>52.0</ele><time>2026-04-08T13:29:44.919Z</time></trkpt><trkpt lat="42.5429217" lon="2.90158"><ele>52.0</ele><time>2026-04-08T13:29:45.919Z</time></trkpt><trkpt lat="42.542855" lon="2.9013267"><ele>52.0</ele><time>2026-04-08T13:29:46.919Z</time></trkpt><trkpt lat="42.5427933" lon="2.9010717"><ele>53.0</ele><time>2026-04-08T13:29:47.919Z</time></trkpt><trkpt lat="42.5427367" lon="2.9008183"><ele>54.0</ele><time>2026-04-08T13:29:48.919Z</time></trkpt><trkpt lat="42.5426817" lon="2.9005683"><ele>55.0</ele><time>2026-04-08T13:29:49.919Z</time></trkpt><trkpt lat="42.54263" lon="2.9003167"><ele>55.33333333333333</ele><time>2026-04-08T13:29:50.919Z</time></trkpt><trkpt lat="42.5425833" lon="2.9000633"><ele>55.66666666666667</ele><time>2026-04-08T13:29:51.919Z</time></trkpt><trkpt lat="42.542535" lon="2.8998117"><ele>56.0</ele><time>2026-04-08T13:29:52.919Z</time></trkpt><trkpt lat="42.5424983" lon="2.899555"><ele>56.0</ele><time>2026-04-08T13:29:53.919Z</time></trkpt><trkpt lat="42.5424633" lon="2.8992967"><ele>56.0</ele><time>2026-04-08T13:29:54.919Z</time></trkpt><trkpt lat="42.5424333" lon="2.8990383"><ele>56.0</ele><time>2026-04-08T13:29:55.919Z</time></trkpt><trkpt lat="42.5424" lon="2.89878"><ele>56.0</ele><time>2026-04-08T13:29:56.919Z</time></trkpt><trkpt lat="42.5423717" lon="2.8985217"><ele>56.0</ele><time>2026-04-08T13:29:57.919Z</time></trkpt><trkpt lat="42.5423483" lon="2.8982567"><ele>56.0</ele><time>2026-04-08T13:29:58.919Z</time></trkpt><trkpt lat="42.542325" lon="2.89799"><ele>55.66666666666667</ele><time>2026-04-08T13:29:59.918Z</time></trkpt><trkpt lat="42.5423067" lon="2.89773"><ele>55.33333333333333</ele><time>2026-04-08T13:30:00.919Z</time></trkpt><trkpt lat="42.5422917" lon="2.8974667"><ele>55.0</ele><time>2026-04-08T13:30:01.918Z</time></trkpt><trkpt lat="42.5422783" lon="2.8971983"><ele>55.33333333333333</ele><time>2026-04-08T13:30:02.919Z</time></trkpt><trkpt lat="42.5422717" lon="2.8969317"><ele>55.66666666666667</ele><time>2026-04-08T13:30:03.918Z</time></trkpt><trkpt lat="42.5422617" lon="2.8966633"><ele>56.0</ele><time>2026-04-08T13:30:04.919Z</time></trkpt><trkpt lat="42.5422567" lon="2.8963817"><ele>56.0</ele><time>2026-04-08T13:30:05.919Z</time></trkpt><trkpt lat="42.5422533" lon="2.8961033"><ele>56.0</ele><time>2026-04-08T13:30:06.918Z</time></trkpt><trkpt lat="42.54225" lon="2.8958183"><ele>56.0</ele><time>2026-04-08T13:30:07.918Z</time></trkpt><trkpt lat="42.5422433" lon="2.89553"><ele>56.333333333333336</ele><time>2026-04-08T13:30:08.918Z</time></trkpt><trkpt lat="42.5422383" lon="2.89524"><ele>56.66666666666667</ele><time>2026-04-08T13:30:09.918Z</time></trkpt><trkpt lat="42.5422283" lon="2.8949483"><ele>57.0</ele><time>2026-04-08T13:30:10.919Z</time></trkpt><trkpt lat="42.5422133" lon="2.8946567"><ele>57.0</ele><time>2026-04-08T13:30:11.919Z</time></trkpt><trkpt lat="42.5421983" lon="2.8943667"><ele>57.0</ele><time>2026-04-08T13:30:12.919Z</time></trkpt><trkpt lat="42.5421783" lon="2.894075"><ele>57.0</ele><time>2026-04-08T13:30:13.919Z</time></trkpt><trkpt lat="42.5421533" lon="2.8937783"><ele>56.33333333333333</ele><time>2026-04-08T13:30:14.919Z</time></trkpt><trkpt lat="42.5421283" lon="2.8934783"><ele>55.666666666666664</ele><time>2026-04-08T13:30:15.918Z</time></trkpt><trkpt lat="42.5420983" lon="2.8931833"><ele>55.0</ele><time>2026-04-08T13:30:16.919Z</time></trkpt><trkpt lat="42.5420617" lon="2.8928833"><ele>57.5</ele><time>2026-04-08T13:30:17.919Z</time></trkpt><trkpt lat="42.5420217" lon="2.8925817"><ele>60.0</ele><time>2026-04-08T13:30:18.919Z</time></trkpt><trkpt lat="42.5419767" lon="2.8922817"><ele>60.0</ele><time>2026-04-08T13:30:19.918Z</time></trkpt><trkpt lat="42.5419283" lon="2.8919733"><ele>60.0</ele><time>2026-04-08T13:30:20.919Z</time></trkpt><trkpt lat="42.5418733" lon="2.89166"><ele>59.5</ele><time>2026-04-08T13:30:21.919Z</time></trkpt><trkpt lat="42.541815" lon="2.89135"><ele>59.0</ele><time>2026-04-08T13:30:22.919Z</time></trkpt><trkpt lat="42.5417533" lon="2.8910417"><ele>58.0</ele><time>2026-04-08T13:30:23.919Z</time></trkpt><trkpt lat="42.541685" lon="2.89073"><ele>57.0</ele><time>2026-04-08T13:30:24.919Z</time></trkpt><trkpt lat="42.54161" lon="2.890415"><ele>57.0</ele><time>2026-04-08T13:30:25.919Z</time></trkpt><trkpt lat="42.5415283" lon="2.8901033"><ele>57.0</ele><time>2026-04-08T13:30:26.919Z</time></trkpt><trkpt lat="42.54144" lon="2.8897867"><ele>57.0</ele><time>2026-04-08T13:30:27.919Z</time></trkpt><trkpt lat="42.541345" lon="2.8894733"><ele>57.0</ele><time>2026-04-08T13:30:28.919Z</time></trkpt><trkpt lat="42.5412467" lon="2.889165"><ele>58.0</ele><time>2026-04-08T13:30:29.919Z</time></trkpt><trkpt lat="42.5411433" lon="2.8888633"><ele>59.0</ele><time>2026-04-08T13:30:30.919Z</time></trkpt><trkpt lat="42.5410433" lon="2.8885567"><ele>57.5</ele><time>2026-04-08T13:30:31.919Z</time></trkpt><trkpt lat="42.54095" lon="2.8882517"><ele>56.0</ele><time>2026-04-08T13:30:32.919Z</time></trkpt><trkpt lat="42.5408533" lon="2.887945"><ele>56.0</ele><time>2026-04-08T13:30:33.919Z</time></trkpt><trkpt lat="42.5407633" lon="2.8876283"><ele>56.0</ele><time>2026-04-08T13:30:34.919Z</time></trkpt><trkpt lat="42.5406717" lon="2.887305"><ele>56.5</ele><time>2026-04-08T13:30:35.919Z</time></trkpt><trkpt lat="42.54057" lon="2.8869767"><ele>57.0</ele><time>2026-04-08T13:30:36.919Z</time></trkpt><trkpt lat="42.5404683" lon="2.8866333"><ele>56.0</ele><time>2026-04-08T13:30:37.918Z</time></trkpt><trkpt lat="42.5403617" lon="2.886285"><ele>55.0</ele><time>2026-04-08T13:30:38.919Z</time></trkpt><trkpt lat="42.54025" lon="2.88593"><ele>55.5</ele><time>2026-04-08T13:30:39.919Z</time></trkpt><trkpt lat="42.5401383" lon="2.8855683"><ele>56.0</ele><time>2026-04-08T13:30:40.919Z</time></trkpt><trkpt lat="42.5400233" lon="2.8852017"><ele>56.5</ele><time>2026-04-08T13:30:41.919Z</time></trkpt><trkpt lat="42.5399117" lon="2.8848367"><ele>57.0</ele><time>2026-04-08T13:30:42.918Z</time></trkpt><trkpt lat="42.5398033" lon="2.8844817"><ele>57.5</ele><time>2026-04-08T13:30:43.919Z</time></trkpt><trkpt lat="42.5396933" lon="2.8841333"><ele>58.0</ele><time>2026-04-08T13:30:44.919Z</time></trkpt><trkpt lat="42.5395867" lon="2.88379"><ele>58.0</ele><time>2026-04-08T13:30:45.918Z</time></trkpt><trkpt lat="42.53948" lon="2.88345"><ele>58.0</ele><time>2026-04-08T13:30:46.918Z</time></trkpt><trkpt lat="42.5393733" lon="2.88311"><ele>58.0</ele><time>2026-04-08T13:30:47.919Z</time></trkpt><trkpt lat="42.539265" lon="2.8827667"><ele>58.0</ele><time>2026-04-08T13:30:48.919Z</time></trkpt><trkpt lat="42.5391567" lon="2.88242"><ele>59.0</ele><time>2026-04-08T13:30:49.919Z</time></trkpt><trkpt lat="42.5390467" lon="2.8820683"><ele>60.0</ele><time>2026-04-08T13:30:50.918Z</time></trkpt><trkpt lat="42.5389383" lon="2.8817183"><ele>60.5</ele><time>2026-04-08T13:30:51.919Z</time></trkpt><trkpt lat="42.53883" lon="2.8813767"><ele>61.0</ele><time>2026-04-08T13:30:52.919Z</time></trkpt><trkpt lat="42.53873" lon="2.8810333"><ele>61.0</ele><time>2026-04-08T13:30:53.918Z</time></trkpt><trkpt lat="42.5386267" lon="2.8806883"><ele>61.0</ele><time>2026-04-08T13:30:54.919Z</time></trkpt><trkpt lat="42.5385217" lon="2.8803433"><ele>61.5</ele><time>2026-04-08T13:30:55.919Z</time></trkpt><trkpt lat="42.538415" lon="2.8799933"><ele>62.0</ele><time>2026-04-08T13:30:56.918Z</time></trkpt><trkpt lat="42.53831" lon="2.8796483"><ele>62.0</ele><time>2026-04-08T13:30:57.918Z</time></trkpt><trkpt lat="42.5382067" lon="2.8793117"><ele>62.0</ele><time>2026-04-08T13:30:58.919Z</time></trkpt><trkpt lat="42.538105" lon="2.8789833"><ele>62.0</ele><time>2026-04-08T13:30:59.919Z</time></trkpt><trkpt lat="42.538" lon="2.87866"><ele>62.0</ele><time>2026-04-08T13:31:00.919Z</time></trkpt><trkpt lat="42.5378983" lon="2.8783417"><ele>63.0</ele><time>2026-04-08T13:31:01.919Z</time></trkpt><trkpt lat="42.5378033" lon="2.8780367"><ele>64.0</ele><time>2026-04-08T13:31:02.919Z</time></trkpt><trkpt lat="42.5377167" lon="2.87774"><ele>63.666666666666664</ele><time>2026-04-08T13:31:03.919Z</time></trkpt><trkpt lat="42.53764" lon="2.8774533"><ele>63.33333333333333</ele><time>2026-04-08T13:31:04.919Z</time></trkpt><trkpt lat="42.5375667" lon="2.8771767"><ele>63.0</ele><time>2026-04-08T13:31:05.918Z</time></trkpt><trkpt lat="42.5375017" lon="2.876905"><ele>64.0</ele><time>2026-04-08T13:31:06.918Z</time></trkpt><trkpt lat="42.5374383" lon="2.8766333"><ele>65.0</ele><time>2026-04-08T13:31:07.919Z</time></trkpt><trkpt lat="42.5373817" lon="2.8763667"><ele>66.0</ele><time>2026-04-08T13:31:08.918Z</time></trkpt><trkpt lat="42.5373267" lon="2.8761083"><ele>65.66666666666667</ele><time>2026-04-08T13:31:09.918Z</time></trkpt><trkpt lat="42.5372717" lon="2.87585"><ele>65.33333333333334</ele><time>2026-04-08T13:31:10.919Z</time></trkpt><trkpt lat="42.537215" lon="2.8755833"><ele>65.0</ele><time>2026-04-08T13:31:11.919Z</time></trkpt><trkpt lat="42.5371567" lon="2.875315"><ele>65.0</ele><time>2026-04-08T13:31:12.919Z</time></trkpt><trkpt lat="42.5370983" lon="2.87505"><ele>65.0</ele><time>2026-04-08T13:31:13.919Z</time></trkpt><trkpt lat="42.53704" lon="2.8747817"><ele>65.0</ele><time>2026-04-08T13:31:14.918Z</time></trkpt><trkpt lat="42.5369833" lon="2.874515"><ele>64.66666666666667</ele><time>2026-04-08T13:31:15.919Z</time></trkpt><trkpt lat="42.5369283" lon="2.8742533"><ele>64.33333333333333</ele><time>2026-04-08T13:31:16.919Z</time></trkpt><trkpt lat="42.5368733" lon="2.8740017"><ele>64.0</ele><time>2026-04-08T13:31:17.918Z</time></trkpt><trkpt lat="42.5368233" lon="2.873755"><ele>64.0</ele><time>2026-04-08T13:31:18.919Z</time></trkpt><trkpt lat="42.53677" lon="2.87351"><ele>64.0</ele><time>2026-04-08T13:31:19.918Z</time></trkpt><trkpt lat="42.5367183" lon="2.8732667"><ele>64.0</ele><time>2026-04-08T13:31:20.919Z</time></trkpt><trkpt lat="42.53667" lon="2.8730233"><ele>64.0</ele><time>2026-04-08T13:31:21.919Z</time></trkpt><trkpt lat="42.5366183" lon="2.87278"><ele>64.0</ele><time>2026-04-08T13:31:22.919Z</time></trkpt><trkpt lat="42.5365667" lon="2.872535"><ele>64.0</ele><time>2026-04-08T13:31:23.919Z</time></trkpt><trkpt lat="42.5365133" lon="2.87229"><ele>64.66666666666666</ele><time>2026-04-08T13:31:24.918Z</time></trkpt><trkpt lat="42.5364633" lon="2.8720467"><ele>65.33333333333333</ele><time>2026-04-08T13:31:25.919Z</time></trkpt><trkpt lat="42.5364083" lon="2.8717967"><ele>66.0</ele><time>2026-04-08T13:31:26.919Z</time></trkpt><trkpt lat="42.536355" lon="2.8715483"><ele>66.0</ele><time>2026-04-08T13:31:27.919Z</time></trkpt><trkpt lat="42.5363" lon="2.8712933"><ele>66.0</ele><time>2026-04-08T13:31:28.919Z</time></trkpt><trkpt lat="42.5362467" lon="2.8710317"><ele>66.0</ele><time>2026-04-08T13:31:29.919Z</time></trkpt><trkpt lat="42.5361917" lon="2.870765"><ele>66.0</ele><time>2026-04-08T13:31:30.918Z</time></trkpt><trkpt lat="42.5361333" lon="2.870495"><ele>66.0</ele><time>2026-04-08T13:31:31.919Z</time></trkpt><trkpt lat="42.5360717" lon="2.870225"><ele>66.0</ele><time>2026-04-08T13:31:32.918Z</time></trkpt><trkpt lat="42.53601" lon="2.869955"><ele>66.66666666666667</ele><time>2026-04-08T13:31:33.919Z</time></trkpt><trkpt lat="42.5359467" lon="2.8696817"><ele>67.33333333333334</ele><time>2026-04-08T13:31:34.919Z</time></trkpt><trkpt lat="42.5358833" lon="2.869415"><ele>68.0</ele><time>2026-04-08T13:31:35.918Z</time></trkpt><trkpt lat="42.5358183" lon="2.8691567"><ele>68.0</ele><time>2026-04-08T13:31:36.918Z</time></trkpt><trkpt lat="42.53575" lon="2.868895"><ele>68.0</ele><time>2026-04-08T13:31:37.918Z</time></trkpt><trkpt lat="42.53568" lon="2.8686333"><ele>68.0</ele><time>2026-04-08T13:31:38.918Z</time></trkpt><trkpt lat="42.535605" lon="2.868375"><ele>68.66666666666667</ele><time>2026-04-08T13:31:39.918Z</time></trkpt><trkpt lat="42.5355267" lon="2.8681233"><ele>69.33333333333333</ele><time>2026-04-08T13:31:40.917Z</time></trkpt><trkpt lat="42.5354417" lon="2.867875"><ele>70.0</ele><time>2026-04-08T13:31:41.918Z</time></trkpt><trkpt lat="42.5353533" lon="2.8676267"><ele>70.66666666666666</ele><time>2026-04-08T13:31:42.917Z</time></trkpt><trkpt lat="42.5352583" lon="2.8673933"><ele>71.33333333333333</ele><time>2026-04-08T13:31:43.918Z</time></trkpt><trkpt lat="42.535165" lon="2.8671633"><ele>72.0</ele><time>2026-04-08T13:31:44.918Z</time></trkpt><trkpt lat="42.5350717" lon="2.8669367"><ele>71.33333333333333</ele><time>2026-04-08T13:31:45.918Z</time></trkpt><trkpt lat="42.5349817" lon="2.8667117"><ele>70.66666666666666</ele><time>2026-04-08T13:31:46.918Z</time></trkpt><trkpt lat="42.534885" lon="2.8664883"><ele>70.0</ele><time>2026-04-08T13:31:47.918Z</time></trkpt><trkpt lat="42.534785" lon="2.8662683"><ele>70.0</ele><time>2026-04-08T13:31:48.918Z</time></trkpt><trkpt lat="42.53469" lon="2.8660517"><ele>70.0</ele><time>2026-04-08T13:31:49.918Z</time></trkpt><trkpt lat="42.5345933" lon="2.865835"><ele>70.0</ele><time>2026-04-08T13:31:50.918Z</time></trkpt><trkpt lat="42.534495" lon="2.8656217"><ele>70.0</ele><time>2026-04-08T13:31:51.918Z</time></trkpt><trkpt lat="42.5343933" lon="2.8654033"><ele>70.0</ele><time>2026-04-08T13:31:52.918Z</time></trkpt><trkpt lat="42.5342933" lon="2.8651867"><ele>70.0</ele><time>2026-04-08T13:31:53.917Z</time></trkpt><trkpt lat="42.534195" lon="2.86497"><ele>69.66666666666666</ele><time>2026-04-08T13:31:54.918Z</time></trkpt><trkpt lat="42.5340933" lon="2.86475"><ele>69.33333333333333</ele><time>2026-04-08T13:31:55.918Z</time></trkpt><trkpt lat="42.5339917" lon="2.8645317"><ele>69.0</ele><time>2026-04-08T13:31:56.917Z</time></trkpt><trkpt lat="42.53389" lon="2.8643133"><ele>69.33333333333333</ele><time>2026-04-08T13:31:57.918Z</time></trkpt><trkpt lat="42.5337917" lon="2.8640917"><ele>69.66666666666666</ele><time>2026-04-08T13:31:58.918Z</time></trkpt><trkpt lat="42.5336933" lon="2.8638717"><ele>70.0</ele><time>2026-04-08T13:31:59.918Z</time></trkpt><trkpt lat="42.533595" lon="2.8636517"><ele>70.66666666666666</ele><time>2026-04-08T13:32:00.918Z</time></trkpt><trkpt lat="42.5334933" lon="2.863435"><ele>71.33333333333333</ele><time>2026-04-08T13:32:01.918Z</time></trkpt><trkpt lat="42.5333917" lon="2.8632133"><ele>72.0</ele><time>2026-04-08T13:32:02.918Z</time></trkpt><trkpt lat="42.5332917" lon="2.862995"><ele>72.0</ele><time>2026-04-08T13:32:03.918Z</time></trkpt><trkpt lat="42.5331883" lon="2.86278"><ele>72.0</ele><time>2026-04-08T13:32:04.918Z</time></trkpt><trkpt lat="42.5330867" lon="2.8625633"><ele>72.0</ele><time>2026-04-08T13:32:05.917Z</time></trkpt><trkpt lat="42.53298" lon="2.8623517"><ele>71.66666666666667</ele><time>2026-04-08T13:32:06.918Z</time></trkpt><trkpt lat="42.5328683" lon="2.862145"><ele>71.33333333333334</ele><time>2026-04-08T13:32:07.917Z</time></trkpt><trkpt lat="42.532755" lon="2.8619367"><ele>71.0</ele><time>2026-04-08T13:32:08.918Z</time></trkpt><trkpt lat="42.5326417" lon="2.8617383"><ele>71.0</ele><time>2026-04-08T13:32:09.918Z</time></trkpt><trkpt lat="42.5325267" lon="2.8615483"><ele>71.0</ele><time>2026-04-08T13:32:10.917Z</time></trkpt><trkpt lat="42.532415" lon="2.86136"><ele>71.0</ele><time>2026-04-08T13:32:11.917Z</time></trkpt><trkpt lat="42.5323" lon="2.8611783"><ele>71.0</ele><time>2026-04-08T13:32:12.918Z</time></trkpt><trkpt lat="42.5321833" lon="2.8609933"><ele>71.0</ele><time>2026-04-08T13:32:13.918Z</time></trkpt><trkpt lat="42.5320667" lon="2.8608117"><ele>71.0</ele><time>2026-04-08T13:32:14.918Z</time></trkpt><trkpt lat="42.53195" lon="2.8606317"><ele>71.33333333333334</ele><time>2026-04-08T13:32:15.918Z</time></trkpt><trkpt lat="42.53183" lon="2.8604467"><ele>71.66666666666667</ele><time>2026-04-08T13:32:16.918Z</time></trkpt><trkpt lat="42.53171" lon="2.860265"><ele>72.0</ele><time>2026-04-08T13:32:17.918Z</time></trkpt><trkpt lat="42.531585" lon="2.8600817"><ele>71.33333333333333</ele><time>2026-04-08T13:32:18.917Z</time></trkpt><trkpt lat="42.5314633" lon="2.8599"><ele>70.66666666666666</ele><time>2026-04-08T13:32:19.917Z</time></trkpt><trkpt lat="42.5313367" lon="2.8597133"><ele>70.0</ele><time>2026-04-08T13:32:20.917Z</time></trkpt><trkpt lat="42.531205" lon="2.8595283"><ele>69.33333333333333</ele><time>2026-04-08T13:32:21.917Z</time></trkpt><trkpt lat="42.531075" lon="2.8593433"><ele>68.66666666666667</ele><time>2026-04-08T13:32:22.917Z</time></trkpt><trkpt lat="42.5309383" lon="2.859165"><ele>68.0</ele><time>2026-04-08T13:32:23.918Z</time></trkpt><trkpt lat="42.5308017" lon="2.8589883"><ele>68.0</ele><time>2026-04-08T13:32:24.918Z</time></trkpt><trkpt lat="42.53067" lon="2.8588083"><ele>68.0</ele><time>2026-04-08T13:32:25.918Z</time></trkpt><trkpt lat="42.5305417" lon="2.8586267"><ele>68.0</ele><time>2026-04-08T13:32:26.918Z</time></trkpt><trkpt lat="42.5302867" lon="2.858265"><ele>68.66666666666667</ele><time>2026-04-08T13:32:28.918Z</time></trkpt><trkpt lat="42.5301633" lon="2.8580833"><ele>69.33333333333333</ele><time>2026-04-08T13:32:29.917Z</time></trkpt><trkpt lat="42.5300383" lon="2.857905"><ele>70.0</ele><time>2026-04-08T13:32:30.917Z</time></trkpt><trkpt lat="42.5299117" lon="2.8577317"><ele>70.0</ele><time>2026-04-08T13:32:31.917Z</time></trkpt><trkpt lat="42.5297833" lon="2.8575617"><ele>70.0</ele><time>2026-04-08T13:32:32.918Z</time></trkpt><trkpt lat="42.52966" lon="2.8573917"><ele>70.0</ele><time>2026-04-08T13:32:33.918Z</time></trkpt><trkpt lat="42.5295367" lon="2.8572317"><ele>70.66666666666666</ele><time>2026-04-08T13:32:34.917Z</time></trkpt><trkpt lat="42.5294117" lon="2.8570483"><ele>71.33333333333333</ele><time>2026-04-08T13:32:35.917Z</time></trkpt><trkpt lat="42.529295" lon="2.8568767"><ele>72.0</ele><time>2026-04-08T13:32:36.918Z</time></trkpt><trkpt lat="42.5291767" lon="2.8566983"><ele>72.0</ele><time>2026-04-08T13:32:37.918Z</time></trkpt><trkpt lat="42.5290567" lon="2.8565267"><ele>72.0</ele><time>2026-04-08T13:32:38.918Z</time></trkpt><trkpt lat="42.528935" lon="2.8563617"><ele>72.0</ele><time>2026-04-08T13:32:39.917Z</time></trkpt><trkpt lat="42.528815" lon="2.8561983"><ele>72.66666666666667</ele><time>2026-04-08T13:32:40.918Z</time></trkpt><trkpt lat="42.5286933" lon="2.8560367"><ele>73.33333333333334</ele><time>2026-04-08T13:32:41.917Z</time></trkpt><trkpt lat="42.5285717" lon="2.8558783"><ele>74.0</ele><time>2026-04-08T13:32:42.918Z</time></trkpt><trkpt lat="42.5284517" lon="2.8557183"><ele>74.0</ele><time>2026-04-08T13:32:43.917Z</time></trkpt><trkpt lat="42.5283283" lon="2.85556"><ele>74.0</ele><time>2026-04-08T13:32:44.917Z</time></trkpt><trkpt lat="42.5280883" lon="2.8552467"><ele>74.0</ele><time>2026-04-08T13:32:46.918Z</time></trkpt><trkpt lat="42.5279717" lon="2.8550883"><ele>74.0</ele><time>2026-04-08T13:32:47.917Z</time></trkpt><trkpt lat="42.52785" lon="2.8549317"><ele>74.0</ele><time>2026-04-08T13:32:48.918Z</time></trkpt><trkpt lat="42.5277283" lon="2.8547767"><ele>75.66666666666667</ele><time>2026-04-08T13:32:49.918Z</time></trkpt><trkpt lat="42.52761" lon="2.8546183"><ele>77.33333333333333</ele><time>2026-04-08T13:32:50.918Z</time></trkpt><trkpt lat="42.52749" lon="2.8544617"><ele>79.0</ele><time>2026-04-08T13:32:51.918Z</time></trkpt><trkpt lat="42.5273767" lon="2.8543083"><ele>78.66666666666666</ele><time>2026-04-08T13:32:52.918Z</time></trkpt><trkpt lat="42.5272617" lon="2.8541483"><ele>78.33333333333333</ele><time>2026-04-08T13:32:53.918Z</time></trkpt><trkpt lat="42.5271567" lon="2.8539717"><ele>78.0</ele><time>2026-04-08T13:32:54.918Z</time></trkpt><trkpt lat="42.5270417" lon="2.8537933"><ele>78.66666666666667</ele><time>2026-04-08T13:32:55.918Z</time></trkpt><trkpt lat="42.5269267" lon="2.8536133"><ele>79.33333333333334</ele><time>2026-04-08T13:32:56.918Z</time></trkpt><trkpt lat="42.5268167" lon="2.8534317"><ele>80.0</ele><time>2026-04-08T13:32:57.918Z</time></trkpt><trkpt lat="42.5267033" lon="2.8532417"><ele>80.0</ele><time>2026-04-08T13:32:58.918Z</time></trkpt><trkpt lat="42.5265917" lon="2.85305"><ele>80.0</ele><time>2026-04-08T13:32:59.917Z</time></trkpt><trkpt lat="42.5264767" lon="2.8528583"><ele>80.0</ele><time>2026-04-08T13:33:00.918Z</time></trkpt><trkpt lat="42.52636" lon="2.85267"><ele>79.33333333333334</ele><time>2026-04-08T13:33:01.918Z</time></trkpt><trkpt lat="42.5262483" lon="2.8524833"><ele>78.66666666666667</ele><time>2026-04-08T13:33:02.918Z</time></trkpt><trkpt lat="42.5261317" lon="2.852295"><ele>78.0</ele><time>2026-04-08T13:33:03.917Z</time></trkpt><trkpt lat="42.526015" lon="2.852105"><ele>78.0</ele><time>2026-04-08T13:33:04.918Z</time></trkpt><trkpt lat="42.5259" lon="2.8519133"><ele>78.0</ele><time>2026-04-08T13:33:05.918Z</time></trkpt><trkpt lat="42.5257833" lon="2.8517217"><ele>78.0</ele><time>2026-04-08T13:33:06.918Z</time></trkpt><trkpt lat="42.5256667" lon="2.8515317"><ele>77.66666666666667</ele><time>2026-04-08T13:33:07.918Z</time></trkpt><trkpt lat="42.5255517" lon="2.851345"><ele>77.33333333333334</ele><time>2026-04-08T13:33:08.918Z</time></trkpt><trkpt lat="42.5254333" lon="2.85116"><ele>77.0</ele><time>2026-04-08T13:33:09.918Z</time></trkpt><trkpt lat="42.5253167" lon="2.850975"><ele>76.0</ele><time>2026-04-08T13:33:10.918Z</time></trkpt><trkpt lat="42.5252" lon="2.85079"><ele>75.0</ele><time>2026-04-08T13:33:11.918Z</time></trkpt><trkpt lat="42.525085" lon="2.8506067"><ele>74.0</ele><time>2026-04-08T13:33:12.917Z</time></trkpt><trkpt lat="42.5249717" lon="2.850425"><ele>74.0</ele><time>2026-04-08T13:33:13.918Z</time></trkpt><trkpt lat="42.5248567" lon="2.8502417"><ele>74.0</ele><time>2026-04-08T13:33:14.918Z</time></trkpt><trkpt lat="42.5247433" lon="2.85006"><ele>74.0</ele><time>2026-04-08T13:33:15.918Z</time></trkpt><trkpt lat="42.5246317" lon="2.84988"><ele>74.66666666666667</ele><time>2026-04-08T13:33:16.917Z</time></trkpt><trkpt lat="42.52452" lon="2.8496967"><ele>75.33333333333333</ele><time>2026-04-08T13:33:17.918Z</time></trkpt><trkpt lat="42.5244133" lon="2.8495167"><ele>76.0</ele><time>2026-04-08T13:33:18.917Z</time></trkpt><trkpt lat="42.5243033" lon="2.8493417"><ele>77.0</ele><time>2026-04-08T13:33:19.918Z</time></trkpt><trkpt lat="42.524195" lon="2.84916"><ele>78.0</ele><time>2026-04-08T13:33:20.918Z</time></trkpt><trkpt lat="42.5240817" lon="2.84898"><ele>79.0</ele><time>2026-04-08T13:33:21.918Z</time></trkpt><trkpt lat="42.5239683" lon="2.8488033"><ele>79.0</ele><time>2026-04-08T13:33:22.918Z</time></trkpt><trkpt lat="42.52386" lon="2.84863"><ele>79.0</ele><time>2026-04-08T13:33:23.917Z</time></trkpt><trkpt lat="42.52375" lon="2.8484583"><ele>79.0</ele><time>2026-04-08T13:33:24.917Z</time></trkpt><trkpt lat="42.52364" lon="2.84829"><ele>79.33333333333333</ele><time>2026-04-08T13:33:25.917Z</time></trkpt><trkpt lat="42.5235283" lon="2.8481233"><ele>79.66666666666667</ele><time>2026-04-08T13:33:26.918Z</time></trkpt><trkpt lat="42.5234167" lon="2.8479533"><ele>80.0</ele><time>2026-04-08T13:33:27.917Z</time></trkpt><trkpt lat="42.523305" lon="2.8477817"><ele>80.0</ele><time>2026-04-08T13:33:28.917Z</time></trkpt><trkpt lat="42.5231967" lon="2.8476133"><ele>80.0</ele><time>2026-04-08T13:33:29.917Z</time></trkpt><trkpt lat="42.5230917" lon="2.847445"><ele>80.0</ele><time>2026-04-08T13:33:30.917Z</time></trkpt><trkpt lat="42.5229833" lon="2.8472783"><ele>80.0</ele><time>2026-04-08T13:33:31.918Z</time></trkpt><trkpt lat="42.5228767" lon="2.8471083"><ele>80.0</ele><time>2026-04-08T13:33:32.918Z</time></trkpt><trkpt lat="42.52277" lon="2.84694"><ele>80.0</ele><time>2026-04-08T13:33:33.917Z</time></trkpt><trkpt lat="42.5226617" lon="2.8467733"><ele>80.0</ele><time>2026-04-08T13:33:34.917Z</time></trkpt><trkpt lat="42.522555" lon="2.8466083"><ele>80.0</ele><time>2026-04-08T13:33:35.917Z</time></trkpt><trkpt lat="42.52245" lon="2.8464433"><ele>80.0</ele><time>2026-04-08T13:33:36.917Z</time></trkpt><trkpt lat="42.52225" lon="2.846125"><ele>80.33333333333334</ele><time>2026-04-08T13:33:38.918Z</time></trkpt><trkpt lat="42.5220567" lon="2.845805"><ele>80.66666666666667</ele><time>2026-04-08T13:33:40.919Z</time></trkpt><trkpt lat="42.521965" lon="2.8456617"><ele>81.0</ele><time>2026-04-08T13:33:41.918Z</time></trkpt><trkpt lat="42.521875" lon="2.8455217"><ele>81.0</ele><time>2026-04-08T13:33:42.919Z</time></trkpt><trkpt lat="42.521785" lon="2.8453883"><ele>81.0</ele><time>2026-04-08T13:33:43.918Z</time></trkpt><trkpt lat="42.521695" lon="2.8452533"><ele>81.0</ele><time>2026-04-08T13:33:44.919Z</time></trkpt><trkpt lat="42.5216" lon="2.845105"><ele>81.0</ele><time>2026-04-08T13:33:45.919Z</time></trkpt><trkpt lat="42.5215033" lon="2.8449483"><ele>81.0</ele><time>2026-04-08T13:33:46.919Z</time></trkpt><trkpt lat="42.521295" lon="2.8446217"><ele>81.0</ele><time>2026-04-08T13:33:48.918Z</time></trkpt><trkpt lat="42.521185" lon="2.844455"><ele>81.0</ele><time>2026-04-08T13:33:49.919Z</time></trkpt><trkpt lat="42.5210717" lon="2.8442783"><ele>81.0</ele><time>2026-04-08T13:33:50.918Z</time></trkpt><trkpt lat="42.5208467" lon="2.8439217"><ele>81.0</ele><time>2026-04-08T13:33:52.918Z</time></trkpt><trkpt lat="42.5207317" lon="2.8437433"><ele>81.0</ele><time>2026-04-08T13:33:53.918Z</time></trkpt><trkpt lat="42.5204917" lon="2.8433833"><ele>81.33333333333333</ele><time>2026-04-08T13:33:55.919Z</time></trkpt><trkpt lat="42.52037" lon="2.8432083"><ele>81.66666666666666</ele><time>2026-04-08T13:33:56.919Z</time></trkpt><trkpt lat="42.520245" lon="2.8430383"><ele>82.0</ele><time>2026-04-08T13:33:57.919Z</time></trkpt><trkpt lat="42.5201167" lon="2.8428733"><ele>82.0</ele><time>2026-04-08T13:33:58.919Z</time></trkpt><trkpt lat="42.5199917" lon="2.8427017"><ele>82.0</ele><time>2026-04-08T13:33:59.919Z</time></trkpt><trkpt lat="42.5198667" lon="2.84253"><ele>82.0</ele><time>2026-04-08T13:34:00.919Z</time></trkpt><trkpt lat="42.519745" lon="2.84236"><ele>83.0</ele><time>2026-04-08T13:34:01.918Z</time></trkpt><trkpt lat="42.519625" lon="2.842185"><ele>84.0</ele><time>2026-04-08T13:34:02.919Z</time></trkpt><trkpt lat="42.5194033" lon="2.8418233"><ele>84.33333333333333</ele><time>2026-04-08T13:34:04.919Z</time></trkpt><trkpt lat="42.5193" lon="2.841635"><ele>84.66666666666666</ele><time>2026-04-08T13:34:05.919Z</time></trkpt><trkpt lat="42.5192033" lon="2.84145"><ele>85.0</ele><time>2026-04-08T13:34:06.919Z</time></trkpt><trkpt lat="42.5191033" lon="2.8412583"><ele>85.0</ele><time>2026-04-08T13:34:07.919Z</time></trkpt><trkpt lat="42.5190133" lon="2.8410633"><ele>85.0</ele><time>2026-04-08T13:34:08.919Z</time></trkpt><trkpt lat="42.51893" lon="2.84086"><ele>85.0</ele><time>2026-04-08T13:34:09.918Z</time></trkpt><trkpt lat="42.5188467" lon="2.8406517"><ele>85.0</ele><time>2026-04-08T13:34:10.919Z</time></trkpt><trkpt lat="42.51877" lon="2.8404367"><ele>85.0</ele><time>2026-04-08T13:34:11.919Z</time></trkpt><trkpt lat="42.5187" lon="2.840215"><ele>85.0</ele><time>2026-04-08T13:34:12.919Z</time></trkpt><trkpt lat="42.5186367" lon="2.8399917"><ele>85.33333333333333</ele><time>2026-04-08T13:34:13.919Z</time></trkpt><trkpt lat="42.51858" lon="2.83976"><ele>85.66666666666667</ele><time>2026-04-08T13:34:14.919Z</time></trkpt><trkpt lat="42.5185233" lon="2.8395283"><ele>86.0</ele><time>2026-04-08T13:34:15.919Z</time></trkpt><trkpt lat="42.5184633" lon="2.8392983"><ele>84.33333333333334</ele><time>2026-04-08T13:34:16.919Z</time></trkpt><trkpt lat="42.5183983" lon="2.8390683"><ele>82.66666666666667</ele><time>2026-04-08T13:34:17.918Z</time></trkpt><trkpt lat="42.5183267" lon="2.83884"><ele>81.0</ele><time>2026-04-08T13:34:18.918Z</time></trkpt><trkpt lat="42.5182533" lon="2.83861"><ele>78.66666666666667</ele><time>2026-04-08T13:34:19.919Z</time></trkpt><trkpt lat="42.5181767" lon="2.8383767"><ele>76.33333333333334</ele><time>2026-04-08T13:34:20.919Z</time></trkpt><trkpt lat="42.5180967" lon="2.8381467"><ele>74.0</ele><time>2026-04-08T13:34:21.919Z</time></trkpt><trkpt lat="42.5180183" lon="2.8379117"><ele>74.0</ele><time>2026-04-08T13:34:22.919Z</time></trkpt><trkpt lat="42.5179383" lon="2.83768"><ele>74.0</ele><time>2026-04-08T13:34:23.918Z</time></trkpt><trkpt lat="42.5178567" lon="2.8374517"><ele>74.0</ele><time>2026-04-08T13:34:24.919Z</time></trkpt><trkpt lat="42.5177783" lon="2.8372283"><ele>75.66666666666667</ele><time>2026-04-08T13:34:25.919Z</time></trkpt><trkpt lat="42.5176967" lon="2.8370183"><ele>77.33333333333333</ele><time>2026-04-08T13:34:26.919Z</time></trkpt><trkpt lat="42.5176233" lon="2.8368183"><ele>79.0</ele><time>2026-04-08T13:34:27.918Z</time></trkpt><trkpt lat="42.5175583" lon="2.8366267"><ele>79.0</ele><time>2026-04-08T13:34:28.919Z</time></trkpt><trkpt lat="42.5174983" lon="2.8364367"><ele>79.0</ele><time>2026-04-08T13:34:29.918Z</time></trkpt><trkpt lat="42.5174383" lon="2.8362517"><ele>79.0</ele><time>2026-04-08T13:34:30.919Z</time></trkpt><trkpt lat="42.5173767" lon="2.8360667"><ele>77.0</ele><time>2026-04-08T13:34:31.919Z</time></trkpt><trkpt lat="42.5173183" lon="2.8358767"><ele>75.0</ele><time>2026-04-08T13:34:32.919Z</time></trkpt><trkpt lat="42.5172633" lon="2.835685"><ele>73.0</ele><time>2026-04-08T13:34:33.919Z</time></trkpt><trkpt lat="42.5172083" lon="2.835495"><ele>73.0</ele><time>2026-04-08T13:34:34.919Z</time></trkpt><trkpt lat="42.5171583" lon="2.8353017"><ele>73.0</ele><time>2026-04-08T13:34:35.918Z</time></trkpt><trkpt lat="42.51711" lon="2.8351083"><ele>73.0</ele><time>2026-04-08T13:34:36.918Z</time></trkpt><trkpt lat="42.51706" lon="2.8349217"><ele>73.0</ele><time>2026-04-08T13:34:37.919Z</time></trkpt><trkpt lat="42.5170083" lon="2.834735"><ele>75.0</ele><time>2026-04-08T13:34:38.919Z</time></trkpt><trkpt lat="42.5169567" lon="2.8345567"><ele>77.0</ele><time>2026-04-08T13:34:39.919Z</time></trkpt><trkpt lat="42.51691" lon="2.8343767"><ele>79.0</ele><time>2026-04-08T13:34:40.919Z</time></trkpt><trkpt lat="42.51687" lon="2.8341883"><ele>81.0</ele><time>2026-04-08T13:34:41.918Z</time></trkpt><trkpt lat="42.5168333" lon="2.834"><ele>81.0</ele><time>2026-04-08T13:34:42.919Z</time></trkpt><trkpt lat="42.5168017" lon="2.8338133"><ele>81.0</ele><time>2026-04-08T13:34:43.919Z</time></trkpt><trkpt lat="42.51678" lon="2.833625"><ele>81.0</ele><time>2026-04-08T13:34:44.918Z</time></trkpt><trkpt lat="42.51677" lon="2.8334283"><ele>81.0</ele><time>2026-04-08T13:34:45.918Z</time></trkpt><trkpt lat="42.516775" lon="2.8332367"><ele>80.5</ele><time>2026-04-08T13:34:46.919Z</time></trkpt><trkpt lat="42.5167833" lon="2.83305"><ele>80.0</ele><time>2026-04-08T13:34:47.918Z</time></trkpt><trkpt lat="42.516795" lon="2.8328633"><ele>79.5</ele><time>2026-04-08T13:34:48.919Z</time></trkpt><trkpt lat="42.51681" lon="2.8326717"><ele>79.0</ele><time>2026-04-08T13:34:49.919Z</time></trkpt><trkpt lat="42.5168367" lon="2.8324817"><ele>78.75</ele><time>2026-04-08T13:34:50.919Z</time></trkpt><trkpt lat="42.5168717" lon="2.8322983"><ele>78.5</ele><time>2026-04-08T13:34:51.918Z</time></trkpt><trkpt lat="42.5169133" lon="2.83211"><ele>78.25</ele><time>2026-04-08T13:34:52.918Z</time></trkpt><trkpt lat="42.5169633" lon="2.8319267"><ele>78.0</ele><time>2026-04-08T13:34:53.919Z</time></trkpt><trkpt lat="42.5170183" lon="2.8317433"><ele>77.25</ele><time>2026-04-08T13:34:54.919Z</time></trkpt><trkpt lat="42.5170733" lon="2.8315633"><ele>76.5</ele><time>2026-04-08T13:34:55.918Z</time></trkpt><trkpt lat="42.517125" lon="2.8313883"><ele>75.75</ele><time>2026-04-08T13:34:56.919Z</time></trkpt><trkpt lat="42.517175" lon="2.8312167"><ele>75.0</ele><time>2026-04-08T13:34:57.919Z</time></trkpt><trkpt lat="42.5172217" lon="2.8310533"><ele>75.0</ele><time>2026-04-08T13:34:58.918Z</time></trkpt><trkpt lat="42.5172667" lon="2.8308933"><ele>75.0</ele><time>2026-04-08T13:34:59.918Z</time></trkpt><trkpt lat="42.5173083" lon="2.83076"><ele>75.0</ele><time>2026-04-08T13:35:00.918Z</time></trkpt><trkpt lat="42.5173533" lon="2.8306483"><ele>75.0</ele><time>2026-04-08T13:35:01.918Z</time></trkpt><trkpt lat="42.5174083" lon="2.830555"><ele>75.0</ele><time>2026-04-08T13:35:02.919Z</time></trkpt><trkpt lat="42.5174783" lon="2.830475"><ele>75.0</ele><time>2026-04-08T13:35:03.919Z</time></trkpt><trkpt lat="42.5175617" lon="2.8304117"><ele>75.0</ele><time>2026-04-08T13:35:04.919Z</time></trkpt><trkpt lat="42.51765" lon="2.8303867"><ele>75.0</ele><time>2026-04-08T13:35:05.918Z</time></trkpt><trkpt lat="42.5177367" lon="2.830405"><ele>75.0</ele><time>2026-04-08T13:35:06.919Z</time></trkpt><trkpt lat="42.5178267" lon="2.8304567"><ele>75.0</ele><time>2026-04-08T13:35:07.919Z</time></trkpt><trkpt lat="42.5179033" lon="2.830555"><ele>74.8</ele><time>2026-04-08T13:35:08.919Z</time></trkpt><trkpt lat="42.5179483" lon="2.8306783"><ele>74.6</ele><time>2026-04-08T13:35:09.919Z</time></trkpt><trkpt lat="42.51797" lon="2.8308167"><ele>74.4</ele><time>2026-04-08T13:35:10.919Z</time></trkpt><trkpt lat="42.5179783" lon="2.8309767"><ele>74.2</ele><time>2026-04-08T13:35:11.919Z</time></trkpt><trkpt lat="42.5179867" lon="2.8311367"><ele>74.0</ele><time>2026-04-08T13:35:12.918Z</time></trkpt><trkpt lat="42.5179933" lon="2.8313"><ele>74.0</ele><time>2026-04-08T13:35:13.918Z</time></trkpt><trkpt lat="42.51799" lon="2.831455"><ele>74.0</ele><time>2026-04-08T13:35:14.919Z</time></trkpt><trkpt lat="42.517975" lon="2.8315933"><ele>74.0</ele><time>2026-04-08T13:35:15.919Z</time></trkpt><trkpt lat="42.51794" lon="2.8317167"><ele>74.0</ele><time>2026-04-08T13:35:16.919Z</time></trkpt><trkpt lat="42.5178783" lon="2.8318133"><ele>74.0</ele><time>2026-04-08T13:35:17.919Z</time></trkpt><trkpt lat="42.5177833" lon="2.83188"><ele>74.0</ele><time>2026-04-08T13:35:18.919Z</time></trkpt><trkpt lat="42.5176767" lon="2.8319217"><ele>74.0</ele><time>2026-04-08T13:35:19.919Z</time></trkpt><trkpt lat="42.5175533" lon="2.8319367"><ele>74.0</ele><time>2026-04-08T13:35:20.919Z</time></trkpt><trkpt lat="42.5174167" lon="2.8319217"><ele>74.0</ele><time>2026-04-08T13:35:21.919Z</time></trkpt><trkpt lat="42.5172667" lon="2.831885"><ele>74.0</ele><time>2026-04-08T13:35:22.919Z</time></trkpt><trkpt lat="42.5170983" lon="2.8318317"><ele>74.0</ele><time>2026-04-08T13:35:23.919Z</time></trkpt><trkpt lat="42.516935" lon="2.8317617"><ele>74.0</ele><time>2026-04-08T13:35:24.919Z</time></trkpt><trkpt lat="42.516775" lon="2.8316817"><ele>76.0</ele><time>2026-04-08T13:35:25.919Z</time></trkpt><trkpt lat="42.5166083" lon="2.8315917"><ele>78.0</ele><time>2026-04-08T13:35:26.919Z</time></trkpt><trkpt lat="42.5164433" lon="2.8314883"><ele>80.0</ele><time>2026-04-08T13:35:27.919Z</time></trkpt><trkpt lat="42.516285" lon="2.8313767"><ele>82.33333333333334</ele><time>2026-04-08T13:35:28.919Z</time></trkpt><trkpt lat="42.516135" lon="2.831265"><ele>84.66666666666667</ele><time>2026-04-08T13:35:29.919Z</time></trkpt><trkpt lat="42.51598" lon="2.8311633"><ele>87.0</ele><time>2026-04-08T13:35:30.918Z</time></trkpt><trkpt lat="42.5158267" lon="2.8310683"><ele>87.0</ele><time>2026-04-08T13:35:31.919Z</time></trkpt><trkpt lat="42.5156783" lon="2.83098"><ele>87.0</ele><time>2026-04-08T13:35:32.918Z</time></trkpt><trkpt lat="42.51553" lon="2.8309"><ele>87.0</ele><time>2026-04-08T13:35:33.918Z</time></trkpt><trkpt lat="42.51539" lon="2.8308233"><ele>87.25</ele><time>2026-04-08T13:35:34.917Z</time></trkpt><trkpt lat="42.51525" lon="2.8307433"><ele>87.5</ele><time>2026-04-08T13:35:35.917Z</time></trkpt><trkpt lat="42.51511" lon="2.83067"><ele>87.75</ele><time>2026-04-08T13:35:36.917Z</time></trkpt><trkpt lat="42.5149817" lon="2.8306033"><ele>88.0</ele><time>2026-04-08T13:35:37.918Z</time></trkpt><trkpt lat="42.51486" lon="2.8305383"><ele>88.0</ele><time>2026-04-08T13:35:38.918Z</time></trkpt><trkpt lat="42.5147433" lon="2.8304767"><ele>88.0</ele><time>2026-04-08T13:35:39.918Z</time></trkpt><trkpt lat="42.5146317" lon="2.8304167"><ele>88.0</ele><time>2026-04-08T13:35:40.917Z</time></trkpt><trkpt lat="42.5145233" lon="2.8303567"><ele>88.0</ele><time>2026-04-08T13:35:41.918Z</time></trkpt><trkpt lat="42.5144267" lon="2.8302967"><ele>88.0</ele><time>2026-04-08T13:35:42.918Z</time></trkpt><trkpt lat="42.5143383" lon="2.8302367"><ele>88.0</ele><time>2026-04-08T13:35:43.918Z</time></trkpt><trkpt lat="42.5142633" lon="2.8301733"><ele>88.0</ele><time>2026-04-08T13:35:44.918Z</time></trkpt><trkpt lat="42.514195" lon="2.830095"><ele>88.0</ele><time>2026-04-08T13:35:45.918Z</time></trkpt><trkpt lat="42.5141183" lon="2.8300183"><ele>88.0</ele><time>2026-04-08T13:35:46.918Z</time></trkpt><trkpt lat="42.51403" lon="2.8299667"><ele>88.0</ele><time>2026-04-08T13:35:47.918Z</time></trkpt><trkpt lat="42.5139367" lon="2.8299483"><ele>88.0</ele><time>2026-04-08T13:35:48.917Z</time></trkpt><trkpt lat="42.5138533" lon="2.8299367"><ele>88.0</ele><time>2026-04-08T13:35:49.917Z</time></trkpt><trkpt lat="42.5137617" lon="2.8299133"><ele>88.0</ele><time>2026-04-08T13:35:50.917Z</time></trkpt><trkpt lat="42.5136633" lon="2.8298833"><ele>88.0</ele><time>2026-04-08T13:35:51.917Z</time></trkpt><trkpt lat="42.5135617" lon="2.829855"><ele>88.60000000000001</ele><time>2026-04-08T13:35:52.917Z</time></trkpt><trkpt lat="42.51346" lon="2.8298233"><ele>89.2</ele><time>2026-04-08T13:35:53.918Z</time></trkpt><trkpt lat="42.5133633" lon="2.829785"><ele>89.8</ele><time>2026-04-08T13:35:54.917Z</time></trkpt><trkpt lat="42.5132633" lon="2.82974"><ele>90.4</ele><time>2026-04-08T13:35:55.918Z</time></trkpt><trkpt lat="42.51317" lon="2.829695"><ele>91.0</ele><time>2026-04-08T13:35:56.918Z</time></trkpt><trkpt lat="42.5130767" lon="2.829645"><ele>91.0</ele><time>2026-04-08T13:35:57.918Z</time></trkpt><trkpt lat="42.5129833" lon="2.829595"><ele>91.0</ele><time>2026-04-08T13:35:58.918Z</time></trkpt><trkpt lat="42.51289" lon="2.8295517"><ele>91.0</ele><time>2026-04-08T13:35:59.918Z</time></trkpt><trkpt lat="42.5127983" lon="2.8295067"><ele>91.0</ele><time>2026-04-08T13:36:00.918Z</time></trkpt><trkpt lat="42.5127067" lon="2.8294617"><ele>91.0</ele><time>2026-04-08T13:36:01.917Z</time></trkpt><trkpt lat="42.512615" lon="2.8294133"><ele>91.6</ele><time>2026-04-08T13:36:02.917Z</time></trkpt><trkpt lat="42.51252" lon="2.8293633"><ele>92.19999999999999</ele><time>2026-04-08T13:36:03.918Z</time></trkpt><trkpt lat="42.5124217" lon="2.8293133"><ele>92.80000000000001</ele><time>2026-04-08T13:36:04.918Z</time></trkpt><trkpt lat="42.5123167" lon="2.8292617"><ele>93.4</ele><time>2026-04-08T13:36:05.918Z</time></trkpt><trkpt lat="42.5122067" lon="2.8292117"><ele>94.0</ele><time>2026-04-08T13:36:06.917Z</time></trkpt><trkpt lat="42.5120917" lon="2.82916"><ele>94.25</ele><time>2026-04-08T13:36:07.918Z</time></trkpt><trkpt lat="42.5119733" lon="2.829105"><ele>94.5</ele><time>2026-04-08T13:36:08.917Z</time></trkpt><trkpt lat="42.51185" lon="2.8290433"><ele>94.75</ele><time>2026-04-08T13:36:09.918Z</time></trkpt><trkpt lat="42.5117283" lon="2.8289817"><ele>95.0</ele><time>2026-04-08T13:36:10.918Z</time></trkpt><trkpt lat="42.5116133" lon="2.82891"><ele>95.0</ele><time>2026-04-08T13:36:11.918Z</time></trkpt><trkpt lat="42.5114967" lon="2.8288267"><ele>95.0</ele><time>2026-04-08T13:36:12.918Z</time></trkpt><trkpt lat="42.511385" lon="2.8287317"><ele>95.0</ele><time>2026-04-08T13:36:13.918Z</time></trkpt><trkpt lat="42.5112733" lon="2.828625"><ele>95.0</ele><time>2026-04-08T13:36:14.918Z</time></trkpt><trkpt lat="42.5111633" lon="2.8285233"><ele>94.25</ele><time>2026-04-08T13:36:15.917Z</time></trkpt><trkpt lat="42.5110533" lon="2.8284183"><ele>93.5</ele><time>2026-04-08T13:36:16.918Z</time></trkpt><trkpt lat="42.5109467" lon="2.8283117"><ele>92.75</ele><time>2026-04-08T13:36:17.918Z</time></trkpt><trkpt lat="42.51084" lon="2.8282133"><ele>92.0</ele><time>2026-04-08T13:36:18.918Z</time></trkpt><trkpt lat="42.5107317" lon="2.82812"><ele>92.0</ele><time>2026-04-08T13:36:19.917Z</time></trkpt><trkpt lat="42.510625" lon="2.8280283"><ele>92.0</ele><time>2026-04-08T13:36:20.918Z</time></trkpt><trkpt lat="42.5105217" lon="2.8279417"><ele>92.0</ele><time>2026-04-08T13:36:21.918Z</time></trkpt><trkpt lat="42.5104267" lon="2.827855"><ele>92.0</ele><time>2026-04-08T13:36:22.917Z</time></trkpt><trkpt lat="42.510345" lon="2.8277717"><ele>91.8</ele><time>2026-04-08T13:36:23.918Z</time></trkpt><trkpt lat="42.51027" lon="2.8277017"><ele>91.6</ele><time>2026-04-08T13:36:24.918Z</time></trkpt><trkpt lat="42.510205" lon="2.827645"><ele>91.39999999999999</ele><time>2026-04-08T13:36:25.917Z</time></trkpt><trkpt lat="42.510105" lon="2.827555"><ele>91.19999999999999</ele><time>2026-04-08T13:36:27.918Z</time></trkpt><trkpt lat="42.5099967" lon="2.8274583"><ele>91.0</ele><time>2026-04-08T13:36:29.917Z</time></trkpt><trkpt lat="42.5099283" lon="2.8273967"><ele>91.0</ele><time>2026-04-08T13:36:30.917Z</time></trkpt><trkpt lat="42.50985" lon="2.8273283"><ele>91.0</ele><time>2026-04-08T13:36:31.917Z</time></trkpt><trkpt lat="42.509775" lon="2.827255"><ele>91.0</ele><time>2026-04-08T13:36:32.918Z</time></trkpt><trkpt lat="42.50969" lon="2.8271717"><ele>91.0</ele><time>2026-04-08T13:36:33.917Z</time></trkpt><trkpt lat="42.5095967" lon="2.8270833"><ele>91.0</ele><time>2026-04-08T13:36:34.918Z</time></trkpt><trkpt lat="42.509495" lon="2.8269917"><ele>91.5</ele><time>2026-04-08T13:36:35.918Z</time></trkpt><trkpt lat="42.5093883" lon="2.8268883"><ele>92.0</ele><time>2026-04-08T13:36:36.917Z</time></trkpt><trkpt lat="42.5092867" lon="2.82676"><ele>92.5</ele><time>2026-04-08T13:36:37.918Z</time></trkpt><trkpt lat="42.5091917" lon="2.8266167"><ele>93.0</ele><time>2026-04-08T13:36:38.918Z</time></trkpt><trkpt lat="42.5091033" lon="2.8264633"><ele>93.0</ele><time>2026-04-08T13:36:39.918Z</time></trkpt><trkpt lat="42.5090117" lon="2.8263133"><ele>93.0</ele><time>2026-04-08T13:36:40.918Z</time></trkpt><trkpt lat="42.5089183" lon="2.8261617"><ele>93.0</ele><time>2026-04-08T13:36:41.917Z</time></trkpt><trkpt lat="42.508825" lon="2.8260083"><ele>93.0</ele><time>2026-04-08T13:36:42.918Z</time></trkpt><trkpt lat="42.50873" lon="2.8258483"><ele>95.5</ele><time>2026-04-08T13:36:43.918Z</time></trkpt><trkpt lat="42.5086333" lon="2.825695"><ele>98.0</ele><time>2026-04-08T13:36:44.918Z</time></trkpt><trkpt lat="42.5085367" lon="2.8255467"><ele>100.5</ele><time>2026-04-08T13:36:45.918Z</time></trkpt><trkpt lat="42.5084267" lon="2.8254133"><ele>103.0</ele><time>2026-04-08T13:36:46.918Z</time></trkpt><trkpt lat="42.5083083" lon="2.8253067"><ele>103.0</ele><time>2026-04-08T13:36:47.918Z</time></trkpt><trkpt lat="42.5081667" lon="2.825235"><ele>103.0</ele><time>2026-04-08T13:36:48.918Z</time></trkpt><trkpt lat="42.5080267" lon="2.82518"><ele>103.0</ele><time>2026-04-08T13:36:49.917Z</time></trkpt><trkpt lat="42.5078833" lon="2.825115"><ele>103.0</ele><time>2026-04-08T13:36:50.918Z</time></trkpt><trkpt lat="42.5077483" lon="2.8250233"><ele>102.0</ele><time>2026-04-08T13:36:51.918Z</time></trkpt><trkpt lat="42.5076167" lon="2.824905"><ele>101.0</ele><time>2026-04-08T13:36:52.918Z</time></trkpt><trkpt lat="42.5074983" lon="2.8247483"><ele>100.0</ele><time>2026-04-08T13:36:53.918Z</time></trkpt><trkpt lat="42.5073933" lon="2.82457"><ele>100.0</ele><time>2026-04-08T13:36:54.918Z</time></trkpt><trkpt lat="42.5073" lon="2.82439"><ele>100.0</ele><time>2026-04-08T13:36:55.918Z</time></trkpt><trkpt lat="42.5071983" lon="2.8242217"><ele>100.0</ele><time>2026-04-08T13:36:56.918Z</time></trkpt><trkpt lat="42.5070783" lon="2.8240683"><ele>99.0</ele><time>2026-04-08T13:36:57.918Z</time></trkpt><trkpt lat="42.5069433" lon="2.823935"><ele>98.0</ele><time>2026-04-08T13:36:58.918Z</time></trkpt><trkpt lat="42.506795" lon="2.8238267"><ele>97.0</ele><time>2026-04-08T13:36:59.918Z</time></trkpt><trkpt lat="42.5066283" lon="2.8237483"><ele>97.0</ele><time>2026-04-08T13:37:00.918Z</time></trkpt><trkpt lat="42.50646" lon="2.8236767"><ele>97.0</ele><time>2026-04-08T13:37:01.918Z</time></trkpt><trkpt lat="42.5062917" lon="2.8236167"><ele>97.0</ele><time>2026-04-08T13:37:02.918Z</time></trkpt><trkpt lat="42.5061267" lon="2.8235517"><ele>97.66666666666667</ele><time>2026-04-08T13:37:03.918Z</time></trkpt><trkpt lat="42.5059517" lon="2.823495"><ele>98.33333333333334</ele><time>2026-04-08T13:37:04.917Z</time></trkpt><trkpt lat="42.505785" lon="2.8234633"><ele>99.0</ele><time>2026-04-08T13:37:05.918Z</time></trkpt><trkpt lat="42.5056217" lon="2.8234617"><ele>99.0</ele><time>2026-04-08T13:37:06.918Z</time></trkpt><trkpt lat="42.5054583" lon="2.82349"><ele>99.0</ele><time>2026-04-08T13:37:07.918Z</time></trkpt><trkpt lat="42.5053" lon="2.8235433"><ele>99.0</ele><time>2026-04-08T13:37:08.918Z</time></trkpt><trkpt lat="42.5051433" lon="2.8236167"><ele>100.66666666666666</ele><time>2026-04-08T13:37:09.917Z</time></trkpt><trkpt lat="42.5049867" lon="2.82371"><ele>102.33333333333333</ele><time>2026-04-08T13:37:10.917Z</time></trkpt><trkpt lat="42.5048333" lon="2.8238267"><ele>104.0</ele><time>2026-04-08T13:37:11.917Z</time></trkpt><trkpt lat="42.50468" lon="2.8239567"><ele>102.0</ele><time>2026-04-08T13:37:12.918Z</time></trkpt><trkpt lat="42.5045267" lon="2.82408"><ele>100.0</ele><time>2026-04-08T13:37:13.918Z</time></trkpt><trkpt lat="42.5043667" lon="2.8241733"><ele>98.0</ele><time>2026-04-08T13:37:14.918Z</time></trkpt><trkpt lat="42.5041983" lon="2.82422"><ele>98.0</ele><time>2026-04-08T13:37:15.917Z</time></trkpt><trkpt lat="42.5040267" lon="2.8242117"><ele>98.0</ele><time>2026-04-08T13:37:16.918Z</time></trkpt><trkpt lat="42.503845" lon="2.824175"><ele>98.0</ele><time>2026-04-08T13:37:17.918Z</time></trkpt><trkpt lat="42.503655" lon="2.824125"><ele>99.66666666666666</ele><time>2026-04-08T13:37:18.918Z</time></trkpt><trkpt lat="42.503475" lon="2.8240617"><ele>101.33333333333334</ele><time>2026-04-08T13:37:19.918Z</time></trkpt><trkpt lat="42.503295" lon="2.8239717"><ele>103.0</ele><time>2026-04-08T13:37:20.918Z</time></trkpt><trkpt lat="42.5030967" lon="2.8238383"><ele>103.0</ele><time>2026-04-08T13:37:21.917Z</time></trkpt><trkpt lat="42.5029167" lon="2.82371"><ele>103.0</ele><time>2026-04-08T13:37:22.918Z</time></trkpt><trkpt lat="42.5027367" lon="2.8235717"><ele>103.0</ele><time>2026-04-08T13:37:23.918Z</time></trkpt><trkpt lat="42.5025533" lon="2.8234183"><ele>99.33333333333334</ele><time>2026-04-08T13:37:24.918Z</time></trkpt><trkpt lat="42.502385" lon="2.823255"><ele>95.66666666666667</ele><time>2026-04-08T13:37:25.918Z</time></trkpt><trkpt lat="42.5022317" lon="2.8230783"><ele>92.0</ele><time>2026-04-08T13:37:26.918Z</time></trkpt><trkpt lat="42.50209" lon="2.822885"><ele>95.0</ele><time>2026-04-08T13:37:27.917Z</time></trkpt><trkpt lat="42.50196" lon="2.8226883"><ele>98.0</ele><time>2026-04-08T13:37:28.918Z</time></trkpt><trkpt lat="42.5018467" lon="2.8224817"><ele>101.0</ele><time>2026-04-08T13:37:29.918Z</time></trkpt><trkpt lat="42.5017383" lon="2.8222783"><ele>101.0</ele><time>2026-04-08T13:37:30.918Z</time></trkpt><trkpt lat="42.50164" lon="2.822085"><ele>101.0</ele><time>2026-04-08T13:37:31.918Z</time></trkpt><trkpt lat="42.5015383" lon="2.8218967"><ele>101.0</ele><time>2026-04-08T13:37:32.918Z</time></trkpt><trkpt lat="42.5014333" lon="2.8217283"><ele>99.25</ele><time>2026-04-08T13:37:33.918Z</time></trkpt><trkpt lat="42.5013367" lon="2.8215783"><ele>97.5</ele><time>2026-04-08T13:37:34.919Z</time></trkpt><trkpt lat="42.5012567" lon="2.8214583"><ele>95.75</ele><time>2026-04-08T13:37:35.919Z</time></trkpt><trkpt lat="42.5011883" lon="2.82135"><ele>94.0</ele><time>2026-04-08T13:37:36.919Z</time></trkpt><trkpt lat="42.5011417" lon="2.8212333"><ele>95.6</ele><time>2026-04-08T13:37:37.919Z</time></trkpt><trkpt lat="42.50111" lon="2.8211167"><ele>97.2</ele><time>2026-04-08T13:37:38.918Z</time></trkpt><trkpt lat="42.501055" lon="2.82101"><ele>98.8</ele><time>2026-04-08T13:37:39.919Z</time></trkpt><trkpt lat="42.5009817" lon="2.8209317"><ele>100.39999999999999</ele><time>2026-04-08T13:37:40.918Z</time></trkpt><trkpt lat="42.50089" lon="2.820885"><ele>102.0</ele><time>2026-04-08T13:37:41.919Z</time></trkpt><trkpt lat="42.5007933" lon="2.82087"><ele>102.0</ele><time>2026-04-08T13:37:42.919Z</time></trkpt><trkpt lat="42.5006833" lon="2.8208433"><ele>102.0</ele><time>2026-04-08T13:37:43.919Z</time></trkpt><trkpt lat="42.5005733" lon="2.8207967"><ele>102.0</ele><time>2026-04-08T13:37:44.919Z</time></trkpt><trkpt lat="42.5004583" lon="2.8207417"><ele>102.0</ele><time>2026-04-08T13:37:45.918Z</time></trkpt><trkpt lat="42.5003317" lon="2.82069"><ele>104.75</ele><time>2026-04-08T13:37:46.919Z</time></trkpt><trkpt lat="42.50019" lon="2.8206433"><ele>107.5</ele><time>2026-04-08T13:37:47.918Z</time></trkpt><trkpt lat="42.500045" lon="2.8206033"><ele>110.25</ele><time>2026-04-08T13:37:48.918Z</time></trkpt><trkpt lat="42.4999" lon="2.8205717"><ele>113.0</ele><time>2026-04-08T13:37:49.919Z</time></trkpt><trkpt lat="42.49975" lon="2.82055"><ele>113.0</ele><time>2026-04-08T13:37:50.919Z</time></trkpt><trkpt lat="42.4996" lon="2.82053"><ele>113.0</ele><time>2026-04-08T13:37:51.919Z</time></trkpt><trkpt lat="42.4994417" lon="2.8205283"><ele>113.0</ele><time>2026-04-08T13:37:52.919Z</time></trkpt><trkpt lat="42.4992817" lon="2.8205317"><ele>114.0</ele><time>2026-04-08T13:37:53.919Z</time></trkpt><trkpt lat="42.4991183" lon="2.8205467"><ele>115.0</ele><time>2026-04-08T13:37:54.918Z</time></trkpt><trkpt lat="42.4989583" lon="2.8205783"><ele>116.0</ele><time>2026-04-08T13:37:55.919Z</time></trkpt><trkpt lat="42.4988217" lon="2.820545"><ele>114.33333333333333</ele><time>2026-04-08T13:37:56.918Z</time></trkpt><trkpt lat="42.498665" lon="2.820615"><ele>112.66666666666666</ele><time>2026-04-08T13:37:57.918Z</time></trkpt><trkpt lat="42.4984967" lon="2.820695"><ele>111.0</ele><time>2026-04-08T13:37:58.918Z</time></trkpt><trkpt lat="42.498325" lon="2.8207783"><ele>111.0</ele><time>2026-04-08T13:37:59.919Z</time></trkpt><trkpt lat="42.49816" lon="2.8208733"><ele>111.0</ele><time>2026-04-08T13:38:00.919Z</time></trkpt><trkpt lat="42.4979917" lon="2.8209817"><ele>111.0</ele><time>2026-04-08T13:38:01.918Z</time></trkpt><trkpt lat="42.4978317" lon="2.8210983"><ele>111.0</ele><time>2026-04-08T13:38:02.918Z</time></trkpt><trkpt lat="42.4976733" lon="2.8212167"><ele>111.0</ele><time>2026-04-08T13:38:03.919Z</time></trkpt><trkpt lat="42.4975133" lon="2.8213383"><ele>111.0</ele><time>2026-04-08T13:38:04.918Z</time></trkpt><trkpt lat="42.497355" lon="2.8214683"><ele>111.0</ele><time>2026-04-08T13:38:05.919Z</time></trkpt><trkpt lat="42.4971983" lon="2.82161"><ele>111.0</ele><time>2026-04-08T13:38:06.919Z</time></trkpt><trkpt lat="42.4970467" lon="2.8217683"><ele>111.0</ele><time>2026-04-08T13:38:07.918Z</time></trkpt><trkpt lat="42.49691" lon="2.821935"><ele>111.66666666666666</ele><time>2026-04-08T13:38:08.918Z</time></trkpt><trkpt lat="42.4967817" lon="2.8221017"><ele>112.33333333333333</ele><time>2026-04-08T13:38:09.918Z</time></trkpt><trkpt lat="42.4966583" lon="2.82227"><ele>113.0</ele><time>2026-04-08T13:38:10.919Z</time></trkpt><trkpt lat="42.49654" lon="2.82244"><ele>113.0</ele><time>2026-04-08T13:38:11.919Z</time></trkpt><trkpt lat="42.4964217" lon="2.8226083"><ele>113.0</ele><time>2026-04-08T13:38:12.919Z</time></trkpt><trkpt lat="42.496315" lon="2.822795"><ele>113.0</ele><time>2026-04-08T13:38:13.919Z</time></trkpt><trkpt lat="42.4962017" lon="2.8229867"><ele>112.66666666666666</ele><time>2026-04-08T13:38:14.919Z</time></trkpt><trkpt lat="42.4960883" lon="2.8231817"><ele>112.33333333333334</ele><time>2026-04-08T13:38:15.919Z</time></trkpt><trkpt lat="42.4959783" lon="2.823375"><ele>112.0</ele><time>2026-04-08T13:38:16.919Z</time></trkpt><trkpt lat="42.495875" lon="2.8235683"><ele>114.66666666666667</ele><time>2026-04-08T13:38:17.919Z</time></trkpt><trkpt lat="42.4957783" lon="2.8237633"><ele>117.33333333333334</ele><time>2026-04-08T13:38:18.919Z</time></trkpt><trkpt lat="42.4957" lon="2.8239617"><ele>120.0</ele><time>2026-04-08T13:38:19.919Z</time></trkpt><trkpt lat="42.4956367" lon="2.8241733"><ele>121.66666666666666</ele><time>2026-04-08T13:38:20.919Z</time></trkpt><trkpt lat="42.4955717" lon="2.8243883"><ele>123.33333333333333</ele><time>2026-04-08T13:38:21.919Z</time></trkpt><trkpt lat="42.49551" lon="2.8245983"><ele>125.0</ele><time>2026-04-08T13:38:22.919Z</time></trkpt><trkpt lat="42.4954483" lon="2.8248033"><ele>122.0</ele><time>2026-04-08T13:38:23.918Z</time></trkpt><trkpt lat="42.4953933" lon="2.8250083"><ele>119.0</ele><time>2026-04-08T13:38:24.919Z</time></trkpt><trkpt lat="42.49534" lon="2.8252167"><ele>116.0</ele><time>2026-04-08T13:38:25.918Z</time></trkpt><trkpt lat="42.49528" lon="2.825425"><ele>116.0</ele><time>2026-04-08T13:38:26.919Z</time></trkpt><trkpt lat="42.4952217" lon="2.8256367"><ele>116.0</ele><time>2026-04-08T13:38:27.919Z</time></trkpt><trkpt lat="42.495165" lon="2.8258433"><ele>116.0</ele><time>2026-04-08T13:38:28.919Z</time></trkpt><trkpt lat="42.495105" lon="2.8260483"><ele>118.0</ele><time>2026-04-08T13:38:29.918Z</time></trkpt><trkpt lat="42.4950433" lon="2.8262583"><ele>120.0</ele><time>2026-04-08T13:38:30.918Z</time></trkpt><trkpt lat="42.4949717" lon="2.82646"><ele>122.0</ele><time>2026-04-08T13:38:31.919Z</time></trkpt><trkpt lat="42.4948933" lon="2.826665"><ele>122.66666666666666</ele><time>2026-04-08T13:38:32.918Z</time></trkpt><trkpt lat="42.4948083" lon="2.8268683"><ele>123.33333333333334</ele><time>2026-04-08T13:38:33.919Z</time></trkpt><trkpt lat="42.49471" lon="2.827065"><ele>124.0</ele><time>2026-04-08T13:38:34.919Z</time></trkpt><trkpt lat="42.4945933" lon="2.8272483"><ele>123.33333333333334</ele><time>2026-04-08T13:38:35.918Z</time></trkpt><trkpt lat="42.4944617" lon="2.8274183"><ele>122.66666666666666</ele><time>2026-04-08T13:38:36.919Z</time></trkpt><trkpt lat="42.4943317" lon="2.8275917"><ele>122.0</ele><time>2026-04-08T13:38:37.918Z</time></trkpt><trkpt lat="42.4941883" lon="2.827755"><ele>123.33333333333333</ele><time>2026-04-08T13:38:38.919Z</time></trkpt><trkpt lat="42.4940433" lon="2.8279233"><ele>124.66666666666666</ele><time>2026-04-08T13:38:39.919Z</time></trkpt><trkpt lat="42.4939" lon="2.8280917"><ele>126.0</ele><time>2026-04-08T13:38:40.918Z</time></trkpt><trkpt lat="42.493755" lon="2.8282633"><ele>126.0</ele><time>2026-04-08T13:38:41.919Z</time></trkpt><trkpt lat="42.49361" lon="2.8284333"><ele>126.0</ele><time>2026-04-08T13:38:42.919Z</time></trkpt><trkpt lat="42.4934733" lon="2.8286017"><ele>126.0</ele><time>2026-04-08T13:38:43.919Z</time></trkpt><trkpt lat="42.4933367" lon="2.8287667"><ele>127.66666666666666</ele><time>2026-04-08T13:38:44.919Z</time></trkpt><trkpt lat="42.4932" lon="2.8289317"><ele>129.33333333333331</ele><time>2026-04-08T13:38:45.919Z</time></trkpt><trkpt lat="42.4930717" lon="2.8290933"><ele>131.0</ele><time>2026-04-08T13:38:46.918Z</time></trkpt><trkpt lat="42.4929467" lon="2.82925"><ele>131.66666666666666</ele><time>2026-04-08T13:38:47.919Z</time></trkpt><trkpt lat="42.4928233" lon="2.8294083"><ele>132.33333333333334</ele><time>2026-04-08T13:38:48.919Z</time></trkpt><trkpt lat="42.4927" lon="2.8295633"><ele>133.0</ele><time>2026-04-08T13:38:49.918Z</time></trkpt><trkpt lat="42.4925933" lon="2.8297183"><ele>133.0</ele><time>2026-04-08T13:38:50.919Z</time></trkpt><trkpt lat="42.4925033" lon="2.8298633"><ele>133.0</ele><time>2026-04-08T13:38:51.919Z</time></trkpt><trkpt lat="42.4924183" lon="2.83"><ele>133.0</ele><time>2026-04-08T13:38:52.918Z</time></trkpt><trkpt lat="42.49234" lon="2.8301383"><ele>133.0</ele><time>2026-04-08T13:38:53.919Z</time></trkpt><trkpt lat="42.4922583" lon="2.830275"><ele>132.5</ele><time>2026-04-08T13:38:54.919Z</time></trkpt><trkpt lat="42.4921733" lon="2.8304183"><ele>132.0</ele><time>2026-04-08T13:38:55.919Z</time></trkpt><trkpt lat="42.4920867" lon="2.8305667"><ele>131.5</ele><time>2026-04-08T13:38:56.919Z</time></trkpt><trkpt lat="42.491995" lon="2.830725"><ele>131.0</ele><time>2026-04-08T13:38:57.919Z</time></trkpt><trkpt lat="42.4919" lon="2.8308917"><ele>132.33333333333331</ele><time>2026-04-08T13:38:58.919Z</time></trkpt><trkpt lat="42.4918" lon="2.83106"><ele>133.66666666666666</ele><time>2026-04-08T13:38:59.919Z</time></trkpt><trkpt lat="42.4916967" lon="2.8312433"><ele>135.0</ele><time>2026-04-08T13:39:00.919Z</time></trkpt><trkpt lat="42.4915883" lon="2.831435"><ele>135.0</ele><time>2026-04-08T13:39:01.918Z</time></trkpt><trkpt lat="42.4914733" lon="2.8316317"><ele>135.0</ele><time>2026-04-08T13:39:02.919Z</time></trkpt><trkpt lat="42.4913567" lon="2.831835"><ele>135.0</ele><time>2026-04-08T13:39:03.919Z</time></trkpt><trkpt lat="42.4912333" lon="2.8320367"><ele>135.33333333333334</ele><time>2026-04-08T13:39:04.919Z</time></trkpt><trkpt lat="42.4911067" lon="2.8322467"><ele>135.66666666666669</ele><time>2026-04-08T13:39:05.919Z</time></trkpt><trkpt lat="42.4909783" lon="2.83246"><ele>136.0</ele><time>2026-04-08T13:39:06.919Z</time></trkpt><trkpt lat="42.4908467" lon="2.8326817"><ele>138.33333333333334</ele><time>2026-04-08T13:39:07.919Z</time></trkpt><trkpt lat="42.4907133" lon="2.8329017"><ele>140.66666666666666</ele><time>2026-04-08T13:39:08.918Z</time></trkpt><trkpt lat="42.4905817" lon="2.8331233"><ele>143.0</ele><time>2026-04-08T13:39:09.919Z</time></trkpt><trkpt lat="42.4904517" lon="2.8333417"><ele>143.0</ele><time>2026-04-08T13:39:10.918Z</time></trkpt><trkpt lat="42.4903283" lon="2.8335567"><ele>143.0</ele><time>2026-04-08T13:39:11.919Z</time></trkpt><trkpt lat="42.4902083" lon="2.8337733"><ele>143.0</ele><time>2026-04-08T13:39:12.919Z</time></trkpt><trkpt lat="42.4898617" lon="2.8343967"><ele>143.0</ele><time>2026-04-08T13:39:15.919Z</time></trkpt><trkpt lat="42.4897467" lon="2.8345967"><ele>143.0</ele><time>2026-04-08T13:39:16.918Z</time></trkpt><trkpt lat="42.4896317" lon="2.8348"><ele>143.0</ele><time>2026-04-08T13:39:17.918Z</time></trkpt><trkpt lat="42.489515" lon="2.8350017"><ele>139.0</ele><time>2026-04-08T13:39:18.919Z</time></trkpt><trkpt lat="42.4894033" lon="2.8352"><ele>135.0</ele><time>2026-04-08T13:39:19.919Z</time></trkpt><trkpt lat="42.489295" lon="2.8354"><ele>131.0</ele><time>2026-04-08T13:39:20.918Z</time></trkpt><trkpt lat="42.4891817" lon="2.8356017"><ele>131.0</ele><time>2026-04-08T13:39:21.918Z</time></trkpt><trkpt lat="42.4890667" lon="2.8357983"><ele>131.0</ele><time>2026-04-08T13:39:22.918Z</time></trkpt><trkpt lat="42.488955" lon="2.83599"><ele>131.0</ele><time>2026-04-08T13:39:23.918Z</time></trkpt><trkpt lat="42.4888383" lon="2.836175"><ele>133.0</ele><time>2026-04-08T13:39:24.919Z</time></trkpt><trkpt lat="42.48872" lon="2.83635"><ele>135.0</ele><time>2026-04-08T13:39:25.918Z</time></trkpt><trkpt lat="42.488605" lon="2.83651"><ele>137.0</ele><time>2026-04-08T13:39:26.918Z</time></trkpt><trkpt lat="42.4884717" lon="2.8366567"><ele>137.0</ele><time>2026-04-08T13:39:27.918Z</time></trkpt><trkpt lat="42.48833" lon="2.83679"><ele>137.0</ele><time>2026-04-08T13:39:28.917Z</time></trkpt><trkpt lat="42.48819" lon="2.836905"><ele>137.0</ele><time>2026-04-08T13:39:29.917Z</time></trkpt><trkpt lat="42.4880467" lon="2.8370033"><ele>141.0</ele><time>2026-04-08T13:39:30.918Z</time></trkpt><trkpt lat="42.48789" lon="2.8370833"><ele>145.0</ele><time>2026-04-08T13:39:31.918Z</time></trkpt><trkpt lat="42.4877317" lon="2.837145"><ele>149.0</ele><time>2026-04-08T13:39:32.918Z</time></trkpt><trkpt lat="42.487565" lon="2.8371817"><ele>149.0</ele><time>2026-04-08T13:39:33.918Z</time></trkpt><trkpt lat="42.4874017" lon="2.8372017"><ele>149.0</ele><time>2026-04-08T13:39:34.917Z</time></trkpt><trkpt lat="42.4872367" lon="2.8372067"><ele>149.0</ele><time>2026-04-08T13:39:35.918Z</time></trkpt><trkpt lat="42.4870767" lon="2.8371983"><ele>145.66666666666666</ele><time>2026-04-08T13:39:36.918Z</time></trkpt><trkpt lat="42.4869167" lon="2.8371767"><ele>142.33333333333334</ele><time>2026-04-08T13:39:37.918Z</time></trkpt><trkpt lat="42.4867483" lon="2.8371383"><ele>139.0</ele><time>2026-04-08T13:39:38.917Z</time></trkpt><trkpt lat="42.4865817" lon="2.8370967"><ele>139.0</ele><time>2026-04-08T13:39:39.918Z</time></trkpt><trkpt lat="42.486425" lon="2.837045"><ele>139.0</ele><time>2026-04-08T13:39:40.918Z</time></trkpt><trkpt lat="42.4862733" lon="2.8369733"><ele>139.0</ele><time>2026-04-08T13:39:41.918Z</time></trkpt><trkpt lat="42.4861283" lon="2.8368833"><ele>138.0</ele><time>2026-04-08T13:39:42.917Z</time></trkpt><trkpt lat="42.48598" lon="2.83679"><ele>137.0</ele><time>2026-04-08T13:39:43.918Z</time></trkpt><trkpt lat="42.4858333" lon="2.8366883"><ele>136.0</ele><time>2026-04-08T13:39:44.918Z</time></trkpt><trkpt lat="42.48569" lon="2.83659"><ele>136.0</ele><time>2026-04-08T13:39:45.917Z</time></trkpt><trkpt lat="42.4855517" lon="2.8364917"><ele>136.0</ele><time>2026-04-08T13:39:46.918Z</time></trkpt><trkpt lat="42.4854133" lon="2.836395"><ele>136.0</ele><time>2026-04-08T13:39:47.918Z</time></trkpt><trkpt lat="42.485275" lon="2.8363033"><ele>140.66666666666669</ele><time>2026-04-08T13:39:48.918Z</time></trkpt><trkpt lat="42.48513" lon="2.836225"><ele>145.33333333333334</ele><time>2026-04-08T13:39:49.918Z</time></trkpt><trkpt lat="42.4849817" lon="2.8361667"><ele>150.0</ele><time>2026-04-08T13:39:50.917Z</time></trkpt><trkpt lat="42.48484" lon="2.8361333"><ele>150.0</ele><time>2026-04-08T13:39:51.917Z</time></trkpt><trkpt lat="42.4846967" lon="2.83614"><ele>150.0</ele><time>2026-04-08T13:39:52.918Z</time></trkpt><trkpt lat="42.4845617" lon="2.8361883"><ele>150.0</ele><time>2026-04-08T13:39:53.917Z</time></trkpt><trkpt lat="42.4844383" lon="2.836285"><ele>150.0</ele><time>2026-04-08T13:39:54.918Z</time></trkpt><trkpt lat="42.48433" lon="2.8364067"><ele>148.75</ele><time>2026-04-08T13:39:55.917Z</time></trkpt><trkpt lat="42.4842333" lon="2.8365483"><ele>147.5</ele><time>2026-04-08T13:39:56.917Z</time></trkpt><trkpt lat="42.4841633" lon="2.836705"><ele>146.25</ele><time>2026-04-08T13:39:57.918Z</time></trkpt><trkpt lat="42.4841183" lon="2.8368867"><ele>145.0</ele><time>2026-04-08T13:39:58.917Z</time></trkpt><trkpt lat="42.48408" lon="2.8370767"><ele>145.0</ele><time>2026-04-08T13:39:59.917Z</time></trkpt><trkpt lat="42.4840383" lon="2.8372617"><ele>145.0</ele><time>2026-04-08T13:40:00.917Z</time></trkpt><trkpt lat="42.484005" lon="2.8374583"><ele>145.0</ele><time>2026-04-08T13:40:01.918Z</time></trkpt><trkpt lat="42.48398" lon="2.8376583"><ele>145.0</ele><time>2026-04-08T13:40:02.918Z</time></trkpt><trkpt lat="42.4839583" lon="2.83786"><ele>146.75</ele><time>2026-04-08T13:40:03.918Z</time></trkpt><trkpt lat="42.4839483" lon="2.8380633"><ele>148.5</ele><time>2026-04-08T13:40:04.918Z</time></trkpt><trkpt lat="42.4839367" lon="2.83826"><ele>150.25</ele><time>2026-04-08T13:40:05.917Z</time></trkpt><trkpt lat="42.4839283" lon="2.8384533"><ele>152.0</ele><time>2026-04-08T13:40:06.918Z</time></trkpt><trkpt lat="42.4839317" lon="2.8386417"><ele>154.5</ele><time>2026-04-08T13:40:07.918Z</time></trkpt><trkpt lat="42.48393" lon="2.83883"><ele>157.0</ele><time>2026-04-08T13:40:08.918Z</time></trkpt><trkpt lat="42.4839333" lon="2.83902"><ele>159.5</ele><time>2026-04-08T13:40:09.917Z</time></trkpt><trkpt lat="42.48394" lon="2.8392067"><ele>162.0</ele><time>2026-04-08T13:40:10.917Z</time></trkpt><trkpt lat="42.48393" lon="2.839395"><ele>160.25</ele><time>2026-04-08T13:40:11.917Z</time></trkpt><trkpt lat="42.4839033" lon="2.8395733"><ele>158.5</ele><time>2026-04-08T13:40:12.918Z</time></trkpt><trkpt lat="42.4838467" lon="2.8397367"><ele>156.75</ele><time>2026-04-08T13:40:13.917Z</time></trkpt><trkpt lat="42.4837633" lon="2.8398817"><ele>155.0</ele><time>2026-04-08T13:40:14.917Z</time></trkpt><trkpt lat="42.4836567" lon="2.8400083"><ele>162.0</ele><time>2026-04-08T13:40:15.918Z</time></trkpt><trkpt lat="42.483535" lon="2.8401333"><ele>169.0</ele><time>2026-04-08T13:40:16.918Z</time></trkpt><trkpt lat="42.4834033" lon="2.8402567"><ele>176.0</ele><time>2026-04-08T13:40:17.917Z</time></trkpt><trkpt lat="42.4832683" lon="2.8403817"><ele>176.0</ele><time>2026-04-08T13:40:18.918Z</time></trkpt><trkpt lat="42.48313" lon="2.8405033"><ele>176.0</ele><time>2026-04-08T13:40:19.917Z</time></trkpt><trkpt lat="42.4829933" lon="2.840625"><ele>176.0</ele><time>2026-04-08T13:40:20.918Z</time></trkpt><trkpt lat="42.4828467" lon="2.84074"><ele>172.0</ele><time>2026-04-08T13:40:21.918Z</time></trkpt><trkpt lat="42.482705" lon="2.8408633"><ele>168.0</ele><time>2026-04-08T13:40:22.918Z</time></trkpt><trkpt lat="42.4825683" lon="2.8409917"><ele>164.0</ele><time>2026-04-08T13:40:23.918Z</time></trkpt><trkpt lat="42.482425" lon="2.841115"><ele>165.33333333333331</ele><time>2026-04-08T13:40:24.918Z</time></trkpt><trkpt lat="42.4822817" lon="2.8412367"><ele>166.66666666666666</ele><time>2026-04-08T13:40:25.917Z</time></trkpt><trkpt lat="42.482135" lon="2.8413617"><ele>168.0</ele><time>2026-04-08T13:40:26.918Z</time></trkpt><trkpt lat="42.4819833" lon="2.841485"><ele>168.0</ele><time>2026-04-08T13:40:27.918Z</time></trkpt><trkpt lat="42.48183" lon="2.84161"><ele>168.0</ele><time>2026-04-08T13:40:28.918Z</time></trkpt><trkpt lat="42.4816833" lon="2.8417433"><ele>168.0</ele><time>2026-04-08T13:40:29.917Z</time></trkpt><trkpt lat="42.481545" lon="2.841885"><ele>167.66666666666666</ele><time>2026-04-08T13:40:30.917Z</time></trkpt><trkpt lat="42.48141" lon="2.8420333"><ele>167.33333333333331</ele><time>2026-04-08T13:40:31.918Z</time></trkpt><trkpt lat="42.4812783" lon="2.8421883"><ele>167.0</ele><time>2026-04-08T13:40:32.918Z</time></trkpt><trkpt lat="42.4811467" lon="2.8423433"><ele>167.0</ele><time>2026-04-08T13:40:33.918Z</time></trkpt><trkpt lat="42.4810183" lon="2.8424867"><ele>167.0</ele><time>2026-04-08T13:40:34.917Z</time></trkpt><trkpt lat="42.4808817" lon="2.8426033"><ele>167.0</ele><time>2026-04-08T13:40:35.918Z</time></trkpt><trkpt lat="42.4807383" lon="2.8426783"><ele>176.0</ele><time>2026-04-08T13:40:36.918Z</time></trkpt><trkpt lat="42.4805833" lon="2.8427017"><ele>185.0</ele><time>2026-04-08T13:40:37.918Z</time></trkpt><trkpt lat="42.4804333" lon="2.8426867"><ele>194.0</ele><time>2026-04-08T13:40:38.918Z</time></trkpt><trkpt lat="42.4802917" lon="2.84265"><ele>194.0</ele><time>2026-04-08T13:40:39.918Z</time></trkpt><trkpt lat="42.480145" lon="2.842595"><ele>194.0</ele><time>2026-04-08T13:40:40.918Z</time></trkpt><trkpt lat="42.4799983" lon="2.8425717"><ele>194.0</ele><time>2026-04-08T13:40:41.918Z</time></trkpt><trkpt lat="42.4798583" lon="2.8425883"><ele>194.0</ele><time>2026-04-08T13:40:42.918Z</time></trkpt><trkpt lat="42.4797233" lon="2.84264"><ele>194.0</ele><time>2026-04-08T13:40:43.918Z</time></trkpt><trkpt lat="42.4796033" lon="2.84273"><ele>194.0</ele><time>2026-04-08T13:40:44.917Z</time></trkpt><trkpt lat="42.4795117" lon="2.8428667"><ele>194.0</ele><time>2026-04-08T13:40:45.918Z</time></trkpt><trkpt lat="42.4794333" lon="2.8430333"><ele>194.0</ele><time>2026-04-08T13:40:46.917Z</time></trkpt><trkpt lat="42.4793483" lon="2.843205"><ele>191.66666666666669</ele><time>2026-04-08T13:40:47.918Z</time></trkpt><trkpt lat="42.4792567" lon="2.8433783"><ele>189.33333333333334</ele><time>2026-04-08T13:40:48.918Z</time></trkpt><trkpt lat="42.4791583" lon="2.8435567"><ele>187.0</ele><time>2026-04-08T13:40:49.917Z</time></trkpt><trkpt lat="42.4790617" lon="2.8437383"><ele>187.0</ele><time>2026-04-08T13:40:50.917Z</time></trkpt><trkpt lat="42.4789683" lon="2.8439183"><ele>187.0</ele><time>2026-04-08T13:40:51.917Z</time></trkpt><trkpt lat="42.4788883" lon="2.8440967"><ele>187.0</ele><time>2026-04-08T13:40:52.918Z</time></trkpt><trkpt lat="42.4788267" lon="2.84428"><ele>182.66666666666669</ele><time>2026-04-08T13:40:53.918Z</time></trkpt><trkpt lat="42.4787867" lon="2.8444783"><ele>178.33333333333334</ele><time>2026-04-08T13:40:54.918Z</time></trkpt><trkpt lat="42.4787667" lon="2.8446817"><ele>174.0</ele><time>2026-04-08T13:40:55.918Z</time></trkpt><trkpt lat="42.4787583" lon="2.844895"><ele>174.0</ele><time>2026-04-08T13:40:56.917Z</time></trkpt><trkpt lat="42.4787533" lon="2.8451033"><ele>174.0</ele><time>2026-04-08T13:40:57.918Z</time></trkpt><trkpt lat="42.4787467" lon="2.8453067"><ele>174.0</ele><time>2026-04-08T13:40:58.918Z</time></trkpt><trkpt lat="42.47874" lon="2.8455017"><ele>174.0</ele><time>2026-04-08T13:40:59.918Z</time></trkpt><trkpt lat="42.4787233" lon="2.845695"><ele>174.5</ele><time>2026-04-08T13:41:00.918Z</time></trkpt><trkpt lat="42.4786833" lon="2.8458717"><ele>175.0</ele><time>2026-04-08T13:41:01.917Z</time></trkpt><trkpt lat="42.4786167" lon="2.84604"><ele>175.5</ele><time>2026-04-08T13:41:02.917Z</time></trkpt><trkpt lat="42.4785317" lon="2.8461933"><ele>176.0</ele><time>2026-04-08T13:41:03.918Z</time></trkpt><trkpt lat="42.4784317" lon="2.84632"><ele>182.5</ele><time>2026-04-08T13:41:04.918Z</time></trkpt><trkpt lat="42.4783117" lon="2.84641"><ele>189.0</ele><time>2026-04-08T13:41:05.918Z</time></trkpt><trkpt lat="42.4781833" lon="2.8464633"><ele>195.5</ele><time>2026-04-08T13:41:06.918Z</time></trkpt><trkpt lat="42.4780583" lon="2.846475"><ele>202.0</ele><time>2026-04-08T13:41:07.918Z</time></trkpt><trkpt lat="42.4779267" lon="2.84644"><ele>202.0</ele><time>2026-04-08T13:41:08.917Z</time></trkpt><trkpt lat="42.4777983" lon="2.84637"><ele>202.0</ele><time>2026-04-08T13:41:09.917Z</time></trkpt><trkpt lat="42.4776617" lon="2.8462767"><ele>202.0</ele><time>2026-04-08T13:41:10.918Z</time></trkpt><trkpt lat="42.477545" lon="2.84618"><ele>202.0</ele><time>2026-04-08T13:41:11.918Z</time></trkpt><trkpt lat="42.4774233" lon="2.8460983"><ele>202.0</ele><time>2026-04-08T13:41:12.918Z</time></trkpt><trkpt lat="42.4772917" lon="2.8460367"><ele>202.0</ele><time>2026-04-08T13:41:13.918Z</time></trkpt><trkpt lat="42.47716" lon="2.845995"><ele>202.0</ele><time>2026-04-08T13:41:14.918Z</time></trkpt><trkpt lat="42.4770233" lon="2.8459983"><ele>202.0</ele><time>2026-04-08T13:41:15.918Z</time></trkpt><trkpt lat="42.4768867" lon="2.846035"><ele>201.5</ele><time>2026-04-08T13:41:16.918Z</time></trkpt><trkpt lat="42.4767533" lon="2.8460983"><ele>201.0</ele><time>2026-04-08T13:41:17.918Z</time></trkpt><trkpt lat="42.476625" lon="2.8461917"><ele>200.5</ele><time>2026-04-08T13:41:18.918Z</time></trkpt><trkpt lat="42.4764983" lon="2.8463117"><ele>200.0</ele><time>2026-04-08T13:41:19.917Z</time></trkpt><trkpt lat="42.476375" lon="2.8464483"><ele>195.0</ele><time>2026-04-08T13:41:20.918Z</time></trkpt><trkpt lat="42.4762567" lon="2.846575"><ele>190.0</ele><time>2026-04-08T13:41:21.918Z</time></trkpt><trkpt lat="42.47613" lon="2.8466833"><ele>185.0</ele><time>2026-04-08T13:41:22.918Z</time></trkpt><trkpt lat="42.475995" lon="2.8467717"><ele>193.66666666666666</ele><time>2026-04-08T13:41:23.918Z</time></trkpt><trkpt lat="42.4758467" lon="2.8468467"><ele>202.33333333333331</ele><time>2026-04-08T13:41:24.918Z</time></trkpt><trkpt lat="42.4756933" lon="2.8469183"><ele>211.0</ele><time>2026-04-08T13:41:25.918Z</time></trkpt><trkpt lat="42.4755433" lon="2.8469917"><ele>206.66666666666666</ele><time>2026-04-08T13:41:26.917Z</time></trkpt><trkpt lat="42.47539" lon="2.8470633"><ele>202.33333333333331</ele><time>2026-04-08T13:41:27.917Z</time></trkpt><trkpt lat="42.4752317" lon="2.847135"><ele>198.0</ele><time>2026-04-08T13:41:28.918Z</time></trkpt><trkpt lat="42.475075" lon="2.84721"><ele>198.0</ele><time>2026-04-08T13:41:29.918Z</time></trkpt><trkpt lat="42.4749233" lon="2.8472867"><ele>198.0</ele><time>2026-04-08T13:41:30.919Z</time></trkpt><trkpt lat="42.47478" lon="2.8473667"><ele>198.0</ele><time>2026-04-08T13:41:31.919Z</time></trkpt><trkpt lat="42.4746417" lon="2.8474483"><ele>198.75</ele><time>2026-04-08T13:41:32.919Z</time></trkpt><trkpt lat="42.4745067" lon="2.84754"><ele>199.5</ele><time>2026-04-08T13:41:33.919Z</time></trkpt><trkpt lat="42.4743867" lon="2.8476583"><ele>200.25</ele><time>2026-04-08T13:41:34.918Z</time></trkpt><trkpt lat="42.4742817" lon="2.84779"><ele>201.0</ele><time>2026-04-08T13:41:35.919Z</time></trkpt><trkpt lat="42.4742017" lon="2.8479467"><ele>201.0</ele><time>2026-04-08T13:41:36.919Z</time></trkpt><trkpt lat="42.47416" lon="2.8481267"><ele>201.0</ele><time>2026-04-08T13:41:37.919Z</time></trkpt><trkpt lat="42.4741467" lon="2.848315"><ele>201.0</ele><time>2026-04-08T13:41:38.919Z</time></trkpt><trkpt lat="42.4741583" lon="2.8485067"><ele>201.0</ele><time>2026-04-08T13:41:39.919Z</time></trkpt><trkpt lat="42.47419" lon="2.8486983"><ele>201.0</ele><time>2026-04-08T13:41:40.919Z</time></trkpt><trkpt lat="42.4742267" lon="2.8488917"><ele>201.0</ele><time>2026-04-08T13:41:41.919Z</time></trkpt><trkpt lat="42.4742417" lon="2.8490817"><ele>201.0</ele><time>2026-04-08T13:41:42.919Z</time></trkpt><trkpt lat="42.47424" lon="2.8492733"><ele>201.0</ele><time>2026-04-08T13:41:43.918Z</time></trkpt><trkpt lat="42.4742083" lon="2.84946"><ele>201.0</ele><time>2026-04-08T13:41:44.919Z</time></trkpt><trkpt lat="42.4741633" lon="2.8496517"><ele>201.0</ele><time>2026-04-08T13:41:45.919Z</time></trkpt><trkpt lat="42.474135" lon="2.8498533"><ele>201.0</ele><time>2026-04-08T13:41:46.919Z</time></trkpt><trkpt lat="42.4741083" lon="2.850055"><ele>203.0</ele><time>2026-04-08T13:41:47.919Z</time></trkpt><trkpt lat="42.4740833" lon="2.85026"><ele>205.0</ele><time>2026-04-08T13:41:48.919Z</time></trkpt><trkpt lat="42.4740633" lon="2.8504617"><ele>207.0</ele><time>2026-04-08T13:41:49.918Z</time></trkpt><trkpt lat="42.4740417" lon="2.8506683"><ele>207.0</ele><time>2026-04-08T13:41:50.918Z</time></trkpt><trkpt lat="42.474025" lon="2.85087"><ele>207.0</ele><time>2026-04-08T13:41:51.919Z</time></trkpt><trkpt lat="42.474005" lon="2.8510717"><ele>207.0</ele><time>2026-04-08T13:41:52.919Z</time></trkpt><trkpt lat="42.47399" lon="2.8512733"><ele>207.0</ele><time>2026-04-08T13:41:53.919Z</time></trkpt><trkpt lat="42.4739717" lon="2.8514733"><ele>209.25</ele><time>2026-04-08T13:41:54.919Z</time></trkpt><trkpt lat="42.4739483" lon="2.85167"><ele>211.5</ele><time>2026-04-08T13:41:55.919Z</time></trkpt><trkpt lat="42.4739233" lon="2.8518667"><ele>213.75</ele><time>2026-04-08T13:41:56.919Z</time></trkpt><trkpt lat="42.4739" lon="2.8520583"><ele>216.0</ele><time>2026-04-08T13:41:57.919Z</time></trkpt><trkpt lat="42.4738567" lon="2.8522367"><ele>214.75</ele><time>2026-04-08T13:41:58.919Z</time></trkpt><trkpt lat="42.4737917" lon="2.8523933"><ele>213.5</ele><time>2026-04-08T13:41:59.919Z</time></trkpt><trkpt lat="42.4737033" lon="2.8525283"><ele>212.25</ele><time>2026-04-08T13:42:00.918Z</time></trkpt><trkpt lat="42.4736" lon="2.8526417"><ele>211.0</ele><time>2026-04-08T13:42:01.918Z</time></trkpt><trkpt lat="42.4734833" lon="2.85273"><ele>217.75</ele><time>2026-04-08T13:42:02.918Z</time></trkpt><trkpt lat="42.4733533" lon="2.8527833"><ele>224.5</ele><time>2026-04-08T13:42:03.919Z</time></trkpt><trkpt lat="42.47322" lon="2.852795"><ele>231.25</ele><time>2026-04-08T13:42:04.919Z</time></trkpt><trkpt lat="42.4730817" lon="2.85277"><ele>238.0</ele><time>2026-04-08T13:42:05.919Z</time></trkpt><trkpt lat="42.4729383" lon="2.8527033"><ele>238.0</ele><time>2026-04-08T13:42:06.919Z</time></trkpt><trkpt lat="42.4728067" lon="2.8526317"><ele>238.0</ele><time>2026-04-08T13:42:07.919Z</time></trkpt><trkpt lat="42.4726733" lon="2.852555"><ele>238.0</ele><time>2026-04-08T13:42:08.919Z</time></trkpt><trkpt lat="42.47254" lon="2.8525"><ele>238.0</ele><time>2026-04-08T13:42:09.919Z</time></trkpt><trkpt lat="42.4724033" lon="2.852475"><ele>233.25</ele><time>2026-04-08T13:42:10.919Z</time></trkpt><trkpt lat="42.4722767" lon="2.852485"><ele>228.5</ele><time>2026-04-08T13:42:11.919Z</time></trkpt><trkpt lat="42.472155" lon="2.8525283"><ele>223.75</ele><time>2026-04-08T13:42:12.919Z</time></trkpt><trkpt lat="42.472045" lon="2.852605"><ele>219.0</ele><time>2026-04-08T13:42:13.919Z</time></trkpt><trkpt lat="42.4719433" lon="2.8527083"><ele>219.0</ele><time>2026-04-08T13:42:14.919Z</time></trkpt><trkpt lat="42.47185" lon="2.8528317"><ele>219.0</ele><time>2026-04-08T13:42:15.919Z</time></trkpt><trkpt lat="42.47178" lon="2.852975"><ele>219.0</ele><time>2026-04-08T13:42:16.919Z</time></trkpt><trkpt lat="42.4717383" lon="2.8531383"><ele>219.0</ele><time>2026-04-08T13:42:17.919Z</time></trkpt><trkpt lat="42.47172" lon="2.8533117"><ele>218.0</ele><time>2026-04-08T13:42:18.918Z</time></trkpt><trkpt lat="42.4717383" lon="2.8534883"><ele>217.0</ele><time>2026-04-08T13:42:19.919Z</time></trkpt><trkpt lat="42.471775" lon="2.8536617"><ele>216.0</ele><time>2026-04-08T13:42:20.919Z</time></trkpt><trkpt lat="42.47184" lon="2.853825"><ele>215.0</ele><time>2026-04-08T13:42:21.918Z</time></trkpt><trkpt lat="42.47192" lon="2.8539667"><ele>215.0</ele><time>2026-04-08T13:42:22.919Z</time></trkpt><trkpt lat="42.47202" lon="2.8540783"><ele>215.0</ele><time>2026-04-08T13:42:23.919Z</time></trkpt><trkpt lat="42.4721383" lon="2.854155"><ele>215.0</ele><time>2026-04-08T13:42:24.919Z</time></trkpt><trkpt lat="42.472265" lon="2.8542083"><ele>215.0</ele><time>2026-04-08T13:42:25.918Z</time></trkpt><trkpt lat="42.4724133" lon="2.854245"><ele>215.0</ele><time>2026-04-08T13:42:26.919Z</time></trkpt><trkpt lat="42.4725567" lon="2.854275"><ele>215.0</ele><time>2026-04-08T13:42:27.919Z</time></trkpt><trkpt lat="42.47269" lon="2.8543233"><ele>215.0</ele><time>2026-04-08T13:42:28.919Z</time></trkpt><trkpt lat="42.4728183" lon="2.8543917"><ele>215.0</ele><time>2026-04-08T13:42:29.918Z</time></trkpt><trkpt lat="42.4729333" lon="2.8544817"><ele>220.0</ele><time>2026-04-08T13:42:30.919Z</time></trkpt><trkpt lat="42.4730467" lon="2.8545883"><ele>225.0</ele><time>2026-04-08T13:42:31.918Z</time></trkpt><trkpt lat="42.4731433" lon="2.85472"><ele>230.0</ele><time>2026-04-08T13:42:32.919Z</time></trkpt><trkpt lat="42.473225" lon="2.8548717"><ele>235.0</ele><time>2026-04-08T13:42:33.918Z</time></trkpt><trkpt lat="42.4732867" lon="2.8550467"><ele>234.25</ele><time>2026-04-08T13:42:34.918Z</time></trkpt><trkpt lat="42.47333" lon="2.8552167"><ele>233.5</ele><time>2026-04-08T13:42:35.918Z</time></trkpt><trkpt lat="42.473355" lon="2.8554017"><ele>232.75</ele><time>2026-04-08T13:42:36.919Z</time></trkpt><trkpt lat="42.4733633" lon="2.855585"><ele>232.0</ele><time>2026-04-08T13:42:37.919Z</time></trkpt><trkpt lat="42.4733633" lon="2.8557717"><ele>233.75</ele><time>2026-04-08T13:42:38.918Z</time></trkpt><trkpt lat="42.473355" lon="2.8559583"><ele>235.5</ele><time>2026-04-08T13:42:39.919Z</time></trkpt><trkpt lat="42.4733367" lon="2.85614"><ele>237.25</ele><time>2026-04-08T13:42:40.919Z</time></trkpt><trkpt lat="42.4733067" lon="2.8563117"><ele>239.0</ele><time>2026-04-08T13:42:41.919Z</time></trkpt><trkpt lat="42.473265" lon="2.856475"><ele>239.0</ele><time>2026-04-08T13:42:42.919Z</time></trkpt><trkpt lat="42.4732083" lon="2.8566267"><ele>239.0</ele><time>2026-04-08T13:42:43.919Z</time></trkpt><trkpt lat="42.473125" lon="2.8567617"><ele>239.0</ele><time>2026-04-08T13:42:44.918Z</time></trkpt><trkpt lat="42.473025" lon="2.8568867"><ele>239.0</ele><time>2026-04-08T13:42:45.918Z</time></trkpt><trkpt lat="42.4729167" lon="2.857005"><ele>241.75</ele><time>2026-04-08T13:42:46.919Z</time></trkpt><trkpt lat="42.4728117" lon="2.85712"><ele>244.5</ele><time>2026-04-08T13:42:47.919Z</time></trkpt><trkpt lat="42.4726983" lon="2.857225"><ele>247.25</ele><time>2026-04-08T13:42:48.918Z</time></trkpt><trkpt lat="42.4725917" lon="2.857325"><ele>250.0</ele><time>2026-04-08T13:42:49.918Z</time></trkpt><trkpt lat="42.4724867" lon="2.8574183"><ele>250.0</ele><time>2026-04-08T13:42:50.918Z</time></trkpt><trkpt lat="42.47239" lon="2.8575183"><ele>250.0</ele><time>2026-04-08T13:42:51.918Z</time></trkpt><trkpt lat="42.4722867" lon="2.8576083"><ele>250.0</ele><time>2026-04-08T13:42:52.919Z</time></trkpt><trkpt lat="42.47218" lon="2.8576933"><ele>250.0</ele><time>2026-04-08T13:42:53.919Z</time></trkpt><trkpt lat="42.47207" lon="2.857765"><ele>249.25</ele><time>2026-04-08T13:42:54.919Z</time></trkpt><trkpt lat="42.47196" lon="2.8578367"><ele>248.5</ele><time>2026-04-08T13:42:55.918Z</time></trkpt><trkpt lat="42.4718383" lon="2.857865"><ele>247.75</ele><time>2026-04-08T13:42:56.918Z</time></trkpt><trkpt lat="42.47172" lon="2.8578533"><ele>247.0</ele><time>2026-04-08T13:42:57.919Z</time></trkpt><trkpt lat="42.4716017" lon="2.8578183"><ele>247.0</ele><time>2026-04-08T13:42:58.919Z</time></trkpt><trkpt lat="42.471495" lon="2.857765"><ele>247.0</ele><time>2026-04-08T13:42:59.919Z</time></trkpt><trkpt lat="42.4713967" lon="2.8577067"><ele>247.0</ele><time>2026-04-08T13:43:00.919Z</time></trkpt><trkpt lat="42.4712833" lon="2.8576533"><ele>247.0</ele><time>2026-04-08T13:43:01.919Z</time></trkpt><trkpt lat="42.4711617" lon="2.8576167"><ele>244.25</ele><time>2026-04-08T13:43:02.918Z</time></trkpt><trkpt lat="42.4710417" lon="2.8575983"><ele>241.5</ele><time>2026-04-08T13:43:03.919Z</time></trkpt><trkpt lat="42.4709133" lon="2.8575917"><ele>238.75</ele><time>2026-04-08T13:43:04.918Z</time></trkpt><trkpt lat="42.4707817" lon="2.8575933"><ele>236.0</ele><time>2026-04-08T13:43:05.919Z</time></trkpt><trkpt lat="42.47064" lon="2.8575933"><ele>236.0</ele><time>2026-04-08T13:43:06.919Z</time></trkpt><trkpt lat="42.4704983" lon="2.857595"><ele>236.0</ele><time>2026-04-08T13:43:07.918Z</time></trkpt><trkpt lat="42.4703583" lon="2.857595"><ele>236.0</ele><time>2026-04-08T13:43:08.919Z</time></trkpt><trkpt lat="42.470215" lon="2.8575933"><ele>236.0</ele><time>2026-04-08T13:43:09.919Z</time></trkpt><trkpt lat="42.47007" lon="2.8575983"><ele>234.66666666666669</ele><time>2026-04-08T13:43:10.918Z</time></trkpt><trkpt lat="42.4699183" lon="2.8576133"><ele>233.33333333333331</ele><time>2026-04-08T13:43:11.919Z</time></trkpt><trkpt lat="42.46977" lon="2.857645"><ele>232.0</ele><time>2026-04-08T13:43:12.919Z</time></trkpt><trkpt lat="42.4696233" lon="2.8576917"><ele>236.5</ele><time>2026-04-08T13:43:13.919Z</time></trkpt><trkpt lat="42.46948" lon="2.857755"><ele>241.0</ele><time>2026-04-08T13:43:14.919Z</time></trkpt><trkpt lat="42.4693467" lon="2.8578333"><ele>245.5</ele><time>2026-04-08T13:43:15.919Z</time></trkpt><trkpt lat="42.46922" lon="2.8579267"><ele>250.0</ele><time>2026-04-08T13:43:16.919Z</time></trkpt><trkpt lat="42.4691017" lon="2.8580367"><ele>250.0</ele><time>2026-04-08T13:43:17.919Z</time></trkpt><trkpt lat="42.4689917" lon="2.858165"><ele>250.0</ele><time>2026-04-08T13:43:18.919Z</time></trkpt><trkpt lat="42.4688967" lon="2.8583117"><ele>250.0</ele><time>2026-04-08T13:43:19.918Z</time></trkpt><trkpt lat="42.4688033" lon="2.858475"><ele>250.0</ele><time>2026-04-08T13:43:20.919Z</time></trkpt><trkpt lat="42.4687217" lon="2.8586367"><ele>256.0</ele><time>2026-04-08T13:43:21.918Z</time></trkpt><trkpt lat="42.468655" lon="2.8588117"><ele>262.0</ele><time>2026-04-08T13:43:22.919Z</time></trkpt><trkpt lat="42.4686083" lon="2.8589817"><ele>268.0</ele><time>2026-04-08T13:43:23.918Z</time></trkpt><trkpt lat="42.4685767" lon="2.859165"><ele>274.0</ele><time>2026-04-08T13:43:24.918Z</time></trkpt><trkpt lat="42.4685517" lon="2.8593517"><ele>274.0</ele><time>2026-04-08T13:43:25.917Z</time></trkpt><trkpt lat="42.46854" lon="2.8595433"><ele>274.0</ele><time>2026-04-08T13:43:26.918Z</time></trkpt><trkpt lat="42.468535" lon="2.8597283"><ele>274.0</ele><time>2026-04-08T13:43:27.918Z</time></trkpt><trkpt lat="42.4685317" lon="2.85991"><ele>274.0</ele><time>2026-04-08T13:43:28.918Z</time></trkpt><trkpt lat="42.46852" lon="2.8600917"><ele>272.0</ele><time>2026-04-08T13:43:29.918Z</time></trkpt><trkpt lat="42.4685017" lon="2.8602767"><ele>270.0</ele><time>2026-04-08T13:43:30.918Z</time></trkpt><trkpt lat="42.468475" lon="2.8604517"><ele>268.0</ele><time>2026-04-08T13:43:31.918Z</time></trkpt><trkpt lat="42.46843" lon="2.8606183"><ele>266.0</ele><time>2026-04-08T13:43:32.918Z</time></trkpt><trkpt lat="42.4683783" lon="2.8607783"><ele>266.0</ele><time>2026-04-08T13:43:33.918Z</time></trkpt><trkpt lat="42.4683083" lon="2.8609283"><ele>266.0</ele><time>2026-04-08T13:43:34.918Z</time></trkpt><trkpt lat="42.46822" lon="2.86107"><ele>266.0</ele><time>2026-04-08T13:43:35.918Z</time></trkpt><trkpt lat="42.4681117" lon="2.8612"><ele>266.0</ele><time>2026-04-08T13:43:36.917Z</time></trkpt><trkpt lat="42.4679917" lon="2.861315"><ele>266.0</ele><time>2026-04-08T13:43:37.917Z</time></trkpt><trkpt lat="42.46787" lon="2.86142"><ele>266.0</ele><time>2026-04-08T13:43:38.918Z</time></trkpt><trkpt lat="42.467755" lon="2.8615283"><ele>266.0</ele><time>2026-04-08T13:43:39.917Z</time></trkpt><trkpt lat="42.4676467" lon="2.8616467"><ele>266.0</ele><time>2026-04-08T13:43:40.918Z</time></trkpt><trkpt lat="42.4675533" lon="2.86179"><ele>266.0</ele><time>2026-04-08T13:43:41.918Z</time></trkpt><trkpt lat="42.4674633" lon="2.861925"><ele>266.0</ele><time>2026-04-08T13:43:42.918Z</time></trkpt><trkpt lat="42.4673733" lon="2.8620533"><ele>266.0</ele><time>2026-04-08T13:43:43.918Z</time></trkpt><trkpt lat="42.4672917" lon="2.8621733"><ele>266.0</ele><time>2026-04-08T13:43:44.918Z</time></trkpt><trkpt lat="42.4671967" lon="2.8622683"><ele>269.75</ele><time>2026-04-08T13:43:45.918Z</time></trkpt><trkpt lat="42.4670917" lon="2.862345"><ele>273.5</ele><time>2026-04-08T13:43:46.918Z</time></trkpt><trkpt lat="42.4669817" lon="2.8624083"><ele>277.25</ele><time>2026-04-08T13:43:47.917Z</time></trkpt><trkpt lat="42.4668683" lon="2.862455"><ele>281.0</ele><time>2026-04-08T13:43:48.917Z</time></trkpt><trkpt lat="42.4667533" lon="2.8624917"><ele>281.0</ele><time>2026-04-08T13:43:49.918Z</time></trkpt><trkpt lat="42.46664" lon="2.8625483"><ele>281.0</ele><time>2026-04-08T13:43:50.917Z</time></trkpt><trkpt lat="42.4665333" lon="2.862615"><ele>281.0</ele><time>2026-04-08T13:43:51.917Z</time></trkpt><trkpt lat="42.4664317" lon="2.8626883"><ele>281.0</ele><time>2026-04-08T13:43:52.918Z</time></trkpt><trkpt lat="42.4663367" lon="2.8627717"><ele>282.0</ele><time>2026-04-08T13:43:53.918Z</time></trkpt><trkpt lat="42.4662483" lon="2.8628533"><ele>283.0</ele><time>2026-04-08T13:43:54.918Z</time></trkpt><trkpt lat="42.4661633" lon="2.8629283"><ele>284.0</ele><time>2026-04-08T13:43:55.917Z</time></trkpt><trkpt lat="42.4660817" lon="2.8629983"><ele>285.0</ele><time>2026-04-08T13:43:56.917Z</time></trkpt><trkpt lat="42.4660067" lon="2.8630617"><ele>286.0</ele><time>2026-04-08T13:43:57.917Z</time></trkpt><trkpt lat="42.465945" lon="2.86311"><ele>285.99999999999994</ele><time>2026-04-08T13:43:58.918Z</time></trkpt><trkpt lat="42.4658567" lon="2.8631667"><ele>286.0</ele><time>2026-04-08T13:44:00.918Z</time></trkpt><trkpt lat="42.4657967" lon="2.8632017"><ele>286.0</ele><time>2026-04-08T13:44:02.918Z</time></trkpt><trkpt lat="42.4657333" lon="2.8632167"><ele>286.0</ele><time>2026-04-08T13:44:04.918Z</time></trkpt><trkpt lat="42.46567" lon="2.8632217"><ele>286.0</ele><time>2026-04-08T13:44:06.917Z</time></trkpt><trkpt lat="42.465605" lon="2.8632317"><ele>285.99999999999994</ele><time>2026-04-08T13:44:08.917Z</time></trkpt><trkpt lat="42.4655417" lon="2.8632367"><ele>286.0</ele><time>2026-04-08T13:44:10.918Z</time></trkpt><trkpt lat="42.4654633" lon="2.8632367"><ele>286.0</ele><time>2026-04-08T13:44:12.918Z</time></trkpt><trkpt lat="42.4653817" lon="2.8632383"><ele>286.0</ele><time>2026-04-08T13:44:14.917Z</time></trkpt><trkpt lat="42.4653117" lon="2.8632233"><ele>286.0</ele><time>2026-04-08T13:44:16.918Z</time></trkpt><trkpt lat="42.4652333" lon="2.863185"><ele>286.0</ele><time>2026-04-08T13:44:18.917Z</time></trkpt><trkpt lat="42.46517" lon="2.8631617"><ele>286.0</ele><time>2026-04-08T13:44:20.917Z</time></trkpt><trkpt lat="42.4650667" lon="2.8631533"><ele>286.0</ele><time>2026-04-08T13:44:23.918Z</time></trkpt><trkpt lat="42.4649933" lon="2.8631517"><ele>286.0</ele><time>2026-04-08T13:44:25.918Z</time></trkpt><trkpt lat="42.4648383" lon="2.8631467"><ele>286.0</ele><time>2026-04-08T13:44:29.917Z</time></trkpt><trkpt lat="42.4647517" lon="2.8631433"><ele>286.0</ele><time>2026-04-08T13:44:31.918Z</time></trkpt><trkpt lat="42.4646567" lon="2.8631483"><ele>286.0</ele><time>2026-04-08T13:44:33.918Z</time></trkpt><trkpt lat="42.4644967" lon="2.8631333"><ele>285.4285714285714</ele><time>2026-04-08T13:44:41.918Z</time></trkpt><trkpt lat="42.4644317" lon="2.863125"><ele>284.85714285714283</ele><time>2026-04-08T13:44:46.917Z</time></trkpt><trkpt lat="42.4643483" lon="2.8631283"><ele>284.2857142857143</ele><time>2026-04-08T13:44:49.918Z</time></trkpt><trkpt lat="42.4642767" lon="2.8631367"><ele>283.71428571428567</ele><time>2026-04-08T13:44:51.918Z</time></trkpt><trkpt lat="42.4642" lon="2.863155"><ele>283.1428571428571</ele><time>2026-04-08T13:44:53.918Z</time></trkpt><trkpt lat="42.4641367" lon="2.86317"><ele>282.57142857142856</ele><time>2026-04-08T13:44:55.918Z</time></trkpt><trkpt lat="42.4640667" lon="2.86319"><ele>282.0</ele><time>2026-04-08T13:44:58.918Z</time></trkpt><trkpt lat="42.464" lon="2.86322"><ele>282.0</ele><time>2026-04-08T13:45:02.918Z</time></trkpt><trkpt lat="42.4639367" lon="2.863235"><ele>282.0</ele><time>2026-04-08T13:45:08.917Z</time></trkpt><trkpt lat="42.46386" lon="2.8632767"><ele>282.0</ele><time>2026-04-08T13:45:11.918Z</time></trkpt><trkpt lat="42.4637867" lon="2.8633017"><ele>282.0</ele><time>2026-04-08T13:45:13.918Z</time></trkpt><trkpt lat="42.463705" lon="2.8633283"><ele>282.0</ele><time>2026-04-08T13:45:15.918Z</time></trkpt><trkpt lat="42.463595" lon="2.8633717"><ele>282.0</ele><time>2026-04-08T13:45:17.918Z</time></trkpt><trkpt lat="42.463475" lon="2.8634133"><ele>282.1666666666667</ele><time>2026-04-08T13:45:19.917Z</time></trkpt><trkpt lat="42.46341" lon="2.8634383"><ele>282.3333333333333</ele><time>2026-04-08T13:45:20.918Z</time></trkpt><trkpt lat="42.4632833" lon="2.86348"><ele>282.5</ele><time>2026-04-08T13:45:22.918Z</time></trkpt><trkpt lat="42.463215" lon="2.8635017"><ele>282.66666666666663</ele><time>2026-04-08T13:45:23.918Z</time></trkpt><trkpt lat="42.463145" lon="2.8635217"><ele>282.8333333333333</ele><time>2026-04-08T13:45:24.917Z</time></trkpt><trkpt lat="42.4630783" lon="2.86354"><ele>283.0</ele><time>2026-04-08T13:45:25.918Z</time></trkpt><trkpt lat="42.4630117" lon="2.8635633"><ele>281.57142857142856</ele><time>2026-04-08T13:45:26.918Z</time></trkpt><trkpt lat="42.4629367" lon="2.8635817"><ele>280.14285714285717</ele><time>2026-04-08T13:45:27.918Z</time></trkpt><trkpt lat="42.4628667" lon="2.8636017"><ele>278.7142857142857</ele><time>2026-04-08T13:45:28.918Z</time></trkpt><trkpt lat="42.4627883" lon="2.8636017"><ele>277.2857142857143</ele><time>2026-04-08T13:45:29.918Z</time></trkpt><trkpt lat="42.4627167" lon="2.863615"><ele>275.8571428571429</ele><time>2026-04-08T13:45:30.918Z</time></trkpt><trkpt lat="42.4626517" lon="2.863635"><ele>274.42857142857144</ele><time>2026-04-08T13:45:31.918Z</time></trkpt><trkpt lat="42.4625867" lon="2.8636567"><ele>273.0</ele><time>2026-04-08T13:45:32.918Z</time></trkpt><trkpt lat="42.4625167" lon="2.863675"><ele>273.0</ele><time>2026-04-08T13:45:33.918Z</time></trkpt><trkpt lat="42.4624433" lon="2.8636933"><ele>273.0</ele><time>2026-04-08T13:45:34.919Z</time></trkpt><trkpt lat="42.46237" lon="2.8637133"><ele>273.0</ele><time>2026-04-08T13:45:35.919Z</time></trkpt><trkpt lat="42.4623" lon="2.8637333"><ele>273.0</ele><time>2026-04-08T13:45:36.919Z</time></trkpt><trkpt lat="42.4622367" lon="2.8637517"><ele>273.0</ele><time>2026-04-08T13:45:37.919Z</time></trkpt><trkpt lat="42.4621717" lon="2.8637717"><ele>273.0</ele><time>2026-04-08T13:45:38.919Z</time></trkpt><trkpt lat="42.462095" lon="2.8637983"><ele>273.0</ele><time>2026-04-08T13:45:39.919Z</time></trkpt><trkpt lat="42.4620117" lon="2.863825"><ele>272.0</ele><time>2026-04-08T13:45:40.919Z</time></trkpt><trkpt lat="42.46192" lon="2.8638567"><ele>271.0</ele><time>2026-04-08T13:45:41.919Z</time></trkpt><trkpt lat="42.4618233" lon="2.863885"><ele>270.0</ele><time>2026-04-08T13:45:42.919Z</time></trkpt><trkpt lat="42.4617283" lon="2.8639133"><ele>269.0</ele><time>2026-04-08T13:45:43.919Z</time></trkpt><trkpt lat="42.4616317" lon="2.8639417"><ele>268.0</ele><time>2026-04-08T13:45:44.918Z</time></trkpt><trkpt lat="42.4615467" lon="2.8639617"><ele>268.0</ele><time>2026-04-08T13:45:45.919Z</time></trkpt><trkpt lat="42.4614683" lon="2.8639833"><ele>268.0</ele><time>2026-04-08T13:45:46.919Z</time></trkpt><trkpt lat="42.46139" lon="2.8640033"><ele>268.0</ele><time>2026-04-08T13:45:47.919Z</time></trkpt><trkpt lat="42.4613167" lon="2.8640183"><ele>268.0</ele><time>2026-04-08T13:45:48.919Z</time></trkpt><trkpt lat="42.46125" lon="2.8640233"><ele>268.0</ele><time>2026-04-08T13:45:49.919Z</time></trkpt><trkpt lat="42.461185" lon="2.86404"><ele>268.0</ele><time>2026-04-08T13:45:50.919Z</time></trkpt><trkpt lat="42.4611233" lon="2.86406"><ele>268.0</ele><time>2026-04-08T13:45:51.918Z</time></trkpt><trkpt lat="42.46106" lon="2.8640783"><ele>266.6</ele><time>2026-04-08T13:45:52.919Z</time></trkpt><trkpt lat="42.460985" lon="2.8641"><ele>265.20000000000005</ele><time>2026-04-08T13:45:53.919Z</time></trkpt><trkpt lat="42.4609017" lon="2.864125"><ele>263.8</ele><time>2026-04-08T13:45:54.919Z</time></trkpt><trkpt lat="42.4608" lon="2.86413"><ele>262.40000000000003</ele><time>2026-04-08T13:45:55.919Z</time></trkpt><trkpt lat="42.460695" lon="2.8641367"><ele>261.0</ele><time>2026-04-08T13:45:56.919Z</time></trkpt><trkpt lat="42.4605917" lon="2.8641567"><ele>261.0</ele><time>2026-04-08T13:45:57.919Z</time></trkpt><trkpt lat="42.460495" lon="2.8641667"><ele>261.0</ele><time>2026-04-08T13:45:58.919Z</time></trkpt><trkpt lat="42.46039" lon="2.8641667"><ele>261.0</ele><time>2026-04-08T13:45:59.919Z</time></trkpt><trkpt lat="42.4602817" lon="2.864155"><ele>261.0</ele><time>2026-04-08T13:46:00.919Z</time></trkpt><trkpt lat="42.46018" lon="2.864135"><ele>261.0</ele><time>2026-04-08T13:46:01.919Z</time></trkpt><trkpt lat="42.46007" lon="2.8641183"><ele>259.2</ele><time>2026-04-08T13:46:02.919Z</time></trkpt><trkpt lat="42.45996" lon="2.8641017"><ele>257.40000000000003</ele><time>2026-04-08T13:46:03.919Z</time></trkpt><trkpt lat="42.459855" lon="2.864095"><ele>255.6</ele><time>2026-04-08T13:46:04.919Z</time></trkpt><trkpt lat="42.459755" lon="2.8640933"><ele>253.8</ele><time>2026-04-08T13:46:05.919Z</time></trkpt><trkpt lat="42.4596583" lon="2.8640883"><ele>252.0</ele><time>2026-04-08T13:46:06.919Z</time></trkpt><trkpt lat="42.4595633" lon="2.8640833"><ele>251.66666666666666</ele><time>2026-04-08T13:46:07.919Z</time></trkpt><trkpt lat="42.459475" lon="2.8640883"><ele>251.33333333333331</ele><time>2026-04-08T13:46:08.919Z</time></trkpt><trkpt lat="42.4593867" lon="2.8640917"><ele>251.0</ele><time>2026-04-08T13:46:09.919Z</time></trkpt><trkpt lat="42.459305" lon="2.8640933"><ele>250.66666666666666</ele><time>2026-04-08T13:46:10.918Z</time></trkpt><trkpt lat="42.45922" lon="2.86409"><ele>250.33333333333331</ele><time>2026-04-08T13:46:11.919Z</time></trkpt><trkpt lat="42.4591333" lon="2.8641083"><ele>250.0</ele><time>2026-04-08T13:46:12.919Z</time></trkpt><trkpt lat="42.459045" lon="2.8641317"><ele>250.0</ele><time>2026-04-08T13:46:13.919Z</time></trkpt><trkpt lat="42.45895" lon="2.8641467"><ele>250.0</ele><time>2026-04-08T13:46:14.919Z</time></trkpt><trkpt lat="42.4588483" lon="2.86418"><ele>250.0</ele><time>2026-04-08T13:46:15.919Z</time></trkpt><trkpt lat="42.4587383" lon="2.8642267"><ele>250.0</ele><time>2026-04-08T13:46:16.919Z</time></trkpt><trkpt lat="42.4586267" lon="2.8642983"><ele>250.0</ele><time>2026-04-08T13:46:17.918Z</time></trkpt><trkpt lat="42.4585083" lon="2.86437"><ele>249.25</ele><time>2026-04-08T13:46:18.919Z</time></trkpt><trkpt lat="42.45838" lon="2.8644533"><ele>248.5</ele><time>2026-04-08T13:46:19.919Z</time></trkpt><trkpt lat="42.45824" lon="2.8645217"><ele>247.75</ele><time>2026-04-08T13:46:20.919Z</time></trkpt><trkpt lat="42.4580917" lon="2.8645833"><ele>247.0</ele><time>2026-04-08T13:46:21.919Z</time></trkpt><trkpt lat="42.457935" lon="2.864635"><ele>247.0</ele><time>2026-04-08T13:46:22.919Z</time></trkpt><trkpt lat="42.4577733" lon="2.8646817"><ele>247.0</ele><time>2026-04-08T13:46:23.919Z</time></trkpt><trkpt lat="42.457605" lon="2.8647217"><ele>247.0</ele><time>2026-04-08T13:46:24.918Z</time></trkpt><trkpt lat="42.4574367" lon="2.8647617"><ele>247.0</ele><time>2026-04-08T13:46:25.919Z</time></trkpt><trkpt lat="42.457265" lon="2.8648033"><ele>247.0</ele><time>2026-04-08T13:46:26.919Z</time></trkpt><trkpt lat="42.4570883" lon="2.8648483"><ele>247.0</ele><time>2026-04-08T13:46:27.919Z</time></trkpt><trkpt lat="42.4569067" lon="2.8648933"><ele>243.33333333333331</ele><time>2026-04-08T13:46:28.919Z</time></trkpt><trkpt lat="42.4567267" lon="2.864935"><ele>239.66666666666669</ele><time>2026-04-08T13:46:29.919Z</time></trkpt><trkpt lat="42.45654" lon="2.8649633"><ele>236.0</ele><time>2026-04-08T13:46:30.919Z</time></trkpt><trkpt lat="42.4563533" lon="2.8649817"><ele>234.0</ele><time>2026-04-08T13:46:31.919Z</time></trkpt><trkpt lat="42.4561667" lon="2.864985"><ele>232.0</ele><time>2026-04-08T13:46:32.919Z</time></trkpt><trkpt lat="42.4559733" lon="2.8649833"><ele>230.0</ele><time>2026-04-08T13:46:33.918Z</time></trkpt><trkpt lat="42.4557733" lon="2.86498"><ele>230.0</ele><time>2026-04-08T13:46:34.919Z</time></trkpt><trkpt lat="42.4555633" lon="2.864985"><ele>230.0</ele><time>2026-04-08T13:46:35.919Z</time></trkpt><trkpt lat="42.455355" lon="2.8649883"><ele>230.0</ele><time>2026-04-08T13:46:36.918Z</time></trkpt><trkpt lat="42.4551583" lon="2.8649883"><ele>229.66666666666669</ele><time>2026-04-08T13:46:37.919Z</time></trkpt><trkpt lat="42.4549567" lon="2.8649883"><ele>229.33333333333331</ele><time>2026-04-08T13:46:38.919Z</time></trkpt><trkpt lat="42.454755" lon="2.86499"><ele>229.0</ele><time>2026-04-08T13:46:39.919Z</time></trkpt><trkpt lat="42.4545567" lon="2.8649883"><ele>227.66666666666666</ele><time>2026-04-08T13:46:40.919Z</time></trkpt><trkpt lat="42.4543483" lon="2.8650017"><ele>226.33333333333331</ele><time>2026-04-08T13:46:41.919Z</time></trkpt><trkpt lat="42.4541483" lon="2.865005"><ele>225.0</ele><time>2026-04-08T13:46:42.919Z</time></trkpt><trkpt lat="42.4539517" lon="2.865015"><ele>226.33333333333331</ele><time>2026-04-08T13:46:43.919Z</time></trkpt><trkpt lat="42.45376" lon="2.865025"><ele>227.66666666666666</ele><time>2026-04-08T13:46:44.919Z</time></trkpt><trkpt lat="42.4535617" lon="2.8650417"><ele>229.0</ele><time>2026-04-08T13:46:45.919Z</time></trkpt><trkpt lat="42.453365" lon="2.8650883"><ele>224.33333333333331</ele><time>2026-04-08T13:46:46.918Z</time></trkpt><trkpt lat="42.4531817" lon="2.8651467"><ele>219.66666666666669</ele><time>2026-04-08T13:46:47.918Z</time></trkpt><trkpt lat="42.4530067" lon="2.8652283"><ele>215.0</ele><time>2026-04-08T13:46:48.919Z</time></trkpt><trkpt lat="42.4528417" lon="2.8653383"><ele>215.0</ele><time>2026-04-08T13:46:49.919Z</time></trkpt><trkpt lat="42.4526867" lon="2.8654617"><ele>215.0</ele><time>2026-04-08T13:46:50.918Z</time></trkpt><trkpt lat="42.45255" lon="2.8655983"><ele>215.0</ele><time>2026-04-08T13:46:51.918Z</time></trkpt><trkpt lat="42.4524283" lon="2.8657567"><ele>215.0</ele><time>2026-04-08T13:46:52.919Z</time></trkpt><trkpt lat="42.4523083" lon="2.8659133"><ele>215.0</ele><time>2026-04-08T13:46:53.919Z</time></trkpt><trkpt lat="42.4521817" lon="2.8660633"><ele>215.0</ele><time>2026-04-08T13:46:54.918Z</time></trkpt><trkpt lat="42.45205" lon="2.8661917"><ele>212.0</ele><time>2026-04-08T13:46:55.919Z</time></trkpt><trkpt lat="42.4518983" lon="2.8662983"><ele>209.0</ele><time>2026-04-08T13:46:56.918Z</time></trkpt><trkpt lat="42.451735" lon="2.8663867"><ele>206.0</ele><time>2026-04-08T13:46:57.919Z</time></trkpt><trkpt lat="42.4515583" lon="2.8664483"><ele>206.0</ele><time>2026-04-08T13:46:58.919Z</time></trkpt><trkpt lat="42.45138" lon="2.8664867"><ele>206.0</ele><time>2026-04-08T13:46:59.919Z</time></trkpt><trkpt lat="42.4511883" lon="2.8665033"><ele>206.0</ele><time>2026-04-08T13:47:00.919Z</time></trkpt><trkpt lat="42.4509917" lon="2.866505"><ele>205.33333333333334</ele><time>2026-04-08T13:47:01.918Z</time></trkpt><trkpt lat="42.4508" lon="2.8664833"><ele>204.66666666666669</ele><time>2026-04-08T13:47:02.919Z</time></trkpt><trkpt lat="42.4506067" lon="2.8664367"><ele>204.0</ele><time>2026-04-08T13:47:03.919Z</time></trkpt><trkpt lat="42.4504183" lon="2.8663433"><ele>202.0</ele><time>2026-04-08T13:47:04.919Z</time></trkpt><trkpt lat="42.4502283" lon="2.8662433"><ele>200.0</ele><time>2026-04-08T13:47:05.918Z</time></trkpt><trkpt lat="42.4500317" lon="2.8661533"><ele>198.0</ele><time>2026-04-08T13:47:06.919Z</time></trkpt><trkpt lat="42.4498367" lon="2.8660767"><ele>198.0</ele><time>2026-04-08T13:47:07.919Z</time></trkpt><trkpt lat="42.44964" lon="2.8660033"><ele>198.0</ele><time>2026-04-08T13:47:08.919Z</time></trkpt><trkpt lat="42.4494417" lon="2.8659417"><ele>198.0</ele><time>2026-04-08T13:47:09.919Z</time></trkpt><trkpt lat="42.4492483" lon="2.8658783"><ele>197.33333333333331</ele><time>2026-04-08T13:47:10.918Z</time></trkpt><trkpt lat="42.4490567" lon="2.8658267"><ele>196.66666666666666</ele><time>2026-04-08T13:47:11.918Z</time></trkpt><trkpt lat="42.4488533" lon="2.8657967"><ele>196.0</ele><time>2026-04-08T13:47:12.919Z</time></trkpt><trkpt lat="42.448655" lon="2.86577"><ele>195.66666666666666</ele><time>2026-04-08T13:47:13.919Z</time></trkpt><trkpt lat="42.4484583" lon="2.8657583"><ele>195.33333333333331</ele><time>2026-04-08T13:47:14.919Z</time></trkpt><trkpt lat="42.4482667" lon="2.8657733"><ele>195.0</ele><time>2026-04-08T13:47:15.919Z</time></trkpt><trkpt lat="42.4480717" lon="2.8657967"><ele>193.66666666666666</ele><time>2026-04-08T13:47:16.918Z</time></trkpt><trkpt lat="42.4478767" lon="2.8658267"><ele>192.33333333333331</ele><time>2026-04-08T13:47:17.919Z</time></trkpt><trkpt lat="42.4476767" lon="2.8658683"><ele>191.0</ele><time>2026-04-08T13:47:18.919Z</time></trkpt><trkpt lat="42.4474817" lon="2.8659267"><ele>192.33333333333331</ele><time>2026-04-08T13:47:19.919Z</time></trkpt><trkpt lat="42.447285" lon="2.8660017"><ele>193.66666666666666</ele><time>2026-04-08T13:47:20.918Z</time></trkpt><trkpt lat="42.4470883" lon="2.8660867"><ele>195.0</ele><time>2026-04-08T13:47:21.919Z</time></trkpt><trkpt lat="42.4468983" lon="2.8661783"><ele>195.0</ele><time>2026-04-08T13:47:22.919Z</time></trkpt><trkpt lat="42.4467083" lon="2.86627"><ele>195.0</ele><time>2026-04-08T13:47:23.919Z</time></trkpt><trkpt lat="42.4465217" lon="2.866365"><ele>195.0</ele><time>2026-04-08T13:47:24.918Z</time></trkpt><trkpt lat="42.4463383" lon="2.86646"><ele>191.66666666666666</ele><time>2026-04-08T13:47:25.919Z</time></trkpt><trkpt lat="42.4461583" lon="2.8665483"><ele>188.33333333333331</ele><time>2026-04-08T13:47:26.919Z</time></trkpt><trkpt lat="42.4459817" lon="2.866635"><ele>185.0</ele><time>2026-04-08T13:47:27.918Z</time></trkpt><trkpt lat="42.445805" lon="2.8667183"><ele>186.0</ele><time>2026-04-08T13:47:28.918Z</time></trkpt><trkpt lat="42.4456217" lon="2.8667917"><ele>187.0</ele><time>2026-04-08T13:47:29.918Z</time></trkpt><trkpt lat="42.4454367" lon="2.8668467"><ele>188.0</ele><time>2026-04-08T13:47:30.918Z</time></trkpt><trkpt lat="42.4452633" lon="2.8668767"><ele>188.0</ele><time>2026-04-08T13:47:31.918Z</time></trkpt><trkpt lat="42.4450767" lon="2.8668933"><ele>188.0</ele><time>2026-04-08T13:47:32.918Z</time></trkpt><trkpt lat="42.4448933" lon="2.8668867"><ele>188.0</ele><time>2026-04-08T13:47:33.918Z</time></trkpt><trkpt lat="42.4447117" lon="2.8668617"><ele>188.33333333333331</ele><time>2026-04-08T13:47:34.917Z</time></trkpt><trkpt lat="42.4445267" lon="2.8668233"><ele>188.66666666666666</ele><time>2026-04-08T13:47:35.918Z</time></trkpt><trkpt lat="42.4443433" lon="2.86678"><ele>189.0</ele><time>2026-04-08T13:47:36.918Z</time></trkpt><trkpt lat="42.4441617" lon="2.8667283"><ele>188.0</ele><time>2026-04-08T13:47:37.918Z</time></trkpt><trkpt lat="42.4439783" lon="2.8666783"><ele>187.0</ele><time>2026-04-08T13:47:38.918Z</time></trkpt><trkpt lat="42.44379" lon="2.8666283"><ele>186.0</ele><time>2026-04-08T13:47:39.918Z</time></trkpt><trkpt lat="42.4435967" lon="2.8665767"><ele>184.66666666666666</ele><time>2026-04-08T13:47:40.917Z</time></trkpt><trkpt lat="42.443405" lon="2.8665267"><ele>183.33333333333331</ele><time>2026-04-08T13:47:41.917Z</time></trkpt><trkpt lat="42.44321" lon="2.8664767"><ele>182.0</ele><time>2026-04-08T13:47:42.917Z</time></trkpt><trkpt lat="42.443015" lon="2.8664317"><ele>180.66666666666666</ele><time>2026-04-08T13:47:43.917Z</time></trkpt><trkpt lat="42.4428233" lon="2.8663867"><ele>179.33333333333334</ele><time>2026-04-08T13:47:44.917Z</time></trkpt><trkpt lat="42.4426417" lon="2.8663433"><ele>178.0</ele><time>2026-04-08T13:47:45.918Z</time></trkpt><trkpt lat="42.442465" lon="2.8663033"><ele>178.0</ele><time>2026-04-08T13:47:46.917Z</time></trkpt><trkpt lat="42.4422817" lon="2.86626"><ele>178.0</ele><time>2026-04-08T13:47:47.918Z</time></trkpt><trkpt lat="42.4421017" lon="2.8662167"><ele>178.0</ele><time>2026-04-08T13:47:48.918Z</time></trkpt><trkpt lat="42.441915" lon="2.86617"><ele>177.0</ele><time>2026-04-08T13:47:49.918Z</time></trkpt><trkpt lat="42.441725" lon="2.8661233"><ele>176.0</ele><time>2026-04-08T13:47:50.918Z</time></trkpt><trkpt lat="42.4415367" lon="2.8660833"><ele>175.0</ele><time>2026-04-08T13:47:51.918Z</time></trkpt><trkpt lat="42.4413433" lon="2.866045"><ele>175.0</ele><time>2026-04-08T13:47:52.918Z</time></trkpt><trkpt lat="42.4411467" lon="2.866005"><ele>175.0</ele><time>2026-04-08T13:47:53.918Z</time></trkpt><trkpt lat="42.440955" lon="2.8659667"><ele>175.0</ele><time>2026-04-08T13:47:54.917Z</time></trkpt><trkpt lat="42.440755" lon="2.8659267"><ele>171.33333333333334</ele><time>2026-04-08T13:47:55.918Z</time></trkpt><trkpt lat="42.4405617" lon="2.8658817"><ele>167.66666666666666</ele><time>2026-04-08T13:47:56.917Z</time></trkpt><trkpt lat="42.4403683" lon="2.865835"><ele>164.0</ele><time>2026-04-08T13:47:57.918Z</time></trkpt><trkpt lat="42.4401733" lon="2.8657867"><ele>164.0</ele><time>2026-04-08T13:47:58.918Z</time></trkpt><trkpt lat="42.4399817" lon="2.8657383"><ele>164.0</ele><time>2026-04-08T13:47:59.918Z</time></trkpt><trkpt lat="42.43979" lon="2.8656917"><ele>164.0</ele><time>2026-04-08T13:48:00.918Z</time></trkpt><trkpt lat="42.4395983" lon="2.8656433"><ele>164.66666666666666</ele><time>2026-04-08T13:48:01.918Z</time></trkpt><trkpt lat="42.439405" lon="2.8655967"><ele>165.33333333333334</ele><time>2026-04-08T13:48:02.918Z</time></trkpt><trkpt lat="42.4392117" lon="2.86555"><ele>166.0</ele><time>2026-04-08T13:48:03.918Z</time></trkpt><trkpt lat="42.4390167" lon="2.8655017"><ele>166.0</ele><time>2026-04-08T13:48:04.918Z</time></trkpt><trkpt lat="42.4388183" lon="2.8654567"><ele>166.0</ele><time>2026-04-08T13:48:05.918Z</time></trkpt><trkpt lat="42.4386183" lon="2.8654067"><ele>166.0</ele><time>2026-04-08T13:48:06.918Z</time></trkpt><trkpt lat="42.43842" lon="2.8653583"><ele>167.33333333333334</ele><time>2026-04-08T13:48:07.918Z</time></trkpt><trkpt lat="42.4382267" lon="2.865315"><ele>168.66666666666666</ele><time>2026-04-08T13:48:08.917Z</time></trkpt><trkpt lat="42.4380333" lon="2.86527"><ele>170.0</ele><time>2026-04-08T13:48:09.918Z</time></trkpt><trkpt lat="42.4378383" lon="2.8652267"><ele>170.0</ele><time>2026-04-08T13:48:10.918Z</time></trkpt><trkpt lat="42.43765" lon="2.8651867"><ele>170.0</ele><time>2026-04-08T13:48:11.917Z</time></trkpt><trkpt lat="42.4374583" lon="2.86515"><ele>170.0</ele><time>2026-04-08T13:48:12.918Z</time></trkpt><trkpt lat="42.4372783" lon="2.8651117"><ele>167.66666666666666</ele><time>2026-04-08T13:48:13.918Z</time></trkpt><trkpt lat="42.4371017" lon="2.865075"><ele>165.33333333333334</ele><time>2026-04-08T13:48:14.918Z</time></trkpt><trkpt lat="42.4369133" lon="2.865045"><ele>163.0</ele><time>2026-04-08T13:48:15.918Z</time></trkpt><trkpt lat="42.436735" lon="2.8650317"><ele>163.0</ele><time>2026-04-08T13:48:16.917Z</time></trkpt><trkpt lat="42.43657" lon="2.8650267"><ele>163.0</ele><time>2026-04-08T13:48:17.918Z</time></trkpt><trkpt lat="42.436405" lon="2.8650283"><ele>163.0</ele><time>2026-04-08T13:48:18.918Z</time></trkpt><trkpt lat="42.4362433" lon="2.8650317"><ele>163.66666666666669</ele><time>2026-04-08T13:48:19.918Z</time></trkpt><trkpt lat="42.4360817" lon="2.8650367"><ele>164.33333333333334</ele><time>2026-04-08T13:48:20.918Z</time></trkpt><trkpt lat="42.43592" lon="2.865045"><ele>165.0</ele><time>2026-04-08T13:48:21.917Z</time></trkpt><trkpt lat="42.4357567" lon="2.8650517"><ele>165.0</ele><time>2026-04-08T13:48:22.918Z</time></trkpt><trkpt lat="42.4355917" lon="2.86506"><ele>165.0</ele><time>2026-04-08T13:48:23.918Z</time></trkpt><trkpt lat="42.4354267" lon="2.8650683"><ele>165.0</ele><time>2026-04-08T13:48:24.918Z</time></trkpt><trkpt lat="42.435265" lon="2.865085"><ele>164.66666666666666</ele><time>2026-04-08T13:48:25.918Z</time></trkpt><trkpt lat="42.4351033" lon="2.8651017"><ele>164.33333333333331</ele><time>2026-04-08T13:48:26.918Z</time></trkpt><trkpt lat="42.4349433" lon="2.8651267"><ele>164.0</ele><time>2026-04-08T13:48:27.918Z</time></trkpt><trkpt lat="42.434785" lon="2.86516"><ele>162.0</ele><time>2026-04-08T13:48:28.918Z</time></trkpt><trkpt lat="42.4346333" lon="2.8652017"><ele>160.0</ele><time>2026-04-08T13:48:29.918Z</time></trkpt><trkpt lat="42.4344933" lon="2.8652533"><ele>158.0</ele><time>2026-04-08T13:48:30.918Z</time></trkpt><trkpt lat="42.4343683" lon="2.8653083"><ele>156.0</ele><time>2026-04-08T13:48:31.918Z</time></trkpt><trkpt lat="42.4342633" lon="2.8653567"><ele>156.0</ele><time>2026-04-08T13:48:32.918Z</time></trkpt><trkpt lat="42.4341783" lon="2.865405"><ele>156.0</ele><time>2026-04-08T13:48:33.918Z</time></trkpt><trkpt lat="42.4341067" lon="2.8654467"><ele>156.0</ele><time>2026-04-08T13:48:34.918Z</time></trkpt><trkpt lat="42.434005" lon="2.8655317"><ele>156.0</ele><time>2026-04-08T13:48:36.917Z</time></trkpt><trkpt lat="42.4339067" lon="2.865615"><ele>156.0</ele><time>2026-04-08T13:48:38.918Z</time></trkpt><trkpt lat="42.4338083" lon="2.8656733"><ele>154.83333333333334</ele><time>2026-04-08T13:48:40.918Z</time></trkpt><trkpt lat="42.4337317" lon="2.86569"><ele>153.66666666666666</ele><time>2026-04-08T13:48:42.918Z</time></trkpt><trkpt lat="42.433645" lon="2.8656767"><ele>152.5</ele><time>2026-04-08T13:48:44.917Z</time></trkpt><trkpt lat="42.43358" lon="2.86567"><ele>151.33333333333331</ele><time>2026-04-08T13:48:45.917Z</time></trkpt><trkpt lat="42.4334983" lon="2.86567"><ele>150.16666666666666</ele><time>2026-04-08T13:48:46.917Z</time></trkpt><trkpt lat="42.4334117" lon="2.8657017"><ele>149.0</ele><time>2026-04-08T13:48:47.918Z</time></trkpt><trkpt lat="42.4333283" lon="2.8657633"><ele>149.0</ele><time>2026-04-08T13:48:48.918Z</time></trkpt><trkpt lat="42.4332433" lon="2.865865"><ele>149.0</ele><time>2026-04-08T13:48:49.918Z</time></trkpt><trkpt lat="42.4331683" lon="2.8659667"><ele>149.0</ele><time>2026-04-08T13:48:50.917Z</time></trkpt><trkpt lat="42.433085" lon="2.86604"><ele>149.0</ele><time>2026-04-08T13:48:51.918Z</time></trkpt><trkpt lat="42.4329867" lon="2.866085"><ele>149.0</ele><time>2026-04-08T13:48:52.917Z</time></trkpt><trkpt lat="42.43288" lon="2.8661083"><ele>148.25</ele><time>2026-04-08T13:48:53.917Z</time></trkpt><trkpt lat="42.4327633" lon="2.8661233"><ele>147.5</ele><time>2026-04-08T13:48:54.918Z</time></trkpt><trkpt lat="42.4326333" lon="2.8661467"><ele>146.75</ele><time>2026-04-08T13:48:55.917Z</time></trkpt><trkpt lat="42.4324933" lon="2.866185"><ele>146.0</ele><time>2026-04-08T13:48:56.918Z</time></trkpt><trkpt lat="42.43235" lon="2.8662267"><ele>146.0</ele><time>2026-04-08T13:48:57.917Z</time></trkpt><trkpt lat="42.4322067" lon="2.8662817"><ele>146.0</ele><time>2026-04-08T13:48:58.918Z</time></trkpt><trkpt lat="42.4320583" lon="2.8663417"><ele>146.0</ele><time>2026-04-08T13:48:59.918Z</time></trkpt><trkpt lat="42.4319083" lon="2.8664017"><ele>144.33333333333331</ele><time>2026-04-08T13:49:00.917Z</time></trkpt><trkpt lat="42.4317583" lon="2.8664667"><ele>142.66666666666666</ele><time>2026-04-08T13:49:01.918Z</time></trkpt><trkpt lat="42.4316" lon="2.8665383"><ele>141.0</ele><time>2026-04-08T13:49:02.918Z</time></trkpt><trkpt lat="42.43144" lon="2.86661"><ele>139.66666666666666</ele><time>2026-04-08T13:49:03.918Z</time></trkpt><trkpt lat="42.431285" lon="2.8666833"><ele>138.33333333333331</ele><time>2026-04-08T13:49:04.917Z</time></trkpt><trkpt lat="42.4311267" lon="2.8667517"><ele>137.0</ele><time>2026-04-08T13:49:05.918Z</time></trkpt><trkpt lat="42.43098" lon="2.866815"><ele>137.0</ele><time>2026-04-08T13:49:06.918Z</time></trkpt><trkpt lat="42.43084" lon="2.8668633"><ele>137.0</ele><time>2026-04-08T13:49:07.918Z</time></trkpt><trkpt lat="42.4306967" lon="2.86688"><ele>137.0</ele><time>2026-04-08T13:49:08.918Z</time></trkpt><trkpt lat="42.430555" lon="2.866875"><ele>137.0</ele><time>2026-04-08T13:49:09.918Z</time></trkpt><trkpt lat="42.4304083" lon="2.8668583"><ele>136.5</ele><time>2026-04-08T13:49:10.918Z</time></trkpt><trkpt lat="42.43027" lon="2.86686"><ele>136.0</ele><time>2026-04-08T13:49:11.918Z</time></trkpt><trkpt lat="42.4301383" lon="2.8668833"><ele>135.5</ele><time>2026-04-08T13:49:12.918Z</time></trkpt><trkpt lat="42.4300183" lon="2.8669367"><ele>135.0</ele><time>2026-04-08T13:49:13.918Z</time></trkpt><trkpt lat="42.4298967" lon="2.8669933"><ele>135.0</ele><time>2026-04-08T13:49:14.918Z</time></trkpt><trkpt lat="42.429775" lon="2.86705"><ele>135.0</ele><time>2026-04-08T13:49:15.918Z</time></trkpt><trkpt lat="42.4296533" lon="2.8671067"><ele>135.0</ele><time>2026-04-08T13:49:16.917Z</time></trkpt><trkpt lat="42.4295317" lon="2.867165"><ele>135.0</ele><time>2026-04-08T13:49:17.917Z</time></trkpt><trkpt lat="42.4294217" lon="2.8672333"><ele>134.8</ele><time>2026-04-08T13:49:18.918Z</time></trkpt><trkpt lat="42.4293233" lon="2.8673183"><ele>134.6</ele><time>2026-04-08T13:49:19.918Z</time></trkpt><trkpt lat="42.4292417" lon="2.86742"><ele>134.4</ele><time>2026-04-08T13:49:20.917Z</time></trkpt><trkpt lat="42.4291633" lon="2.8675183"><ele>134.2</ele><time>2026-04-08T13:49:21.918Z</time></trkpt><trkpt lat="42.4290867" lon="2.8676033"><ele>134.0</ele><time>2026-04-08T13:49:22.917Z</time></trkpt><trkpt lat="42.4290267" lon="2.8676733"><ele>134.0</ele><time>2026-04-08T13:49:23.918Z</time></trkpt><trkpt lat="42.4289433" lon="2.867745"><ele>134.0</ele><time>2026-04-08T13:49:25.918Z</time></trkpt><trkpt lat="42.428825" lon="2.867815"><ele>134.0</ele><time>2026-04-08T13:49:34.918Z</time></trkpt><trkpt lat="42.4287533" lon="2.8678467"><ele>134.0</ele><time>2026-04-08T13:49:36.918Z</time></trkpt><trkpt lat="42.42866" lon="2.8678883"><ele>134.0</ele><time>2026-04-08T13:49:38.917Z</time></trkpt><trkpt lat="42.4285733" lon="2.8679283"><ele>133.5</ele><time>2026-04-08T13:49:40.918Z</time></trkpt><trkpt lat="42.4285017" lon="2.8679567"><ele>133.0</ele><time>2026-04-08T13:49:42.918Z</time></trkpt><trkpt lat="42.4284417" lon="2.8679833"><ele>132.5</ele><time>2026-04-08T13:49:44.918Z</time></trkpt><trkpt lat="42.4283667" lon="2.868015"><ele>132.0</ele><time>2026-04-08T13:49:46.919Z</time></trkpt><trkpt lat="42.4282683" lon="2.8680617"><ele>131.5</ele><time>2026-04-08T13:49:48.919Z</time></trkpt><trkpt lat="42.4281467" lon="2.8681183"><ele>131.0</ele><time>2026-04-08T13:49:50.919Z</time></trkpt><trkpt lat="42.42808" lon="2.8681483"><ele>131.0</ele><time>2026-04-08T13:49:51.919Z</time></trkpt><trkpt lat="42.4280133" lon="2.86818"><ele>131.0</ele><time>2026-04-08T13:49:52.918Z</time></trkpt><trkpt lat="42.427945" lon="2.8682067"><ele>131.0</ele><time>2026-04-08T13:49:53.919Z</time></trkpt><trkpt lat="42.4278767" lon="2.8682367"><ele>131.0</ele><time>2026-04-08T13:49:54.919Z</time></trkpt><trkpt lat="42.427805" lon="2.8682667"><ele>131.0</ele><time>2026-04-08T13:49:55.918Z</time></trkpt><trkpt lat="42.4277317" lon="2.8682983"><ele>131.0</ele><time>2026-04-08T13:49:56.918Z</time></trkpt><trkpt lat="42.4276517" lon="2.8683217"><ele>131.0</ele><time>2026-04-08T13:49:57.919Z</time></trkpt><trkpt lat="42.4275633" lon="2.8683417"><ele>131.0</ele><time>2026-04-08T13:49:58.919Z</time></trkpt><trkpt lat="42.42747" lon="2.8683617"><ele>131.0</ele><time>2026-04-08T13:49:59.919Z</time></trkpt><trkpt lat="42.42737" lon="2.868375"><ele>131.0</ele><time>2026-04-08T13:50:00.919Z</time></trkpt><trkpt lat="42.4272683" lon="2.8683883"><ele>131.0</ele><time>2026-04-08T13:50:01.918Z</time></trkpt><trkpt lat="42.427165" lon="2.868395"><ele>131.0</ele><time>2026-04-08T13:50:02.919Z</time></trkpt><trkpt lat="42.42706" lon="2.8683917"><ele>129.4</ele><time>2026-04-08T13:50:03.918Z</time></trkpt><trkpt lat="42.4269617" lon="2.8683783"><ele>127.8</ele><time>2026-04-08T13:50:04.918Z</time></trkpt><trkpt lat="42.42687" lon="2.8683733"><ele>126.20000000000002</ele><time>2026-04-08T13:50:05.919Z</time></trkpt><trkpt lat="42.4267767" lon="2.868365"><ele>124.60000000000001</ele><time>2026-04-08T13:50:06.919Z</time></trkpt><trkpt lat="42.4266867" lon="2.8683567"><ele>123.0</ele><time>2026-04-08T13:50:07.919Z</time></trkpt><trkpt lat="42.4266" lon="2.86835"><ele>123.0</ele><time>2026-04-08T13:50:08.918Z</time></trkpt><trkpt lat="42.4265183" lon="2.868345"><ele>123.0</ele><time>2026-04-08T13:50:09.919Z</time></trkpt><trkpt lat="42.4264383" lon="2.8683367"><ele>123.0</ele><time>2026-04-08T13:50:10.919Z</time></trkpt><trkpt lat="42.4263733" lon="2.8683333"><ele>123.0</ele><time>2026-04-08T13:50:11.919Z</time></trkpt><trkpt lat="42.4263083" lon="2.86833"><ele>123.0</ele><time>2026-04-08T13:50:12.919Z</time></trkpt><trkpt lat="42.4261933" lon="2.8683183"><ele>123.0</ele><time>2026-04-08T13:50:14.919Z</time></trkpt><trkpt lat="42.4260867" lon="2.8682617"><ele>122.83333333333333</ele><time>2026-04-08T13:50:16.918Z</time></trkpt><trkpt lat="42.4259833" lon="2.8681717"><ele>122.66666666666666</ele><time>2026-04-08T13:50:18.918Z</time></trkpt><trkpt lat="42.42592" lon="2.8681433"><ele>122.5</ele><time>2026-04-08T13:50:19.919Z</time></trkpt><trkpt lat="42.4258567" lon="2.8681333"><ele>122.33333333333333</ele><time>2026-04-08T13:50:20.919Z</time></trkpt><trkpt lat="42.42579" lon="2.8681467"><ele>122.16666666666666</ele><time>2026-04-08T13:50:21.919Z</time></trkpt><trkpt lat="42.4256983" lon="2.86821"><ele>122.0</ele><time>2026-04-08T13:50:23.918Z</time></trkpt><trkpt lat="42.4256367" lon="2.868285"><ele>122.0</ele><time>2026-04-08T13:50:26.919Z</time></trkpt><trkpt lat="42.425555" lon="2.868375"><ele>121.99999999999999</ele><time>2026-04-08T13:50:29.919Z</time></trkpt><trkpt lat="42.42547" lon="2.8684467"><ele>121.99999999999999</ele><time>2026-04-08T13:50:31.919Z</time></trkpt><trkpt lat="42.4253767" lon="2.868495"><ele>122.0</ele><time>2026-04-08T13:50:33.919Z</time></trkpt><trkpt lat="42.425295" lon="2.8685317"><ele>122.0</ele><time>2026-04-08T13:50:35.919Z</time></trkpt><trkpt lat="42.4252267" lon="2.868565"><ele>121.83333333333333</ele><time>2026-04-08T13:50:37.919Z</time></trkpt><trkpt lat="42.4251617" lon="2.8686117"><ele>121.66666666666666</ele><time>2026-04-08T13:50:39.919Z</time></trkpt><trkpt lat="42.425095" lon="2.868665"><ele>121.5</ele><time>2026-04-08T13:50:41.918Z</time></trkpt><trkpt lat="42.425025" lon="2.8687117"><ele>121.33333333333334</ele><time>2026-04-08T13:50:43.919Z</time></trkpt><trkpt lat="42.4249567" lon="2.8687583"><ele>121.16666666666667</ele><time>2026-04-08T13:50:45.919Z</time></trkpt><trkpt lat="42.424885" lon="2.8688067"><ele>121.0</ele><time>2026-04-08T13:50:47.919Z</time></trkpt><trkpt lat="42.424805" lon="2.8688583"><ele>121.00000000000001</ele><time>2026-04-08T13:50:49.919Z</time></trkpt><trkpt lat="42.42471" lon="2.8689183"><ele>121.0</ele><time>2026-04-08T13:50:51.919Z</time></trkpt><trkpt lat="42.4246" lon="2.8689833"><ele>121.0</ele><time>2026-04-08T13:50:53.919Z</time></trkpt><trkpt lat="42.4245367" lon="2.8690233"><ele>121.0</ele><time>2026-04-08T13:50:54.918Z</time></trkpt><trkpt lat="42.4244733" lon="2.869065"><ele>121.00000000000001</ele><time>2026-04-08T13:50:55.919Z</time></trkpt><trkpt lat="42.4244083" lon="2.8691067"><ele>121.0</ele><time>2026-04-08T13:50:56.919Z</time></trkpt><trkpt lat="42.4243417" lon="2.8691483"><ele>120.66666666666667</ele><time>2026-04-08T13:50:57.919Z</time></trkpt><trkpt lat="42.42427" lon="2.8691933"><ele>120.33333333333334</ele><time>2026-04-08T13:50:58.918Z</time></trkpt><trkpt lat="42.424195" lon="2.8692367"><ele>120.0</ele><time>2026-04-08T13:50:59.919Z</time></trkpt><trkpt lat="42.42412" lon="2.8692833"><ele>119.66666666666666</ele><time>2026-04-08T13:51:00.918Z</time></trkpt><trkpt lat="42.42404" lon="2.8693333"><ele>119.33333333333333</ele><time>2026-04-08T13:51:01.919Z</time></trkpt><trkpt lat="42.42396" lon="2.869385"><ele>119.0</ele><time>2026-04-08T13:51:02.919Z</time></trkpt><trkpt lat="42.42388" lon="2.8694333"><ele>118.66666666666666</ele><time>2026-04-08T13:51:03.919Z</time></trkpt><trkpt lat="42.4238067" lon="2.8694783"><ele>118.33333333333333</ele><time>2026-04-08T13:51:04.919Z</time></trkpt><trkpt lat="42.42374" lon="2.86952"><ele>118.0</ele><time>2026-04-08T13:51:05.919Z</time></trkpt><trkpt lat="42.4236733" lon="2.86956"><ele>117.66666666666666</ele><time>2026-04-08T13:51:06.919Z</time></trkpt><trkpt lat="42.4236067" lon="2.8696033"><ele>117.33333333333333</ele><time>2026-04-08T13:51:07.918Z</time></trkpt><trkpt lat="42.4235333" lon="2.8696517"><ele>117.0</ele><time>2026-04-08T13:51:08.919Z</time></trkpt><trkpt lat="42.4234517" lon="2.8697033"><ele>117.0</ele><time>2026-04-08T13:51:09.919Z</time></trkpt><trkpt lat="42.4233667" lon="2.8697583"><ele>116.99999999999999</ele><time>2026-04-08T13:51:10.919Z</time></trkpt><trkpt lat="42.4232817" lon="2.8698117"><ele>116.99999999999999</ele><time>2026-04-08T13:51:11.919Z</time></trkpt><trkpt lat="42.4231917" lon="2.8698683"><ele>117.0</ele><time>2026-04-08T13:51:12.919Z</time></trkpt><trkpt lat="42.4231017" lon="2.8699267"><ele>117.0</ele><time>2026-04-08T13:51:13.919Z</time></trkpt><trkpt lat="42.42301" lon="2.8699867"><ele>117.0</ele><time>2026-04-08T13:51:14.919Z</time></trkpt><trkpt lat="42.4229083" lon="2.8700467"><ele>117.0</ele><time>2026-04-08T13:51:15.919Z</time></trkpt><trkpt lat="42.4227983" lon="2.8701083"><ele>117.0</ele><time>2026-04-08T13:51:16.919Z</time></trkpt><trkpt lat="42.4226833" lon="2.8701717"><ele>117.0</ele><time>2026-04-08T13:51:17.919Z</time></trkpt><trkpt lat="42.4225683" lon="2.8702283"><ele>117.0</ele><time>2026-04-08T13:51:18.919Z</time></trkpt><trkpt lat="42.42245" lon="2.87028"><ele>117.0</ele><time>2026-04-08T13:51:19.919Z</time></trkpt><trkpt lat="42.4223317" lon="2.8703283"><ele>117.0</ele><time>2026-04-08T13:51:20.919Z</time></trkpt><trkpt lat="42.422205" lon="2.8703717"><ele>117.0</ele><time>2026-04-08T13:51:21.918Z</time></trkpt><trkpt lat="42.4220767" lon="2.8704083"><ele>116.75</ele><time>2026-04-08T13:51:22.919Z</time></trkpt><trkpt lat="42.4219433" lon="2.8704467"><ele>116.5</ele><time>2026-04-08T13:51:23.919Z</time></trkpt><trkpt lat="42.421805" lon="2.8704767"><ele>116.25</ele><time>2026-04-08T13:51:24.919Z</time></trkpt><trkpt lat="42.4216683" lon="2.8705017"><ele>116.0</ele><time>2026-04-08T13:51:25.919Z</time></trkpt><trkpt lat="42.42153" lon="2.87053"><ele>116.0</ele><time>2026-04-08T13:51:26.919Z</time></trkpt><trkpt lat="42.4213933" lon="2.870555"><ele>116.0</ele><time>2026-04-08T13:51:27.918Z</time></trkpt><trkpt lat="42.4212567" lon="2.8705817"><ele>116.0</ele><time>2026-04-08T13:51:28.919Z</time></trkpt><trkpt lat="42.4211133" lon="2.87061"><ele>116.0</ele><time>2026-04-08T13:51:29.919Z</time></trkpt><trkpt lat="42.42097" lon="2.870635"><ele>115.75</ele><time>2026-04-08T13:51:30.919Z</time></trkpt><trkpt lat="42.4208233" lon="2.87066"><ele>115.5</ele><time>2026-04-08T13:51:31.919Z</time></trkpt><trkpt lat="42.420675" lon="2.8706883"><ele>115.25</ele><time>2026-04-08T13:51:32.919Z</time></trkpt><trkpt lat="42.4205317" lon="2.8707217"><ele>115.0</ele><time>2026-04-08T13:51:33.919Z</time></trkpt><trkpt lat="42.4203933" lon="2.8707533"><ele>115.0</ele><time>2026-04-08T13:51:34.919Z</time></trkpt><trkpt lat="42.420255" lon="2.87078"><ele>115.0</ele><time>2026-04-08T13:51:35.918Z</time></trkpt><trkpt lat="42.4201233" lon="2.8708067"><ele>115.0</ele><time>2026-04-08T13:51:36.919Z</time></trkpt><trkpt lat="42.419985" lon="2.870835"><ele>115.0</ele><time>2026-04-08T13:51:37.919Z</time></trkpt><trkpt lat="42.4198517" lon="2.8708667"><ele>115.0</ele><time>2026-04-08T13:51:38.918Z</time></trkpt><trkpt lat="42.4197233" lon="2.8708967"><ele>115.0</ele><time>2026-04-08T13:51:39.918Z</time></trkpt><trkpt lat="42.4195967" lon="2.8709267"><ele>115.0</ele><time>2026-04-08T13:51:40.918Z</time></trkpt><trkpt lat="42.419465" lon="2.870955"><ele>115.0</ele><time>2026-04-08T13:51:41.918Z</time></trkpt><trkpt lat="42.4193367" lon="2.8709867"><ele>114.5</ele><time>2026-04-08T13:51:42.918Z</time></trkpt><trkpt lat="42.4192083" lon="2.8710183"><ele>114.0</ele><time>2026-04-08T13:51:43.917Z</time></trkpt><trkpt lat="42.419085" lon="2.8710517"><ele>113.5</ele><time>2026-04-08T13:51:44.918Z</time></trkpt><trkpt lat="42.418965" lon="2.8710817"><ele>113.0</ele><time>2026-04-08T13:51:45.918Z</time></trkpt><trkpt lat="42.4188433" lon="2.8711083"><ele>112.75</ele><time>2026-04-08T13:51:46.918Z</time></trkpt><trkpt lat="42.4187267" lon="2.8711367"><ele>112.5</ele><time>2026-04-08T13:51:47.918Z</time></trkpt><trkpt lat="42.4186067" lon="2.8711717"><ele>112.25</ele><time>2026-04-08T13:51:48.917Z</time></trkpt><trkpt lat="42.4184883" lon="2.871205"><ele>112.0</ele><time>2026-04-08T13:51:49.918Z</time></trkpt><trkpt lat="42.41837" lon="2.8712367"><ele>112.0</ele><time>2026-04-08T13:51:50.917Z</time></trkpt><trkpt lat="42.41825" lon="2.8712667"><ele>112.0</ele><time>2026-04-08T13:51:51.918Z</time></trkpt><trkpt lat="42.4181283" lon="2.8712983"><ele>112.0</ele><time>2026-04-08T13:51:52.918Z</time></trkpt><trkpt lat="42.418" lon="2.8713383"><ele>112.0</ele><time>2026-04-08T13:51:53.918Z</time></trkpt><trkpt lat="42.4178717" lon="2.8713767"><ele>112.0</ele><time>2026-04-08T13:51:54.917Z</time></trkpt><trkpt lat="42.41774" lon="2.8714083"><ele>112.0</ele><time>2026-04-08T13:51:55.917Z</time></trkpt><trkpt lat="42.4176083" lon="2.8714417"><ele>112.0</ele><time>2026-04-08T13:51:56.918Z</time></trkpt><trkpt lat="42.4174767" lon="2.8714767"><ele>112.0</ele><time>2026-04-08T13:51:57.918Z</time></trkpt><trkpt lat="42.41735" lon="2.871515"><ele>112.0</ele><time>2026-04-08T13:51:58.918Z</time></trkpt><trkpt lat="42.41722" lon="2.8715483"><ele>112.0</ele><time>2026-04-08T13:51:59.918Z</time></trkpt><trkpt lat="42.4170883" lon="2.8715833"><ele>112.0</ele><time>2026-04-08T13:52:00.918Z</time></trkpt><trkpt lat="42.4169583" lon="2.871615"><ele>112.0</ele><time>2026-04-08T13:52:01.918Z</time></trkpt><trkpt lat="42.4168317" lon="2.8716433"><ele>112.5</ele><time>2026-04-08T13:52:02.918Z</time></trkpt><trkpt lat="42.416705" lon="2.8716733"><ele>113.0</ele><time>2026-04-08T13:52:03.917Z</time></trkpt><trkpt lat="42.416575" lon="2.8717017"><ele>113.5</ele><time>2026-04-08T13:52:04.918Z</time></trkpt><trkpt lat="42.4164483" lon="2.8717233"><ele>114.0</ele><time>2026-04-08T13:52:05.917Z</time></trkpt><trkpt lat="42.416315" lon="2.8717467"><ele>114.25</ele><time>2026-04-08T13:52:06.918Z</time></trkpt><trkpt lat="42.4161783" lon="2.8717733"><ele>114.5</ele><time>2026-04-08T13:52:07.918Z</time></trkpt><trkpt lat="42.4160417" lon="2.8718"><ele>114.75</ele><time>2026-04-08T13:52:08.918Z</time></trkpt><trkpt lat="42.415905" lon="2.8718267"><ele>115.0</ele><time>2026-04-08T13:52:09.917Z</time></trkpt><trkpt lat="42.41577" lon="2.871855"><ele>113.0</ele><time>2026-04-08T13:52:10.918Z</time></trkpt><trkpt lat="42.4156383" lon="2.8718817"><ele>111.0</ele><time>2026-04-08T13:52:11.918Z</time></trkpt><trkpt lat="42.41551" lon="2.87191"><ele>109.0</ele><time>2026-04-08T13:52:12.918Z</time></trkpt><trkpt lat="42.4153833" lon="2.8719417"><ele>107.0</ele><time>2026-04-08T13:52:13.918Z</time></trkpt><trkpt lat="42.4152567" lon="2.8719833"><ele>106.75</ele><time>2026-04-08T13:52:14.917Z</time></trkpt><trkpt lat="42.4151333" lon="2.8720283"><ele>106.5</ele><time>2026-04-08T13:52:15.918Z</time></trkpt><trkpt lat="42.4150033" lon="2.8720817"><ele>106.25</ele><time>2026-04-08T13:52:16.918Z</time></trkpt><trkpt lat="42.4148733" lon="2.8721417"><ele>106.0</ele><time>2026-04-08T13:52:17.918Z</time></trkpt><trkpt lat="42.4147517" lon="2.872215"><ele>106.0</ele><time>2026-04-08T13:52:18.918Z</time></trkpt><trkpt lat="42.414635" lon="2.8723"><ele>106.0</ele><time>2026-04-08T13:52:19.917Z</time></trkpt><trkpt lat="42.4145267" lon="2.8723983"><ele>106.0</ele><time>2026-04-08T13:52:20.918Z</time></trkpt><trkpt lat="42.41443" lon="2.872505"><ele>106.0</ele><time>2026-04-08T13:52:21.918Z</time></trkpt><trkpt lat="42.4143533" lon="2.8726133"><ele>105.4</ele><time>2026-04-08T13:52:22.918Z</time></trkpt><trkpt lat="42.4142933" lon="2.872725"><ele>104.8</ele><time>2026-04-08T13:52:23.917Z</time></trkpt><trkpt lat="42.4142183" lon="2.8728217"><ele>104.2</ele><time>2026-04-08T13:52:24.918Z</time></trkpt><trkpt lat="42.41415" lon="2.87292"><ele>103.60000000000001</ele><time>2026-04-08T13:52:25.918Z</time></trkpt><trkpt lat="42.4140783" lon="2.8730083"><ele>103.0</ele><time>2026-04-08T13:52:26.918Z</time></trkpt><trkpt lat="42.4140183" lon="2.8730883"><ele>103.00000000000001</ele><time>2026-04-08T13:52:27.918Z</time></trkpt><trkpt lat="42.41397" lon="2.8731517"><ele>103.0</ele><time>2026-04-08T13:52:28.918Z</time></trkpt><trkpt lat="42.4139217" lon="2.8732117"><ele>103.0</ele><time>2026-04-08T13:52:29.918Z</time></trkpt><trkpt lat="42.413845" lon="2.8733"><ele>103.0</ele><time>2026-04-08T13:52:31.918Z</time></trkpt><trkpt lat="42.4137933" lon="2.87336"><ele>103.00000000000001</ele><time>2026-04-08T13:52:33.918Z</time></trkpt><trkpt lat="42.4137433" lon="2.8734167"><ele>103.0</ele><time>2026-04-08T13:52:35.918Z</time></trkpt><trkpt lat="42.4136833" lon="2.8734967"><ele>103.33333333333334</ele><time>2026-04-08T13:52:37.917Z</time></trkpt><trkpt lat="42.4136167" lon="2.873565"><ele>103.66666666666667</ele><time>2026-04-08T13:52:39.918Z</time></trkpt><trkpt lat="42.41355" lon="2.8735967"><ele>104.0</ele><time>2026-04-08T13:52:41.918Z</time></trkpt><trkpt lat="42.4134533" lon="2.8736067"><ele>104.33333333333334</ele><time>2026-04-08T13:52:43.918Z</time></trkpt><trkpt lat="42.4133367" lon="2.87366"><ele>104.66666666666667</ele><time>2026-04-08T13:52:45.917Z</time></trkpt><trkpt lat="42.4132833" lon="2.87372"><ele>105.0</ele><time>2026-04-08T13:52:46.917Z</time></trkpt><trkpt lat="42.413235" lon="2.8737983"><ele>105.0</ele><time>2026-04-08T13:52:47.918Z</time></trkpt><trkpt lat="42.4132017" lon="2.8739017"><ele>105.0</ele><time>2026-04-08T13:52:48.917Z</time></trkpt><trkpt lat="42.41318" lon="2.87401"><ele>105.0</ele><time>2026-04-08T13:52:49.918Z</time></trkpt><trkpt lat="42.4131433" lon="2.8741183"><ele>105.0</ele><time>2026-04-08T13:52:50.918Z</time></trkpt><trkpt lat="42.4130917" lon="2.8742233"><ele>105.0</ele><time>2026-04-08T13:52:51.918Z</time></trkpt><trkpt lat="42.413025" lon="2.8743267"><ele>105.0</ele><time>2026-04-08T13:52:52.918Z</time></trkpt><trkpt lat="42.4129433" lon="2.874445"><ele>105.0</ele><time>2026-04-08T13:52:53.918Z</time></trkpt><trkpt lat="42.412855" lon="2.8745767"><ele>105.0</ele><time>2026-04-08T13:52:54.917Z</time></trkpt><trkpt lat="42.41276" lon="2.874715"><ele>105.0</ele><time>2026-04-08T13:52:55.918Z</time></trkpt><trkpt lat="42.4126533" lon="2.87486"><ele>105.0</ele><time>2026-04-08T13:52:56.918Z</time></trkpt><trkpt lat="42.4125367" lon="2.875015"><ele>106.0</ele><time>2026-04-08T13:52:57.918Z</time></trkpt><trkpt lat="42.4124183" lon="2.8751717"><ele>107.0</ele><time>2026-04-08T13:52:58.918Z</time></trkpt><trkpt lat="42.4123" lon="2.8753283"><ele>108.0</ele><time>2026-04-08T13:52:59.918Z</time></trkpt><trkpt lat="42.4121833" lon="2.8754817"><ele>107.33333333333334</ele><time>2026-04-08T13:53:00.917Z</time></trkpt><trkpt lat="42.4120717" lon="2.875625"><ele>106.66666666666667</ele><time>2026-04-08T13:53:01.918Z</time></trkpt><trkpt lat="42.41196" lon="2.8757567"><ele>106.0</ele><time>2026-04-08T13:53:02.917Z</time></trkpt><trkpt lat="42.4118383" lon="2.87587"><ele>106.8</ele><time>2026-04-08T13:53:03.918Z</time></trkpt><trkpt lat="42.4117333" lon="2.8759733"><ele>107.6</ele><time>2026-04-08T13:53:04.918Z</time></trkpt><trkpt lat="42.411635" lon="2.8760417"><ele>108.4</ele><time>2026-04-08T13:53:05.918Z</time></trkpt><trkpt lat="42.411545" lon="2.8760717"><ele>109.2</ele><time>2026-04-08T13:53:06.918Z</time></trkpt><trkpt lat="42.4114583" lon="2.87608"><ele>110.0</ele><time>2026-04-08T13:53:07.918Z</time></trkpt><trkpt lat="42.4113767" lon="2.876075"><ele>109.66666666666666</ele><time>2026-04-08T13:53:08.918Z</time></trkpt><trkpt lat="42.41131" lon="2.8760767"><ele>109.33333333333333</ele><time>2026-04-08T13:53:09.917Z</time></trkpt><trkpt lat="42.4112017" lon="2.8761333"><ele>109.0</ele><time>2026-04-08T13:53:11.918Z</time></trkpt><trkpt lat="42.4111533" lon="2.876195"><ele>108.66666666666666</ele><time>2026-04-08T13:53:12.918Z</time></trkpt><trkpt lat="42.4111067" lon="2.8762717"><ele>108.33333333333333</ele><time>2026-04-08T13:53:13.918Z</time></trkpt><trkpt lat="42.411045" lon="2.876365"><ele>108.0</ele><time>2026-04-08T13:53:14.918Z</time></trkpt><trkpt lat="42.4109683" lon="2.8764467"><ele>108.0</ele><time>2026-04-08T13:53:15.917Z</time></trkpt><trkpt lat="42.4108683" lon="2.8765167"><ele>108.0</ele><time>2026-04-08T13:53:16.918Z</time></trkpt><trkpt lat="42.4107583" lon="2.87657"><ele>108.0</ele><time>2026-04-08T13:53:17.918Z</time></trkpt><trkpt lat="42.4106383" lon="2.8766217"><ele>108.0</ele><time>2026-04-08T13:53:18.918Z</time></trkpt><trkpt lat="42.41051" lon="2.8766667"><ele>107.33333333333334</ele><time>2026-04-08T13:53:19.917Z</time></trkpt><trkpt lat="42.41037" lon="2.876715"><ele>106.66666666666667</ele><time>2026-04-08T13:53:20.917Z</time></trkpt><trkpt lat="42.4102233" lon="2.8767633"><ele>106.0</ele><time>2026-04-08T13:53:21.918Z</time></trkpt><trkpt lat="42.41007" lon="2.8768117"><ele>106.0</ele><time>2026-04-08T13:53:22.918Z</time></trkpt><trkpt lat="42.40991" lon="2.8768617"><ele>106.0</ele><time>2026-04-08T13:53:23.918Z</time></trkpt><trkpt lat="42.4097483" lon="2.876915"><ele>106.0</ele><time>2026-04-08T13:53:24.918Z</time></trkpt><trkpt lat="42.4095867" lon="2.8769667"><ele>105.33333333333334</ele><time>2026-04-08T13:53:25.918Z</time></trkpt><trkpt lat="42.4094267" lon="2.8770167"><ele>104.66666666666666</ele><time>2026-04-08T13:53:26.918Z</time></trkpt><trkpt lat="42.40927" lon="2.8770683"><ele>104.0</ele><time>2026-04-08T13:53:27.918Z</time></trkpt><trkpt lat="42.4091133" lon="2.8771183"><ele>104.0</ele><time>2026-04-08T13:53:28.918Z</time></trkpt><trkpt lat="42.4089567" lon="2.8771683"><ele>104.0</ele><time>2026-04-08T13:53:29.918Z</time></trkpt><trkpt lat="42.4088033" lon="2.8772183"><ele>104.0</ele><time>2026-04-08T13:53:30.918Z</time></trkpt><trkpt lat="42.40865" lon="2.8772717"><ele>103.66666666666666</ele><time>2026-04-08T13:53:31.918Z</time></trkpt><trkpt lat="42.4084933" lon="2.8773233"><ele>103.33333333333334</ele><time>2026-04-08T13:53:32.918Z</time></trkpt><trkpt lat="42.408335" lon="2.8773767"><ele>103.0</ele><time>2026-04-08T13:53:33.918Z</time></trkpt><trkpt lat="42.408175" lon="2.87743"><ele>103.0</ele><time>2026-04-08T13:53:34.918Z</time></trkpt><trkpt lat="42.408015" lon="2.877485"><ele>103.0</ele><time>2026-04-08T13:53:35.918Z</time></trkpt><trkpt lat="42.4078517" lon="2.8775417"><ele>103.0</ele><time>2026-04-08T13:53:36.917Z</time></trkpt><trkpt lat="42.407695" lon="2.8775967"><ele>103.33333333333334</ele><time>2026-04-08T13:53:37.918Z</time></trkpt><trkpt lat="42.4075383" lon="2.8776483"><ele>103.66666666666666</ele><time>2026-04-08T13:53:38.918Z</time></trkpt><trkpt lat="42.4073817" lon="2.8777017"><ele>104.0</ele><time>2026-04-08T13:53:39.918Z</time></trkpt><trkpt lat="42.4072233" lon="2.877755"><ele>103.33333333333333</ele><time>2026-04-08T13:53:40.918Z</time></trkpt><trkpt lat="42.4070667" lon="2.8778083"><ele>102.66666666666666</ele><time>2026-04-08T13:53:41.918Z</time></trkpt><trkpt lat="42.4069133" lon="2.87786"><ele>102.0</ele><time>2026-04-08T13:53:42.918Z</time></trkpt><trkpt lat="42.4067567" lon="2.87791"><ele>102.0</ele><time>2026-04-08T13:53:43.917Z</time></trkpt><trkpt lat="42.4065967" lon="2.8779633"><ele>102.0</ele><time>2026-04-08T13:53:44.917Z</time></trkpt><trkpt lat="42.4064367" lon="2.8780217"><ele>102.0</ele><time>2026-04-08T13:53:45.917Z</time></trkpt><trkpt lat="42.406275" lon="2.8780833"><ele>101.33333333333334</ele><time>2026-04-08T13:53:46.918Z</time></trkpt><trkpt lat="42.406115" lon="2.87814"><ele>100.66666666666667</ele><time>2026-04-08T13:53:47.917Z</time></trkpt><trkpt lat="42.4059533" lon="2.878185"><ele>100.0</ele><time>2026-04-08T13:53:48.918Z</time></trkpt><trkpt lat="42.4058033" lon="2.8782283"><ele>100.0</ele><time>2026-04-08T13:53:49.918Z</time></trkpt><trkpt lat="42.4056533" lon="2.8782633"><ele>100.0</ele><time>2026-04-08T13:53:50.918Z</time></trkpt><trkpt lat="42.4055117" lon="2.8782983"><ele>100.0</ele><time>2026-04-08T13:53:51.918Z</time></trkpt><trkpt lat="42.4053817" lon="2.878325"><ele>100.0</ele><time>2026-04-08T13:53:52.918Z</time></trkpt><trkpt lat="42.4052583" lon="2.8783467"><ele>99.8</ele><time>2026-04-08T13:53:53.918Z</time></trkpt><trkpt lat="42.40515" lon="2.8783717"><ele>99.6</ele><time>2026-04-08T13:53:54.918Z</time></trkpt><trkpt lat="42.4050567" lon="2.8783967"><ele>99.4</ele><time>2026-04-08T13:53:55.918Z</time></trkpt><trkpt lat="42.4049683" lon="2.8784167"><ele>99.2</ele><time>2026-04-08T13:53:56.919Z</time></trkpt><trkpt lat="42.4048833" lon="2.8784217"><ele>99.0</ele><time>2026-04-08T13:53:57.919Z</time></trkpt><trkpt lat="42.4047983" lon="2.87841"><ele>99.0</ele><time>2026-04-08T13:53:58.918Z</time></trkpt><trkpt lat="42.4047117" lon="2.8783783"><ele>99.0</ele><time>2026-04-08T13:53:59.918Z</time></trkpt><trkpt lat="42.4046233" lon="2.8783383"><ele>99.0</ele><time>2026-04-08T13:54:00.919Z</time></trkpt><trkpt lat="42.40454" lon="2.8782883"><ele>99.0</ele><time>2026-04-08T13:54:01.919Z</time></trkpt><trkpt lat="42.40446" lon="2.8782367"><ele>99.0</ele><time>2026-04-08T13:54:02.918Z</time></trkpt><trkpt lat="42.40438" lon="2.878175"><ele>98.6</ele><time>2026-04-08T13:54:03.919Z</time></trkpt><trkpt lat="42.4043033" lon="2.8780967"><ele>98.2</ele><time>2026-04-08T13:54:04.919Z</time></trkpt><trkpt lat="42.4042383" lon="2.877995"><ele>97.8</ele><time>2026-04-08T13:54:05.918Z</time></trkpt><trkpt lat="42.4041967" lon="2.877875"><ele>97.39999999999999</ele><time>2026-04-08T13:54:06.919Z</time></trkpt><trkpt lat="42.4041683" lon="2.8777483"><ele>97.0</ele><time>2026-04-08T13:54:07.919Z</time></trkpt><trkpt lat="42.404145" lon="2.8776333"><ele>96.66666666666667</ele><time>2026-04-08T13:54:08.919Z</time></trkpt><trkpt lat="42.4041283" lon="2.8775367"><ele>96.33333333333334</ele><time>2026-04-08T13:54:09.919Z</time></trkpt><trkpt lat="42.4041483" lon="2.8773883"><ele>96.0</ele><time>2026-04-08T13:54:11.918Z</time></trkpt><trkpt lat="42.4042383" lon="2.8772983"><ele>95.66666666666667</ele><time>2026-04-08T13:54:13.918Z</time></trkpt><trkpt lat="42.404305" lon="2.8772667"><ele>95.33333333333334</ele><time>2026-04-08T13:54:14.919Z</time></trkpt><trkpt lat="42.4043783" lon="2.8772367"><ele>95.0</ele><time>2026-04-08T13:54:15.919Z</time></trkpt><trkpt lat="42.4044583" lon="2.8772117"><ele>95.0</ele><time>2026-04-08T13:54:16.919Z</time></trkpt><trkpt lat="42.4045383" lon="2.8771867"><ele>95.0</ele><time>2026-04-08T13:54:17.918Z</time></trkpt><trkpt lat="42.4046183" lon="2.8771633"><ele>95.0</ele><time>2026-04-08T13:54:18.918Z</time></trkpt><trkpt lat="42.4046933" lon="2.8771467"><ele>95.0</ele><time>2026-04-08T13:54:19.919Z</time></trkpt><trkpt lat="42.4047733" lon="2.87713"><ele>95.0</ele><time>2026-04-08T13:54:20.919Z</time></trkpt><trkpt lat="42.40484" lon="2.8771017"><ele>95.0</ele><time>2026-04-08T13:54:21.918Z</time></trkpt><trkpt lat="42.4049417" lon="2.877085"><ele>95.33333333333334</ele><time>2026-04-08T13:54:23.919Z</time></trkpt><trkpt lat="42.4050067" lon="2.8771483"><ele>95.66666666666667</ele><time>2026-04-08T13:54:25.918Z</time></trkpt><trkpt lat="42.405035" lon="2.8772617"><ele>96.0</ele><time>2026-04-08T13:54:27.919Z</time></trkpt><trkpt lat="42.4050567" lon="2.8773767"><ele>96.33333333333334</ele><time>2026-04-08T13:54:29.919Z</time></trkpt><trkpt lat="42.405075" lon="2.87747"><ele>96.66666666666667</ele><time>2026-04-08T13:54:31.919Z</time></trkpt><trkpt lat="42.40509" lon="2.877555"><ele>97.0</ele><time>2026-04-08T13:54:33.919Z</time></trkpt><trkpt lat="42.40511" lon="2.8776467"><ele>97.33333333333334</ele><time>2026-04-08T13:54:35.919Z</time></trkpt><trkpt lat="42.4051283" lon="2.8777383"><ele>97.66666666666667</ele><time>2026-04-08T13:54:37.919Z</time></trkpt><trkpt lat="42.4051433" lon="2.8778333"><ele>98.0</ele><time>2026-04-08T13:54:41.918Z</time></trkpt><trkpt lat="42.405075" lon="2.877905"><ele>98.33333333333334</ele><time>2026-04-08T13:54:47.919Z</time></trkpt><trkpt lat="42.4049983" lon="2.8779483"><ele>98.66666666666667</ele><time>2026-04-08T13:54:50.918Z</time></trkpt><trkpt lat="42.404955" lon="2.8780217"><ele>99.0</ele><time>2026-04-08T13:54:53.919Z</time></trkpt><trkpt lat="42.40496" lon="2.8781183"><ele>99.0</ele><time>2026-04-08T13:55:00.919Z</time></trkpt><trkpt lat="42.4049586" lon="2.8780041"><ele>99.0</ele><time>2026-04-08T13:56:52.324Z</time></trkpt><trkpt lat="42.4050051" lon="2.8779461"><ele>99.0</ele><time>2026-04-08T13:56:57.299Z</time></trkpt><trkpt lat="42.4050767" lon="2.8779256"><ele>99.0</ele><time>2026-04-08T13:57:02.303Z</time></trkpt><trkpt lat="42.4051347" lon="2.8778839"><ele>99.0</ele><time>2026-04-08T13:57:08.209Z</time></trkpt><trkpt lat="42.4051603" lon="2.877779"><ele>99.0</ele><time>2026-04-08T13:57:27.108Z</time></trkpt><trkpt lat="42.4051322" lon="2.8777009"><ele>99.0</ele><time>2026-04-08T13:57:31.231Z</time></trkpt><trkpt lat="42.4051278" lon="2.877605"><ele>98.5</ele><time>2026-04-08T13:57:35.305Z</time></trkpt><trkpt lat="42.405125" lon="2.8775139"><ele>98.0</ele><time>2026-04-08T13:57:40.24Z</time></trkpt><trkpt lat="42.4051471" lon="2.8774264"><ele>97.5</ele><time>2026-04-08T13:57:45.044Z</time></trkpt><trkpt lat="42.4054537" lon="2.877341"><ele>97.0</ele><time>2026-04-08T14:00:00.878Z</time></trkpt><trkpt lat="42.4054589" lon="2.877222"><ele>97.00000000000001</ele><time>2026-04-08T14:00:02.019Z</time></trkpt><trkpt lat="42.4054723" lon="2.8771239"><ele>97.0</ele><time>2026-04-08T14:00:02.939Z</time></trkpt><trkpt lat="42.4054963" lon="2.8770338"><ele>97.0</ele><time>2026-04-08T14:00:05.028Z</time></trkpt><trkpt lat="42.4054355" lon="2.8771513"><ele>97.0</ele><time>2026-04-08T14:00:17.139Z</time></trkpt><trkpt lat="42.4054642" lon="2.8773238"><ele>97.00000000000001</ele><time>2026-04-08T14:01:18.669Z</time></trkpt><trkpt lat="42.4054541" lon="2.8774147"><ele>97.0</ele><time>2026-04-08T14:01:24.241Z</time></trkpt><trkpt lat="42.4058154" lon="2.8778767"><ele>98.0</ele><time>2026-04-08T14:01:53.133Z</time></trkpt><trkpt lat="42.4060349" lon="2.8781473"><ele>99.0</ele><time>2026-04-08T14:01:54.134Z</time></trkpt><trkpt lat="42.4060964" lon="2.878181"><ele>100.0</ele><time>2026-04-08T14:01:56.135Z</time></trkpt><trkpt lat="42.4060804" lon="2.8780387"><ele>100.0</ele><time>2026-04-08T14:02:00.139Z</time></trkpt><trkpt lat="42.4060365" lon="2.8778309"><ele>100.0</ele><time>2026-04-08T14:02:01.14Z</time></trkpt><trkpt lat="42.4060087" lon="2.8776961"><ele>100.0</ele><time>2026-04-08T14:02:02.14Z</time></trkpt><trkpt lat="42.4059905" lon="2.8776"><ele>100.0</ele><time>2026-04-08T14:02:03.14Z</time></trkpt><trkpt lat="42.405967" lon="2.8774572"><ele>100.0</ele><time>2026-04-08T14:02:05.143Z</time></trkpt><trkpt lat="42.4059191" lon="2.8773763"><ele>99.75</ele><time>2026-04-08T14:02:07.145Z</time></trkpt><trkpt lat="42.4058497" lon="2.8773689"><ele>99.5</ele><time>2026-04-08T14:02:16.152Z</time></trkpt><trkpt lat="42.4056788" lon="2.8773395"><ele>99.25</ele><time>2026-04-08T14:02:23.158Z</time></trkpt><trkpt lat="42.4055147" lon="2.877264"><ele>99.0</ele><time>2026-04-08T14:02:24.159Z</time></trkpt><trkpt lat="42.4055667" lon="2.8773449"><ele>99.0</ele><time>2026-04-08T14:02:55.368Z</time></trkpt><trkpt lat="42.4056247" lon="2.8774"><ele>99.0</ele><time>2026-04-08T14:03:06.194Z</time></trkpt><trkpt lat="42.4055449" lon="2.8773342"><ele>99.0</ele><time>2026-04-08T14:03:27.358Z</time></trkpt><trkpt lat="42.4057216" lon="2.8772781"><ele>99.0</ele><time>2026-04-08T14:03:43.338Z</time></trkpt><trkpt lat="42.4057979" lon="2.8772274"><ele>99.0</ele><time>2026-04-08T14:03:44.479Z</time></trkpt><trkpt lat="42.4058666" lon="2.8771664"><ele>99.0</ele><time>2026-04-08T14:03:46.701Z</time></trkpt><trkpt lat="42.4058438" lon="2.8770845"><ele>99.0</ele><time>2026-04-08T14:03:53.44Z</time></trkpt><trkpt lat="42.4057641" lon="2.8771289"><ele>99.0</ele><time>2026-04-08T14:03:57.739Z</time></trkpt><trkpt lat="42.4056642" lon="2.8772093"><ele>99.0</ele><time>2026-04-08T14:04:03.654Z</time></trkpt><trkpt lat="42.4056002" lon="2.877245"><ele>99.0</ele><time>2026-04-08T14:04:08.459Z</time></trkpt><trkpt lat="42.4055916" lon="2.8771536"><ele>99.0</ele><time>2026-04-08T14:04:12.742Z</time></trkpt><trkpt lat="42.4056302" lon="2.8770826"><ele>99.0</ele><time>2026-04-08T14:04:17.145Z</time></trkpt><trkpt lat="42.4056036" lon="2.8769796"><ele>99.0</ele><time>2026-04-08T14:04:24.864Z</time></trkpt><trkpt lat="42.4055242" lon="2.8770869"><ele>99.0</ele><time>2026-04-08T14:05:02.804Z</time></trkpt><trkpt lat="42.405718" lon="2.8771221"><ele>99.0</ele><time>2026-04-08T14:05:08.311Z</time></trkpt><trkpt lat="42.4057793" lon="2.8771586"><ele>99.0</ele><time>2026-04-08T14:05:09.232Z</time></trkpt><trkpt lat="42.4058473" lon="2.8771989"><ele>99.0</ele><time>2026-04-08T14:05:13.103Z</time></trkpt><trkpt lat="42.4057599" lon="2.8772125"><ele>99.0</ele><time>2026-04-08T14:05:31.217Z</time></trkpt><trkpt lat="42.4056341" lon="2.8771974"><ele>99.0</ele><time>2026-04-08T14:06:18.765Z</time></trkpt><trkpt lat="42.4057066" lon="2.8771788"><ele>99.0</ele><time>2026-04-08T14:07:56.234Z</time></trkpt><trkpt lat="42.4057486" lon="2.877115"><ele>99.0</ele><time>2026-04-08T14:10:15.128Z</time></trkpt><trkpt lat="42.4057753" lon="2.8770327"><ele>99.0</ele><time>2026-04-08T14:10:28.15Z</time></trkpt><trkpt lat="42.4057024" lon="2.877058"><ele>99.0</ele><time>2026-04-08T14:11:16.835Z</time></trkpt><trkpt lat="42.4056117" lon="2.8771285"><ele>99.0</ele><time>2026-04-08T14:11:27.994Z</time></trkpt><trkpt lat="42.4055085" lon="2.877199"><ele>99.0</ele><time>2026-04-08T14:13:04.662Z</time></trkpt><trkpt lat="42.4055399" lon="2.8771211"><ele>99.0</ele><time>2026-04-08T14:19:28.142Z</time></trkpt><trkpt lat="42.4057065" lon="2.8768015"><ele>99.0</ele><time>2026-04-08T14:19:38.149Z</time></trkpt><trkpt lat="42.4057302" lon="2.8768825"><ele>99.0</ele><time>2026-04-08T14:19:46.054Z</time></trkpt><trkpt lat="42.405739" lon="2.8769671"><ele>99.0</ele><time>2026-04-08T14:19:52.164Z</time></trkpt><trkpt lat="42.4058087" lon="2.8770133"><ele>99.0</ele><time>2026-04-08T14:21:05.14Z</time></trkpt><trkpt lat="42.4056841" lon="2.8770897"><ele>99.0</ele><time>2026-04-08T14:22:12.155Z</time></trkpt><trkpt lat="42.4057465" lon="2.8771021"><ele>99.0</ele><time>2026-04-08T14:22:48.139Z</time></trkpt><trkpt lat="42.4057025" lon="2.8770347"><ele>99.0</ele><time>2026-04-08T14:23:39.104Z</time></trkpt><trkpt lat="42.4056988" lon="2.8772083"><ele>99.0</ele><time>2026-04-08T14:24:09.045Z</time></trkpt><trkpt lat="42.4057152" lon="2.8773438"><ele>99.0</ele><time>2026-04-08T14:24:10.046Z</time></trkpt><trkpt lat="42.405713" lon="2.8774855"><ele>99.0</ele><time>2026-04-08T14:24:11.145Z</time></trkpt><trkpt lat="42.4056913" lon="2.8776214"><ele>99.0</ele><time>2026-04-08T14:24:12.146Z</time></trkpt><trkpt lat="42.4056667" lon="2.8777477"><ele>99.0</ele><time>2026-04-08T14:24:13.147Z</time></trkpt><trkpt lat="42.4056451" lon="2.87786"><ele>99.0</ele><time>2026-04-08T14:24:14.148Z</time></trkpt><trkpt lat="42.4054762" lon="2.8778935"><ele>99.0</ele><time>2026-04-08T14:24:20.654Z</time></trkpt><trkpt lat="42.4054446" lon="2.8774393"><ele>99.0</ele><time>2026-04-08T14:24:26.657Z</time></trkpt><trkpt lat="42.4054201" lon="2.877319"><ele>99.0</ele><time>2026-04-08T14:24:32.663Z</time></trkpt><trkpt lat="42.4055448" lon="2.8772478"><ele>99.0</ele><time>2026-04-08T14:24:34.057Z</time></trkpt><trkpt lat="42.4056038" lon="2.8772133"><ele>99.0</ele><time>2026-04-08T14:26:16.234Z</time></trkpt><trkpt lat="42.4056644" lon="2.8771586"><ele>99.0</ele><time>2026-04-08T14:26:24.141Z</time></trkpt><trkpt lat="42.4055483" lon="2.8771775"><ele>99.0</ele><time>2026-04-08T14:26:40.145Z</time></trkpt><trkpt lat="42.4056444" lon="2.8772002"><ele>99.0</ele><time>2026-04-08T14:26:49.16Z</time></trkpt><trkpt lat="42.405674" lon="2.8773546"><ele>99.0</ele><time>2026-04-08T14:30:46.006Z</time></trkpt><trkpt lat="42.4054681" lon="2.8773977"><ele>99.0</ele><time>2026-04-08T14:30:48.369Z</time></trkpt><trkpt lat="42.4053756" lon="2.8773972"><ele>99.0</ele><time>2026-04-08T14:30:50.011Z</time></trkpt><trkpt lat="42.4052215" lon="2.8774378"><ele>99.0</ele><time>2026-04-08T14:30:55.322Z</time></trkpt><trkpt lat="42.4054125" lon="2.8774477"><ele>99.0</ele><time>2026-04-08T14:31:01.049Z</time></trkpt><trkpt lat="42.4055797" lon="2.8774438"><ele>99.0</ele><time>2026-04-08T14:31:04.992Z</time></trkpt><trkpt lat="42.4054794" lon="2.8774542"><ele>99.0</ele><time>2026-04-08T14:31:06.693Z</time></trkpt><trkpt lat="42.4053558" lon="2.8774691"><ele>99.0</ele><time>2026-04-08T14:31:07.812Z</time></trkpt><trkpt lat="42.4052926" lon="2.8774774"><ele>99.0</ele><time>2026-04-08T14:31:08.933Z</time></trkpt><trkpt lat="42.4054376" lon="2.8774688"><ele>99.0</ele><time>2026-04-08T14:31:12.235Z</time></trkpt><trkpt lat="42.4055085" lon="2.8774677"><ele>99.0</ele><time>2026-04-08T14:31:13.317Z</time></trkpt><trkpt lat="42.4055812" lon="2.8774563"><ele>99.0</ele><time>2026-04-08T14:31:14.375Z</time></trkpt><trkpt lat="42.4056164" lon="2.8773696"><ele>99.0</ele><time>2026-04-08T14:31:48.198Z</time></trkpt><trkpt lat="42.4056373" lon="2.8772849"><ele>99.0</ele><time>2026-04-08T14:31:53.534Z</time></trkpt><trkpt lat="42.4055124" lon="2.8773068"><ele>99.0</ele><time>2026-04-08T14:31:59.174Z</time></trkpt><trkpt lat="42.4055511" lon="2.8773904"><ele>99.0</ele><time>2026-04-08T14:32:02.315Z</time></trkpt><trkpt lat="42.4056079" lon="2.8774348"><ele>99.0</ele><time>2026-04-08T14:32:06.219Z</time></trkpt><trkpt lat="42.4056934" lon="2.8773811"><ele>99.0</ele><time>2026-04-08T14:32:12.947Z</time></trkpt><trkpt lat="42.4057291" lon="2.8773078"><ele>99.0</ele><time>2026-04-08T14:32:22.939Z</time></trkpt><trkpt lat="42.4057857" lon="2.8772565"><ele>99.0</ele><time>2026-04-08T14:32:27.745Z</time></trkpt><trkpt lat="42.4057323" lon="2.8773275"><ele>99.0</ele><time>2026-04-08T14:32:33.509Z</time></trkpt><trkpt lat="42.4055662" lon="2.8773743"><ele>99.0</ele><time>2026-04-08T14:32:54.702Z</time></trkpt><trkpt lat="42.405498" lon="2.877401"><ele>99.0</ele><time>2026-04-08T14:32:55.764Z</time></trkpt><trkpt lat="42.4054311" lon="2.877425"><ele>99.0</ele><time>2026-04-08T14:32:56.844Z</time></trkpt><trkpt lat="42.4053484" lon="2.8774443"><ele>99.0</ele><time>2026-04-08T14:32:57.945Z</time></trkpt><trkpt lat="42.4052695" lon="2.8774357"><ele>99.0</ele><time>2026-04-08T14:33:00.084Z</time></trkpt><trkpt lat="42.4053715" lon="2.8774081"><ele>99.0</ele><time>2026-04-08T14:33:33.637Z</time></trkpt><trkpt lat="42.4054396" lon="2.877381"><ele>99.0</ele><time>2026-04-08T14:33:40.909Z</time></trkpt><trkpt lat="42.4055074" lon="2.8773437"><ele>99.0</ele><time>2026-04-08T14:33:54.051Z</time></trkpt><trkpt lat="42.4055664" lon="2.8773933"><ele>99.0</ele><time>2026-04-08T14:34:19.735Z</time></trkpt><trkpt lat="42.4054963" lon="2.8774048"><ele>99.0</ele><time>2026-04-08T14:35:32.455Z</time></trkpt><trkpt lat="42.4054357" lon="2.8773556"><ele>99.0</ele><time>2026-04-08T14:35:39.209Z</time></trkpt><trkpt lat="42.4054372" lon="2.8772688"><ele>99.0</ele><time>2026-04-08T14:35:44.691Z</time></trkpt><trkpt lat="42.4054439" lon="2.8771718"><ele>99.0</ele><time>2026-04-08T14:35:51.858Z</time></trkpt><trkpt lat="42.4055586" lon="2.8771155"><ele>99.0</ele><time>2026-04-08T14:35:57.529Z</time></trkpt><trkpt lat="42.405624" lon="2.8771009"><ele>99.0</ele><time>2026-04-08T14:35:58.57Z</time></trkpt><trkpt lat="42.4057295" lon="2.8770741"><ele>99.0</ele><time>2026-04-08T14:36:00.592Z</time></trkpt><trkpt lat="42.4058033" lon="2.8770572"><ele>99.0</ele><time>2026-04-08T14:36:01.633Z</time></trkpt><trkpt lat="42.4059358" lon="2.8770252"><ele>99.0</ele><time>2026-04-08T14:36:02.935Z</time></trkpt><trkpt lat="42.4057015" lon="2.8772605"><ele>99.0</ele><time>2026-04-08T14:36:29.861Z</time></trkpt><trkpt lat="42.4056244" lon="2.8773187"><ele>99.0</ele><time>2026-04-08T14:36:31.243Z</time></trkpt><trkpt lat="42.4056994" lon="2.8772974"><ele>99.0</ele><time>2026-04-08T14:36:47.945Z</time></trkpt><trkpt lat="42.4057359" lon="2.8772184"><ele>99.0</ele><time>2026-04-08T14:36:57.917Z</time></trkpt><trkpt lat="42.4057726" lon="2.8771424"><ele>99.0</ele><time>2026-04-08T14:37:09.768Z</time></trkpt><trkpt lat="42.4057492" lon="2.877246"><ele>99.0</ele><time>2026-04-08T14:37:20.936Z</time></trkpt><trkpt lat="42.4058158" lon="2.8772816"><ele>99.0</ele><time>2026-04-08T14:37:32.193Z</time></trkpt><trkpt lat="42.4057521" lon="2.8773021"><ele>99.0</ele><time>2026-04-08T14:37:38.297Z</time></trkpt><trkpt lat="42.4056761" lon="2.8773115"><ele>99.0</ele><time>2026-04-08T14:37:45.449Z</time></trkpt><trkpt lat="42.4056179" lon="2.8773593"><ele>99.0</ele><time>2026-04-08T14:39:14.157Z</time></trkpt><trkpt lat="42.4054048" lon="2.8773666"><ele>99.0</ele><time>2026-04-08T14:39:33.369Z</time></trkpt><trkpt lat="42.4053235" lon="2.8773176"><ele>99.0</ele><time>2026-04-08T14:39:35.508Z</time></trkpt><trkpt lat="42.4052355" lon="2.8772364"><ele>99.0</ele><time>2026-04-08T14:39:44.766Z</time></trkpt><trkpt lat="42.405296" lon="2.8772655"><ele>99.0</ele><time>2026-04-08T14:39:55.853Z</time></trkpt><trkpt lat="42.4053426" lon="2.8773251"><ele>99.0</ele><time>2026-04-08T14:40:12.395Z</time></trkpt><trkpt lat="42.4052934" lon="2.8773901"><ele>99.0</ele><time>2026-04-08T14:40:19.598Z</time></trkpt><trkpt lat="42.4052339" lon="2.8774414"><ele>99.0</ele><time>2026-04-08T14:40:22.942Z</time></trkpt><trkpt lat="42.4051972" lon="2.8775236"><ele>99.0</ele><time>2026-04-08T14:40:30.273Z</time></trkpt><trkpt lat="42.4052198" lon="2.8776208"><ele>99.0</ele><time>2026-04-08T14:44:05.899Z</time></trkpt><trkpt lat="42.4052296" lon="2.8777172"><ele>99.0</ele><time>2026-04-08T14:44:14.833Z</time></trkpt><trkpt lat="42.405257" lon="2.8778022"><ele>99.0</ele><time>2026-04-08T14:44:23.162Z</time></trkpt><trkpt lat="42.4052041" lon="2.8778755"><ele>99.0</ele><time>2026-04-08T14:44:33.48Z</time></trkpt><trkpt lat="42.4051518" lon="2.8779675"><ele>99.0</ele><time>2026-04-08T14:44:35.708Z</time></trkpt><trkpt lat="42.4050959" lon="2.8780119"><ele>99.0</ele><time>2026-04-08T14:44:39.972Z</time></trkpt><trkpt lat="42.405036" lon="2.8779725"><ele>99.0</ele><time>2026-04-08T14:44:44.116Z</time></trkpt><trkpt lat="42.4049647" lon="2.8779823"><ele>99.0</ele><time>2026-04-08T14:44:50.18Z</time></trkpt><trkpt lat="42.4049271" lon="2.8780531"><ele>99.0</ele><time>2026-04-08T14:44:54.226Z</time></trkpt><trkpt lat="42.4049408" lon="2.8781373"><ele>99.0</ele><time>2026-04-08T14:51:46.159Z</time></trkpt><trkpt lat="42.4050057" lon="2.8781378"><ele>99.0</ele><time>2026-04-08T14:51:50.163Z</time></trkpt><trkpt lat="42.4050721" lon="2.8781318"><ele>99.0</ele><time>2026-04-08T14:51:53.165Z</time></trkpt><trkpt lat="42.4051355" lon="2.8781351"><ele>99.0</ele><time>2026-04-08T14:51:56.168Z</time></trkpt><trkpt lat="42.405206" lon="2.8781038"><ele>99.0</ele><time>2026-04-08T14:52:00.233Z</time></trkpt><trkpt lat="42.4054279" lon="2.8780171"><ele>99.16666666666667</ele><time>2026-04-08T14:52:03.918Z</time></trkpt><trkpt lat="42.4055032" lon="2.8779884"><ele>99.33333333333334</ele><time>2026-04-08T14:52:04.918Z</time></trkpt><trkpt lat="42.4055718" lon="2.8779659"><ele>99.5</ele><time>2026-04-08T14:52:05.918Z</time></trkpt><trkpt lat="42.4056372" lon="2.8779483"><ele>99.66666666666667</ele><time>2026-04-08T14:52:06.919Z</time></trkpt><trkpt lat="42.4057022" lon="2.8779315"><ele>99.83333333333334</ele><time>2026-04-08T14:52:07.919Z</time></trkpt><trkpt lat="42.4057683" lon="2.8779183"><ele>100.0</ele><time>2026-04-08T14:52:08.919Z</time></trkpt><trkpt lat="42.4058883" lon="2.8778817"><ele>100.0</ele><time>2026-04-08T14:52:10.919Z</time></trkpt><trkpt lat="42.4060183" lon="2.8778267"><ele>100.0</ele><time>2026-04-08T14:52:12.919Z</time></trkpt><trkpt lat="42.406125" lon="2.8777917"><ele>100.0</ele><time>2026-04-08T14:52:14.919Z</time></trkpt><trkpt lat="42.406215" lon="2.8777217"><ele>100.0</ele><time>2026-04-08T14:52:16.919Z</time></trkpt><trkpt lat="42.4062867" lon="2.8776067"><ele>100.2</ele><time>2026-04-08T14:52:18.918Z</time></trkpt><trkpt lat="42.4063617" lon="2.8774767"><ele>100.4</ele><time>2026-04-08T14:52:20.919Z</time></trkpt><trkpt lat="42.406405" lon="2.8774"><ele>100.6</ele><time>2026-04-08T14:52:21.919Z</time></trkpt><trkpt lat="42.4064417" lon="2.8773283"><ele>100.8</ele><time>2026-04-08T14:52:22.919Z</time></trkpt><trkpt lat="42.4065017" lon="2.8772"><ele>101.0</ele><time>2026-04-08T14:52:24.918Z</time></trkpt><trkpt lat="42.4065283" lon="2.87707"><ele>101.0</ele><time>2026-04-08T14:52:26.918Z</time></trkpt><trkpt lat="42.406515" lon="2.8769333"><ele>101.0</ele><time>2026-04-08T14:52:28.918Z</time></trkpt><trkpt lat="42.4064867" lon="2.8767917"><ele>101.0</ele><time>2026-04-08T14:52:30.919Z</time></trkpt><trkpt lat="42.4064483" lon="2.876665"><ele>101.0</ele><time>2026-04-08T14:52:32.918Z</time></trkpt><trkpt lat="42.4064117" lon="2.8765567"><ele>101.0</ele><time>2026-04-08T14:52:34.919Z</time></trkpt><trkpt lat="42.406355" lon="2.8764867"><ele>100.19999999999999</ele><time>2026-04-08T14:52:39.919Z</time></trkpt><trkpt lat="42.4062567" lon="2.8765267"><ele>99.39999999999999</ele><time>2026-04-08T14:52:42.919Z</time></trkpt><trkpt lat="42.4061517" lon="2.87657"><ele>98.6</ele><time>2026-04-08T14:52:44.919Z</time></trkpt><trkpt lat="42.4060383" lon="2.8766233"><ele>97.8</ele><time>2026-04-08T14:52:46.918Z</time></trkpt><trkpt lat="42.4059767" lon="2.87665"><ele>97.0</ele><time>2026-04-08T14:52:47.919Z</time></trkpt><trkpt lat="42.40591" lon="2.876675"><ele>97.00000000000001</ele><time>2026-04-08T14:52:48.919Z</time></trkpt><trkpt lat="42.4058383" lon="2.8767033"><ele>97.0</ele><time>2026-04-08T14:52:49.918Z</time></trkpt><trkpt lat="42.40576" lon="2.8767367"><ele>97.0</ele><time>2026-04-08T14:52:50.918Z</time></trkpt><trkpt lat="42.4056783" lon="2.87677"><ele>97.0</ele><time>2026-04-08T14:52:51.919Z</time></trkpt><trkpt lat="42.4056017" lon="2.8768017"><ele>97.00000000000001</ele><time>2026-04-08T14:52:52.919Z</time></trkpt><trkpt lat="42.40553" lon="2.8768367"><ele>97.0</ele><time>2026-04-08T14:52:53.919Z</time></trkpt><trkpt lat="42.40546" lon="2.876865"><ele>97.0</ele><time>2026-04-08T14:52:54.919Z</time></trkpt><trkpt lat="42.4053933" lon="2.8768883"><ele>97.0</ele><time>2026-04-08T14:52:55.919Z</time></trkpt><trkpt lat="42.4053283" lon="2.876915"><ele>97.0</ele><time>2026-04-08T14:52:56.919Z</time></trkpt><trkpt lat="42.405265" lon="2.8769417"><ele>97.0</ele><time>2026-04-08T14:52:57.919Z</time></trkpt><trkpt lat="42.4051983" lon="2.8769717"><ele>97.0</ele><time>2026-04-08T14:52:58.919Z</time></trkpt><trkpt lat="42.405135" lon="2.8770017"><ele>97.0</ele><time>2026-04-08T14:52:59.919Z</time></trkpt><trkpt lat="42.4050717" lon="2.8770367"><ele>97.0</ele><time>2026-04-08T14:53:00.919Z</time></trkpt><trkpt lat="42.4050067" lon="2.8770617"><ele>97.00000000000001</ele><time>2026-04-08T14:53:01.918Z</time></trkpt><trkpt lat="42.4049433" lon="2.8770883"><ele>97.0</ele><time>2026-04-08T14:53:02.918Z</time></trkpt><trkpt lat="42.4048183" lon="2.8771333"><ele>97.0</ele><time>2026-04-08T14:53:04.919Z</time></trkpt><trkpt lat="42.4047533" lon="2.877155"><ele>97.0</ele><time>2026-04-08T14:53:05.919Z</time></trkpt><trkpt lat="42.4046817" lon="2.877175"><ele>97.00000000000001</ele><time>2026-04-08T14:53:06.918Z</time></trkpt><trkpt lat="42.40461" lon="2.8772017"><ele>97.0</ele><time>2026-04-08T14:53:07.918Z</time></trkpt><trkpt lat="42.4045283" lon="2.8772267"><ele>96.6</ele><time>2026-04-08T14:53:08.919Z</time></trkpt><trkpt lat="42.40444" lon="2.8772533"><ele>96.19999999999999</ele><time>2026-04-08T14:53:09.918Z</time></trkpt><trkpt lat="42.404355" lon="2.8772883"><ele>95.8</ele><time>2026-04-08T14:53:10.919Z</time></trkpt><trkpt lat="42.4042817" lon="2.877315"><ele>95.4</ele><time>2026-04-08T14:53:11.918Z</time></trkpt><trkpt lat="42.40418" lon="2.8773217"><ele>95.0</ele><time>2026-04-08T14:53:13.918Z</time></trkpt><trkpt lat="42.4040933" lon="2.8772517"><ele>95.0</ele><time>2026-04-08T14:53:15.918Z</time></trkpt><trkpt lat="42.40404" lon="2.8771133"><ele>95.0</ele><time>2026-04-08T14:53:17.919Z</time></trkpt><trkpt lat="42.40401" lon="2.877035"><ele>95.0</ele><time>2026-04-08T14:53:18.918Z</time></trkpt><trkpt lat="42.4039367" lon="2.8769083"><ele>95.0</ele><time>2026-04-08T14:53:20.918Z</time></trkpt><trkpt lat="42.40385" lon="2.876885"><ele>95.0</ele><time>2026-04-08T14:53:22.918Z</time></trkpt><trkpt lat="42.4037867" lon="2.877025"><ele>95.0</ele><time>2026-04-08T14:54:07.918Z</time></trkpt><trkpt lat="42.4038167" lon="2.877115"><ele>95.0</ele><time>2026-04-08T14:54:14.918Z</time></trkpt><trkpt lat="42.4038483" lon="2.8772017"><ele>95.0</ele><time>2026-04-08T14:54:25.917Z</time></trkpt><trkpt lat="42.403865" lon="2.877315"><ele>95.0</ele><time>2026-04-08T14:54:30.918Z</time></trkpt><trkpt lat="42.4038883" lon="2.8774"><ele>95.0</ele><time>2026-04-08T14:54:33.918Z</time></trkpt><trkpt lat="42.4039233" lon="2.877495"><ele>95.0</ele><time>2026-04-08T14:54:37.918Z</time></trkpt><trkpt lat="42.4039667" lon="2.877575"><ele>95.0</ele><time>2026-04-08T14:54:40.918Z</time></trkpt><trkpt lat="42.404045" lon="2.877815"><ele>95.4</ele><time>2026-04-08T14:54:53.918Z</time></trkpt><trkpt lat="42.4040667" lon="2.8778983"><ele>95.8</ele><time>2026-04-08T14:55:01.917Z</time></trkpt><trkpt lat="42.4040817" lon="2.8779883"><ele>96.19999999999999</ele><time>2026-04-08T14:55:05.917Z</time></trkpt><trkpt lat="42.4040967" lon="2.878095"><ele>96.6</ele><time>2026-04-08T14:55:08.917Z</time></trkpt><trkpt lat="42.4041033" lon="2.8782567"><ele>97.0</ele><time>2026-04-08T14:55:22.917Z</time></trkpt><trkpt lat="42.40408" lon="2.8784233"><ele>96.83333333333334</ele><time>2026-04-08T14:55:45.918Z</time></trkpt><trkpt lat="42.4040583" lon="2.8785283"><ele>96.66666666666667</ele><time>2026-04-08T14:55:50.918Z</time></trkpt><trkpt lat="42.404035" lon="2.8786133"><ele>96.5</ele><time>2026-04-08T14:55:52.918Z</time></trkpt><trkpt lat="42.4039933" lon="2.8787"><ele>96.33333333333334</ele><time>2026-04-08T14:55:54.917Z</time></trkpt><trkpt lat="42.4039383" lon="2.8787833"><ele>96.16666666666667</ele><time>2026-04-08T14:55:56.917Z</time></trkpt><trkpt lat="42.4038567" lon="2.8788567"><ele>96.0</ele><time>2026-04-08T14:55:58.917Z</time></trkpt><trkpt lat="42.403755" lon="2.87892"><ele>96.0</ele><time>2026-04-08T14:56:00.918Z</time></trkpt><trkpt lat="42.4036517" lon="2.8789583"><ele>96.0</ele><time>2026-04-08T14:56:02.917Z</time></trkpt><trkpt lat="42.4035667" lon="2.8789917"><ele>96.0</ele><time>2026-04-08T14:56:04.918Z</time></trkpt><trkpt lat="42.4034683" lon="2.8790283"><ele>96.0</ele><time>2026-04-08T14:56:06.918Z</time></trkpt><trkpt lat="42.403345" lon="2.8790733"><ele>96.0</ele><time>2026-04-08T14:56:08.918Z</time></trkpt><trkpt lat="42.4032767" lon="2.879095"><ele>96.0</ele><time>2026-04-08T14:56:09.918Z</time></trkpt><trkpt lat="42.4032083" lon="2.87912"><ele>96.0</ele><time>2026-04-08T14:56:10.917Z</time></trkpt><trkpt lat="42.4031433" lon="2.8791417"><ele>96.0</ele><time>2026-04-08T14:56:11.918Z</time></trkpt><trkpt lat="42.4030817" lon="2.8791683"><ele>96.0</ele><time>2026-04-08T14:56:12.917Z</time></trkpt><trkpt lat="42.403" lon="2.8792133"><ele>96.0</ele><time>2026-04-08T14:56:14.918Z</time></trkpt><trkpt lat="42.4029383" lon="2.87925"><ele>96.0</ele><time>2026-04-08T14:56:17.918Z</time></trkpt><trkpt lat="42.4028167" lon="2.8792933"><ele>96.16666666666667</ele><time>2026-04-08T14:56:49.918Z</time></trkpt><trkpt lat="42.4027533" lon="2.8793317"><ele>96.33333333333334</ele><time>2026-04-08T14:56:53.919Z</time></trkpt><trkpt lat="42.402645" lon="2.8793583"><ele>96.5</ele><time>2026-04-08T14:57:27.918Z</time></trkpt><trkpt lat="42.4025817" lon="2.87939"><ele>96.66666666666667</ele><time>2026-04-08T14:57:30.919Z</time></trkpt><trkpt lat="42.4025183" lon="2.879405"><ele>96.83333333333334</ele><time>2026-04-08T14:57:34.919Z</time></trkpt><trkpt lat="42.4024017" lon="2.879425"><ele>97.0</ele><time>2026-04-08T14:57:55.919Z</time></trkpt><trkpt lat="42.4023333" lon="2.879455"><ele>97.0</ele><time>2026-04-08T14:57:58.919Z</time></trkpt><trkpt lat="42.402255" lon="2.879485"><ele>97.0</ele><time>2026-04-08T14:58:02.919Z</time></trkpt><trkpt lat="42.4021867" lon="2.879515"><ele>97.0</ele><time>2026-04-08T14:58:06.919Z</time></trkpt><trkpt lat="42.4021233" lon="2.87954"><ele>97.0</ele><time>2026-04-08T14:58:19.918Z</time></trkpt><trkpt lat="42.4020517" lon="2.8795517"><ele>97.0</ele><time>2026-04-08T14:58:37.919Z</time></trkpt><trkpt lat="42.4019867" lon="2.87958"><ele>97.0</ele><time>2026-04-08T14:58:41.918Z</time></trkpt><trkpt lat="42.4019233" lon="2.8796"><ele>97.0</ele><time>2026-04-08T14:59:07.918Z</time></trkpt><trkpt lat="42.401855" lon="2.8796267"><ele>96.57142857142857</ele><time>2026-04-08T14:59:13.918Z</time></trkpt><trkpt lat="42.401775" lon="2.8796583"><ele>96.14285714285715</ele><time>2026-04-08T14:59:16.917Z</time></trkpt><trkpt lat="42.4016967" lon="2.8796917"><ele>95.71428571428572</ele><time>2026-04-08T14:59:19.918Z</time></trkpt><trkpt lat="42.40163" lon="2.8797217"><ele>95.28571428571428</ele><time>2026-04-08T14:59:21.918Z</time></trkpt><trkpt lat="42.401555" lon="2.8797567"><ele>94.85714285714286</ele><time>2026-04-08T14:59:24.917Z</time></trkpt><trkpt lat="42.4014867" lon="2.8797783"><ele>94.42857142857143</ele><time>2026-04-08T14:59:31.918Z</time></trkpt><trkpt lat="42.40143" lon="2.8798167"><ele>94.0</ele><time>2026-04-08T14:59:35.918Z</time></trkpt><trkpt lat="42.4013517" lon="2.879835"><ele>94.16666666666666</ele><time>2026-04-08T14:59:55.917Z</time></trkpt><trkpt lat="42.40126" lon="2.879875"><ele>94.33333333333333</ele><time>2026-04-08T15:00:07.918Z</time></trkpt><trkpt lat="42.40119" lon="2.8798933"><ele>94.5</ele><time>2026-04-08T15:00:12.918Z</time></trkpt><trkpt lat="42.4011183" lon="2.8799333"><ele>94.66666666666667</ele><time>2026-04-08T15:00:26.917Z</time></trkpt><trkpt lat="42.4010483" lon="2.879965"><ele>94.83333333333334</ele><time>2026-04-08T15:00:32.918Z</time></trkpt><trkpt lat="42.4009817" lon="2.8800083"><ele>95.0</ele><time>2026-04-08T15:00:49.918Z</time></trkpt><trkpt lat="42.4009233" lon="2.8800433"><ele>95.0</ele><time>2026-04-08T15:00:53.918Z</time></trkpt><trkpt lat="42.40085" lon="2.88007"><ele>95.0</ele><time>2026-04-08T15:01:15.918Z</time></trkpt><trkpt lat="42.4007817" lon="2.88012"><ele>95.0</ele><time>2026-04-08T15:01:32.917Z</time></trkpt><trkpt lat="42.4007" lon="2.880155"><ele>95.0</ele><time>2026-04-08T15:02:00.919Z</time></trkpt><trkpt lat="42.4005967" lon="2.8802067"><ele>95.0</ele><time>2026-04-08T15:02:07.918Z</time></trkpt><trkpt lat="42.4005217" lon="2.8802383"><ele>95.0</ele><time>2026-04-08T15:02:12.919Z</time></trkpt><trkpt lat="42.4004383" lon="2.8802733"><ele>95.0</ele><time>2026-04-08T15:02:15.919Z</time></trkpt><trkpt lat="42.4003483" lon="2.880305"><ele>95.0</ele><time>2026-04-08T15:02:17.919Z</time></trkpt><trkpt lat="42.400255" lon="2.8803417"><ele>95.0</ele><time>2026-04-08T15:02:19.919Z</time></trkpt><trkpt lat="42.4001583" lon="2.88038"><ele>95.0</ele><time>2026-04-08T15:02:21.919Z</time></trkpt><trkpt lat="42.4000783" lon="2.8804167"><ele>95.0</ele><time>2026-04-08T15:02:23.919Z</time></trkpt><trkpt lat="42.400005" lon="2.8804533"><ele>95.0</ele><time>2026-04-08T15:02:25.918Z</time></trkpt><trkpt lat="42.3999283" lon="2.8804933"><ele>95.0</ele><time>2026-04-08T15:02:27.919Z</time></trkpt><trkpt lat="42.399855" lon="2.8805233"><ele>95.0</ele><time>2026-04-08T15:02:29.919Z</time></trkpt><trkpt lat="42.39979" lon="2.880535"><ele>95.0</ele><time>2026-04-08T15:02:32.919Z</time></trkpt><trkpt lat="42.3997267" lon="2.8805533"><ele>95.0</ele><time>2026-04-08T15:02:45.919Z</time></trkpt><trkpt lat="42.3995833" lon="2.880615"><ele>95.0</ele><time>2026-04-08T15:05:18.918Z</time></trkpt><trkpt lat="42.399465" lon="2.8806617"><ele>94.6</ele><time>2026-04-08T15:05:36.918Z</time></trkpt><trkpt lat="42.39933" lon="2.8807083"><ele>94.2</ele><time>2026-04-08T15:06:45.917Z</time></trkpt><trkpt lat="42.3992333" lon="2.8807317"><ele>93.80000000000001</ele><time>2026-04-08T15:08:09.918Z</time></trkpt><trkpt lat="42.3991683" lon="2.8807383"><ele>93.4</ele><time>2026-04-08T15:09:18.917Z</time></trkpt><trkpt lat="42.3990783" lon="2.8807983"><ele>93.0</ele><time>2026-04-08T15:10:02.918Z</time></trkpt><trkpt lat="42.3989917" lon="2.8808567"><ele>93.0</ele><time>2026-04-08T15:12:06.919Z</time></trkpt><trkpt lat="42.3989017" lon="2.8809017"><ele>93.0</ele><time>2026-04-08T15:12:16.919Z</time></trkpt><trkpt lat="42.3988233" lon="2.8809217"><ele>93.0</ele><time>2026-04-08T15:12:18.919Z</time></trkpt><trkpt lat="42.3987267" lon="2.88094"><ele>93.0</ele><time>2026-04-08T15:12:20.919Z</time></trkpt><trkpt lat="42.3986583" lon="2.8809533"><ele>93.0</ele><time>2026-04-08T15:12:23.918Z</time></trkpt><trkpt lat="42.39858" lon="2.8809417"><ele>93.0</ele><time>2026-04-08T15:12:27.919Z</time></trkpt><trkpt lat="42.3985167" lon="2.880905"><ele>92.4</ele><time>2026-04-08T15:12:32.919Z</time></trkpt><trkpt lat="42.3984233" lon="2.88086"><ele>91.80000000000001</ele><time>2026-04-08T15:12:35.919Z</time></trkpt><trkpt lat="42.398335" lon="2.880835"><ele>91.2</ele><time>2026-04-08T15:12:37.918Z</time></trkpt><trkpt lat="42.3982283" lon="2.8808733"><ele>90.6</ele><time>2026-04-08T15:12:39.919Z</time></trkpt><trkpt lat="42.3981717" lon="2.88092"><ele>90.0</ele><time>2026-04-08T15:12:40.919Z</time></trkpt><trkpt lat="42.398095" lon="2.88101"><ele>90.0</ele><time>2026-04-08T15:12:42.919Z</time></trkpt><trkpt lat="42.397995" lon="2.8811217"><ele>90.0</ele><time>2026-04-08T15:12:44.919Z</time></trkpt><trkpt lat="42.3979267" lon="2.8812017"><ele>90.0</ele><time>2026-04-08T15:12:45.919Z</time></trkpt><trkpt lat="42.3978383" lon="2.8812817"><ele>90.0</ele><time>2026-04-08T15:12:46.919Z</time></trkpt><trkpt lat="42.3977233" lon="2.881365"><ele>90.0</ele><time>2026-04-08T15:12:47.919Z</time></trkpt><trkpt lat="42.3975983" lon="2.88144"><ele>90.0</ele><time>2026-04-08T15:12:48.919Z</time></trkpt><trkpt lat="42.3974567" lon="2.8815067"><ele>90.0</ele><time>2026-04-08T15:12:49.919Z</time></trkpt><trkpt lat="42.3973133" lon="2.8815733"><ele>90.0</ele><time>2026-04-08T15:12:50.919Z</time></trkpt><trkpt lat="42.3971667" lon="2.8816417"><ele>89.0</ele><time>2026-04-08T15:12:51.919Z</time></trkpt><trkpt lat="42.3970183" lon="2.88171"><ele>88.0</ele><time>2026-04-08T15:12:52.919Z</time></trkpt><trkpt lat="42.3968667" lon="2.88178"><ele>87.0</ele><time>2026-04-08T15:12:53.918Z</time></trkpt><trkpt lat="42.3967033" lon="2.8818533"><ele>87.0</ele><time>2026-04-08T15:12:54.919Z</time></trkpt><trkpt lat="42.396535" lon="2.8819267"><ele>87.0</ele><time>2026-04-08T15:12:55.919Z</time></trkpt><trkpt lat="42.3963633" lon="2.8820033"><ele>87.0</ele><time>2026-04-08T15:12:56.918Z</time></trkpt><trkpt lat="42.39619" lon="2.8820833"><ele>87.33333333333333</ele><time>2026-04-08T15:12:57.918Z</time></trkpt><trkpt lat="42.3960133" lon="2.8821633"><ele>87.66666666666666</ele><time>2026-04-08T15:12:58.918Z</time></trkpt><trkpt lat="42.3958333" lon="2.8822433"><ele>88.0</ele><time>2026-04-08T15:12:59.919Z</time></trkpt><trkpt lat="42.3956533" lon="2.88232"><ele>87.0</ele><time>2026-04-08T15:13:00.919Z</time></trkpt><trkpt lat="42.3954733" lon="2.8823933"><ele>86.0</ele><time>2026-04-08T15:13:01.918Z</time></trkpt><trkpt lat="42.3952917" lon="2.882465"><ele>85.0</ele><time>2026-04-08T15:13:02.919Z</time></trkpt><trkpt lat="42.3951083" lon="2.8825383"><ele>85.66666666666666</ele><time>2026-04-08T15:13:03.919Z</time></trkpt><trkpt lat="42.394925" lon="2.8826117"><ele>86.33333333333333</ele><time>2026-04-08T15:13:04.919Z</time></trkpt><trkpt lat="42.3947383" lon="2.8826767"><ele>87.0</ele><time>2026-04-08T15:13:05.918Z</time></trkpt><trkpt lat="42.3945483" lon="2.88274"><ele>88.0</ele><time>2026-04-08T15:13:06.919Z</time></trkpt><trkpt lat="42.39436" lon="2.8827983"><ele>89.0</ele><time>2026-04-08T15:13:07.918Z</time></trkpt><trkpt lat="42.394175" lon="2.8828567"><ele>90.0</ele><time>2026-04-08T15:13:08.919Z</time></trkpt><trkpt lat="42.3939883" lon="2.8829117"><ele>92.33333333333334</ele><time>2026-04-08T15:13:09.919Z</time></trkpt><trkpt lat="42.3938017" lon="2.8829617"><ele>94.66666666666667</ele><time>2026-04-08T15:13:10.919Z</time></trkpt><trkpt lat="42.3936183" lon="2.883005"><ele>97.0</ele><time>2026-04-08T15:13:11.919Z</time></trkpt><trkpt lat="42.393435" lon="2.8830483"><ele>97.0</ele><time>2026-04-08T15:13:12.918Z</time></trkpt><trkpt lat="42.3932517" lon="2.8830933"><ele>97.0</ele><time>2026-04-08T15:13:13.919Z</time></trkpt><trkpt lat="42.3930717" lon="2.8831317"><ele>97.0</ele><time>2026-04-08T15:13:14.919Z</time></trkpt><trkpt lat="42.39289" lon="2.88316"><ele>94.0</ele><time>2026-04-08T15:13:15.919Z</time></trkpt><trkpt lat="42.3927117" lon="2.883185"><ele>91.0</ele><time>2026-04-08T15:13:16.919Z</time></trkpt><trkpt lat="42.392535" lon="2.883205"><ele>88.0</ele><time>2026-04-08T15:13:17.918Z</time></trkpt><trkpt lat="42.3923583" lon="2.8832267"><ele>88.0</ele><time>2026-04-08T15:13:18.919Z</time></trkpt><trkpt lat="42.3921817" lon="2.8832483"><ele>88.0</ele><time>2026-04-08T15:13:19.918Z</time></trkpt><trkpt lat="42.3920117" lon="2.8832733"><ele>88.0</ele><time>2026-04-08T15:13:20.919Z</time></trkpt><trkpt lat="42.3918417" lon="2.8833017"><ele>87.66666666666666</ele><time>2026-04-08T15:13:21.919Z</time></trkpt><trkpt lat="42.3916717" lon="2.8833233"><ele>87.33333333333333</ele><time>2026-04-08T15:13:22.918Z</time></trkpt><trkpt lat="42.391495" lon="2.8833433"><ele>87.0</ele><time>2026-04-08T15:13:23.918Z</time></trkpt><trkpt lat="42.39132" lon="2.883365"><ele>86.66666666666667</ele><time>2026-04-08T15:13:24.919Z</time></trkpt><trkpt lat="42.3911533" lon="2.8833917"><ele>86.33333333333334</ele><time>2026-04-08T15:13:25.918Z</time></trkpt><trkpt lat="42.3909833" lon="2.883415"><ele>86.0</ele><time>2026-04-08T15:13:26.919Z</time></trkpt><trkpt lat="42.3908167" lon="2.8834433"><ele>85.0</ele><time>2026-04-08T15:13:27.919Z</time></trkpt><trkpt lat="42.3903167" lon="2.8835033"><ele>85.0</ele><time>2026-04-08T15:13:30.919Z</time></trkpt><trkpt lat="42.39015" lon="2.8835267"><ele>85.0</ele><time>2026-04-08T15:13:31.919Z</time></trkpt><trkpt lat="42.38998" lon="2.88355"><ele>85.0</ele><time>2026-04-08T15:13:32.919Z</time></trkpt><trkpt lat="42.3898067" lon="2.883575"><ele>88.0</ele><time>2026-04-08T15:13:33.918Z</time></trkpt><trkpt lat="42.3892733" lon="2.8836533"><ele>88.0</ele><time>2026-04-08T15:13:36.919Z</time></trkpt><trkpt lat="42.3890867" lon="2.88368"><ele>88.0</ele><time>2026-04-08T15:13:37.919Z</time></trkpt><trkpt lat="42.3889" lon="2.8837067"><ele>88.0</ele><time>2026-04-08T15:13:38.919Z</time></trkpt><trkpt lat="42.3887217" lon="2.8837317"><ele>88.0</ele><time>2026-04-08T15:13:39.919Z</time></trkpt><trkpt lat="42.388175" lon="2.88383"><ele>86.33333333333333</ele><time>2026-04-08T15:13:42.919Z</time></trkpt><trkpt lat="42.3879883" lon="2.883875"><ele>84.66666666666667</ele><time>2026-04-08T15:13:43.919Z</time></trkpt><trkpt lat="42.3878067" lon="2.88394"><ele>83.0</ele><time>2026-04-08T15:13:44.919Z</time></trkpt><trkpt lat="42.38762" lon="2.8840167"><ele>83.0</ele><time>2026-04-08T15:13:45.919Z</time></trkpt><trkpt lat="42.3874317" lon="2.8840967"><ele>83.0</ele><time>2026-04-08T15:13:46.919Z</time></trkpt><trkpt lat="42.387255" lon="2.8841867"><ele>83.0</ele><time>2026-04-08T15:13:47.919Z</time></trkpt><trkpt lat="42.387085" lon="2.8842867"><ele>85.0</ele><time>2026-04-08T15:13:48.919Z</time></trkpt><trkpt lat="42.3869167" lon="2.8843967"><ele>87.0</ele><time>2026-04-08T15:13:49.918Z</time></trkpt><trkpt lat="42.386755" lon="2.884525"><ele>89.0</ele><time>2026-04-08T15:13:50.919Z</time></trkpt><trkpt lat="42.3865983" lon="2.884665"><ele>89.0</ele><time>2026-04-08T15:13:51.919Z</time></trkpt><trkpt lat="42.3864433" lon="2.884815"><ele>89.0</ele><time>2026-04-08T15:13:52.919Z</time></trkpt><trkpt lat="42.38629" lon="2.8849667"><ele>89.0</ele><time>2026-04-08T15:13:53.918Z</time></trkpt><trkpt lat="42.386145" lon="2.885135"><ele>90.66666666666667</ele><time>2026-04-08T15:13:54.919Z</time></trkpt><trkpt lat="42.3859967" lon="2.8853033"><ele>92.33333333333333</ele><time>2026-04-08T15:13:55.919Z</time></trkpt><trkpt lat="42.3858583" lon="2.8854767"><ele>94.0</ele><time>2026-04-08T15:13:56.919Z</time></trkpt><trkpt lat="42.3857233" lon="2.8856567"><ele>94.0</ele><time>2026-04-08T15:13:57.919Z</time></trkpt><trkpt lat="42.3855933" lon="2.885845"><ele>94.0</ele><time>2026-04-08T15:13:58.919Z</time></trkpt><trkpt lat="42.3854633" lon="2.88603"><ele>94.0</ele><time>2026-04-08T15:13:59.917Z</time></trkpt><trkpt lat="42.385335" lon="2.8862217"><ele>94.66666666666666</ele><time>2026-04-08T15:14:00.917Z</time></trkpt><trkpt lat="42.3852083" lon="2.88641"><ele>95.33333333333333</ele><time>2026-04-08T15:14:01.918Z</time></trkpt><trkpt lat="42.3850783" lon="2.8865983"><ele>96.0</ele><time>2026-04-08T15:14:02.918Z</time></trkpt><trkpt lat="42.3849433" lon="2.8867867"><ele>96.0</ele><time>2026-04-08T15:14:03.918Z</time></trkpt><trkpt lat="42.3848017" lon="2.8869683"><ele>96.0</ele><time>2026-04-08T15:14:04.917Z</time></trkpt><trkpt lat="42.384655" lon="2.88712"><ele>96.0</ele><time>2026-04-08T15:14:05.918Z</time></trkpt><trkpt lat="42.3844983" lon="2.8872633"><ele>92.66666666666667</ele><time>2026-04-08T15:14:06.918Z</time></trkpt><trkpt lat="42.3843417" lon="2.8874067"><ele>89.33333333333334</ele><time>2026-04-08T15:14:07.918Z</time></trkpt><trkpt lat="42.3841717" lon="2.887535"><ele>86.0</ele><time>2026-04-08T15:14:08.918Z</time></trkpt><trkpt lat="42.384" lon="2.8876583"><ele>86.66666666666667</ele><time>2026-04-08T15:14:09.917Z</time></trkpt><trkpt lat="42.3838283" lon="2.8877833"><ele>87.33333333333333</ele><time>2026-04-08T15:14:10.918Z</time></trkpt><trkpt lat="42.3836567" lon="2.8879067"><ele>88.0</ele><time>2026-04-08T15:14:11.918Z</time></trkpt><trkpt lat="42.3834833" lon="2.8880317"><ele>88.0</ele><time>2026-04-08T15:14:12.918Z</time></trkpt><trkpt lat="42.3833133" lon="2.8881633"><ele>88.0</ele><time>2026-04-08T15:14:13.917Z</time></trkpt><trkpt lat="42.3831433" lon="2.8882917"><ele>88.0</ele><time>2026-04-08T15:14:14.917Z</time></trkpt><trkpt lat="42.3829683" lon="2.888415"><ele>89.0</ele><time>2026-04-08T15:14:15.918Z</time></trkpt><trkpt lat="42.3827967" lon="2.8885383"><ele>90.0</ele><time>2026-04-08T15:14:16.917Z</time></trkpt><trkpt lat="42.3826233" lon="2.8886617"><ele>91.0</ele><time>2026-04-08T15:14:17.918Z</time></trkpt><trkpt lat="42.3824517" lon="2.8887867"><ele>91.0</ele><time>2026-04-08T15:14:18.918Z</time></trkpt><trkpt lat="42.3822817" lon="2.88891"><ele>91.0</ele><time>2026-04-08T15:14:19.918Z</time></trkpt><trkpt lat="42.38211" lon="2.88904"><ele>91.0</ele><time>2026-04-08T15:14:20.917Z</time></trkpt><trkpt lat="42.381935" lon="2.8891667"><ele>93.33333333333333</ele><time>2026-04-08T15:14:21.917Z</time></trkpt><trkpt lat="42.3817633" lon="2.8892883"><ele>95.66666666666666</ele><time>2026-04-08T15:14:22.917Z</time></trkpt><trkpt lat="42.3815917" lon="2.8894117"><ele>98.0</ele><time>2026-04-08T15:14:23.918Z</time></trkpt><trkpt lat="42.3814217" lon="2.8895333"><ele>92.0</ele><time>2026-04-08T15:14:24.918Z</time></trkpt><trkpt lat="42.38125" lon="2.88965"><ele>86.0</ele><time>2026-04-08T15:14:25.918Z</time></trkpt><trkpt lat="42.3810783" lon="2.889765"><ele>80.0</ele><time>2026-04-08T15:14:26.918Z</time></trkpt><trkpt lat="42.3809067" lon="2.8898783"><ele>80.0</ele><time>2026-04-08T15:14:27.918Z</time></trkpt><trkpt lat="42.38073" lon="2.8899883"><ele>80.0</ele><time>2026-04-08T15:14:28.918Z</time></trkpt><trkpt lat="42.3805567" lon="2.8900967"><ele>80.0</ele><time>2026-04-08T15:14:29.918Z</time></trkpt><trkpt lat="42.3803867" lon="2.8902017"><ele>80.66666666666667</ele><time>2026-04-08T15:14:30.918Z</time></trkpt><trkpt lat="42.38022" lon="2.8903083"><ele>81.33333333333333</ele><time>2026-04-08T15:14:31.918Z</time></trkpt><trkpt lat="42.3800533" lon="2.8904133"><ele>82.0</ele><time>2026-04-08T15:14:32.917Z</time></trkpt><trkpt lat="42.3798883" lon="2.89052"><ele>82.0</ele><time>2026-04-08T15:14:33.917Z</time></trkpt><trkpt lat="42.3797267" lon="2.8906267"><ele>82.0</ele><time>2026-04-08T15:14:34.918Z</time></trkpt><trkpt lat="42.3795683" lon="2.8907317"><ele>82.0</ele><time>2026-04-08T15:14:35.917Z</time></trkpt><trkpt lat="42.37941" lon="2.8908367"><ele>87.0</ele><time>2026-04-08T15:14:36.918Z</time></trkpt><trkpt lat="42.3792517" lon="2.8909383"><ele>92.0</ele><time>2026-04-08T15:14:37.918Z</time></trkpt><trkpt lat="42.3790917" lon="2.8910417"><ele>97.0</ele><time>2026-04-08T15:14:38.918Z</time></trkpt><trkpt lat="42.3789367" lon="2.8911417"><ele>93.0</ele><time>2026-04-08T15:14:39.918Z</time></trkpt><trkpt lat="42.378775" lon="2.8912433"><ele>89.0</ele><time>2026-04-08T15:14:40.917Z</time></trkpt><trkpt lat="42.3786133" lon="2.8913333"><ele>85.0</ele><time>2026-04-08T15:14:41.918Z</time></trkpt><trkpt lat="42.378445" lon="2.8914133"><ele>85.0</ele><time>2026-04-08T15:14:42.918Z</time></trkpt><trkpt lat="42.378275" lon="2.891485"><ele>85.0</ele><time>2026-04-08T15:14:43.918Z</time></trkpt><trkpt lat="42.3781017" lon="2.8915483"><ele>85.0</ele><time>2026-04-08T15:14:44.918Z</time></trkpt><trkpt lat="42.3779317" lon="2.8916133"><ele>83.0</ele><time>2026-04-08T15:14:45.917Z</time></trkpt><trkpt lat="42.3777633" lon="2.8916767"><ele>81.0</ele><time>2026-04-08T15:14:46.918Z</time></trkpt><trkpt lat="42.3775983" lon="2.8917433"><ele>79.0</ele><time>2026-04-08T15:14:47.917Z</time></trkpt><trkpt lat="42.3774317" lon="2.8918067"><ele>81.0</ele><time>2026-04-08T15:14:48.918Z</time></trkpt><trkpt lat="42.3772583" lon="2.89187"><ele>83.0</ele><time>2026-04-08T15:14:49.918Z</time></trkpt><trkpt lat="42.3770867" lon="2.8919367"><ele>85.0</ele><time>2026-04-08T15:14:50.918Z</time></trkpt><trkpt lat="42.3769117" lon="2.892005"><ele>85.0</ele><time>2026-04-08T15:14:51.918Z</time></trkpt><trkpt lat="42.3767383" lon="2.89207"><ele>85.0</ele><time>2026-04-08T15:14:52.918Z</time></trkpt><trkpt lat="42.37657" lon="2.892135"><ele>85.0</ele><time>2026-04-08T15:14:53.917Z</time></trkpt><trkpt lat="42.3763967" lon="2.8921967"><ele>83.0</ele><time>2026-04-08T15:14:54.917Z</time></trkpt><trkpt lat="42.3762283" lon="2.89226"><ele>81.0</ele><time>2026-04-08T15:14:55.917Z</time></trkpt><trkpt lat="42.37606" lon="2.892325"><ele>79.0</ele><time>2026-04-08T15:14:56.918Z</time></trkpt><trkpt lat="42.3758933" lon="2.8923917"><ele>79.0</ele><time>2026-04-08T15:14:57.918Z</time></trkpt><trkpt lat="42.3757233" lon="2.8924617"><ele>79.0</ele><time>2026-04-08T15:14:58.918Z</time></trkpt><trkpt lat="42.37556" lon="2.8925383"><ele>79.0</ele><time>2026-04-08T15:14:59.918Z</time></trkpt><trkpt lat="42.3753983" lon="2.8926333"><ele>79.33333333333333</ele><time>2026-04-08T15:15:00.918Z</time></trkpt><trkpt lat="42.3752433" lon="2.8927417"><ele>79.66666666666667</ele><time>2026-04-08T15:15:01.918Z</time></trkpt><trkpt lat="42.3750933" lon="2.8928617"><ele>80.0</ele><time>2026-04-08T15:15:02.918Z</time></trkpt><trkpt lat="42.3749517" lon="2.8929933"><ele>80.0</ele><time>2026-04-08T15:15:03.918Z</time></trkpt><trkpt lat="42.37481" lon="2.8931267"><ele>80.0</ele><time>2026-04-08T15:15:04.918Z</time></trkpt><trkpt lat="42.3746667" lon="2.8932617"><ele>80.0</ele><time>2026-04-08T15:15:05.918Z</time></trkpt><trkpt lat="42.3745233" lon="2.8933967"><ele>80.33333333333334</ele><time>2026-04-08T15:15:06.918Z</time></trkpt><trkpt lat="42.37438" lon="2.8935333"><ele>80.66666666666667</ele><time>2026-04-08T15:15:07.918Z</time></trkpt><trkpt lat="42.3742383" lon="2.8936683"><ele>81.0</ele><time>2026-04-08T15:15:08.918Z</time></trkpt><trkpt lat="42.374095" lon="2.8938033"><ele>81.0</ele><time>2026-04-08T15:15:09.918Z</time></trkpt><trkpt lat="42.3739467" lon="2.893945"><ele>81.0</ele><time>2026-04-08T15:15:10.918Z</time></trkpt><trkpt lat="42.3737967" lon="2.89409"><ele>81.0</ele><time>2026-04-08T15:15:11.917Z</time></trkpt><trkpt lat="42.3736467" lon="2.894235"><ele>80.33333333333333</ele><time>2026-04-08T15:15:12.917Z</time></trkpt><trkpt lat="42.3734933" lon="2.8943833"><ele>79.66666666666666</ele><time>2026-04-08T15:15:13.918Z</time></trkpt><trkpt lat="42.3733433" lon="2.8945283"><ele>79.0</ele><time>2026-04-08T15:15:14.918Z</time></trkpt><trkpt lat="42.3731933" lon="2.89467"><ele>79.0</ele><time>2026-04-08T15:15:15.918Z</time></trkpt><trkpt lat="42.3730433" lon="2.8948067"><ele>79.0</ele><time>2026-04-08T15:15:16.918Z</time></trkpt><trkpt lat="42.3728817" lon="2.8949317"><ele>79.0</ele><time>2026-04-08T15:15:17.918Z</time></trkpt><trkpt lat="42.3727117" lon="2.895045"><ele>80.0</ele><time>2026-04-08T15:15:18.917Z</time></trkpt><trkpt lat="42.372545" lon="2.89513"><ele>81.0</ele><time>2026-04-08T15:15:19.918Z</time></trkpt><trkpt lat="42.372385" lon="2.8951967"><ele>82.0</ele><time>2026-04-08T15:15:20.918Z</time></trkpt><trkpt lat="42.3722233" lon="2.895255"><ele>80.33333333333333</ele><time>2026-04-08T15:15:21.918Z</time></trkpt><trkpt lat="42.3720633" lon="2.8953033"><ele>78.66666666666667</ele><time>2026-04-08T15:15:22.918Z</time></trkpt><trkpt lat="42.3719083" lon="2.8953467"><ele>77.0</ele><time>2026-04-08T15:15:23.918Z</time></trkpt><trkpt lat="42.3717517" lon="2.8953917"><ele>77.0</ele><time>2026-04-08T15:15:24.918Z</time></trkpt><trkpt lat="42.3715867" lon="2.8954383"><ele>77.0</ele><time>2026-04-08T15:15:25.918Z</time></trkpt><trkpt lat="42.37142" lon="2.895485"><ele>77.0</ele><time>2026-04-08T15:15:26.918Z</time></trkpt><trkpt lat="42.3712517" lon="2.8955367"><ele>75.66666666666667</ele><time>2026-04-08T15:15:27.918Z</time></trkpt><trkpt lat="42.3710833" lon="2.8955883"><ele>74.33333333333333</ele><time>2026-04-08T15:15:28.918Z</time></trkpt><trkpt lat="42.3709067" lon="2.8956383"><ele>73.0</ele><time>2026-04-08T15:15:29.918Z</time></trkpt><trkpt lat="42.370735" lon="2.89569"><ele>73.0</ele><time>2026-04-08T15:15:30.918Z</time></trkpt><trkpt lat="42.37056" lon="2.8957383"><ele>73.0</ele><time>2026-04-08T15:15:31.918Z</time></trkpt><trkpt lat="42.3703833" lon="2.8957883"><ele>73.0</ele><time>2026-04-08T15:15:32.918Z</time></trkpt><trkpt lat="42.3702083" lon="2.8958417"><ele>71.66666666666666</ele><time>2026-04-08T15:15:33.918Z</time></trkpt><trkpt lat="42.3700283" lon="2.895895"><ele>70.33333333333333</ele><time>2026-04-08T15:15:34.918Z</time></trkpt><trkpt lat="42.36985" lon="2.8959483"><ele>69.0</ele><time>2026-04-08T15:15:35.918Z</time></trkpt><trkpt lat="42.3696767" lon="2.8959933"><ele>71.66666666666667</ele><time>2026-04-08T15:15:36.918Z</time></trkpt><trkpt lat="42.3695" lon="2.8960267"><ele>74.33333333333334</ele><time>2026-04-08T15:15:37.918Z</time></trkpt><trkpt lat="42.3693167" lon="2.8960467"><ele>77.0</ele><time>2026-04-08T15:15:38.918Z</time></trkpt><trkpt lat="42.36914" lon="2.8960517"><ele>77.0</ele><time>2026-04-08T15:15:39.918Z</time></trkpt><trkpt lat="42.36896" lon="2.8960383"><ele>77.0</ele><time>2026-04-08T15:15:40.918Z</time></trkpt><trkpt lat="42.3687833" lon="2.8960117"><ele>77.0</ele><time>2026-04-08T15:15:41.917Z</time></trkpt><trkpt lat="42.3686017" lon="2.8959833"><ele>78.0</ele><time>2026-04-08T15:15:42.918Z</time></trkpt><trkpt lat="42.3684217" lon="2.8959583"><ele>79.0</ele><time>2026-04-08T15:15:43.917Z</time></trkpt><trkpt lat="42.368245" lon="2.895935"><ele>80.0</ele><time>2026-04-08T15:15:44.918Z</time></trkpt><trkpt lat="42.3680633" lon="2.8959083"><ele>76.66666666666667</ele><time>2026-04-08T15:15:45.917Z</time></trkpt><trkpt lat="42.3678733" lon="2.8958867"><ele>73.33333333333333</ele><time>2026-04-08T15:15:46.918Z</time></trkpt><trkpt lat="42.3676733" lon="2.8958767"><ele>70.0</ele><time>2026-04-08T15:15:47.918Z</time></trkpt><trkpt lat="42.3674667" lon="2.89588"><ele>70.0</ele><time>2026-04-08T15:15:48.918Z</time></trkpt><trkpt lat="42.3672617" lon="2.8958967"><ele>70.0</ele><time>2026-04-08T15:15:49.918Z</time></trkpt><trkpt lat="42.3670517" lon="2.8959267"><ele>70.0</ele><time>2026-04-08T15:15:50.918Z</time></trkpt><trkpt lat="42.3668267" lon="2.8959683"><ele>81.0</ele><time>2026-04-08T15:15:51.917Z</time></trkpt><trkpt lat="42.3663683" lon="2.896065"><ele>76.5</ele><time>2026-04-08T15:15:53.917Z</time></trkpt><trkpt lat="42.3661383" lon="2.8961183"><ele>72.0</ele><time>2026-04-08T15:15:54.918Z</time></trkpt><trkpt lat="42.365905" lon="2.8961867"><ele>72.0</ele><time>2026-04-08T15:15:55.918Z</time></trkpt><trkpt lat="42.3656767" lon="2.896265"><ele>72.0</ele><time>2026-04-08T15:15:56.918Z</time></trkpt><trkpt lat="42.3654517" lon="2.8963667"><ele>70.5</ele><time>2026-04-08T15:15:57.918Z</time></trkpt><trkpt lat="42.3652317" lon="2.8964833"><ele>69.0</ele><time>2026-04-08T15:15:58.918Z</time></trkpt><trkpt lat="42.365025" lon="2.896615"><ele>68.5</ele><time>2026-04-08T15:15:59.918Z</time></trkpt><trkpt lat="42.3648217" lon="2.8967767"><ele>68.0</ele><time>2026-04-08T15:16:00.918Z</time></trkpt><trkpt lat="42.36463" lon="2.8969583"><ele>68.0</ele><time>2026-04-08T15:16:01.917Z</time></trkpt><trkpt lat="42.3644533" lon="2.897145"><ele>68.0</ele><time>2026-04-08T15:16:02.917Z</time></trkpt><trkpt lat="42.36428" lon="2.8973517"><ele>68.0</ele><time>2026-04-08T15:16:03.917Z</time></trkpt><trkpt lat="42.3641217" lon="2.8975733"><ele>68.0</ele><time>2026-04-08T15:16:04.917Z</time></trkpt><trkpt lat="42.3639767" lon="2.8978183"><ele>68.5</ele><time>2026-04-08T15:16:05.917Z</time></trkpt><trkpt lat="42.3638417" lon="2.8980717"><ele>69.0</ele><time>2026-04-08T15:16:06.918Z</time></trkpt><trkpt lat="42.3637167" lon="2.8983333"><ele>69.5</ele><time>2026-04-08T15:16:07.918Z</time></trkpt><trkpt lat="42.3635917" lon="2.8985917"><ele>70.0</ele><time>2026-04-08T15:16:08.917Z</time></trkpt><trkpt lat="42.363465" lon="2.8988483"><ele>70.0</ele><time>2026-04-08T15:16:09.917Z</time></trkpt><trkpt lat="42.3633333" lon="2.8990983"><ele>70.0</ele><time>2026-04-08T15:16:10.918Z</time></trkpt><trkpt lat="42.3631933" lon="2.8993367"><ele>69.66666666666666</ele><time>2026-04-08T15:16:11.917Z</time></trkpt><trkpt lat="42.363045" lon="2.8995583"><ele>69.33333333333333</ele><time>2026-04-08T15:16:12.918Z</time></trkpt><trkpt lat="42.3628833" lon="2.89977"><ele>69.0</ele><time>2026-04-08T15:16:13.917Z</time></trkpt><trkpt lat="42.3627117" lon="2.8999667"><ele>67.5</ele><time>2026-04-08T15:16:14.918Z</time></trkpt><trkpt lat="42.3625283" lon="2.9001467"><ele>66.0</ele><time>2026-04-08T15:16:15.918Z</time></trkpt><trkpt lat="42.3623383" lon="2.9003117"><ele>64.33333333333333</ele><time>2026-04-08T15:16:16.917Z</time></trkpt><trkpt lat="42.3621433" lon="2.90045"><ele>62.666666666666664</ele><time>2026-04-08T15:16:17.918Z</time></trkpt><trkpt lat="42.3619367" lon="2.9005733"><ele>61.0</ele><time>2026-04-08T15:16:18.918Z</time></trkpt><trkpt lat="42.3617267" lon="2.90068"><ele>61.0</ele><time>2026-04-08T15:16:19.918Z</time></trkpt><trkpt lat="42.361515" lon="2.9007633"><ele>61.0</ele><time>2026-04-08T15:16:20.918Z</time></trkpt><trkpt lat="42.3613" lon="2.900825"><ele>61.0</ele><time>2026-04-08T15:16:21.918Z</time></trkpt><trkpt lat="42.36108" lon="2.9008667"><ele>61.0</ele><time>2026-04-08T15:16:22.918Z</time></trkpt><trkpt lat="42.3608617" lon="2.9009033"><ele>61.0</ele><time>2026-04-08T15:16:23.918Z</time></trkpt><trkpt lat="42.3606517" lon="2.9009333"><ele>61.0</ele><time>2026-04-08T15:16:24.918Z</time></trkpt><trkpt lat="42.360445" lon="2.900965"><ele>65.66666666666666</ele><time>2026-04-08T15:16:25.917Z</time></trkpt><trkpt lat="42.3602533" lon="2.90099"><ele>70.33333333333333</ele><time>2026-04-08T15:16:26.918Z</time></trkpt><trkpt lat="42.36007" lon="2.9010217"><ele>75.0</ele><time>2026-04-08T15:16:27.917Z</time></trkpt><trkpt lat="42.35989" lon="2.9010717"><ele>75.0</ele><time>2026-04-08T15:16:28.918Z</time></trkpt><trkpt lat="42.359715" lon="2.9011317"><ele>75.0</ele><time>2026-04-08T15:16:29.917Z</time></trkpt><trkpt lat="42.3595417" lon="2.901205"><ele>75.0</ele><time>2026-04-08T15:16:30.917Z</time></trkpt><trkpt lat="42.35936" lon="2.9012933"><ele>71.66666666666667</ele><time>2026-04-08T15:16:31.917Z</time></trkpt><trkpt lat="42.359185" lon="2.9013933"><ele>68.33333333333334</ele><time>2026-04-08T15:16:32.918Z</time></trkpt><trkpt lat="42.3590167" lon="2.9015133"><ele>65.0</ele><time>2026-04-08T15:16:33.917Z</time></trkpt><trkpt lat="42.3588517" lon="2.9016383"><ele>66.0</ele><time>2026-04-08T15:16:34.917Z</time></trkpt><trkpt lat="42.3586917" lon="2.9017683"><ele>67.0</ele><time>2026-04-08T15:16:35.918Z</time></trkpt><trkpt lat="42.3585267" lon="2.9019"><ele>68.0</ele><time>2026-04-08T15:16:36.918Z</time></trkpt><trkpt lat="42.35836" lon="2.9020367"><ele>68.0</ele><time>2026-04-08T15:16:37.918Z</time></trkpt><trkpt lat="42.358195" lon="2.9021783"><ele>68.0</ele><time>2026-04-08T15:16:38.918Z</time></trkpt><trkpt lat="42.3580267" lon="2.9023233"><ele>68.0</ele><time>2026-04-08T15:16:39.918Z</time></trkpt><trkpt lat="42.357855" lon="2.9024683"><ele>67.33333333333334</ele><time>2026-04-08T15:16:40.917Z</time></trkpt><trkpt lat="42.357685" lon="2.9026167"><ele>66.66666666666667</ele><time>2026-04-08T15:16:41.917Z</time></trkpt><trkpt lat="42.357515" lon="2.9027683"><ele>66.0</ele><time>2026-04-08T15:16:42.918Z</time></trkpt><trkpt lat="42.3573433" lon="2.9029233"><ele>64.33333333333333</ele><time>2026-04-08T15:16:43.918Z</time></trkpt><trkpt lat="42.3571733" lon="2.9030733"><ele>62.666666666666664</ele><time>2026-04-08T15:16:44.918Z</time></trkpt><trkpt lat="42.35701" lon="2.903215"><ele>61.0</ele><time>2026-04-08T15:16:45.918Z</time></trkpt><trkpt lat="42.356855" lon="2.9033517"><ele>61.0</ele><time>2026-04-08T15:16:46.918Z</time></trkpt><trkpt lat="42.356695" lon="2.9034933"><ele>61.0</ele><time>2026-04-08T15:16:47.918Z</time></trkpt><trkpt lat="42.3565317" lon="2.903635"><ele>61.0</ele><time>2026-04-08T15:16:48.918Z</time></trkpt><trkpt lat="42.3563617" lon="2.9037717"><ele>61.0</ele><time>2026-04-08T15:16:49.918Z</time></trkpt><trkpt lat="42.3561867" lon="2.903905"><ele>61.0</ele><time>2026-04-08T15:16:50.918Z</time></trkpt><trkpt lat="42.3560033" lon="2.90403"><ele>61.0</ele><time>2026-04-08T15:16:51.918Z</time></trkpt><trkpt lat="42.35582" lon="2.904145"><ele>61.0</ele><time>2026-04-08T15:16:52.918Z</time></trkpt><trkpt lat="42.3556383" lon="2.9042517"><ele>61.0</ele><time>2026-04-08T15:16:53.919Z</time></trkpt><trkpt lat="42.355455" lon="2.9043417"><ele>61.0</ele><time>2026-04-08T15:16:54.919Z</time></trkpt><trkpt lat="42.3552667" lon="2.9044233"><ele>60.666666666666664</ele><time>2026-04-08T15:16:55.919Z</time></trkpt><trkpt lat="42.3550833" lon="2.904495"><ele>60.33333333333333</ele><time>2026-04-08T15:16:56.918Z</time></trkpt><trkpt lat="42.3549017" lon="2.904555"><ele>60.0</ele><time>2026-04-08T15:16:57.919Z</time></trkpt><trkpt lat="42.354725" lon="2.90461"><ele>60.0</ele><time>2026-04-08T15:16:58.918Z</time></trkpt><trkpt lat="42.3545433" lon="2.9046667"><ele>60.0</ele><time>2026-04-08T15:16:59.919Z</time></trkpt><trkpt lat="42.3543667" lon="2.9047167"><ele>60.0</ele><time>2026-04-08T15:17:00.919Z</time></trkpt><trkpt lat="42.3541933" lon="2.904765"><ele>60.0</ele><time>2026-04-08T15:17:01.919Z</time></trkpt><trkpt lat="42.3540117" lon="2.9048133"><ele>60.0</ele><time>2026-04-08T15:17:02.918Z</time></trkpt><trkpt lat="42.3538333" lon="2.9048583"><ele>60.0</ele><time>2026-04-08T15:17:03.918Z</time></trkpt><trkpt lat="42.353655" lon="2.9048967"><ele>59.0</ele><time>2026-04-08T15:17:04.919Z</time></trkpt><trkpt lat="42.3534833" lon="2.90496"><ele>58.0</ele><time>2026-04-08T15:17:05.918Z</time></trkpt><trkpt lat="42.3532967" lon="2.9050067"><ele>57.0</ele><time>2026-04-08T15:17:06.919Z</time></trkpt><trkpt lat="42.35313" lon="2.9050717"><ele>56.0</ele><time>2026-04-08T15:17:07.919Z</time></trkpt><trkpt lat="42.3529433" lon="2.905115"><ele>55.0</ele><time>2026-04-08T15:17:08.918Z</time></trkpt><trkpt lat="42.3527533" lon="2.9051683"><ele>54.0</ele><time>2026-04-08T15:17:09.918Z</time></trkpt><trkpt lat="42.35257" lon="2.9052317"><ele>54.0</ele><time>2026-04-08T15:17:10.918Z</time></trkpt><trkpt lat="42.352395" lon="2.905305"><ele>54.0</ele><time>2026-04-08T15:17:11.918Z</time></trkpt><trkpt lat="42.3522183" lon="2.9053917"><ele>54.0</ele><time>2026-04-08T15:17:12.919Z</time></trkpt><trkpt lat="42.3520433" lon="2.905485"><ele>53.66666666666667</ele><time>2026-04-08T15:17:13.919Z</time></trkpt><trkpt lat="42.3518717" lon="2.9055883"><ele>53.333333333333336</ele><time>2026-04-08T15:17:14.919Z</time></trkpt><trkpt lat="42.3516967" lon="2.9057033"><ele>53.0</ele><time>2026-04-08T15:17:15.919Z</time></trkpt><trkpt lat="42.3515233" lon="2.905825"><ele>53.333333333333336</ele><time>2026-04-08T15:17:16.919Z</time></trkpt><trkpt lat="42.3513567" lon="2.9059633"><ele>53.66666666666667</ele><time>2026-04-08T15:17:17.919Z</time></trkpt><trkpt lat="42.3512017" lon="2.9061117"><ele>54.0</ele><time>2026-04-08T15:17:18.919Z</time></trkpt><trkpt lat="42.3510583" lon="2.9062783"><ele>54.0</ele><time>2026-04-08T15:17:19.918Z</time></trkpt><trkpt lat="42.35091" lon="2.906455"><ele>54.0</ele><time>2026-04-08T15:17:20.919Z</time></trkpt><trkpt lat="42.3507733" lon="2.9066433"><ele>54.0</ele><time>2026-04-08T15:17:21.918Z</time></trkpt><trkpt lat="42.3506383" lon="2.9068333"><ele>54.0</ele><time>2026-04-08T15:17:22.919Z</time></trkpt><trkpt lat="42.35051" lon="2.9070233"><ele>54.0</ele><time>2026-04-08T15:17:23.919Z</time></trkpt><trkpt lat="42.3503783" lon="2.9072117"><ele>54.0</ele><time>2026-04-08T15:17:24.918Z</time></trkpt><trkpt lat="42.350255" lon="2.9073983"><ele>53.0</ele><time>2026-04-08T15:17:25.919Z</time></trkpt><trkpt lat="42.3501333" lon="2.9075867"><ele>52.0</ele><time>2026-04-08T15:17:26.919Z</time></trkpt><trkpt lat="42.350015" lon="2.907775"><ele>51.0</ele><time>2026-04-08T15:17:27.919Z</time></trkpt><trkpt lat="42.3498883" lon="2.9079667"><ele>51.0</ele><time>2026-04-08T15:17:28.919Z</time></trkpt><trkpt lat="42.349765" lon="2.90816"><ele>51.0</ele><time>2026-04-08T15:17:29.918Z</time></trkpt><trkpt lat="42.3496333" lon="2.9083517"><ele>51.0</ele><time>2026-04-08T15:17:30.919Z</time></trkpt><trkpt lat="42.3494983" lon="2.908535"><ele>51.66666666666667</ele><time>2026-04-08T15:17:31.919Z</time></trkpt><trkpt lat="42.3493683" lon="2.90872"><ele>52.333333333333336</ele><time>2026-04-08T15:17:32.918Z</time></trkpt><trkpt lat="42.3492367" lon="2.9089033"><ele>53.0</ele><time>2026-04-08T15:17:33.919Z</time></trkpt><trkpt lat="42.3491083" lon="2.909085"><ele>52.66666666666667</ele><time>2026-04-08T15:17:34.918Z</time></trkpt><trkpt lat="42.34898" lon="2.9092667"><ele>52.33333333333333</ele><time>2026-04-08T15:17:35.919Z</time></trkpt><trkpt lat="42.348855" lon="2.9094483"><ele>52.0</ele><time>2026-04-08T15:17:36.919Z</time></trkpt><trkpt lat="42.3487267" lon="2.9096267"><ele>51.666666666666664</ele><time>2026-04-08T15:17:37.918Z</time></trkpt><trkpt lat="42.3486017" lon="2.9098067"><ele>51.33333333333333</ele><time>2026-04-08T15:17:38.919Z</time></trkpt><trkpt lat="42.348475" lon="2.9099867"><ele>51.0</ele><time>2026-04-08T15:17:39.919Z</time></trkpt><trkpt lat="42.3483483" lon="2.9101683"><ele>51.0</ele><time>2026-04-08T15:17:40.919Z</time></trkpt><trkpt lat="42.3482267" lon="2.9103517"><ele>51.0</ele><time>2026-04-08T15:17:41.919Z</time></trkpt><trkpt lat="42.348095" lon="2.9105417"><ele>51.0</ele><time>2026-04-08T15:17:42.918Z</time></trkpt><trkpt lat="42.3479633" lon="2.9107317"><ele>50.66666666666667</ele><time>2026-04-08T15:17:43.918Z</time></trkpt><trkpt lat="42.3478367" lon="2.91092"><ele>50.333333333333336</ele><time>2026-04-08T15:17:44.919Z</time></trkpt><trkpt lat="42.3477067" lon="2.91111"><ele>50.0</ele><time>2026-04-08T15:17:45.919Z</time></trkpt><trkpt lat="42.347575" lon="2.9113"><ele>50.0</ele><time>2026-04-08T15:17:46.919Z</time></trkpt><trkpt lat="42.3474383" lon="2.9114933"><ele>50.0</ele><time>2026-04-08T15:17:47.919Z</time></trkpt><trkpt lat="42.3472983" lon="2.9116833"><ele>50.0</ele><time>2026-04-08T15:17:48.919Z</time></trkpt><trkpt lat="42.3471633" lon="2.911875"><ele>50.333333333333336</ele><time>2026-04-08T15:17:49.919Z</time></trkpt><trkpt lat="42.3470283" lon="2.9120717"><ele>50.66666666666667</ele><time>2026-04-08T15:17:50.919Z</time></trkpt><trkpt lat="42.3468967" lon="2.912265"><ele>51.0</ele><time>2026-04-08T15:17:51.919Z</time></trkpt><trkpt lat="42.3467633" lon="2.9124583"><ele>51.33333333333333</ele><time>2026-04-08T15:17:52.918Z</time></trkpt><trkpt lat="42.3466217" lon="2.9126567"><ele>51.666666666666664</ele><time>2026-04-08T15:17:53.918Z</time></trkpt><trkpt lat="42.3464817" lon="2.9128467"><ele>52.0</ele><time>2026-04-08T15:17:54.919Z</time></trkpt><trkpt lat="42.3463367" lon="2.9130233"><ele>52.0</ele><time>2026-04-08T15:17:55.918Z</time></trkpt><trkpt lat="42.3461883" lon="2.91319"><ele>52.0</ele><time>2026-04-08T15:17:56.919Z</time></trkpt><trkpt lat="42.346025" lon="2.913345"><ele>52.0</ele><time>2026-04-08T15:17:57.919Z</time></trkpt><trkpt lat="42.345855" lon="2.9134833"><ele>50.666666666666664</ele><time>2026-04-08T15:17:58.919Z</time></trkpt><trkpt lat="42.34568" lon="2.9136117"><ele>49.33333333333333</ele><time>2026-04-08T15:17:59.918Z</time></trkpt><trkpt lat="42.34551" lon="2.913735"><ele>48.0</ele><time>2026-04-08T15:18:00.919Z</time></trkpt><trkpt lat="42.3453383" lon="2.9138617"><ele>48.0</ele><time>2026-04-08T15:18:01.919Z</time></trkpt><trkpt lat="42.34517" lon="2.9139883"><ele>48.0</ele><time>2026-04-08T15:18:02.919Z</time></trkpt><trkpt lat="42.3450083" lon="2.914115"><ele>48.0</ele><time>2026-04-08T15:18:03.919Z</time></trkpt><trkpt lat="42.344845" lon="2.91424"><ele>48.33333333333333</ele><time>2026-04-08T15:18:04.919Z</time></trkpt><trkpt lat="42.3446817" lon="2.9143633"><ele>48.666666666666664</ele><time>2026-04-08T15:18:05.919Z</time></trkpt><trkpt lat="42.3445133" lon="2.9144867"><ele>49.0</ele><time>2026-04-08T15:18:06.918Z</time></trkpt><trkpt lat="42.3443467" lon="2.9146133"><ele>49.0</ele><time>2026-04-08T15:18:07.919Z</time></trkpt><trkpt lat="42.34418" lon="2.9147383"><ele>49.0</ele><time>2026-04-08T15:18:08.919Z</time></trkpt><trkpt lat="42.3440117" lon="2.9148633"><ele>49.0</ele><time>2026-04-08T15:18:09.919Z</time></trkpt><trkpt lat="42.3438433" lon="2.9149883"><ele>48.33333333333333</ele><time>2026-04-08T15:18:10.919Z</time></trkpt><trkpt lat="42.34368" lon="2.915115"><ele>47.666666666666664</ele><time>2026-04-08T15:18:11.919Z</time></trkpt><trkpt lat="42.3435183" lon="2.91524"><ele>47.0</ele><time>2026-04-08T15:18:12.919Z</time></trkpt><trkpt lat="42.3433483" lon="2.9153667"><ele>47.0</ele><time>2026-04-08T15:18:13.919Z</time></trkpt><trkpt lat="42.3431783" lon="2.9154917"><ele>47.0</ele><time>2026-04-08T15:18:14.918Z</time></trkpt><trkpt lat="42.343005" lon="2.91562"><ele>47.0</ele><time>2026-04-08T15:18:15.919Z</time></trkpt><trkpt lat="42.34283" lon="2.9157483"><ele>47.0</ele><time>2026-04-08T15:18:16.919Z</time></trkpt><trkpt lat="42.34265" lon="2.9158833"><ele>47.0</ele><time>2026-04-08T15:18:17.919Z</time></trkpt><trkpt lat="42.3424717" lon="2.9160183"><ele>47.0</ele><time>2026-04-08T15:18:18.919Z</time></trkpt><trkpt lat="42.3422883" lon="2.9161517"><ele>46.33333333333333</ele><time>2026-04-08T15:18:19.918Z</time></trkpt><trkpt lat="42.3421183" lon="2.9162833"><ele>45.666666666666664</ele><time>2026-04-08T15:18:20.918Z</time></trkpt><trkpt lat="42.3419467" lon="2.91641"><ele>45.0</ele><time>2026-04-08T15:18:21.919Z</time></trkpt><trkpt lat="42.341775" lon="2.9165367"><ele>45.0</ele><time>2026-04-08T15:18:22.919Z</time></trkpt><trkpt lat="42.341605" lon="2.916665"><ele>45.0</ele><time>2026-04-08T15:18:23.919Z</time></trkpt><trkpt lat="42.3414333" lon="2.9167933"><ele>45.0</ele><time>2026-04-08T15:18:24.919Z</time></trkpt><trkpt lat="42.34126" lon="2.9169217"><ele>45.333333333333336</ele><time>2026-04-08T15:18:25.918Z</time></trkpt><trkpt lat="42.3410817" lon="2.9170533"><ele>45.66666666666667</ele><time>2026-04-08T15:18:26.918Z</time></trkpt><trkpt lat="42.3409033" lon="2.9171867"><ele>46.0</ele><time>2026-04-08T15:18:27.919Z</time></trkpt><trkpt lat="42.340725" lon="2.9173233"><ele>46.333333333333336</ele><time>2026-04-08T15:18:28.919Z</time></trkpt><trkpt lat="42.3405467" lon="2.9174567"><ele>46.666666666666664</ele><time>2026-04-08T15:18:29.919Z</time></trkpt><trkpt lat="42.3403633" lon="2.9175917"><ele>47.0</ele><time>2026-04-08T15:18:30.919Z</time></trkpt><trkpt lat="42.34018" lon="2.9177283"><ele>47.0</ele><time>2026-04-08T15:18:31.919Z</time></trkpt><trkpt lat="42.339995" lon="2.917865"><ele>47.0</ele><time>2026-04-08T15:18:32.919Z</time></trkpt><trkpt lat="42.33981" lon="2.9180033"><ele>47.0</ele><time>2026-04-08T15:18:33.919Z</time></trkpt><trkpt lat="42.3396267" lon="2.9181417"><ele>47.666666666666664</ele><time>2026-04-08T15:18:34.918Z</time></trkpt><trkpt lat="42.339445" lon="2.9182783"><ele>48.33333333333333</ele><time>2026-04-08T15:18:35.919Z</time></trkpt><trkpt lat="42.3392667" lon="2.9184117"><ele>49.0</ele><time>2026-04-08T15:18:36.919Z</time></trkpt><trkpt lat="42.3390917" lon="2.9185383"><ele>48.33333333333333</ele><time>2026-04-08T15:18:37.919Z</time></trkpt><trkpt lat="42.3389167" lon="2.918665"><ele>47.666666666666664</ele><time>2026-04-08T15:18:38.918Z</time></trkpt><trkpt lat="42.3387417" lon="2.91879"><ele>47.0</ele><time>2026-04-08T15:18:39.919Z</time></trkpt><trkpt lat="42.3385683" lon="2.9189167"><ele>47.0</ele><time>2026-04-08T15:18:40.919Z</time></trkpt><trkpt lat="42.338395" lon="2.9190433"><ele>47.0</ele><time>2026-04-08T15:18:41.918Z</time></trkpt><trkpt lat="42.33822" lon="2.91917"><ele>47.0</ele><time>2026-04-08T15:18:42.919Z</time></trkpt><trkpt lat="42.3380467" lon="2.9192967"><ele>47.33333333333333</ele><time>2026-04-08T15:18:43.919Z</time></trkpt><trkpt lat="42.337875" lon="2.919425"><ele>47.666666666666664</ele><time>2026-04-08T15:18:44.919Z</time></trkpt><trkpt lat="42.3377033" lon="2.9195517"><ele>48.0</ele><time>2026-04-08T15:18:45.919Z</time></trkpt><trkpt lat="42.33753" lon="2.9196817"><ele>48.0</ele><time>2026-04-08T15:18:46.919Z</time></trkpt><trkpt lat="42.3373567" lon="2.9198117"><ele>48.0</ele><time>2026-04-08T15:18:47.918Z</time></trkpt><trkpt lat="42.3371817" lon="2.9199417"><ele>48.0</ele><time>2026-04-08T15:18:48.919Z</time></trkpt><trkpt lat="42.3370083" lon="2.9200733"><ele>47.333333333333336</ele><time>2026-04-08T15:18:49.919Z</time></trkpt><trkpt lat="42.3368417" lon="2.9202"><ele>46.66666666666667</ele><time>2026-04-08T15:18:50.919Z</time></trkpt><trkpt lat="42.3366717" lon="2.9203267"><ele>46.0</ele><time>2026-04-08T15:18:51.918Z</time></trkpt><trkpt lat="42.336505" lon="2.9204533"><ele>46.66666666666667</ele><time>2026-04-08T15:18:52.919Z</time></trkpt><trkpt lat="42.3363367" lon="2.92058"><ele>47.333333333333336</ele><time>2026-04-08T15:18:53.918Z</time></trkpt><trkpt lat="42.3361667" lon="2.92071"><ele>48.0</ele><time>2026-04-08T15:18:54.919Z</time></trkpt><trkpt lat="42.3359983" lon="2.9208383"><ele>47.0</ele><time>2026-04-08T15:18:55.919Z</time></trkpt><trkpt lat="42.3358283" lon="2.9209683"><ele>46.0</ele><time>2026-04-08T15:18:56.918Z</time></trkpt><trkpt lat="42.3356567" lon="2.921095"><ele>45.0</ele><time>2026-04-08T15:18:57.919Z</time></trkpt><trkpt lat="42.3354867" lon="2.9212217"><ele>45.0</ele><time>2026-04-08T15:18:58.918Z</time></trkpt><trkpt lat="42.335315" lon="2.9213467"><ele>45.0</ele><time>2026-04-08T15:18:59.919Z</time></trkpt><trkpt lat="42.3351467" lon="2.9214717"><ele>45.0</ele><time>2026-04-08T15:19:00.918Z</time></trkpt><trkpt lat="42.33498" lon="2.9216"><ele>45.0</ele><time>2026-04-08T15:19:01.919Z</time></trkpt><trkpt lat="42.33481" lon="2.9217267"><ele>45.0</ele><time>2026-04-08T15:19:02.919Z</time></trkpt><trkpt lat="42.33464" lon="2.92185"><ele>45.0</ele><time>2026-04-08T15:19:03.919Z</time></trkpt><trkpt lat="42.33447" lon="2.9219717"><ele>45.0</ele><time>2026-04-08T15:19:04.919Z</time></trkpt><trkpt lat="42.3343" lon="2.9220967"><ele>45.0</ele><time>2026-04-08T15:19:05.918Z</time></trkpt><trkpt lat="42.33413" lon="2.9222217"><ele>45.0</ele><time>2026-04-08T15:19:06.919Z</time></trkpt><trkpt lat="42.33396" lon="2.9223517"><ele>45.0</ele><time>2026-04-08T15:19:07.919Z</time></trkpt><trkpt lat="42.3337933" lon="2.9224817"><ele>45.0</ele><time>2026-04-08T15:19:08.919Z</time></trkpt><trkpt lat="42.33363" lon="2.92261"><ele>45.0</ele><time>2026-04-08T15:19:09.919Z</time></trkpt><trkpt lat="42.3334633" lon="2.9227517"><ele>45.0</ele><time>2026-04-08T15:19:10.918Z</time></trkpt><trkpt lat="42.3333067" lon="2.9229017"><ele>45.0</ele><time>2026-04-08T15:19:11.919Z</time></trkpt><trkpt lat="42.33315" lon="2.923065"><ele>45.0</ele><time>2026-04-08T15:19:12.919Z</time></trkpt><trkpt lat="42.3330033" lon="2.9232317"><ele>45.333333333333336</ele><time>2026-04-08T15:19:13.918Z</time></trkpt><trkpt lat="42.3328667" lon="2.9234083"><ele>45.66666666666667</ele><time>2026-04-08T15:19:14.919Z</time></trkpt><trkpt lat="42.3327367" lon="2.923595"><ele>46.0</ele><time>2026-04-08T15:19:15.919Z</time></trkpt><trkpt lat="42.3326167" lon="2.923795"><ele>46.0</ele><time>2026-04-08T15:19:16.919Z</time></trkpt><trkpt lat="42.3325083" lon="2.9240067"><ele>46.0</ele><time>2026-04-08T15:19:17.919Z</time></trkpt><trkpt lat="42.3324067" lon="2.9242183"><ele>46.0</ele><time>2026-04-08T15:19:18.919Z</time></trkpt><trkpt lat="42.3323083" lon="2.9244283"><ele>46.0</ele><time>2026-04-08T15:19:19.918Z</time></trkpt><trkpt lat="42.3322133" lon="2.9246417"><ele>46.0</ele><time>2026-04-08T15:19:20.919Z</time></trkpt><trkpt lat="42.33212" lon="2.9248533"><ele>46.0</ele><time>2026-04-08T15:19:21.919Z</time></trkpt><trkpt lat="42.3320217" lon="2.9250633"><ele>46.0</ele><time>2026-04-08T15:19:22.918Z</time></trkpt><trkpt lat="42.3319233" lon="2.9252783"><ele>46.0</ele><time>2026-04-08T15:19:23.919Z</time></trkpt><trkpt lat="42.3318233" lon="2.925495"><ele>46.0</ele><time>2026-04-08T15:19:24.919Z</time></trkpt><trkpt lat="42.33172" lon="2.9257083"><ele>45.66666666666667</ele><time>2026-04-08T15:19:25.919Z</time></trkpt><trkpt lat="42.331615" lon="2.9259233"><ele>45.333333333333336</ele><time>2026-04-08T15:19:26.918Z</time></trkpt><trkpt lat="42.331505" lon="2.926135"><ele>45.0</ele><time>2026-04-08T15:19:27.918Z</time></trkpt><trkpt lat="42.3313933" lon="2.9263483"><ele>45.0</ele><time>2026-04-08T15:19:28.918Z</time></trkpt><trkpt lat="42.3312817" lon="2.9265617"><ele>45.0</ele><time>2026-04-08T15:19:29.919Z</time></trkpt><trkpt lat="42.33117" lon="2.9267783"><ele>45.0</ele><time>2026-04-08T15:19:30.919Z</time></trkpt><trkpt lat="42.331055" lon="2.926995"><ele>44.333333333333336</ele><time>2026-04-08T15:19:31.919Z</time></trkpt><trkpt lat="42.33094" lon="2.927215"><ele>43.66666666666667</ele><time>2026-04-08T15:19:32.919Z</time></trkpt><trkpt lat="42.3308183" lon="2.9274383"><ele>43.0</ele><time>2026-04-08T15:19:33.917Z</time></trkpt><trkpt lat="42.330695" lon="2.9276617"><ele>43.0</ele><time>2026-04-08T15:19:34.918Z</time></trkpt><trkpt lat="42.3305717" lon="2.9278817"><ele>43.0</ele><time>2026-04-08T15:19:35.918Z</time></trkpt><trkpt lat="42.3304483" lon="2.9281"><ele>43.0</ele><time>2026-04-08T15:19:36.918Z</time></trkpt><trkpt lat="42.3303267" lon="2.928315"><ele>43.333333333333336</ele><time>2026-04-08T15:19:37.918Z</time></trkpt><trkpt lat="42.3302067" lon="2.928525"><ele>43.666666666666664</ele><time>2026-04-08T15:19:38.917Z</time></trkpt><trkpt lat="42.33009" lon="2.92874"><ele>44.0</ele><time>2026-04-08T15:19:39.918Z</time></trkpt><trkpt lat="42.3299767" lon="2.9289567"><ele>44.0</ele><time>2026-04-08T15:19:40.918Z</time></trkpt><trkpt lat="42.3298567" lon="2.9291683"><ele>44.0</ele><time>2026-04-08T15:19:41.917Z</time></trkpt><trkpt lat="42.329735" lon="2.929375"><ele>44.0</ele><time>2026-04-08T15:19:42.917Z</time></trkpt><trkpt lat="42.3296083" lon="2.9295733"><ele>44.0</ele><time>2026-04-08T15:19:43.918Z</time></trkpt><trkpt lat="42.3294733" lon="2.9297633"><ele>44.0</ele><time>2026-04-08T15:19:44.917Z</time></trkpt><trkpt lat="42.3293333" lon="2.9299467"><ele>44.0</ele><time>2026-04-08T15:19:45.918Z</time></trkpt><trkpt lat="42.3291933" lon="2.9301317"><ele>43.666666666666664</ele><time>2026-04-08T15:19:46.918Z</time></trkpt><trkpt lat="42.32905" lon="2.9303217"><ele>43.333333333333336</ele><time>2026-04-08T15:19:47.918Z</time></trkpt><trkpt lat="42.3289083" lon="2.93051"><ele>43.0</ele><time>2026-04-08T15:19:48.917Z</time></trkpt><trkpt lat="42.3287667" lon="2.9306967"><ele>42.66666666666667</ele><time>2026-04-08T15:19:49.918Z</time></trkpt><trkpt lat="42.3286233" lon="2.9308833"><ele>42.333333333333336</ele><time>2026-04-08T15:19:50.917Z</time></trkpt><trkpt lat="42.32848" lon="2.9310733"><ele>42.0</ele><time>2026-04-08T15:19:51.918Z</time></trkpt><trkpt lat="42.3283383" lon="2.9312617"><ele>42.0</ele><time>2026-04-08T15:19:52.918Z</time></trkpt><trkpt lat="42.328195" lon="2.9314533"><ele>42.0</ele><time>2026-04-08T15:19:53.918Z</time></trkpt><trkpt lat="42.3280517" lon="2.9316467"><ele>42.0</ele><time>2026-04-08T15:19:54.917Z</time></trkpt><trkpt lat="42.3279117" lon="2.9318383"><ele>41.666666666666664</ele><time>2026-04-08T15:19:55.918Z</time></trkpt><trkpt lat="42.3277683" lon="2.9320283"><ele>41.33333333333333</ele><time>2026-04-08T15:19:56.917Z</time></trkpt><trkpt lat="42.3276233" lon="2.93222"><ele>41.0</ele><time>2026-04-08T15:19:57.918Z</time></trkpt><trkpt lat="42.327475" lon="2.932405"><ele>40.666666666666664</ele><time>2026-04-08T15:19:58.918Z</time></trkpt><trkpt lat="42.3273117" lon="2.9325767"><ele>40.333333333333336</ele><time>2026-04-08T15:19:59.917Z</time></trkpt><trkpt lat="42.3271483" lon="2.9327333"><ele>40.0</ele><time>2026-04-08T15:20:00.918Z</time></trkpt><trkpt lat="42.326975" lon="2.9328717"><ele>41.0</ele><time>2026-04-08T15:20:01.918Z</time></trkpt><trkpt lat="42.3267933" lon="2.9329933"><ele>42.0</ele><time>2026-04-08T15:20:02.918Z</time></trkpt><trkpt lat="42.3266017" lon="2.9330983"><ele>43.0</ele><time>2026-04-08T15:20:03.917Z</time></trkpt><trkpt lat="42.3264067" lon="2.9331767"><ele>42.66666666666667</ele><time>2026-04-08T15:20:04.918Z</time></trkpt><trkpt lat="42.326205" lon="2.9332317"><ele>42.333333333333336</ele><time>2026-04-08T15:20:05.918Z</time></trkpt><trkpt lat="42.3260033" lon="2.933265"><ele>42.0</ele><time>2026-04-08T15:20:06.917Z</time></trkpt><trkpt lat="42.325795" lon="2.9332683"><ele>42.0</ele><time>2026-04-08T15:20:07.918Z</time></trkpt><trkpt lat="42.32559" lon="2.9332533"><ele>42.0</ele><time>2026-04-08T15:20:08.917Z</time></trkpt><trkpt lat="42.3253833" lon="2.9332283"><ele>42.0</ele><time>2026-04-08T15:20:09.917Z</time></trkpt><trkpt lat="42.3251867" lon="2.9332067"><ele>42.333333333333336</ele><time>2026-04-08T15:20:10.918Z</time></trkpt><trkpt lat="42.3249917" lon="2.933185"><ele>42.66666666666667</ele><time>2026-04-08T15:20:11.917Z</time></trkpt><trkpt lat="42.3248017" lon="2.933165"><ele>43.0</ele><time>2026-04-08T15:20:12.917Z</time></trkpt><trkpt lat="42.324615" lon="2.9331433"><ele>42.0</ele><time>2026-04-08T15:20:13.918Z</time></trkpt><trkpt lat="42.324425" lon="2.9331183"><ele>41.0</ele><time>2026-04-08T15:20:14.918Z</time></trkpt><trkpt lat="42.3242367" lon="2.933095"><ele>40.0</ele><time>2026-04-08T15:20:15.918Z</time></trkpt><trkpt lat="42.3240483" lon="2.93307"><ele>41.0</ele><time>2026-04-08T15:20:16.918Z</time></trkpt><trkpt lat="42.3238683" lon="2.9330483"><ele>42.0</ele><time>2026-04-08T15:20:17.918Z</time></trkpt><trkpt lat="42.3236917" lon="2.9330233"><ele>43.0</ele><time>2026-04-08T15:20:18.917Z</time></trkpt><trkpt lat="42.323515" lon="2.9329983"><ele>43.0</ele><time>2026-04-08T15:20:19.918Z</time></trkpt><trkpt lat="42.3233383" lon="2.9329733"><ele>43.0</ele><time>2026-04-08T15:20:20.918Z</time></trkpt><trkpt lat="42.3231617" lon="2.93294"><ele>43.0</ele><time>2026-04-08T15:20:21.918Z</time></trkpt><trkpt lat="42.3229883" lon="2.9328883"><ele>43.66666666666667</ele><time>2026-04-08T15:20:22.918Z</time></trkpt><trkpt lat="42.3228233" lon="2.9328133"><ele>44.333333333333336</ele><time>2026-04-08T15:20:23.918Z</time></trkpt><trkpt lat="42.3226617" lon="2.9327183"><ele>45.0</ele><time>2026-04-08T15:20:24.918Z</time></trkpt><trkpt lat="42.3225117" lon="2.9326117"><ele>44.666666666666664</ele><time>2026-04-08T15:20:25.918Z</time></trkpt><trkpt lat="42.3223567" lon="2.9324933"><ele>44.33333333333333</ele><time>2026-04-08T15:20:26.918Z</time></trkpt><trkpt lat="42.3222067" lon="2.9323817"><ele>44.0</ele><time>2026-04-08T15:20:27.917Z</time></trkpt><trkpt lat="42.32206" lon="2.9322717"><ele>44.0</ele><time>2026-04-08T15:20:28.917Z</time></trkpt><trkpt lat="42.3219167" lon="2.9321583"><ele>44.0</ele><time>2026-04-08T15:20:29.918Z</time></trkpt><trkpt lat="42.3217833" lon="2.9320533"><ele>44.0</ele><time>2026-04-08T15:20:30.918Z</time></trkpt><trkpt lat="42.3216483" lon="2.9319517"><ele>44.0</ele><time>2026-04-08T15:20:31.917Z</time></trkpt><trkpt lat="42.3215183" lon="2.9318483"><ele>44.0</ele><time>2026-04-08T15:20:32.917Z</time></trkpt><trkpt lat="42.32139" lon="2.9317483"><ele>44.0</ele><time>2026-04-08T15:20:33.917Z</time></trkpt><trkpt lat="42.3212667" lon="2.9316517"><ele>44.0</ele><time>2026-04-08T15:20:34.918Z</time></trkpt><trkpt lat="42.32114" lon="2.93156"><ele>44.75</ele><time>2026-04-08T15:20:35.918Z</time></trkpt><trkpt lat="42.3210133" lon="2.931475"><ele>45.5</ele><time>2026-04-08T15:20:36.917Z</time></trkpt><trkpt lat="42.3208867" lon="2.9314033"><ele>46.25</ele><time>2026-04-08T15:20:37.918Z</time></trkpt><trkpt lat="42.3207617" lon="2.9313433"><ele>47.0</ele><time>2026-04-08T15:20:38.918Z</time></trkpt><trkpt lat="42.3206283" lon="2.9312967"><ele>46.75</ele><time>2026-04-08T15:20:39.918Z</time></trkpt><trkpt lat="42.3204917" lon="2.9312633"><ele>46.5</ele><time>2026-04-08T15:20:40.917Z</time></trkpt><trkpt lat="42.3203617" lon="2.9312433"><ele>46.25</ele><time>2026-04-08T15:20:41.918Z</time></trkpt><trkpt lat="42.3202333" lon="2.93123"><ele>46.0</ele><time>2026-04-08T15:20:42.918Z</time></trkpt><trkpt lat="42.3201133" lon="2.9312283"><ele>46.0</ele><time>2026-04-08T15:20:43.918Z</time></trkpt><trkpt lat="42.32" lon="2.9312317"><ele>46.0</ele><time>2026-04-08T15:20:44.918Z</time></trkpt><trkpt lat="42.319895" lon="2.9312433"><ele>46.0</ele><time>2026-04-08T15:20:45.918Z</time></trkpt><trkpt lat="42.319795" lon="2.9312633"><ele>46.0</ele><time>2026-04-08T15:20:46.918Z</time></trkpt><trkpt lat="42.3196983" lon="2.9312833"><ele>46.0</ele><time>2026-04-08T15:20:47.917Z</time></trkpt><trkpt lat="42.3196133" lon="2.9313017"><ele>46.0</ele><time>2026-04-08T15:20:48.918Z</time></trkpt><trkpt lat="42.3195267" lon="2.931305"><ele>46.0</ele><time>2026-04-08T15:20:50.917Z</time></trkpt><trkpt lat="42.319445" lon="2.9312833"><ele>46.0</ele><time>2026-04-08T15:20:53.917Z</time></trkpt><trkpt lat="42.319365" lon="2.9311933"><ele>46.0</ele><time>2026-04-08T15:20:55.918Z</time></trkpt><trkpt lat="42.3193133" lon="2.93114"><ele>46.0</ele><time>2026-04-08T15:20:56.918Z</time></trkpt><trkpt lat="42.3192483" lon="2.9310983"><ele>46.0</ele><time>2026-04-08T15:20:57.917Z</time></trkpt><trkpt lat="42.3191783" lon="2.9310683"><ele>46.0</ele><time>2026-04-08T15:20:58.918Z</time></trkpt><trkpt lat="42.3191033" lon="2.9310567"><ele>46.0</ele><time>2026-04-08T15:20:59.918Z</time></trkpt><trkpt lat="42.3190233" lon="2.93107"><ele>46.0</ele><time>2026-04-08T15:21:00.918Z</time></trkpt><trkpt lat="42.31895" lon="2.9311083"><ele>46.0</ele><time>2026-04-08T15:21:01.918Z</time></trkpt><trkpt lat="42.31888" lon="2.9311683"><ele>46.0</ele><time>2026-04-08T15:21:02.918Z</time></trkpt><trkpt lat="42.3188033" lon="2.93124"><ele>46.0</ele><time>2026-04-08T15:21:03.918Z</time></trkpt><trkpt lat="42.3187283" lon="2.931305"><ele>46.199999999999996</ele><time>2026-04-08T15:21:04.917Z</time></trkpt><trkpt lat="42.3186417" lon="2.931355"><ele>46.4</ele><time>2026-04-08T15:21:05.917Z</time></trkpt><trkpt lat="42.3185467" lon="2.9313767"><ele>46.6</ele><time>2026-04-08T15:21:06.918Z</time></trkpt><trkpt lat="42.3184433" lon="2.9313733"><ele>46.8</ele><time>2026-04-08T15:21:07.917Z</time></trkpt><trkpt lat="42.3183317" lon="2.931365"><ele>47.0</ele><time>2026-04-08T15:21:08.918Z</time></trkpt><trkpt lat="42.318215" lon="2.9313567"><ele>47.0</ele><time>2026-04-08T15:21:09.918Z</time></trkpt><trkpt lat="42.3180917" lon="2.9313533"><ele>47.0</ele><time>2026-04-08T15:21:10.918Z</time></trkpt><trkpt lat="42.31797" lon="2.93135"><ele>47.0</ele><time>2026-04-08T15:21:11.918Z</time></trkpt><trkpt lat="42.3178417" lon="2.93135"><ele>47.0</ele><time>2026-04-08T15:21:12.918Z</time></trkpt><trkpt lat="42.3177117" lon="2.93136"><ele>47.25</ele><time>2026-04-08T15:21:13.918Z</time></trkpt><trkpt lat="42.3175817" lon="2.9313767"><ele>47.5</ele><time>2026-04-08T15:21:14.918Z</time></trkpt><trkpt lat="42.3174483" lon="2.9313983"><ele>47.75</ele><time>2026-04-08T15:21:15.917Z</time></trkpt><trkpt lat="42.3173183" lon="2.93142"><ele>48.0</ele><time>2026-04-08T15:21:16.918Z</time></trkpt><trkpt lat="42.317185" lon="2.9314417"><ele>48.0</ele><time>2026-04-08T15:21:17.917Z</time></trkpt><trkpt lat="42.3170483" lon="2.9314617"><ele>48.0</ele><time>2026-04-08T15:21:18.918Z</time></trkpt><trkpt lat="42.3169117" lon="2.931485"><ele>48.0</ele><time>2026-04-08T15:21:19.917Z</time></trkpt><trkpt lat="42.3167717" lon="2.9315067"><ele>48.0</ele><time>2026-04-08T15:21:20.918Z</time></trkpt><trkpt lat="42.3166317" lon="2.9315283"><ele>48.0</ele><time>2026-04-08T15:21:21.918Z</time></trkpt><trkpt lat="42.3165017" lon="2.9315483"><ele>48.0</ele><time>2026-04-08T15:21:22.917Z</time></trkpt><trkpt lat="42.3163683" lon="2.9315667"><ele>48.0</ele><time>2026-04-08T15:21:23.918Z</time></trkpt><trkpt lat="42.3162333" lon="2.9315817"><ele>48.0</ele><time>2026-04-08T15:21:24.918Z</time></trkpt><trkpt lat="42.3160933" lon="2.9316017"><ele>48.0</ele><time>2026-04-08T15:21:25.918Z</time></trkpt><trkpt lat="42.3159533" lon="2.931625"><ele>48.0</ele><time>2026-04-08T15:21:26.918Z</time></trkpt><trkpt lat="42.3158117" lon="2.9316467"><ele>48.0</ele><time>2026-04-08T15:21:27.917Z</time></trkpt><trkpt lat="42.31567" lon="2.9316683"><ele>48.0</ele><time>2026-04-08T15:21:28.918Z</time></trkpt><trkpt lat="42.3155333" lon="2.9316867"><ele>48.0</ele><time>2026-04-08T15:21:29.918Z</time></trkpt><trkpt lat="42.3154" lon="2.9317083"><ele>48.0</ele><time>2026-04-08T15:21:30.918Z</time></trkpt><trkpt lat="42.31526" lon="2.9317267"><ele>48.0</ele><time>2026-04-08T15:21:31.918Z</time></trkpt><trkpt lat="42.3151233" lon="2.9317467"><ele>48.0</ele><time>2026-04-08T15:21:32.917Z</time></trkpt><trkpt lat="42.3149817" lon="2.9317667"><ele>47.5</ele><time>2026-04-08T15:21:33.918Z</time></trkpt><trkpt lat="42.3148383" lon="2.93179"><ele>47.0</ele><time>2026-04-08T15:21:34.918Z</time></trkpt><trkpt lat="42.314695" lon="2.9318117"><ele>46.5</ele><time>2026-04-08T15:21:35.917Z</time></trkpt><trkpt lat="42.3145467" lon="2.9318317"><ele>46.0</ele><time>2026-04-08T15:21:36.918Z</time></trkpt><trkpt lat="42.3143983" lon="2.9318517"><ele>43.66666666666667</ele><time>2026-04-08T15:21:37.917Z</time></trkpt><trkpt lat="42.3142483" lon="2.9318733"><ele>41.333333333333336</ele><time>2026-04-08T15:21:38.918Z</time></trkpt><trkpt lat="42.3140933" lon="2.9318917"><ele>39.0</ele><time>2026-04-08T15:21:39.918Z</time></trkpt><trkpt lat="42.31394" lon="2.9319133"><ele>39.0</ele><time>2026-04-08T15:21:40.918Z</time></trkpt><trkpt lat="42.3137867" lon="2.931935"><ele>39.0</ele><time>2026-04-08T15:21:41.918Z</time></trkpt><trkpt lat="42.313635" lon="2.931955"><ele>39.0</ele><time>2026-04-08T15:21:42.917Z</time></trkpt><trkpt lat="42.3134817" lon="2.931975"><ele>39.0</ele><time>2026-04-08T15:21:43.918Z</time></trkpt><trkpt lat="42.31333" lon="2.9319933"><ele>39.0</ele><time>2026-04-08T15:21:44.918Z</time></trkpt><trkpt lat="42.3131767" lon="2.9320117"><ele>39.0</ele><time>2026-04-08T15:21:45.918Z</time></trkpt><trkpt lat="42.3130267" lon="2.9320267"><ele>39.25</ele><time>2026-04-08T15:21:46.917Z</time></trkpt><trkpt lat="42.3128767" lon="2.9320383"><ele>39.5</ele><time>2026-04-08T15:21:47.918Z</time></trkpt><trkpt lat="42.312735" lon="2.9320467"><ele>39.75</ele><time>2026-04-08T15:21:48.918Z</time></trkpt><trkpt lat="42.312605" lon="2.9320517"><ele>40.0</ele><time>2026-04-08T15:21:49.918Z</time></trkpt><trkpt lat="42.31248" lon="2.932055"><ele>40.0</ele><time>2026-04-08T15:21:50.918Z</time></trkpt><trkpt lat="42.31238" lon="2.9320533"><ele>40.0</ele><time>2026-04-08T15:21:51.918Z</time></trkpt><trkpt lat="42.3122817" lon="2.93204"><ele>40.0</ele><time>2026-04-08T15:21:52.918Z</time></trkpt><trkpt lat="42.3121967" lon="2.9319967"><ele>40.0</ele><time>2026-04-08T15:21:53.918Z</time></trkpt><trkpt lat="42.312115" lon="2.9319333"><ele>40.0</ele><time>2026-04-08T15:21:54.918Z</time></trkpt><trkpt lat="42.3120383" lon="2.931875"><ele>40.333333333333336</ele><time>2026-04-08T15:21:55.917Z</time></trkpt><trkpt lat="42.3119567" lon="2.9318467"><ele>40.66666666666667</ele><time>2026-04-08T15:21:56.917Z</time></trkpt><trkpt lat="42.311875" lon="2.9318567"><ele>41.0</ele><time>2026-04-08T15:21:57.918Z</time></trkpt><trkpt lat="42.3118" lon="2.9319067"><ele>41.333333333333336</ele><time>2026-04-08T15:21:58.917Z</time></trkpt><trkpt lat="42.311735" lon="2.9319883"><ele>41.666666666666664</ele><time>2026-04-08T15:21:59.917Z</time></trkpt><trkpt lat="42.3116767" lon="2.9320783"><ele>42.0</ele><time>2026-04-08T15:22:00.918Z</time></trkpt><trkpt lat="42.3115983" lon="2.9321567"><ele>42.0</ele><time>2026-04-08T15:22:01.918Z</time></trkpt><trkpt lat="42.3115067" lon="2.932225"><ele>42.0</ele><time>2026-04-08T15:22:02.918Z</time></trkpt><trkpt lat="42.3114067" lon="2.9322917"><ele>42.0</ele><time>2026-04-08T15:22:03.918Z</time></trkpt><trkpt lat="42.3113033" lon="2.9323567"><ele>42.0</ele><time>2026-04-08T15:22:04.917Z</time></trkpt><trkpt lat="42.311195" lon="2.9324433"><ele>42.5</ele><time>2026-04-08T15:22:05.917Z</time></trkpt><trkpt lat="42.3110817" lon="2.932545"><ele>43.0</ele><time>2026-04-08T15:22:06.918Z</time></trkpt><trkpt lat="42.3109567" lon="2.9326567"><ele>43.5</ele><time>2026-04-08T15:22:07.918Z</time></trkpt><trkpt lat="42.3108267" lon="2.9327733"><ele>44.0</ele><time>2026-04-08T15:22:08.918Z</time></trkpt><trkpt lat="42.3106917" lon="2.9328983"><ele>43.0</ele><time>2026-04-08T15:22:09.918Z</time></trkpt><trkpt lat="42.3105567" lon="2.93303"><ele>42.0</ele><time>2026-04-08T15:22:10.917Z</time></trkpt><trkpt lat="42.3104167" lon="2.9331683"><ele>41.0</ele><time>2026-04-08T15:22:11.917Z</time></trkpt><trkpt lat="42.3102817" lon="2.9333"><ele>40.666666666666664</ele><time>2026-04-08T15:22:12.918Z</time></trkpt><trkpt lat="42.310145" lon="2.93343"><ele>40.333333333333336</ele><time>2026-04-08T15:22:13.918Z</time></trkpt><trkpt lat="42.310005" lon="2.9335617"><ele>40.0</ele><time>2026-04-08T15:22:14.918Z</time></trkpt><trkpt lat="42.309865" lon="2.933695"><ele>40.333333333333336</ele><time>2026-04-08T15:22:15.918Z</time></trkpt><trkpt lat="42.309725" lon="2.9338333"><ele>40.666666666666664</ele><time>2026-04-08T15:22:16.918Z</time></trkpt><trkpt lat="42.30958" lon="2.933965"><ele>41.0</ele><time>2026-04-08T15:22:17.918Z</time></trkpt><trkpt lat="42.3094417" lon="2.9341067"><ele>40.666666666666664</ele><time>2026-04-08T15:22:18.918Z</time></trkpt><trkpt lat="42.309295" lon="2.9342417"><ele>40.333333333333336</ele><time>2026-04-08T15:22:19.917Z</time></trkpt><trkpt lat="42.3091483" lon="2.9343817"><ele>40.0</ele><time>2026-04-08T15:22:20.917Z</time></trkpt><trkpt lat="42.3090017" lon="2.9345267"><ele>40.66666666666667</ele><time>2026-04-08T15:22:21.917Z</time></trkpt><trkpt lat="42.3088483" lon="2.9346767"><ele>41.333333333333336</ele><time>2026-04-08T15:22:22.918Z</time></trkpt><trkpt lat="42.3086983" lon="2.934835"><ele>42.0</ele><time>2026-04-08T15:22:23.918Z</time></trkpt><trkpt lat="42.3085467" lon="2.9349867"><ele>41.0</ele><time>2026-04-08T15:22:24.918Z</time></trkpt><trkpt lat="42.3083983" lon="2.9351467"><ele>40.0</ele><time>2026-04-08T15:22:25.918Z</time></trkpt><trkpt lat="42.3082483" lon="2.9353017"><ele>39.0</ele><time>2026-04-08T15:22:26.918Z</time></trkpt><trkpt lat="42.3080967" lon="2.9354533"><ele>39.333333333333336</ele><time>2026-04-08T15:22:27.918Z</time></trkpt><trkpt lat="42.3079433" lon="2.9356067"><ele>39.66666666666667</ele><time>2026-04-08T15:22:28.918Z</time></trkpt><trkpt lat="42.3077883" lon="2.9357617"><ele>40.0</ele><time>2026-04-08T15:22:29.918Z</time></trkpt><trkpt lat="42.3076333" lon="2.9359183"><ele>40.0</ele><time>2026-04-08T15:22:30.917Z</time></trkpt><trkpt lat="42.30748" lon="2.9360767"><ele>40.0</ele><time>2026-04-08T15:22:31.917Z</time></trkpt><trkpt lat="42.3073233" lon="2.93623"><ele>40.0</ele><time>2026-04-08T15:22:32.918Z</time></trkpt><trkpt lat="42.3071633" lon="2.9363867"><ele>41.0</ele><time>2026-04-08T15:22:33.918Z</time></trkpt><trkpt lat="42.307005" lon="2.936545"><ele>42.0</ele><time>2026-04-08T15:22:34.918Z</time></trkpt><trkpt lat="42.3068433" lon="2.936705"><ele>43.0</ele><time>2026-04-08T15:22:35.918Z</time></trkpt><trkpt lat="42.30668" lon="2.93686"><ele>43.0</ele><time>2026-04-08T15:22:36.918Z</time></trkpt><trkpt lat="42.3065133" lon="2.9370067"><ele>43.0</ele><time>2026-04-08T15:22:37.917Z</time></trkpt><trkpt lat="42.3063383" lon="2.93715"><ele>43.0</ele><time>2026-04-08T15:22:38.918Z</time></trkpt><trkpt lat="42.30616" lon="2.9372867"><ele>43.333333333333336</ele><time>2026-04-08T15:22:39.918Z</time></trkpt><trkpt lat="42.3059817" lon="2.93742"><ele>43.666666666666664</ele><time>2026-04-08T15:22:40.918Z</time></trkpt><trkpt lat="42.3058" lon="2.9375417"><ele>44.0</ele><time>2026-04-08T15:22:41.917Z</time></trkpt><trkpt lat="42.305615" lon="2.937655"><ele>43.666666666666664</ele><time>2026-04-08T15:22:42.918Z</time></trkpt><trkpt lat="42.305435" lon="2.937765"><ele>43.333333333333336</ele><time>2026-04-08T15:22:43.918Z</time></trkpt><trkpt lat="42.3052583" lon="2.9378717"><ele>43.0</ele><time>2026-04-08T15:22:44.917Z</time></trkpt><trkpt lat="42.3050767" lon="2.9379683"><ele>43.0</ele><time>2026-04-08T15:22:45.918Z</time></trkpt><trkpt lat="42.304895" lon="2.9380633"><ele>43.0</ele><time>2026-04-08T15:22:46.918Z</time></trkpt><trkpt lat="42.30471" lon="2.9381583"><ele>43.0</ele><time>2026-04-08T15:22:47.918Z</time></trkpt><trkpt lat="42.304525" lon="2.938255"><ele>43.0</ele><time>2026-04-08T15:22:48.918Z</time></trkpt><trkpt lat="42.30434" lon="2.93835"><ele>43.0</ele><time>2026-04-08T15:22:49.918Z</time></trkpt><trkpt lat="42.3041567" lon="2.9384483"><ele>43.0</ele><time>2026-04-08T15:22:50.918Z</time></trkpt><trkpt lat="42.30397" lon="2.9385467"><ele>42.66666666666667</ele><time>2026-04-08T15:22:51.917Z</time></trkpt><trkpt lat="42.3037733" lon="2.93865"><ele>42.333333333333336</ele><time>2026-04-08T15:22:52.918Z</time></trkpt><trkpt lat="42.3035667" lon="2.9387567"><ele>42.0</ele><time>2026-04-08T15:22:53.917Z</time></trkpt><trkpt lat="42.3033583" lon="2.9388583"><ele>42.0</ele><time>2026-04-08T15:22:54.918Z</time></trkpt><trkpt lat="42.3031517" lon="2.93895"><ele>42.0</ele><time>2026-04-08T15:22:55.918Z</time></trkpt><trkpt lat="42.3029417" lon="2.9390383"><ele>42.0</ele><time>2026-04-08T15:22:56.918Z</time></trkpt><trkpt lat="42.3027317" lon="2.9391217"><ele>42.0</ele><time>2026-04-08T15:22:57.917Z</time></trkpt><trkpt lat="42.3025217" lon="2.9392"><ele>42.0</ele><time>2026-04-08T15:22:58.918Z</time></trkpt><trkpt lat="42.3023117" lon="2.93928"><ele>42.0</ele><time>2026-04-08T15:22:59.919Z</time></trkpt><trkpt lat="42.3021033" lon="2.9393567"><ele>42.0</ele><time>2026-04-08T15:23:00.919Z</time></trkpt><trkpt lat="42.3018967" lon="2.9394383"><ele>42.0</ele><time>2026-04-08T15:23:01.918Z</time></trkpt><trkpt lat="42.3016883" lon="2.939525"><ele>42.0</ele><time>2026-04-08T15:23:02.919Z</time></trkpt><trkpt lat="42.3014833" lon="2.9396217"><ele>42.0</ele><time>2026-04-08T15:23:03.919Z</time></trkpt><trkpt lat="42.3012833" lon="2.93972"><ele>42.0</ele><time>2026-04-08T15:23:04.919Z</time></trkpt><trkpt lat="42.3010867" lon="2.9398233"><ele>42.0</ele><time>2026-04-08T15:23:05.918Z</time></trkpt><trkpt lat="42.3009067" lon="2.9399183"><ele>42.0</ele><time>2026-04-08T15:23:06.919Z</time></trkpt><trkpt lat="42.300735" lon="2.94001"><ele>42.0</ele><time>2026-04-08T15:23:07.919Z</time></trkpt><trkpt lat="42.3005733" lon="2.940095"><ele>42.0</ele><time>2026-04-08T15:23:08.919Z</time></trkpt><trkpt lat="42.300415" lon="2.9401767"><ele>41.666666666666664</ele><time>2026-04-08T15:23:09.919Z</time></trkpt><trkpt lat="42.3002583" lon="2.94026"><ele>41.33333333333333</ele><time>2026-04-08T15:23:10.919Z</time></trkpt><trkpt lat="42.3000967" lon="2.940345"><ele>41.0</ele><time>2026-04-08T15:23:11.919Z</time></trkpt><trkpt lat="42.299935" lon="2.9404317"><ele>41.0</ele><time>2026-04-08T15:23:12.919Z</time></trkpt><trkpt lat="42.29977" lon="2.9405233"><ele>41.0</ele><time>2026-04-08T15:23:13.919Z</time></trkpt><trkpt lat="42.2996067" lon="2.9406117"><ele>41.0</ele><time>2026-04-08T15:23:14.919Z</time></trkpt><trkpt lat="42.299445" lon="2.9407"><ele>41.33333333333333</ele><time>2026-04-08T15:23:15.918Z</time></trkpt><trkpt lat="42.2992867" lon="2.9407783"><ele>41.666666666666664</ele><time>2026-04-08T15:23:16.919Z</time></trkpt><trkpt lat="42.2991283" lon="2.9408583"><ele>42.0</ele><time>2026-04-08T15:23:17.918Z</time></trkpt><trkpt lat="42.29897" lon="2.9409383"><ele>41.666666666666664</ele><time>2026-04-08T15:23:18.919Z</time></trkpt><trkpt lat="42.2988067" lon="2.9410167"><ele>41.33333333333333</ele><time>2026-04-08T15:23:19.919Z</time></trkpt><trkpt lat="42.2986467" lon="2.941095"><ele>41.0</ele><time>2026-04-08T15:23:20.919Z</time></trkpt><trkpt lat="42.298485" lon="2.9411733"><ele>41.0</ele><time>2026-04-08T15:23:21.919Z</time></trkpt><trkpt lat="42.29832" lon="2.94125"><ele>41.0</ele><time>2026-04-08T15:23:22.918Z</time></trkpt><trkpt lat="42.2981533" lon="2.941325"><ele>41.0</ele><time>2026-04-08T15:23:23.919Z</time></trkpt><trkpt lat="42.2979817" lon="2.9413967"><ele>41.666666666666664</ele><time>2026-04-08T15:23:24.918Z</time></trkpt><trkpt lat="42.2978083" lon="2.9414683"><ele>42.333333333333336</ele><time>2026-04-08T15:23:25.919Z</time></trkpt><trkpt lat="42.2976317" lon="2.9415433"><ele>43.0</ele><time>2026-04-08T15:23:26.918Z</time></trkpt><trkpt lat="42.29745" lon="2.9416183"><ele>43.0</ele><time>2026-04-08T15:23:27.919Z</time></trkpt><trkpt lat="42.29728" lon="2.9416917"><ele>43.0</ele><time>2026-04-08T15:23:28.919Z</time></trkpt><trkpt lat="42.2971117" lon="2.94177"><ele>43.0</ele><time>2026-04-08T15:23:29.918Z</time></trkpt><trkpt lat="42.2969433" lon="2.941835"><ele>42.333333333333336</ele><time>2026-04-08T15:23:30.919Z</time></trkpt><trkpt lat="42.2967783" lon="2.9419033"><ele>41.666666666666664</ele><time>2026-04-08T15:23:31.919Z</time></trkpt><trkpt lat="42.2966133" lon="2.94197"><ele>41.0</ele><time>2026-04-08T15:23:32.918Z</time></trkpt><trkpt lat="42.2964417" lon="2.94204"><ele>41.33333333333333</ele><time>2026-04-08T15:23:33.919Z</time></trkpt><trkpt lat="42.29627" lon="2.9421183"><ele>41.666666666666664</ele><time>2026-04-08T15:23:34.919Z</time></trkpt><trkpt lat="42.2961067" lon="2.9421867"><ele>42.0</ele><time>2026-04-08T15:23:35.919Z</time></trkpt><trkpt lat="42.29595" lon="2.9422533"><ele>42.0</ele><time>2026-04-08T15:23:36.918Z</time></trkpt><trkpt lat="42.295795" lon="2.942325"><ele>42.0</ele><time>2026-04-08T15:23:37.919Z</time></trkpt><trkpt lat="42.29565" lon="2.9423983"><ele>42.0</ele><time>2026-04-08T15:23:38.919Z</time></trkpt><trkpt lat="42.2955217" lon="2.9424683"><ele>42.0</ele><time>2026-04-08T15:23:39.919Z</time></trkpt><trkpt lat="42.2953983" lon="2.94254"><ele>42.0</ele><time>2026-04-08T15:23:40.919Z</time></trkpt><trkpt lat="42.2952767" lon="2.9426117"><ele>42.0</ele><time>2026-04-08T15:23:41.919Z</time></trkpt><trkpt lat="42.295155" lon="2.9426883"><ele>42.0</ele><time>2026-04-08T15:23:42.919Z</time></trkpt><trkpt lat="42.295035" lon="2.9427717"><ele>42.0</ele><time>2026-04-08T15:23:43.919Z</time></trkpt><trkpt lat="42.2949217" lon="2.942865"><ele>42.0</ele><time>2026-04-08T15:23:44.919Z</time></trkpt><trkpt lat="42.2948167" lon="2.9429683"><ele>42.0</ele><time>2026-04-08T15:23:45.919Z</time></trkpt><trkpt lat="42.2947183" lon="2.943075"><ele>42.0</ele><time>2026-04-08T15:23:46.918Z</time></trkpt><trkpt lat="42.29462" lon="2.943185"><ele>42.25</ele><time>2026-04-08T15:23:47.918Z</time></trkpt><trkpt lat="42.2945183" lon="2.9432983"><ele>42.5</ele><time>2026-04-08T15:23:48.919Z</time></trkpt><trkpt lat="42.2944133" lon="2.9434183"><ele>42.75</ele><time>2026-04-08T15:23:49.918Z</time></trkpt><trkpt lat="42.2943117" lon="2.9435367"><ele>43.0</ele><time>2026-04-08T15:23:50.919Z</time></trkpt><trkpt lat="42.294215" lon="2.9436617"><ele>43.0</ele><time>2026-04-08T15:23:51.919Z</time></trkpt><trkpt lat="42.2941117" lon="2.94379"><ele>43.0</ele><time>2026-04-08T15:23:52.919Z</time></trkpt><trkpt lat="42.2940067" lon="2.943915"><ele>43.0</ele><time>2026-04-08T15:23:53.919Z</time></trkpt><trkpt lat="42.2938983" lon="2.9440417"><ele>43.0</ele><time>2026-04-08T15:23:54.919Z</time></trkpt><trkpt lat="42.29379" lon="2.9441817"><ele>42.0</ele><time>2026-04-08T15:23:55.918Z</time></trkpt><trkpt lat="42.2936833" lon="2.944335"><ele>41.0</ele><time>2026-04-08T15:23:56.919Z</time></trkpt><trkpt lat="42.293575" lon="2.944495"><ele>40.0</ele><time>2026-04-08T15:23:57.919Z</time></trkpt><trkpt lat="42.2934617" lon="2.9446633"><ele>40.0</ele><time>2026-04-08T15:23:58.919Z</time></trkpt><trkpt lat="42.2933483" lon="2.9448417"><ele>40.0</ele><time>2026-04-08T15:23:59.918Z</time></trkpt><trkpt lat="42.2932333" lon="2.9450333"><ele>40.0</ele><time>2026-04-08T15:24:00.919Z</time></trkpt><trkpt lat="42.2931267" lon="2.9452283"><ele>40.333333333333336</ele><time>2026-04-08T15:24:01.919Z</time></trkpt><trkpt lat="42.29302" lon="2.9454283"><ele>40.666666666666664</ele><time>2026-04-08T15:24:02.918Z</time></trkpt><trkpt lat="42.292915" lon="2.945625"><ele>41.0</ele><time>2026-04-08T15:24:03.919Z</time></trkpt><trkpt lat="42.2928083" lon="2.94583"><ele>39.666666666666664</ele><time>2026-04-08T15:24:04.918Z</time></trkpt><trkpt lat="42.2927033" lon="2.946035"><ele>38.333333333333336</ele><time>2026-04-08T15:24:05.919Z</time></trkpt><trkpt lat="42.292605" lon="2.9462533"><ele>37.0</ele><time>2026-04-08T15:24:06.918Z</time></trkpt><trkpt lat="42.2925033" lon="2.9464667"><ele>37.0</ele><time>2026-04-08T15:24:07.918Z</time></trkpt><trkpt lat="42.292405" lon="2.9466817"><ele>37.0</ele><time>2026-04-08T15:24:08.919Z</time></trkpt><trkpt lat="42.2923067" lon="2.946895"><ele>37.0</ele><time>2026-04-08T15:24:09.919Z</time></trkpt><trkpt lat="42.2922117" lon="2.9471083"><ele>37.333333333333336</ele><time>2026-04-08T15:24:10.918Z</time></trkpt><trkpt lat="42.2921217" lon="2.947325"><ele>37.666666666666664</ele><time>2026-04-08T15:24:11.918Z</time></trkpt><trkpt lat="42.292035" lon="2.9475467"><ele>38.0</ele><time>2026-04-08T15:24:12.919Z</time></trkpt><trkpt lat="42.29195" lon="2.9477717"><ele>37.33333333333333</ele><time>2026-04-08T15:24:13.919Z</time></trkpt><trkpt lat="42.291865" lon="2.947995"><ele>36.666666666666664</ele><time>2026-04-08T15:24:14.919Z</time></trkpt><trkpt lat="42.2917817" lon="2.9482217"><ele>36.0</ele><time>2026-04-08T15:24:15.919Z</time></trkpt><trkpt lat="42.2917017" lon="2.9484483"><ele>36.0</ele><time>2026-04-08T15:24:16.919Z</time></trkpt><trkpt lat="42.29162" lon="2.9486767"><ele>36.0</ele><time>2026-04-08T15:24:17.919Z</time></trkpt><trkpt lat="42.2915433" lon="2.9489067"><ele>36.0</ele><time>2026-04-08T15:24:18.919Z</time></trkpt><trkpt lat="42.291465" lon="2.9491367"><ele>35.0</ele><time>2026-04-08T15:24:19.919Z</time></trkpt><trkpt lat="42.2913883" lon="2.949365"><ele>34.0</ele><time>2026-04-08T15:24:20.919Z</time></trkpt><trkpt lat="42.29131" lon="2.9495983"><ele>33.0</ele><time>2026-04-08T15:24:21.919Z</time></trkpt><trkpt lat="42.29123" lon="2.94983"><ele>33.0</ele><time>2026-04-08T15:24:22.919Z</time></trkpt><trkpt lat="42.2911517" lon="2.9500617"><ele>33.0</ele><time>2026-04-08T15:24:23.918Z</time></trkpt><trkpt lat="42.291075" lon="2.9502933"><ele>33.0</ele><time>2026-04-08T15:24:24.918Z</time></trkpt><trkpt lat="42.2909967" lon="2.9505233"><ele>33.0</ele><time>2026-04-08T15:24:25.919Z</time></trkpt><trkpt lat="42.2909167" lon="2.9507533"><ele>33.0</ele><time>2026-04-08T15:24:26.919Z</time></trkpt><trkpt lat="42.2908383" lon="2.950985"><ele>33.0</ele><time>2026-04-08T15:24:27.918Z</time></trkpt><trkpt lat="42.2907583" lon="2.9512183"><ele>33.333333333333336</ele><time>2026-04-08T15:24:28.919Z</time></trkpt><trkpt lat="42.2906783" lon="2.9514533"><ele>33.66666666666667</ele><time>2026-04-08T15:24:29.918Z</time></trkpt><trkpt lat="42.2906" lon="2.9516867"><ele>34.0</ele><time>2026-04-08T15:24:30.919Z</time></trkpt><trkpt lat="42.2905217" lon="2.9519217"><ele>33.333333333333336</ele><time>2026-04-08T15:24:31.918Z</time></trkpt><trkpt lat="42.2904417" lon="2.9521567"><ele>32.666666666666664</ele><time>2026-04-08T15:24:32.919Z</time></trkpt><trkpt lat="42.2903633" lon="2.95239"><ele>32.0</ele><time>2026-04-08T15:24:33.919Z</time></trkpt><trkpt lat="42.2902867" lon="2.9526267"><ele>31.666666666666664</ele><time>2026-04-08T15:24:34.919Z</time></trkpt><trkpt lat="42.2902067" lon="2.9528633"><ele>31.333333333333336</ele><time>2026-04-08T15:24:35.919Z</time></trkpt><trkpt lat="42.2901233" lon="2.9530967"><ele>31.0</ele><time>2026-04-08T15:24:36.919Z</time></trkpt><trkpt lat="42.2900367" lon="2.953335"><ele>30.666666666666668</ele><time>2026-04-08T15:24:37.919Z</time></trkpt><trkpt lat="42.28995" lon="2.9535717"><ele>30.333333333333336</ele><time>2026-04-08T15:24:38.919Z</time></trkpt><trkpt lat="42.2898633" lon="2.9538117"><ele>30.0</ele><time>2026-04-08T15:24:39.918Z</time></trkpt><trkpt lat="42.289775" lon="2.9540483"><ele>29.666666666666664</ele><time>2026-04-08T15:24:40.919Z</time></trkpt><trkpt lat="42.2896883" lon="2.9542867"><ele>29.333333333333332</ele><time>2026-04-08T15:24:41.919Z</time></trkpt><trkpt lat="42.2895967" lon="2.9545267"><ele>29.0</ele><time>2026-04-08T15:24:42.919Z</time></trkpt><trkpt lat="42.289505" lon="2.95477"><ele>29.0</ele><time>2026-04-08T15:24:43.919Z</time></trkpt><trkpt lat="42.289415" lon="2.9550133"><ele>29.0</ele><time>2026-04-08T15:24:44.919Z</time></trkpt><trkpt lat="42.2893183" lon="2.9552583"><ele>29.0</ele><time>2026-04-08T15:24:45.919Z</time></trkpt><trkpt lat="42.2892217" lon="2.955505"><ele>29.0</ele><time>2026-04-08T15:24:46.919Z</time></trkpt><trkpt lat="42.2891217" lon="2.95575"><ele>29.0</ele><time>2026-04-08T15:24:47.919Z</time></trkpt><trkpt lat="42.2890217" lon="2.955995"><ele>29.0</ele><time>2026-04-08T15:24:48.919Z</time></trkpt><trkpt lat="42.2889233" lon="2.9562433"><ele>29.0</ele><time>2026-04-08T15:24:49.918Z</time></trkpt><trkpt lat="42.2888267" lon="2.9564867"><ele>29.0</ele><time>2026-04-08T15:24:50.919Z</time></trkpt><trkpt lat="42.2887267" lon="2.9567283"><ele>29.0</ele><time>2026-04-08T15:24:51.919Z</time></trkpt><trkpt lat="42.2886233" lon="2.9569717"><ele>28.666666666666664</ele><time>2026-04-08T15:24:52.918Z</time></trkpt><trkpt lat="42.2885217" lon="2.9572117"><ele>28.333333333333336</ele><time>2026-04-08T15:24:53.919Z</time></trkpt><trkpt lat="42.28842" lon="2.9574467"><ele>28.0</ele><time>2026-04-08T15:24:54.919Z</time></trkpt><trkpt lat="42.2883167" lon="2.9576833"><ele>28.0</ele><time>2026-04-08T15:24:55.919Z</time></trkpt><trkpt lat="42.288215" lon="2.9579167"><ele>28.0</ele><time>2026-04-08T15:24:56.919Z</time></trkpt><trkpt lat="42.2881117" lon="2.95815"><ele>28.0</ele><time>2026-04-08T15:24:57.919Z</time></trkpt><trkpt lat="42.28801" lon="2.9583867"><ele>28.0</ele><time>2026-04-08T15:24:58.919Z</time></trkpt><trkpt lat="42.2879067" lon="2.95862"><ele>28.0</ele><time>2026-04-08T15:24:59.918Z</time></trkpt><trkpt lat="42.2878033" lon="2.95885"><ele>28.0</ele><time>2026-04-08T15:25:00.918Z</time></trkpt><trkpt lat="42.2876983" lon="2.9590783"><ele>27.333333333333336</ele><time>2026-04-08T15:25:01.919Z</time></trkpt><trkpt lat="42.2875933" lon="2.9593083"><ele>26.666666666666664</ele><time>2026-04-08T15:25:02.919Z</time></trkpt><trkpt lat="42.2874867" lon="2.9595367"><ele>26.0</ele><time>2026-04-08T15:25:03.919Z</time></trkpt><trkpt lat="42.28738" lon="2.95977"><ele>26.0</ele><time>2026-04-08T15:25:04.919Z</time></trkpt><trkpt lat="42.2872733" lon="2.9600033"><ele>26.0</ele><time>2026-04-08T15:25:05.919Z</time></trkpt><trkpt lat="42.2871633" lon="2.9602317"><ele>26.0</ele><time>2026-04-08T15:25:06.918Z</time></trkpt><trkpt lat="42.287055" lon="2.960455"><ele>25.666666666666664</ele><time>2026-04-08T15:25:07.919Z</time></trkpt><trkpt lat="42.2869467" lon="2.960675"><ele>25.333333333333336</ele><time>2026-04-08T15:25:08.919Z</time></trkpt><trkpt lat="42.28684" lon="2.96089"><ele>25.0</ele><time>2026-04-08T15:25:09.918Z</time></trkpt><trkpt lat="42.2867317" lon="2.9611067"><ele>25.0</ele><time>2026-04-08T15:25:10.919Z</time></trkpt><trkpt lat="42.2866217" lon="2.961325"><ele>25.0</ele><time>2026-04-08T15:25:11.919Z</time></trkpt><trkpt lat="42.2865117" lon="2.9615433"><ele>25.0</ele><time>2026-04-08T15:25:12.919Z</time></trkpt><trkpt lat="42.2864" lon="2.96176"><ele>25.333333333333336</ele><time>2026-04-08T15:25:13.919Z</time></trkpt><trkpt lat="42.286285" lon="2.9619767"><ele>25.666666666666664</ele><time>2026-04-08T15:25:14.919Z</time></trkpt><trkpt lat="42.2861733" lon="2.962195"><ele>26.0</ele><time>2026-04-08T15:25:15.918Z</time></trkpt><trkpt lat="42.2860617" lon="2.9624117"><ele>26.0</ele><time>2026-04-08T15:25:16.919Z</time></trkpt><trkpt lat="42.285945" lon="2.9626267"><ele>26.0</ele><time>2026-04-08T15:25:17.919Z</time></trkpt><trkpt lat="42.2858317" lon="2.96284"><ele>26.0</ele><time>2026-04-08T15:25:18.919Z</time></trkpt><trkpt lat="42.285715" lon="2.9630533"><ele>26.0</ele><time>2026-04-08T15:25:19.918Z</time></trkpt><trkpt lat="42.2855983" lon="2.9632667"><ele>26.0</ele><time>2026-04-08T15:25:20.919Z</time></trkpt><trkpt lat="42.2854817" lon="2.9634783"><ele>26.0</ele><time>2026-04-08T15:25:21.919Z</time></trkpt><trkpt lat="42.2853633" lon="2.9636883"><ele>25.0</ele><time>2026-04-08T15:25:22.919Z</time></trkpt><trkpt lat="42.285245" lon="2.9638967"><ele>24.0</ele><time>2026-04-08T15:25:23.919Z</time></trkpt><trkpt lat="42.285125" lon="2.9641083"><ele>23.0</ele><time>2026-04-08T15:25:24.919Z</time></trkpt><trkpt lat="42.2850017" lon="2.9643167"><ele>23.0</ele><time>2026-04-08T15:25:25.918Z</time></trkpt><trkpt lat="42.2848783" lon="2.9645283"><ele>23.0</ele><time>2026-04-08T15:25:26.918Z</time></trkpt><trkpt lat="42.2847567" lon="2.9647383"><ele>23.0</ele><time>2026-04-08T15:25:27.918Z</time></trkpt><trkpt lat="42.284635" lon="2.9649467"><ele>23.333333333333336</ele><time>2026-04-08T15:25:28.919Z</time></trkpt><trkpt lat="42.2845117" lon="2.965155"><ele>23.666666666666668</ele><time>2026-04-08T15:25:29.919Z</time></trkpt><trkpt lat="42.28439" lon="2.9653633"><ele>24.0</ele><time>2026-04-08T15:25:30.918Z</time></trkpt><trkpt lat="42.2842633" lon="2.9655733"><ele>24.0</ele><time>2026-04-08T15:25:31.918Z</time></trkpt><trkpt lat="42.2841367" lon="2.9657833"><ele>24.0</ele><time>2026-04-08T15:25:32.919Z</time></trkpt><trkpt lat="42.2840067" lon="2.9659917"><ele>24.0</ele><time>2026-04-08T15:25:33.919Z</time></trkpt><trkpt lat="42.283875" lon="2.9662"><ele>23.666666666666668</ele><time>2026-04-08T15:25:34.918Z</time></trkpt><trkpt lat="42.283745" lon="2.9664083"><ele>23.333333333333336</ele><time>2026-04-08T15:25:35.919Z</time></trkpt><trkpt lat="42.2836167" lon="2.9666117"><ele>23.0</ele><time>2026-04-08T15:25:36.919Z</time></trkpt><trkpt lat="42.2834967" lon="2.9668117"><ele>23.0</ele><time>2026-04-08T15:25:37.918Z</time></trkpt><trkpt lat="42.2833733" lon="2.9670083"><ele>23.0</ele><time>2026-04-08T15:25:38.918Z</time></trkpt><trkpt lat="42.283255" lon="2.967205"><ele>23.0</ele><time>2026-04-08T15:25:39.919Z</time></trkpt><trkpt lat="42.2831367" lon="2.9673983"><ele>22.333333333333336</ele><time>2026-04-08T15:25:40.918Z</time></trkpt><trkpt lat="42.2830183" lon="2.9675933"><ele>21.666666666666668</ele><time>2026-04-08T15:25:41.918Z</time></trkpt><trkpt lat="42.2828967" lon="2.96779"><ele>21.0</ele><time>2026-04-08T15:25:42.918Z</time></trkpt><trkpt lat="42.2827733" lon="2.9679883"><ele>21.0</ele><time>2026-04-08T15:25:43.919Z</time></trkpt><trkpt lat="42.2826483" lon="2.9681867"><ele>21.0</ele><time>2026-04-08T15:25:44.918Z</time></trkpt><trkpt lat="42.2825233" lon="2.968385"><ele>21.0</ele><time>2026-04-08T15:25:45.918Z</time></trkpt><trkpt lat="42.2823983" lon="2.9685883"><ele>21.0</ele><time>2026-04-08T15:25:46.919Z</time></trkpt><trkpt lat="42.282275" lon="2.9687917"><ele>21.0</ele><time>2026-04-08T15:25:47.918Z</time></trkpt><trkpt lat="42.2821517" lon="2.96899"><ele>21.0</ele><time>2026-04-08T15:25:48.919Z</time></trkpt><trkpt lat="42.2820367" lon="2.9691833"><ele>21.0</ele><time>2026-04-08T15:25:49.919Z</time></trkpt><trkpt lat="42.2819167" lon="2.969375"><ele>21.0</ele><time>2026-04-08T15:25:50.919Z</time></trkpt><trkpt lat="42.2817917" lon="2.969565"><ele>21.0</ele><time>2026-04-08T15:25:51.919Z</time></trkpt><trkpt lat="42.28167" lon="2.9697533"><ele>21.0</ele><time>2026-04-08T15:25:52.918Z</time></trkpt><trkpt lat="42.2815533" lon="2.9699417"><ele>21.0</ele><time>2026-04-08T15:25:53.919Z</time></trkpt><trkpt lat="42.2814383" lon="2.97013"><ele>21.0</ele><time>2026-04-08T15:25:54.918Z</time></trkpt><trkpt lat="42.281315" lon="2.970315"><ele>21.0</ele><time>2026-04-08T15:25:55.918Z</time></trkpt><trkpt lat="42.281205" lon="2.9704983"><ele>21.0</ele><time>2026-04-08T15:25:56.918Z</time></trkpt><trkpt lat="42.2810917" lon="2.9706833"><ele>21.0</ele><time>2026-04-08T15:25:57.917Z</time></trkpt><trkpt lat="42.2809767" lon="2.9708733"><ele>21.0</ele><time>2026-04-08T15:25:58.918Z</time></trkpt><trkpt lat="42.2808633" lon="2.9710683"><ele>21.0</ele><time>2026-04-08T15:25:59.917Z</time></trkpt><trkpt lat="42.28075" lon="2.9712667"><ele>21.0</ele><time>2026-04-08T15:26:00.918Z</time></trkpt><trkpt lat="42.2806317" lon="2.97147"><ele>21.0</ele><time>2026-04-08T15:26:01.918Z</time></trkpt><trkpt lat="42.28052" lon="2.971675"><ele>21.0</ele><time>2026-04-08T15:26:02.918Z</time></trkpt><trkpt lat="42.2804017" lon="2.9718833"><ele>21.0</ele><time>2026-04-08T15:26:03.917Z</time></trkpt><trkpt lat="42.280285" lon="2.972095"><ele>21.0</ele><time>2026-04-08T15:26:04.917Z</time></trkpt><trkpt lat="42.280165" lon="2.9723067"><ele>21.0</ele><time>2026-04-08T15:26:05.918Z</time></trkpt><trkpt lat="42.28005" lon="2.9725167"><ele>21.0</ele><time>2026-04-08T15:26:06.918Z</time></trkpt><trkpt lat="42.2799333" lon="2.972725"><ele>21.0</ele><time>2026-04-08T15:26:07.918Z</time></trkpt><trkpt lat="42.2798183" lon="2.972935"><ele>21.0</ele><time>2026-04-08T15:26:08.917Z</time></trkpt><trkpt lat="42.2797033" lon="2.973145"><ele>21.0</ele><time>2026-04-08T15:26:09.918Z</time></trkpt><trkpt lat="42.2795933" lon="2.9733533"><ele>20.666666666666668</ele><time>2026-04-08T15:26:10.918Z</time></trkpt><trkpt lat="42.2794867" lon="2.9735617"><ele>20.333333333333336</ele><time>2026-04-08T15:26:11.917Z</time></trkpt><trkpt lat="42.2793767" lon="2.9737683"><ele>20.0</ele><time>2026-04-08T15:26:12.918Z</time></trkpt><trkpt lat="42.2792683" lon="2.973975"><ele>20.0</ele><time>2026-04-08T15:26:13.918Z</time></trkpt><trkpt lat="42.2791617" lon="2.9741833"><ele>20.0</ele><time>2026-04-08T15:26:14.917Z</time></trkpt><trkpt lat="42.2790517" lon="2.9743917"><ele>20.0</ele><time>2026-04-08T15:26:15.918Z</time></trkpt><trkpt lat="42.278945" lon="2.9746017"><ele>18.333333333333336</ele><time>2026-04-08T15:26:16.918Z</time></trkpt><trkpt lat="42.27884" lon="2.97481"><ele>16.666666666666668</ele><time>2026-04-08T15:26:17.918Z</time></trkpt><trkpt lat="42.278735" lon="2.97502"><ele>15.0</ele><time>2026-04-08T15:26:18.918Z</time></trkpt><trkpt lat="42.2786317" lon="2.9752317"><ele>15.0</ele><time>2026-04-08T15:26:19.918Z</time></trkpt><trkpt lat="42.278525" lon="2.975445"><ele>15.0</ele><time>2026-04-08T15:26:20.917Z</time></trkpt><trkpt lat="42.27842" lon="2.97566"><ele>15.0</ele><time>2026-04-08T15:26:21.918Z</time></trkpt><trkpt lat="42.2783167" lon="2.9758767"><ele>15.0</ele><time>2026-04-08T15:26:22.917Z</time></trkpt><trkpt lat="42.2782133" lon="2.9760933"><ele>15.0</ele><time>2026-04-08T15:26:23.917Z</time></trkpt><trkpt lat="42.2781133" lon="2.9763117"><ele>15.0</ele><time>2026-04-08T15:26:24.918Z</time></trkpt><trkpt lat="42.27801" lon="2.9765283"><ele>15.666666666666668</ele><time>2026-04-08T15:26:25.917Z</time></trkpt><trkpt lat="42.2779083" lon="2.976745"><ele>16.333333333333336</ele><time>2026-04-08T15:26:26.917Z</time></trkpt><trkpt lat="42.277805" lon="2.976965"><ele>17.0</ele><time>2026-04-08T15:26:27.918Z</time></trkpt><trkpt lat="42.277705" lon="2.9771817"><ele>17.0</ele><time>2026-04-08T15:26:28.918Z</time></trkpt><trkpt lat="42.2776033" lon="2.9774017"><ele>17.0</ele><time>2026-04-08T15:26:29.918Z</time></trkpt><trkpt lat="42.277505" lon="2.9776233"><ele>17.0</ele><time>2026-04-08T15:26:30.917Z</time></trkpt><trkpt lat="42.2774067" lon="2.977845"><ele>17.0</ele><time>2026-04-08T15:26:31.918Z</time></trkpt><trkpt lat="42.2773083" lon="2.9780683"><ele>17.0</ele><time>2026-04-08T15:26:32.918Z</time></trkpt><trkpt lat="42.2772117" lon="2.9782883"><ele>17.0</ele><time>2026-04-08T15:26:33.918Z</time></trkpt><trkpt lat="42.2771083" lon="2.9785117"><ele>16.666666666666668</ele><time>2026-04-08T15:26:34.918Z</time></trkpt><trkpt lat="42.27701" lon="2.9787317"><ele>16.333333333333332</ele><time>2026-04-08T15:26:35.917Z</time></trkpt><trkpt lat="42.2769133" lon="2.978955"><ele>16.0</ele><time>2026-04-08T15:26:36.918Z</time></trkpt><trkpt lat="42.2768167" lon="2.9791733"><ele>16.0</ele><time>2026-04-08T15:26:37.918Z</time></trkpt><trkpt lat="42.2767183" lon="2.979395"><ele>16.0</ele><time>2026-04-08T15:26:38.918Z</time></trkpt><trkpt lat="42.2766183" lon="2.9796167"><ele>16.0</ele><time>2026-04-08T15:26:39.918Z</time></trkpt><trkpt lat="42.2765217" lon="2.97984"><ele>17.666666666666664</ele><time>2026-04-08T15:26:40.918Z</time></trkpt><trkpt lat="42.2764267" lon="2.980065"><ele>19.333333333333332</ele><time>2026-04-08T15:26:41.918Z</time></trkpt><trkpt lat="42.2763317" lon="2.98029"><ele>21.0</ele><time>2026-04-08T15:26:42.917Z</time></trkpt><trkpt lat="42.2762317" lon="2.980515"><ele>21.0</ele><time>2026-04-08T15:26:43.917Z</time></trkpt><trkpt lat="42.2761283" lon="2.9807383"><ele>21.0</ele><time>2026-04-08T15:26:44.918Z</time></trkpt><trkpt lat="42.276025" lon="2.9809617"><ele>21.0</ele><time>2026-04-08T15:26:45.918Z</time></trkpt><trkpt lat="42.27592" lon="2.981185"><ele>21.0</ele><time>2026-04-08T15:26:46.918Z</time></trkpt><trkpt lat="42.275815" lon="2.9814117"><ele>21.0</ele><time>2026-04-08T15:26:47.917Z</time></trkpt><trkpt lat="42.2757083" lon="2.9816383"><ele>21.0</ele><time>2026-04-08T15:26:48.917Z</time></trkpt><trkpt lat="42.2756" lon="2.9818633"><ele>21.0</ele><time>2026-04-08T15:26:49.918Z</time></trkpt><trkpt lat="42.2754917" lon="2.9820883"><ele>21.0</ele><time>2026-04-08T15:26:50.918Z</time></trkpt><trkpt lat="42.27538" lon="2.9823117"><ele>21.0</ele><time>2026-04-08T15:26:51.918Z</time></trkpt><trkpt lat="42.2752683" lon="2.9825333"><ele>20.666666666666668</ele><time>2026-04-08T15:26:52.918Z</time></trkpt><trkpt lat="42.2751533" lon="2.98276"><ele>20.333333333333336</ele><time>2026-04-08T15:26:53.918Z</time></trkpt><trkpt lat="42.2750333" lon="2.982985"><ele>20.0</ele><time>2026-04-08T15:26:54.917Z</time></trkpt><trkpt lat="42.2749133" lon="2.9832067"><ele>19.333333333333336</ele><time>2026-04-08T15:26:55.918Z</time></trkpt><trkpt lat="42.274785" lon="2.98342"><ele>18.666666666666668</ele><time>2026-04-08T15:26:56.918Z</time></trkpt><trkpt lat="42.2746533" lon="2.98363"><ele>18.0</ele><time>2026-04-08T15:26:57.918Z</time></trkpt><trkpt lat="42.2745183" lon="2.983835"><ele>18.0</ele><time>2026-04-08T15:26:58.917Z</time></trkpt><trkpt lat="42.2743783" lon="2.9840383"><ele>18.0</ele><time>2026-04-08T15:26:59.918Z</time></trkpt><trkpt lat="42.2742367" lon="2.9842417"><ele>18.0</ele><time>2026-04-08T15:27:00.918Z</time></trkpt><trkpt lat="42.27409" lon="2.984445"><ele>18.0</ele><time>2026-04-08T15:27:01.918Z</time></trkpt><trkpt lat="42.273935" lon="2.9846433"><ele>18.0</ele><time>2026-04-08T15:27:02.917Z</time></trkpt><trkpt lat="42.27378" lon="2.9848433"><ele>18.0</ele><time>2026-04-08T15:27:03.917Z</time></trkpt><trkpt lat="42.2736183" lon="2.98504"><ele>18.0</ele><time>2026-04-08T15:27:04.918Z</time></trkpt><trkpt lat="42.2734533" lon="2.9852317"><ele>18.0</ele><time>2026-04-08T15:27:05.917Z</time></trkpt><trkpt lat="42.273285" lon="2.9854117"><ele>18.0</ele><time>2026-04-08T15:27:06.918Z</time></trkpt><trkpt lat="42.2731167" lon="2.9855883"><ele>17.666666666666668</ele><time>2026-04-08T15:27:07.917Z</time></trkpt><trkpt lat="42.27295" lon="2.9857617"><ele>17.333333333333336</ele><time>2026-04-08T15:27:08.917Z</time></trkpt><trkpt lat="42.27278" lon="2.98593"><ele>17.0</ele><time>2026-04-08T15:27:09.918Z</time></trkpt><trkpt lat="42.2726083" lon="2.986095"><ele>17.0</ele><time>2026-04-08T15:27:10.918Z</time></trkpt><trkpt lat="42.2724317" lon="2.9862533"><ele>17.0</ele><time>2026-04-08T15:27:11.917Z</time></trkpt><trkpt lat="42.2722517" lon="2.9863983"><ele>17.0</ele><time>2026-04-08T15:27:12.918Z</time></trkpt><trkpt lat="42.272075" lon="2.986545"><ele>17.0</ele><time>2026-04-08T15:27:13.918Z</time></trkpt><trkpt lat="42.2718967" lon="2.9866883"><ele>17.0</ele><time>2026-04-08T15:27:14.918Z</time></trkpt><trkpt lat="42.2717167" lon="2.986825"><ele>17.0</ele><time>2026-04-08T15:27:15.918Z</time></trkpt><trkpt lat="42.2715333" lon="2.9869567"><ele>17.0</ele><time>2026-04-08T15:27:16.918Z</time></trkpt><trkpt lat="42.27135" lon="2.98708"><ele>17.0</ele><time>2026-04-08T15:27:17.918Z</time></trkpt><trkpt lat="42.2711617" lon="2.9871983"><ele>17.0</ele><time>2026-04-08T15:27:18.918Z</time></trkpt><trkpt lat="42.270975" lon="2.9873017"><ele>17.0</ele><time>2026-04-08T15:27:19.917Z</time></trkpt><trkpt lat="42.2707967" lon="2.987395"><ele>17.0</ele><time>2026-04-08T15:27:20.918Z</time></trkpt><trkpt lat="42.270615" lon="2.98748"><ele>17.0</ele><time>2026-04-08T15:27:21.918Z</time></trkpt><trkpt lat="42.27042" lon="2.9875617"><ele>17.0</ele><time>2026-04-08T15:27:22.918Z</time></trkpt><trkpt lat="42.2702267" lon="2.9876367"><ele>17.0</ele><time>2026-04-08T15:27:23.918Z</time></trkpt><trkpt lat="42.2700367" lon="2.9877067"><ele>17.0</ele><time>2026-04-08T15:27:24.918Z</time></trkpt><trkpt lat="42.2698483" lon="2.98777"><ele>17.333333333333336</ele><time>2026-04-08T15:27:25.918Z</time></trkpt><trkpt lat="42.2696583" lon="2.9878317"><ele>17.666666666666668</ele><time>2026-04-08T15:27:26.918Z</time></trkpt><trkpt lat="42.2694683" lon="2.98789"><ele>18.0</ele><time>2026-04-08T15:27:27.918Z</time></trkpt><trkpt lat="42.2692817" lon="2.987945"><ele>18.0</ele><time>2026-04-08T15:27:28.918Z</time></trkpt><trkpt lat="42.2690983" lon="2.9879967"><ele>18.0</ele><time>2026-04-08T15:27:29.918Z</time></trkpt><trkpt lat="42.2689467" lon="2.9880333"><ele>18.0</ele><time>2026-04-08T15:27:30.918Z</time></trkpt><trkpt lat="42.2688083" lon="2.9880533"><ele>18.5</ele><time>2026-04-08T15:27:31.917Z</time></trkpt><trkpt lat="42.2686867" lon="2.988055"><ele>19.0</ele><time>2026-04-08T15:27:32.917Z</time></trkpt><trkpt lat="42.268575" lon="2.9880317"><ele>19.5</ele><time>2026-04-08T15:27:33.917Z</time></trkpt><trkpt lat="42.2684633" lon="2.98798"><ele>20.0</ele><time>2026-04-08T15:27:34.918Z</time></trkpt><trkpt lat="42.2683583" lon="2.9879033"><ele>20.0</ele><time>2026-04-08T15:27:35.918Z</time></trkpt><trkpt lat="42.26826" lon="2.9878033"><ele>20.0</ele><time>2026-04-08T15:27:36.918Z</time></trkpt><trkpt lat="42.2681833" lon="2.9876767"><ele>20.0</ele><time>2026-04-08T15:27:37.918Z</time></trkpt><trkpt lat="42.26811" lon="2.987535"><ele>20.0</ele><time>2026-04-08T15:27:38.918Z</time></trkpt><trkpt lat="42.26803" lon="2.9873983"><ele>19.75</ele><time>2026-04-08T15:27:39.918Z</time></trkpt><trkpt lat="42.2679417" lon="2.9872783"><ele>19.5</ele><time>2026-04-08T15:27:40.918Z</time></trkpt><trkpt lat="42.2678383" lon="2.987175"><ele>19.25</ele><time>2026-04-08T15:27:41.918Z</time></trkpt><trkpt lat="42.2677233" lon="2.9870933"><ele>19.0</ele><time>2026-04-08T15:27:42.918Z</time></trkpt><trkpt lat="42.2676067" lon="2.9870283"><ele>19.0</ele><time>2026-04-08T15:27:43.918Z</time></trkpt><trkpt lat="42.26749" lon="2.98697"><ele>19.0</ele><time>2026-04-08T15:27:44.918Z</time></trkpt><trkpt lat="42.2673783" lon="2.9869067"><ele>19.0</ele><time>2026-04-08T15:27:45.918Z</time></trkpt><trkpt lat="42.2672817" lon="2.9868317"><ele>19.0</ele><time>2026-04-08T15:27:46.917Z</time></trkpt><trkpt lat="42.2672133" lon="2.9867583"><ele>19.0</ele><time>2026-04-08T15:27:47.917Z</time></trkpt><trkpt lat="42.2671583" lon="2.9866583"><ele>19.0</ele><time>2026-04-08T15:27:49.918Z</time></trkpt><trkpt lat="42.2670933" lon="2.986475"><ele>19.0</ele><time>2026-04-08T15:27:56.918Z</time></trkpt><trkpt lat="42.267085" lon="2.9863783"><ele>19.0</ele><time>2026-04-08T15:27:58.918Z</time></trkpt><trkpt lat="42.2670783" lon="2.9862767"><ele>19.0</ele><time>2026-04-08T15:28:00.918Z</time></trkpt><trkpt lat="42.267075" lon="2.9861767"><ele>19.0</ele><time>2026-04-08T15:28:02.918Z</time></trkpt><trkpt lat="42.2670717" lon="2.9860767"><ele>19.0</ele><time>2026-04-08T15:28:04.918Z</time></trkpt><trkpt lat="42.2670717" lon="2.9859667"><ele>19.0</ele><time>2026-04-08T15:28:06.918Z</time></trkpt><trkpt lat="42.267075" lon="2.9858767"><ele>19.0</ele><time>2026-04-08T15:28:08.918Z</time></trkpt><trkpt lat="42.267075" lon="2.9857417"><ele>19.0</ele><time>2026-04-08T15:28:11.918Z</time></trkpt><trkpt lat="42.2670817" lon="2.9855933"><ele>19.0</ele><time>2026-04-08T15:28:14.918Z</time></trkpt><trkpt lat="42.2670783" lon="2.98548"><ele>19.0</ele><time>2026-04-08T15:28:17.918Z</time></trkpt><trkpt lat="42.26707" lon="2.985325"><ele>19.0</ele><time>2026-04-08T15:28:20.918Z</time></trkpt><trkpt lat="42.26707" lon="2.985185"><ele>19.0</ele><time>2026-04-08T15:28:22.918Z</time></trkpt><trkpt lat="42.267065" lon="2.9850567"><ele>19.0</ele><time>2026-04-08T15:28:24.918Z</time></trkpt><trkpt lat="42.2670683" lon="2.98493"><ele>19.0</ele><time>2026-04-08T15:28:26.918Z</time></trkpt><trkpt lat="42.2670483" lon="2.9847767"><ele>19.0</ele><time>2026-04-08T15:28:28.918Z</time></trkpt><trkpt lat="42.2670417" lon="2.9846917"><ele>19.2</ele><time>2026-04-08T15:28:29.918Z</time></trkpt><trkpt lat="42.2670383" lon="2.984605"><ele>19.4</ele><time>2026-04-08T15:28:30.918Z</time></trkpt><trkpt lat="42.267025" lon="2.98435"><ele>19.6</ele><time>2026-04-08T15:28:33.918Z</time></trkpt><trkpt lat="42.2670167" lon="2.98422"><ele>19.8</ele><time>2026-04-08T15:28:35.918Z</time></trkpt><trkpt lat="42.267005" lon="2.9841283"><ele>20.0</ele><time>2026-04-08T15:28:37.917Z</time></trkpt><trkpt lat="42.2670017" lon="2.9839817"><ele>20.166666666666668</ele><time>2026-04-08T15:28:39.917Z</time></trkpt><trkpt lat="42.267" lon="2.983885"><ele>20.333333333333336</ele><time>2026-04-08T15:28:40.918Z</time></trkpt><trkpt lat="42.2669967" lon="2.9837767"><ele>20.5</ele><time>2026-04-08T15:28:41.917Z</time></trkpt><trkpt lat="42.2669933" lon="2.9836667"><ele>20.666666666666668</ele><time>2026-04-08T15:28:42.918Z</time></trkpt><trkpt lat="42.2669883" lon="2.983565"><ele>20.833333333333332</ele><time>2026-04-08T15:28:43.918Z</time></trkpt><trkpt lat="42.26699" lon="2.9834667"><ele>21.0</ele><time>2026-04-08T15:28:44.918Z</time></trkpt><trkpt lat="42.26699" lon="2.9833733"><ele>21.0</ele><time>2026-04-08T15:28:45.918Z</time></trkpt><trkpt lat="42.2669817" lon="2.98321"><ele>21.0</ele><time>2026-04-08T15:28:47.917Z</time></trkpt><trkpt lat="42.2669767" lon="2.9830867"><ele>21.0</ele><time>2026-04-08T15:28:49.918Z</time></trkpt><trkpt lat="42.26697" lon="2.9829517"><ele>21.0</ele><time>2026-04-08T15:28:51.917Z</time></trkpt><trkpt lat="42.2669667" lon="2.9828633"><ele>21.0</ele><time>2026-04-08T15:28:52.918Z</time></trkpt><trkpt lat="42.2669633" lon="2.982765"><ele>21.0</ele><time>2026-04-08T15:28:53.918Z</time></trkpt><trkpt lat="42.26696" lon="2.9826633"><ele>21.0</ele><time>2026-04-08T15:28:54.918Z</time></trkpt><trkpt lat="42.2669567" lon="2.9825683"><ele>21.0</ele><time>2026-04-08T15:28:55.917Z</time></trkpt><trkpt lat="42.266955" lon="2.9824817"><ele>21.0</ele><time>2026-04-08T15:28:56.918Z</time></trkpt><trkpt lat="42.2669533" lon="2.9823283"><ele>21.0</ele><time>2026-04-08T15:28:58.918Z</time></trkpt><trkpt lat="42.2669517" lon="2.982205"><ele>21.0</ele><time>2026-04-08T15:29:01.918Z</time></trkpt><trkpt lat="42.2669467" lon="2.9820883"><ele>21.0</ele><time>2026-04-08T15:29:03.918Z</time></trkpt><trkpt lat="42.2669417" lon="2.9819317"><ele>21.0</ele><time>2026-04-08T15:29:05.918Z</time></trkpt><trkpt lat="42.2669417" lon="2.9817817"><ele>21.0</ele><time>2026-04-08T15:29:07.917Z</time></trkpt><trkpt lat="42.266955" lon="2.9816383"><ele>21.0</ele><time>2026-04-08T15:29:09.918Z</time></trkpt><trkpt lat="42.26699" lon="2.9814867"><ele>20.857142857142858</ele><time>2026-04-08T15:29:11.918Z</time></trkpt><trkpt lat="42.2669917" lon="2.9814"><ele>20.714285714285715</ele><time>2026-04-08T15:29:12.918Z</time></trkpt><trkpt lat="42.2669767" lon="2.9813167"><ele>20.57142857142857</ele><time>2026-04-08T15:29:13.917Z</time></trkpt><trkpt lat="42.2669483" lon="2.9812333"><ele>20.42857142857143</ele><time>2026-04-08T15:29:14.918Z</time></trkpt><trkpt lat="42.2669233" lon="2.981145"><ele>20.285714285714285</ele><time>2026-04-08T15:29:15.917Z</time></trkpt><trkpt lat="42.26691" lon="2.981045"><ele>20.142857142857142</ele><time>2026-04-08T15:29:16.918Z</time></trkpt><trkpt lat="42.2669017" lon="2.9809367"><ele>20.0</ele><time>2026-04-08T15:29:17.917Z</time></trkpt><trkpt lat="42.266895" lon="2.9808167"><ele>20.0</ele><time>2026-04-08T15:29:18.918Z</time></trkpt><trkpt lat="42.2668883" lon="2.980705"><ele>20.0</ele><time>2026-04-08T15:29:19.917Z</time></trkpt><trkpt lat="42.26688" lon="2.9806"><ele>20.0</ele><time>2026-04-08T15:29:20.917Z</time></trkpt><trkpt lat="42.2668733" lon="2.9805083"><ele>20.0</ele><time>2026-04-08T15:29:21.918Z</time></trkpt><trkpt lat="42.26687" lon="2.9803783"><ele>20.0</ele><time>2026-04-08T15:29:23.918Z</time></trkpt><trkpt lat="42.266895" lon="2.9802233"><ele>20.0</ele><time>2026-04-08T15:32:59.918Z</time></trkpt><trkpt lat="42.2670133" lon="2.98024"><ele>20.0</ele><time>2026-04-08T15:39:13.917Z</time></trkpt><trkpt lat="42.267095" lon="2.9802083"><ele>20.0</ele><time>2026-04-08T15:41:54.918Z</time></trkpt><trkpt lat="42.267115" lon="2.980005"><ele>20.0</ele><time>2026-04-08T15:45:08.918Z</time></trkpt><trkpt lat="42.2670733" lon="2.979865"><ele>20.0</ele><time>2026-04-08T15:50:33.919Z</time></trkpt><trkpt lat="42.2670983" lon="2.979955"><ele>20.0</ele><time>2026-04-08T15:52:20.918Z</time></trkpt><trkpt lat="42.267041" lon="2.9798923"><ele>19.714285714285715</ele><time>2026-04-08T15:54:07.252Z</time></trkpt><trkpt lat="42.2671168" lon="2.9799042"><ele>19.42857142857143</ele><time>2026-04-08T16:00:45.163Z</time></trkpt><trkpt lat="42.2670527" lon="2.9798879"><ele>19.142857142857146</ele><time>2026-04-08T16:00:51.174Z</time></trkpt><trkpt lat="42.2669888" lon="2.9799214"><ele>18.857142857142858</ele><time>2026-04-08T16:01:26.119Z</time></trkpt><trkpt lat="42.2669517" lon="2.97985"><ele>18.571428571428573</ele><time>2026-04-08T16:02:53.919Z</time></trkpt><trkpt lat="42.2668867" lon="2.979855"><ele>18.28571428571429</ele><time>2026-04-08T16:03:03.919Z</time></trkpt><trkpt lat="42.2668217" lon="2.9798083"><ele>18.0</ele><time>2026-04-08T16:03:11.919Z</time></trkpt><trkpt lat="42.2668" lon="2.9797267"><ele>18.0</ele><time>2026-04-08T16:03:13.919Z</time></trkpt><trkpt lat="42.2667883" lon="2.9796017"><ele>18.0</ele><time>2026-04-08T16:03:15.919Z</time></trkpt><trkpt lat="42.2667833" lon="2.9794467"><ele>18.0</ele><time>2026-04-08T16:03:17.919Z</time></trkpt><trkpt lat="42.2667783" lon="2.9793517"><ele>18.0</ele><time>2026-04-08T16:03:18.919Z</time></trkpt><trkpt lat="42.2667767" lon="2.9792483"><ele>18.0</ele><time>2026-04-08T16:03:19.918Z</time></trkpt><trkpt lat="42.2667767" lon="2.9791317"><ele>18.0</ele><time>2026-04-08T16:03:20.919Z</time></trkpt><trkpt lat="42.26677" lon="2.9790117"><ele>18.0</ele><time>2026-04-08T16:03:21.917Z</time></trkpt><trkpt lat="42.266765" lon="2.9788933"><ele>18.0</ele><time>2026-04-08T16:03:22.918Z</time></trkpt><trkpt lat="42.2667583" lon="2.97878"><ele>18.0</ele><time>2026-04-08T16:03:23.918Z</time></trkpt><trkpt lat="42.2667533" lon="2.9785433"><ele>18.0</ele><time>2026-04-08T16:03:25.917Z</time></trkpt><trkpt lat="42.2667517" lon="2.9784217"><ele>18.0</ele><time>2026-04-08T16:03:26.918Z</time></trkpt><trkpt lat="42.2667533" lon="2.9783033"><ele>18.5</ele><time>2026-04-08T16:03:27.918Z</time></trkpt><trkpt lat="42.2667467" lon="2.97818"><ele>19.0</ele><time>2026-04-08T16:03:28.918Z</time></trkpt><trkpt lat="42.2667383" lon="2.978055"><ele>19.5</ele><time>2026-04-08T16:03:29.918Z</time></trkpt><trkpt lat="42.2667333" lon="2.9779367"><ele>20.0</ele><time>2026-04-08T16:03:30.918Z</time></trkpt><trkpt lat="42.2667317" lon="2.977825"><ele>20.5</ele><time>2026-04-08T16:03:31.918Z</time></trkpt><trkpt lat="42.2667333" lon="2.9777367"><ele>21.0</ele><time>2026-04-08T16:03:32.918Z</time></trkpt><trkpt lat="42.266745" lon="2.9775983"><ele>21.0</ele><time>2026-04-08T16:03:34.918Z</time></trkpt><trkpt lat="42.2668" lon="2.9774667"><ele>21.0</ele><time>2026-04-08T16:03:36.918Z</time></trkpt><trkpt lat="42.2668417" lon="2.9773933"><ele>21.0</ele><time>2026-04-08T16:03:37.917Z</time></trkpt><trkpt lat="42.2668767" lon="2.9773117"><ele>21.0</ele><time>2026-04-08T16:03:38.918Z</time></trkpt><trkpt lat="42.266885" lon="2.9772217"><ele>21.0</ele><time>2026-04-08T16:03:39.918Z</time></trkpt><trkpt lat="42.2668683" lon="2.9771383"><ele>21.0</ele><time>2026-04-08T16:03:40.918Z</time></trkpt><trkpt lat="42.2668333" lon="2.977065"><ele>21.0</ele><time>2026-04-08T16:03:41.918Z</time></trkpt><trkpt lat="42.2667783" lon="2.9770183"><ele>21.0</ele><time>2026-04-08T16:03:42.918Z</time></trkpt><trkpt lat="42.2666567" lon="2.9770233"><ele>21.0</ele><time>2026-04-08T16:03:44.917Z</time></trkpt><trkpt lat="42.2665983" lon="2.9770683"><ele>21.0</ele><time>2026-04-08T16:03:45.918Z</time></trkpt><trkpt lat="42.2665467" lon="2.9771233"><ele>21.0</ele><time>2026-04-08T16:03:46.917Z</time></trkpt><trkpt lat="42.2664933" lon="2.9771817"><ele>21.0</ele><time>2026-04-08T16:03:47.918Z</time></trkpt><trkpt lat="42.2663817" lon="2.9772183"><ele>21.0</ele><time>2026-04-08T16:03:49.918Z</time></trkpt><trkpt lat="42.266315" lon="2.97722"><ele>20.833333333333332</ele><time>2026-04-08T16:03:50.918Z</time></trkpt><trkpt lat="42.26625" lon="2.9772217"><ele>20.666666666666668</ele><time>2026-04-08T16:03:51.917Z</time></trkpt><trkpt lat="42.2661833" lon="2.9772217"><ele>20.5</ele><time>2026-04-08T16:03:52.918Z</time></trkpt><trkpt lat="42.26612" lon="2.9772217"><ele>20.333333333333336</ele><time>2026-04-08T16:03:53.918Z</time></trkpt><trkpt lat="42.2659917" lon="2.9772267"><ele>20.166666666666668</ele><time>2026-04-08T16:03:55.917Z</time></trkpt><trkpt lat="42.2659217" lon="2.9772267"><ele>20.0</ele><time>2026-04-08T16:03:56.917Z</time></trkpt><trkpt lat="42.26585" lon="2.97723"><ele>20.0</ele><time>2026-04-08T16:03:57.917Z</time></trkpt><trkpt lat="42.2657767" lon="2.9772317"><ele>20.0</ele><time>2026-04-08T16:03:58.917Z</time></trkpt><trkpt lat="42.2657017" lon="2.9772367"><ele>20.0</ele><time>2026-04-08T16:03:59.917Z</time></trkpt><trkpt lat="42.265625" lon="2.9772333"><ele>20.0</ele><time>2026-04-08T16:04:00.917Z</time></trkpt><trkpt lat="42.2655483" lon="2.977235"><ele>20.0</ele><time>2026-04-08T16:04:01.917Z</time></trkpt><trkpt lat="42.2654633" lon="2.9772417"><ele>20.0</ele><time>2026-04-08T16:04:02.918Z</time></trkpt><trkpt lat="42.2653833" lon="2.9772433"><ele>19.833333333333336</ele><time>2026-04-08T16:04:03.918Z</time></trkpt><trkpt lat="42.2652983" lon="2.9772467"><ele>19.666666666666668</ele><time>2026-04-08T16:04:04.918Z</time></trkpt><trkpt lat="42.2652167" lon="2.9772567"><ele>19.5</ele><time>2026-04-08T16:04:05.918Z</time></trkpt><trkpt lat="42.2651333" lon="2.9772583"><ele>19.333333333333332</ele><time>2026-04-08T16:04:06.917Z</time></trkpt><trkpt lat="42.2650533" lon="2.9772617"><ele>19.166666666666664</ele><time>2026-04-08T16:04:07.918Z</time></trkpt><trkpt lat="42.2649683" lon="2.97726"><ele>19.0</ele><time>2026-04-08T16:04:08.918Z</time></trkpt><trkpt lat="42.26488" lon="2.977265"><ele>19.0</ele><time>2026-04-08T16:04:09.918Z</time></trkpt><trkpt lat="42.2647883" lon="2.97727"><ele>19.0</ele><time>2026-04-08T16:04:10.917Z</time></trkpt><trkpt lat="42.2647017" lon="2.977275"><ele>19.0</ele><time>2026-04-08T16:04:11.918Z</time></trkpt><trkpt lat="42.26462" lon="2.9772783"><ele>19.0</ele><time>2026-04-08T16:04:12.918Z</time></trkpt><trkpt lat="42.2645433" lon="2.9772833"><ele>19.0</ele><time>2026-04-08T16:04:13.918Z</time></trkpt><trkpt lat="42.2644383" lon="2.97726"><ele>19.0</ele><time>2026-04-08T16:04:15.918Z</time></trkpt><trkpt lat="42.2643317" lon="2.9772533"><ele>19.0</ele><time>2026-04-08T16:04:17.918Z</time></trkpt><trkpt lat="42.2642067" lon="2.97726"><ele>19.0</ele><time>2026-04-08T16:04:27.917Z</time></trkpt><trkpt lat="42.26409" lon="2.977275"><ele>19.0</ele><time>2026-04-08T16:04:29.918Z</time></trkpt><trkpt lat="42.264015" lon="2.9772783"><ele>19.0</ele><time>2026-04-08T16:04:30.918Z</time></trkpt><trkpt lat="42.26393" lon="2.9772883"><ele>19.0</ele><time>2026-04-08T16:04:31.918Z</time></trkpt><trkpt lat="42.263835" lon="2.9772983"><ele>19.4</ele><time>2026-04-08T16:04:32.918Z</time></trkpt><trkpt lat="42.26374" lon="2.977305"><ele>19.799999999999997</ele><time>2026-04-08T16:04:33.917Z</time></trkpt><trkpt lat="42.2636367" lon="2.97731"><ele>20.200000000000003</ele><time>2026-04-08T16:04:34.918Z</time></trkpt><trkpt lat="42.26353" lon="2.977315"><ele>20.6</ele><time>2026-04-08T16:04:35.918Z</time></trkpt><trkpt lat="42.26342" lon="2.9773183"><ele>21.0</ele><time>2026-04-08T16:04:36.918Z</time></trkpt><trkpt lat="42.26331" lon="2.9773167"><ele>21.0</ele><time>2026-04-08T16:04:37.918Z</time></trkpt><trkpt lat="42.2632017" lon="2.9773117"><ele>21.0</ele><time>2026-04-08T16:04:38.917Z</time></trkpt><trkpt lat="42.2630917" lon="2.9773017"><ele>21.0</ele><time>2026-04-08T16:04:39.918Z</time></trkpt><trkpt lat="42.2629817" lon="2.97728"><ele>21.0</ele><time>2026-04-08T16:04:40.918Z</time></trkpt><trkpt lat="42.2628717" lon="2.9772567"><ele>21.0</ele><time>2026-04-08T16:04:41.918Z</time></trkpt><trkpt lat="42.2627617" lon="2.97722"><ele>21.25</ele><time>2026-04-08T16:04:42.918Z</time></trkpt><trkpt lat="42.2626533" lon="2.97718"><ele>21.5</ele><time>2026-04-08T16:04:43.918Z</time></trkpt><trkpt lat="42.2625483" lon="2.9771283"><ele>21.75</ele><time>2026-04-08T16:04:44.918Z</time></trkpt><trkpt lat="42.2624433" lon="2.9770633"><ele>22.0</ele><time>2026-04-08T16:04:45.918Z</time></trkpt><trkpt lat="42.2623433" lon="2.976995"><ele>22.25</ele><time>2026-04-08T16:04:46.918Z</time></trkpt><trkpt lat="42.2622467" lon="2.9769167"><ele>22.5</ele><time>2026-04-08T16:04:47.918Z</time></trkpt><trkpt lat="42.2621533" lon="2.97683"><ele>22.75</ele><time>2026-04-08T16:04:48.918Z</time></trkpt><trkpt lat="42.2620633" lon="2.9767283"><ele>23.0</ele><time>2026-04-08T16:04:49.918Z</time></trkpt><trkpt lat="42.2619783" lon="2.97663"><ele>22.666666666666668</ele><time>2026-04-08T16:04:50.917Z</time></trkpt><trkpt lat="42.2619" lon="2.9765283"><ele>22.333333333333336</ele><time>2026-04-08T16:04:51.918Z</time></trkpt><trkpt lat="42.2618333" lon="2.9764367"><ele>22.0</ele><time>2026-04-08T16:04:52.918Z</time></trkpt><trkpt lat="42.2617833" lon="2.97636"><ele>21.666666666666668</ele><time>2026-04-08T16:04:53.918Z</time></trkpt><trkpt lat="42.2617467" lon="2.97629"><ele>21.333333333333332</ele><time>2026-04-08T16:04:54.918Z</time></trkpt><trkpt lat="42.261695" lon="2.97617"><ele>21.0</ele><time>2026-04-08T16:04:56.917Z</time></trkpt><trkpt lat="42.261665" lon="2.976075"><ele>21.0</ele><time>2026-04-08T16:05:00.918Z</time></trkpt><trkpt lat="42.2616567" lon="2.9759367"><ele>21.0</ele><time>2026-04-08T16:05:02.917Z</time></trkpt><trkpt lat="42.2616333" lon="2.9757667"><ele>21.0</ele><time>2026-04-08T16:05:04.918Z</time></trkpt><trkpt lat="42.261595" lon="2.97568"><ele>21.0</ele><time>2026-04-08T16:05:05.918Z</time></trkpt><trkpt lat="42.2615417" lon="2.975615"><ele>21.0</ele><time>2026-04-08T16:05:06.918Z</time></trkpt><trkpt lat="42.261475" lon="2.9755783"><ele>21.0</ele><time>2026-04-08T16:05:07.918Z</time></trkpt><trkpt lat="42.2613983" lon="2.975565"><ele>21.0</ele><time>2026-04-08T16:05:08.917Z</time></trkpt><trkpt lat="42.2613217" lon="2.9755517"><ele>21.0</ele><time>2026-04-08T16:05:09.917Z</time></trkpt><trkpt lat="42.2612467" lon="2.9755183"><ele>21.0</ele><time>2026-04-08T16:05:10.918Z</time></trkpt><trkpt lat="42.2611833" lon="2.9754733"><ele>21.0</ele><time>2026-04-08T16:05:11.918Z</time></trkpt><trkpt lat="42.2611167" lon="2.9753867"><ele>21.0</ele><time>2026-04-08T16:05:13.918Z</time></trkpt><trkpt lat="42.2610683" lon="2.9753"><ele>21.0</ele><time>2026-04-08T16:05:16.918Z</time></trkpt><trkpt lat="42.2610067" lon="2.9751983"><ele>21.0</ele><time>2026-04-08T16:05:18.918Z</time></trkpt><trkpt lat="42.26096" lon="2.9751267"><ele>21.0</ele><time>2026-04-08T16:05:19.917Z</time></trkpt><trkpt lat="42.2609083" lon="2.97504"><ele>21.0</ele><time>2026-04-08T16:05:20.918Z</time></trkpt><trkpt lat="42.2608483" lon="2.9749433"><ele>21.0</ele><time>2026-04-08T16:05:21.918Z</time></trkpt><trkpt lat="42.2607817" lon="2.974835"><ele>21.0</ele><time>2026-04-08T16:05:22.918Z</time></trkpt><trkpt lat="42.2607117" lon="2.974725"><ele>20.8</ele><time>2026-04-08T16:05:23.917Z</time></trkpt><trkpt lat="42.2606383" lon="2.9746067"><ele>20.6</ele><time>2026-04-08T16:05:24.917Z</time></trkpt><trkpt lat="42.2605667" lon="2.9744933"><ele>20.4</ele><time>2026-04-08T16:05:25.918Z</time></trkpt><trkpt lat="42.2605" lon="2.974385"><ele>20.2</ele><time>2026-04-08T16:05:26.918Z</time></trkpt><trkpt lat="42.26043" lon="2.974275"><ele>20.0</ele><time>2026-04-08T16:05:27.917Z</time></trkpt><trkpt lat="42.2603633" lon="2.9741667"><ele>20.4</ele><time>2026-04-08T16:05:28.917Z</time></trkpt><trkpt lat="42.2602933" lon="2.9740583"><ele>20.8</ele><time>2026-04-08T16:05:29.918Z</time></trkpt><trkpt lat="42.260225" lon="2.9739467"><ele>21.200000000000003</ele><time>2026-04-08T16:05:30.918Z</time></trkpt><trkpt lat="42.2601583" lon="2.97384"><ele>21.6</ele><time>2026-04-08T16:05:31.917Z</time></trkpt><trkpt lat="42.2600933" lon="2.97373"><ele>22.0</ele><time>2026-04-08T16:05:32.918Z</time></trkpt><trkpt lat="42.26003" lon="2.9736183"><ele>22.0</ele><time>2026-04-08T16:05:33.918Z</time></trkpt><trkpt lat="42.2599717" lon="2.9735017"><ele>22.0</ele><time>2026-04-08T16:05:34.918Z</time></trkpt><trkpt lat="42.2599217" lon="2.9733817"><ele>22.0</ele><time>2026-04-08T16:05:35.918Z</time></trkpt><trkpt lat="42.2598717" lon="2.9732583"><ele>22.0</ele><time>2026-04-08T16:05:36.917Z</time></trkpt><trkpt lat="42.2598283" lon="2.9731317"><ele>22.0</ele><time>2026-04-08T16:05:37.918Z</time></trkpt><trkpt lat="42.2597917" lon="2.9730117"><ele>22.200000000000003</ele><time>2026-04-08T16:05:38.918Z</time></trkpt><trkpt lat="42.2597583" lon="2.9728967"><ele>22.4</ele><time>2026-04-08T16:05:39.918Z</time></trkpt><trkpt lat="42.259725" lon="2.9727833"><ele>22.6</ele><time>2026-04-08T16:05:40.918Z</time></trkpt><trkpt lat="42.259695" lon="2.972665"><ele>22.799999999999997</ele><time>2026-04-08T16:05:41.917Z</time></trkpt><trkpt lat="42.2596633" lon="2.9725417"><ele>23.0</ele><time>2026-04-08T16:05:42.918Z</time></trkpt><trkpt lat="42.2596317" lon="2.9724167"><ele>22.599999999999998</ele><time>2026-04-08T16:05:43.918Z</time></trkpt><trkpt lat="42.2595983" lon="2.9722883"><ele>22.2</ele><time>2026-04-08T16:05:44.918Z</time></trkpt><trkpt lat="42.259565" lon="2.9721667"><ele>21.8</ele><time>2026-04-08T16:05:45.917Z</time></trkpt><trkpt lat="42.2595367" lon="2.9720533"><ele>21.4</ele><time>2026-04-08T16:05:46.918Z</time></trkpt><trkpt lat="42.2595067" lon="2.97194"><ele>21.0</ele><time>2026-04-08T16:05:47.918Z</time></trkpt><trkpt lat="42.2594767" lon="2.97183"><ele>21.0</ele><time>2026-04-08T16:05:48.918Z</time></trkpt><trkpt lat="42.2594467" lon="2.971725"><ele>21.0</ele><time>2026-04-08T16:05:49.918Z</time></trkpt><trkpt lat="42.2594183" lon="2.9716233"><ele>21.0</ele><time>2026-04-08T16:05:50.918Z</time></trkpt><trkpt lat="42.2593917" lon="2.9715383"><ele>21.0</ele><time>2026-04-08T16:05:51.918Z</time></trkpt><trkpt lat="42.2593583" lon="2.9714367"><ele>21.0</ele><time>2026-04-08T16:05:54.918Z</time></trkpt><trkpt lat="42.2593233" lon="2.9713367"><ele>21.0</ele><time>2026-04-08T16:05:58.918Z</time></trkpt><trkpt lat="42.25929" lon="2.9712167"><ele>21.285714285714285</ele><time>2026-04-08T16:06:01.918Z</time></trkpt><trkpt lat="42.2592633" lon="2.9711383"><ele>21.57142857142857</ele><time>2026-04-08T16:06:03.917Z</time></trkpt><trkpt lat="42.2592383" lon="2.97106"><ele>21.857142857142858</ele><time>2026-04-08T16:06:06.918Z</time></trkpt><trkpt lat="42.2592133" lon="2.9709683"><ele>22.142857142857142</ele><time>2026-04-08T16:06:09.917Z</time></trkpt><trkpt lat="42.2591833" lon="2.9708633"><ele>22.428571428571427</ele><time>2026-04-08T16:06:12.918Z</time></trkpt><trkpt lat="42.2591517" lon="2.9707517"><ele>22.714285714285715</ele><time>2026-04-08T16:06:15.918Z</time></trkpt><trkpt lat="42.259125" lon="2.9706567"><ele>23.0</ele><time>2026-04-08T16:06:17.918Z</time></trkpt><trkpt lat="42.2590983" lon="2.9705567"><ele>23.0</ele><time>2026-04-08T16:06:20.918Z</time></trkpt><trkpt lat="42.2590767" lon="2.9704717"><ele>23.0</ele><time>2026-04-08T16:06:24.918Z</time></trkpt><trkpt lat="42.2590533" lon="2.9703917"><ele>23.0</ele><time>2026-04-08T16:06:27.917Z</time></trkpt><trkpt lat="42.25903" lon="2.9703033"><ele>23.0</ele><time>2026-04-08T16:06:33.917Z</time></trkpt><trkpt lat="42.2590017" lon="2.970205"><ele>23.0</ele><time>2026-04-08T16:06:48.919Z</time></trkpt><trkpt lat="42.25897" lon="2.9701167"><ele>23.0</ele><time>2026-04-08T16:06:51.919Z</time></trkpt><trkpt lat="42.2589417" lon="2.9700017"><ele>23.0</ele><time>2026-04-08T16:06:54.918Z</time></trkpt><trkpt lat="42.258925" lon="2.9699167"><ele>23.666666666666668</ele><time>2026-04-08T16:07:09.919Z</time></trkpt><trkpt lat="42.258905" lon="2.9698083"><ele>24.333333333333336</ele><time>2026-04-08T16:07:13.919Z</time></trkpt><trkpt lat="42.2588717" lon="2.9696533"><ele>25.0</ele><time>2026-04-08T16:07:18.918Z</time></trkpt><trkpt lat="42.2588567" lon="2.9695683"><ele>25.666666666666668</ele><time>2026-04-08T16:07:21.918Z</time></trkpt><trkpt lat="42.2588317" lon="2.9694483"><ele>26.333333333333332</ele><time>2026-04-08T16:07:25.918Z</time></trkpt><trkpt lat="42.2588117" lon="2.9693617"><ele>27.0</ele><time>2026-04-08T16:07:27.919Z</time></trkpt><trkpt lat="42.258805" lon="2.9692633"><ele>27.5</ele><time>2026-04-08T16:07:30.919Z</time></trkpt><trkpt lat="42.2587717" lon="2.969155"><ele>28.0</ele><time>2026-04-08T16:07:32.919Z</time></trkpt><trkpt lat="42.25874" lon="2.96903"><ele>28.5</ele><time>2026-04-08T16:07:34.919Z</time></trkpt><trkpt lat="42.25871" lon="2.9689533"><ele>29.0</ele><time>2026-04-08T16:07:35.919Z</time></trkpt><trkpt lat="42.2586717" lon="2.9688567"><ele>29.5</ele><time>2026-04-08T16:07:37.918Z</time></trkpt><trkpt lat="42.2586267" lon="2.9687817"><ele>30.0</ele><time>2026-04-08T16:07:41.919Z</time></trkpt><trkpt lat="42.2585817" lon="2.9686883"><ele>30.0</ele><time>2026-04-08T16:07:44.919Z</time></trkpt><trkpt lat="42.2585583" lon="2.9685817"><ele>30.0</ele><time>2026-04-08T16:07:47.919Z</time></trkpt><trkpt lat="42.258535" lon="2.9684933"><ele>30.0</ele><time>2026-04-08T16:07:50.918Z</time></trkpt><trkpt lat="42.258515" lon="2.9684017"><ele>30.0</ele><time>2026-04-08T16:07:53.919Z</time></trkpt><trkpt lat="42.2584933" lon="2.9683167"><ele>30.0</ele><time>2026-04-08T16:07:56.919Z</time></trkpt><trkpt lat="42.2584633" lon="2.9682217"><ele>30.0</ele><time>2026-04-08T16:08:13.919Z</time></trkpt><trkpt lat="42.2584433" lon="2.96814"><ele>30.0</ele><time>2026-04-08T16:08:17.919Z</time></trkpt><trkpt lat="42.2584317" lon="2.9680417"><ele>30.0</ele><time>2026-04-08T16:08:21.919Z</time></trkpt><trkpt lat="42.25844" lon="2.96791"><ele>30.0</ele><time>2026-04-08T16:08:27.919Z</time></trkpt><trkpt lat="42.2584533" lon="2.9677833"><ele>30.0</ele><time>2026-04-08T16:08:29.919Z</time></trkpt><trkpt lat="42.2584517" lon="2.9676783"><ele>30.0</ele><time>2026-04-08T16:08:31.919Z</time></trkpt><trkpt lat="42.2584283" lon="2.967575"><ele>30.0</ele><time>2026-04-08T16:08:34.918Z</time></trkpt><trkpt lat="42.2583783" lon="2.9675217"><ele>30.0</ele><time>2026-04-08T16:09:06.919Z</time></trkpt><trkpt lat="42.2583033" lon="2.9675167"><ele>30.0</ele><time>2026-04-08T16:09:07.919Z</time></trkpt><trkpt lat="42.2582317" lon="2.967555"><ele>30.0</ele><time>2026-04-08T16:09:11.919Z</time></trkpt><trkpt lat="42.25817" lon="2.967585"><ele>30.0</ele><time>2026-04-08T16:09:14.919Z</time></trkpt><trkpt lat="42.25808" lon="2.9676167"><ele>30.0</ele><time>2026-04-08T16:09:18.918Z</time></trkpt><trkpt lat="42.258005" lon="2.96765"><ele>30.0</ele><time>2026-04-08T16:09:20.918Z</time></trkpt><trkpt lat="42.2579217" lon="2.967685"><ele>30.0</ele><time>2026-04-08T16:09:22.918Z</time></trkpt><trkpt lat="42.2578533" lon="2.9677233"><ele>30.0</ele><time>2026-04-08T16:09:24.917Z</time></trkpt><trkpt lat="42.25779" lon="2.96776"><ele>30.0</ele><time>2026-04-08T16:09:26.917Z</time></trkpt><trkpt lat="42.25772" lon="2.96778"><ele>30.0</ele><time>2026-04-08T16:09:28.918Z</time></trkpt><trkpt lat="42.2576483" lon="2.96781"><ele>30.0</ele><time>2026-04-08T16:09:30.918Z</time></trkpt><trkpt lat="42.2575667" lon="2.96784"><ele>30.0</ele><time>2026-04-08T16:09:32.918Z</time></trkpt><trkpt lat="42.257485" lon="2.9678833"><ele>30.0</ele><time>2026-04-08T16:09:44.918Z</time></trkpt><trkpt lat="42.2573983" lon="2.9679217"><ele>30.0</ele><time>2026-04-08T16:09:46.918Z</time></trkpt><trkpt lat="42.257335" lon="2.9679433"><ele>30.0</ele><time>2026-04-08T16:09:47.917Z</time></trkpt><trkpt lat="42.2572167" lon="2.96799"><ele>30.0</ele><time>2026-04-08T16:09:49.918Z</time></trkpt><trkpt lat="42.2571233" lon="2.9680433"><ele>30.0</ele><time>2026-04-08T16:09:51.918Z</time></trkpt><trkpt lat="42.2570633" lon="2.9680883"><ele>30.0</ele><time>2026-04-08T16:09:53.918Z</time></trkpt><trkpt lat="42.256975" lon="2.9681417"><ele>30.0</ele><time>2026-04-08T16:09:55.918Z</time></trkpt><trkpt lat="42.2568817" lon="2.9681983"><ele>30.0</ele><time>2026-04-08T16:09:57.918Z</time></trkpt><trkpt lat="42.25678" lon="2.9682583"><ele>30.0</ele><time>2026-04-08T16:09:59.917Z</time></trkpt><trkpt lat="42.2566567" lon="2.9683217"><ele>30.0</ele><time>2026-04-08T16:10:01.918Z</time></trkpt><trkpt lat="42.2565917" lon="2.9683567"><ele>30.0</ele><time>2026-04-08T16:10:02.918Z</time></trkpt><trkpt lat="42.2565117" lon="2.9684"><ele>29.5</ele><time>2026-04-08T16:10:03.918Z</time></trkpt><trkpt lat="42.256435" lon="2.9684417"><ele>29.0</ele><time>2026-04-08T16:10:04.918Z</time></trkpt><trkpt lat="42.25636" lon="2.9684833"><ele>28.5</ele><time>2026-04-08T16:10:05.918Z</time></trkpt><trkpt lat="42.2562883" lon="2.9685167"><ele>28.0</ele><time>2026-04-08T16:10:06.918Z</time></trkpt><trkpt lat="42.256225" lon="2.9685517"><ele>27.5</ele><time>2026-04-08T16:10:07.918Z</time></trkpt><trkpt lat="42.2561117" lon="2.968615"><ele>27.0</ele><time>2026-04-08T16:10:09.917Z</time></trkpt><trkpt lat="42.2559983" lon="2.9686483"><ele>27.0</ele><time>2026-04-08T16:10:11.918Z</time></trkpt><trkpt lat="42.2559133" lon="2.9686333"><ele>27.000000000000004</ele><time>2026-04-08T16:10:13.917Z</time></trkpt><trkpt lat="42.25583" lon="2.968555"><ele>27.000000000000004</ele><time>2026-04-08T16:10:15.918Z</time></trkpt><trkpt lat="42.25579" lon="2.96848"><ele>27.0</ele><time>2026-04-08T16:10:16.918Z</time></trkpt><trkpt lat="42.255685" lon="2.968375"><ele>27.0</ele><time>2026-04-08T16:10:18.918Z</time></trkpt><trkpt lat="42.2556133" lon="2.968385"><ele>26.833333333333332</ele><time>2026-04-08T16:10:19.918Z</time></trkpt><trkpt lat="42.2555433" lon="2.9684233"><ele>26.666666666666664</ele><time>2026-04-08T16:10:20.918Z</time></trkpt><trkpt lat="42.25549" lon="2.9684883"><ele>26.5</ele><time>2026-04-08T16:10:21.917Z</time></trkpt><trkpt lat="42.2554517" lon="2.9685817"><ele>26.333333333333332</ele><time>2026-04-08T16:10:22.918Z</time></trkpt><trkpt lat="42.255425" lon="2.9686933"><ele>26.166666666666664</ele><time>2026-04-08T16:10:23.918Z</time></trkpt><trkpt lat="42.25539" lon="2.9688033"><ele>26.0</ele><time>2026-04-08T16:10:24.918Z</time></trkpt><trkpt lat="42.2553367" lon="2.9688983"><ele>26.0</ele><time>2026-04-08T16:10:25.917Z</time></trkpt><trkpt lat="42.2552717" lon="2.9689867"><ele>26.0</ele><time>2026-04-08T16:10:26.918Z</time></trkpt><trkpt lat="42.2551883" lon="2.9690667"><ele>26.0</ele><time>2026-04-08T16:10:27.918Z</time></trkpt><trkpt lat="42.2550917" lon="2.9691367"><ele>26.0</ele><time>2026-04-08T16:10:28.918Z</time></trkpt><trkpt lat="42.25498" lon="2.969205"><ele>26.0</ele><time>2026-04-08T16:10:29.918Z</time></trkpt><trkpt lat="42.25486" lon="2.969275"><ele>25.333333333333332</ele><time>2026-04-08T16:10:30.918Z</time></trkpt><trkpt lat="42.2547283" lon="2.9693517"><ele>24.666666666666664</ele><time>2026-04-08T16:10:31.918Z</time></trkpt><trkpt lat="42.2545867" lon="2.96943"><ele>24.0</ele><time>2026-04-08T16:10:32.917Z</time></trkpt><trkpt lat="42.2544383" lon="2.9695067"><ele>24.0</ele><time>2026-04-08T16:10:33.918Z</time></trkpt><trkpt lat="42.2542917" lon="2.9695867"><ele>24.0</ele><time>2026-04-08T16:10:34.917Z</time></trkpt><trkpt lat="42.2541333" lon="2.9696733"><ele>24.0</ele><time>2026-04-08T16:10:35.918Z</time></trkpt><trkpt lat="42.2539733" lon="2.9697567"><ele>25.0</ele><time>2026-04-08T16:10:36.918Z</time></trkpt><trkpt lat="42.25381" lon="2.9698467"><ele>26.0</ele><time>2026-04-08T16:10:37.917Z</time></trkpt><trkpt lat="42.2533167" lon="2.970115"><ele>26.333333333333332</ele><time>2026-04-08T16:10:40.918Z</time></trkpt><trkpt lat="42.2531583" lon="2.9702033"><ele>26.666666666666664</ele><time>2026-04-08T16:10:41.918Z</time></trkpt><trkpt lat="42.2530017" lon="2.9702883"><ele>27.0</ele><time>2026-04-08T16:10:42.918Z</time></trkpt><trkpt lat="42.25285" lon="2.9703717"><ele>27.0</ele><time>2026-04-08T16:10:43.918Z</time></trkpt><trkpt lat="42.2523983" lon="2.9706183"><ele>26.666666666666664</ele><time>2026-04-08T16:10:46.918Z</time></trkpt><trkpt lat="42.25225" lon="2.9706933"><ele>26.333333333333332</ele><time>2026-04-08T16:10:47.917Z</time></trkpt><trkpt lat="42.2521067" lon="2.970775"><ele>26.0</ele><time>2026-04-08T16:10:48.917Z</time></trkpt><trkpt lat="42.2519617" lon="2.9708533"><ele>26.666666666666664</ele><time>2026-04-08T16:10:49.918Z</time></trkpt><trkpt lat="42.2518183" lon="2.9709267"><ele>27.333333333333336</ele><time>2026-04-08T16:10:50.918Z</time></trkpt><trkpt lat="42.251675" lon="2.9709933"><ele>28.0</ele><time>2026-04-08T16:10:51.918Z</time></trkpt><trkpt lat="42.25153" lon="2.97105"><ele>27.25</ele><time>2026-04-08T16:10:52.918Z</time></trkpt><trkpt lat="42.2513883" lon="2.9710967"><ele>26.5</ele><time>2026-04-08T16:10:53.918Z</time></trkpt><trkpt lat="42.2512533" lon="2.971135"><ele>25.75</ele><time>2026-04-08T16:10:54.918Z</time></trkpt><trkpt lat="42.2511283" lon="2.9711667"><ele>25.0</ele><time>2026-04-08T16:10:55.918Z</time></trkpt><trkpt lat="42.2510183" lon="2.9711917"><ele>25.000000000000004</ele><time>2026-04-08T16:10:56.918Z</time></trkpt><trkpt lat="42.2509267" lon="2.97121"><ele>25.0</ele><time>2026-04-08T16:10:57.918Z</time></trkpt><trkpt lat="42.2508483" lon="2.9712183"><ele>25.0</ele><time>2026-04-08T16:10:58.917Z</time></trkpt><trkpt lat="42.25078" lon="2.9712167"><ele>25.0</ele><time>2026-04-08T16:10:59.917Z</time></trkpt><trkpt lat="42.2507167" lon="2.9711983"><ele>25.000000000000004</ele><time>2026-04-08T16:11:00.918Z</time></trkpt><trkpt lat="42.2506" lon="2.9711067"><ele>25.0</ele><time>2026-04-08T16:11:02.918Z</time></trkpt><trkpt lat="42.2505417" lon="2.9710383"><ele>25.166666666666668</ele><time>2026-04-08T16:11:03.918Z</time></trkpt><trkpt lat="42.2504767" lon="2.9709817"><ele>25.333333333333336</ele><time>2026-04-08T16:11:04.918Z</time></trkpt><trkpt lat="42.2504133" lon="2.970975"><ele>25.5</ele><time>2026-04-08T16:11:05.918Z</time></trkpt><trkpt lat="42.250305" lon="2.971075"><ele>25.666666666666664</ele><time>2026-04-08T16:11:07.918Z</time></trkpt><trkpt lat="42.2502583" lon="2.9711583"><ele>25.833333333333332</ele><time>2026-04-08T16:11:08.917Z</time></trkpt><trkpt lat="42.2502" lon="2.9712433"><ele>26.0</ele><time>2026-04-08T16:11:09.917Z</time></trkpt><trkpt lat="42.25013" lon="2.9713183"><ele>26.0</ele><time>2026-04-08T16:11:10.918Z</time></trkpt><trkpt lat="42.250045" lon="2.9713917"><ele>26.0</ele><time>2026-04-08T16:11:11.918Z</time></trkpt><trkpt lat="42.249945" lon="2.971445"><ele>26.0</ele><time>2026-04-08T16:11:12.917Z</time></trkpt><trkpt lat="42.2498267" lon="2.971485"><ele>26.0</ele><time>2026-04-08T16:11:13.918Z</time></trkpt><trkpt lat="42.2497" lon="2.9715167"><ele>26.25</ele><time>2026-04-08T16:11:14.918Z</time></trkpt><trkpt lat="42.2495633" lon="2.9715533"><ele>26.5</ele><time>2026-04-08T16:11:15.918Z</time></trkpt><trkpt lat="42.24943" lon="2.97159"><ele>26.75</ele><time>2026-04-08T16:11:16.918Z</time></trkpt><trkpt lat="42.2492883" lon="2.9716267"><ele>27.0</ele><time>2026-04-08T16:11:17.918Z</time></trkpt><trkpt lat="42.2491467" lon="2.97166"><ele>27.0</ele><time>2026-04-08T16:11:18.918Z</time></trkpt><trkpt lat="42.2489967" lon="2.9716983"><ele>27.0</ele><time>2026-04-08T16:11:19.918Z</time></trkpt><trkpt lat="42.248845" lon="2.971735"><ele>27.0</ele><time>2026-04-08T16:11:20.918Z</time></trkpt><trkpt lat="42.2486967" lon="2.9717733"><ele>27.0</ele><time>2026-04-08T16:11:21.918Z</time></trkpt><trkpt lat="42.2485533" lon="2.9718083"><ele>27.0</ele><time>2026-04-08T16:11:22.917Z</time></trkpt><trkpt lat="42.24841" lon="2.9718433"><ele>27.0</ele><time>2026-04-08T16:11:23.918Z</time></trkpt><trkpt lat="42.2482667" lon="2.9718783"><ele>27.0</ele><time>2026-04-08T16:11:24.918Z</time></trkpt><trkpt lat="42.2481233" lon="2.97191"><ele>26.75</ele><time>2026-04-08T16:11:25.918Z</time></trkpt><trkpt lat="42.2479767" lon="2.9719383"><ele>26.5</ele><time>2026-04-08T16:11:26.918Z</time></trkpt><trkpt lat="42.2478317" lon="2.9719633"><ele>26.25</ele><time>2026-04-08T16:11:27.917Z</time></trkpt><trkpt lat="42.2476883" lon="2.971985"><ele>26.0</ele><time>2026-04-08T16:11:28.918Z</time></trkpt><trkpt lat="42.2475467" lon="2.9720033"><ele>26.0</ele><time>2026-04-08T16:11:29.918Z</time></trkpt><trkpt lat="42.2474017" lon="2.9720217"><ele>26.0</ele><time>2026-04-08T16:11:30.918Z</time></trkpt><trkpt lat="42.2472583" lon="2.97204"><ele>26.0</ele><time>2026-04-08T16:11:31.917Z</time></trkpt><trkpt lat="42.2471117" lon="2.9720567"><ele>26.0</ele><time>2026-04-08T16:11:32.918Z</time></trkpt><trkpt lat="42.2469667" lon="2.9720733"><ele>26.75</ele><time>2026-04-08T16:11:33.918Z</time></trkpt><trkpt lat="42.2468233" lon="2.97209"><ele>27.5</ele><time>2026-04-08T16:11:34.918Z</time></trkpt><trkpt lat="42.246675" lon="2.9721083"><ele>28.25</ele><time>2026-04-08T16:11:35.917Z</time></trkpt><trkpt lat="42.246525" lon="2.9721217"><ele>29.0</ele><time>2026-04-08T16:11:36.918Z</time></trkpt><trkpt lat="42.24638" lon="2.9721233"><ele>29.25</ele><time>2026-04-08T16:11:37.917Z</time></trkpt><trkpt lat="42.2462367" lon="2.972115"><ele>29.5</ele><time>2026-04-08T16:11:38.917Z</time></trkpt><trkpt lat="42.246095" lon="2.9720967"><ele>29.75</ele><time>2026-04-08T16:11:39.918Z</time></trkpt><trkpt lat="42.2459533" lon="2.9720633"><ele>30.0</ele><time>2026-04-08T16:11:40.918Z</time></trkpt><trkpt lat="42.2458133" lon="2.9720267"><ele>30.0</ele><time>2026-04-08T16:11:41.918Z</time></trkpt><trkpt lat="42.2456733" lon="2.9719917"><ele>30.0</ele><time>2026-04-08T16:11:42.917Z</time></trkpt><trkpt lat="42.2455333" lon="2.971955"><ele>30.0</ele><time>2026-04-08T16:11:43.918Z</time></trkpt><trkpt lat="42.2453933" lon="2.971915"><ele>30.0</ele><time>2026-04-08T16:11:44.918Z</time></trkpt><trkpt lat="42.2452533" lon="2.971875"><ele>30.0</ele><time>2026-04-08T16:11:45.918Z</time></trkpt><trkpt lat="42.2451083" lon="2.971835"><ele>30.0</ele><time>2026-04-08T16:11:46.918Z</time></trkpt><trkpt lat="42.24497" lon="2.9717917"><ele>30.0</ele><time>2026-04-08T16:11:47.918Z</time></trkpt><trkpt lat="42.2448317" lon="2.9717483"><ele>30.0</ele><time>2026-04-08T16:11:48.918Z</time></trkpt><trkpt lat="42.244695" lon="2.9717083"><ele>30.0</ele><time>2026-04-08T16:11:49.918Z</time></trkpt><trkpt lat="42.2445583" lon="2.97167"><ele>30.0</ele><time>2026-04-08T16:11:50.918Z</time></trkpt><trkpt lat="42.2444267" lon="2.97163"><ele>30.0</ele><time>2026-04-08T16:11:51.918Z</time></trkpt><trkpt lat="42.2442967" lon="2.97159"><ele>30.0</ele><time>2026-04-08T16:11:52.917Z</time></trkpt><trkpt lat="42.2438983" lon="2.9714617"><ele>30.0</ele><time>2026-04-08T16:11:55.918Z</time></trkpt><trkpt lat="42.2437717" lon="2.97142"><ele>30.0</ele><time>2026-04-08T16:11:56.918Z</time></trkpt><trkpt lat="42.2436617" lon="2.9713817"><ele>30.0</ele><time>2026-04-08T16:11:57.918Z</time></trkpt><trkpt lat="42.2435583" lon="2.9713417"><ele>30.0</ele><time>2026-04-08T16:11:58.918Z</time></trkpt><trkpt lat="42.2433083" lon="2.9711783"><ele>30.0</ele><time>2026-04-08T16:12:01.918Z</time></trkpt><trkpt lat="42.2432283" lon="2.9710967"><ele>30.0</ele><time>2026-04-08T16:12:03.918Z</time></trkpt><trkpt lat="42.24311" lon="2.9709317"><ele>30.0</ele><time>2026-04-08T16:12:07.918Z</time></trkpt><trkpt lat="42.2430583" lon="2.970875"><ele>30.0</ele><time>2026-04-08T16:12:08.918Z</time></trkpt><trkpt lat="42.2429433" lon="2.97084"><ele>29.75</ele><time>2026-04-08T16:12:10.917Z</time></trkpt><trkpt lat="42.2427283" lon="2.970945"><ele>29.5</ele><time>2026-04-08T16:12:13.917Z</time></trkpt><trkpt lat="42.242635" lon="2.970965"><ele>29.25</ele><time>2026-04-08T16:12:14.918Z</time></trkpt><trkpt lat="42.2425433" lon="2.9709633"><ele>29.0</ele><time>2026-04-08T16:12:15.918Z</time></trkpt><trkpt lat="42.2424517" lon="2.970945"><ele>29.0</ele><time>2026-04-08T16:12:16.918Z</time></trkpt><trkpt lat="42.2423483" lon="2.9709267"><ele>29.0</ele><time>2026-04-08T16:12:17.918Z</time></trkpt><trkpt lat="42.2422383" lon="2.9708983"><ele>29.0</ele><time>2026-04-08T16:12:18.918Z</time></trkpt><trkpt lat="42.242115" lon="2.9708717"><ele>29.0</ele><time>2026-04-08T16:12:19.918Z</time></trkpt><trkpt lat="42.24198" lon="2.9708483"><ele>30.333333333333332</ele><time>2026-04-08T16:12:20.918Z</time></trkpt><trkpt lat="42.2418317" lon="2.97083"><ele>31.666666666666664</ele><time>2026-04-08T16:12:21.917Z</time></trkpt><trkpt lat="42.241675" lon="2.97082"><ele>33.0</ele><time>2026-04-08T16:12:22.918Z</time></trkpt><trkpt lat="42.2415183" lon="2.9708167"><ele>33.0</ele><time>2026-04-08T16:12:23.917Z</time></trkpt><trkpt lat="42.24136" lon="2.9708167"><ele>33.0</ele><time>2026-04-08T16:12:24.918Z</time></trkpt><trkpt lat="42.2412033" lon="2.9708217"><ele>33.0</ele><time>2026-04-08T16:12:25.917Z</time></trkpt><trkpt lat="42.2410467" lon="2.97082"><ele>33.0</ele><time>2026-04-08T16:12:26.917Z</time></trkpt><trkpt lat="42.2408917" lon="2.9708167"><ele>33.0</ele><time>2026-04-08T16:12:27.917Z</time></trkpt><trkpt lat="42.24074" lon="2.9707983"><ele>33.0</ele><time>2026-04-08T16:12:28.918Z</time></trkpt><trkpt lat="42.24033" lon="2.9706517"><ele>32.75</ele><time>2026-04-08T16:12:31.918Z</time></trkpt><trkpt lat="42.240205" lon="2.9706"><ele>32.5</ele><time>2026-04-08T16:12:32.918Z</time></trkpt><trkpt lat="42.2400817" lon="2.9705433"><ele>32.25</ele><time>2026-04-08T16:12:33.918Z</time></trkpt><trkpt lat="42.2399583" lon="2.9704883"><ele>32.0</ele><time>2026-04-08T16:12:34.918Z</time></trkpt><trkpt lat="42.239725" lon="2.9703767"><ele>32.0</ele><time>2026-04-08T16:12:36.917Z</time></trkpt><trkpt lat="42.2396133" lon="2.9703217"><ele>32.0</ele><time>2026-04-08T16:12:37.918Z</time></trkpt><trkpt lat="42.2395033" lon="2.97027"><ele>32.0</ele><time>2026-04-08T16:12:38.919Z</time></trkpt><trkpt lat="42.2393983" lon="2.97022"><ele>32.0</ele><time>2026-04-08T16:12:39.919Z</time></trkpt><trkpt lat="42.2393" lon="2.9701717"><ele>32.0</ele><time>2026-04-08T16:12:40.919Z</time></trkpt><trkpt lat="42.2391083" lon="2.970085"><ele>32.0</ele><time>2026-04-08T16:12:42.919Z</time></trkpt><trkpt lat="42.2390283" lon="2.9700467"><ele>32.0</ele><time>2026-04-08T16:12:43.919Z</time></trkpt><trkpt lat="42.2389517" lon="2.9700083"><ele>32.0</ele><time>2026-04-08T16:12:44.919Z</time></trkpt><trkpt lat="42.2388817" lon="2.9699633"><ele>32.0</ele><time>2026-04-08T16:12:45.919Z</time></trkpt><trkpt lat="42.2388217" lon="2.9699"><ele>32.0</ele><time>2026-04-08T16:12:46.919Z</time></trkpt><trkpt lat="42.2387583" lon="2.9698317"><ele>32.0</ele><time>2026-04-08T16:12:47.918Z</time></trkpt><trkpt lat="42.2386817" lon="2.9697717"><ele>32.0</ele><time>2026-04-08T16:12:48.919Z</time></trkpt><trkpt lat="42.2385917" lon="2.9697167"><ele>32.0</ele><time>2026-04-08T16:12:49.919Z</time></trkpt><trkpt lat="42.2385017" lon="2.9696617"><ele>32.0</ele><time>2026-04-08T16:12:50.919Z</time></trkpt><trkpt lat="42.238415" lon="2.9695817"><ele>32.0</ele><time>2026-04-08T16:12:51.919Z</time></trkpt><trkpt lat="42.238325" lon="2.969485"><ele>32.0</ele><time>2026-04-08T16:12:52.919Z</time></trkpt><trkpt lat="42.2381417" lon="2.9692783"><ele>32.0</ele><time>2026-04-08T16:12:54.918Z</time></trkpt><trkpt lat="42.2380467" lon="2.9691633"><ele>31.75</ele><time>2026-04-08T16:12:55.919Z</time></trkpt><trkpt lat="42.2379483" lon="2.9690433"><ele>31.5</ele><time>2026-04-08T16:12:56.919Z</time></trkpt><trkpt lat="42.2378483" lon="2.9689233"><ele>31.25</ele><time>2026-04-08T16:12:57.919Z</time></trkpt><trkpt lat="42.2377583" lon="2.9688067"><ele>31.0</ele><time>2026-04-08T16:12:58.918Z</time></trkpt><trkpt lat="42.2374867" lon="2.9684767"><ele>31.0</ele><time>2026-04-08T16:13:01.919Z</time></trkpt><trkpt lat="42.2374" lon="2.9683667"><ele>31.0</ele><time>2026-04-08T16:13:02.919Z</time></trkpt><trkpt lat="42.23731" lon="2.96826"><ele>31.0</ele><time>2026-04-08T16:13:03.919Z</time></trkpt><trkpt lat="42.237225" lon="2.9681533"><ele>31.0</ele><time>2026-04-08T16:13:04.919Z</time></trkpt><trkpt lat="42.2371433" lon="2.9680583"><ele>31.500000000000004</ele><time>2026-04-08T16:13:05.919Z</time></trkpt><trkpt lat="42.2370733" lon="2.96798"><ele>32.0</ele><time>2026-04-08T16:13:06.918Z</time></trkpt><trkpt lat="42.237015" lon="2.967915"><ele>32.5</ele><time>2026-04-08T16:13:07.919Z</time></trkpt><trkpt lat="42.236935" lon="2.967825"><ele>33.0</ele><time>2026-04-08T16:13:09.919Z</time></trkpt><trkpt lat="42.2368817" lon="2.967775"><ele>33.5</ele><time>2026-04-08T16:13:11.919Z</time></trkpt><trkpt lat="42.2368283" lon="2.9677233"><ele>34.0</ele><time>2026-04-08T16:13:14.919Z</time></trkpt><trkpt lat="42.2367733" lon="2.967665"><ele>34.0</ele><time>2026-04-08T16:13:17.919Z</time></trkpt><trkpt lat="42.23671" lon="2.9675817"><ele>34.0</ele><time>2026-04-08T16:13:19.919Z</time></trkpt><trkpt lat="42.2366683" lon="2.9675117"><ele>34.0</ele><time>2026-04-08T16:13:20.919Z</time></trkpt><trkpt lat="42.2366083" lon="2.9674367"><ele>34.0</ele><time>2026-04-08T16:13:21.918Z</time></trkpt><trkpt lat="42.23654" lon="2.9673567"><ele>34.0</ele><time>2026-04-08T16:13:22.919Z</time></trkpt><trkpt lat="42.2363683" lon="2.9670217"><ele>33.75</ele><time>2026-04-08T16:13:25.919Z</time></trkpt><trkpt lat="42.236305" lon="2.9668967"><ele>33.5</ele><time>2026-04-08T16:13:26.918Z</time></trkpt><trkpt lat="42.23623" lon="2.966775"><ele>33.25</ele><time>2026-04-08T16:13:27.919Z</time></trkpt><trkpt lat="42.2361467" lon="2.9666533"><ele>33.0</ele><time>2026-04-08T16:13:28.919Z</time></trkpt><trkpt lat="42.236065" lon="2.966535"><ele>33.0</ele><time>2026-04-08T16:13:29.919Z</time></trkpt><trkpt lat="42.2359783" lon="2.9664083"><ele>33.0</ele><time>2026-04-08T16:13:30.918Z</time></trkpt><trkpt lat="42.2358917" lon="2.966275"><ele>33.0</ele><time>2026-04-08T16:13:31.918Z</time></trkpt><trkpt lat="42.2358117" lon="2.9661383"><ele>33.0</ele><time>2026-04-08T16:13:32.919Z</time></trkpt><trkpt lat="42.2357217" lon="2.9660067"><ele>33.5</ele><time>2026-04-08T16:13:33.919Z</time></trkpt><trkpt lat="42.2356317" lon="2.96587"><ele>34.0</ele><time>2026-04-08T16:13:34.919Z</time></trkpt><trkpt lat="42.2355417" lon="2.965735"><ele>34.5</ele><time>2026-04-08T16:13:35.919Z</time></trkpt><trkpt lat="42.2354567" lon="2.9656017"><ele>35.0</ele><time>2026-04-08T16:13:36.918Z</time></trkpt><trkpt lat="42.2353683" lon="2.9654733"><ele>35.5</ele><time>2026-04-08T16:13:37.919Z</time></trkpt><trkpt lat="42.23528" lon="2.9653433"><ele>36.0</ele><time>2026-04-08T16:13:38.919Z</time></trkpt><trkpt lat="42.2351917" lon="2.9652133"><ele>36.5</ele><time>2026-04-08T16:13:39.919Z</time></trkpt><trkpt lat="42.2351033" lon="2.965085"><ele>37.0</ele><time>2026-04-08T16:13:40.919Z</time></trkpt><trkpt lat="42.2350183" lon="2.964955"><ele>37.0</ele><time>2026-04-08T16:13:41.919Z</time></trkpt><trkpt lat="42.2349333" lon="2.964825"><ele>37.0</ele><time>2026-04-08T16:13:42.919Z</time></trkpt><trkpt lat="42.234845" lon="2.964695"><ele>37.0</ele><time>2026-04-08T16:13:43.919Z</time></trkpt><trkpt lat="42.234765" lon="2.96457"><ele>37.0</ele><time>2026-04-08T16:13:44.919Z</time></trkpt><trkpt lat="42.2347017" lon="2.9644667"><ele>37.0</ele><time>2026-04-08T16:13:45.919Z</time></trkpt><trkpt lat="42.2346383" lon="2.9643683"><ele>37.0</ele><time>2026-04-08T16:13:46.919Z</time></trkpt><trkpt lat="42.2345733" lon="2.9642717"><ele>37.0</ele><time>2026-04-08T16:13:47.919Z</time></trkpt><trkpt lat="42.2345067" lon="2.9641683"><ele>37.0</ele><time>2026-04-08T16:13:48.919Z</time></trkpt><trkpt lat="42.234435" lon="2.9640633"><ele>37.0</ele><time>2026-04-08T16:13:49.919Z</time></trkpt><trkpt lat="42.23436" lon="2.9639517"><ele>37.0</ele><time>2026-04-08T16:13:50.919Z</time></trkpt><trkpt lat="42.2342833" lon="2.963835"><ele>37.0</ele><time>2026-04-08T16:13:51.919Z</time></trkpt><trkpt lat="42.2342033" lon="2.963715"><ele>37.0</ele><time>2026-04-08T16:13:52.919Z</time></trkpt><trkpt lat="42.2341217" lon="2.9635933"><ele>37.0</ele><time>2026-04-08T16:13:53.918Z</time></trkpt><trkpt lat="42.2340367" lon="2.963465"><ele>37.0</ele><time>2026-04-08T16:13:54.919Z</time></trkpt><trkpt lat="42.2339533" lon="2.9633317"><ele>37.0</ele><time>2026-04-08T16:13:55.918Z</time></trkpt><trkpt lat="42.233865" lon="2.9631967"><ele>37.0</ele><time>2026-04-08T16:13:56.919Z</time></trkpt><trkpt lat="42.233775" lon="2.9630583"><ele>37.0</ele><time>2026-04-08T16:13:57.919Z</time></trkpt><trkpt lat="42.2336817" lon="2.96292"><ele>37.0</ele><time>2026-04-08T16:13:58.919Z</time></trkpt><trkpt lat="42.2335833" lon="2.9627767"><ele>37.0</ele><time>2026-04-08T16:13:59.919Z</time></trkpt><trkpt lat="42.2334817" lon="2.96263"><ele>37.0</ele><time>2026-04-08T16:14:00.918Z</time></trkpt><trkpt lat="42.2333767" lon="2.9624783"><ele>37.0</ele><time>2026-04-08T16:14:01.919Z</time></trkpt><trkpt lat="42.233275" lon="2.9623267"><ele>37.66666666666667</ele><time>2026-04-08T16:14:02.919Z</time></trkpt><trkpt lat="42.2331717" lon="2.9621717"><ele>38.333333333333336</ele><time>2026-04-08T16:14:03.919Z</time></trkpt><trkpt lat="42.2330667" lon="2.9620117"><ele>39.0</ele><time>2026-04-08T16:14:04.918Z</time></trkpt><trkpt lat="42.2329583" lon="2.9618483"><ele>39.333333333333336</ele><time>2026-04-08T16:14:05.918Z</time></trkpt><trkpt lat="42.2328467" lon="2.9616833"><ele>39.66666666666667</ele><time>2026-04-08T16:14:06.919Z</time></trkpt><trkpt lat="42.2327333" lon="2.9615183"><ele>40.0</ele><time>2026-04-08T16:14:07.919Z</time></trkpt><trkpt lat="42.2326283" lon="2.9613517"><ele>40.0</ele><time>2026-04-08T16:14:08.919Z</time></trkpt><trkpt lat="42.2325183" lon="2.96119"><ele>40.0</ele><time>2026-04-08T16:14:09.919Z</time></trkpt><trkpt lat="42.2324083" lon="2.9610267"><ele>40.0</ele><time>2026-04-08T16:14:10.919Z</time></trkpt><trkpt lat="42.2323083" lon="2.9608633"><ele>39.66666666666667</ele><time>2026-04-08T16:14:11.919Z</time></trkpt><trkpt lat="42.2322067" lon="2.96071"><ele>39.333333333333336</ele><time>2026-04-08T16:14:12.919Z</time></trkpt><trkpt lat="42.2321067" lon="2.9605583"><ele>39.0</ele><time>2026-04-08T16:14:13.919Z</time></trkpt><trkpt lat="42.23201" lon="2.9604083"><ele>39.0</ele><time>2026-04-08T16:14:14.918Z</time></trkpt><trkpt lat="42.2319117" lon="2.9602617"><ele>39.0</ele><time>2026-04-08T16:14:15.919Z</time></trkpt><trkpt lat="42.2318133" lon="2.960115"><ele>39.0</ele><time>2026-04-08T16:14:16.919Z</time></trkpt><trkpt lat="42.2317133" lon="2.9599683"><ele>39.0</ele><time>2026-04-08T16:14:17.918Z</time></trkpt><trkpt lat="42.23161" lon="2.9598133"><ele>39.333333333333336</ele><time>2026-04-08T16:14:18.918Z</time></trkpt><trkpt lat="42.231505" lon="2.95965"><ele>39.66666666666667</ele><time>2026-04-08T16:14:19.919Z</time></trkpt><trkpt lat="42.2313917" lon="2.9594867"><ele>40.0</ele><time>2026-04-08T16:14:20.919Z</time></trkpt><trkpt lat="42.2312817" lon="2.95932"><ele>40.333333333333336</ele><time>2026-04-08T16:14:21.919Z</time></trkpt><trkpt lat="42.231175" lon="2.959155"><ele>40.666666666666664</ele><time>2026-04-08T16:14:22.919Z</time></trkpt><trkpt lat="42.23107" lon="2.9589933"><ele>41.0</ele><time>2026-04-08T16:14:23.919Z</time></trkpt><trkpt lat="42.2309683" lon="2.9588333"><ele>41.0</ele><time>2026-04-08T16:14:24.919Z</time></trkpt><trkpt lat="42.2308633" lon="2.9586833"><ele>41.0</ele><time>2026-04-08T16:14:25.919Z</time></trkpt><trkpt lat="42.23076" lon="2.9585417"><ele>41.0</ele><time>2026-04-08T16:14:26.919Z</time></trkpt><trkpt lat="42.2306617" lon="2.9584017"><ele>41.0</ele><time>2026-04-08T16:14:27.919Z</time></trkpt><trkpt lat="42.230575" lon="2.9582667"><ele>41.0</ele><time>2026-04-08T16:14:28.919Z</time></trkpt><trkpt lat="42.2305017" lon="2.9581533"><ele>41.0</ele><time>2026-04-08T16:14:29.919Z</time></trkpt><trkpt lat="42.2304517" lon="2.9580717"><ele>41.0</ele><time>2026-04-08T16:14:30.919Z</time></trkpt><trkpt lat="42.2303583" lon="2.9580367"><ele>41.0</ele><time>2026-04-08T16:14:32.919Z</time></trkpt><trkpt lat="42.2303017" lon="2.958135"><ele>41.0</ele><time>2026-04-08T16:14:34.919Z</time></trkpt><trkpt lat="42.2303483" lon="2.95824"><ele>41.0</ele><time>2026-04-08T16:14:36.918Z</time></trkpt><trkpt lat="42.2304483" lon="2.9583617"><ele>41.0</ele><time>2026-04-08T16:14:38.919Z</time></trkpt><trkpt lat="42.230505" lon="2.9584583"><ele>41.0</ele><time>2026-04-08T16:14:39.919Z</time></trkpt><trkpt lat="42.2305617" lon="2.9585617"><ele>41.0</ele><time>2026-04-08T16:14:40.919Z</time></trkpt><trkpt lat="42.2306233" lon="2.9586667"><ele>41.0</ele><time>2026-04-08T16:14:41.918Z</time></trkpt><trkpt lat="42.230685" lon="2.9587683"><ele>41.0</ele><time>2026-04-08T16:14:42.918Z</time></trkpt><trkpt lat="42.2307417" lon="2.9588583"><ele>41.0</ele><time>2026-04-08T16:14:43.919Z</time></trkpt><trkpt lat="42.2307883" lon="2.9589333"><ele>41.0</ele><time>2026-04-08T16:14:44.918Z</time></trkpt><trkpt lat="42.2308367" lon="2.9590517"><ele>41.0</ele><time>2026-04-08T16:14:46.919Z</time></trkpt><trkpt lat="42.23086" lon="2.959185"><ele>41.0</ele><time>2026-04-08T16:15:01.918Z</time></trkpt><trkpt lat="42.23092" lon="2.9592433"><ele>41.0</ele><time>2026-04-08T16:15:17.918Z</time></trkpt><trkpt lat="42.23086" lon="2.9591783"><ele>40.83333333333333</ele><time>2026-04-08T16:15:30.917Z</time></trkpt><trkpt lat="42.2309033" lon="2.9593483"><ele>40.666666666666664</ele><time>2026-04-08T16:17:27.918Z</time></trkpt><trkpt lat="42.23098" lon="2.9593667"><ele>40.5</ele><time>2026-04-08T16:18:23.917Z</time></trkpt><trkpt lat="42.2310167" lon="2.9594533"><ele>40.333333333333336</ele><time>2026-04-08T16:19:53.918Z</time></trkpt><trkpt lat="42.23101" lon="2.9595433"><ele>40.16666666666667</ele><time>2026-04-08T16:19:58.919Z</time></trkpt><trkpt lat="42.2309967" lon="2.95946"><ele>40.0</ele><time>2026-04-08T16:20:28.919Z</time></trkpt><trkpt lat="42.2310333" lon="2.95954"><ele>40.0</ele><time>2026-04-08T16:20:48.919Z</time></trkpt><trkpt lat="42.2309983" lon="2.9596367"><ele>40.0</ele><time>2026-04-08T16:20:53.919Z</time></trkpt><trkpt lat="42.23094" lon="2.9596733"><ele>40.0</ele><time>2026-04-08T16:20:55.919Z</time></trkpt><trkpt lat="42.2308567" lon="2.9597067"><ele>40.0</ele><time>2026-04-08T16:20:57.918Z</time></trkpt><trkpt lat="42.2307417" lon="2.9597467"><ele>40.0</ele><time>2026-04-08T16:20:59.919Z</time></trkpt><trkpt lat="42.230625" lon="2.9598017"><ele>40.0</ele><time>2026-04-08T16:21:01.919Z</time></trkpt><trkpt lat="42.2305267" lon="2.9598467"><ele>40.0</ele><time>2026-04-08T16:21:03.919Z</time></trkpt><trkpt lat="42.2304533" lon="2.959865"><ele>40.0</ele><time>2026-04-08T16:21:06.918Z</time></trkpt><trkpt lat="42.23039" lon="2.9599183"><ele>40.0</ele><time>2026-04-08T16:22:09.918Z</time></trkpt><trkpt lat="42.230315" lon="2.960005"><ele>40.0</ele><time>2026-04-08T16:22:52.917Z</time></trkpt><trkpt lat="42.23022" lon="2.960065"><ele>40.0</ele><time>2026-04-08T16:22:54.918Z</time></trkpt><trkpt lat="42.2301417" lon="2.9601467"><ele>40.0</ele><time>2026-04-08T16:22:56.918Z</time></trkpt><trkpt lat="42.2301117" lon="2.9602617"><ele>40.0</ele><time>2026-04-08T16:22:58.918Z</time></trkpt><trkpt lat="42.2301383" lon="2.9604067"><ele>40.0</ele><time>2026-04-08T16:23:00.917Z</time></trkpt><trkpt lat="42.2301667" lon="2.9604933"><ele>40.0</ele><time>2026-04-08T16:23:01.918Z</time></trkpt><trkpt lat="42.2301967" lon="2.9605917"><ele>40.0</ele><time>2026-04-08T16:23:02.918Z</time></trkpt><trkpt lat="42.23022" lon="2.9606867"><ele>40.0</ele><time>2026-04-08T16:23:03.918Z</time></trkpt><trkpt lat="42.2302467" lon="2.9607867"><ele>40.0</ele><time>2026-04-08T16:23:04.918Z</time></trkpt><trkpt lat="42.2302733" lon="2.96089"><ele>40.0</ele><time>2026-04-08T16:23:05.918Z</time></trkpt><trkpt lat="42.2303017" lon="2.96099"><ele>40.0</ele><time>2026-04-08T16:23:06.918Z</time></trkpt><trkpt lat="42.2303283" lon="2.9610917"><ele>40.0</ele><time>2026-04-08T16:23:07.918Z</time></trkpt><trkpt lat="42.2303567" lon="2.9611967"><ele>40.0</ele><time>2026-04-08T16:23:08.918Z</time></trkpt><trkpt lat="42.2303867" lon="2.9613"><ele>39.857142857142854</ele><time>2026-04-08T16:23:09.918Z</time></trkpt><trkpt lat="42.2304183" lon="2.9613967"><ele>39.714285714285715</ele><time>2026-04-08T16:23:10.917Z</time></trkpt><trkpt lat="42.2304433" lon="2.9614917"><ele>39.57142857142857</ele><time>2026-04-08T16:23:11.917Z</time></trkpt><trkpt lat="42.2304667" lon="2.9615867"><ele>39.42857142857143</ele><time>2026-04-08T16:23:12.918Z</time></trkpt><trkpt lat="42.2304883" lon="2.9616733"><ele>39.285714285714285</ele><time>2026-04-08T16:23:13.918Z</time></trkpt><trkpt lat="42.2305133" lon="2.96177"><ele>39.142857142857146</ele><time>2026-04-08T16:23:14.918Z</time></trkpt><trkpt lat="42.23054" lon="2.961865"><ele>39.0</ele><time>2026-04-08T16:23:15.918Z</time></trkpt><trkpt lat="42.2305617" lon="2.96196"><ele>39.0</ele><time>2026-04-08T16:23:16.918Z</time></trkpt><trkpt lat="42.2305883" lon="2.962055"><ele>39.0</ele><time>2026-04-08T16:23:17.918Z</time></trkpt><trkpt lat="42.2306117" lon="2.9621467"><ele>39.0</ele><time>2026-04-08T16:23:18.918Z</time></trkpt><trkpt lat="42.2306417" lon="2.962245"><ele>39.0</ele><time>2026-04-08T16:23:19.918Z</time></trkpt><trkpt lat="42.2306767" lon="2.9623567"><ele>39.0</ele><time>2026-04-08T16:23:20.918Z</time></trkpt><trkpt lat="42.23071" lon="2.962465"><ele>39.0</ele><time>2026-04-08T16:23:21.917Z</time></trkpt><trkpt lat="42.2307383" lon="2.9625683"><ele>38.666666666666664</ele><time>2026-04-08T16:23:22.918Z</time></trkpt><trkpt lat="42.2307583" lon="2.9626667"><ele>38.333333333333336</ele><time>2026-04-08T16:23:23.918Z</time></trkpt><trkpt lat="42.2307783" lon="2.96275"><ele>38.0</ele><time>2026-04-08T16:23:24.918Z</time></trkpt><trkpt lat="42.230795" lon="2.9628417"><ele>37.66666666666667</ele><time>2026-04-08T16:23:26.918Z</time></trkpt><trkpt lat="42.23083" lon="2.96293"><ele>37.333333333333336</ele><time>2026-04-08T16:23:29.918Z</time></trkpt><trkpt lat="42.23089" lon="2.9630017"><ele>37.0</ele><time>2026-04-08T16:23:34.918Z</time></trkpt><trkpt lat="42.2309833" lon="2.96299"><ele>37.0</ele><time>2026-04-08T16:23:36.918Z</time></trkpt><trkpt lat="42.2310833" lon="2.962955"><ele>37.0</ele><time>2026-04-08T16:23:38.917Z</time></trkpt><trkpt lat="42.2311767" lon="2.9629233"><ele>37.0</ele><time>2026-04-08T16:23:40.918Z</time></trkpt><trkpt lat="42.231295" lon="2.9628717"><ele>37.0</ele><time>2026-04-08T16:23:42.918Z</time></trkpt><trkpt lat="42.2313617" lon="2.9628367"><ele>37.0</ele><time>2026-04-08T16:23:43.918Z</time></trkpt><trkpt lat="42.231435" lon="2.9628"><ele>37.16666666666667</ele><time>2026-04-08T16:23:44.917Z</time></trkpt><trkpt lat="42.2315133" lon="2.96276"><ele>37.333333333333336</ele><time>2026-04-08T16:23:45.918Z</time></trkpt><trkpt lat="42.2315883" lon="2.9627167"><ele>37.5</ele><time>2026-04-08T16:23:46.917Z</time></trkpt><trkpt lat="42.2316667" lon="2.962675"><ele>37.666666666666664</ele><time>2026-04-08T16:23:47.917Z</time></trkpt><trkpt lat="42.2317467" lon="2.9626317"><ele>37.83333333333333</ele><time>2026-04-08T16:23:48.917Z</time></trkpt><trkpt lat="42.2318267" lon="2.9625883"><ele>38.0</ele><time>2026-04-08T16:23:49.918Z</time></trkpt><trkpt lat="42.2319033" lon="2.9625483"><ele>38.14285714285714</ele><time>2026-04-08T16:23:50.918Z</time></trkpt><trkpt lat="42.2319783" lon="2.96251"><ele>38.28571428571429</ele><time>2026-04-08T16:23:51.917Z</time></trkpt><trkpt lat="42.23205" lon="2.9624733"><ele>38.42857142857143</ele><time>2026-04-08T16:23:52.917Z</time></trkpt><trkpt lat="42.2321217" lon="2.9624383"><ele>38.57142857142857</ele><time>2026-04-08T16:23:53.918Z</time></trkpt><trkpt lat="42.2321883" lon="2.9624067"><ele>38.71428571428571</ele><time>2026-04-08T16:23:54.918Z</time></trkpt><trkpt lat="42.2322517" lon="2.9623733"><ele>38.85714285714286</ele><time>2026-04-08T16:23:55.917Z</time></trkpt><trkpt lat="42.2323183" lon="2.9623417"><ele>39.0</ele><time>2026-04-08T16:23:56.918Z</time></trkpt><trkpt lat="42.2323917" lon="2.9623083"><ele>39.0</ele><time>2026-04-08T16:23:57.918Z</time></trkpt><trkpt lat="42.232465" lon="2.962275"><ele>39.0</ele><time>2026-04-08T16:23:58.918Z</time></trkpt><trkpt lat="42.2325367" lon="2.9622417"><ele>39.0</ele><time>2026-04-08T16:23:59.918Z</time></trkpt><trkpt lat="42.232605" lon="2.9622117"><ele>39.0</ele><time>2026-04-08T16:24:00.918Z</time></trkpt><trkpt lat="42.23267" lon="2.962185"><ele>39.0</ele><time>2026-04-08T16:24:01.918Z</time></trkpt><trkpt lat="42.2327867" lon="2.9621367"><ele>39.0</ele><time>2026-04-08T16:24:03.917Z</time></trkpt><trkpt lat="42.2328633" lon="2.9621217"><ele>39.0</ele><time>2026-04-08T16:24:05.918Z</time></trkpt><trkpt lat="42.2329383" lon="2.9621"><ele>39.0</ele><time>2026-04-08T16:24:10.918Z</time></trkpt><trkpt lat="42.232975" lon="2.96201"><ele>39.0</ele><time>2026-04-08T16:24:13.918Z</time></trkpt><trkpt lat="42.2329233" lon="2.96187"><ele>39.0</ele><time>2026-04-08T16:24:15.917Z</time></trkpt><trkpt lat="42.2328717" lon="2.9617883"><ele>39.0</ele><time>2026-04-08T16:24:16.917Z</time></trkpt><trkpt lat="42.2328167" lon="2.96169"><ele>39.0</ele><time>2026-04-08T16:24:17.918Z</time></trkpt><trkpt lat="42.2327617" lon="2.9615833"><ele>39.2</ele><time>2026-04-08T16:24:18.918Z</time></trkpt><trkpt lat="42.2327033" lon="2.9614633"><ele>39.4</ele><time>2026-04-08T16:24:19.917Z</time></trkpt><trkpt lat="42.2326383" lon="2.96135"><ele>39.6</ele><time>2026-04-08T16:24:20.918Z</time></trkpt><trkpt lat="42.2325683" lon="2.9612367"><ele>39.8</ele><time>2026-04-08T16:24:21.918Z</time></trkpt><trkpt lat="42.2324967" lon="2.9611233"><ele>40.0</ele><time>2026-04-08T16:24:22.917Z</time></trkpt><trkpt lat="42.2324217" lon="2.9610117"><ele>40.0</ele><time>2026-04-08T16:24:23.918Z</time></trkpt><trkpt lat="42.2323483" lon="2.9609017"><ele>40.0</ele><time>2026-04-08T16:24:24.917Z</time></trkpt><trkpt lat="42.2322767" lon="2.9607917"><ele>40.0</ele><time>2026-04-08T16:24:25.917Z</time></trkpt><trkpt lat="42.2322033" lon="2.9606817"><ele>40.0</ele><time>2026-04-08T16:24:26.918Z</time></trkpt><trkpt lat="42.2321267" lon="2.96057"><ele>40.0</ele><time>2026-04-08T16:24:27.918Z</time></trkpt><trkpt lat="42.2320483" lon="2.9604583"><ele>40.0</ele><time>2026-04-08T16:24:28.918Z</time></trkpt><trkpt lat="42.23197" lon="2.9603417"><ele>40.0</ele><time>2026-04-08T16:24:29.918Z</time></trkpt><trkpt lat="42.2318883" lon="2.9602167"><ele>40.0</ele><time>2026-04-08T16:24:30.917Z</time></trkpt><trkpt lat="42.2318017" lon="2.96009"><ele>40.0</ele><time>2026-04-08T16:24:31.918Z</time></trkpt><trkpt lat="42.2317183" lon="2.9599567"><ele>40.0</ele><time>2026-04-08T16:24:32.917Z</time></trkpt><trkpt lat="42.2316267" lon="2.9598217"><ele>40.0</ele><time>2026-04-08T16:24:33.918Z</time></trkpt><trkpt lat="42.231535" lon="2.959685"><ele>40.0</ele><time>2026-04-08T16:24:34.918Z</time></trkpt><trkpt lat="42.2314417" lon="2.9595467"><ele>40.0</ele><time>2026-04-08T16:24:35.917Z</time></trkpt><trkpt lat="42.2313433" lon="2.959405"><ele>40.0</ele><time>2026-04-08T16:24:36.918Z</time></trkpt><trkpt lat="42.2312467" lon="2.9592667"><ele>40.0</ele><time>2026-04-08T16:24:37.918Z</time></trkpt><trkpt lat="42.2311583" lon="2.9591267"><ele>40.0</ele><time>2026-04-08T16:24:38.918Z</time></trkpt><trkpt lat="42.2310633" lon="2.95899"><ele>40.0</ele><time>2026-04-08T16:24:39.918Z</time></trkpt><trkpt lat="42.230965" lon="2.9588483"><ele>40.25</ele><time>2026-04-08T16:24:40.918Z</time></trkpt><trkpt lat="42.2308667" lon="2.9587017"><ele>40.5</ele><time>2026-04-08T16:24:41.917Z</time></trkpt><trkpt lat="42.230775" lon="2.9585517"><ele>40.75</ele><time>2026-04-08T16:24:42.918Z</time></trkpt><trkpt lat="42.2306817" lon="2.9583967"><ele>41.0</ele><time>2026-04-08T16:24:43.918Z</time></trkpt><trkpt lat="42.2305883" lon="2.9582483"><ele>41.0</ele><time>2026-04-08T16:24:44.918Z</time></trkpt><trkpt lat="42.23049" lon="2.9581033"><ele>41.0</ele><time>2026-04-08T16:24:45.918Z</time></trkpt><trkpt lat="42.2303933" lon="2.9579617"><ele>41.0</ele><time>2026-04-08T16:24:46.917Z</time></trkpt><trkpt lat="42.2302967" lon="2.9578167"><ele>41.0</ele><time>2026-04-08T16:24:47.917Z</time></trkpt><trkpt lat="42.2302" lon="2.95767"><ele>40.75</ele><time>2026-04-08T16:24:48.917Z</time></trkpt><trkpt lat="42.2301017" lon="2.9575217"><ele>40.5</ele><time>2026-04-08T16:24:49.918Z</time></trkpt><trkpt lat="42.2300033" lon="2.9573733"><ele>40.25</ele><time>2026-04-08T16:24:50.917Z</time></trkpt><trkpt lat="42.229905" lon="2.9572283"><ele>40.0</ele><time>2026-04-08T16:24:51.918Z</time></trkpt><trkpt lat="42.2298083" lon="2.957085"><ele>40.0</ele><time>2026-04-08T16:24:52.918Z</time></trkpt><trkpt lat="42.2297083" lon="2.9569417"><ele>40.0</ele><time>2026-04-08T16:24:53.918Z</time></trkpt><trkpt lat="42.2296117" lon="2.956805"><ele>40.0</ele><time>2026-04-08T16:24:54.918Z</time></trkpt><trkpt lat="42.22952" lon="2.9566783"><ele>40.0</ele><time>2026-04-08T16:24:55.918Z</time></trkpt><trkpt lat="42.229445" lon="2.9565683"><ele>39.857142857142854</ele><time>2026-04-08T16:24:56.919Z</time></trkpt><trkpt lat="42.22939" lon="2.9564767"><ele>39.714285714285715</ele><time>2026-04-08T16:24:57.919Z</time></trkpt><trkpt lat="42.229355" lon="2.95639"><ele>39.57142857142857</ele><time>2026-04-08T16:24:58.919Z</time></trkpt><trkpt lat="42.229335" lon="2.9563033"><ele>39.42857142857143</ele><time>2026-04-08T16:24:59.919Z</time></trkpt><trkpt lat="42.22933" lon="2.9562133"><ele>39.285714285714285</ele><time>2026-04-08T16:25:00.919Z</time></trkpt><trkpt lat="42.2293167" lon="2.9561233"><ele>39.142857142857146</ele><time>2026-04-08T16:25:01.919Z</time></trkpt><trkpt lat="42.2292867" lon="2.95603"><ele>39.0</ele><time>2026-04-08T16:25:02.919Z</time></trkpt><trkpt lat="42.2292383" lon="2.9559517"><ele>39.0</ele><time>2026-04-08T16:25:03.919Z</time></trkpt><trkpt lat="42.2291767" lon="2.955885"><ele>39.0</ele><time>2026-04-08T16:25:04.919Z</time></trkpt><trkpt lat="42.2291083" lon="2.95584"><ele>39.0</ele><time>2026-04-08T16:25:05.919Z</time></trkpt><trkpt lat="42.2290333" lon="2.9558033"><ele>39.0</ele><time>2026-04-08T16:25:06.919Z</time></trkpt><trkpt lat="42.2289567" lon="2.9557517"><ele>39.0</ele><time>2026-04-08T16:25:07.918Z</time></trkpt><trkpt lat="42.228885" lon="2.9556833"><ele>39.0</ele><time>2026-04-08T16:25:08.919Z</time></trkpt><trkpt lat="42.22881" lon="2.9555917"><ele>39.2</ele><time>2026-04-08T16:25:09.919Z</time></trkpt><trkpt lat="42.22874" lon="2.9554867"><ele>39.4</ele><time>2026-04-08T16:25:10.918Z</time></trkpt><trkpt lat="42.2286717" lon="2.9553733"><ele>39.6</ele><time>2026-04-08T16:25:11.918Z</time></trkpt><trkpt lat="42.2286033" lon="2.955265"><ele>39.8</ele><time>2026-04-08T16:25:12.918Z</time></trkpt><trkpt lat="42.22853" lon="2.9551533"><ele>40.0</ele><time>2026-04-08T16:25:13.919Z</time></trkpt><trkpt lat="42.2284517" lon="2.9550383"><ele>41.0</ele><time>2026-04-08T16:25:14.919Z</time></trkpt><trkpt lat="42.2283683" lon="2.9549183"><ele>42.0</ele><time>2026-04-08T16:25:15.918Z</time></trkpt><trkpt lat="42.2280783" lon="2.95455"><ele>42.0</ele><time>2026-04-08T16:25:18.919Z</time></trkpt><trkpt lat="42.2279733" lon="2.9544333"><ele>42.0</ele><time>2026-04-08T16:25:19.919Z</time></trkpt><trkpt lat="42.22787" lon="2.9543183"><ele>42.0</ele><time>2026-04-08T16:25:20.918Z</time></trkpt><trkpt lat="42.22776" lon="2.9542083"><ele>42.0</ele><time>2026-04-08T16:25:21.919Z</time></trkpt><trkpt lat="42.22744" lon="2.953885"><ele>42.5</ele><time>2026-04-08T16:25:24.918Z</time></trkpt><trkpt lat="42.2273233" lon="2.953775"><ele>43.0</ele><time>2026-04-08T16:25:25.919Z</time></trkpt><trkpt lat="42.2272083" lon="2.9536617"><ele>43.5</ele><time>2026-04-08T16:25:26.919Z</time></trkpt><trkpt lat="42.227095" lon="2.9535417"><ele>44.0</ele><time>2026-04-08T16:25:27.918Z</time></trkpt><trkpt lat="42.22698" lon="2.953415"><ele>44.5</ele><time>2026-04-08T16:25:28.919Z</time></trkpt><trkpt lat="42.2268667" lon="2.9532767"><ele>45.0</ele><time>2026-04-08T16:25:29.918Z</time></trkpt><trkpt lat="42.2267633" lon="2.9531317"><ele>45.5</ele><time>2026-04-08T16:25:30.919Z</time></trkpt><trkpt lat="42.2266717" lon="2.9529817"><ele>46.0</ele><time>2026-04-08T16:25:31.919Z</time></trkpt><trkpt lat="42.2265867" lon="2.9528367"><ele>46.0</ele><time>2026-04-08T16:25:32.919Z</time></trkpt><trkpt lat="42.2264967" lon="2.952705"><ele>46.0</ele><time>2026-04-08T16:25:33.919Z</time></trkpt><trkpt lat="42.2263983" lon="2.9525933"><ele>46.0</ele><time>2026-04-08T16:25:34.919Z</time></trkpt><trkpt lat="42.2262933" lon="2.952505"><ele>46.0</ele><time>2026-04-08T16:25:35.919Z</time></trkpt><trkpt lat="42.2261983" lon="2.95243"><ele>46.4</ele><time>2026-04-08T16:25:36.919Z</time></trkpt><trkpt lat="42.2260983" lon="2.9523633"><ele>46.8</ele><time>2026-04-08T16:25:37.919Z</time></trkpt><trkpt lat="42.226005" lon="2.9522933"><ele>47.199999999999996</ele><time>2026-04-08T16:25:38.919Z</time></trkpt><trkpt lat="42.2259183" lon="2.952215"><ele>47.599999999999994</ele><time>2026-04-08T16:25:39.919Z</time></trkpt><trkpt lat="42.2258483" lon="2.95212"><ele>48.0</ele><time>2026-04-08T16:25:40.919Z</time></trkpt><trkpt lat="42.225795" lon="2.9520067"><ele>48.0</ele><time>2026-04-08T16:25:41.919Z</time></trkpt><trkpt lat="42.2257567" lon="2.95189"><ele>48.0</ele><time>2026-04-08T16:25:42.919Z</time></trkpt><trkpt lat="42.225735" lon="2.9517717"><ele>48.0</ele><time>2026-04-08T16:25:43.919Z</time></trkpt><trkpt lat="42.22573" lon="2.9516467"><ele>48.0</ele><time>2026-04-08T16:25:44.919Z</time></trkpt><trkpt lat="42.2257417" lon="2.9515267"><ele>48.0</ele><time>2026-04-08T16:25:45.919Z</time></trkpt><trkpt lat="42.2257767" lon="2.9514117"><ele>47.8</ele><time>2026-04-08T16:25:46.918Z</time></trkpt><trkpt lat="42.225815" lon="2.9512917"><ele>47.599999999999994</ele><time>2026-04-08T16:25:47.919Z</time></trkpt><trkpt lat="42.2258583" lon="2.9511667"><ele>47.400000000000006</ele><time>2026-04-08T16:25:48.919Z</time></trkpt><trkpt lat="42.2259017" lon="2.95103"><ele>47.2</ele><time>2026-04-08T16:25:49.919Z</time></trkpt><trkpt lat="42.2259417" lon="2.9508867"><ele>47.0</ele><time>2026-04-08T16:25:50.918Z</time></trkpt><trkpt lat="42.2259767" lon="2.9507417"><ele>46.75</ele><time>2026-04-08T16:25:51.919Z</time></trkpt><trkpt lat="42.2260033" lon="2.9505917"><ele>46.5</ele><time>2026-04-08T16:25:52.919Z</time></trkpt><trkpt lat="42.2260283" lon="2.9504433"><ele>46.25</ele><time>2026-04-08T16:25:53.919Z</time></trkpt><trkpt lat="42.2260517" lon="2.9502933"><ele>46.0</ele><time>2026-04-08T16:25:54.919Z</time></trkpt><trkpt lat="42.22608" lon="2.95014"><ele>46.75</ele><time>2026-04-08T16:25:55.918Z</time></trkpt><trkpt lat="42.2261117" lon="2.9499817"><ele>47.5</ele><time>2026-04-08T16:25:56.919Z</time></trkpt><trkpt lat="42.226145" lon="2.9498167"><ele>48.25</ele><time>2026-04-08T16:25:57.919Z</time></trkpt><trkpt lat="42.226185" lon="2.9496433"><ele>49.0</ele><time>2026-04-08T16:25:58.919Z</time></trkpt><trkpt lat="42.2262333" lon="2.9494583"><ele>49.0</ele><time>2026-04-08T16:25:59.919Z</time></trkpt><trkpt lat="42.226285" lon="2.94928"><ele>49.0</ele><time>2026-04-08T16:26:00.919Z</time></trkpt><trkpt lat="42.2263383" lon="2.9490933"><ele>49.0</ele><time>2026-04-08T16:26:01.918Z</time></trkpt><trkpt lat="42.2263967" lon="2.9489083"><ele>49.0</ele><time>2026-04-08T16:26:02.919Z</time></trkpt><trkpt lat="42.2264583" lon="2.9487167"><ele>48.33333333333333</ele><time>2026-04-08T16:26:03.919Z</time></trkpt><trkpt lat="42.2265167" lon="2.9485317"><ele>47.666666666666664</ele><time>2026-04-08T16:26:04.919Z</time></trkpt><trkpt lat="42.2265733" lon="2.9483267"><ele>47.0</ele><time>2026-04-08T16:26:05.919Z</time></trkpt><trkpt lat="42.226625" lon="2.9481083"><ele>48.33333333333333</ele><time>2026-04-08T16:26:06.919Z</time></trkpt><trkpt lat="42.226665" lon="2.94789"><ele>49.666666666666664</ele><time>2026-04-08T16:26:07.919Z</time></trkpt><trkpt lat="42.2266983" lon="2.9476667"><ele>51.0</ele><time>2026-04-08T16:26:08.918Z</time></trkpt><trkpt lat="42.22672" lon="2.947435"><ele>51.0</ele><time>2026-04-08T16:26:09.919Z</time></trkpt><trkpt lat="42.22673" lon="2.9472017"><ele>51.0</ele><time>2026-04-08T16:26:10.919Z</time></trkpt><trkpt lat="42.22673" lon="2.9469617"><ele>51.0</ele><time>2026-04-08T16:26:11.918Z</time></trkpt><trkpt lat="42.2267233" lon="2.9467183"><ele>50.66666666666667</ele><time>2026-04-08T16:26:12.918Z</time></trkpt><trkpt lat="42.22671" lon="2.94648"><ele>50.333333333333336</ele><time>2026-04-08T16:26:13.919Z</time></trkpt><trkpt lat="42.2267017" lon="2.9462483"><ele>50.0</ele><time>2026-04-08T16:26:14.919Z</time></trkpt><trkpt lat="42.2266933" lon="2.9460233"><ele>50.333333333333336</ele><time>2026-04-08T16:26:15.918Z</time></trkpt><trkpt lat="42.226685" lon="2.945795"><ele>50.66666666666667</ele><time>2026-04-08T16:26:16.919Z</time></trkpt><trkpt lat="42.2266733" lon="2.9455683"><ele>51.0</ele><time>2026-04-08T16:26:17.919Z</time></trkpt><trkpt lat="42.2266633" lon="2.9453383"><ele>51.0</ele><time>2026-04-08T16:26:18.918Z</time></trkpt><trkpt lat="42.2266533" lon="2.9451067"><ele>51.0</ele><time>2026-04-08T16:26:19.919Z</time></trkpt><trkpt lat="42.2266417" lon="2.9448733"><ele>51.0</ele><time>2026-04-08T16:26:20.919Z</time></trkpt><trkpt lat="42.2266383" lon="2.94464"><ele>51.0</ele><time>2026-04-08T16:26:21.918Z</time></trkpt><trkpt lat="42.2266367" lon="2.9444017"><ele>51.0</ele><time>2026-04-08T16:26:22.919Z</time></trkpt><trkpt lat="42.2266267" lon="2.9441667"><ele>51.0</ele><time>2026-04-08T16:26:23.918Z</time></trkpt><trkpt lat="42.22662" lon="2.9439283"><ele>51.66666666666667</ele><time>2026-04-08T16:26:24.919Z</time></trkpt><trkpt lat="42.2266117" lon="2.9436767"><ele>52.333333333333336</ele><time>2026-04-08T16:26:25.919Z</time></trkpt><trkpt lat="42.226605" lon="2.9434167"><ele>53.0</ele><time>2026-04-08T16:26:26.919Z</time></trkpt><trkpt lat="42.2265967" lon="2.9431517"><ele>53.0</ele><time>2026-04-08T16:26:27.919Z</time></trkpt><trkpt lat="42.226585" lon="2.9428817"><ele>53.0</ele><time>2026-04-08T16:26:28.919Z</time></trkpt><trkpt lat="42.2265733" lon="2.9426167"><ele>53.0</ele><time>2026-04-08T16:26:29.918Z</time></trkpt><trkpt lat="42.2265617" lon="2.9423533"><ele>53.0</ele><time>2026-04-08T16:26:30.918Z</time></trkpt><trkpt lat="42.22655" lon="2.9420967"><ele>53.0</ele><time>2026-04-08T16:26:31.919Z</time></trkpt><trkpt lat="42.226535" lon="2.9418433"><ele>53.0</ele><time>2026-04-08T16:26:32.918Z</time></trkpt><trkpt lat="42.2265167" lon="2.9415967"><ele>53.0</ele><time>2026-04-08T16:26:33.919Z</time></trkpt><trkpt lat="42.2264967" lon="2.9413567"><ele>53.0</ele><time>2026-04-08T16:26:34.919Z</time></trkpt><trkpt lat="42.226465" lon="2.941125"><ele>53.0</ele><time>2026-04-08T16:26:35.918Z</time></trkpt><trkpt lat="42.226425" lon="2.9408933"><ele>53.0</ele><time>2026-04-08T16:26:36.919Z</time></trkpt><trkpt lat="42.2263833" lon="2.94067"><ele>53.0</ele><time>2026-04-08T16:26:37.919Z</time></trkpt><trkpt lat="42.226345" lon="2.94045"><ele>53.0</ele><time>2026-04-08T16:26:38.919Z</time></trkpt><trkpt lat="42.226315" lon="2.940235"><ele>54.0</ele><time>2026-04-08T16:26:39.918Z</time></trkpt><trkpt lat="42.2262983" lon="2.9400267"><ele>55.0</ele><time>2026-04-08T16:26:40.919Z</time></trkpt><trkpt lat="42.2263033" lon="2.9398133"><ele>56.0</ele><time>2026-04-08T16:26:41.918Z</time></trkpt><trkpt lat="42.2263217" lon="2.939605"><ele>56.0</ele><time>2026-04-08T16:26:42.918Z</time></trkpt><trkpt lat="42.2263683" lon="2.9394017"><ele>56.0</ele><time>2026-04-08T16:26:43.919Z</time></trkpt><trkpt lat="42.2264367" lon="2.9392117"><ele>56.0</ele><time>2026-04-08T16:26:44.919Z</time></trkpt><trkpt lat="42.22652" lon="2.9390267"><ele>55.333333333333336</ele><time>2026-04-08T16:26:45.919Z</time></trkpt><trkpt lat="42.2266167" lon="2.9388633"><ele>54.66666666666667</ele><time>2026-04-08T16:26:46.919Z</time></trkpt><trkpt lat="42.2267317" lon="2.93872"><ele>54.0</ele><time>2026-04-08T16:26:47.918Z</time></trkpt><trkpt lat="42.22686" lon="2.938595"><ele>54.0</ele><time>2026-04-08T16:26:48.918Z</time></trkpt><trkpt lat="42.2270033" lon="2.9384933"><ele>54.0</ele><time>2026-04-08T16:26:49.919Z</time></trkpt><trkpt lat="42.2271617" lon="2.9384133"><ele>54.0</ele><time>2026-04-08T16:26:50.919Z</time></trkpt><trkpt lat="42.227325" lon="2.93835"><ele>53.33333333333333</ele><time>2026-04-08T16:26:51.919Z</time></trkpt><trkpt lat="42.2274917" lon="2.9382867"><ele>52.666666666666664</ele><time>2026-04-08T16:26:52.919Z</time></trkpt><trkpt lat="42.22766" lon="2.9382317"><ele>52.0</ele><time>2026-04-08T16:26:53.919Z</time></trkpt><trkpt lat="42.2278317" lon="2.9381717"><ele>52.0</ele><time>2026-04-08T16:26:54.919Z</time></trkpt><trkpt lat="42.22801" lon="2.93811"><ele>52.0</ele><time>2026-04-08T16:26:55.919Z</time></trkpt><trkpt lat="42.2281983" lon="2.938045"><ele>52.0</ele><time>2026-04-08T16:26:56.919Z</time></trkpt><trkpt lat="42.22839" lon="2.937975"><ele>52.0</ele><time>2026-04-08T16:26:57.919Z</time></trkpt><trkpt lat="42.2285867" lon="2.9379067"><ele>52.0</ele><time>2026-04-08T16:26:58.918Z</time></trkpt><trkpt lat="42.2287917" lon="2.93784"><ele>52.0</ele><time>2026-04-08T16:26:59.919Z</time></trkpt><trkpt lat="42.2290017" lon="2.9377767"><ele>51.5</ele><time>2026-04-08T16:27:00.919Z</time></trkpt><trkpt lat="42.2292183" lon="2.93771"><ele>51.0</ele><time>2026-04-08T16:27:01.919Z</time></trkpt><trkpt lat="42.2294433" lon="2.93764"><ele>51.0</ele><time>2026-04-08T16:27:02.918Z</time></trkpt><trkpt lat="42.2296683" lon="2.9375683"><ele>51.0</ele><time>2026-04-08T16:27:03.919Z</time></trkpt><trkpt lat="42.2299" lon="2.9374967"><ele>51.0</ele><time>2026-04-08T16:27:04.918Z</time></trkpt><trkpt lat="42.23014" lon="2.9374367"><ele>51.0</ele><time>2026-04-08T16:27:05.919Z</time></trkpt><trkpt lat="42.2303767" lon="2.9373883"><ele>51.0</ele><time>2026-04-08T16:27:06.919Z</time></trkpt><trkpt lat="42.2306167" lon="2.9373383"><ele>51.0</ele><time>2026-04-08T16:27:07.919Z</time></trkpt><trkpt lat="42.2308583" lon="2.9372833"><ele>50.5</ele><time>2026-04-08T16:27:08.919Z</time></trkpt><trkpt lat="42.2311017" lon="2.93723"><ele>50.0</ele><time>2026-04-08T16:27:09.918Z</time></trkpt><trkpt lat="42.2313483" lon="2.937175"><ele>50.0</ele><time>2026-04-08T16:27:10.919Z</time></trkpt><trkpt lat="42.2315983" lon="2.9371267"><ele>50.0</ele><time>2026-04-08T16:27:11.919Z</time></trkpt><trkpt lat="42.2318567" lon="2.9370783"><ele>50.0</ele><time>2026-04-08T16:27:12.919Z</time></trkpt><trkpt lat="42.2321167" lon="2.9370317"><ele>50.0</ele><time>2026-04-08T16:27:13.919Z</time></trkpt><trkpt lat="42.2323783" lon="2.936985"><ele>50.5</ele><time>2026-04-08T16:27:14.919Z</time></trkpt><trkpt lat="42.2326433" lon="2.9369517"><ele>51.0</ele><time>2026-04-08T16:27:15.919Z</time></trkpt><trkpt lat="42.232915" lon="2.9369217"><ele>52.0</ele><time>2026-04-08T16:27:16.919Z</time></trkpt><trkpt lat="42.233185" lon="2.9368833"><ele>53.0</ele><time>2026-04-08T16:27:17.919Z</time></trkpt><trkpt lat="42.23346" lon="2.9368567"><ele>53.0</ele><time>2026-04-08T16:27:18.918Z</time></trkpt><trkpt lat="42.2337317" lon="2.9368367"><ele>53.0</ele><time>2026-04-08T16:27:19.919Z</time></trkpt><trkpt lat="42.2340067" lon="2.936815"><ele>53.0</ele><time>2026-04-08T16:27:20.919Z</time></trkpt><trkpt lat="42.2342867" lon="2.9367867"><ele>53.0</ele><time>2026-04-08T16:27:21.918Z</time></trkpt><trkpt lat="42.2345717" lon="2.93677"><ele>52.0</ele><time>2026-04-08T16:27:22.918Z</time></trkpt><trkpt lat="42.2348583" lon="2.9367633"><ele>51.0</ele><time>2026-04-08T16:27:23.919Z</time></trkpt><trkpt lat="42.2351433" lon="2.9367617"><ele>51.0</ele><time>2026-04-08T16:27:24.918Z</time></trkpt><trkpt lat="42.235435" lon="2.93677"><ele>51.0</ele><time>2026-04-08T16:27:25.918Z</time></trkpt><trkpt lat="42.23573" lon="2.9367817"><ele>51.0</ele><time>2026-04-08T16:27:26.918Z</time></trkpt><trkpt lat="42.236025" lon="2.9367967"><ele>51.0</ele><time>2026-04-08T16:27:27.918Z</time></trkpt><trkpt lat="42.23632" lon="2.936815"><ele>51.5</ele><time>2026-04-08T16:27:28.917Z</time></trkpt><trkpt lat="42.2366133" lon="2.9368383"><ele>52.0</ele><time>2026-04-08T16:27:29.918Z</time></trkpt><trkpt lat="42.2369033" lon="2.9368633"><ele>52.0</ele><time>2026-04-08T16:27:30.918Z</time></trkpt><trkpt lat="42.237195" lon="2.9368917"><ele>52.0</ele><time>2026-04-08T16:27:31.918Z</time></trkpt><trkpt lat="42.237485" lon="2.9369233"><ele>51.5</ele><time>2026-04-08T16:27:32.918Z</time></trkpt><trkpt lat="42.2377733" lon="2.9369667"><ele>51.0</ele><time>2026-04-08T16:27:33.917Z</time></trkpt><trkpt lat="42.238065" lon="2.9370117"><ele>51.5</ele><time>2026-04-08T16:27:34.918Z</time></trkpt><trkpt lat="42.2383533" lon="2.9370683"><ele>52.0</ele><time>2026-04-08T16:27:35.917Z</time></trkpt><trkpt lat="42.2386433" lon="2.9371317"><ele>52.0</ele><time>2026-04-08T16:27:36.918Z</time></trkpt><trkpt lat="42.2389317" lon="2.9371983"><ele>52.0</ele><time>2026-04-08T16:27:37.918Z</time></trkpt><trkpt lat="42.2392217" lon="2.9372683"><ele>53.0</ele><time>2026-04-08T16:27:38.918Z</time></trkpt><trkpt lat="42.23951" lon="2.937345"><ele>54.0</ele><time>2026-04-08T16:27:39.918Z</time></trkpt><trkpt lat="42.239795" lon="2.93743"><ele>53.5</ele><time>2026-04-08T16:27:40.918Z</time></trkpt><trkpt lat="42.240085" lon="2.9375217"><ele>53.0</ele><time>2026-04-08T16:27:41.918Z</time></trkpt><trkpt lat="42.240375" lon="2.93762"><ele>53.5</ele><time>2026-04-08T16:27:42.918Z</time></trkpt><trkpt lat="42.24066" lon="2.9377167"><ele>54.0</ele><time>2026-04-08T16:27:43.917Z</time></trkpt><trkpt lat="42.2409433" lon="2.9378167"><ele>54.0</ele><time>2026-04-08T16:27:44.917Z</time></trkpt><trkpt lat="42.241225" lon="2.9379217"><ele>54.0</ele><time>2026-04-08T16:27:45.917Z</time></trkpt><trkpt lat="42.2415083" lon="2.9380317"><ele>53.0</ele><time>2026-04-08T16:27:46.918Z</time></trkpt><trkpt lat="42.2417883" lon="2.9381467"><ele>52.0</ele><time>2026-04-08T16:27:47.918Z</time></trkpt><trkpt lat="42.2420633" lon="2.938265"><ele>51.0</ele><time>2026-04-08T16:27:48.917Z</time></trkpt><trkpt lat="42.2423417" lon="2.9383933"><ele>50.0</ele><time>2026-04-08T16:27:49.918Z</time></trkpt><trkpt lat="42.24262" lon="2.9385267"><ele>50.0</ele><time>2026-04-08T16:27:50.918Z</time></trkpt><trkpt lat="42.2429017" lon="2.9386633"><ele>50.0</ele><time>2026-04-08T16:27:51.918Z</time></trkpt><trkpt lat="42.2431783" lon="2.9388083"><ele>46.0</ele><time>2026-04-08T16:27:52.918Z</time></trkpt><trkpt lat="42.24345" lon="2.9389567"><ele>42.0</ele><time>2026-04-08T16:27:53.918Z</time></trkpt><trkpt lat="42.2437217" lon="2.9391067"><ele>42.5</ele><time>2026-04-08T16:27:54.918Z</time></trkpt><trkpt lat="42.2439867" lon="2.9392517"><ele>43.0</ele><time>2026-04-08T16:27:55.918Z</time></trkpt><trkpt lat="42.244255" lon="2.9394067"><ele>43.0</ele><time>2026-04-08T16:27:56.918Z</time></trkpt><trkpt lat="42.244525" lon="2.9395617"><ele>43.0</ele><time>2026-04-08T16:27:57.918Z</time></trkpt><trkpt lat="42.2447933" lon="2.9397267"><ele>42.5</ele><time>2026-04-08T16:27:58.918Z</time></trkpt><trkpt lat="42.2450633" lon="2.9399"><ele>42.0</ele><time>2026-04-08T16:27:59.917Z</time></trkpt><trkpt lat="42.24533" lon="2.94007"><ele>42.0</ele><time>2026-04-08T16:28:00.917Z</time></trkpt><trkpt lat="42.245595" lon="2.94024"><ele>42.0</ele><time>2026-04-08T16:28:01.917Z</time></trkpt><trkpt lat="42.2458617" lon="2.9404133"><ele>44.0</ele><time>2026-04-08T16:28:02.918Z</time></trkpt><trkpt lat="42.2461283" lon="2.9405867"><ele>46.0</ele><time>2026-04-08T16:28:03.918Z</time></trkpt><trkpt lat="42.2463983" lon="2.9407567"><ele>46.5</ele><time>2026-04-08T16:28:04.917Z</time></trkpt><trkpt lat="42.2466667" lon="2.9409233"><ele>47.0</ele><time>2026-04-08T16:28:05.918Z</time></trkpt><trkpt lat="42.2469367" lon="2.9410867"><ele>47.0</ele><time>2026-04-08T16:28:06.918Z</time></trkpt><trkpt lat="42.247205" lon="2.941245"><ele>47.0</ele><time>2026-04-08T16:28:07.918Z</time></trkpt><trkpt lat="42.24747" lon="2.9414217"><ele>47.5</ele><time>2026-04-08T16:28:08.918Z</time></trkpt><trkpt lat="42.2477367" lon="2.9415883"><ele>48.0</ele><time>2026-04-08T16:28:09.917Z</time></trkpt><trkpt lat="42.248005" lon="2.9417483"><ele>48.5</ele><time>2026-04-08T16:28:10.917Z</time></trkpt><trkpt lat="42.2482717" lon="2.9419033"><ele>49.0</ele><time>2026-04-08T16:28:11.917Z</time></trkpt><trkpt lat="42.24854" lon="2.9420583"><ele>49.0</ele><time>2026-04-08T16:28:12.917Z</time></trkpt><trkpt lat="42.2488117" lon="2.9422133"><ele>49.0</ele><time>2026-04-08T16:28:13.918Z</time></trkpt><trkpt lat="42.2490833" lon="2.942365"><ele>49.0</ele><time>2026-04-08T16:28:14.918Z</time></trkpt><trkpt lat="42.249355" lon="2.9425183"><ele>49.0</ele><time>2026-04-08T16:28:15.918Z</time></trkpt><trkpt lat="42.2496233" lon="2.9426633"><ele>50.0</ele><time>2026-04-08T16:28:16.917Z</time></trkpt><trkpt lat="42.249895" lon="2.942805"><ele>51.0</ele><time>2026-04-08T16:28:17.918Z</time></trkpt><trkpt lat="42.25017" lon="2.9429383"><ele>51.0</ele><time>2026-04-08T16:28:18.918Z</time></trkpt><trkpt lat="42.2504517" lon="2.943065"><ele>51.0</ele><time>2026-04-08T16:28:19.918Z</time></trkpt><trkpt lat="42.25073" lon="2.9431833"><ele>52.0</ele><time>2026-04-08T16:28:20.918Z</time></trkpt><trkpt lat="42.25101" lon="2.9432983"><ele>53.0</ele><time>2026-04-08T16:28:21.918Z</time></trkpt><trkpt lat="42.2512933" lon="2.9434117"><ele>54.5</ele><time>2026-04-08T16:28:22.918Z</time></trkpt><trkpt lat="42.2515767" lon="2.9435217"><ele>56.0</ele><time>2026-04-08T16:28:23.917Z</time></trkpt><trkpt lat="42.251865" lon="2.9436267"><ele>56.0</ele><time>2026-04-08T16:28:24.917Z</time></trkpt><trkpt lat="42.2521517" lon="2.94372"><ele>56.0</ele><time>2026-04-08T16:28:25.918Z</time></trkpt><trkpt lat="42.2524367" lon="2.9438033"><ele>56.5</ele><time>2026-04-08T16:28:26.918Z</time></trkpt><trkpt lat="42.2527267" lon="2.9438817"><ele>57.0</ele><time>2026-04-08T16:28:27.918Z</time></trkpt><trkpt lat="42.2530183" lon="2.943955"><ele>58.0</ele><time>2026-04-08T16:28:28.918Z</time></trkpt><trkpt lat="42.2533117" lon="2.9440217"><ele>59.0</ele><time>2026-04-08T16:28:29.918Z</time></trkpt><trkpt lat="42.2536033" lon="2.944085"><ele>59.0</ele><time>2026-04-08T16:28:30.918Z</time></trkpt><trkpt lat="42.253895" lon="2.9441383"><ele>59.0</ele><time>2026-04-08T16:28:31.917Z</time></trkpt><trkpt lat="42.2541883" lon="2.9441883"><ele>61.5</ele><time>2026-04-08T16:28:32.918Z</time></trkpt><trkpt lat="42.2544833" lon="2.9442333"><ele>64.0</ele><time>2026-04-08T16:28:33.918Z</time></trkpt><trkpt lat="42.25478" lon="2.9442683"><ele>65.5</ele><time>2026-04-08T16:28:34.918Z</time></trkpt><trkpt lat="42.25507" lon="2.9442983"><ele>67.0</ele><time>2026-04-08T16:28:35.918Z</time></trkpt><trkpt lat="42.255355" lon="2.94432"><ele>67.0</ele><time>2026-04-08T16:28:36.918Z</time></trkpt><trkpt lat="42.2556517" lon="2.9443367"><ele>67.0</ele><time>2026-04-08T16:28:37.918Z</time></trkpt><trkpt lat="42.2559483" lon="2.9443433"><ele>67.0</ele><time>2026-04-08T16:28:38.918Z</time></trkpt><trkpt lat="42.256245" lon="2.9443517"><ele>67.0</ele><time>2026-04-08T16:28:39.917Z</time></trkpt><trkpt lat="42.2565383" lon="2.9443517"><ele>67.5</ele><time>2026-04-08T16:28:40.917Z</time></trkpt><trkpt lat="42.25683" lon="2.9443467"><ele>68.0</ele><time>2026-04-08T16:28:41.918Z</time></trkpt><trkpt lat="42.2571217" lon="2.944335"><ele>68.0</ele><time>2026-04-08T16:28:42.917Z</time></trkpt><trkpt lat="42.2574167" lon="2.944315"><ele>68.0</ele><time>2026-04-08T16:28:43.917Z</time></trkpt><trkpt lat="42.257715" lon="2.9442833"><ele>68.0</ele><time>2026-04-08T16:28:44.917Z</time></trkpt><trkpt lat="42.2580083" lon="2.9442433"><ele>68.0</ele><time>2026-04-08T16:28:45.917Z</time></trkpt><trkpt lat="42.2583" lon="2.9442033"><ele>68.0</ele><time>2026-04-08T16:28:46.918Z</time></trkpt><trkpt lat="42.2585933" lon="2.944165"><ele>68.0</ele><time>2026-04-08T16:28:47.918Z</time></trkpt><trkpt lat="42.2588867" lon="2.9441067"><ele>69.0</ele><time>2026-04-08T16:28:48.917Z</time></trkpt><trkpt lat="42.2591817" lon="2.9440517"><ele>70.0</ele><time>2026-04-08T16:28:49.917Z</time></trkpt><trkpt lat="42.259475" lon="2.9439883"><ele>70.0</ele><time>2026-04-08T16:28:50.917Z</time></trkpt><trkpt lat="42.2597667" lon="2.94392"><ele>70.0</ele><time>2026-04-08T16:28:51.918Z</time></trkpt><trkpt lat="42.260055" lon="2.94385"><ele>70.0</ele><time>2026-04-08T16:28:52.918Z</time></trkpt><trkpt lat="42.2603433" lon="2.94377"><ele>70.0</ele><time>2026-04-08T16:28:53.918Z</time></trkpt><trkpt lat="42.2606367" lon="2.9436833"><ele>69.5</ele><time>2026-04-08T16:28:54.918Z</time></trkpt><trkpt lat="42.2609267" lon="2.9435883"><ele>69.0</ele><time>2026-04-08T16:28:55.918Z</time></trkpt><trkpt lat="42.2612083" lon="2.94348"><ele>69.0</ele><time>2026-04-08T16:28:56.918Z</time></trkpt><trkpt lat="42.26149" lon="2.9433667"><ele>69.0</ele><time>2026-04-08T16:28:57.918Z</time></trkpt><trkpt lat="42.26177" lon="2.9432467"><ele>69.0</ele><time>2026-04-08T16:28:58.918Z</time></trkpt><trkpt lat="42.26205" lon="2.943115"><ele>69.0</ele><time>2026-04-08T16:28:59.918Z</time></trkpt><trkpt lat="42.2623267" lon="2.9429833"><ele>67.5</ele><time>2026-04-08T16:29:00.918Z</time></trkpt><trkpt lat="42.2625983" lon="2.94286"><ele>66.0</ele><time>2026-04-08T16:29:01.917Z</time></trkpt><trkpt lat="42.2628767" lon="2.94273"><ele>66.0</ele><time>2026-04-08T16:29:02.918Z</time></trkpt><trkpt lat="42.2631533" lon="2.9425967"><ele>66.0</ele><time>2026-04-08T16:29:03.918Z</time></trkpt><trkpt lat="42.2634283" lon="2.9424533"><ele>66.0</ele><time>2026-04-08T16:29:04.918Z</time></trkpt><trkpt lat="42.2637017" lon="2.9423083"><ele>66.0</ele><time>2026-04-08T16:29:05.918Z</time></trkpt><trkpt lat="42.2639783" lon="2.942155"><ele>66.0</ele><time>2026-04-08T16:29:06.918Z</time></trkpt><trkpt lat="42.26425" lon="2.942"><ele>66.0</ele><time>2026-04-08T16:29:07.917Z</time></trkpt><trkpt lat="42.2645233" lon="2.9418467"><ele>65.0</ele><time>2026-04-08T16:29:08.917Z</time></trkpt><trkpt lat="42.264795" lon="2.9416883"><ele>64.0</ele><time>2026-04-08T16:29:09.918Z</time></trkpt><trkpt lat="42.2650683" lon="2.941535"><ele>64.0</ele><time>2026-04-08T16:29:10.918Z</time></trkpt><trkpt lat="42.2653433" lon="2.9413783"><ele>64.0</ele><time>2026-04-08T16:29:11.918Z</time></trkpt><trkpt lat="42.2656183" lon="2.9412267"><ele>63.0</ele><time>2026-04-08T16:29:12.917Z</time></trkpt><trkpt lat="42.2658933" lon="2.9410783"><ele>62.0</ele><time>2026-04-08T16:29:13.918Z</time></trkpt><trkpt lat="42.2661667" lon="2.94093"><ele>63.0</ele><time>2026-04-08T16:29:14.917Z</time></trkpt><trkpt lat="42.2664433" lon="2.9407867"><ele>64.0</ele><time>2026-04-08T16:29:15.918Z</time></trkpt><trkpt lat="42.26672" lon="2.9406483"><ele>64.0</ele><time>2026-04-08T16:29:16.917Z</time></trkpt><trkpt lat="42.2669967" lon="2.9405167"><ele>64.0</ele><time>2026-04-08T16:29:17.917Z</time></trkpt><trkpt lat="42.267275" lon="2.9403883"><ele>65.0</ele><time>2026-04-08T16:29:18.918Z</time></trkpt><trkpt lat="42.267555" lon="2.9402617"><ele>66.0</ele><time>2026-04-08T16:29:19.917Z</time></trkpt><trkpt lat="42.26784" lon="2.9401433"><ele>68.0</ele><time>2026-04-08T16:29:20.918Z</time></trkpt><trkpt lat="42.2681233" lon="2.9400283"><ele>70.0</ele><time>2026-04-08T16:29:21.917Z</time></trkpt><trkpt lat="42.26841" lon="2.939915"><ele>70.0</ele><time>2026-04-08T16:29:22.917Z</time></trkpt><trkpt lat="42.2687017" lon="2.9398117"><ele>70.0</ele><time>2026-04-08T16:29:23.918Z</time></trkpt><trkpt lat="42.2689933" lon="2.93972"><ele>71.5</ele><time>2026-04-08T16:29:24.917Z</time></trkpt><trkpt lat="42.2692867" lon="2.939635"><ele>73.0</ele><time>2026-04-08T16:29:25.918Z</time></trkpt><trkpt lat="42.2695767" lon="2.9395617"><ele>73.5</ele><time>2026-04-08T16:29:26.918Z</time></trkpt><trkpt lat="42.269875" lon="2.9395067"><ele>74.0</ele><time>2026-04-08T16:29:27.918Z</time></trkpt><trkpt lat="42.2701683" lon="2.939455"><ele>74.0</ele><time>2026-04-08T16:29:28.918Z</time></trkpt><trkpt lat="42.27046" lon="2.9394067"><ele>74.0</ele><time>2026-04-08T16:29:29.918Z</time></trkpt><trkpt lat="42.2707567" lon="2.9393667"><ele>76.0</ele><time>2026-04-08T16:29:30.918Z</time></trkpt><trkpt lat="42.2710583" lon="2.939335"><ele>78.0</ele><time>2026-04-08T16:29:31.918Z</time></trkpt><trkpt lat="42.2713617" lon="2.9393133"><ele>79.5</ele><time>2026-04-08T16:29:32.918Z</time></trkpt><trkpt lat="42.27166" lon="2.9393"><ele>81.0</ele><time>2026-04-08T16:29:33.917Z</time></trkpt><trkpt lat="42.2719583" lon="2.9392983"><ele>81.0</ele><time>2026-04-08T16:29:34.918Z</time></trkpt><trkpt lat="42.2722583" lon="2.9393067"><ele>81.0</ele><time>2026-04-08T16:29:35.918Z</time></trkpt><trkpt lat="42.27256" lon="2.9393217"><ele>82.5</ele><time>2026-04-08T16:29:36.918Z</time></trkpt><trkpt lat="42.27286" lon="2.9393467"><ele>84.0</ele><time>2026-04-08T16:29:37.918Z</time></trkpt><trkpt lat="42.2731533" lon="2.93938"><ele>84.5</ele><time>2026-04-08T16:29:38.918Z</time></trkpt><trkpt lat="42.2734467" lon="2.93942"><ele>85.0</ele><time>2026-04-08T16:29:39.917Z</time></trkpt><trkpt lat="42.2737483" lon="2.9394767"><ele>85.0</ele><time>2026-04-08T16:29:40.917Z</time></trkpt><trkpt lat="42.2740467" lon="2.93954"><ele>85.0</ele><time>2026-04-08T16:29:41.918Z</time></trkpt><trkpt lat="42.2743383" lon="2.9396167"><ele>85.0</ele><time>2026-04-08T16:29:42.918Z</time></trkpt><trkpt lat="42.2746317" lon="2.9396983"><ele>85.0</ele><time>2026-04-08T16:29:43.917Z</time></trkpt><trkpt lat="42.2749267" lon="2.9397883"><ele>86.0</ele><time>2026-04-08T16:29:44.917Z</time></trkpt><trkpt lat="42.2752217" lon="2.9398783"><ele>87.0</ele><time>2026-04-08T16:29:45.918Z</time></trkpt><trkpt lat="42.2755117" lon="2.9399733"><ele>89.5</ele><time>2026-04-08T16:29:46.918Z</time></trkpt><trkpt lat="42.2758017" lon="2.9400783"><ele>92.0</ele><time>2026-04-08T16:29:47.918Z</time></trkpt><trkpt lat="42.27609" lon="2.9401817"><ele>92.0</ele><time>2026-04-08T16:29:48.918Z</time></trkpt><trkpt lat="42.2763767" lon="2.940285"><ele>92.0</ele><time>2026-04-08T16:29:49.918Z</time></trkpt><trkpt lat="42.2766633" lon="2.9403933"><ele>91.0</ele><time>2026-04-08T16:29:50.918Z</time></trkpt><trkpt lat="42.2769467" lon="2.9404983"><ele>90.0</ele><time>2026-04-08T16:29:51.918Z</time></trkpt><trkpt lat="42.2772317" lon="2.9406083"><ele>88.0</ele><time>2026-04-08T16:29:52.918Z</time></trkpt><trkpt lat="42.2775233" lon="2.9407183"><ele>86.0</ele><time>2026-04-08T16:29:53.918Z</time></trkpt><trkpt lat="42.27781" lon="2.940825"><ele>84.5</ele><time>2026-04-08T16:29:54.918Z</time></trkpt><trkpt lat="42.2781033" lon="2.9409317"><ele>83.0</ele><time>2026-04-08T16:29:55.918Z</time></trkpt><trkpt lat="42.278395" lon="2.9410367"><ele>83.0</ele><time>2026-04-08T16:29:56.918Z</time></trkpt><trkpt lat="42.2786867" lon="2.9411417"><ele>83.0</ele><time>2026-04-08T16:29:57.917Z</time></trkpt><trkpt lat="42.2789783" lon="2.9412417"><ele>83.0</ele><time>2026-04-08T16:29:58.918Z</time></trkpt><trkpt lat="42.2792733" lon="2.9413383"><ele>83.0</ele><time>2026-04-08T16:29:59.918Z</time></trkpt><trkpt lat="42.2795717" lon="2.94143"><ele>83.5</ele><time>2026-04-08T16:30:00.918Z</time></trkpt><trkpt lat="42.2798683" lon="2.9415167"><ele>84.0</ele><time>2026-04-08T16:30:01.918Z</time></trkpt><trkpt lat="42.280165" lon="2.9415983"><ele>84.0</ele><time>2026-04-08T16:30:02.917Z</time></trkpt><trkpt lat="42.2804633" lon="2.9416717"><ele>84.0</ele><time>2026-04-08T16:30:03.918Z</time></trkpt><trkpt lat="42.2807617" lon="2.9417333"><ele>78.5</ele><time>2026-04-08T16:30:04.918Z</time></trkpt><trkpt lat="42.281065" lon="2.9417867"><ele>73.0</ele><time>2026-04-08T16:30:05.918Z</time></trkpt><trkpt lat="42.2813683" lon="2.9418317"><ele>74.0</ele><time>2026-04-08T16:30:06.918Z</time></trkpt><trkpt lat="42.28167" lon="2.941865"><ele>75.0</ele><time>2026-04-08T16:30:07.918Z</time></trkpt><trkpt lat="42.2819717" lon="2.9418883"><ele>78.5</ele><time>2026-04-08T16:30:08.917Z</time></trkpt><trkpt lat="42.2822767" lon="2.9419"><ele>82.0</ele><time>2026-04-08T16:30:09.918Z</time></trkpt><trkpt lat="42.2825783" lon="2.9419067"><ele>82.0</ele><time>2026-04-08T16:30:10.918Z</time></trkpt><trkpt lat="42.2828833" lon="2.9419083"><ele>82.0</ele><time>2026-04-08T16:30:11.918Z</time></trkpt><trkpt lat="42.28319" lon="2.9418917"><ele>81.5</ele><time>2026-04-08T16:30:12.918Z</time></trkpt><trkpt lat="42.2834917" lon="2.9418683"><ele>81.0</ele><time>2026-04-08T16:30:13.917Z</time></trkpt><trkpt lat="42.2837967" lon="2.94183"><ele>78.5</ele><time>2026-04-08T16:30:14.917Z</time></trkpt><trkpt lat="42.2841067" lon="2.9417883"><ele>76.0</ele><time>2026-04-08T16:30:15.917Z</time></trkpt><trkpt lat="42.2844067" lon="2.94174"><ele>77.0</ele><time>2026-04-08T16:30:16.918Z</time></trkpt><trkpt lat="42.2847033" lon="2.9416867"><ele>78.0</ele><time>2026-04-08T16:30:17.918Z</time></trkpt><trkpt lat="42.2850017" lon="2.94163"><ele>78.0</ele><time>2026-04-08T16:30:18.918Z</time></trkpt><trkpt lat="42.2853" lon="2.9415667"><ele>78.0</ele><time>2026-04-08T16:30:19.917Z</time></trkpt><trkpt lat="42.2855967" lon="2.9415"><ele>79.5</ele><time>2026-04-08T16:30:20.918Z</time></trkpt><trkpt lat="42.2858917" lon="2.9414267"><ele>81.0</ele><time>2026-04-08T16:30:21.918Z</time></trkpt><trkpt lat="42.2861883" lon="2.9413533"><ele>76.0</ele><time>2026-04-08T16:30:22.917Z</time></trkpt><trkpt lat="42.2864867" lon="2.9412833"><ele>71.0</ele><time>2026-04-08T16:30:23.918Z</time></trkpt><trkpt lat="42.286785" lon="2.941215"><ele>71.0</ele><time>2026-04-08T16:30:24.918Z</time></trkpt><trkpt lat="42.2870833" lon="2.9411433"><ele>71.0</ele><time>2026-04-08T16:30:25.917Z</time></trkpt><trkpt lat="42.28738" lon="2.941065"><ele>66.0</ele><time>2026-04-08T16:30:26.917Z</time></trkpt><trkpt lat="42.287675" lon="2.9409883"><ele>61.0</ele><time>2026-04-08T16:30:27.918Z</time></trkpt><trkpt lat="42.2879733" lon="2.9409167"><ele>64.0</ele><time>2026-04-08T16:30:28.918Z</time></trkpt><trkpt lat="42.2882683" lon="2.9408483"><ele>67.0</ele><time>2026-04-08T16:30:29.918Z</time></trkpt><trkpt lat="42.288565" lon="2.94078"><ele>67.0</ele><time>2026-04-08T16:30:30.917Z</time></trkpt><trkpt lat="42.2888583" lon="2.940715"><ele>67.0</ele><time>2026-04-08T16:30:31.918Z</time></trkpt><trkpt lat="42.2891567" lon="2.940655"><ele>66.5</ele><time>2026-04-08T16:30:32.917Z</time></trkpt><trkpt lat="42.289455" lon="2.940605"><ele>66.0</ele><time>2026-04-08T16:30:33.917Z</time></trkpt><trkpt lat="42.2897533" lon="2.94056"><ele>63.0</ele><time>2026-04-08T16:30:34.917Z</time></trkpt><trkpt lat="42.290055" lon="2.9405217"><ele>60.0</ele><time>2026-04-08T16:30:35.918Z</time></trkpt><trkpt lat="42.290355" lon="2.9404867"><ele>57.5</ele><time>2026-04-08T16:30:36.918Z</time></trkpt><trkpt lat="42.2906617" lon="2.94046"><ele>55.0</ele><time>2026-04-08T16:30:37.918Z</time></trkpt><trkpt lat="42.29097" lon="2.9404433"><ele>55.0</ele><time>2026-04-08T16:30:38.917Z</time></trkpt><trkpt lat="42.2912733" lon="2.940435"><ele>55.0</ele><time>2026-04-08T16:30:39.918Z</time></trkpt><trkpt lat="42.291575" lon="2.9404367"><ele>52.5</ele><time>2026-04-08T16:30:40.917Z</time></trkpt><trkpt lat="42.291875" lon="2.94044"><ele>50.0</ele><time>2026-04-08T16:30:41.918Z</time></trkpt><trkpt lat="42.292175" lon="2.9404517"><ele>50.5</ele><time>2026-04-08T16:30:42.918Z</time></trkpt><trkpt lat="42.292475" lon="2.9404733"><ele>51.0</ele><time>2026-04-08T16:30:43.918Z</time></trkpt><trkpt lat="42.2927767" lon="2.9405067"><ele>51.0</ele><time>2026-04-08T16:30:44.918Z</time></trkpt><trkpt lat="42.293075" lon="2.9405467"><ele>51.0</ele><time>2026-04-08T16:30:45.917Z</time></trkpt><trkpt lat="42.29337" lon="2.9405933"><ele>50.0</ele><time>2026-04-08T16:30:46.918Z</time></trkpt><trkpt lat="42.2936633" lon="2.94065"><ele>49.0</ele><time>2026-04-08T16:30:47.917Z</time></trkpt><trkpt lat="42.2939617" lon="2.9407133"><ele>48.5</ele><time>2026-04-08T16:30:48.917Z</time></trkpt><trkpt lat="42.2942617" lon="2.9407867"><ele>48.0</ele><time>2026-04-08T16:30:49.919Z</time></trkpt><trkpt lat="42.2945567" lon="2.9408617"><ele>46.5</ele><time>2026-04-08T16:30:50.919Z</time></trkpt><trkpt lat="42.294845" lon="2.9409467"><ele>45.0</ele><time>2026-04-08T16:30:51.919Z</time></trkpt><trkpt lat="42.2951317" lon="2.9410333"><ele>45.0</ele><time>2026-04-08T16:30:52.919Z</time></trkpt><trkpt lat="42.2954167" lon="2.941125"><ele>45.0</ele><time>2026-04-08T16:30:53.919Z</time></trkpt><trkpt lat="42.2956983" lon="2.9412267"><ele>44.0</ele><time>2026-04-08T16:30:54.919Z</time></trkpt><trkpt lat="42.2959817" lon="2.941335"><ele>43.0</ele><time>2026-04-08T16:30:55.919Z</time></trkpt><trkpt lat="42.2962633" lon="2.9414517"><ele>43.5</ele><time>2026-04-08T16:30:56.918Z</time></trkpt><trkpt lat="42.2965433" lon="2.94158"><ele>44.0</ele><time>2026-04-08T16:30:57.918Z</time></trkpt><trkpt lat="42.296825" lon="2.9417133"><ele>42.5</ele><time>2026-04-08T16:30:58.918Z</time></trkpt><trkpt lat="42.297105" lon="2.9418583"><ele>41.0</ele><time>2026-04-08T16:30:59.919Z</time></trkpt><trkpt lat="42.2973883" lon="2.9420083"><ele>40.5</ele><time>2026-04-08T16:31:00.919Z</time></trkpt><trkpt lat="42.2976667" lon="2.942165"><ele>40.0</ele><time>2026-04-08T16:31:01.919Z</time></trkpt><trkpt lat="42.297945" lon="2.9423233"><ele>41.0</ele><time>2026-04-08T16:31:02.919Z</time></trkpt><trkpt lat="42.29822" lon="2.9424833"><ele>42.0</ele><time>2026-04-08T16:31:03.919Z</time></trkpt><trkpt lat="42.2984933" lon="2.9426417"><ele>42.5</ele><time>2026-04-08T16:31:04.919Z</time></trkpt><trkpt lat="42.2987733" lon="2.9428017"><ele>43.0</ele><time>2026-04-08T16:31:05.919Z</time></trkpt><trkpt lat="42.2990483" lon="2.9429583"><ele>43.0</ele><time>2026-04-08T16:31:06.919Z</time></trkpt><trkpt lat="42.2993267" lon="2.9431183"><ele>43.0</ele><time>2026-04-08T16:31:07.919Z</time></trkpt><trkpt lat="42.299605" lon="2.94328"><ele>42.0</ele><time>2026-04-08T16:31:08.918Z</time></trkpt><trkpt lat="42.299875" lon="2.9434383"><ele>41.0</ele><time>2026-04-08T16:31:09.918Z</time></trkpt><trkpt lat="42.3001483" lon="2.9436"><ele>41.0</ele><time>2026-04-08T16:31:10.919Z</time></trkpt><trkpt lat="42.3004233" lon="2.9437633"><ele>41.0</ele><time>2026-04-08T16:31:11.919Z</time></trkpt><trkpt lat="42.3006967" lon="2.9439267"><ele>39.5</ele><time>2026-04-08T16:31:12.919Z</time></trkpt><trkpt lat="42.3009683" lon="2.9440867"><ele>38.0</ele><time>2026-04-08T16:31:13.918Z</time></trkpt><trkpt lat="42.301245" lon="2.9442433"><ele>36.0</ele><time>2026-04-08T16:31:14.919Z</time></trkpt><trkpt lat="42.3015217" lon="2.944395"><ele>34.0</ele><time>2026-04-08T16:31:15.919Z</time></trkpt><trkpt lat="42.3018" lon="2.94454"><ele>34.0</ele><time>2026-04-08T16:31:16.919Z</time></trkpt><trkpt lat="42.3020833" lon="2.9446767"><ele>34.0</ele><time>2026-04-08T16:31:17.918Z</time></trkpt><trkpt lat="42.302365" lon="2.94481"><ele>34.0</ele><time>2026-04-08T16:31:18.919Z</time></trkpt><trkpt lat="42.30265" lon="2.9449367"><ele>34.0</ele><time>2026-04-08T16:31:19.919Z</time></trkpt><trkpt lat="42.3029333" lon="2.9450567"><ele>33.0</ele><time>2026-04-08T16:31:20.918Z</time></trkpt><trkpt lat="42.30322" lon="2.9451683"><ele>32.0</ele><time>2026-04-08T16:31:21.919Z</time></trkpt><trkpt lat="42.303505" lon="2.9452717"><ele>32.0</ele><time>2026-04-08T16:31:22.918Z</time></trkpt><trkpt lat="42.30379" lon="2.9453717"><ele>32.0</ele><time>2026-04-08T16:31:23.919Z</time></trkpt><trkpt lat="42.3040767" lon="2.9454683"><ele>32.5</ele><time>2026-04-08T16:31:24.919Z</time></trkpt><trkpt lat="42.3043683" lon="2.94556"><ele>33.0</ele><time>2026-04-08T16:31:25.919Z</time></trkpt><trkpt lat="42.304655" lon="2.94565"><ele>33.5</ele><time>2026-04-08T16:31:26.919Z</time></trkpt><trkpt lat="42.3049467" lon="2.9457367"><ele>34.0</ele><time>2026-04-08T16:31:27.918Z</time></trkpt><trkpt lat="42.3052417" lon="2.9458167"><ele>33.5</ele><time>2026-04-08T16:31:28.919Z</time></trkpt><trkpt lat="42.30554" lon="2.9458883"><ele>33.0</ele><time>2026-04-08T16:31:29.919Z</time></trkpt><trkpt lat="42.3058367" lon="2.9459483"><ele>34.0</ele><time>2026-04-08T16:31:30.919Z</time></trkpt><trkpt lat="42.30613" lon="2.946"><ele>35.0</ele><time>2026-04-08T16:31:31.919Z</time></trkpt><trkpt lat="42.3064267" lon="2.9460417"><ele>36.0</ele><time>2026-04-08T16:31:32.919Z</time></trkpt><trkpt lat="42.3067233" lon="2.9460783"><ele>37.0</ele><time>2026-04-08T16:31:33.919Z</time></trkpt><trkpt lat="42.3070183" lon="2.9461083"><ele>37.0</ele><time>2026-04-08T16:31:34.919Z</time></trkpt><trkpt lat="42.3073167" lon="2.946135"><ele>37.0</ele><time>2026-04-08T16:31:35.919Z</time></trkpt><trkpt lat="42.3076217" lon="2.9461633"><ele>37.0</ele><time>2026-04-08T16:31:36.919Z</time></trkpt><trkpt lat="42.307925" lon="2.9461733"><ele>37.0</ele><time>2026-04-08T16:31:37.919Z</time></trkpt><trkpt lat="42.30823" lon="2.9461767"><ele>37.0</ele><time>2026-04-08T16:31:38.919Z</time></trkpt><trkpt lat="42.3085333" lon="2.9461783"><ele>37.0</ele><time>2026-04-08T16:31:39.919Z</time></trkpt><trkpt lat="42.308835" lon="2.9461683"><ele>37.0</ele><time>2026-04-08T16:31:40.919Z</time></trkpt><trkpt lat="42.3091383" lon="2.94615"><ele>37.0</ele><time>2026-04-08T16:31:41.918Z</time></trkpt><trkpt lat="42.3094417" lon="2.9461167"><ele>37.0</ele><time>2026-04-08T16:31:42.919Z</time></trkpt><trkpt lat="42.3097467" lon="2.9460783"><ele>37.0</ele><time>2026-04-08T16:31:43.919Z</time></trkpt><trkpt lat="42.310045" lon="2.9460383"><ele>37.0</ele><time>2026-04-08T16:31:44.919Z</time></trkpt><trkpt lat="42.3103433" lon="2.945995"><ele>37.0</ele><time>2026-04-08T16:31:45.919Z</time></trkpt><trkpt lat="42.3106433" lon="2.9459467"><ele>37.0</ele><time>2026-04-08T16:31:46.919Z</time></trkpt><trkpt lat="42.3109417" lon="2.9458917"><ele>37.0</ele><time>2026-04-08T16:31:47.919Z</time></trkpt><trkpt lat="42.311235" lon="2.9458317"><ele>37.5</ele><time>2026-04-08T16:31:48.919Z</time></trkpt><trkpt lat="42.3115283" lon="2.9457683"><ele>38.0</ele><time>2026-04-08T16:31:49.919Z</time></trkpt><trkpt lat="42.311825" lon="2.9457017"><ele>38.0</ele><time>2026-04-08T16:31:50.919Z</time></trkpt><trkpt lat="42.3121217" lon="2.9456317"><ele>38.0</ele><time>2026-04-08T16:31:51.918Z</time></trkpt><trkpt lat="42.3124167" lon="2.9455567"><ele>37.0</ele><time>2026-04-08T16:31:52.919Z</time></trkpt><trkpt lat="42.3127117" lon="2.9454783"><ele>36.0</ele><time>2026-04-08T16:31:53.919Z</time></trkpt><trkpt lat="42.3130017" lon="2.94539"><ele>36.5</ele><time>2026-04-08T16:31:54.919Z</time></trkpt><trkpt lat="42.3132933" lon="2.9452917"><ele>37.0</ele><time>2026-04-08T16:31:55.919Z</time></trkpt><trkpt lat="42.3135817" lon="2.945195"><ele>37.0</ele><time>2026-04-08T16:31:56.919Z</time></trkpt><trkpt lat="42.3138717" lon="2.94509"><ele>37.0</ele><time>2026-04-08T16:31:57.918Z</time></trkpt><trkpt lat="42.3141617" lon="2.9449767"><ele>37.5</ele><time>2026-04-08T16:31:58.918Z</time></trkpt><trkpt lat="42.3144483" lon="2.9448617"><ele>38.0</ele><time>2026-04-08T16:31:59.918Z</time></trkpt><trkpt lat="42.3147333" lon="2.9447417"><ele>39.5</ele><time>2026-04-08T16:32:00.918Z</time></trkpt><trkpt lat="42.3150183" lon="2.94462"><ele>41.0</ele><time>2026-04-08T16:32:01.918Z</time></trkpt><trkpt lat="42.3153067" lon="2.9444967"><ele>40.0</ele><time>2026-04-08T16:32:02.919Z</time></trkpt><trkpt lat="42.315595" lon="2.9443767"><ele>39.0</ele><time>2026-04-08T16:32:03.919Z</time></trkpt><trkpt lat="42.3158817" lon="2.9442533"><ele>40.0</ele><time>2026-04-08T16:32:04.919Z</time></trkpt><trkpt lat="42.3161667" lon="2.94413"><ele>41.0</ele><time>2026-04-08T16:32:05.919Z</time></trkpt><trkpt lat="42.31645" lon="2.944"><ele>41.0</ele><time>2026-04-08T16:32:06.919Z</time></trkpt><trkpt lat="42.3167333" lon="2.9438683"><ele>41.0</ele><time>2026-04-08T16:32:07.918Z</time></trkpt><trkpt lat="42.317015" lon="2.9437333"><ele>40.0</ele><time>2026-04-08T16:32:08.919Z</time></trkpt><trkpt lat="42.3172983" lon="2.9435967"><ele>39.0</ele><time>2026-04-08T16:32:09.919Z</time></trkpt><trkpt lat="42.3175817" lon="2.9434583"><ele>39.5</ele><time>2026-04-08T16:32:10.919Z</time></trkpt><trkpt lat="42.3178617" lon="2.9433167"><ele>40.0</ele><time>2026-04-08T16:32:11.918Z</time></trkpt><trkpt lat="42.3181417" lon="2.94317"><ele>40.0</ele><time>2026-04-08T16:32:12.919Z</time></trkpt><trkpt lat="42.3184217" lon="2.9430183"><ele>40.0</ele><time>2026-04-08T16:32:13.919Z</time></trkpt><trkpt lat="42.3186983" lon="2.942865"><ele>40.0</ele><time>2026-04-08T16:32:14.919Z</time></trkpt><trkpt lat="42.3189767" lon="2.942705"><ele>40.0</ele><time>2026-04-08T16:32:15.918Z</time></trkpt><trkpt lat="42.3192533" lon="2.9425467"><ele>40.5</ele><time>2026-04-08T16:32:16.919Z</time></trkpt><trkpt lat="42.3195267" lon="2.942385"><ele>41.0</ele><time>2026-04-08T16:32:17.918Z</time></trkpt><trkpt lat="42.3197983" lon="2.9422217"><ele>41.0</ele><time>2026-04-08T16:32:18.919Z</time></trkpt><trkpt lat="42.3200683" lon="2.94206"><ele>41.0</ele><time>2026-04-08T16:32:19.919Z</time></trkpt><trkpt lat="42.32034" lon="2.941895"><ele>40.0</ele><time>2026-04-08T16:32:20.918Z</time></trkpt><trkpt lat="42.3206167" lon="2.941725"><ele>39.0</ele><time>2026-04-08T16:32:21.919Z</time></trkpt><trkpt lat="42.3208883" lon="2.94155"><ele>40.0</ele><time>2026-04-08T16:32:22.919Z</time></trkpt><trkpt lat="42.3211583" lon="2.941375"><ele>41.0</ele><time>2026-04-08T16:32:23.919Z</time></trkpt><trkpt lat="42.3214283" lon="2.9411983"><ele>41.0</ele><time>2026-04-08T16:32:24.918Z</time></trkpt><trkpt lat="42.3217" lon="2.9410183"><ele>41.0</ele><time>2026-04-08T16:32:25.919Z</time></trkpt><trkpt lat="42.3219683" lon="2.9408317"><ele>41.5</ele><time>2026-04-08T16:32:26.919Z</time></trkpt><trkpt lat="42.3222367" lon="2.9406417"><ele>42.0</ele><time>2026-04-08T16:32:27.919Z</time></trkpt><trkpt lat="42.322505" lon="2.9404517"><ele>42.0</ele><time>2026-04-08T16:32:28.919Z</time></trkpt><trkpt lat="42.3227717" lon="2.9402567"><ele>42.0</ele><time>2026-04-08T16:32:29.918Z</time></trkpt><trkpt lat="42.3230417" lon="2.9400617"><ele>41.5</ele><time>2026-04-08T16:32:30.919Z</time></trkpt><trkpt lat="42.3233033" lon="2.9398667"><ele>41.0</ele><time>2026-04-08T16:32:31.919Z</time></trkpt><trkpt lat="42.3235667" lon="2.93967"><ele>41.0</ele><time>2026-04-08T16:32:32.919Z</time></trkpt><trkpt lat="42.3238267" lon="2.9394717"><ele>41.0</ele><time>2026-04-08T16:32:33.919Z</time></trkpt><trkpt lat="42.3240883" lon="2.93927"><ele>40.5</ele><time>2026-04-08T16:32:34.918Z</time></trkpt><trkpt lat="42.3243467" lon="2.9390617"><ele>40.0</ele><time>2026-04-08T16:32:35.918Z</time></trkpt><trkpt lat="42.324605" lon="2.93885"><ele>40.0</ele><time>2026-04-08T16:32:36.919Z</time></trkpt><trkpt lat="42.3248633" lon="2.938635"><ele>40.0</ele><time>2026-04-08T16:32:37.919Z</time></trkpt><trkpt lat="42.325115" lon="2.9384183"><ele>39.5</ele><time>2026-04-08T16:32:38.919Z</time></trkpt><trkpt lat="42.3253667" lon="2.9381983"><ele>39.0</ele><time>2026-04-08T16:32:39.918Z</time></trkpt><trkpt lat="42.32562" lon="2.9379783"><ele>39.0</ele><time>2026-04-08T16:32:40.919Z</time></trkpt><trkpt lat="42.3258683" lon="2.937755"><ele>39.0</ele><time>2026-04-08T16:32:41.918Z</time></trkpt><trkpt lat="42.3261183" lon="2.9375333"><ele>39.5</ele><time>2026-04-08T16:32:42.919Z</time></trkpt><trkpt lat="42.3263667" lon="2.9373083"><ele>40.0</ele><time>2026-04-08T16:32:43.919Z</time></trkpt><trkpt lat="42.3266117" lon="2.9370833"><ele>40.0</ele><time>2026-04-08T16:32:44.919Z</time></trkpt><trkpt lat="42.3268617" lon="2.936865"><ele>40.0</ele><time>2026-04-08T16:32:45.919Z</time></trkpt><trkpt lat="42.3271067" lon="2.93664"><ele>40.0</ele><time>2026-04-08T16:32:46.919Z</time></trkpt><trkpt lat="42.3273517" lon="2.9364183"><ele>40.0</ele><time>2026-04-08T16:32:47.919Z</time></trkpt><trkpt lat="42.3275967" lon="2.9361967"><ele>40.0</ele><time>2026-04-08T16:32:48.918Z</time></trkpt><trkpt lat="42.3278483" lon="2.93597"><ele>40.0</ele><time>2026-04-08T16:32:49.918Z</time></trkpt><trkpt lat="42.3280983" lon="2.9357383"><ele>40.5</ele><time>2026-04-08T16:32:50.919Z</time></trkpt><trkpt lat="42.3283417" lon="2.9355017"><ele>41.0</ele><time>2026-04-08T16:32:51.919Z</time></trkpt><trkpt lat="42.328585" lon="2.93526"><ele>41.0</ele><time>2026-04-08T16:32:52.919Z</time></trkpt><trkpt lat="42.3288267" lon="2.9350117"><ele>41.0</ele><time>2026-04-08T16:32:53.919Z</time></trkpt><trkpt lat="42.3290667" lon="2.9347667"><ele>40.5</ele><time>2026-04-08T16:32:54.919Z</time></trkpt><trkpt lat="42.329305" lon="2.9345183"><ele>40.0</ele><time>2026-04-08T16:32:55.919Z</time></trkpt><trkpt lat="42.32954" lon="2.93427"><ele>41.0</ele><time>2026-04-08T16:32:56.919Z</time></trkpt><trkpt lat="42.3297783" lon="2.9340167"><ele>42.0</ele><time>2026-04-08T16:32:57.918Z</time></trkpt><trkpt lat="42.3300133" lon="2.9337633"><ele>42.0</ele><time>2026-04-08T16:32:58.919Z</time></trkpt><trkpt lat="42.33025" lon="2.9335033"><ele>42.0</ele><time>2026-04-08T16:32:59.919Z</time></trkpt><trkpt lat="42.3304817" lon="2.9332467"><ele>42.0</ele><time>2026-04-08T16:33:00.919Z</time></trkpt><trkpt lat="42.33071" lon="2.9329883"><ele>42.0</ele><time>2026-04-08T16:33:01.919Z</time></trkpt><trkpt lat="42.3309367" lon="2.93273"><ele>42.0</ele><time>2026-04-08T16:33:02.919Z</time></trkpt><trkpt lat="42.3311617" lon="2.9324683"><ele>42.0</ele><time>2026-04-08T16:33:03.919Z</time></trkpt><trkpt lat="42.3313867" lon="2.9322067"><ele>42.0</ele><time>2026-04-08T16:33:04.919Z</time></trkpt><trkpt lat="42.3316083" lon="2.93194"><ele>42.0</ele><time>2026-04-08T16:33:05.919Z</time></trkpt><trkpt lat="42.3318317" lon="2.9316683"><ele>42.0</ele><time>2026-04-08T16:33:06.919Z</time></trkpt><trkpt lat="42.3320533" lon="2.9313917"><ele>42.0</ele><time>2026-04-08T16:33:07.919Z</time></trkpt><trkpt lat="42.332275" lon="2.9311183"><ele>43.0</ele><time>2026-04-08T16:33:08.918Z</time></trkpt><trkpt lat="42.3324933" lon="2.9308433"><ele>44.0</ele><time>2026-04-08T16:33:09.919Z</time></trkpt><trkpt lat="42.3327117" lon="2.9305617"><ele>44.0</ele><time>2026-04-08T16:33:10.919Z</time></trkpt><trkpt lat="42.3329283" lon="2.930275"><ele>44.0</ele><time>2026-04-08T16:33:11.919Z</time></trkpt><trkpt lat="42.33314" lon="2.92999"><ele>44.0</ele><time>2026-04-08T16:33:12.919Z</time></trkpt><trkpt lat="42.333345" lon="2.9297"><ele>44.0</ele><time>2026-04-08T16:33:13.919Z</time></trkpt><trkpt lat="42.3335533" lon="2.9294033"><ele>44.0</ele><time>2026-04-08T16:33:14.919Z</time></trkpt><trkpt lat="42.3337617" lon="2.929115"><ele>44.0</ele><time>2026-04-08T16:33:15.919Z</time></trkpt><trkpt lat="42.3339733" lon="2.92883"><ele>44.0</ele><time>2026-04-08T16:33:16.918Z</time></trkpt><trkpt lat="42.3341833" lon="2.9285383"><ele>44.0</ele><time>2026-04-08T16:33:17.918Z</time></trkpt><trkpt lat="42.3343917" lon="2.9282517"><ele>43.5</ele><time>2026-04-08T16:33:18.919Z</time></trkpt><trkpt lat="42.334605" lon="2.9279633"><ele>43.0</ele><time>2026-04-08T16:33:19.919Z</time></trkpt><trkpt lat="42.3348167" lon="2.927675"><ele>43.5</ele><time>2026-04-08T16:33:20.918Z</time></trkpt><trkpt lat="42.3350283" lon="2.9273817"><ele>44.0</ele><time>2026-04-08T16:33:21.919Z</time></trkpt><trkpt lat="42.33524" lon="2.9270883"><ele>44.0</ele><time>2026-04-08T16:33:22.919Z</time></trkpt><trkpt lat="42.3354483" lon="2.926795"><ele>44.0</ele><time>2026-04-08T16:33:23.919Z</time></trkpt><trkpt lat="42.3356617" lon="2.926505"><ele>44.0</ele><time>2026-04-08T16:33:24.919Z</time></trkpt><trkpt lat="42.3358733" lon="2.9262183"><ele>44.0</ele><time>2026-04-08T16:33:25.918Z</time></trkpt><trkpt lat="42.3360817" lon="2.92593"><ele>44.5</ele><time>2026-04-08T16:33:26.918Z</time></trkpt><trkpt lat="42.3362933" lon="2.92564"><ele>45.0</ele><time>2026-04-08T16:33:27.918Z</time></trkpt><trkpt lat="42.336505" lon="2.9253533"><ele>45.5</ele><time>2026-04-08T16:33:28.918Z</time></trkpt><trkpt lat="42.3367167" lon="2.92507"><ele>46.0</ele><time>2026-04-08T16:33:29.918Z</time></trkpt><trkpt lat="42.3369283" lon="2.92479"><ele>46.0</ele><time>2026-04-08T16:33:30.918Z</time></trkpt><trkpt lat="42.3371483" lon="2.9245133"><ele>46.0</ele><time>2026-04-08T16:33:31.918Z</time></trkpt><trkpt lat="42.33737" lon="2.9242433"><ele>45.5</ele><time>2026-04-08T16:33:32.918Z</time></trkpt><trkpt lat="42.3375983" lon="2.9239783"><ele>45.0</ele><time>2026-04-08T16:33:33.917Z</time></trkpt><trkpt lat="42.3378267" lon="2.9237183"><ele>45.5</ele><time>2026-04-08T16:33:34.918Z</time></trkpt><trkpt lat="42.3380583" lon="2.9234617"><ele>46.0</ele><time>2026-04-08T16:33:35.918Z</time></trkpt><trkpt lat="42.3382917" lon="2.923205"><ele>46.0</ele><time>2026-04-08T16:33:36.918Z</time></trkpt><trkpt lat="42.338525" lon="2.92295"><ele>46.0</ele><time>2026-04-08T16:33:37.918Z</time></trkpt><trkpt lat="42.3387683" lon="2.9227"><ele>47.0</ele><time>2026-04-08T16:33:38.917Z</time></trkpt><trkpt lat="42.339005" lon="2.9224483"><ele>48.0</ele><time>2026-04-08T16:33:39.918Z</time></trkpt><trkpt lat="42.3392467" lon="2.9222017"><ele>48.0</ele><time>2026-04-08T16:33:40.918Z</time></trkpt><trkpt lat="42.3394867" lon="2.9219617"><ele>48.0</ele><time>2026-04-08T16:33:41.918Z</time></trkpt><trkpt lat="42.33973" lon="2.921725"><ele>47.5</ele><time>2026-04-08T16:33:42.917Z</time></trkpt><trkpt lat="42.339975" lon="2.9214933"><ele>47.0</ele><time>2026-04-08T16:33:43.917Z</time></trkpt><trkpt lat="42.3402233" lon="2.9212583"><ele>47.0</ele><time>2026-04-08T16:33:44.918Z</time></trkpt><trkpt lat="42.3404717" lon="2.9210267"><ele>47.0</ele><time>2026-04-08T16:33:45.918Z</time></trkpt><trkpt lat="42.34072" lon="2.9207983"><ele>47.5</ele><time>2026-04-08T16:33:46.917Z</time></trkpt><trkpt lat="42.340975" lon="2.9205733"><ele>48.0</ele><time>2026-04-08T16:33:47.917Z</time></trkpt><trkpt lat="42.3412283" lon="2.92035"><ele>48.5</ele><time>2026-04-08T16:33:48.917Z</time></trkpt><trkpt lat="42.3414867" lon="2.9201383"><ele>49.0</ele><time>2026-04-08T16:33:49.918Z</time></trkpt><trkpt lat="42.341745" lon="2.919925"><ele>49.0</ele><time>2026-04-08T16:33:50.917Z</time></trkpt><trkpt lat="42.342" lon="2.919715"><ele>49.0</ele><time>2026-04-08T16:33:51.918Z</time></trkpt><trkpt lat="42.342255" lon="2.9195033"><ele>49.0</ele><time>2026-04-08T16:33:52.917Z</time></trkpt><trkpt lat="42.34251" lon="2.919295"><ele>49.0</ele><time>2026-04-08T16:33:53.917Z</time></trkpt><trkpt lat="42.3427683" lon="2.919085"><ele>49.0</ele><time>2026-04-08T16:33:54.918Z</time></trkpt><trkpt lat="42.34302" lon="2.918875"><ele>49.0</ele><time>2026-04-08T16:33:55.918Z</time></trkpt><trkpt lat="42.343275" lon="2.9186683"><ele>50.0</ele><time>2026-04-08T16:33:56.917Z</time></trkpt><trkpt lat="42.34353" lon="2.9184583"><ele>51.0</ele><time>2026-04-08T16:33:57.917Z</time></trkpt><trkpt lat="42.343785" lon="2.9182517"><ele>56.5</ele><time>2026-04-08T16:33:58.917Z</time></trkpt><trkpt lat="42.3440383" lon="2.9180383"><ele>62.0</ele><time>2026-04-08T16:33:59.918Z</time></trkpt><trkpt lat="42.34429" lon="2.9178183"><ele>62.0</ele><time>2026-04-08T16:34:00.918Z</time></trkpt><trkpt lat="42.3445467" lon="2.9175967"><ele>62.0</ele><time>2026-04-08T16:34:01.918Z</time></trkpt><trkpt lat="42.3448" lon="2.917375"><ele>61.5</ele><time>2026-04-08T16:34:02.918Z</time></trkpt><trkpt lat="42.34505" lon="2.9171483"><ele>61.0</ele><time>2026-04-08T16:34:03.918Z</time></trkpt><trkpt lat="42.3453" lon="2.9169183"><ele>60.0</ele><time>2026-04-08T16:34:04.918Z</time></trkpt><trkpt lat="42.345545" lon="2.9166833"><ele>59.0</ele><time>2026-04-08T16:34:05.918Z</time></trkpt><trkpt lat="42.3457883" lon="2.9164467"><ele>59.0</ele><time>2026-04-08T16:34:06.918Z</time></trkpt><trkpt lat="42.34603" lon="2.91621"><ele>59.0</ele><time>2026-04-08T16:34:07.917Z</time></trkpt><trkpt lat="42.3462733" lon="2.9159733"><ele>58.0</ele><time>2026-04-08T16:34:08.917Z</time></trkpt><trkpt lat="42.3465133" lon="2.915735"><ele>57.0</ele><time>2026-04-08T16:34:09.918Z</time></trkpt><trkpt lat="42.3467533" lon="2.915495"><ele>57.0</ele><time>2026-04-08T16:34:10.918Z</time></trkpt><trkpt lat="42.346985" lon="2.9152467"><ele>57.0</ele><time>2026-04-08T16:34:11.917Z</time></trkpt><trkpt lat="42.3472117" lon="2.91499"><ele>60.0</ele><time>2026-04-08T16:34:12.917Z</time></trkpt><trkpt lat="42.347435" lon="2.914725"><ele>63.0</ele><time>2026-04-08T16:34:13.918Z</time></trkpt><trkpt lat="42.347655" lon="2.9144567"><ele>58.0</ele><time>2026-04-08T16:34:14.917Z</time></trkpt><trkpt lat="42.3478717" lon="2.9141867"><ele>53.0</ele><time>2026-04-08T16:34:15.918Z</time></trkpt><trkpt lat="42.3480867" lon="2.9139167"><ele>53.0</ele><time>2026-04-08T16:34:16.918Z</time></trkpt><trkpt lat="42.348305" lon="2.91364"><ele>53.0</ele><time>2026-04-08T16:34:17.918Z</time></trkpt><trkpt lat="42.34853" lon="2.9133533"><ele>53.0</ele><time>2026-04-08T16:34:18.918Z</time></trkpt><trkpt lat="42.3487433" lon="2.9130667"><ele>53.0</ele><time>2026-04-08T16:34:19.918Z</time></trkpt><trkpt lat="42.3489567" lon="2.912775"><ele>52.0</ele><time>2026-04-08T16:34:20.918Z</time></trkpt><trkpt lat="42.3491633" lon="2.9124783"><ele>51.0</ele><time>2026-04-08T16:34:21.917Z</time></trkpt><trkpt lat="42.3493667" lon="2.9121817"><ele>51.0</ele><time>2026-04-08T16:34:22.917Z</time></trkpt><trkpt lat="42.3495683" lon="2.91188"><ele>51.0</ele><time>2026-04-08T16:34:23.918Z</time></trkpt><trkpt lat="42.3497683" lon="2.9115717"><ele>51.5</ele><time>2026-04-08T16:34:24.918Z</time></trkpt><trkpt lat="42.34996" lon="2.91127"><ele>52.0</ele><time>2026-04-08T16:34:25.918Z</time></trkpt><trkpt lat="42.3501517" lon="2.9109567"><ele>51.0</ele><time>2026-04-08T16:34:26.918Z</time></trkpt><trkpt lat="42.35034" lon="2.9106433"><ele>50.0</ele><time>2026-04-08T16:34:27.918Z</time></trkpt><trkpt lat="42.3505283" lon="2.9103267"><ele>52.5</ele><time>2026-04-08T16:34:28.918Z</time></trkpt><trkpt lat="42.3507117" lon="2.9100133"><ele>55.0</ele><time>2026-04-08T16:34:29.918Z</time></trkpt><trkpt lat="42.3508933" lon="2.9097033"><ele>55.0</ele><time>2026-04-08T16:34:30.918Z</time></trkpt><trkpt lat="42.3510733" lon="2.909385"><ele>55.0</ele><time>2026-04-08T16:34:31.917Z</time></trkpt><trkpt lat="42.351255" lon="2.9090683"><ele>55.5</ele><time>2026-04-08T16:34:32.918Z</time></trkpt><trkpt lat="42.351435" lon="2.9087467"><ele>56.0</ele><time>2026-04-08T16:34:33.917Z</time></trkpt><trkpt lat="42.3516133" lon="2.9084267"><ele>56.0</ele><time>2026-04-08T16:34:34.918Z</time></trkpt><trkpt lat="42.3517933" lon="2.9081117"><ele>56.0</ele><time>2026-04-08T16:34:35.918Z</time></trkpt><trkpt lat="42.3519767" lon="2.9078017"><ele>55.5</ele><time>2026-04-08T16:34:36.918Z</time></trkpt><trkpt lat="42.35216" lon="2.9074867"><ele>55.0</ele><time>2026-04-08T16:34:37.918Z</time></trkpt><trkpt lat="42.3523483" lon="2.90717"><ele>56.0</ele><time>2026-04-08T16:34:38.918Z</time></trkpt><trkpt lat="42.3525383" lon="2.9068617"><ele>57.0</ele><time>2026-04-08T16:34:39.918Z</time></trkpt><trkpt lat="42.352735" lon="2.9065583"><ele>57.0</ele><time>2026-04-08T16:34:40.917Z</time></trkpt><trkpt lat="42.3529383" lon="2.906255"><ele>57.0</ele><time>2026-04-08T16:34:41.917Z</time></trkpt><trkpt lat="42.3531517" lon="2.9059617"><ele>58.0</ele><time>2026-04-08T16:34:42.918Z</time></trkpt><trkpt lat="42.3533683" lon="2.9056783"><ele>59.0</ele><time>2026-04-08T16:34:43.918Z</time></trkpt><trkpt lat="42.35359" lon="2.9054017"><ele>59.0</ele><time>2026-04-08T16:34:44.918Z</time></trkpt><trkpt lat="42.353815" lon="2.90513"><ele>59.0</ele><time>2026-04-08T16:34:45.918Z</time></trkpt><trkpt lat="42.3540467" lon="2.9048667"><ele>59.5</ele><time>2026-04-08T16:34:46.918Z</time></trkpt><trkpt lat="42.3542833" lon="2.9046183"><ele>60.0</ele><time>2026-04-08T16:34:47.917Z</time></trkpt><trkpt lat="42.354525" lon="2.9043783"><ele>60.5</ele><time>2026-04-08T16:34:48.917Z</time></trkpt><trkpt lat="42.3547717" lon="2.9041417"><ele>61.0</ele><time>2026-04-08T16:34:49.918Z</time></trkpt><trkpt lat="42.355025" lon="2.9039133"><ele>61.0</ele><time>2026-04-08T16:34:50.918Z</time></trkpt><trkpt lat="42.3552833" lon="2.9036967"><ele>61.0</ele><time>2026-04-08T16:34:51.918Z</time></trkpt><trkpt lat="42.3555467" lon="2.9034917"><ele>60.5</ele><time>2026-04-08T16:34:52.918Z</time></trkpt><trkpt lat="42.3558117" lon="2.903295"><ele>60.0</ele><time>2026-04-08T16:34:53.917Z</time></trkpt><trkpt lat="42.3560733" lon="2.903105"><ele>60.0</ele><time>2026-04-08T16:34:54.918Z</time></trkpt><trkpt lat="42.3563417" lon="2.9029183"><ele>60.0</ele><time>2026-04-08T16:34:55.918Z</time></trkpt><trkpt lat="42.3566133" lon="2.9027383"><ele>60.0</ele><time>2026-04-08T16:34:56.917Z</time></trkpt><trkpt lat="42.3568833" lon="2.9025583"><ele>60.0</ele><time>2026-04-08T16:34:57.918Z</time></trkpt><trkpt lat="42.3571517" lon="2.9023817"><ele>61.0</ele><time>2026-04-08T16:34:58.917Z</time></trkpt><trkpt lat="42.35742" lon="2.9022033"><ele>62.0</ele><time>2026-04-08T16:34:59.917Z</time></trkpt><trkpt lat="42.35769" lon="2.9020217"><ele>62.0</ele><time>2026-04-08T16:35:00.918Z</time></trkpt><trkpt lat="42.3579583" lon="2.9018383"><ele>62.0</ele><time>2026-04-08T16:35:01.918Z</time></trkpt><trkpt lat="42.3582183" lon="2.9016433"><ele>62.0</ele><time>2026-04-08T16:35:02.918Z</time></trkpt><trkpt lat="42.3584767" lon="2.901445"><ele>62.0</ele><time>2026-04-08T16:35:03.918Z</time></trkpt><trkpt lat="42.3587367" lon="2.9012417"><ele>61.0</ele><time>2026-04-08T16:35:04.917Z</time></trkpt><trkpt lat="42.358995" lon="2.9010317"><ele>60.0</ele><time>2026-04-08T16:35:05.917Z</time></trkpt><trkpt lat="42.3592483" lon="2.9008067"><ele>60.0</ele><time>2026-04-08T16:35:06.918Z</time></trkpt><trkpt lat="42.3595" lon="2.9005733"><ele>60.0</ele><time>2026-04-08T16:35:07.918Z</time></trkpt><trkpt lat="42.3597417" lon="2.9003317"><ele>60.5</ele><time>2026-04-08T16:35:08.918Z</time></trkpt><trkpt lat="42.359975" lon="2.90009"><ele>61.0</ele><time>2026-04-08T16:35:09.918Z</time></trkpt><trkpt lat="42.3602067" lon="2.8998383"><ele>61.0</ele><time>2026-04-08T16:35:10.917Z</time></trkpt><trkpt lat="42.3604333" lon="2.8995767"><ele>61.0</ele><time>2026-04-08T16:35:11.918Z</time></trkpt><trkpt lat="42.36066" lon="2.89931"><ele>62.0</ele><time>2026-04-08T16:35:12.918Z</time></trkpt><trkpt lat="42.3608783" lon="2.8990383"><ele>63.0</ele><time>2026-04-08T16:35:13.918Z</time></trkpt><trkpt lat="42.3610917" lon="2.8987667"><ele>63.0</ele><time>2026-04-08T16:35:14.918Z</time></trkpt><trkpt lat="42.3613083" lon="2.89848"><ele>63.0</ele><time>2026-04-08T16:35:15.918Z</time></trkpt><trkpt lat="42.3615133" lon="2.898185"><ele>64.0</ele><time>2026-04-08T16:35:16.917Z</time></trkpt><trkpt lat="42.3617133" lon="2.8978817"><ele>65.0</ele><time>2026-04-08T16:35:17.917Z</time></trkpt><trkpt lat="42.3619017" lon="2.89757"><ele>64.0</ele><time>2026-04-08T16:35:18.918Z</time></trkpt><trkpt lat="42.3620833" lon="2.8972533"><ele>63.0</ele><time>2026-04-08T16:35:19.918Z</time></trkpt><trkpt lat="42.3622633" lon="2.896935"><ele>65.0</ele><time>2026-04-08T16:35:20.918Z</time></trkpt><trkpt lat="42.3624433" lon="2.8966167"><ele>67.0</ele><time>2026-04-08T16:35:21.918Z</time></trkpt><trkpt lat="42.3626233" lon="2.8963"><ele>67.0</ele><time>2026-04-08T16:35:22.918Z</time></trkpt><trkpt lat="42.362805" lon="2.89598"><ele>67.0</ele><time>2026-04-08T16:35:23.918Z</time></trkpt><trkpt lat="42.3629917" lon="2.8956617"><ele>68.0</ele><time>2026-04-08T16:35:24.918Z</time></trkpt><trkpt lat="42.36318" lon="2.8953517"><ele>69.0</ele><time>2026-04-08T16:35:25.917Z</time></trkpt><trkpt lat="42.3633717" lon="2.895045"><ele>69.0</ele><time>2026-04-08T16:35:26.918Z</time></trkpt><trkpt lat="42.3635683" lon="2.8947317"><ele>69.0</ele><time>2026-04-08T16:35:27.917Z</time></trkpt><trkpt lat="42.3637767" lon="2.89443"><ele>71.0</ele><time>2026-04-08T16:35:28.918Z</time></trkpt><trkpt lat="42.36399" lon="2.8941333"><ele>73.0</ele><time>2026-04-08T16:35:29.918Z</time></trkpt><trkpt lat="42.364205" lon="2.8938517"><ele>73.0</ele><time>2026-04-08T16:35:30.918Z</time></trkpt><trkpt lat="42.3644183" lon="2.89358"><ele>73.0</ele><time>2026-04-08T16:35:31.918Z</time></trkpt><trkpt lat="42.3646467" lon="2.8933217"><ele>73.5</ele><time>2026-04-08T16:35:32.918Z</time></trkpt><trkpt lat="42.3648817" lon="2.8930617"><ele>74.0</ele><time>2026-04-08T16:35:33.918Z</time></trkpt><trkpt lat="42.3651217" lon="2.8928183"><ele>74.5</ele><time>2026-04-08T16:35:34.918Z</time></trkpt><trkpt lat="42.3653617" lon="2.8925783"><ele>75.0</ele><time>2026-04-08T16:35:35.917Z</time></trkpt><trkpt lat="42.3656067" lon="2.89235"><ele>75.0</ele><time>2026-04-08T16:35:36.918Z</time></trkpt><trkpt lat="42.3658567" lon="2.8921383"><ele>75.0</ele><time>2026-04-08T16:35:37.917Z</time></trkpt><trkpt lat="42.3661133" lon="2.8919333"><ele>76.0</ele><time>2026-04-08T16:35:38.918Z</time></trkpt><trkpt lat="42.3663783" lon="2.89174"><ele>77.0</ele><time>2026-04-08T16:35:39.918Z</time></trkpt><trkpt lat="42.366645" lon="2.891555"><ele>77.0</ele><time>2026-04-08T16:35:40.918Z</time></trkpt><trkpt lat="42.3669133" lon="2.8913833"><ele>77.0</ele><time>2026-04-08T16:35:41.917Z</time></trkpt><trkpt lat="42.3671867" lon="2.89123"><ele>78.0</ele><time>2026-04-08T16:35:42.917Z</time></trkpt><trkpt lat="42.3674633" lon="2.8910883"><ele>79.0</ele><time>2026-04-08T16:35:43.918Z</time></trkpt><trkpt lat="42.3677517" lon="2.8909567"><ele>80.5</ele><time>2026-04-08T16:35:44.918Z</time></trkpt><trkpt lat="42.36804" lon="2.8908333"><ele>82.0</ele><time>2026-04-08T16:35:45.917Z</time></trkpt><trkpt lat="42.3683283" lon="2.8907233"><ele>82.0</ele><time>2026-04-08T16:35:46.917Z</time></trkpt><trkpt lat="42.368615" lon="2.8906267"><ele>82.0</ele><time>2026-04-08T16:35:47.918Z</time></trkpt><trkpt lat="42.368905" lon="2.8905417"><ele>82.5</ele><time>2026-04-08T16:35:48.918Z</time></trkpt><trkpt lat="42.3692" lon="2.89047"><ele>83.0</ele><time>2026-04-08T16:35:49.917Z</time></trkpt><trkpt lat="42.3695017" lon="2.8904033"><ele>87.0</ele><time>2026-04-08T16:35:50.918Z</time></trkpt><trkpt lat="42.3697983" lon="2.8903367"><ele>91.0</ele><time>2026-04-08T16:35:51.918Z</time></trkpt><trkpt lat="42.370095" lon="2.8902683"><ele>91.0</ele><time>2026-04-08T16:35:52.918Z</time></trkpt><trkpt lat="42.3703933" lon="2.8901967"><ele>91.0</ele><time>2026-04-08T16:35:53.918Z</time></trkpt><trkpt lat="42.3706883" lon="2.890115"><ele>90.0</ele><time>2026-04-08T16:35:54.918Z</time></trkpt><trkpt lat="42.37098" lon="2.8900217"><ele>89.0</ele><time>2026-04-08T16:35:55.918Z</time></trkpt><trkpt lat="42.3712717" lon="2.8899217"><ele>90.0</ele><time>2026-04-08T16:35:56.918Z</time></trkpt><trkpt lat="42.3715617" lon="2.8898117"><ele>91.0</ele><time>2026-04-08T16:35:57.918Z</time></trkpt><trkpt lat="42.3718517" lon="2.8897"><ele>91.0</ele><time>2026-04-08T16:35:58.918Z</time></trkpt><trkpt lat="42.37214" lon="2.88957"><ele>91.0</ele><time>2026-04-08T16:35:59.918Z</time></trkpt><trkpt lat="42.3724233" lon="2.889425"><ele>91.5</ele><time>2026-04-08T16:36:00.918Z</time></trkpt><trkpt lat="42.3727017" lon="2.8892633"><ele>92.0</ele><time>2026-04-08T16:36:01.918Z</time></trkpt><trkpt lat="42.372975" lon="2.8890917"><ele>93.0</ele><time>2026-04-08T16:36:02.918Z</time></trkpt><trkpt lat="42.3732467" lon="2.8889117"><ele>94.0</ele><time>2026-04-08T16:36:03.917Z</time></trkpt><trkpt lat="42.3735167" lon="2.8887283"><ele>94.0</ele><time>2026-04-08T16:36:04.918Z</time></trkpt><trkpt lat="42.3737833" lon="2.888535"><ele>94.0</ele><time>2026-04-08T16:36:05.918Z</time></trkpt><trkpt lat="42.37405" lon="2.8883417"><ele>91.0</ele><time>2026-04-08T16:36:06.917Z</time></trkpt><trkpt lat="42.3743133" lon="2.888145"><ele>88.0</ele><time>2026-04-08T16:36:07.918Z</time></trkpt><trkpt lat="42.3745783" lon="2.8879533"><ele>88.0</ele><time>2026-04-08T16:36:08.918Z</time></trkpt><trkpt lat="42.3748467" lon="2.8877667"><ele>88.0</ele><time>2026-04-08T16:36:09.918Z</time></trkpt><trkpt lat="42.3751167" lon="2.8875917"><ele>88.0</ele><time>2026-04-08T16:36:10.918Z</time></trkpt><trkpt lat="42.37539" lon="2.8874233"><ele>88.0</ele><time>2026-04-08T16:36:11.918Z</time></trkpt><trkpt lat="42.3756667" lon="2.8872683"><ele>85.0</ele><time>2026-04-08T16:36:12.917Z</time></trkpt><trkpt lat="42.3759433" lon="2.8871233"><ele>82.0</ele><time>2026-04-08T16:36:13.918Z</time></trkpt><trkpt lat="42.376225" lon="2.8869817"><ele>82.0</ele><time>2026-04-08T16:36:14.918Z</time></trkpt><trkpt lat="42.37651" lon="2.8868483"><ele>82.0</ele><time>2026-04-08T16:36:15.918Z</time></trkpt><trkpt lat="42.3767967" lon="2.8867317"><ele>81.5</ele><time>2026-04-08T16:36:16.917Z</time></trkpt><trkpt lat="42.37709" lon="2.886635"><ele>81.0</ele><time>2026-04-08T16:36:17.918Z</time></trkpt><trkpt lat="42.377385" lon="2.88655"><ele>81.0</ele><time>2026-04-08T16:36:18.918Z</time></trkpt><trkpt lat="42.377685" lon="2.8864733"><ele>81.0</ele><time>2026-04-08T16:36:19.918Z</time></trkpt><trkpt lat="42.377985" lon="2.8864067"><ele>80.5</ele><time>2026-04-08T16:36:20.918Z</time></trkpt><trkpt lat="42.3782833" lon="2.8863517"><ele>80.0</ele><time>2026-04-08T16:36:21.918Z</time></trkpt><trkpt lat="42.3785817" lon="2.88631"><ele>81.0</ele><time>2026-04-08T16:36:22.917Z</time></trkpt><trkpt lat="42.3788817" lon="2.8862767"><ele>82.0</ele><time>2026-04-08T16:36:23.917Z</time></trkpt><trkpt lat="42.37918" lon="2.8862433"><ele>82.0</ele><time>2026-04-08T16:36:24.917Z</time></trkpt><trkpt lat="42.3794767" lon="2.88621"><ele>82.0</ele><time>2026-04-08T16:36:25.918Z</time></trkpt><trkpt lat="42.3797733" lon="2.8861767"><ele>81.5</ele><time>2026-04-08T16:36:26.917Z</time></trkpt><trkpt lat="42.38007" lon="2.8861433"><ele>81.0</ele><time>2026-04-08T16:36:27.918Z</time></trkpt><trkpt lat="42.3803667" lon="2.88611"><ele>80.0</ele><time>2026-04-08T16:36:28.917Z</time></trkpt><trkpt lat="42.380665" lon="2.88607"><ele>79.0</ele><time>2026-04-08T16:36:29.917Z</time></trkpt><trkpt lat="42.38096" lon="2.8860167"><ele>79.0</ele><time>2026-04-08T16:36:30.917Z</time></trkpt><trkpt lat="42.3812533" lon="2.8859567"><ele>79.0</ele><time>2026-04-08T16:36:31.918Z</time></trkpt><trkpt lat="42.38155" lon="2.8858867"><ele>82.0</ele><time>2026-04-08T16:36:32.918Z</time></trkpt><trkpt lat="42.3818467" lon="2.8858083"><ele>85.0</ele><time>2026-04-08T16:36:33.917Z</time></trkpt><trkpt lat="42.382135" lon="2.885715"><ele>85.0</ele><time>2026-04-08T16:36:34.918Z</time></trkpt><trkpt lat="42.38243" lon="2.885615"><ele>85.0</ele><time>2026-04-08T16:36:35.917Z</time></trkpt><trkpt lat="42.38272" lon="2.8855017"><ele>85.0</ele><time>2026-04-08T16:36:36.918Z</time></trkpt><trkpt lat="42.3830083" lon="2.8853833"><ele>85.0</ele><time>2026-04-08T16:36:37.917Z</time></trkpt><trkpt lat="42.3832917" lon="2.8852417"><ele>84.5</ele><time>2026-04-08T16:36:38.918Z</time></trkpt><trkpt lat="42.38357" lon="2.8850917"><ele>84.0</ele><time>2026-04-08T16:36:39.918Z</time></trkpt><trkpt lat="42.3838483" lon="2.884935"><ele>81.5</ele><time>2026-04-08T16:36:40.918Z</time></trkpt><trkpt lat="42.3841233" lon="2.8847733"><ele>79.0</ele><time>2026-04-08T16:36:41.918Z</time></trkpt><trkpt lat="42.3844017" lon="2.8846117"><ele>79.0</ele><time>2026-04-08T16:36:42.917Z</time></trkpt><trkpt lat="42.3846783" lon="2.884445"><ele>79.0</ele><time>2026-04-08T16:36:43.918Z</time></trkpt><trkpt lat="42.3849533" lon="2.8842733"><ele>78.5</ele><time>2026-04-08T16:36:44.918Z</time></trkpt><trkpt lat="42.3852267" lon="2.8841"><ele>78.0</ele><time>2026-04-08T16:36:45.918Z</time></trkpt><trkpt lat="42.3854967" lon="2.8839233"><ele>77.5</ele><time>2026-04-08T16:36:46.918Z</time></trkpt><trkpt lat="42.38577" lon="2.88375"><ele>77.0</ele><time>2026-04-08T16:36:47.918Z</time></trkpt><trkpt lat="42.386045" lon="2.8835783"><ele>77.5</ele><time>2026-04-08T16:36:48.917Z</time></trkpt><trkpt lat="42.38632" lon="2.8834167"><ele>78.0</ele><time>2026-04-08T16:36:49.918Z</time></trkpt><trkpt lat="42.3866017" lon="2.88327"><ele>78.0</ele><time>2026-04-08T16:36:50.918Z</time></trkpt><trkpt lat="42.386885" lon="2.8831317"><ele>78.0</ele><time>2026-04-08T16:36:51.918Z</time></trkpt><trkpt lat="42.38717" lon="2.883005"><ele>78.0</ele><time>2026-04-08T16:36:52.918Z</time></trkpt><trkpt lat="42.3874583" lon="2.8828833"><ele>78.0</ele><time>2026-04-08T16:36:53.918Z</time></trkpt><trkpt lat="42.3877483" lon="2.8827717"><ele>78.5</ele><time>2026-04-08T16:36:54.917Z</time></trkpt><trkpt lat="42.3880367" lon="2.8826683"><ele>79.0</ele><time>2026-04-08T16:36:55.918Z</time></trkpt><trkpt lat="42.3883233" lon="2.88257"><ele>79.5</ele><time>2026-04-08T16:36:56.917Z</time></trkpt><trkpt lat="42.38861" lon="2.8824717"><ele>80.0</ele><time>2026-04-08T16:36:57.918Z</time></trkpt><trkpt lat="42.388895" lon="2.8823767"><ele>80.0</ele><time>2026-04-08T16:36:58.918Z</time></trkpt><trkpt lat="42.3891817" lon="2.88228"><ele>80.0</ele><time>2026-04-08T16:36:59.918Z</time></trkpt><trkpt lat="42.3894667" lon="2.8821817"><ele>80.5</ele><time>2026-04-08T16:37:00.918Z</time></trkpt><trkpt lat="42.3897533" lon="2.882075"><ele>81.0</ele><time>2026-04-08T16:37:01.917Z</time></trkpt><trkpt lat="42.39004" lon="2.8819667"><ele>81.0</ele><time>2026-04-08T16:37:02.917Z</time></trkpt><trkpt lat="42.3903217" lon="2.881845"><ele>81.0</ele><time>2026-04-08T16:37:03.918Z</time></trkpt><trkpt lat="42.3906083" lon="2.881705"><ele>82.0</ele><time>2026-04-08T16:37:04.918Z</time></trkpt><trkpt lat="42.3908933" lon="2.8815583"><ele>83.0</ele><time>2026-04-08T16:37:05.917Z</time></trkpt><trkpt lat="42.3911717" lon="2.8814033"><ele>82.5</ele><time>2026-04-08T16:37:06.918Z</time></trkpt><trkpt lat="42.3914467" lon="2.88125"><ele>82.0</ele><time>2026-04-08T16:37:07.918Z</time></trkpt><trkpt lat="42.3917167" lon="2.8810833"><ele>82.5</ele><time>2026-04-08T16:37:08.917Z</time></trkpt><trkpt lat="42.391985" lon="2.8809067"><ele>83.0</ele><time>2026-04-08T16:37:09.917Z</time></trkpt><trkpt lat="42.39225" lon="2.8807167"><ele>83.5</ele><time>2026-04-08T16:37:10.919Z</time></trkpt><trkpt lat="42.392515" lon="2.88052"><ele>84.0</ele><time>2026-04-08T16:37:11.919Z</time></trkpt><trkpt lat="42.392775" lon="2.8803167"><ele>84.0</ele><time>2026-04-08T16:37:12.919Z</time></trkpt><trkpt lat="42.3930333" lon="2.8801167"><ele>84.0</ele><time>2026-04-08T16:37:13.918Z</time></trkpt><trkpt lat="42.393295" lon="2.8799183"><ele>84.5</ele><time>2026-04-08T16:37:14.919Z</time></trkpt><trkpt lat="42.3935567" lon="2.8797217"><ele>85.0</ele><time>2026-04-08T16:37:15.918Z</time></trkpt><trkpt lat="42.39382" lon="2.8795333"><ele>86.0</ele><time>2026-04-08T16:37:16.919Z</time></trkpt><trkpt lat="42.394085" lon="2.8793517"><ele>87.0</ele><time>2026-04-08T16:37:17.918Z</time></trkpt><trkpt lat="42.3943533" lon="2.87918"><ele>87.0</ele><time>2026-04-08T16:37:18.918Z</time></trkpt><trkpt lat="42.39462" lon="2.8790133"><ele>87.0</ele><time>2026-04-08T16:37:19.919Z</time></trkpt><trkpt lat="42.394895" lon="2.8788483"><ele>87.5</ele><time>2026-04-08T16:37:20.918Z</time></trkpt><trkpt lat="42.3951683" lon="2.8786933"><ele>88.0</ele><time>2026-04-08T16:37:21.919Z</time></trkpt><trkpt lat="42.3954433" lon="2.878545"><ele>90.5</ele><time>2026-04-08T16:37:22.918Z</time></trkpt><trkpt lat="42.3957267" lon="2.87841"><ele>93.0</ele><time>2026-04-08T16:37:23.919Z</time></trkpt><trkpt lat="42.3960167" lon="2.8782883"><ele>93.0</ele><time>2026-04-08T16:37:24.918Z</time></trkpt><trkpt lat="42.3963083" lon="2.8781783"><ele>93.0</ele><time>2026-04-08T16:37:25.918Z</time></trkpt><trkpt lat="42.3966" lon="2.8780733"><ele>93.5</ele><time>2026-04-08T16:37:26.919Z</time></trkpt><trkpt lat="42.3968883" lon="2.877965"><ele>94.0</ele><time>2026-04-08T16:37:27.919Z</time></trkpt><trkpt lat="42.397175" lon="2.8778567"><ele>94.0</ele><time>2026-04-08T16:37:28.919Z</time></trkpt><trkpt lat="42.3974633" lon="2.8777483"><ele>94.0</ele><time>2026-04-08T16:37:29.919Z</time></trkpt><trkpt lat="42.39775" lon="2.8776383"><ele>95.0</ele><time>2026-04-08T16:37:30.919Z</time></trkpt><trkpt lat="42.3980333" lon="2.877525"><ele>96.0</ele><time>2026-04-08T16:37:31.919Z</time></trkpt><trkpt lat="42.3983167" lon="2.8774167"><ele>96.0</ele><time>2026-04-08T16:37:32.919Z</time></trkpt><trkpt lat="42.3985983" lon="2.8773117"><ele>96.0</ele><time>2026-04-08T16:37:33.919Z</time></trkpt><trkpt lat="42.3988717" lon="2.87721"><ele>93.0</ele><time>2026-04-08T16:37:34.918Z</time></trkpt><trkpt lat="42.3991417" lon="2.8771067"><ele>90.0</ele><time>2026-04-08T16:37:35.919Z</time></trkpt><trkpt lat="42.399405" lon="2.877"><ele>90.0</ele><time>2026-04-08T16:37:36.919Z</time></trkpt><trkpt lat="42.399665" lon="2.8768867"><ele>90.0</ele><time>2026-04-08T16:37:37.919Z</time></trkpt><trkpt lat="42.399925" lon="2.8767567"><ele>93.5</ele><time>2026-04-08T16:37:38.919Z</time></trkpt><trkpt lat="42.4001817" lon="2.8766167"><ele>97.0</ele><time>2026-04-08T16:37:39.919Z</time></trkpt><trkpt lat="42.4004333" lon="2.87647"><ele>94.5</ele><time>2026-04-08T16:37:40.919Z</time></trkpt><trkpt lat="42.4006867" lon="2.87633"><ele>92.0</ele><time>2026-04-08T16:37:41.919Z</time></trkpt><trkpt lat="42.400935" lon="2.87619"><ele>92.0</ele><time>2026-04-08T16:37:42.918Z</time></trkpt><trkpt lat="42.40118" lon="2.8760517"><ele>92.0</ele><time>2026-04-08T16:37:43.919Z</time></trkpt><trkpt lat="42.401415" lon="2.87592"><ele>93.0</ele><time>2026-04-08T16:37:44.919Z</time></trkpt><trkpt lat="42.4016317" lon="2.8757983"><ele>94.0</ele><time>2026-04-08T16:37:45.919Z</time></trkpt><trkpt lat="42.401835" lon="2.87568"><ele>94.0</ele><time>2026-04-08T16:37:46.918Z</time></trkpt><trkpt lat="42.4020217" lon="2.87557"><ele>94.0</ele><time>2026-04-08T16:37:47.919Z</time></trkpt><trkpt lat="42.4021933" lon="2.875465"><ele>94.0</ele><time>2026-04-08T16:37:48.919Z</time></trkpt><trkpt lat="42.4023517" lon="2.8753717"><ele>94.0</ele><time>2026-04-08T16:37:49.919Z</time></trkpt><trkpt lat="42.4025" lon="2.8752817"><ele>94.0</ele><time>2026-04-08T16:37:50.919Z</time></trkpt><trkpt lat="42.4026417" lon="2.8751933"><ele>94.0</ele><time>2026-04-08T16:37:51.919Z</time></trkpt><trkpt lat="42.4027817" lon="2.8751083"><ele>94.25</ele><time>2026-04-08T16:37:52.919Z</time></trkpt><trkpt lat="42.4029183" lon="2.875025"><ele>94.5</ele><time>2026-04-08T16:37:53.919Z</time></trkpt><trkpt lat="42.4030533" lon="2.8749433"><ele>94.75</ele><time>2026-04-08T16:37:54.919Z</time></trkpt><trkpt lat="42.40319" lon="2.8748683"><ele>95.0</ele><time>2026-04-08T16:37:55.919Z</time></trkpt><trkpt lat="42.4033267" lon="2.8748033"><ele>95.0</ele><time>2026-04-08T16:37:56.919Z</time></trkpt><trkpt lat="42.403465" lon="2.8747483"><ele>95.0</ele><time>2026-04-08T16:37:57.919Z</time></trkpt><trkpt lat="42.40359" lon="2.874715"><ele>95.0</ele><time>2026-04-08T16:37:58.919Z</time></trkpt><trkpt lat="42.403715" lon="2.8747017"><ele>95.0</ele><time>2026-04-08T16:37:59.919Z</time></trkpt><trkpt lat="42.4038433" lon="2.874705"><ele>94.75</ele><time>2026-04-08T16:38:00.919Z</time></trkpt><trkpt lat="42.4039667" lon="2.8747217"><ele>94.5</ele><time>2026-04-08T16:38:01.919Z</time></trkpt><trkpt lat="42.4040867" lon="2.8747533"><ele>94.25</ele><time>2026-04-08T16:38:02.919Z</time></trkpt><trkpt lat="42.4042" lon="2.8747933"><ele>94.0</ele><time>2026-04-08T16:38:03.919Z</time></trkpt><trkpt lat="42.4043067" lon="2.8748433"><ele>94.0</ele><time>2026-04-08T16:38:04.919Z</time></trkpt><trkpt lat="42.404405" lon="2.8748933"><ele>94.0</ele><time>2026-04-08T16:38:05.919Z</time></trkpt><trkpt lat="42.4045017" lon="2.874945"><ele>94.0</ele><time>2026-04-08T16:38:06.919Z</time></trkpt><trkpt lat="42.4045967" lon="2.8749967"><ele>94.0</ele><time>2026-04-08T16:38:07.919Z</time></trkpt><trkpt lat="42.4046917" lon="2.8750483"><ele>94.0</ele><time>2026-04-08T16:38:08.919Z</time></trkpt><trkpt lat="42.404785" lon="2.8750983"><ele>94.33333333333333</ele><time>2026-04-08T16:38:09.918Z</time></trkpt><trkpt lat="42.4048867" lon="2.8751483"><ele>94.66666666666667</ele><time>2026-04-08T16:38:10.918Z</time></trkpt><trkpt lat="42.4052133" lon="2.8752533"><ele>95.0</ele><time>2026-04-08T16:38:13.919Z</time></trkpt><trkpt lat="42.4053333" lon="2.875275"><ele>95.0</ele><time>2026-04-08T16:38:14.919Z</time></trkpt><trkpt lat="42.4054517" lon="2.875295"><ele>95.0</ele><time>2026-04-08T16:38:15.919Z</time></trkpt><trkpt lat="42.4055817" lon="2.875305"><ele>95.0</ele><time>2026-04-08T16:38:16.919Z</time></trkpt><trkpt lat="42.4058433" lon="2.8752983"><ele>95.5</ele><time>2026-04-08T16:38:18.918Z</time></trkpt><trkpt lat="42.4059783" lon="2.875285"><ele>96.0</ele><time>2026-04-08T16:38:19.919Z</time></trkpt><trkpt lat="42.406115" lon="2.8752567"><ele>96.5</ele><time>2026-04-08T16:38:20.919Z</time></trkpt><trkpt lat="42.4062433" lon="2.875205"><ele>97.0</ele><time>2026-04-08T16:38:21.919Z</time></trkpt><trkpt lat="42.406375" lon="2.8751533"><ele>97.25</ele><time>2026-04-08T16:38:22.919Z</time></trkpt><trkpt lat="42.40651" lon="2.8750867"><ele>97.5</ele><time>2026-04-08T16:38:23.919Z</time></trkpt><trkpt lat="42.406625" lon="2.8750183"><ele>97.75</ele><time>2026-04-08T16:38:24.919Z</time></trkpt><trkpt lat="42.4067367" lon="2.8749417"><ele>98.0</ele><time>2026-04-08T16:38:25.919Z</time></trkpt><trkpt lat="42.4068433" lon="2.8748583"><ele>98.0</ele><time>2026-04-08T16:38:26.918Z</time></trkpt><trkpt lat="42.4069483" lon="2.874775"><ele>98.0</ele><time>2026-04-08T16:38:27.919Z</time></trkpt><trkpt lat="42.4070383" lon="2.8746867"><ele>98.0</ele><time>2026-04-08T16:38:28.919Z</time></trkpt><trkpt lat="42.4071233" lon="2.8745983"><ele>98.0</ele><time>2026-04-08T16:38:29.919Z</time></trkpt><trkpt lat="42.4072033" lon="2.8745033"><ele>98.0</ele><time>2026-04-08T16:38:30.919Z</time></trkpt><trkpt lat="42.4072783" lon="2.8744017"><ele>98.0</ele><time>2026-04-08T16:38:31.918Z</time></trkpt><trkpt lat="42.40735" lon="2.8742983"><ele>98.0</ele><time>2026-04-08T16:38:32.919Z</time></trkpt><trkpt lat="42.4074167" lon="2.8741933"><ele>98.0</ele><time>2026-04-08T16:38:33.918Z</time></trkpt><trkpt lat="42.4074817" lon="2.8740933"><ele>98.0</ele><time>2026-04-08T16:38:34.918Z</time></trkpt><trkpt lat="42.4075383" lon="2.8739967"><ele>98.0</ele><time>2026-04-08T16:38:35.919Z</time></trkpt><trkpt lat="42.4075883" lon="2.8739033"><ele>98.33333333333333</ele><time>2026-04-08T16:38:36.919Z</time></trkpt><trkpt lat="42.4076367" lon="2.87382"><ele>98.66666666666666</ele><time>2026-04-08T16:38:37.919Z</time></trkpt><trkpt lat="42.4076817" lon="2.873745"><ele>99.0</ele><time>2026-04-08T16:38:38.919Z</time></trkpt><trkpt lat="42.407725" lon="2.8736767"><ele>99.33333333333334</ele><time>2026-04-08T16:38:39.919Z</time></trkpt><trkpt lat="42.4077667" lon="2.8736117"><ele>99.66666666666667</ele><time>2026-04-08T16:38:40.919Z</time></trkpt><trkpt lat="42.4078567" lon="2.873505"><ele>100.0</ele><time>2026-04-08T16:38:42.918Z</time></trkpt><trkpt lat="42.40797" lon="2.87343"><ele>100.14285714285715</ele><time>2026-04-08T16:38:44.919Z</time></trkpt><trkpt lat="42.4080367" lon="2.873415"><ele>100.28571428571429</ele><time>2026-04-08T16:38:45.919Z</time></trkpt><trkpt lat="42.40811" lon="2.873405"><ele>100.42857142857143</ele><time>2026-04-08T16:38:46.919Z</time></trkpt><trkpt lat="42.4081867" lon="2.8734183"><ele>100.57142857142858</ele><time>2026-04-08T16:38:47.919Z</time></trkpt><trkpt lat="42.40825" lon="2.8734567"><ele>100.71428571428571</ele><time>2026-04-08T16:38:48.918Z</time></trkpt><trkpt lat="42.40831" lon="2.8735117"><ele>100.85714285714286</ele><time>2026-04-08T16:38:49.919Z</time></trkpt><trkpt lat="42.40836" lon="2.8735883"><ele>101.0</ele><time>2026-04-08T16:38:50.918Z</time></trkpt><trkpt lat="42.4083967" lon="2.8736817"><ele>101.0</ele><time>2026-04-08T16:38:51.919Z</time></trkpt><trkpt lat="42.4084183" lon="2.87379"><ele>101.0</ele><time>2026-04-08T16:38:52.919Z</time></trkpt><trkpt lat="42.4084233" lon="2.87392"><ele>101.0</ele><time>2026-04-08T16:38:53.919Z</time></trkpt><trkpt lat="42.408415" lon="2.8740533"><ele>101.0</ele><time>2026-04-08T16:38:54.919Z</time></trkpt><trkpt lat="42.4084017" lon="2.8741933"><ele>101.0</ele><time>2026-04-08T16:38:55.918Z</time></trkpt><trkpt lat="42.40838" lon="2.8743333"><ele>100.75</ele><time>2026-04-08T16:38:56.918Z</time></trkpt><trkpt lat="42.4083533" lon="2.8744833"><ele>100.5</ele><time>2026-04-08T16:38:57.919Z</time></trkpt><trkpt lat="42.4083183" lon="2.8746367"><ele>100.25</ele><time>2026-04-08T16:38:58.919Z</time></trkpt><trkpt lat="42.4082783" lon="2.8747867"><ele>100.0</ele><time>2026-04-08T16:38:59.919Z</time></trkpt><trkpt lat="42.4082267" lon="2.8749233"><ele>100.00000000000001</ele><time>2026-04-08T16:39:00.919Z</time></trkpt><trkpt lat="42.4081817" lon="2.8750367"><ele>100.0</ele><time>2026-04-08T16:39:01.919Z</time></trkpt><trkpt lat="42.4081417" lon="2.875135"><ele>100.0</ele><time>2026-04-08T16:39:02.919Z</time></trkpt><trkpt lat="42.4081017" lon="2.87523"><ele>100.0</ele><time>2026-04-08T16:39:03.919Z</time></trkpt><trkpt lat="42.4080633" lon="2.8753183"><ele>100.00000000000001</ele><time>2026-04-08T16:39:04.919Z</time></trkpt><trkpt lat="42.4080233" lon="2.8753983"><ele>100.0</ele><time>2026-04-08T16:39:05.919Z</time></trkpt><trkpt lat="42.407985" lon="2.8754767"><ele>100.00000000000001</ele><time>2026-04-08T16:39:06.919Z</time></trkpt><trkpt lat="42.40794" lon="2.8755533"><ele>100.0</ele><time>2026-04-08T16:39:07.919Z</time></trkpt><trkpt lat="42.4078917" lon="2.87563"><ele>100.0</ele><time>2026-04-08T16:39:08.919Z</time></trkpt><trkpt lat="42.4078417" lon="2.8757117"><ele>100.0</ele><time>2026-04-08T16:39:09.919Z</time></trkpt><trkpt lat="42.4077917" lon="2.87579"><ele>100.00000000000001</ele><time>2026-04-08T16:39:10.918Z</time></trkpt><trkpt lat="42.4077417" lon="2.875865"><ele>100.0</ele><time>2026-04-08T16:39:11.919Z</time></trkpt><trkpt lat="42.4076833" lon="2.8759383"><ele>100.2</ele><time>2026-04-08T16:39:12.919Z</time></trkpt><trkpt lat="42.40762" lon="2.876015"><ele>100.4</ele><time>2026-04-08T16:39:13.919Z</time></trkpt><trkpt lat="42.40755" lon="2.8760983"><ele>100.6</ele><time>2026-04-08T16:39:14.919Z</time></trkpt><trkpt lat="42.4074817" lon="2.87618"><ele>100.8</ele><time>2026-04-08T16:39:15.918Z</time></trkpt><trkpt lat="42.4074067" lon="2.8762583"><ele>101.0</ele><time>2026-04-08T16:39:16.919Z</time></trkpt><trkpt lat="42.4073333" lon="2.876345"><ele>100.99999999999999</ele><time>2026-04-08T16:39:17.918Z</time></trkpt><trkpt lat="42.4072733" lon="2.876435"><ele>101.0</ele><time>2026-04-08T16:39:18.919Z</time></trkpt><trkpt lat="42.407215" lon="2.8765283"><ele>101.0</ele><time>2026-04-08T16:39:19.918Z</time></trkpt><trkpt lat="42.4071633" lon="2.876625"><ele>101.0</ele><time>2026-04-08T16:39:20.918Z</time></trkpt><trkpt lat="42.4071183" lon="2.876725"><ele>100.99999999999999</ele><time>2026-04-08T16:39:21.919Z</time></trkpt><trkpt lat="42.40708" lon="2.8768267"><ele>101.0</ele><time>2026-04-08T16:39:22.918Z</time></trkpt><trkpt lat="42.4070467" lon="2.8769383"><ele>100.99999999999999</ele><time>2026-04-08T16:39:23.919Z</time></trkpt><trkpt lat="42.407025" lon="2.8770367"><ele>101.0</ele><time>2026-04-08T16:39:24.918Z</time></trkpt><trkpt lat="42.4070133" lon="2.8771283"><ele>101.0</ele><time>2026-04-08T16:39:25.919Z</time></trkpt><trkpt lat="42.407005" lon="2.8772167"><ele>101.0</ele><time>2026-04-08T16:39:26.918Z</time></trkpt><trkpt lat="42.407" lon="2.8773817"><ele>100.99999999999999</ele><time>2026-04-08T16:39:28.919Z</time></trkpt><trkpt lat="42.4070033" lon="2.87747"><ele>101.0</ele><time>2026-04-08T16:39:29.919Z</time></trkpt><trkpt lat="42.4070133" lon="2.8775617"><ele>101.19999999999999</ele><time>2026-04-08T16:39:30.918Z</time></trkpt><trkpt lat="42.407025" lon="2.8776483"><ele>101.39999999999999</ele><time>2026-04-08T16:39:31.918Z</time></trkpt><trkpt lat="42.4070533" lon="2.87781"><ele>101.6</ele><time>2026-04-08T16:39:33.919Z</time></trkpt><trkpt lat="42.407095" lon="2.87798"><ele>101.8</ele><time>2026-04-08T16:39:35.919Z</time></trkpt><trkpt lat="42.407125" lon="2.878075"><ele>102.0</ele><time>2026-04-08T16:39:36.918Z</time></trkpt><trkpt lat="42.407165" lon="2.8781683"><ele>102.39999999999999</ele><time>2026-04-08T16:39:37.919Z</time></trkpt><trkpt lat="42.4072067" lon="2.8782567"><ele>102.8</ele><time>2026-04-08T16:39:38.919Z</time></trkpt><trkpt lat="42.40725" lon="2.8783333"><ele>103.2</ele><time>2026-04-08T16:39:39.919Z</time></trkpt><trkpt lat="42.407295" lon="2.8784083"><ele>103.6</ele><time>2026-04-08T16:39:40.919Z</time></trkpt><trkpt lat="42.4074467" lon="2.8786067"><ele>104.0</ele><time>2026-04-08T16:39:43.919Z</time></trkpt><trkpt lat="42.4075033" lon="2.87866"><ele>104.66666666666666</ele><time>2026-04-08T16:39:44.919Z</time></trkpt><trkpt lat="42.4075667" lon="2.87871"><ele>105.33333333333333</ele><time>2026-04-08T16:39:45.919Z</time></trkpt><trkpt lat="42.4076383" lon="2.87875"><ele>106.0</ele><time>2026-04-08T16:39:46.919Z</time></trkpt><trkpt lat="42.4077167" lon="2.878775"><ele>106.66666666666666</ele><time>2026-04-08T16:39:47.919Z</time></trkpt><trkpt lat="42.4077967" lon="2.8787783"><ele>107.33333333333333</ele><time>2026-04-08T16:39:48.919Z</time></trkpt><trkpt lat="42.40788" lon="2.8787633"><ele>108.0</ele><time>2026-04-08T16:39:49.919Z</time></trkpt><trkpt lat="42.4079633" lon="2.8787267"><ele>108.33333333333333</ele><time>2026-04-08T16:39:50.919Z</time></trkpt><trkpt lat="42.4080383" lon="2.8786667"><ele>108.66666666666666</ele><time>2026-04-08T16:39:51.919Z</time></trkpt><trkpt lat="42.4080967" lon="2.8785983"><ele>109.0</ele><time>2026-04-08T16:39:52.919Z</time></trkpt><trkpt lat="42.40814" lon="2.8785033"><ele>109.33333333333333</ele><time>2026-04-08T16:39:53.919Z</time></trkpt><trkpt lat="42.4081717" lon="2.8783933"><ele>109.66666666666666</ele><time>2026-04-08T16:39:54.919Z</time></trkpt><trkpt lat="42.408195" lon="2.87828"><ele>110.0</ele><time>2026-04-08T16:39:55.918Z</time></trkpt><trkpt lat="42.4082183" lon="2.878165"><ele>109.33333333333333</ele><time>2026-04-08T16:39:56.917Z</time></trkpt><trkpt lat="42.408245" lon="2.8780533"><ele>108.66666666666666</ele><time>2026-04-08T16:39:57.918Z</time></trkpt><trkpt lat="42.4082783" lon="2.877945"><ele>108.0</ele><time>2026-04-08T16:39:58.918Z</time></trkpt><trkpt lat="42.4083183" lon="2.8778483"><ele>107.33333333333334</ele><time>2026-04-08T16:39:59.918Z</time></trkpt><trkpt lat="42.4083683" lon="2.8777483"><ele>106.66666666666667</ele><time>2026-04-08T16:40:00.918Z</time></trkpt><trkpt lat="42.4084233" lon="2.877655"><ele>106.0</ele><time>2026-04-08T16:40:01.917Z</time></trkpt><trkpt lat="42.4084917" lon="2.8775717"><ele>105.6</ele><time>2026-04-08T16:40:02.918Z</time></trkpt><trkpt lat="42.4085683" lon="2.8774983"><ele>105.19999999999999</ele><time>2026-04-08T16:40:03.918Z</time></trkpt><trkpt lat="42.4086583" lon="2.8774417"><ele>104.80000000000001</ele><time>2026-04-08T16:40:04.917Z</time></trkpt><trkpt lat="42.408755" lon="2.877395"><ele>104.4</ele><time>2026-04-08T16:40:05.918Z</time></trkpt><trkpt lat="42.408855" lon="2.8773517"><ele>104.0</ele><time>2026-04-08T16:40:06.918Z</time></trkpt><trkpt lat="42.4089517" lon="2.8773083"><ele>104.0</ele><time>2026-04-08T16:40:07.918Z</time></trkpt><trkpt lat="42.409055" lon="2.8772667"><ele>104.0</ele><time>2026-04-08T16:40:08.918Z</time></trkpt><trkpt lat="42.40917" lon="2.8772183"><ele>104.0</ele><time>2026-04-08T16:40:09.917Z</time></trkpt><trkpt lat="42.4092917" lon="2.8771633"><ele>104.0</ele><time>2026-04-08T16:40:10.918Z</time></trkpt><trkpt lat="42.4094283" lon="2.8771033"><ele>104.0</ele><time>2026-04-08T16:40:11.918Z</time></trkpt><trkpt lat="42.4095817" lon="2.8770417"><ele>104.0</ele><time>2026-04-08T16:40:12.917Z</time></trkpt><trkpt lat="42.4097467" lon="2.876985"><ele>104.0</ele><time>2026-04-08T16:40:13.918Z</time></trkpt><trkpt lat="42.4099067" lon="2.8769317"><ele>104.66666666666666</ele><time>2026-04-08T16:40:14.918Z</time></trkpt><trkpt lat="42.41007" lon="2.8768783"><ele>105.33333333333334</ele><time>2026-04-08T16:40:15.918Z</time></trkpt><trkpt lat="42.410235" lon="2.8768317"><ele>106.0</ele><time>2026-04-08T16:40:16.918Z</time></trkpt><trkpt lat="42.4103967" lon="2.876785"><ele>106.5</ele><time>2026-04-08T16:40:17.918Z</time></trkpt><trkpt lat="42.4105533" lon="2.8767483"><ele>107.0</ele><time>2026-04-08T16:40:18.918Z</time></trkpt><trkpt lat="42.4107" lon="2.876715"><ele>107.5</ele><time>2026-04-08T16:40:19.917Z</time></trkpt><trkpt lat="42.410825" lon="2.8766833"><ele>108.0</ele><time>2026-04-08T16:40:20.918Z</time></trkpt><trkpt lat="42.41094" lon="2.8766567"><ele>108.0</ele><time>2026-04-08T16:40:21.918Z</time></trkpt><trkpt lat="42.4110517" lon="2.8766483"><ele>108.00000000000001</ele><time>2026-04-08T16:40:22.918Z</time></trkpt><trkpt lat="42.4111617" lon="2.8766683"><ele>108.00000000000001</ele><time>2026-04-08T16:40:23.917Z</time></trkpt><trkpt lat="42.4112633" lon="2.8766833"><ele>108.0</ele><time>2026-04-08T16:40:24.918Z</time></trkpt><trkpt lat="42.4113533" lon="2.8766667"><ele>108.0</ele><time>2026-04-08T16:40:25.918Z</time></trkpt><trkpt lat="42.4114317" lon="2.87661"><ele>108.4</ele><time>2026-04-08T16:40:26.918Z</time></trkpt><trkpt lat="42.41149" lon="2.8765233"><ele>108.80000000000001</ele><time>2026-04-08T16:40:27.918Z</time></trkpt><trkpt lat="42.4115433" lon="2.87642"><ele>109.2</ele><time>2026-04-08T16:40:28.918Z</time></trkpt><trkpt lat="42.411605" lon="2.8763133"><ele>109.6</ele><time>2026-04-08T16:40:29.917Z</time></trkpt><trkpt lat="42.41168" lon="2.87621"><ele>110.0</ele><time>2026-04-08T16:40:30.918Z</time></trkpt><trkpt lat="42.4117783" lon="2.8761133"><ele>110.0</ele><time>2026-04-08T16:40:31.918Z</time></trkpt><trkpt lat="42.41188" lon="2.8760083"><ele>110.0</ele><time>2026-04-08T16:40:32.917Z</time></trkpt><trkpt lat="42.41198" lon="2.8758867"><ele>110.0</ele><time>2026-04-08T16:40:33.918Z</time></trkpt><trkpt lat="42.4120833" lon="2.8757417"><ele>110.0</ele><time>2026-04-08T16:40:34.918Z</time></trkpt><trkpt lat="42.4121933" lon="2.8755933"><ele>109.33333333333333</ele><time>2026-04-08T16:40:35.918Z</time></trkpt><trkpt lat="42.412305" lon="2.8754383"><ele>108.66666666666666</ele><time>2026-04-08T16:40:36.918Z</time></trkpt><trkpt lat="42.4124133" lon="2.87529"><ele>108.0</ele><time>2026-04-08T16:40:37.918Z</time></trkpt><trkpt lat="42.4125233" lon="2.8751467"><ele>107.25</ele><time>2026-04-08T16:40:38.918Z</time></trkpt><trkpt lat="42.412635" lon="2.8750117"><ele>106.5</ele><time>2026-04-08T16:40:39.918Z</time></trkpt><trkpt lat="42.4127483" lon="2.8748833"><ele>105.75</ele><time>2026-04-08T16:40:40.917Z</time></trkpt><trkpt lat="42.4128633" lon="2.8747633"><ele>105.0</ele><time>2026-04-08T16:40:41.918Z</time></trkpt><trkpt lat="42.412975" lon="2.8746433"><ele>105.0</ele><time>2026-04-08T16:40:42.917Z</time></trkpt><trkpt lat="42.4130767" lon="2.8745283"><ele>105.0</ele><time>2026-04-08T16:40:43.918Z</time></trkpt><trkpt lat="42.413165" lon="2.87442"><ele>105.0</ele><time>2026-04-08T16:40:44.918Z</time></trkpt><trkpt lat="42.4132517" lon="2.8743517"><ele>105.0</ele><time>2026-04-08T16:40:45.917Z</time></trkpt><trkpt lat="42.413345" lon="2.8743167"><ele>105.0</ele><time>2026-04-08T16:40:46.917Z</time></trkpt><trkpt lat="42.4135233" lon="2.8742033"><ele>105.0</ele><time>2026-04-08T16:40:48.918Z</time></trkpt><trkpt lat="42.4135833" lon="2.8741033"><ele>105.0</ele><time>2026-04-08T16:40:49.918Z</time></trkpt><trkpt lat="42.41362" lon="2.8739783"><ele>105.0</ele><time>2026-04-08T16:40:50.918Z</time></trkpt><trkpt lat="42.4136517" lon="2.8738383"><ele>105.0</ele><time>2026-04-08T16:40:51.917Z</time></trkpt><trkpt lat="42.4136967" lon="2.873705"><ele>105.0</ele><time>2026-04-08T16:40:52.918Z</time></trkpt><trkpt lat="42.4137683" lon="2.8735783"><ele>105.5</ele><time>2026-04-08T16:40:53.918Z</time></trkpt><trkpt lat="42.4138483" lon="2.8734617"><ele>106.0</ele><time>2026-04-08T16:40:54.917Z</time></trkpt><trkpt lat="42.4139417" lon="2.87334"><ele>106.5</ele><time>2026-04-08T16:40:55.918Z</time></trkpt><trkpt lat="42.414035" lon="2.8732183"><ele>107.0</ele><time>2026-04-08T16:40:56.918Z</time></trkpt><trkpt lat="42.4141333" lon="2.8730933"><ele>106.0</ele><time>2026-04-08T16:40:57.918Z</time></trkpt><trkpt lat="42.4142283" lon="2.8729717"><ele>105.0</ele><time>2026-04-08T16:40:58.918Z</time></trkpt><trkpt lat="42.4143233" lon="2.8728483"><ele>104.0</ele><time>2026-04-08T16:40:59.918Z</time></trkpt><trkpt lat="42.4144133" lon="2.8727267"><ele>103.0</ele><time>2026-04-08T16:41:00.917Z</time></trkpt><trkpt lat="42.41451" lon="2.87261"><ele>103.75</ele><time>2026-04-08T16:41:01.918Z</time></trkpt><trkpt lat="42.4146133" lon="2.8724967"><ele>104.5</ele><time>2026-04-08T16:41:02.917Z</time></trkpt><trkpt lat="42.4147283" lon="2.87239"><ele>105.25</ele><time>2026-04-08T16:41:03.918Z</time></trkpt><trkpt lat="42.4148567" lon="2.8723067"><ele>106.0</ele><time>2026-04-08T16:41:04.918Z</time></trkpt><trkpt lat="42.4149933" lon="2.8722367"><ele>106.0</ele><time>2026-04-08T16:41:05.917Z</time></trkpt><trkpt lat="42.415135" lon="2.8721733"><ele>106.0</ele><time>2026-04-08T16:41:06.917Z</time></trkpt><trkpt lat="42.4152883" lon="2.872115"><ele>106.0</ele><time>2026-04-08T16:41:07.917Z</time></trkpt><trkpt lat="42.415445" lon="2.8720667"><ele>106.33333333333334</ele><time>2026-04-08T16:41:08.918Z</time></trkpt><trkpt lat="42.4156117" lon="2.8720233"><ele>106.66666666666666</ele><time>2026-04-08T16:41:09.918Z</time></trkpt><trkpt lat="42.41578" lon="2.871985"><ele>107.0</ele><time>2026-04-08T16:41:10.918Z</time></trkpt><trkpt lat="42.41595" lon="2.8719417"><ele>107.0</ele><time>2026-04-08T16:41:11.918Z</time></trkpt><trkpt lat="42.4161217" lon="2.871915"><ele>107.0</ele><time>2026-04-08T16:41:12.918Z</time></trkpt><trkpt lat="42.4162917" lon="2.8718817"><ele>107.0</ele><time>2026-04-08T16:41:13.918Z</time></trkpt><trkpt lat="42.41646" lon="2.8718467"><ele>107.33333333333333</ele><time>2026-04-08T16:41:14.917Z</time></trkpt><trkpt lat="42.4166283" lon="2.8718133"><ele>107.66666666666666</ele><time>2026-04-08T16:41:15.918Z</time></trkpt><trkpt lat="42.4167933" lon="2.87178"><ele>108.0</ele><time>2026-04-08T16:41:16.918Z</time></trkpt><trkpt lat="42.41696" lon="2.8717417"><ele>109.33333333333334</ele><time>2026-04-08T16:41:17.918Z</time></trkpt><trkpt lat="42.4171233" lon="2.8717"><ele>110.66666666666667</ele><time>2026-04-08T16:41:18.918Z</time></trkpt><trkpt lat="42.4172867" lon="2.87166"><ele>112.0</ele><time>2026-04-08T16:41:19.918Z</time></trkpt><trkpt lat="42.4174483" lon="2.8716217"><ele>112.0</ele><time>2026-04-08T16:41:20.918Z</time></trkpt><trkpt lat="42.41761" lon="2.871585"><ele>112.0</ele><time>2026-04-08T16:41:21.918Z</time></trkpt><trkpt lat="42.4177733" lon="2.8715433"><ele>112.0</ele><time>2026-04-08T16:41:22.918Z</time></trkpt><trkpt lat="42.4179333" lon="2.8715"><ele>112.0</ele><time>2026-04-08T16:41:23.918Z</time></trkpt><trkpt lat="42.4180917" lon="2.871455"><ele>112.0</ele><time>2026-04-08T16:41:24.918Z</time></trkpt><trkpt lat="42.41825" lon="2.8714083"><ele>112.0</ele><time>2026-04-08T16:41:25.918Z</time></trkpt><trkpt lat="42.4184067" lon="2.8713633"><ele>112.0</ele><time>2026-04-08T16:41:26.918Z</time></trkpt><trkpt lat="42.418565" lon="2.8713167"><ele>112.0</ele><time>2026-04-08T16:41:27.918Z</time></trkpt><trkpt lat="42.4187217" lon="2.8712717"><ele>112.0</ele><time>2026-04-08T16:41:28.917Z</time></trkpt><trkpt lat="42.4188783" lon="2.87123"><ele>112.33333333333334</ele><time>2026-04-08T16:41:29.918Z</time></trkpt><trkpt lat="42.4190333" lon="2.8711933"><ele>112.66666666666666</ele><time>2026-04-08T16:41:30.918Z</time></trkpt><trkpt lat="42.419185" lon="2.8711583"><ele>113.0</ele><time>2026-04-08T16:41:31.918Z</time></trkpt><trkpt lat="42.4193333" lon="2.8711267"><ele>113.0</ele><time>2026-04-08T16:41:32.918Z</time></trkpt><trkpt lat="42.4194783" lon="2.87109"><ele>113.0</ele><time>2026-04-08T16:41:33.918Z</time></trkpt><trkpt lat="42.4196183" lon="2.871055"><ele>113.0</ele><time>2026-04-08T16:41:34.918Z</time></trkpt><trkpt lat="42.4197583" lon="2.87102"><ele>113.0</ele><time>2026-04-08T16:41:35.917Z</time></trkpt><trkpt lat="42.419895" lon="2.870985"><ele>113.5</ele><time>2026-04-08T16:41:36.917Z</time></trkpt><trkpt lat="42.4200333" lon="2.8709483"><ele>114.0</ele><time>2026-04-08T16:41:37.918Z</time></trkpt><trkpt lat="42.42018" lon="2.870915"><ele>114.5</ele><time>2026-04-08T16:41:38.917Z</time></trkpt><trkpt lat="42.42032" lon="2.870885"><ele>115.0</ele><time>2026-04-08T16:41:39.918Z</time></trkpt><trkpt lat="42.4204583" lon="2.870855"><ele>115.0</ele><time>2026-04-08T16:41:40.918Z</time></trkpt><trkpt lat="42.4205967" lon="2.8708317"><ele>115.0</ele><time>2026-04-08T16:41:41.918Z</time></trkpt><trkpt lat="42.4207367" lon="2.8708067"><ele>115.0</ele><time>2026-04-08T16:41:42.918Z</time></trkpt><trkpt lat="42.420875" lon="2.8707833"><ele>115.0</ele><time>2026-04-08T16:41:43.918Z</time></trkpt><trkpt lat="42.4210133" lon="2.87076"><ele>115.0</ele><time>2026-04-08T16:41:44.918Z</time></trkpt><trkpt lat="42.421155" lon="2.8707317"><ele>115.0</ele><time>2026-04-08T16:41:45.918Z</time></trkpt><trkpt lat="42.421295" lon="2.8707067"><ele>115.0</ele><time>2026-04-08T16:41:46.917Z</time></trkpt><trkpt lat="42.4214367" lon="2.8706817"><ele>115.0</ele><time>2026-04-08T16:41:47.918Z</time></trkpt><trkpt lat="42.4215783" lon="2.8706567"><ele>115.25</ele><time>2026-04-08T16:41:48.918Z</time></trkpt><trkpt lat="42.4217167" lon="2.8706267"><ele>115.5</ele><time>2026-04-08T16:41:49.918Z</time></trkpt><trkpt lat="42.4218517" lon="2.8706"><ele>115.75</ele><time>2026-04-08T16:41:50.918Z</time></trkpt><trkpt lat="42.421985" lon="2.87057"><ele>116.0</ele><time>2026-04-08T16:41:51.917Z</time></trkpt><trkpt lat="42.42212" lon="2.8705267"><ele>116.25</ele><time>2026-04-08T16:41:52.918Z</time></trkpt><trkpt lat="42.4222533" lon="2.8704833"><ele>116.5</ele><time>2026-04-08T16:41:53.918Z</time></trkpt><trkpt lat="42.4223867" lon="2.870435"><ele>116.75</ele><time>2026-04-08T16:41:54.918Z</time></trkpt><trkpt lat="42.4225233" lon="2.870375"><ele>117.0</ele><time>2026-04-08T16:41:55.917Z</time></trkpt><trkpt lat="42.422655" lon="2.87031"><ele>117.0</ele><time>2026-04-08T16:41:56.918Z</time></trkpt><trkpt lat="42.4227867" lon="2.8702383"><ele>117.0</ele><time>2026-04-08T16:41:57.917Z</time></trkpt><trkpt lat="42.4229183" lon="2.87017"><ele>117.0</ele><time>2026-04-08T16:41:58.918Z</time></trkpt><trkpt lat="42.423055" lon="2.8700867"><ele>117.0</ele><time>2026-04-08T16:41:59.917Z</time></trkpt><trkpt lat="42.423185" lon="2.8700017"><ele>117.0</ele><time>2026-04-08T16:42:00.917Z</time></trkpt><trkpt lat="42.4233183" lon="2.8699233"><ele>117.0</ele><time>2026-04-08T16:42:01.917Z</time></trkpt><trkpt lat="42.4234467" lon="2.8698417"><ele>117.0</ele><time>2026-04-08T16:42:02.917Z</time></trkpt><trkpt lat="42.4235717" lon="2.8697633"><ele>117.0</ele><time>2026-04-08T16:42:03.918Z</time></trkpt><trkpt lat="42.4239283" lon="2.86953"><ele>117.25</ele><time>2026-04-08T16:42:06.918Z</time></trkpt><trkpt lat="42.4240367" lon="2.8694567"><ele>117.5</ele><time>2026-04-08T16:42:07.918Z</time></trkpt><trkpt lat="42.424145" lon="2.869385"><ele>117.75</ele><time>2026-04-08T16:42:08.918Z</time></trkpt><trkpt lat="42.4242517" lon="2.869315"><ele>118.0</ele><time>2026-04-08T16:42:09.918Z</time></trkpt><trkpt lat="42.4244583" lon="2.8691883"><ele>118.2</ele><time>2026-04-08T16:42:11.918Z</time></trkpt><trkpt lat="42.4245567" lon="2.869125"><ele>118.4</ele><time>2026-04-08T16:42:12.917Z</time></trkpt><trkpt lat="42.4246517" lon="2.869065"><ele>118.60000000000001</ele><time>2026-04-08T16:42:13.917Z</time></trkpt><trkpt lat="42.4247467" lon="2.8690083"><ele>118.80000000000001</ele><time>2026-04-08T16:42:14.918Z</time></trkpt><trkpt lat="42.4248433" lon="2.8689467"><ele>119.0</ele><time>2026-04-08T16:42:15.917Z</time></trkpt><trkpt lat="42.4250283" lon="2.86883"><ele>119.4</ele><time>2026-04-08T16:42:17.918Z</time></trkpt><trkpt lat="42.4251167" lon="2.868775"><ele>119.80000000000001</ele><time>2026-04-08T16:42:18.918Z</time></trkpt><trkpt lat="42.4251983" lon="2.8687267"><ele>120.19999999999999</ele><time>2026-04-08T16:42:19.918Z</time></trkpt><trkpt lat="42.4252783" lon="2.8686867"><ele>120.6</ele><time>2026-04-08T16:42:20.918Z</time></trkpt><trkpt lat="42.42535" lon="2.8686483"><ele>121.0</ele><time>2026-04-08T16:42:21.918Z</time></trkpt><trkpt lat="42.4254983" lon="2.8686083"><ele>121.4</ele><time>2026-04-08T16:42:23.917Z</time></trkpt><trkpt lat="42.4255633" lon="2.8686167"><ele>121.8</ele><time>2026-04-08T16:42:24.918Z</time></trkpt><trkpt lat="42.4256817" lon="2.8686733"><ele>122.20000000000002</ele><time>2026-04-08T16:42:26.918Z</time></trkpt><trkpt lat="42.4257817" lon="2.8687367"><ele>122.60000000000001</ele><time>2026-04-08T16:42:28.918Z</time></trkpt><trkpt lat="42.4258667" lon="2.868735"><ele>123.0</ele><time>2026-04-08T16:42:30.917Z</time></trkpt><trkpt lat="42.4259383" lon="2.8687067"><ele>123.0</ele><time>2026-04-08T16:42:33.918Z</time></trkpt><trkpt lat="42.4259983" lon="2.868645"><ele>123.0</ele><time>2026-04-08T16:42:39.918Z</time></trkpt><trkpt lat="42.426055" lon="2.8685817"><ele>123.0</ele><time>2026-04-08T16:42:43.918Z</time></trkpt><trkpt lat="42.4261133" lon="2.868525"><ele>123.0</ele><time>2026-04-08T16:42:46.918Z</time></trkpt><trkpt lat="42.4261967" lon="2.86846"><ele>123.0</ele><time>2026-04-08T16:42:50.917Z</time></trkpt><trkpt lat="42.4262667" lon="2.8684417"><ele>123.0</ele><time>2026-04-08T16:42:52.918Z</time></trkpt><trkpt lat="42.4264633" lon="2.868465"><ele>123.66666666666667</ele><time>2026-04-08T16:42:57.918Z</time></trkpt><trkpt lat="42.42655" lon="2.8684717"><ele>124.33333333333334</ele><time>2026-04-08T16:42:59.917Z</time></trkpt><trkpt lat="42.4266367" lon="2.86847"><ele>125.0</ele><time>2026-04-08T16:43:01.918Z</time></trkpt><trkpt lat="42.4267217" lon="2.8684717"><ele>125.66666666666667</ele><time>2026-04-08T16:43:03.917Z</time></trkpt><trkpt lat="42.42681" lon="2.8684733"><ele>126.33333333333334</ele><time>2026-04-08T16:43:05.917Z</time></trkpt><trkpt lat="42.4269017" lon="2.8684767"><ele>127.0</ele><time>2026-04-08T16:43:07.918Z</time></trkpt><trkpt lat="42.4270017" lon="2.868465"><ele>127.0</ele><time>2026-04-08T16:43:09.918Z</time></trkpt><trkpt lat="42.42712" lon="2.86846"><ele>126.99999999999999</ele><time>2026-04-08T16:43:11.918Z</time></trkpt><trkpt lat="42.4271967" lon="2.8684567"><ele>126.99999999999999</ele><time>2026-04-08T16:43:12.918Z</time></trkpt><trkpt lat="42.42728" lon="2.868465"><ele>127.0</ele><time>2026-04-08T16:43:13.917Z</time></trkpt><trkpt lat="42.4273667" lon="2.86847"><ele>127.0</ele><time>2026-04-08T16:43:14.918Z</time></trkpt><trkpt lat="42.4274533" lon="2.8684767"><ele>127.50000000000001</ele><time>2026-04-08T16:43:15.917Z</time></trkpt><trkpt lat="42.4275383" lon="2.8684717"><ele>128.0</ele><time>2026-04-08T16:43:16.918Z</time></trkpt><trkpt lat="42.42763" lon="2.86846"><ele>128.5</ele><time>2026-04-08T16:43:17.918Z</time></trkpt><trkpt lat="42.42772" lon="2.8684417"><ele>129.0</ele><time>2026-04-08T16:43:18.918Z</time></trkpt><trkpt lat="42.4278" lon="2.8684133"><ele>129.5</ele><time>2026-04-08T16:43:19.918Z</time></trkpt><trkpt lat="42.4278667" lon="2.8683817"><ele>130.0</ele><time>2026-04-08T16:43:20.917Z</time></trkpt><trkpt lat="42.427945" lon="2.86835"><ele>130.25</ele><time>2026-04-08T16:43:21.917Z</time></trkpt><trkpt lat="42.4280333" lon="2.86831"><ele>130.5</ele><time>2026-04-08T16:43:22.918Z</time></trkpt><trkpt lat="42.4281367" lon="2.8682633"><ele>130.75</ele><time>2026-04-08T16:43:23.917Z</time></trkpt><trkpt lat="42.4282467" lon="2.8682033"><ele>131.0</ele><time>2026-04-08T16:43:24.918Z</time></trkpt><trkpt lat="42.4283667" lon="2.8681367"><ele>131.0</ele><time>2026-04-08T16:43:25.918Z</time></trkpt><trkpt lat="42.4284833" lon="2.8680767"><ele>131.0</ele><time>2026-04-08T16:43:26.918Z</time></trkpt><trkpt lat="42.4286083" lon="2.8680267"><ele>131.0</ele><time>2026-04-08T16:43:27.918Z</time></trkpt><trkpt lat="42.4287317" lon="2.8679767"><ele>131.0</ele><time>2026-04-08T16:43:28.917Z</time></trkpt><trkpt lat="42.428855" lon="2.8679267"><ele>131.75</ele><time>2026-04-08T16:43:29.918Z</time></trkpt><trkpt lat="42.4289783" lon="2.86789"><ele>132.5</ele><time>2026-04-08T16:43:30.917Z</time></trkpt><trkpt lat="42.429105" lon="2.8678783"><ele>133.25</ele><time>2026-04-08T16:43:31.918Z</time></trkpt><trkpt lat="42.4292317" lon="2.86788"><ele>134.0</ele><time>2026-04-08T16:43:32.917Z</time></trkpt><trkpt lat="42.429365" lon="2.867885"><ele>134.0</ele><time>2026-04-08T16:43:33.918Z</time></trkpt><trkpt lat="42.4294917" lon="2.8678883"><ele>134.0</ele><time>2026-04-08T16:43:34.918Z</time></trkpt><trkpt lat="42.4296117" lon="2.8678617"><ele>134.0</ele><time>2026-04-08T16:43:35.917Z</time></trkpt><trkpt lat="42.429715" lon="2.8678133"><ele>134.0</ele><time>2026-04-08T16:43:36.918Z</time></trkpt><trkpt lat="42.4298283" lon="2.867765"><ele>134.25</ele><time>2026-04-08T16:43:37.917Z</time></trkpt><trkpt lat="42.429945" lon="2.867715"><ele>134.5</ele><time>2026-04-08T16:43:38.917Z</time></trkpt><trkpt lat="42.43007" lon="2.8676633"><ele>134.75</ele><time>2026-04-08T16:43:39.918Z</time></trkpt><trkpt lat="42.4301917" lon="2.86761"><ele>135.0</ele><time>2026-04-08T16:43:40.918Z</time></trkpt><trkpt lat="42.4303117" lon="2.8675617"><ele>135.0</ele><time>2026-04-08T16:43:41.918Z</time></trkpt><trkpt lat="42.4304183" lon="2.867485"><ele>135.0</ele><time>2026-04-08T16:43:42.918Z</time></trkpt><trkpt lat="42.4305167" lon="2.8673883"><ele>135.0</ele><time>2026-04-08T16:43:43.918Z</time></trkpt><trkpt lat="42.430605" lon="2.8672833"><ele>135.0</ele><time>2026-04-08T16:43:44.917Z</time></trkpt><trkpt lat="42.4307017" lon="2.8671817"><ele>135.5</ele><time>2026-04-08T16:43:45.918Z</time></trkpt><trkpt lat="42.430815" lon="2.8670933"><ele>136.0</ele><time>2026-04-08T16:43:46.917Z</time></trkpt><trkpt lat="42.4309433" lon="2.8670183"><ele>136.5</ele><time>2026-04-08T16:43:47.919Z</time></trkpt><trkpt lat="42.4310833" lon="2.8669533"><ele>137.0</ele><time>2026-04-08T16:43:48.919Z</time></trkpt><trkpt lat="42.43123" lon="2.8668883"><ele>138.33333333333331</ele><time>2026-04-08T16:43:49.918Z</time></trkpt><trkpt lat="42.4313783" lon="2.86682"><ele>139.66666666666666</ele><time>2026-04-08T16:43:50.919Z</time></trkpt><trkpt lat="42.431525" lon="2.866755"><ele>141.0</ele><time>2026-04-08T16:43:51.918Z</time></trkpt><trkpt lat="42.43192" lon="2.8665867"><ele>141.0</ele><time>2026-04-08T16:43:54.919Z</time></trkpt><trkpt lat="42.432035" lon="2.866535"><ele>141.0</ele><time>2026-04-08T16:43:55.919Z</time></trkpt><trkpt lat="42.4321433" lon="2.8664867"><ele>141.0</ele><time>2026-04-08T16:43:56.919Z</time></trkpt><trkpt lat="42.432245" lon="2.8664483"><ele>141.0</ele><time>2026-04-08T16:43:57.918Z</time></trkpt><trkpt lat="42.432525" lon="2.8663467"><ele>142.25</ele><time>2026-04-08T16:44:00.919Z</time></trkpt><trkpt lat="42.4326083" lon="2.8663233"><ele>143.5</ele><time>2026-04-08T16:44:01.919Z</time></trkpt><trkpt lat="42.4326917" lon="2.8663"><ele>144.75</ele><time>2026-04-08T16:44:02.919Z</time></trkpt><trkpt lat="42.432775" lon="2.8662733"><ele>146.0</ele><time>2026-04-08T16:44:03.919Z</time></trkpt><trkpt lat="42.433005" lon="2.8662467"><ele>148.0</ele><time>2026-04-08T16:44:06.918Z</time></trkpt><trkpt lat="42.4331267" lon="2.8662533"><ele>150.0</ele><time>2026-04-08T16:44:08.919Z</time></trkpt><trkpt lat="42.4332983" lon="2.8663533"><ele>152.0</ele><time>2026-04-08T16:44:11.919Z</time></trkpt><trkpt lat="42.4334083" lon="2.8664233"><ele>154.0</ele><time>2026-04-08T16:44:13.919Z</time></trkpt><trkpt lat="42.4335267" lon="2.8664283"><ele>154.0</ele><time>2026-04-08T16:44:15.919Z</time></trkpt><trkpt lat="42.43363" lon="2.8663867"><ele>154.0</ele><time>2026-04-08T16:44:17.919Z</time></trkpt><trkpt lat="42.4337217" lon="2.8662867"><ele>154.0</ele><time>2026-04-08T16:44:19.919Z</time></trkpt><trkpt lat="42.4337583" lon="2.8662167"><ele>154.0</ele><time>2026-04-08T16:44:20.918Z</time></trkpt><trkpt lat="42.4337867" lon="2.86612"><ele>154.0</ele><time>2026-04-08T16:44:21.919Z</time></trkpt><trkpt lat="42.4338267" lon="2.866035"><ele>154.0</ele><time>2026-04-08T16:44:22.919Z</time></trkpt><trkpt lat="42.433865" lon="2.8659317"><ele>154.4</ele><time>2026-04-08T16:44:23.919Z</time></trkpt><trkpt lat="42.4339133" lon="2.8658217"><ele>154.8</ele><time>2026-04-08T16:44:24.919Z</time></trkpt><trkpt lat="42.4339733" lon="2.8657233"><ele>155.2</ele><time>2026-04-08T16:44:25.919Z</time></trkpt><trkpt lat="42.4340433" lon="2.8656367"><ele>155.6</ele><time>2026-04-08T16:44:26.918Z</time></trkpt><trkpt lat="42.4341317" lon="2.8655683"><ele>156.0</ele><time>2026-04-08T16:44:27.919Z</time></trkpt><trkpt lat="42.43444" lon="2.8654133"><ele>156.0</ele><time>2026-04-08T16:44:30.919Z</time></trkpt><trkpt lat="42.4345567" lon="2.8653683"><ele>156.0</ele><time>2026-04-08T16:44:31.919Z</time></trkpt><trkpt lat="42.434685" lon="2.86533"><ele>156.0</ele><time>2026-04-08T16:44:32.919Z</time></trkpt><trkpt lat="42.434825" lon="2.8652933"><ele>156.0</ele><time>2026-04-08T16:44:33.919Z</time></trkpt><trkpt lat="42.4353217" lon="2.86522"><ele>160.33333333333334</ele><time>2026-04-08T16:44:36.918Z</time></trkpt><trkpt lat="42.4355033" lon="2.8652133"><ele>164.66666666666669</ele><time>2026-04-08T16:44:37.919Z</time></trkpt><trkpt lat="42.4356867" lon="2.8652017"><ele>169.0</ele><time>2026-04-08T16:44:38.918Z</time></trkpt><trkpt lat="42.4358717" lon="2.86519"><ele>169.0</ele><time>2026-04-08T16:44:39.919Z</time></trkpt><trkpt lat="42.4360683" lon="2.86518"><ele>169.0</ele><time>2026-04-08T16:44:40.918Z</time></trkpt><trkpt lat="42.436265" lon="2.8651717"><ele>169.0</ele><time>2026-04-08T16:44:41.919Z</time></trkpt><trkpt lat="42.4364583" lon="2.86516"><ele>169.33333333333334</ele><time>2026-04-08T16:44:42.919Z</time></trkpt><trkpt lat="42.43665" lon="2.8651517"><ele>169.66666666666666</ele><time>2026-04-08T16:44:43.919Z</time></trkpt><trkpt lat="42.43685" lon="2.8651517"><ele>170.0</ele><time>2026-04-08T16:44:44.919Z</time></trkpt><trkpt lat="42.4370517" lon="2.865165"><ele>170.0</ele><time>2026-04-08T16:44:45.919Z</time></trkpt><trkpt lat="42.437255" lon="2.8651917"><ele>170.0</ele><time>2026-04-08T16:44:46.919Z</time></trkpt><trkpt lat="42.4374533" lon="2.865235"><ele>170.0</ele><time>2026-04-08T16:44:47.919Z</time></trkpt><trkpt lat="42.4376567" lon="2.8652783"><ele>170.0</ele><time>2026-04-08T16:44:48.919Z</time></trkpt><trkpt lat="42.4378617" lon="2.8653267"><ele>170.0</ele><time>2026-04-08T16:44:49.919Z</time></trkpt><trkpt lat="42.4380733" lon="2.865365"><ele>170.0</ele><time>2026-04-08T16:44:50.919Z</time></trkpt><trkpt lat="42.438285" lon="2.8654183"><ele>170.0</ele><time>2026-04-08T16:44:51.919Z</time></trkpt><trkpt lat="42.4384883" lon="2.86545"><ele>170.0</ele><time>2026-04-08T16:44:52.919Z</time></trkpt><trkpt lat="42.4387033" lon="2.8655067"><ele>170.0</ele><time>2026-04-08T16:44:53.919Z</time></trkpt><trkpt lat="42.43892" lon="2.865565"><ele>168.66666666666666</ele><time>2026-04-08T16:44:54.918Z</time></trkpt><trkpt lat="42.439135" lon="2.8656217"><ele>167.33333333333334</ele><time>2026-04-08T16:44:55.919Z</time></trkpt><trkpt lat="42.4393517" lon="2.86567"><ele>166.0</ele><time>2026-04-08T16:44:56.919Z</time></trkpt><trkpt lat="42.4395683" lon="2.8657217"><ele>165.33333333333334</ele><time>2026-04-08T16:44:57.919Z</time></trkpt><trkpt lat="42.4397833" lon="2.86577"><ele>164.66666666666666</ele><time>2026-04-08T16:44:58.919Z</time></trkpt><trkpt lat="42.4399983" lon="2.865825"><ele>164.0</ele><time>2026-04-08T16:44:59.919Z</time></trkpt><trkpt lat="42.4402117" lon="2.86587"><ele>164.0</ele><time>2026-04-08T16:45:00.919Z</time></trkpt><trkpt lat="42.4404267" lon="2.8659267"><ele>164.0</ele><time>2026-04-08T16:45:01.919Z</time></trkpt><trkpt lat="42.4406433" lon="2.8659833"><ele>164.0</ele><time>2026-04-08T16:45:02.918Z</time></trkpt><trkpt lat="42.4408617" lon="2.86604"><ele>167.66666666666666</ele><time>2026-04-08T16:45:03.919Z</time></trkpt><trkpt lat="42.4410783" lon="2.8660883"><ele>171.33333333333334</ele><time>2026-04-08T16:45:04.919Z</time></trkpt><trkpt lat="42.441295" lon="2.8661383"><ele>175.0</ele><time>2026-04-08T16:45:05.919Z</time></trkpt><trkpt lat="42.4415117" lon="2.8661917"><ele>175.0</ele><time>2026-04-08T16:45:06.918Z</time></trkpt><trkpt lat="42.4417283" lon="2.866245"><ele>175.0</ele><time>2026-04-08T16:45:07.919Z</time></trkpt><trkpt lat="42.4419433" lon="2.866295"><ele>175.0</ele><time>2026-04-08T16:45:08.919Z</time></trkpt><trkpt lat="42.44216" lon="2.8663483"><ele>176.0</ele><time>2026-04-08T16:45:09.919Z</time></trkpt><trkpt lat="42.4423783" lon="2.8664033"><ele>177.0</ele><time>2026-04-08T16:45:10.918Z</time></trkpt><trkpt lat="42.4426017" lon="2.86646"><ele>178.0</ele><time>2026-04-08T16:45:11.919Z</time></trkpt><trkpt lat="42.4428183" lon="2.8665133"><ele>179.33333333333334</ele><time>2026-04-08T16:45:12.919Z</time></trkpt><trkpt lat="42.4430333" lon="2.8665633"><ele>180.66666666666666</ele><time>2026-04-08T16:45:13.919Z</time></trkpt><trkpt lat="42.4432533" lon="2.8666167"><ele>182.0</ele><time>2026-04-08T16:45:14.919Z</time></trkpt><trkpt lat="42.4434717" lon="2.86667"><ele>182.0</ele><time>2026-04-08T16:45:15.919Z</time></trkpt><trkpt lat="42.44369" lon="2.866725"><ele>182.0</ele><time>2026-04-08T16:45:16.918Z</time></trkpt><trkpt lat="42.4439083" lon="2.866775"><ele>182.0</ele><time>2026-04-08T16:45:17.919Z</time></trkpt><trkpt lat="42.44413" lon="2.8668233"><ele>185.5</ele><time>2026-04-08T16:45:18.918Z</time></trkpt><trkpt lat="42.4443533" lon="2.8668767"><ele>189.0</ele><time>2026-04-08T16:45:19.919Z</time></trkpt><trkpt lat="42.4445817" lon="2.8669283"><ele>188.66666666666666</ele><time>2026-04-08T16:45:20.918Z</time></trkpt><trkpt lat="42.4448067" lon="2.86696"><ele>188.33333333333331</ele><time>2026-04-08T16:45:21.919Z</time></trkpt><trkpt lat="42.4450283" lon="2.8669633"><ele>188.0</ele><time>2026-04-08T16:45:22.919Z</time></trkpt><trkpt lat="42.4452483" lon="2.8669383"><ele>187.0</ele><time>2026-04-08T16:45:23.919Z</time></trkpt><trkpt lat="42.4454683" lon="2.8668933"><ele>186.0</ele><time>2026-04-08T16:45:24.918Z</time></trkpt><trkpt lat="42.4456817" lon="2.8668267"><ele>185.0</ele><time>2026-04-08T16:45:25.919Z</time></trkpt><trkpt lat="42.44589" lon="2.86675"><ele>185.0</ele><time>2026-04-08T16:45:26.919Z</time></trkpt><trkpt lat="42.4461" lon="2.8666517"><ele>185.0</ele><time>2026-04-08T16:45:27.918Z</time></trkpt><trkpt lat="42.4463133" lon="2.86655"><ele>185.0</ele><time>2026-04-08T16:45:28.919Z</time></trkpt><trkpt lat="42.4465267" lon="2.866445"><ele>188.33333333333331</ele><time>2026-04-08T16:45:29.919Z</time></trkpt><trkpt lat="42.4467383" lon="2.8663467"><ele>191.66666666666666</ele><time>2026-04-08T16:45:30.919Z</time></trkpt><trkpt lat="42.4469483" lon="2.866255"><ele>195.0</ele><time>2026-04-08T16:45:31.919Z</time></trkpt><trkpt lat="42.4471517" lon="2.8661633"><ele>197.0</ele><time>2026-04-08T16:45:32.919Z</time></trkpt><trkpt lat="42.4473633" lon="2.8660917"><ele>199.0</ele><time>2026-04-08T16:45:33.919Z</time></trkpt><trkpt lat="42.4475633" lon="2.8660217"><ele>201.0</ele><time>2026-04-08T16:45:34.919Z</time></trkpt><trkpt lat="42.4477567" lon="2.865965"><ele>199.0</ele><time>2026-04-08T16:45:35.919Z</time></trkpt><trkpt lat="42.4479467" lon="2.865915"><ele>197.0</ele><time>2026-04-08T16:45:36.919Z</time></trkpt><trkpt lat="42.4481417" lon="2.8658783"><ele>195.0</ele><time>2026-04-08T16:45:37.919Z</time></trkpt><trkpt lat="42.4483433" lon="2.8658633"><ele>195.0</ele><time>2026-04-08T16:45:38.918Z</time></trkpt><trkpt lat="42.448545" lon="2.8658667"><ele>195.0</ele><time>2026-04-08T16:45:39.919Z</time></trkpt><trkpt lat="42.44216" lon="2.8663483"><ele>189.33333333333334</ele><time>2026-04-08T16:45:09.919Z</time></trkpt><trkpt lat="42.4423783" lon="2.8664033"><ele>183.66666666666669</ele><time>2026-04-08T16:45:10.918Z</time></trkpt><trkpt lat="42.4426017" lon="2.86646"><ele>178.0</ele><time>2026-04-08T16:45:11.919Z</time></trkpt><trkpt lat="42.4428183" lon="2.8665133"><ele>179.33333333333334</ele><time>2026-04-08T16:45:12.919Z</time></trkpt><trkpt lat="42.4430333" lon="2.8665633"><ele>180.66666666666666</ele><time>2026-04-08T16:45:13.919Z</time></trkpt><trkpt lat="42.4432533" lon="2.8666167"><ele>182.0</ele><time>2026-04-08T16:45:14.919Z</time></trkpt><trkpt lat="42.4434717" lon="2.86667"><ele>182.0</ele><time>2026-04-08T16:45:15.919Z</time></trkpt><trkpt lat="42.44369" lon="2.866725"><ele>182.0</ele><time>2026-04-08T16:45:16.918Z</time></trkpt><trkpt lat="42.4439083" lon="2.866775"><ele>182.0</ele><time>2026-04-08T16:45:17.919Z</time></trkpt><trkpt lat="42.44413" lon="2.8668233"><ele>185.5</ele><time>2026-04-08T16:45:18.918Z</time></trkpt><trkpt lat="42.4443533" lon="2.8668767"><ele>189.0</ele><time>2026-04-08T16:45:19.919Z</time></trkpt><trkpt lat="42.4445817" lon="2.8669283"><ele>188.66666666666666</ele><time>2026-04-08T16:45:20.918Z</time></trkpt><trkpt lat="42.4448067" lon="2.86696"><ele>188.33333333333331</ele><time>2026-04-08T16:45:21.919Z</time></trkpt><trkpt lat="42.4450283" lon="2.8669633"><ele>188.0</ele><time>2026-04-08T16:45:22.919Z</time></trkpt><trkpt lat="42.4452483" lon="2.8669383"><ele>187.0</ele><time>2026-04-08T16:45:23.919Z</time></trkpt><trkpt lat="42.4454683" lon="2.8668933"><ele>186.0</ele><time>2026-04-08T16:45:24.918Z</time></trkpt><trkpt lat="42.4456817" lon="2.8668267"><ele>185.0</ele><time>2026-04-08T16:45:25.919Z</time></trkpt><trkpt lat="42.44589" lon="2.86675"><ele>185.0</ele><time>2026-04-08T16:45:26.919Z</time></trkpt><trkpt lat="42.4461" lon="2.8666517"><ele>185.0</ele><time>2026-04-08T16:45:27.918Z</time></trkpt><trkpt lat="42.4463133" lon="2.86655"><ele>185.0</ele><time>2026-04-08T16:45:28.919Z</time></trkpt><trkpt lat="42.4465267" lon="2.866445"><ele>188.33333333333331</ele><time>2026-04-08T16:45:29.919Z</time></trkpt><trkpt lat="42.4467383" lon="2.8663467"><ele>191.66666666666666</ele><time>2026-04-08T16:45:30.919Z</time></trkpt><trkpt lat="42.4469483" lon="2.866255"><ele>195.0</ele><time>2026-04-08T16:45:31.919Z</time></trkpt><trkpt lat="42.4471517" lon="2.8661633"><ele>197.0</ele><time>2026-04-08T16:45:32.919Z</time></trkpt><trkpt lat="42.4473633" lon="2.8660917"><ele>199.0</ele><time>2026-04-08T16:45:33.919Z</time></trkpt><trkpt lat="42.4475633" lon="2.8660217"><ele>201.0</ele><time>2026-04-08T16:45:34.919Z</time></trkpt><trkpt lat="42.4477567" lon="2.865965"><ele>199.0</ele><time>2026-04-08T16:45:35.919Z</time></trkpt><trkpt lat="42.4479467" lon="2.865915"><ele>197.0</ele><time>2026-04-08T16:45:36.919Z</time></trkpt><trkpt lat="42.4481417" lon="2.8658783"><ele>195.0</ele><time>2026-04-08T16:45:37.919Z</time></trkpt><trkpt lat="42.4483433" lon="2.8658633"><ele>195.0</ele><time>2026-04-08T16:45:38.918Z</time></trkpt><trkpt lat="42.448545" lon="2.8658667"><ele>195.0</ele><time>2026-04-08T16:45:39.919Z</time></trkpt><trkpt lat="42.448745" lon="2.8658717"><ele>195.0</ele><time>2026-04-08T16:45:40.919Z</time></trkpt><trkpt lat="42.4489417" lon="2.8658883"><ele>195.33333333333331</ele><time>2026-04-08T16:45:41.919Z</time></trkpt><trkpt lat="42.4491383" lon="2.8659067"><ele>195.66666666666666</ele><time>2026-04-08T16:45:42.919Z</time></trkpt><trkpt lat="42.44933" lon="2.8659433"><ele>196.0</ele><time>2026-04-08T16:45:43.919Z</time></trkpt><trkpt lat="42.4495233" lon="2.8659917"><ele>196.66666666666666</ele><time>2026-04-08T16:45:44.919Z</time></trkpt><trkpt lat="42.4497167" lon="2.86605"><ele>197.33333333333331</ele><time>2026-04-08T16:45:45.919Z</time></trkpt><trkpt lat="42.4499033" lon="2.8661183"><ele>198.0</ele><time>2026-04-08T16:45:46.918Z</time></trkpt><trkpt lat="42.45009" lon="2.8662033"><ele>198.0</ele><time>2026-04-08T16:45:47.918Z</time></trkpt><trkpt lat="42.4502667" lon="2.8662917"><ele>198.0</ele><time>2026-04-08T16:45:48.919Z</time></trkpt><trkpt lat="42.4504433" lon="2.8663783"><ele>198.0</ele><time>2026-04-08T16:45:49.918Z</time></trkpt><trkpt lat="42.4506233" lon="2.8664517"><ele>200.0</ele><time>2026-04-08T16:45:50.919Z</time></trkpt><trkpt lat="42.4508017" lon="2.866495"><ele>202.0</ele><time>2026-04-08T16:45:51.918Z</time></trkpt><trkpt lat="42.4509817" lon="2.8665217"><ele>204.0</ele><time>2026-04-08T16:45:52.919Z</time></trkpt><trkpt lat="42.4511617" lon="2.8665183"><ele>204.66666666666669</ele><time>2026-04-08T16:45:53.919Z</time></trkpt><trkpt lat="42.4513483" lon="2.8664867"><ele>205.33333333333334</ele><time>2026-04-08T16:45:54.919Z</time></trkpt><trkpt lat="42.4515317" lon="2.8664467"><ele>206.0</ele><time>2026-04-08T16:45:55.919Z</time></trkpt><trkpt lat="42.4517167" lon="2.8663933"><ele>206.0</ele><time>2026-04-08T16:45:56.919Z</time></trkpt><trkpt lat="42.4518967" lon="2.8662983"><ele>206.0</ele><time>2026-04-08T16:45:57.919Z</time></trkpt><trkpt lat="42.4520683" lon="2.8661733"><ele>206.0</ele><time>2026-04-08T16:45:58.919Z</time></trkpt><trkpt lat="42.4522283" lon="2.86602"><ele>209.0</ele><time>2026-04-08T16:45:59.919Z</time></trkpt><trkpt lat="42.4523733" lon="2.8658467"><ele>212.0</ele><time>2026-04-08T16:46:00.919Z</time></trkpt><trkpt lat="42.4525117" lon="2.8656783"><ele>215.0</ele><time>2026-04-08T16:46:01.919Z</time></trkpt><trkpt lat="42.4526583" lon="2.8655167"><ele>215.0</ele><time>2026-04-08T16:46:02.919Z</time></trkpt><trkpt lat="42.4528183" lon="2.8653817"><ele>215.0</ele><time>2026-04-08T16:46:03.918Z</time></trkpt><trkpt lat="42.45298" lon="2.865275"><ele>215.0</ele><time>2026-04-08T16:46:04.919Z</time></trkpt><trkpt lat="42.4531517" lon="2.8651983"><ele>212.66666666666669</ele><time>2026-04-08T16:46:05.919Z</time></trkpt><trkpt lat="42.4533317" lon="2.86514"><ele>210.33333333333331</ele><time>2026-04-08T16:46:06.919Z</time></trkpt><trkpt lat="42.4535183" lon="2.8650983"><ele>208.0</ele><time>2026-04-08T16:46:07.919Z</time></trkpt><trkpt lat="42.4537067" lon="2.8650883"><ele>213.66666666666666</ele><time>2026-04-08T16:46:08.919Z</time></trkpt><trkpt lat="42.4539" lon="2.86509"><ele>219.33333333333331</ele><time>2026-04-08T16:46:09.918Z</time></trkpt><trkpt lat="42.4540867" lon="2.865085"><ele>225.0</ele><time>2026-04-08T16:46:10.919Z</time></trkpt><trkpt lat="42.4542733" lon="2.86508"><ele>225.0</ele><time>2026-04-08T16:46:11.919Z</time></trkpt><trkpt lat="42.4544633" lon="2.8650717"><ele>225.0</ele><time>2026-04-08T16:46:12.919Z</time></trkpt><trkpt lat="42.454655" lon="2.8650667"><ele>225.0</ele><time>2026-04-08T16:46:13.919Z</time></trkpt><trkpt lat="42.454845" lon="2.86506"><ele>226.33333333333331</ele><time>2026-04-08T16:46:14.918Z</time></trkpt><trkpt lat="42.4550317" lon="2.8650533"><ele>227.66666666666666</ele><time>2026-04-08T16:46:15.919Z</time></trkpt><trkpt lat="42.45522" lon="2.8650467"><ele>229.0</ele><time>2026-04-08T16:46:16.919Z</time></trkpt><trkpt lat="42.4554117" lon="2.8650433"><ele>229.33333333333331</ele><time>2026-04-08T16:46:17.919Z</time></trkpt><trkpt lat="42.4556017" lon="2.8650367"><ele>229.66666666666669</ele><time>2026-04-08T16:46:18.919Z</time></trkpt><trkpt lat="42.4557767" lon="2.8650333"><ele>230.0</ele><time>2026-04-08T16:46:19.919Z</time></trkpt><trkpt lat="42.4559383" lon="2.8650317"><ele>230.0</ele><time>2026-04-08T16:46:20.919Z</time></trkpt><trkpt lat="42.4560933" lon="2.8650267"><ele>230.0</ele><time>2026-04-08T16:46:21.919Z</time></trkpt><trkpt lat="42.4562467" lon="2.86502"><ele>230.0</ele><time>2026-04-08T16:46:22.919Z</time></trkpt><trkpt lat="42.4563933" lon="2.8650067"><ele>232.0</ele><time>2026-04-08T16:46:23.919Z</time></trkpt><trkpt lat="42.4565433" lon="2.8649817"><ele>234.0</ele><time>2026-04-08T16:46:24.918Z</time></trkpt><trkpt lat="42.4566933" lon="2.8649533"><ele>236.0</ele><time>2026-04-08T16:46:25.919Z</time></trkpt><trkpt lat="42.4568417" lon="2.86492"><ele>236.0</ele><time>2026-04-08T16:46:26.917Z</time></trkpt><trkpt lat="42.45699" lon="2.8648833"><ele>236.0</ele><time>2026-04-08T16:46:27.918Z</time></trkpt><trkpt lat="42.4571333" lon="2.86485"><ele>236.0</ele><time>2026-04-08T16:46:28.918Z</time></trkpt><trkpt lat="42.45728" lon="2.864815"><ele>236.0</ele><time>2026-04-08T16:46:29.918Z</time></trkpt><trkpt lat="42.4574217" lon="2.8647817"><ele>238.75</ele><time>2026-04-08T16:46:30.918Z</time></trkpt><trkpt lat="42.45756" lon="2.8647483"><ele>241.5</ele><time>2026-04-08T16:46:31.918Z</time></trkpt><trkpt lat="42.4576883" lon="2.8647167"><ele>244.25</ele><time>2026-04-08T16:46:32.917Z</time></trkpt><trkpt lat="42.45781" lon="2.8646867"><ele>247.0</ele><time>2026-04-08T16:46:33.918Z</time></trkpt><trkpt lat="42.4579317" lon="2.8646617"><ele>249.6</ele><time>2026-04-08T16:46:34.918Z</time></trkpt><trkpt lat="42.4580433" lon="2.8646333"><ele>252.2</ele><time>2026-04-08T16:46:35.918Z</time></trkpt><trkpt lat="42.4581533" lon="2.8645967"><ele>254.8</ele><time>2026-04-08T16:46:36.918Z</time></trkpt><trkpt lat="42.458255" lon="2.8645517"><ele>257.4</ele><time>2026-04-08T16:46:37.917Z</time></trkpt><trkpt lat="42.4583567" lon="2.8645"><ele>260.0</ele><time>2026-04-08T16:46:38.918Z</time></trkpt><trkpt lat="42.4584583" lon="2.8644383"><ele>260.0</ele><time>2026-04-08T16:46:39.917Z</time></trkpt><trkpt lat="42.458545" lon="2.8643683"><ele>260.0</ele><time>2026-04-08T16:46:40.918Z</time></trkpt><trkpt lat="42.4586233" lon="2.8643067"><ele>260.0</ele><time>2026-04-08T16:46:41.918Z</time></trkpt><trkpt lat="42.4586983" lon="2.8642583"><ele>260.0</ele><time>2026-04-08T16:46:42.917Z</time></trkpt><trkpt lat="42.4587717" lon="2.8642233"><ele>260.0</ele><time>2026-04-08T16:46:43.918Z</time></trkpt><trkpt lat="42.4588417" lon="2.8642017"><ele>260.0</ele><time>2026-04-08T16:46:44.918Z</time></trkpt><trkpt lat="42.4589067" lon="2.8641817"><ele>258.0</ele><time>2026-04-08T16:46:45.918Z</time></trkpt><trkpt lat="42.4590283" lon="2.864155"><ele>256.0</ele><time>2026-04-08T16:46:47.917Z</time></trkpt><trkpt lat="42.4590917" lon="2.8641383"><ele>254.0</ele><time>2026-04-08T16:46:48.918Z</time></trkpt><trkpt lat="42.4592017" lon="2.86413"><ele>252.0</ele><time>2026-04-08T16:46:50.918Z</time></trkpt><trkpt lat="42.4593233" lon="2.8641467"><ele>250.0</ele><time>2026-04-08T16:46:52.918Z</time></trkpt><trkpt lat="42.459395" lon="2.86416"><ele>250.0</ele><time>2026-04-08T16:46:53.918Z</time></trkpt><trkpt lat="42.45946" lon="2.8641717"><ele>250.0</ele><time>2026-04-08T16:46:54.918Z</time></trkpt><trkpt lat="42.4595283" lon="2.8641767"><ele>250.0</ele><time>2026-04-08T16:46:55.917Z</time></trkpt><trkpt lat="42.4596467" lon="2.8641767"><ele>250.0</ele><time>2026-04-08T16:46:57.918Z</time></trkpt><trkpt lat="42.4597483" lon="2.8641717"><ele>250.0</ele><time>2026-04-08T16:46:59.918Z</time></trkpt><trkpt lat="42.4598517" lon="2.8641683"><ele>250.33333333333331</ele><time>2026-04-08T16:47:01.918Z</time></trkpt><trkpt lat="42.45996" lon="2.8641617"><ele>250.66666666666666</ele><time>2026-04-08T16:47:03.917Z</time></trkpt><trkpt lat="42.46008" lon="2.86416"><ele>251.0</ele><time>2026-04-08T16:47:05.917Z</time></trkpt><trkpt lat="42.460145" lon="2.8641567"><ele>251.33333333333331</ele><time>2026-04-08T16:47:06.918Z</time></trkpt><trkpt lat="42.4602117" lon="2.86415"><ele>251.66666666666666</ele><time>2026-04-08T16:47:07.918Z</time></trkpt><trkpt lat="42.4602783" lon="2.8641417"><ele>252.0</ele><time>2026-04-08T16:47:08.917Z</time></trkpt><trkpt lat="42.4603483" lon="2.8641367"><ele>252.0</ele><time>2026-04-08T16:47:09.918Z</time></trkpt><trkpt lat="42.460415" lon="2.8641267"><ele>252.0</ele><time>2026-04-08T16:47:10.918Z</time></trkpt><trkpt lat="42.460485" lon="2.8641233"><ele>252.0</ele><time>2026-04-08T16:47:11.918Z</time></trkpt><trkpt lat="42.4605467" lon="2.8641033"><ele>252.0</ele><time>2026-04-08T16:47:12.918Z</time></trkpt><trkpt lat="42.4606133" lon="2.8640933"><ele>252.0</ele><time>2026-04-08T16:47:13.918Z</time></trkpt><trkpt lat="42.4606783" lon="2.864085"><ele>252.0</ele><time>2026-04-08T16:47:14.917Z</time></trkpt><trkpt lat="42.4607417" lon="2.864075"><ele>252.0</ele><time>2026-04-08T16:47:15.918Z</time></trkpt><trkpt lat="42.4608367" lon="2.8640417"><ele>253.5</ele><time>2026-04-08T16:47:17.917Z</time></trkpt><trkpt lat="42.4609183" lon="2.8640083"><ele>255.0</ele><time>2026-04-08T16:47:19.918Z</time></trkpt><trkpt lat="42.460985" lon="2.863995"><ele>256.5</ele><time>2026-04-08T16:47:20.918Z</time></trkpt><trkpt lat="42.461065" lon="2.8639833"><ele>258.0</ele><time>2026-04-08T16:47:21.917Z</time></trkpt><trkpt lat="42.46116" lon="2.8639583"><ele>259.5</ele><time>2026-04-08T16:47:22.918Z</time></trkpt><trkpt lat="42.4612683" lon="2.8639317"><ele>261.0</ele><time>2026-04-08T16:47:23.918Z</time></trkpt><trkpt lat="42.4613867" lon="2.8638933"><ele>262.75</ele><time>2026-04-08T16:47:24.918Z</time></trkpt><trkpt lat="42.461505" lon="2.863865"><ele>264.5</ele><time>2026-04-08T16:47:25.918Z</time></trkpt><trkpt lat="42.4616267" lon="2.8638333"><ele>266.25</ele><time>2026-04-08T16:47:26.918Z</time></trkpt><trkpt lat="42.46174" lon="2.8637983"><ele>268.0</ele><time>2026-04-08T16:47:27.917Z</time></trkpt><trkpt lat="42.4618533" lon="2.8637683"><ele>268.0</ele><time>2026-04-08T16:47:28.918Z</time></trkpt><trkpt lat="42.4619583" lon="2.8637317"><ele>268.0</ele><time>2026-04-08T16:47:29.917Z</time></trkpt><trkpt lat="42.46206" lon="2.8637033"><ele>268.0</ele><time>2026-04-08T16:47:30.918Z</time></trkpt><trkpt lat="42.462165" lon="2.8636817"><ele>268.0</ele><time>2026-04-08T16:47:31.917Z</time></trkpt><trkpt lat="42.46226" lon="2.8636533"><ele>268.0</ele><time>2026-04-08T16:47:32.917Z</time></trkpt><trkpt lat="42.4623433" lon="2.8636283"><ele>268.8333333333333</ele><time>2026-04-08T16:47:33.917Z</time></trkpt><trkpt lat="42.4624183" lon="2.8636083"><ele>269.66666666666663</ele><time>2026-04-08T16:47:34.917Z</time></trkpt><trkpt lat="42.4624833" lon="2.8635933"><ele>270.5</ele><time>2026-04-08T16:47:35.918Z</time></trkpt><trkpt lat="42.462585" lon="2.863565"><ele>271.3333333333333</ele><time>2026-04-08T16:47:37.918Z</time></trkpt><trkpt lat="42.462705" lon="2.8635267"><ele>272.1666666666667</ele><time>2026-04-08T16:47:39.918Z</time></trkpt><trkpt lat="42.4627717" lon="2.8635067"><ele>273.0</ele><time>2026-04-08T16:47:40.918Z</time></trkpt><trkpt lat="42.4628367" lon="2.8634833"><ele>273.0</ele><time>2026-04-08T16:47:41.917Z</time></trkpt><trkpt lat="42.4629" lon="2.8634633"><ele>273.0</ele><time>2026-04-08T16:47:42.918Z</time></trkpt><trkpt lat="42.462965" lon="2.8634433"><ele>273.0</ele><time>2026-04-08T16:47:43.918Z</time></trkpt><trkpt lat="42.4630783" lon="2.8634067"><ele>273.0</ele><time>2026-04-08T16:47:45.918Z</time></trkpt><trkpt lat="42.4631817" lon="2.8633717"><ele>273.0</ele><time>2026-04-08T16:47:47.918Z</time></trkpt><trkpt lat="42.463295" lon="2.8633383"><ele>274.0</ele><time>2026-04-08T16:47:49.918Z</time></trkpt><trkpt lat="42.4634067" lon="2.863305"><ele>275.0</ele><time>2026-04-08T16:47:51.918Z</time></trkpt><trkpt lat="42.4635133" lon="2.8632783"><ele>276.0</ele><time>2026-04-08T16:47:53.917Z</time></trkpt><trkpt lat="42.4635967" lon="2.8632633"><ele>277.0</ele><time>2026-04-08T16:47:55.918Z</time></trkpt><trkpt lat="42.4636817" lon="2.8632517"><ele>278.0</ele><time>2026-04-08T16:47:57.918Z</time></trkpt><trkpt lat="42.4637633" lon="2.8632367"><ele>278.6666666666667</ele><time>2026-04-08T16:48:01.917Z</time></trkpt><trkpt lat="42.4638467" lon="2.8632167"><ele>279.33333333333337</ele><time>2026-04-08T16:48:03.918Z</time></trkpt><trkpt lat="42.4639283" lon="2.863205"><ele>280.0</ele><time>2026-04-08T16:48:05.918Z</time></trkpt><trkpt lat="42.4640283" lon="2.8631783"><ele>280.6666666666667</ele><time>2026-04-08T16:48:07.918Z</time></trkpt><trkpt lat="42.4641283" lon="2.8631533"><ele>281.3333333333333</ele><time>2026-04-08T16:48:09.917Z</time></trkpt><trkpt lat="42.4642067" lon="2.8631417"><ele>282.0</ele><time>2026-04-08T16:48:12.918Z</time></trkpt><trkpt lat="42.46432" lon="2.8631033"><ele>282.0</ele><time>2026-04-08T16:48:23.918Z</time></trkpt><trkpt lat="42.46443" lon="2.8631017"><ele>282.0</ele><time>2026-04-08T16:48:25.918Z</time></trkpt><trkpt lat="42.4645317" lon="2.8631117"><ele>282.0</ele><time>2026-04-08T16:48:27.918Z</time></trkpt><trkpt lat="42.4646317" lon="2.8631333"><ele>282.0</ele><time>2026-04-08T16:48:29.918Z</time></trkpt><trkpt lat="42.4647233" lon="2.8631467"><ele>282.0</ele><time>2026-04-08T16:48:31.918Z</time></trkpt><trkpt lat="42.4647967" lon="2.86315"><ele>282.8</ele><time>2026-04-08T16:48:33.918Z</time></trkpt><trkpt lat="42.4648783" lon="2.86316"><ele>283.6</ele><time>2026-04-08T16:48:35.918Z</time></trkpt><trkpt lat="42.4649633" lon="2.863155"><ele>284.40000000000003</ele><time>2026-04-08T16:48:37.918Z</time></trkpt><trkpt lat="42.465055" lon="2.86316"><ele>285.2</ele><time>2026-04-08T16:48:39.918Z</time></trkpt><trkpt lat="42.465155" lon="2.863155"><ele>286.0</ele><time>2026-04-08T16:48:41.918Z</time></trkpt><trkpt lat="42.4652633" lon="2.863165"><ele>286.0</ele><time>2026-04-08T16:48:43.918Z</time></trkpt><trkpt lat="42.465375" lon="2.8631867"><ele>286.0</ele><time>2026-04-08T16:48:45.918Z</time></trkpt><trkpt lat="42.4654383" lon="2.863195"><ele>286.0</ele><time>2026-04-08T16:48:46.918Z</time></trkpt><trkpt lat="42.4655133" lon="2.8631967"><ele>286.0</ele><time>2026-04-08T16:48:47.918Z</time></trkpt><trkpt lat="42.46559" lon="2.8631933"><ele>286.0</ele><time>2026-04-08T16:48:48.918Z</time></trkpt><trkpt lat="42.4656683" lon="2.8631833"><ele>286.0</ele><time>2026-04-08T16:48:49.918Z</time></trkpt><trkpt lat="42.4657517" lon="2.863165"><ele>286.0</ele><time>2026-04-08T16:48:50.918Z</time></trkpt><trkpt lat="42.46583" lon="2.8631233"><ele>286.0</ele><time>2026-04-08T16:48:51.917Z</time></trkpt><trkpt lat="42.4659017" lon="2.863085"><ele>286.0</ele><time>2026-04-08T16:48:52.918Z</time></trkpt><trkpt lat="42.46598" lon="2.863045"><ele>286.0</ele><time>2026-04-08T16:48:53.918Z</time></trkpt><trkpt lat="42.46606" lon="2.862995"><ele>286.0</ele><time>2026-04-08T16:48:54.918Z</time></trkpt><trkpt lat="42.46614" lon="2.8629317"><ele>286.0</ele><time>2026-04-08T16:48:55.918Z</time></trkpt><trkpt lat="42.4662333" lon="2.86286"><ele>284.75</ele><time>2026-04-08T16:48:56.918Z</time></trkpt><trkpt lat="42.4663317" lon="2.8627867"><ele>283.5</ele><time>2026-04-08T16:48:57.918Z</time></trkpt><trkpt lat="42.46643" lon="2.8627017"><ele>282.25</ele><time>2026-04-08T16:48:58.918Z</time></trkpt><trkpt lat="42.4665367" lon="2.8626317"><ele>281.0</ele><time>2026-04-08T16:48:59.918Z</time></trkpt><trkpt lat="42.4666567" lon="2.862575"><ele>281.0</ele><time>2026-04-08T16:49:00.918Z</time></trkpt><trkpt lat="42.4667817" lon="2.8625233"><ele>281.0</ele><time>2026-04-08T16:49:01.918Z</time></trkpt><trkpt lat="42.4669117" lon="2.8624667"><ele>281.0</ele><time>2026-04-08T16:49:02.918Z</time></trkpt><trkpt lat="42.467035" lon="2.86241"><ele>281.0</ele><time>2026-04-08T16:49:03.917Z</time></trkpt><trkpt lat="42.4671533" lon="2.8623267"><ele>273.5</ele><time>2026-04-08T16:49:04.918Z</time></trkpt><trkpt lat="42.467265" lon="2.8622167"><ele>266.0</ele><time>2026-04-08T16:49:05.918Z</time></trkpt><trkpt lat="42.4675733" lon="2.861795"><ele>270.6666666666667</ele><time>2026-04-08T16:49:08.918Z</time></trkpt><trkpt lat="42.4676817" lon="2.8616567"><ele>275.3333333333333</ele><time>2026-04-08T16:49:09.918Z</time></trkpt><trkpt lat="42.4677983" lon="2.8615233"><ele>280.0</ele><time>2026-04-08T16:49:10.918Z</time></trkpt><trkpt lat="42.4679217" lon="2.8614033"><ele>269.66666666666663</ele><time>2026-04-08T16:49:11.917Z</time></trkpt><trkpt lat="42.4680467" lon="2.861285"><ele>259.3333333333333</ele><time>2026-04-08T16:49:12.918Z</time></trkpt><trkpt lat="42.4681717" lon="2.8611583"><ele>249.0</ele><time>2026-04-08T16:49:13.917Z</time></trkpt><trkpt lat="42.4682833" lon="2.8610083"><ele>254.66666666666669</ele><time>2026-04-08T16:49:14.917Z</time></trkpt><trkpt lat="42.4683733" lon="2.86083"><ele>260.33333333333337</ele><time>2026-04-08T16:49:15.918Z</time></trkpt><trkpt lat="42.4684433" lon="2.8606383"><ele>266.0</ele><time>2026-04-08T16:49:16.918Z</time></trkpt><trkpt lat="42.468495" lon="2.860435"><ele>266.0</ele><time>2026-04-08T16:49:17.918Z</time></trkpt><trkpt lat="42.4685317" lon="2.8602317"><ele>266.0</ele><time>2026-04-08T16:49:18.918Z</time></trkpt><trkpt lat="42.4685533" lon="2.860025"><ele>266.0</ele><time>2026-04-08T16:49:19.918Z</time></trkpt><trkpt lat="42.4685733" lon="2.8598217"><ele>268.0</ele><time>2026-04-08T16:49:20.917Z</time></trkpt><trkpt lat="42.4685917" lon="2.85962"><ele>270.0</ele><time>2026-04-08T16:49:21.918Z</time></trkpt><trkpt lat="42.46861" lon="2.8594317"><ele>272.0</ele><time>2026-04-08T16:49:22.917Z</time></trkpt><trkpt lat="42.4686317" lon="2.85924"><ele>274.0</ele><time>2026-04-08T16:49:23.917Z</time></trkpt><trkpt lat="42.4686717" lon="2.85905"><ele>274.3333333333333</ele><time>2026-04-08T16:49:24.917Z</time></trkpt><trkpt lat="42.468725" lon="2.8588483"><ele>274.6666666666667</ele><time>2026-04-08T16:49:25.917Z</time></trkpt><trkpt lat="42.4687983" lon="2.8586633"><ele>275.0</ele><time>2026-04-08T16:49:26.917Z</time></trkpt><trkpt lat="42.4688817" lon="2.8584917"><ele>266.6666666666667</ele><time>2026-04-08T16:49:27.918Z</time></trkpt><trkpt lat="42.4689833" lon="2.8583333"><ele>258.3333333333333</ele><time>2026-04-08T16:49:28.918Z</time></trkpt><trkpt lat="42.46909" lon="2.8581833"><ele>250.0</ele><time>2026-04-08T16:49:29.917Z</time></trkpt><trkpt lat="42.4692117" lon="2.85806"><ele>250.0</ele><time>2026-04-08T16:49:30.918Z</time></trkpt><trkpt lat="42.4693333" lon="2.8579517"><ele>250.0</ele><time>2026-04-08T16:49:31.918Z</time></trkpt><trkpt lat="42.469465" lon="2.8578717"><ele>250.0</ele><time>2026-04-08T16:49:32.917Z</time></trkpt><trkpt lat="42.46961" lon="2.8578083"><ele>250.0</ele><time>2026-04-08T16:49:33.918Z</time></trkpt><trkpt lat="42.4697533" lon="2.8577667"><ele>245.5</ele><time>2026-04-08T16:49:34.917Z</time></trkpt><trkpt lat="42.4698983" lon="2.8577433"><ele>241.0</ele><time>2026-04-08T16:49:35.918Z</time></trkpt><trkpt lat="42.47005" lon="2.8577383"><ele>236.5</ele><time>2026-04-08T16:49:36.917Z</time></trkpt><trkpt lat="42.4702" lon="2.8577317"><ele>232.0</ele><time>2026-04-08T16:49:37.918Z</time></trkpt><trkpt lat="42.4703417" lon="2.8577183"><ele>232.25</ele><time>2026-04-08T16:49:38.918Z</time></trkpt><trkpt lat="42.4704833" lon="2.857705"><ele>232.5</ele><time>2026-04-08T16:49:39.918Z</time></trkpt><trkpt lat="42.4706283" lon="2.8577"><ele>232.75</ele><time>2026-04-08T16:49:40.917Z</time></trkpt><trkpt lat="42.4707717" lon="2.857695"><ele>233.0</ele><time>2026-04-08T16:49:41.918Z</time></trkpt><trkpt lat="42.4709033" lon="2.857685"><ele>233.0</ele><time>2026-04-08T16:49:42.918Z</time></trkpt><trkpt lat="42.4710217" lon="2.8576833"><ele>233.0</ele><time>2026-04-08T16:49:43.918Z</time></trkpt><trkpt lat="42.4711333" lon="2.85769"><ele>233.0</ele><time>2026-04-08T16:49:44.918Z</time></trkpt><trkpt lat="42.4712333" lon="2.8577183"><ele>233.0</ele><time>2026-04-08T16:49:45.918Z</time></trkpt><trkpt lat="42.471325" lon="2.8577767"><ele>233.0</ele><time>2026-04-08T16:49:46.918Z</time></trkpt><trkpt lat="42.4714133" lon="2.8578383"><ele>236.5</ele><time>2026-04-08T16:49:47.918Z</time></trkpt><trkpt lat="42.4715133" lon="2.857895"><ele>240.0</ele><time>2026-04-08T16:49:48.918Z</time></trkpt><trkpt lat="42.4716267" lon="2.857935"><ele>243.5</ele><time>2026-04-08T16:49:49.918Z</time></trkpt><trkpt lat="42.471745" lon="2.8579583"><ele>247.0</ele><time>2026-04-08T16:49:50.918Z</time></trkpt><trkpt lat="42.4718667" lon="2.8579583"><ele>247.0</ele><time>2026-04-08T16:49:51.917Z</time></trkpt><trkpt lat="42.471985" lon="2.857925"><ele>247.0</ele><time>2026-04-08T16:49:52.918Z</time></trkpt><trkpt lat="42.4720967" lon="2.8578567"><ele>247.0</ele><time>2026-04-08T16:49:53.917Z</time></trkpt><trkpt lat="42.4722083" lon="2.8577667"><ele>247.0</ele><time>2026-04-08T16:49:54.918Z</time></trkpt><trkpt lat="42.4723167" lon="2.857665"><ele>247.75</ele><time>2026-04-08T16:49:55.918Z</time></trkpt><trkpt lat="42.4724267" lon="2.857565"><ele>248.5</ele><time>2026-04-08T16:49:56.918Z</time></trkpt><trkpt lat="42.4725383" lon="2.8574617"><ele>249.25</ele><time>2026-04-08T16:49:57.917Z</time></trkpt><trkpt lat="42.4726533" lon="2.857355"><ele>250.0</ele><time>2026-04-08T16:49:58.918Z</time></trkpt><trkpt lat="42.47277" lon="2.8572467"><ele>250.0</ele><time>2026-04-08T16:49:59.918Z</time></trkpt><trkpt lat="42.4728817" lon="2.8571333"><ele>250.0</ele><time>2026-04-08T16:50:00.918Z</time></trkpt><trkpt lat="42.4729917" lon="2.857015"><ele>250.0</ele><time>2026-04-08T16:50:01.917Z</time></trkpt><trkpt lat="42.4730933" lon="2.856895"><ele>250.0</ele><time>2026-04-08T16:50:02.918Z</time></trkpt><trkpt lat="42.4731783" lon="2.856765"><ele>247.25</ele><time>2026-04-08T16:50:03.917Z</time></trkpt><trkpt lat="42.4732517" lon="2.85662"><ele>244.5</ele><time>2026-04-08T16:50:04.918Z</time></trkpt><trkpt lat="42.473305" lon="2.8564567"><ele>241.75</ele><time>2026-04-08T16:50:05.918Z</time></trkpt><trkpt lat="42.4733467" lon="2.8562867"><ele>239.0</ele><time>2026-04-08T16:50:06.918Z</time></trkpt><trkpt lat="42.473365" lon="2.8561033"><ele>237.25</ele><time>2026-04-08T16:50:07.918Z</time></trkpt><trkpt lat="42.4733783" lon="2.8559217"><ele>235.5</ele><time>2026-04-08T16:50:08.918Z</time></trkpt><trkpt lat="42.473385" lon="2.855735"><ele>233.75</ele><time>2026-04-08T16:50:09.918Z</time></trkpt><trkpt lat="42.4733867" lon="2.855555"><ele>232.0</ele><time>2026-04-08T16:50:10.918Z</time></trkpt><trkpt lat="42.4733833" lon="2.855375"><ele>232.0</ele><time>2026-04-08T16:50:11.918Z</time></trkpt><trkpt lat="42.47336" lon="2.85521"><ele>232.0</ele><time>2026-04-08T16:50:12.917Z</time></trkpt><trkpt lat="42.4733217" lon="2.855035"><ele>232.0</ele><time>2026-04-08T16:50:13.918Z</time></trkpt><trkpt lat="42.4732617" lon="2.8548717"><ele>232.0</ele><time>2026-04-08T16:50:14.918Z</time></trkpt><trkpt lat="42.4731967" lon="2.8547233"><ele>232.75</ele><time>2026-04-08T16:50:15.918Z</time></trkpt><trkpt lat="42.4731067" lon="2.8545917"><ele>233.5</ele><time>2026-04-08T16:50:16.918Z</time></trkpt><trkpt lat="42.4730033" lon="2.854475"><ele>234.25</ele><time>2026-04-08T16:50:17.917Z</time></trkpt><trkpt lat="42.4728917" lon="2.854375"><ele>235.0</ele><time>2026-04-08T16:50:18.918Z</time></trkpt><trkpt lat="42.4727683" lon="2.8543083"><ele>233.5</ele><time>2026-04-08T16:50:19.918Z</time></trkpt><trkpt lat="42.4726383" lon="2.8542633"><ele>232.0</ele><time>2026-04-08T16:50:20.917Z</time></trkpt><trkpt lat="42.4725" lon="2.854235"><ele>230.5</ele><time>2026-04-08T16:50:21.918Z</time></trkpt><trkpt lat="42.47238" lon="2.85419"><ele>229.0</ele><time>2026-04-08T16:50:22.918Z</time></trkpt><trkpt lat="42.4722633" lon="2.8541433"><ele>229.0</ele><time>2026-04-08T16:50:23.918Z</time></trkpt><trkpt lat="42.4721433" lon="2.854075"><ele>229.0</ele><time>2026-04-08T16:50:24.918Z</time></trkpt><trkpt lat="42.4720433" lon="2.8539983"><ele>229.0</ele><time>2026-04-08T16:50:25.918Z</time></trkpt><trkpt lat="42.4719633" lon="2.8538817"><ele>229.0</ele><time>2026-04-08T16:50:26.918Z</time></trkpt><trkpt lat="42.4719033" lon="2.8537483"><ele>226.5</ele><time>2026-04-08T16:50:27.917Z</time></trkpt><trkpt lat="42.47186" lon="2.8536033"><ele>224.0</ele><time>2026-04-08T16:50:28.918Z</time></trkpt><trkpt lat="42.4718317" lon="2.8534517"><ele>221.5</ele><time>2026-04-08T16:50:29.918Z</time></trkpt><trkpt lat="42.4718317" lon="2.85329"><ele>219.0</ele><time>2026-04-08T16:50:30.918Z</time></trkpt><trkpt lat="42.4718583" lon="2.85313"><ele>219.0</ele><time>2026-04-08T16:50:31.919Z</time></trkpt><trkpt lat="42.471905" lon="2.8529767"><ele>219.0</ele><time>2026-04-08T16:50:32.918Z</time></trkpt><trkpt lat="42.4719783" lon="2.8528383"><ele>219.0</ele><time>2026-04-08T16:50:33.919Z</time></trkpt><trkpt lat="42.4720733" lon="2.8527267"><ele>219.0</ele><time>2026-04-08T16:50:34.919Z</time></trkpt><trkpt lat="42.4721733" lon="2.8526433"><ele>218.0</ele><time>2026-04-08T16:50:35.919Z</time></trkpt><trkpt lat="42.4722883" lon="2.8525833"><ele>217.0</ele><time>2026-04-08T16:50:36.918Z</time></trkpt><trkpt lat="42.4724183" lon="2.8525533"><ele>216.0</ele><time>2026-04-08T16:50:37.918Z</time></trkpt><trkpt lat="42.47255" lon="2.8525583"><ele>215.0</ele><time>2026-04-08T16:50:38.919Z</time></trkpt><trkpt lat="42.4726733" lon="2.8526017"><ele>220.75</ele><time>2026-04-08T16:50:39.919Z</time></trkpt><trkpt lat="42.4727983" lon="2.8526633"><ele>226.5</ele><time>2026-04-08T16:50:40.919Z</time></trkpt><trkpt lat="42.4729217" lon="2.8527183"><ele>232.25</ele><time>2026-04-08T16:50:41.919Z</time></trkpt><trkpt lat="42.4730533" lon="2.8527717"><ele>238.0</ele><time>2026-04-08T16:50:42.919Z</time></trkpt><trkpt lat="42.4731833" lon="2.8527917"><ele>235.0</ele><time>2026-04-08T16:50:43.919Z</time></trkpt><trkpt lat="42.4733217" lon="2.855035"><ele>235.0</ele><time>2026-04-08T16:50:13.918Z</time></trkpt><trkpt lat="42.4732617" lon="2.8548717"><ele>235.0</ele><time>2026-04-08T16:50:14.918Z</time></trkpt><trkpt lat="42.4731967" lon="2.8547233"><ele>235.0</ele><time>2026-04-08T16:50:15.918Z</time></trkpt><trkpt lat="42.4731067" lon="2.8545917"><ele>235.0</ele><time>2026-04-08T16:50:16.918Z</time></trkpt><trkpt lat="42.4730033" lon="2.854475"><ele>233.5</ele><time>2026-04-08T16:50:17.917Z</time></trkpt><trkpt lat="42.4728917" lon="2.854375"><ele>232.0</ele><time>2026-04-08T16:50:18.918Z</time></trkpt><trkpt lat="42.4727683" lon="2.8543083"><ele>230.5</ele><time>2026-04-08T16:50:19.918Z</time></trkpt><trkpt lat="42.4726383" lon="2.8542633"><ele>229.0</ele><time>2026-04-08T16:50:20.917Z</time></trkpt><trkpt lat="42.4725" lon="2.854235"><ele>229.0</ele><time>2026-04-08T16:50:21.918Z</time></trkpt><trkpt lat="42.47238" lon="2.85419"><ele>229.0</ele><time>2026-04-08T16:50:22.918Z</time></trkpt><trkpt lat="42.4722633" lon="2.8541433"><ele>229.0</ele><time>2026-04-08T16:50:23.918Z</time></trkpt><trkpt lat="42.4721433" lon="2.854075"><ele>229.0</ele><time>2026-04-08T16:50:24.918Z</time></trkpt><trkpt lat="42.4720433" lon="2.8539983"><ele>226.5</ele><time>2026-04-08T16:50:25.918Z</time></trkpt><trkpt lat="42.4719633" lon="2.8538817"><ele>224.0</ele><time>2026-04-08T16:50:26.918Z</time></trkpt><trkpt lat="42.4719033" lon="2.8537483"><ele>221.5</ele><time>2026-04-08T16:50:27.917Z</time></trkpt><trkpt lat="42.47186" lon="2.8536033"><ele>219.0</ele><time>2026-04-08T16:50:28.918Z</time></trkpt><trkpt lat="42.4718317" lon="2.8534517"><ele>219.0</ele><time>2026-04-08T16:50:29.918Z</time></trkpt><trkpt lat="42.4718317" lon="2.85329"><ele>219.0</ele><time>2026-04-08T16:50:30.918Z</time></trkpt><trkpt lat="42.4718583" lon="2.85313"><ele>219.0</ele><time>2026-04-08T16:50:31.919Z</time></trkpt><trkpt lat="42.471905" lon="2.8529767"><ele>219.0</ele><time>2026-04-08T16:50:32.918Z</time></trkpt><trkpt lat="42.4719783" lon="2.8528383"><ele>219.0</ele><time>2026-04-08T16:50:33.919Z</time></trkpt><trkpt lat="42.4720733" lon="2.8527267"><ele>219.0</ele><time>2026-04-08T16:50:34.919Z</time></trkpt><trkpt lat="42.4721733" lon="2.8526433"><ele>219.0</ele><time>2026-04-08T16:50:35.919Z</time></trkpt><trkpt lat="42.4722883" lon="2.8525833"><ele>219.0</ele><time>2026-04-08T16:50:36.918Z</time></trkpt><trkpt lat="42.4724183" lon="2.8525533"><ele>218.0</ele><time>2026-04-08T16:50:37.918Z</time></trkpt><trkpt lat="42.47255" lon="2.8525583"><ele>217.0</ele><time>2026-04-08T16:50:38.919Z</time></trkpt><trkpt lat="42.4726733" lon="2.8526017"><ele>216.0</ele><time>2026-04-08T16:50:39.919Z</time></trkpt><trkpt lat="42.4727983" lon="2.8526633"><ele>215.0</ele><time>2026-04-08T16:50:40.919Z</time></trkpt><trkpt lat="42.4729217" lon="2.8527183"><ele>221.5</ele><time>2026-04-08T16:50:41.919Z</time></trkpt><trkpt lat="42.4730533" lon="2.8527717"><ele>228.0</ele><time>2026-04-08T16:50:42.919Z</time></trkpt><trkpt lat="42.4731833" lon="2.8527917"><ele>234.5</ele><time>2026-04-08T16:50:43.919Z</time></trkpt><trkpt lat="42.4733167" lon="2.8527883"><ele>241.0</ele><time>2026-04-08T16:50:44.919Z</time></trkpt><trkpt lat="42.473445" lon="2.8527433"><ele>241.0</ele><time>2026-04-08T16:50:45.919Z</time></trkpt><trkpt lat="42.4735717" lon="2.8526733"><ele>241.0</ele><time>2026-04-08T16:50:46.919Z</time></trkpt><trkpt lat="42.4736883" lon="2.8525717"><ele>241.0</ele><time>2026-04-08T16:50:47.919Z</time></trkpt><trkpt lat="42.4737833" lon="2.8524383"><ele>241.0</ele><time>2026-04-08T16:50:48.918Z</time></trkpt><trkpt lat="42.4738633" lon="2.8522933"><ele>238.0</ele><time>2026-04-08T16:50:49.918Z</time></trkpt><trkpt lat="42.473915" lon="2.85212"><ele>235.0</ele><time>2026-04-08T16:50:50.919Z</time></trkpt><trkpt lat="42.47395" lon="2.8519433"><ele>232.0</ele><time>2026-04-08T16:50:51.919Z</time></trkpt><trkpt lat="42.4739733" lon="2.851755"><ele>229.0</ele><time>2026-04-08T16:50:52.919Z</time></trkpt><trkpt lat="42.4739917" lon="2.8515683"><ele>225.75</ele><time>2026-04-08T16:50:53.919Z</time></trkpt><trkpt lat="42.4740083" lon="2.851375"><ele>222.5</ele><time>2026-04-08T16:50:54.918Z</time></trkpt><trkpt lat="42.47404" lon="2.8511967"><ele>219.25</ele><time>2026-04-08T16:50:55.919Z</time></trkpt><trkpt lat="42.4740667" lon="2.8510133"><ele>216.0</ele><time>2026-04-08T16:50:56.919Z</time></trkpt><trkpt lat="42.4740833" lon="2.8508183"><ele>213.75</ele><time>2026-04-08T16:50:57.919Z</time></trkpt><trkpt lat="42.4740967" lon="2.8506217"><ele>211.5</ele><time>2026-04-08T16:50:58.919Z</time></trkpt><trkpt lat="42.47413" lon="2.8504433"><ele>209.25</ele><time>2026-04-08T16:50:59.918Z</time></trkpt><trkpt lat="42.4741667" lon="2.8502733"><ele>207.0</ele><time>2026-04-08T16:51:00.919Z</time></trkpt><trkpt lat="42.47419" lon="2.8500983"><ele>205.5</ele><time>2026-04-08T16:51:01.918Z</time></trkpt><trkpt lat="42.474215" lon="2.8499267"><ele>204.0</ele><time>2026-04-08T16:51:02.919Z</time></trkpt><trkpt lat="42.4742433" lon="2.8497583"><ele>202.5</ele><time>2026-04-08T16:51:03.919Z</time></trkpt><trkpt lat="42.474275" lon="2.849585"><ele>201.0</ele><time>2026-04-08T16:51:04.919Z</time></trkpt><trkpt lat="42.4743033" lon="2.8494183"><ele>200.5</ele><time>2026-04-08T16:51:05.919Z</time></trkpt><trkpt lat="42.4743217" lon="2.8492533"><ele>200.0</ele><time>2026-04-08T16:51:06.919Z</time></trkpt><trkpt lat="42.4743233" lon="2.8490817"><ele>199.5</ele><time>2026-04-08T16:51:07.919Z</time></trkpt><trkpt lat="42.4743033" lon="2.8489133"><ele>199.0</ele><time>2026-04-08T16:51:08.919Z</time></trkpt><trkpt lat="42.4742783" lon="2.8487517"><ele>199.0</ele><time>2026-04-08T16:51:09.919Z</time></trkpt><trkpt lat="42.4742583" lon="2.84859"><ele>199.0</ele><time>2026-04-08T16:51:10.919Z</time></trkpt><trkpt lat="42.4742533" lon="2.848425"><ele>199.0</ele><time>2026-04-08T16:51:11.919Z</time></trkpt><trkpt lat="42.4742633" lon="2.8482583"><ele>199.0</ele><time>2026-04-08T16:51:12.918Z</time></trkpt><trkpt lat="42.4742867" lon="2.848095"><ele>199.5</ele><time>2026-04-08T16:51:13.919Z</time></trkpt><trkpt lat="42.4743217" lon="2.8479367"><ele>200.0</ele><time>2026-04-08T16:51:14.918Z</time></trkpt><trkpt lat="42.4743967" lon="2.84781"><ele>200.5</ele><time>2026-04-08T16:51:15.919Z</time></trkpt><trkpt lat="42.4744783" lon="2.8476883"><ele>201.0</ele><time>2026-04-08T16:51:16.919Z</time></trkpt><trkpt lat="42.474565" lon="2.8475767"><ele>200.25</ele><time>2026-04-08T16:51:17.918Z</time></trkpt><trkpt lat="42.4746667" lon="2.8474733"><ele>199.5</ele><time>2026-04-08T16:51:18.919Z</time></trkpt><trkpt lat="42.4747933" lon="2.8473917"><ele>198.75</ele><time>2026-04-08T16:51:19.919Z</time></trkpt><trkpt lat="42.4749333" lon="2.8473133"><ele>198.0</ele><time>2026-04-08T16:51:20.919Z</time></trkpt><trkpt lat="42.4750833" lon="2.8472333"><ele>198.0</ele><time>2026-04-08T16:51:21.919Z</time></trkpt><trkpt lat="42.4752433" lon="2.8471517"><ele>198.0</ele><time>2026-04-08T16:51:22.918Z</time></trkpt><trkpt lat="42.4754117" lon="2.8470717"><ele>198.0</ele><time>2026-04-08T16:51:23.919Z</time></trkpt><trkpt lat="42.4755783" lon="2.846995"><ele>202.33333333333331</ele><time>2026-04-08T16:51:24.919Z</time></trkpt><trkpt lat="42.475745" lon="2.8469283"><ele>206.66666666666666</ele><time>2026-04-08T16:51:25.919Z</time></trkpt><trkpt lat="42.4759117" lon="2.84686"><ele>211.0</ele><time>2026-04-08T16:51:26.918Z</time></trkpt><trkpt lat="42.476075" lon="2.8467767"><ele>207.33333333333331</ele><time>2026-04-08T16:51:27.919Z</time></trkpt><trkpt lat="42.4762283" lon="2.84666"><ele>203.66666666666669</ele><time>2026-04-08T16:51:28.919Z</time></trkpt><trkpt lat="42.4763617" lon="2.8465317"><ele>200.0</ele><time>2026-04-08T16:51:29.919Z</time></trkpt><trkpt lat="42.4764883" lon="2.846385"><ele>200.0</ele><time>2026-04-08T16:51:30.919Z</time></trkpt><trkpt lat="42.476615" lon="2.846255"><ele>200.0</ele><time>2026-04-08T16:51:31.919Z</time></trkpt><trkpt lat="42.47675" lon="2.84615"><ele>200.0</ele><time>2026-04-08T16:51:32.919Z</time></trkpt><trkpt lat="42.476895" lon="2.84607"><ele>200.0</ele><time>2026-04-08T16:51:33.919Z</time></trkpt><trkpt lat="42.4770433" lon="2.8460217"><ele>200.0</ele><time>2026-04-08T16:51:34.918Z</time></trkpt><trkpt lat="42.4771983" lon="2.8460167"><ele>200.0</ele><time>2026-04-08T16:51:35.918Z</time></trkpt><trkpt lat="42.4773367" lon="2.8460483"><ele>200.0</ele><time>2026-04-08T16:51:36.919Z</time></trkpt><trkpt lat="42.477475" lon="2.8461183"><ele>200.5</ele><time>2026-04-08T16:51:37.919Z</time></trkpt><trkpt lat="42.477605" lon="2.8462133"><ele>201.0</ele><time>2026-04-08T16:51:38.919Z</time></trkpt><trkpt lat="42.4777317" lon="2.8463233"><ele>201.5</ele><time>2026-04-08T16:51:39.919Z</time></trkpt><trkpt lat="42.4778617" lon="2.8464083"><ele>202.0</ele><time>2026-04-08T16:51:40.918Z</time></trkpt><trkpt lat="42.4779867" lon="2.8464383"><ele>202.0</ele><time>2026-04-08T16:51:41.919Z</time></trkpt><trkpt lat="42.478125" lon="2.8464433"><ele>202.0</ele><time>2026-04-08T16:51:42.919Z</time></trkpt><trkpt lat="42.4782617" lon="2.8464117"><ele>202.0</ele><time>2026-04-08T16:51:43.919Z</time></trkpt><trkpt lat="42.4783867" lon="2.8463483"><ele>202.0</ele><time>2026-04-08T16:51:44.919Z</time></trkpt><trkpt lat="42.4785" lon="2.8462583"><ele>202.0</ele><time>2026-04-08T16:51:45.919Z</time></trkpt><trkpt lat="42.478595" lon="2.846145"><ele>202.0</ele><time>2026-04-08T16:51:46.919Z</time></trkpt><trkpt lat="42.4786783" lon="2.846035"><ele>202.0</ele><time>2026-04-08T16:51:47.919Z</time></trkpt><trkpt lat="42.4787333" lon="2.8458833"><ele>202.0</ele><time>2026-04-08T16:51:48.919Z</time></trkpt><trkpt lat="42.4787667" lon="2.8457083"><ele>202.0</ele><time>2026-04-08T16:51:49.919Z</time></trkpt><trkpt lat="42.4787733" lon="2.8455317"><ele>202.0</ele><time>2026-04-08T16:51:50.919Z</time></trkpt><trkpt lat="42.4787833" lon="2.8453517"><ele>202.0</ele><time>2026-04-08T16:51:51.919Z</time></trkpt><trkpt lat="42.4787917" lon="2.845175"><ele>202.0</ele><time>2026-04-08T16:51:52.919Z</time></trkpt><trkpt lat="42.4788017" lon="2.8449967"><ele>202.0</ele><time>2026-04-08T16:51:53.918Z</time></trkpt><trkpt lat="42.4788117" lon="2.8448167"><ele>202.0</ele><time>2026-04-08T16:51:54.919Z</time></trkpt><trkpt lat="42.4788333" lon="2.8446317"><ele>202.0</ele><time>2026-04-08T16:51:55.919Z</time></trkpt><trkpt lat="42.4788717" lon="2.8444467"><ele>202.0</ele><time>2026-04-08T16:51:56.919Z</time></trkpt><trkpt lat="42.4789267" lon="2.8442617"><ele>197.0</ele><time>2026-04-08T16:51:57.919Z</time></trkpt><trkpt lat="42.4789867" lon="2.8440717"><ele>192.0</ele><time>2026-04-08T16:51:58.919Z</time></trkpt><trkpt lat="42.479065" lon="2.8439017"><ele>187.0</ele><time>2026-04-08T16:51:59.919Z</time></trkpt><trkpt lat="42.4792433" lon="2.8435833"><ele>181.33333333333334</ele><time>2026-04-08T16:52:01.919Z</time></trkpt><trkpt lat="42.479335" lon="2.8434167"><ele>175.66666666666666</ele><time>2026-04-08T16:52:02.919Z</time></trkpt><trkpt lat="42.479425" lon="2.8432483"><ele>170.0</ele><time>2026-04-08T16:52:03.919Z</time></trkpt><trkpt lat="42.47951" lon="2.843085"><ele>176.0</ele><time>2026-04-08T16:52:04.919Z</time></trkpt><trkpt lat="42.4796133" lon="2.84294"><ele>182.0</ele><time>2026-04-08T16:52:05.919Z</time></trkpt><trkpt lat="42.4797183" lon="2.8428033"><ele>188.0</ele><time>2026-04-08T16:52:06.919Z</time></trkpt><trkpt lat="42.47984" lon="2.8426983"><ele>194.0</ele><time>2026-04-08T16:52:07.919Z</time></trkpt><trkpt lat="42.4799783" lon="2.8426333"><ele>194.0</ele><time>2026-04-08T16:52:08.918Z</time></trkpt><trkpt lat="42.4801233" lon="2.8426033"><ele>194.0</ele><time>2026-04-08T16:52:09.918Z</time></trkpt><trkpt lat="42.4802667" lon="2.8426233"><ele>194.0</ele><time>2026-04-08T16:52:10.919Z</time></trkpt><trkpt lat="42.4803967" lon="2.8426633"><ele>194.0</ele><time>2026-04-08T16:52:11.919Z</time></trkpt><trkpt lat="42.48053" lon="2.8427067"><ele>195.0</ele><time>2026-04-08T16:52:12.919Z</time></trkpt><trkpt lat="42.4806617" lon="2.8427083"><ele>196.0</ele><time>2026-04-08T16:52:13.919Z</time></trkpt><trkpt lat="42.4807917" lon="2.84269"><ele>197.0</ele><time>2026-04-08T16:52:14.918Z</time></trkpt><trkpt lat="42.4809233" lon="2.8426383"><ele>198.0</ele><time>2026-04-08T16:52:15.919Z</time></trkpt><trkpt lat="42.481045" lon="2.8425617"><ele>196.0</ele><time>2026-04-08T16:52:16.919Z</time></trkpt><trkpt lat="42.4811533" lon="2.84246"><ele>194.0</ele><time>2026-04-08T16:52:17.918Z</time></trkpt><trkpt lat="42.4812583" lon="2.8423467"><ele>192.0</ele><time>2026-04-08T16:52:18.919Z</time></trkpt><trkpt lat="42.4813633" lon="2.8422217"><ele>190.0</ele><time>2026-04-08T16:52:19.919Z</time></trkpt><trkpt lat="42.48147" lon="2.8421"><ele>190.0</ele><time>2026-04-08T16:52:20.919Z</time></trkpt><trkpt lat="42.48157" lon="2.841985"><ele>190.0</ele><time>2026-04-08T16:52:21.918Z</time></trkpt><trkpt lat="42.481665" lon="2.8418783"><ele>190.0</ele><time>2026-04-08T16:52:22.919Z</time></trkpt><trkpt lat="42.4817633" lon="2.8417717"><ele>190.0</ele><time>2026-04-08T16:52:23.919Z</time></trkpt><trkpt lat="42.4818683" lon="2.841665"><ele>189.5</ele><time>2026-04-08T16:52:24.919Z</time></trkpt><trkpt lat="42.4819717" lon="2.8415683"><ele>189.0</ele><time>2026-04-08T16:52:25.919Z</time></trkpt><trkpt lat="42.48208" lon="2.8414717"><ele>188.5</ele><time>2026-04-08T16:52:26.918Z</time></trkpt><trkpt lat="42.4821883" lon="2.841375"><ele>188.0</ele><time>2026-04-08T16:52:27.919Z</time></trkpt><trkpt lat="42.4822967" lon="2.8412783"><ele>188.0</ele><time>2026-04-08T16:52:28.918Z</time></trkpt><trkpt lat="42.482405" lon="2.8411833"><ele>188.0</ele><time>2026-04-08T16:52:29.919Z</time></trkpt><trkpt lat="42.482515" lon="2.8410883"><ele>188.0</ele><time>2026-04-08T16:52:30.919Z</time></trkpt><trkpt lat="42.482625" lon="2.8409967"><ele>188.0</ele><time>2026-04-08T16:52:31.918Z</time></trkpt><trkpt lat="42.482735" lon="2.8408983"><ele>185.0</ele><time>2026-04-08T16:52:32.919Z</time></trkpt><trkpt lat="42.4828467" lon="2.8408"><ele>182.0</ele><time>2026-04-08T16:52:33.919Z</time></trkpt><trkpt lat="42.4829567" lon="2.8407"><ele>179.0</ele><time>2026-04-08T16:52:34.919Z</time></trkpt><trkpt lat="42.483065" lon="2.8406"><ele>176.0</ele><time>2026-04-08T16:52:35.918Z</time></trkpt><trkpt lat="42.483175" lon="2.840505"><ele>176.0</ele><time>2026-04-08T16:52:36.919Z</time></trkpt><trkpt lat="42.483285" lon="2.8404033"><ele>176.0</ele><time>2026-04-08T16:52:37.919Z</time></trkpt><trkpt lat="42.4833917" lon="2.8403"><ele>176.0</ele><time>2026-04-08T16:52:38.918Z</time></trkpt><trkpt lat="42.4834967" lon="2.8401933"><ele>176.0</ele><time>2026-04-08T16:52:39.919Z</time></trkpt><trkpt lat="42.4835883" lon="2.8400717"><ele>175.25</ele><time>2026-04-08T16:52:40.919Z</time></trkpt><trkpt lat="42.4836917" lon="2.839965"><ele>174.5</ele><time>2026-04-08T16:52:41.919Z</time></trkpt><trkpt lat="42.48378" lon="2.8398533"><ele>173.75</ele><time>2026-04-08T16:52:42.919Z</time></trkpt><trkpt lat="42.4838533" lon="2.8397283"><ele>173.0</ele><time>2026-04-08T16:52:43.919Z</time></trkpt><trkpt lat="42.4839217" lon="2.8396"><ele>173.0</ele><time>2026-04-08T16:52:44.919Z</time></trkpt><trkpt lat="42.4839567" lon="2.8394467"><ele>173.0</ele><time>2026-04-08T16:52:45.919Z</time></trkpt><trkpt lat="42.4839617" lon="2.839285"><ele>173.0</ele><time>2026-04-08T16:52:46.918Z</time></trkpt><trkpt lat="42.4839567" lon="2.8391183"><ele>173.0</ele><time>2026-04-08T16:52:47.919Z</time></trkpt><trkpt lat="42.4839617" lon="2.8389467"><ele>170.25</ele><time>2026-04-08T16:52:48.919Z</time></trkpt><trkpt lat="42.4839783" lon="2.8387783"><ele>167.5</ele><time>2026-04-08T16:52:49.918Z</time></trkpt><trkpt lat="42.4839917" lon="2.8386033"><ele>164.75</ele><time>2026-04-08T16:52:50.919Z</time></trkpt><trkpt lat="42.4840033" lon="2.8384183"><ele>162.0</ele><time>2026-04-08T16:52:51.919Z</time></trkpt><trkpt lat="42.4840117" lon="2.8382333"><ele>159.5</ele><time>2026-04-08T16:52:52.918Z</time></trkpt><trkpt lat="42.484025" lon="2.83804"><ele>157.0</ele><time>2026-04-08T16:52:53.918Z</time></trkpt><trkpt lat="42.4840467" lon="2.8378467"><ele>154.5</ele><time>2026-04-08T16:52:54.918Z</time></trkpt><trkpt lat="42.484065" lon="2.8376617"><ele>152.0</ele><time>2026-04-08T16:52:55.919Z</time></trkpt><trkpt lat="42.484095" lon="2.8374767"><ele>150.25</ele><time>2026-04-08T16:52:56.919Z</time></trkpt><trkpt lat="42.48413" lon="2.83729"><ele>148.5</ele><time>2026-04-08T16:52:57.919Z</time></trkpt><trkpt lat="42.4841667" lon="2.8371033"><ele>146.75</ele><time>2026-04-08T16:52:58.919Z</time></trkpt><trkpt lat="42.4842133" lon="2.8369283"><ele>145.0</ele><time>2026-04-08T16:52:59.919Z</time></trkpt><trkpt lat="42.4842717" lon="2.83676"><ele>144.0</ele><time>2026-04-08T16:53:00.919Z</time></trkpt><trkpt lat="42.48434" lon="2.8366167"><ele>143.0</ele><time>2026-04-08T16:53:01.918Z</time></trkpt><trkpt lat="42.4844267" lon="2.8364883"><ele>142.0</ele><time>2026-04-08T16:53:02.919Z</time></trkpt><trkpt lat="42.4845267" lon="2.8363867"><ele>141.0</ele><time>2026-04-08T16:53:03.919Z</time></trkpt><trkpt lat="42.4846417" lon="2.8363133"><ele>143.25</ele><time>2026-04-08T16:53:04.919Z</time></trkpt><trkpt lat="42.48477" lon="2.83627"><ele>145.5</ele><time>2026-04-08T16:53:05.919Z</time></trkpt><trkpt lat="42.4849083" lon="2.8362567"><ele>147.75</ele><time>2026-04-08T16:53:06.919Z</time></trkpt><trkpt lat="42.485045" lon="2.836275"><ele>150.0</ele><time>2026-04-08T16:53:07.919Z</time></trkpt><trkpt lat="42.4851783" lon="2.836325"><ele>150.0</ele><time>2026-04-08T16:53:08.919Z</time></trkpt><trkpt lat="42.4853083" lon="2.8363933"><ele>150.0</ele><time>2026-04-08T16:53:09.919Z</time></trkpt><trkpt lat="42.48544" lon="2.83648"><ele>150.0</ele><time>2026-04-08T16:53:10.919Z</time></trkpt><trkpt lat="42.4855683" lon="2.8365633"><ele>150.0</ele><time>2026-04-08T16:53:11.918Z</time></trkpt><trkpt lat="42.4856983" lon="2.8366467"><ele>148.33333333333334</ele><time>2026-04-08T16:53:12.918Z</time></trkpt><trkpt lat="42.4858383" lon="2.83674"><ele>146.66666666666669</ele><time>2026-04-08T16:53:13.918Z</time></trkpt><trkpt lat="42.4859817" lon="2.8368217"><ele>145.0</ele><time>2026-04-08T16:53:14.918Z</time></trkpt><trkpt lat="42.4861233" lon="2.8369083"><ele>143.0</ele><time>2026-04-08T16:53:15.918Z</time></trkpt><trkpt lat="42.4862683" lon="2.836995"><ele>141.0</ele><time>2026-04-08T16:53:16.918Z</time></trkpt><trkpt lat="42.4864133" lon="2.8370783"><ele>139.0</ele><time>2026-04-08T16:53:17.917Z</time></trkpt><trkpt lat="42.48656" lon="2.8371433"><ele>139.0</ele><time>2026-04-08T16:53:18.918Z</time></trkpt><trkpt lat="42.4867083" lon="2.8372017"><ele>139.0</ele><time>2026-04-08T16:53:19.918Z</time></trkpt><trkpt lat="42.4868533" lon="2.8372433"><ele>139.0</ele><time>2026-04-08T16:53:20.917Z</time></trkpt><trkpt lat="42.487" lon="2.8372667"><ele>141.5</ele><time>2026-04-08T16:53:21.918Z</time></trkpt><trkpt lat="42.4871517" lon="2.8372633"><ele>144.0</ele><time>2026-04-08T16:53:22.917Z</time></trkpt><trkpt lat="42.4872917" lon="2.8372517"><ele>146.5</ele><time>2026-04-08T16:53:23.918Z</time></trkpt><trkpt lat="42.48743" lon="2.837235"><ele>149.0</ele><time>2026-04-08T16:53:24.918Z</time></trkpt><trkpt lat="42.4875717" lon="2.8372117"><ele>149.0</ele><time>2026-04-08T16:53:25.918Z</time></trkpt><trkpt lat="42.4877167" lon="2.83717"><ele>149.0</ele><time>2026-04-08T16:53:26.918Z</time></trkpt><trkpt lat="42.4878583" lon="2.837115"><ele>149.0</ele><time>2026-04-08T16:53:27.917Z</time></trkpt><trkpt lat="42.488005" lon="2.8370467"><ele>149.0</ele><time>2026-04-08T16:53:28.917Z</time></trkpt><trkpt lat="42.4881567" lon="2.8369633"><ele>149.0</ele><time>2026-04-08T16:53:29.918Z</time></trkpt><trkpt lat="42.4883033" lon="2.83686"><ele>149.0</ele><time>2026-04-08T16:53:30.917Z</time></trkpt><trkpt lat="42.4884433" lon="2.8367383"><ele>145.0</ele><time>2026-04-08T16:53:31.918Z</time></trkpt><trkpt lat="42.4885783" lon="2.8366"><ele>141.0</ele><time>2026-04-08T16:53:32.918Z</time></trkpt><trkpt lat="42.4887067" lon="2.8364533"><ele>137.0</ele><time>2026-04-08T16:53:33.918Z</time></trkpt><trkpt lat="42.488825" lon="2.8362867"><ele>136.66666666666666</ele><time>2026-04-08T16:53:34.918Z</time></trkpt><trkpt lat="42.4889433" lon="2.8361183"><ele>136.33333333333334</ele><time>2026-04-08T16:53:35.917Z</time></trkpt><trkpt lat="42.489055" lon="2.8359383"><ele>136.0</ele><time>2026-04-08T16:53:36.918Z</time></trkpt><trkpt lat="42.4891667" lon="2.8357533"><ele>134.33333333333334</ele><time>2026-04-08T16:53:37.917Z</time></trkpt><trkpt lat="42.48927" lon="2.835565"><ele>132.66666666666666</ele><time>2026-04-08T16:53:38.918Z</time></trkpt><trkpt lat="42.489375" lon="2.835385"><ele>131.0</ele><time>2026-04-08T16:53:39.918Z</time></trkpt><trkpt lat="42.4894767" lon="2.8352"><ele>129.33333333333331</ele><time>2026-04-08T16:53:40.918Z</time></trkpt><trkpt lat="42.4895733" lon="2.83502"><ele>127.66666666666666</ele><time>2026-04-08T16:53:41.918Z</time></trkpt><trkpt lat="42.4896717" lon="2.8348567"><ele>126.0</ele><time>2026-04-08T16:53:42.918Z</time></trkpt><trkpt lat="42.4897683" lon="2.8346917"><ele>129.66666666666666</ele><time>2026-04-08T16:53:43.918Z</time></trkpt><trkpt lat="42.4898667" lon="2.8345267"><ele>133.33333333333331</ele><time>2026-04-08T16:53:44.917Z</time></trkpt><trkpt lat="42.489965" lon="2.8343617"><ele>137.0</ele><time>2026-04-08T16:53:45.918Z</time></trkpt><trkpt lat="42.49006" lon="2.834195"><ele>137.0</ele><time>2026-04-08T16:53:46.918Z</time></trkpt><trkpt lat="42.4901517" lon="2.8340283"><ele>137.0</ele><time>2026-04-08T16:53:47.918Z</time></trkpt><trkpt lat="42.4902467" lon="2.8338683"><ele>137.0</ele><time>2026-04-08T16:53:48.918Z</time></trkpt><trkpt lat="42.49034" lon="2.8337"><ele>139.0</ele><time>2026-04-08T16:53:49.918Z</time></trkpt><trkpt lat="42.49043" lon="2.8335283"><ele>141.0</ele><time>2026-04-08T16:53:50.918Z</time></trkpt><trkpt lat="42.4905283" lon="2.8333533"><ele>143.0</ele><time>2026-04-08T16:53:51.918Z</time></trkpt><trkpt lat="42.4906317" lon="2.8331833"><ele>143.0</ele><time>2026-04-08T16:53:52.917Z</time></trkpt><trkpt lat="42.4907383" lon="2.83301"><ele>143.0</ele><time>2026-04-08T16:53:53.918Z</time></trkpt><trkpt lat="42.4908433" lon="2.8328317"><ele>143.0</ele><time>2026-04-08T16:53:54.918Z</time></trkpt><trkpt lat="42.4909467" lon="2.8326517"><ele>143.33333333333331</ele><time>2026-04-08T16:53:55.918Z</time></trkpt><trkpt lat="42.491055" lon="2.83248"><ele>143.66666666666666</ele><time>2026-04-08T16:53:56.918Z</time></trkpt><trkpt lat="42.491165" lon="2.83231"><ele>144.0</ele><time>2026-04-08T16:53:57.918Z</time></trkpt><trkpt lat="42.491275" lon="2.83214"><ele>144.0</ele><time>2026-04-08T16:53:58.918Z</time></trkpt><trkpt lat="42.491385" lon="2.8319667"><ele>144.0</ele><time>2026-04-08T16:53:59.918Z</time></trkpt><trkpt lat="42.49149" lon="2.8317933"><ele>144.0</ele><time>2026-04-08T16:54:00.918Z</time></trkpt><trkpt lat="42.4915933" lon="2.8316183"><ele>141.0</ele><time>2026-04-08T16:54:01.918Z</time></trkpt><trkpt lat="42.4916933" lon="2.8314383"><ele>138.0</ele><time>2026-04-08T16:54:02.918Z</time></trkpt><trkpt lat="42.4917917" lon="2.83126"><ele>135.0</ele><time>2026-04-08T16:54:03.918Z</time></trkpt><trkpt lat="42.491895" lon="2.83108"><ele>133.66666666666666</ele><time>2026-04-08T16:54:04.918Z</time></trkpt><trkpt lat="42.4919967" lon="2.8309033"><ele>132.33333333333331</ele><time>2026-04-08T16:54:05.918Z</time></trkpt><trkpt lat="42.4921" lon="2.8307267"><ele>131.0</ele><time>2026-04-08T16:54:06.918Z</time></trkpt><trkpt lat="42.492205" lon="2.8305517"><ele>131.66666666666666</ele><time>2026-04-08T16:54:07.917Z</time></trkpt><trkpt lat="42.49231" lon="2.8303783"><ele>132.33333333333334</ele><time>2026-04-08T16:54:08.917Z</time></trkpt><trkpt lat="42.4924133" lon="2.8302083"><ele>133.0</ele><time>2026-04-08T16:54:09.918Z</time></trkpt><trkpt lat="42.4925167" lon="2.8300433"><ele>133.0</ele><time>2026-04-08T16:54:10.918Z</time></trkpt><trkpt lat="42.4926217" lon="2.82988"><ele>133.0</ele><time>2026-04-08T16:54:11.917Z</time></trkpt><trkpt lat="42.492725" lon="2.8297217"><ele>133.0</ele><time>2026-04-08T16:54:12.918Z</time></trkpt><trkpt lat="42.4928333" lon="2.8295667"><ele>132.33333333333334</ele><time>2026-04-08T16:54:13.918Z</time></trkpt><trkpt lat="42.4929467" lon="2.8294117"><ele>131.66666666666666</ele><time>2026-04-08T16:54:14.918Z</time></trkpt><trkpt lat="42.493065" lon="2.8292617"><ele>131.0</ele><time>2026-04-08T16:54:15.918Z</time></trkpt><trkpt lat="42.4931833" lon="2.8291117"><ele>131.0</ele><time>2026-04-08T16:54:16.918Z</time></trkpt><trkpt lat="42.4933033" lon="2.8289583"><ele>131.0</ele><time>2026-04-08T16:54:17.917Z</time></trkpt><trkpt lat="42.493425" lon="2.8288017"><ele>131.0</ele><time>2026-04-08T16:54:18.918Z</time></trkpt><trkpt lat="42.4938033" lon="2.8283417"><ele>130.0</ele><time>2026-04-08T16:54:21.918Z</time></trkpt><trkpt lat="42.49393" lon="2.8281867"><ele>129.0</ele><time>2026-04-08T16:54:22.918Z</time></trkpt><trkpt lat="42.4940567" lon="2.8280333"><ele>128.0</ele><time>2026-04-08T16:54:23.918Z</time></trkpt><trkpt lat="42.4941817" lon="2.8278817"><ele>128.0</ele><time>2026-04-08T16:54:24.918Z</time></trkpt><trkpt lat="42.4943083" lon="2.82773"><ele>128.0</ele><time>2026-04-08T16:54:25.918Z</time></trkpt><trkpt lat="42.4944333" lon="2.8275767"><ele>128.0</ele><time>2026-04-08T16:54:26.918Z</time></trkpt><trkpt lat="42.4945533" lon="2.82742"><ele>126.66666666666666</ele><time>2026-04-08T16:54:27.918Z</time></trkpt><trkpt lat="42.4946667" lon="2.8272483"><ele>125.33333333333334</ele><time>2026-04-08T16:54:28.917Z</time></trkpt><trkpt lat="42.4947733" lon="2.82707"><ele>124.0</ele><time>2026-04-08T16:54:29.917Z</time></trkpt><trkpt lat="42.4948667" lon="2.82688"><ele>123.33333333333334</ele><time>2026-04-08T16:54:30.917Z</time></trkpt><trkpt lat="42.4949567" lon="2.8266817"><ele>122.66666666666666</ele><time>2026-04-08T16:54:31.918Z</time></trkpt><trkpt lat="42.495035" lon="2.82648"><ele>122.0</ele><time>2026-04-08T16:54:32.918Z</time></trkpt><trkpt lat="42.4951" lon="2.8262683"><ele>122.0</ele><time>2026-04-08T16:54:33.918Z</time></trkpt><trkpt lat="42.4951667" lon="2.826055"><ele>122.0</ele><time>2026-04-08T16:54:34.918Z</time></trkpt><trkpt lat="42.49523" lon="2.8258333"><ele>122.0</ele><time>2026-04-08T16:54:35.918Z</time></trkpt><trkpt lat="42.4952883" lon="2.8256017"><ele>123.0</ele><time>2026-04-08T16:54:36.918Z</time></trkpt><trkpt lat="42.495345" lon="2.82537"><ele>124.0</ele><time>2026-04-08T16:54:37.918Z</time></trkpt><trkpt lat="42.495405" lon="2.8251367"><ele>125.0</ele><time>2026-04-08T16:54:38.918Z</time></trkpt><trkpt lat="42.495465" lon="2.8249017"><ele>125.0</ele><time>2026-04-08T16:54:39.918Z</time></trkpt><trkpt lat="42.4955267" lon="2.82466"><ele>125.0</ele><time>2026-04-08T16:54:40.918Z</time></trkpt><trkpt lat="42.4956" lon="2.8244033"><ele>125.0</ele><time>2026-04-08T16:54:41.918Z</time></trkpt><trkpt lat="42.4956767" lon="2.8241517"><ele>123.33333333333333</ele><time>2026-04-08T16:54:42.918Z</time></trkpt><trkpt lat="42.4957667" lon="2.8239017"><ele>121.66666666666666</ele><time>2026-04-08T16:54:43.918Z</time></trkpt><trkpt lat="42.4958683" lon="2.8236667"><ele>120.0</ele><time>2026-04-08T16:54:44.918Z</time></trkpt><trkpt lat="42.495985" lon="2.82344"><ele>120.66666666666666</ele><time>2026-04-08T16:54:45.918Z</time></trkpt><trkpt lat="42.496105" lon="2.82323"><ele>121.33333333333333</ele><time>2026-04-08T16:54:46.918Z</time></trkpt><trkpt lat="42.4962283" lon="2.82302"><ele>122.0</ele><time>2026-04-08T16:54:47.918Z</time></trkpt><trkpt lat="42.496365" lon="2.8228183"><ele>119.0</ele><time>2026-04-08T16:54:48.918Z</time></trkpt><trkpt lat="42.4964967" lon="2.822625"><ele>116.0</ele><time>2026-04-08T16:54:49.918Z</time></trkpt><trkpt lat="42.4966283" lon="2.82244"><ele>113.0</ele><time>2026-04-08T16:54:50.918Z</time></trkpt><trkpt lat="42.4967667" lon="2.8222583"><ele>113.0</ele><time>2026-04-08T16:54:51.917Z</time></trkpt><trkpt lat="42.4969033" lon="2.8220933"><ele>113.0</ele><time>2026-04-08T16:54:52.918Z</time></trkpt><trkpt lat="42.49704" lon="2.821935"><ele>113.0</ele><time>2026-04-08T16:54:53.918Z</time></trkpt><trkpt lat="42.497175" lon="2.8217833"><ele>112.33333333333333</ele><time>2026-04-08T16:54:54.918Z</time></trkpt><trkpt lat="42.4973133" lon="2.821655"><ele>111.66666666666666</ele><time>2026-04-08T16:54:55.918Z</time></trkpt><trkpt lat="42.4974633" lon="2.8215383"><ele>111.0</ele><time>2026-04-08T16:54:56.918Z</time></trkpt><trkpt lat="42.4976083" lon="2.8214183"><ele>111.0</ele><time>2026-04-08T16:54:57.917Z</time></trkpt><trkpt lat="42.4977483" lon="2.821315"><ele>111.0</ele><time>2026-04-08T16:54:58.918Z</time></trkpt><trkpt lat="42.4978733" lon="2.8212217"><ele>111.0</ele><time>2026-04-08T16:54:59.917Z</time></trkpt><trkpt lat="42.497995" lon="2.8211417"><ele>111.0</ele><time>2026-04-08T16:55:00.918Z</time></trkpt><trkpt lat="42.4981083" lon="2.82106"><ele>111.0</ele><time>2026-04-08T16:55:01.918Z</time></trkpt><trkpt lat="42.4982167" lon="2.8209867"><ele>111.0</ele><time>2026-04-08T16:55:02.917Z</time></trkpt><trkpt lat="42.4983333" lon="2.8209283"><ele>111.0</ele><time>2026-04-08T16:55:03.918Z</time></trkpt><trkpt lat="42.49845" lon="2.820875"><ele>111.0</ele><time>2026-04-08T16:55:04.917Z</time></trkpt><trkpt lat="42.49857" lon="2.8208233"><ele>111.0</ele><time>2026-04-08T16:55:05.918Z</time></trkpt><trkpt lat="42.4986917" lon="2.8207783"><ele>111.0</ele><time>2026-04-08T16:55:06.918Z</time></trkpt><trkpt lat="42.4988183" lon="2.8207417"><ele>111.0</ele><time>2026-04-08T16:55:07.918Z</time></trkpt><trkpt lat="42.4989517" lon="2.820705"><ele>111.0</ele><time>2026-04-08T16:55:08.918Z</time></trkpt><trkpt lat="42.4990817" lon="2.8206767"><ele>112.25</ele><time>2026-04-08T16:55:09.917Z</time></trkpt><trkpt lat="42.499215" lon="2.8206583"><ele>113.5</ele><time>2026-04-08T16:55:10.918Z</time></trkpt><trkpt lat="42.4993483" lon="2.8206517"><ele>114.75</ele><time>2026-04-08T16:55:11.918Z</time></trkpt><trkpt lat="42.4994483" lon="2.8206083"><ele>116.0</ele><time>2026-04-08T16:55:12.917Z</time></trkpt><trkpt lat="42.4995767" lon="2.8206067"><ele>115.25</ele><time>2026-04-08T16:55:13.917Z</time></trkpt><trkpt lat="42.4997067" lon="2.8206067"><ele>114.5</ele><time>2026-04-08T16:55:14.918Z</time></trkpt><trkpt lat="42.4998367" lon="2.820625"><ele>113.75</ele><time>2026-04-08T16:55:15.918Z</time></trkpt><trkpt lat="42.499955" lon="2.8206417"><ele>113.0</ele><time>2026-04-08T16:55:16.918Z</time></trkpt><trkpt lat="42.5000733" lon="2.8206767"><ele>113.0</ele><time>2026-04-08T16:55:17.918Z</time></trkpt><trkpt lat="42.5001833" lon="2.8207133"><ele>113.00000000000001</ele><time>2026-04-08T16:55:18.917Z</time></trkpt><trkpt lat="42.5002817" lon="2.8207517"><ele>113.00000000000001</ele><time>2026-04-08T16:55:19.918Z</time></trkpt><trkpt lat="42.5003767" lon="2.82079"><ele>113.0</ele><time>2026-04-08T16:55:20.918Z</time></trkpt><trkpt lat="42.500465" lon="2.8208283"><ele>113.0</ele><time>2026-04-08T16:55:21.918Z</time></trkpt><trkpt lat="42.5005417" lon="2.820865"><ele>111.75</ele><time>2026-04-08T16:55:22.918Z</time></trkpt><trkpt lat="42.5006117" lon="2.8209083"><ele>110.5</ele><time>2026-04-08T16:55:23.918Z</time></trkpt><trkpt lat="42.50068" lon="2.8209633"><ele>109.25</ele><time>2026-04-08T16:55:24.917Z</time></trkpt><trkpt lat="42.5009133" lon="2.8211783"><ele>108.0</ele><time>2026-04-08T16:55:27.918Z</time></trkpt><trkpt lat="42.501005" lon="2.8212667"><ele>108.0</ele><time>2026-04-08T16:55:28.918Z</time></trkpt><trkpt lat="42.5010933" lon="2.82136"><ele>108.0</ele><time>2026-04-08T16:55:29.918Z</time></trkpt><trkpt lat="42.5011867" lon="2.82146"><ele>108.0</ele><time>2026-04-08T16:55:30.917Z</time></trkpt><trkpt lat="42.501275" lon="2.8215733"><ele>108.0</ele><time>2026-04-08T16:55:31.918Z</time></trkpt><trkpt lat="42.501365" lon="2.8216967"><ele>106.25</ele><time>2026-04-08T16:55:32.918Z</time></trkpt><trkpt lat="42.5014517" lon="2.8218333"><ele>104.5</ele><time>2026-04-08T16:55:33.918Z</time></trkpt><trkpt lat="42.5015367" lon="2.821975"><ele>102.75</ele><time>2026-04-08T16:55:34.918Z</time></trkpt><trkpt lat="42.501615" lon="2.82213"><ele>101.0</ele><time>2026-04-08T16:55:35.918Z</time></trkpt><trkpt lat="42.5016933" lon="2.822285"><ele>101.0</ele><time>2026-04-08T16:55:36.917Z</time></trkpt><trkpt lat="42.5017733" lon="2.8224467"><ele>101.0</ele><time>2026-04-08T16:55:37.917Z</time></trkpt><trkpt lat="42.5018483" lon="2.8226133"><ele>101.0</ele><time>2026-04-08T16:55:38.918Z</time></trkpt><trkpt lat="42.5019333" lon="2.8227733"><ele>101.0</ele><time>2026-04-08T16:55:39.917Z</time></trkpt><trkpt lat="42.50203" lon="2.8229233"><ele>98.0</ele><time>2026-04-08T16:55:40.918Z</time></trkpt><trkpt lat="42.50214" lon="2.823065"><ele>95.0</ele><time>2026-04-08T16:55:41.917Z</time></trkpt><trkpt lat="42.502255" lon="2.8231967"><ele>92.0</ele><time>2026-04-08T16:55:42.918Z</time></trkpt><trkpt lat="42.5023733" lon="2.8233183"><ele>92.0</ele><time>2026-04-08T16:55:43.918Z</time></trkpt><trkpt lat="42.5024983" lon="2.82343"><ele>92.0</ele><time>2026-04-08T16:55:44.918Z</time></trkpt><trkpt lat="42.5026233" lon="2.823535"><ele>92.0</ele><time>2026-04-08T16:55:45.918Z</time></trkpt><trkpt lat="42.50275" lon="2.8236317"><ele>92.0</ele><time>2026-04-08T16:55:46.917Z</time></trkpt><trkpt lat="42.50287" lon="2.8237217"><ele>94.75</ele><time>2026-04-08T16:55:47.918Z</time></trkpt><trkpt lat="42.502995" lon="2.8238117"><ele>97.5</ele><time>2026-04-08T16:55:48.917Z</time></trkpt><trkpt lat="42.5031167" lon="2.8238967"><ele>100.25</ele><time>2026-04-08T16:55:49.917Z</time></trkpt><trkpt lat="42.503235" lon="2.823975"><ele>103.0</ele><time>2026-04-08T16:55:50.918Z</time></trkpt><trkpt lat="42.503355" lon="2.8240467"><ele>103.0</ele><time>2026-04-08T16:55:51.918Z</time></trkpt><trkpt lat="42.5034867" lon="2.8240933"><ele>103.0</ele><time>2026-04-08T16:55:52.918Z</time></trkpt><trkpt lat="42.503625" lon="2.82413"><ele>103.0</ele><time>2026-04-08T16:55:53.918Z</time></trkpt><trkpt lat="42.50377" lon="2.8241583"><ele>103.0</ele><time>2026-04-08T16:55:54.917Z</time></trkpt><trkpt lat="42.5039167" lon="2.82419"><ele>101.75</ele><time>2026-04-08T16:55:55.918Z</time></trkpt><trkpt lat="42.5040567" lon="2.8242183"><ele>100.5</ele><time>2026-04-08T16:55:56.918Z</time></trkpt><trkpt lat="42.5042" lon="2.824215"><ele>99.25</ele><time>2026-04-08T16:55:57.918Z</time></trkpt><trkpt lat="42.504335" lon="2.824185"><ele>98.0</ele><time>2026-04-08T16:55:58.918Z</time></trkpt><trkpt lat="42.5044683" lon="2.82413"><ele>99.5</ele><time>2026-04-08T16:55:59.918Z</time></trkpt><trkpt lat="42.504595" lon="2.8240483"><ele>101.0</ele><time>2026-04-08T16:56:00.918Z</time></trkpt><trkpt lat="42.5047217" lon="2.8239617"><ele>102.5</ele><time>2026-04-08T16:56:01.918Z</time></trkpt><trkpt lat="42.50485" lon="2.8238717"><ele>104.0</ele><time>2026-04-08T16:56:02.917Z</time></trkpt><trkpt lat="42.5049717" lon="2.8237733"><ele>104.0</ele><time>2026-04-08T16:56:03.918Z</time></trkpt><trkpt lat="42.5051017" lon="2.8236833"><ele>104.0</ele><time>2026-04-08T16:56:04.918Z</time></trkpt><trkpt lat="42.5052367" lon="2.823605"><ele>104.0</ele><time>2026-04-08T16:56:05.918Z</time></trkpt><trkpt lat="42.5053767" lon="2.8235517"><ele>104.0</ele><time>2026-04-08T16:56:06.918Z</time></trkpt><trkpt lat="42.5055267" lon="2.8235133"><ele>102.33333333333333</ele><time>2026-04-08T16:56:07.918Z</time></trkpt><trkpt lat="42.5056833" lon="2.8234983"><ele>100.66666666666666</ele><time>2026-04-08T16:56:08.917Z</time></trkpt><trkpt lat="42.5058433" lon="2.823495"><ele>99.0</ele><time>2026-04-08T16:56:09.918Z</time></trkpt><trkpt lat="42.505995" lon="2.8235067"><ele>99.0</ele><time>2026-04-08T16:56:10.918Z</time></trkpt><trkpt lat="42.5061483" lon="2.8235483"><ele>99.0</ele><time>2026-04-08T16:56:11.918Z</time></trkpt><trkpt lat="42.5062933" lon="2.8235933"><ele>99.0</ele><time>2026-04-08T16:56:12.917Z</time></trkpt><trkpt lat="42.5064383" lon="2.8236433"><ele>98.5</ele><time>2026-04-08T16:56:13.918Z</time></trkpt><trkpt lat="42.506585" lon="2.8236983"><ele>98.0</ele><time>2026-04-08T16:56:14.918Z</time></trkpt><trkpt lat="42.506725" lon="2.8237683"><ele>97.5</ele><time>2026-04-08T16:56:15.917Z</time></trkpt><trkpt lat="42.5068533" lon="2.8238433"><ele>97.0</ele><time>2026-04-08T16:56:16.918Z</time></trkpt><trkpt lat="42.506975" lon="2.8239283"><ele>97.75</ele><time>2026-04-08T16:56:17.918Z</time></trkpt><trkpt lat="42.5070917" lon="2.8240417"><ele>98.5</ele><time>2026-04-08T16:56:18.918Z</time></trkpt><trkpt lat="42.5071967" lon="2.8241683"><ele>99.25</ele><time>2026-04-08T16:56:19.917Z</time></trkpt><trkpt lat="42.5072883" lon="2.8243083"><ele>100.0</ele><time>2026-04-08T16:56:20.918Z</time></trkpt><trkpt lat="42.5073667" lon="2.8244583"><ele>100.0</ele><time>2026-04-08T16:56:21.917Z</time></trkpt><trkpt lat="42.5074467" lon="2.8246083"><ele>100.0</ele><time>2026-04-08T16:56:22.918Z</time></trkpt><trkpt lat="42.5075333" lon="2.8247333"><ele>100.0</ele><time>2026-04-08T16:56:23.918Z</time></trkpt><trkpt lat="42.5076317" lon="2.8248417"><ele>100.0</ele><time>2026-04-08T16:56:24.917Z</time></trkpt><trkpt lat="42.5077417" lon="2.824935"><ele>100.0</ele><time>2026-04-08T16:56:25.917Z</time></trkpt><trkpt lat="42.5078567" lon="2.8250067"><ele>100.0</ele><time>2026-04-08T16:56:26.918Z</time></trkpt><trkpt lat="42.5079733" lon="2.82506"><ele>100.0</ele><time>2026-04-08T16:56:27.918Z</time></trkpt><trkpt lat="42.50808" lon="2.8251083"><ele>100.0</ele><time>2026-04-08T16:56:28.918Z</time></trkpt><trkpt lat="42.5081817" lon="2.8251683"><ele>100.6</ele><time>2026-04-08T16:56:29.918Z</time></trkpt><trkpt lat="42.5082783" lon="2.8252283"><ele>101.2</ele><time>2026-04-08T16:56:30.918Z</time></trkpt><trkpt lat="42.508375" lon="2.825295"><ele>101.80000000000001</ele><time>2026-04-08T16:56:31.918Z</time></trkpt><trkpt lat="42.5084667" lon="2.8253717"><ele>102.4</ele><time>2026-04-08T16:56:32.918Z</time></trkpt><trkpt lat="42.50855" lon="2.825475"><ele>103.0</ele><time>2026-04-08T16:56:33.918Z</time></trkpt><trkpt lat="42.50863" lon="2.8255833"><ele>103.0</ele><time>2026-04-08T16:56:34.918Z</time></trkpt><trkpt lat="42.508705" lon="2.8257033"><ele>103.0</ele><time>2026-04-08T16:56:35.918Z</time></trkpt><trkpt lat="42.5087817" lon="2.8258317"><ele>103.0</ele><time>2026-04-08T16:56:36.917Z</time></trkpt><trkpt lat="42.50886" lon="2.825965"><ele>103.0</ele><time>2026-04-08T16:56:37.918Z</time></trkpt><trkpt lat="42.508945" lon="2.8261017"><ele>100.5</ele><time>2026-04-08T16:56:38.918Z</time></trkpt><trkpt lat="42.5090317" lon="2.8262433"><ele>98.0</ele><time>2026-04-08T16:56:39.918Z</time></trkpt><trkpt lat="42.5091167" lon="2.8263817"><ele>95.5</ele><time>2026-04-08T16:56:40.918Z</time></trkpt><trkpt lat="42.5091983" lon="2.8265167"><ele>93.0</ele><time>2026-04-08T16:56:41.918Z</time></trkpt><trkpt lat="42.5092833" lon="2.8266467"><ele>93.0</ele><time>2026-04-08T16:56:42.917Z</time></trkpt><trkpt lat="42.5093683" lon="2.8267833"><ele>93.0</ele><time>2026-04-08T16:56:43.917Z</time></trkpt><trkpt lat="42.509465" lon="2.8269083"><ele>93.0</ele><time>2026-04-08T16:56:44.918Z</time></trkpt><trkpt lat="42.509555" lon="2.82703"><ele>93.0</ele><time>2026-04-08T16:56:45.918Z</time></trkpt><trkpt lat="42.5096483" lon="2.827125"><ele>92.60000000000001</ele><time>2026-04-08T16:56:46.918Z</time></trkpt><trkpt lat="42.5097367" lon="2.827205"><ele>92.2</ele><time>2026-04-08T16:56:47.917Z</time></trkpt><trkpt lat="42.5098167" lon="2.8272733"><ele>91.8</ele><time>2026-04-08T16:56:48.918Z</time></trkpt><trkpt lat="42.509895" lon="2.8273417"><ele>91.4</ele><time>2026-04-08T16:56:49.918Z</time></trkpt><trkpt lat="42.50997" lon="2.82742"><ele>91.0</ele><time>2026-04-08T16:56:50.918Z</time></trkpt><trkpt lat="42.5100483" lon="2.8275"><ele>91.0</ele><time>2026-04-08T16:56:51.917Z</time></trkpt><trkpt lat="42.51013" lon="2.827575"><ele>91.0</ele><time>2026-04-08T16:56:52.918Z</time></trkpt><trkpt lat="42.5102183" lon="2.8276517"><ele>91.0</ele><time>2026-04-08T16:56:53.917Z</time></trkpt><trkpt lat="42.5103067" lon="2.82773"><ele>91.0</ele><time>2026-04-08T16:56:54.918Z</time></trkpt><trkpt lat="42.5103933" lon="2.827815"><ele>91.0</ele><time>2026-04-08T16:56:55.918Z</time></trkpt><trkpt lat="42.5104817" lon="2.8278967"><ele>91.19999999999999</ele><time>2026-04-08T16:56:56.918Z</time></trkpt><trkpt lat="42.51057" lon="2.8279817"><ele>91.39999999999999</ele><time>2026-04-08T16:56:57.918Z</time></trkpt><trkpt lat="42.5106517" lon="2.8280583"><ele>91.6</ele><time>2026-04-08T16:56:58.918Z</time></trkpt><trkpt lat="42.510735" lon="2.8281283"><ele>91.8</ele><time>2026-04-08T16:56:59.918Z</time></trkpt><trkpt lat="42.5108183" lon="2.8281967"><ele>92.0</ele><time>2026-04-08T16:57:00.918Z</time></trkpt><trkpt lat="42.5109017" lon="2.828265"><ele>92.0</ele><time>2026-04-08T16:57:01.917Z</time></trkpt><trkpt lat="42.510985" lon="2.8283367"><ele>92.0</ele><time>2026-04-08T16:57:02.917Z</time></trkpt><trkpt lat="42.5110667" lon="2.8284117"><ele>92.0</ele><time>2026-04-08T16:57:03.918Z</time></trkpt><trkpt lat="42.51115" lon="2.8284883"><ele>92.0</ele><time>2026-04-08T16:57:04.918Z</time></trkpt><trkpt lat="42.5112333" lon="2.8285633"><ele>92.0</ele><time>2026-04-08T16:57:05.917Z</time></trkpt><trkpt lat="42.5113117" lon="2.828635"><ele>92.6</ele><time>2026-04-08T16:57:06.917Z</time></trkpt><trkpt lat="42.5113917" lon="2.8287117"><ele>93.19999999999999</ele><time>2026-04-08T16:57:07.918Z</time></trkpt><trkpt lat="42.51147" lon="2.828785"><ele>93.8</ele><time>2026-04-08T16:57:08.918Z</time></trkpt><trkpt lat="42.5115533" lon="2.82885"><ele>94.4</ele><time>2026-04-08T16:57:09.918Z</time></trkpt><trkpt lat="42.5116417" lon="2.8289067"><ele>95.0</ele><time>2026-04-08T16:57:10.917Z</time></trkpt><trkpt lat="42.5117267" lon="2.8289567"><ele>95.0</ele><time>2026-04-08T16:57:11.918Z</time></trkpt><trkpt lat="42.5118167" lon="2.8290033"><ele>95.0</ele><time>2026-04-08T16:57:12.918Z</time></trkpt><trkpt lat="42.5119067" lon="2.8290583"><ele>95.0</ele><time>2026-04-08T16:57:13.918Z</time></trkpt><trkpt lat="42.5119983" lon="2.8291133"><ele>95.0</ele><time>2026-04-08T16:57:14.918Z</time></trkpt><trkpt lat="42.51209" lon="2.829165"><ele>95.0</ele><time>2026-04-08T16:57:15.918Z</time></trkpt><trkpt lat="42.512185" lon="2.8292217"><ele>94.75</ele><time>2026-04-08T16:57:16.918Z</time></trkpt><trkpt lat="42.512285" lon="2.8292767"><ele>94.5</ele><time>2026-04-08T16:57:17.918Z</time></trkpt><trkpt lat="42.512385" lon="2.82933"><ele>94.25</ele><time>2026-04-08T16:57:18.918Z</time></trkpt><trkpt lat="42.5124983" lon="2.82939"><ele>94.0</ele><time>2026-04-08T16:57:19.918Z</time></trkpt><trkpt lat="42.51261" lon="2.8294417"><ele>94.0</ele><time>2026-04-08T16:57:20.919Z</time></trkpt><trkpt lat="42.512725" lon="2.8295"><ele>94.0</ele><time>2026-04-08T16:57:21.918Z</time></trkpt><trkpt lat="42.5128417" lon="2.8295633"><ele>94.0</ele><time>2026-04-08T16:57:22.919Z</time></trkpt><trkpt lat="42.5129567" lon="2.829625"><ele>94.0</ele><time>2026-04-08T16:57:23.919Z</time></trkpt><trkpt lat="42.51307" lon="2.829685"><ele>93.25</ele><time>2026-04-08T16:57:24.918Z</time></trkpt><trkpt lat="42.5131883" lon="2.8297467"><ele>92.5</ele><time>2026-04-08T16:57:25.919Z</time></trkpt><trkpt lat="42.5133017" lon="2.8298033"><ele>91.75</ele><time>2026-04-08T16:57:26.919Z</time></trkpt><trkpt lat="42.51341" lon="2.8298517"><ele>91.0</ele><time>2026-04-08T16:57:27.919Z</time></trkpt><trkpt lat="42.5135117" lon="2.8299017"><ele>91.0</ele><time>2026-04-08T16:57:28.919Z</time></trkpt><trkpt lat="42.513605" lon="2.82995"><ele>91.0</ele><time>2026-04-08T16:57:29.919Z</time></trkpt><trkpt lat="42.5136833" lon="2.8299983"><ele>91.0</ele><time>2026-04-08T16:57:30.918Z</time></trkpt><trkpt lat="42.51374" lon="2.8300433"><ele>91.0</ele><time>2026-04-08T16:57:31.919Z</time></trkpt><trkpt lat="42.5138133" lon="2.8301"><ele>91.0</ele><time>2026-04-08T16:57:33.919Z</time></trkpt><trkpt lat="42.5138667" lon="2.8301617"><ele>91.0</ele><time>2026-04-08T16:57:35.919Z</time></trkpt><trkpt lat="42.51394" lon="2.8302717"><ele>90.83333333333333</ele><time>2026-04-08T16:57:37.919Z</time></trkpt><trkpt lat="42.513995" lon="2.83032"><ele>90.66666666666666</ele><time>2026-04-08T16:57:38.919Z</time></trkpt><trkpt lat="42.514065" lon="2.830345"><ele>90.5</ele><time>2026-04-08T16:57:39.918Z</time></trkpt><trkpt lat="42.5141467" lon="2.8303483"><ele>90.33333333333333</ele><time>2026-04-08T16:57:40.919Z</time></trkpt><trkpt lat="42.51424" lon="2.8303533"><ele>90.16666666666667</ele><time>2026-04-08T16:57:41.918Z</time></trkpt><trkpt lat="42.51434" lon="2.8303817"><ele>90.0</ele><time>2026-04-08T16:57:42.918Z</time></trkpt><trkpt lat="42.5144483" lon="2.8304333"><ele>90.0</ele><time>2026-04-08T16:57:43.918Z</time></trkpt><trkpt lat="42.5145617" lon="2.8304967"><ele>90.0</ele><time>2026-04-08T16:57:44.919Z</time></trkpt><trkpt lat="42.5146833" lon="2.8305517"><ele>90.0</ele><time>2026-04-08T16:57:45.919Z</time></trkpt><trkpt lat="42.5148083" lon="2.8306083"><ele>90.0</ele><time>2026-04-08T16:57:46.919Z</time></trkpt><trkpt lat="42.5149333" lon="2.8306667"><ele>89.5</ele><time>2026-04-08T16:57:47.919Z</time></trkpt><trkpt lat="42.5150583" lon="2.8307267"><ele>89.0</ele><time>2026-04-08T16:57:48.919Z</time></trkpt><trkpt lat="42.51518" lon="2.830785"><ele>88.5</ele><time>2026-04-08T16:57:49.918Z</time></trkpt><trkpt lat="42.5153017" lon="2.83085"><ele>88.0</ele><time>2026-04-08T16:57:50.919Z</time></trkpt><trkpt lat="42.5154167" lon="2.8309183"><ele>87.75</ele><time>2026-04-08T16:57:51.919Z</time></trkpt><trkpt lat="42.5155333" lon="2.8309867"><ele>87.5</ele><time>2026-04-08T16:57:52.919Z</time></trkpt><trkpt lat="42.515645" lon="2.8310567"><ele>87.25</ele><time>2026-04-08T16:57:53.919Z</time></trkpt><trkpt lat="42.515755" lon="2.8311317"><ele>87.0</ele><time>2026-04-08T16:57:54.918Z</time></trkpt><trkpt lat="42.5158733" lon="2.8312017"><ele>87.0</ele><time>2026-04-08T16:57:55.919Z</time></trkpt><trkpt lat="42.5159867" lon="2.8312767"><ele>87.0</ele><time>2026-04-08T16:57:56.919Z</time></trkpt><trkpt lat="42.5160933" lon="2.8313617"><ele>87.0</ele><time>2026-04-08T16:57:57.919Z</time></trkpt><trkpt lat="42.5161983" lon="2.83146"><ele>87.0</ele><time>2026-04-08T16:57:58.919Z</time></trkpt><trkpt lat="42.5162933" lon="2.8315633"><ele>85.25</ele><time>2026-04-08T16:57:59.919Z</time></trkpt><trkpt lat="42.5163717" lon="2.831695"><ele>83.5</ele><time>2026-04-08T16:58:00.918Z</time></trkpt><trkpt lat="42.51644" lon="2.8318483"><ele>81.75</ele><time>2026-04-08T16:58:01.919Z</time></trkpt><trkpt lat="42.5164933" lon="2.8320233"><ele>80.0</ele><time>2026-04-08T16:58:02.919Z</time></trkpt><trkpt lat="42.5165383" lon="2.83223"><ele>79.5</ele><time>2026-04-08T16:58:03.919Z</time></trkpt><trkpt lat="42.5165967" lon="2.8327167"><ele>79.0</ele><time>2026-04-08T16:58:05.919Z</time></trkpt><trkpt lat="42.5166217" lon="2.833"><ele>79.0</ele><time>2026-04-08T16:58:06.919Z</time></trkpt><trkpt lat="42.5166567" lon="2.8332967"><ele>79.0</ele><time>2026-04-08T16:58:07.919Z</time></trkpt><trkpt lat="42.5167033" lon="2.8335967"><ele>79.0</ele><time>2026-04-08T16:58:08.919Z</time></trkpt><trkpt lat="42.5167633" lon="2.833905"><ele>80.0</ele><time>2026-04-08T16:58:09.919Z</time></trkpt><trkpt lat="42.5168417" lon="2.8342333"><ele>81.0</ele><time>2026-04-08T16:58:10.919Z</time></trkpt><trkpt lat="42.51692" lon="2.8345617"><ele>83.0</ele><time>2026-04-08T16:58:11.918Z</time></trkpt><trkpt lat="42.5170067" lon="2.8348967"><ele>85.0</ele><time>2026-04-08T16:58:12.919Z</time></trkpt><trkpt lat="42.5171017" lon="2.8352283"><ele>79.0</ele><time>2026-04-08T16:58:13.919Z</time></trkpt><trkpt lat="42.5171967" lon="2.8355567"><ele>73.0</ele><time>2026-04-08T16:58:14.919Z</time></trkpt><trkpt lat="42.51729" lon="2.83587"><ele>76.0</ele><time>2026-04-08T16:58:15.919Z</time></trkpt><trkpt lat="42.5173867" lon="2.83618"><ele>79.0</ele><time>2026-04-08T16:58:16.919Z</time></trkpt><trkpt lat="42.5174867" lon="2.836475"><ele>79.0</ele><time>2026-04-08T16:58:17.919Z</time></trkpt><trkpt lat="42.5175883" lon="2.8367717"><ele>79.0</ele><time>2026-04-08T16:58:18.918Z</time></trkpt><trkpt lat="42.5176867" lon="2.83706"><ele>81.0</ele><time>2026-04-08T16:58:19.919Z</time></trkpt><trkpt lat="42.517785" lon="2.8373483"><ele>83.0</ele><time>2026-04-08T16:58:20.919Z</time></trkpt><trkpt lat="42.5178833" lon="2.8376333"><ele>80.0</ele><time>2026-04-08T16:58:21.919Z</time></trkpt><trkpt lat="42.5179733" lon="2.8379133"><ele>77.0</ele><time>2026-04-08T16:58:22.919Z</time></trkpt><trkpt lat="42.5180667" lon="2.83819"><ele>74.0</ele><time>2026-04-08T16:58:23.919Z</time></trkpt><trkpt lat="42.51816" lon="2.83846"><ele>76.33333333333334</ele><time>2026-04-08T16:58:24.919Z</time></trkpt><trkpt lat="42.518245" lon="2.8387283"><ele>78.66666666666667</ele><time>2026-04-08T16:58:25.919Z</time></trkpt><trkpt lat="42.518325" lon="2.8389933"><ele>81.0</ele><time>2026-04-08T16:58:26.919Z</time></trkpt><trkpt lat="42.5184" lon="2.8392567"><ele>82.66666666666667</ele><time>2026-04-08T16:58:27.918Z</time></trkpt><trkpt lat="42.51847" lon="2.8395267"><ele>84.33333333333334</ele><time>2026-04-08T16:58:28.918Z</time></trkpt><trkpt lat="42.5185367" lon="2.8397917"><ele>86.0</ele><time>2026-04-08T16:58:29.919Z</time></trkpt><trkpt lat="42.5186017" lon="2.84005"><ele>85.66666666666667</ele><time>2026-04-08T16:58:30.919Z</time></trkpt><trkpt lat="42.5186717" lon="2.840295"><ele>85.33333333333333</ele><time>2026-04-08T16:58:31.919Z</time></trkpt><trkpt lat="42.5187533" lon="2.8405317"><ele>85.0</ele><time>2026-04-08T16:58:32.919Z</time></trkpt><trkpt lat="42.5188433" lon="2.8407667"><ele>85.0</ele><time>2026-04-08T16:58:33.919Z</time></trkpt><trkpt lat="42.51894" lon="2.8410017"><ele>85.0</ele><time>2026-04-08T16:58:34.918Z</time></trkpt><trkpt lat="42.5190417" lon="2.8412317"><ele>85.0</ele><time>2026-04-08T16:58:35.919Z</time></trkpt><trkpt lat="42.5191517" lon="2.8414617"><ele>85.0</ele><time>2026-04-08T16:58:36.918Z</time></trkpt><trkpt lat="42.5192767" lon="2.841685"><ele>85.0</ele><time>2026-04-08T16:58:37.918Z</time></trkpt><trkpt lat="42.5194083" lon="2.841905"><ele>85.0</ele><time>2026-04-08T16:58:38.919Z</time></trkpt><trkpt lat="42.5195533" lon="2.8421267"><ele>84.66666666666666</ele><time>2026-04-08T16:58:39.919Z</time></trkpt><trkpt lat="42.519705" lon="2.8423433"><ele>84.33333333333333</ele><time>2026-04-08T16:58:40.918Z</time></trkpt><trkpt lat="42.5198583" lon="2.8425533"><ele>84.0</ele><time>2026-04-08T16:58:41.919Z</time></trkpt><trkpt lat="42.52001" lon="2.842755"><ele>83.33333333333333</ele><time>2026-04-08T16:58:42.919Z</time></trkpt><trkpt lat="42.5201583" lon="2.84295"><ele>82.66666666666666</ele><time>2026-04-08T16:58:43.919Z</time></trkpt><trkpt lat="42.5203033" lon="2.84315"><ele>82.0</ele><time>2026-04-08T16:58:44.918Z</time></trkpt><trkpt lat="42.520445" lon="2.8433533"><ele>81.66666666666666</ele><time>2026-04-08T16:58:45.919Z</time></trkpt><trkpt lat="42.520585" lon="2.843555"><ele>81.33333333333333</ele><time>2026-04-08T16:58:46.918Z</time></trkpt><trkpt lat="42.520725" lon="2.8437617"><ele>81.0</ele><time>2026-04-08T16:58:47.919Z</time></trkpt><trkpt lat="42.5208617" lon="2.8439717"><ele>81.0</ele><time>2026-04-08T16:58:48.918Z</time></trkpt><trkpt lat="42.521" lon="2.8441833"><ele>81.0</ele><time>2026-04-08T16:58:49.919Z</time></trkpt><trkpt lat="42.5211367" lon="2.8444017"><ele>81.0</ele><time>2026-04-08T16:58:50.919Z</time></trkpt><trkpt lat="42.521275" lon="2.8446167"><ele>81.0</ele><time>2026-04-08T16:58:51.919Z</time></trkpt><trkpt lat="42.5214133" lon="2.8448333"><ele>81.0</ele><time>2026-04-08T16:58:52.919Z</time></trkpt><trkpt lat="42.52155" lon="2.8450467"><ele>81.0</ele><time>2026-04-08T16:58:53.919Z</time></trkpt><trkpt lat="42.5216883" lon="2.8452617"><ele>81.0</ele><time>2026-04-08T16:58:54.919Z</time></trkpt><trkpt lat="42.5218233" lon="2.8454733"><ele>81.0</ele><time>2026-04-08T16:58:55.919Z</time></trkpt><trkpt lat="42.5219567" lon="2.8456817"><ele>81.0</ele><time>2026-04-08T16:58:56.919Z</time></trkpt><trkpt lat="42.522085" lon="2.845885"><ele>80.66666666666667</ele><time>2026-04-08T16:58:57.919Z</time></trkpt><trkpt lat="42.5222117" lon="2.846085"><ele>80.33333333333334</ele><time>2026-04-08T16:58:58.919Z</time></trkpt><trkpt lat="42.5223367" lon="2.84628"><ele>80.0</ele><time>2026-04-08T16:58:59.918Z</time></trkpt><trkpt lat="42.5224583" lon="2.84648"><ele>80.0</ele><time>2026-04-08T16:59:00.919Z</time></trkpt><trkpt lat="42.5225833" lon="2.846675"><ele>80.0</ele><time>2026-04-08T16:59:01.918Z</time></trkpt><trkpt lat="42.5227083" lon="2.8468767"><ele>80.0</ele><time>2026-04-08T16:59:02.919Z</time></trkpt><trkpt lat="42.5228367" lon="2.8470817"><ele>80.0</ele><time>2026-04-08T16:59:03.919Z</time></trkpt><trkpt lat="42.5229633" lon="2.8472833"><ele>80.0</ele><time>2026-04-08T16:59:04.918Z</time></trkpt><trkpt lat="42.5230867" lon="2.8474817"><ele>80.0</ele><time>2026-04-08T16:59:05.919Z</time></trkpt><trkpt lat="42.52321" lon="2.8476817"><ele>80.0</ele><time>2026-04-08T16:59:06.919Z</time></trkpt><trkpt lat="42.5233383" lon="2.8478867"><ele>80.0</ele><time>2026-04-08T16:59:07.919Z</time></trkpt><trkpt lat="42.52347" lon="2.8480883"><ele>80.0</ele><time>2026-04-08T16:59:08.919Z</time></trkpt><trkpt lat="42.5236033" lon="2.8483"><ele>79.66666666666667</ele><time>2026-04-08T16:59:09.919Z</time></trkpt><trkpt lat="42.5237367" lon="2.84851"><ele>79.33333333333333</ele><time>2026-04-08T16:59:10.919Z</time></trkpt><trkpt lat="42.52387" lon="2.8487233"><ele>79.0</ele><time>2026-04-08T16:59:11.919Z</time></trkpt><trkpt lat="42.5240033" lon="2.848935"><ele>79.0</ele><time>2026-04-08T16:59:12.919Z</time></trkpt><trkpt lat="42.5241417" lon="2.84915"><ele>79.0</ele><time>2026-04-08T16:59:13.918Z</time></trkpt><trkpt lat="42.5242767" lon="2.8493633"><ele>79.0</ele><time>2026-04-08T16:59:14.918Z</time></trkpt><trkpt lat="42.52441" lon="2.849575"><ele>78.0</ele><time>2026-04-08T16:59:15.919Z</time></trkpt><trkpt lat="42.5245433" lon="2.84979"><ele>77.0</ele><time>2026-04-08T16:59:16.919Z</time></trkpt><trkpt lat="42.5246767" lon="2.850005"><ele>76.0</ele><time>2026-04-08T16:59:17.918Z</time></trkpt><trkpt lat="42.52481" lon="2.8502217"><ele>75.33333333333333</ele><time>2026-04-08T16:59:18.918Z</time></trkpt><trkpt lat="42.5249467" lon="2.850435"><ele>74.66666666666667</ele><time>2026-04-08T16:59:19.919Z</time></trkpt><trkpt lat="42.525075" lon="2.850645"><ele>74.0</ele><time>2026-04-08T16:59:20.919Z</time></trkpt><trkpt lat="42.5252067" lon="2.8508517"><ele>74.33333333333334</ele><time>2026-04-08T16:59:21.918Z</time></trkpt><trkpt lat="42.5253367" lon="2.8510583"><ele>74.66666666666667</ele><time>2026-04-08T16:59:22.919Z</time></trkpt><trkpt lat="42.5254667" lon="2.8512583"><ele>75.0</ele><time>2026-04-08T16:59:23.919Z</time></trkpt><trkpt lat="42.5255917" lon="2.85146"><ele>75.66666666666667</ele><time>2026-04-08T16:59:24.919Z</time></trkpt><trkpt lat="42.52571" lon="2.8516667"><ele>76.33333333333334</ele><time>2026-04-08T16:59:25.919Z</time></trkpt><trkpt lat="42.5258317" lon="2.851865"><ele>77.0</ele><time>2026-04-08T16:59:26.919Z</time></trkpt><trkpt lat="42.5259517" lon="2.85207"><ele>77.33333333333334</ele><time>2026-04-08T16:59:27.919Z</time></trkpt><trkpt lat="42.526075" lon="2.8522683"><ele>77.66666666666667</ele><time>2026-04-08T16:59:28.919Z</time></trkpt><trkpt lat="42.526195" lon="2.8524667"><ele>78.0</ele><time>2026-04-08T16:59:29.919Z</time></trkpt><trkpt lat="42.526315" lon="2.852665"><ele>78.66666666666667</ele><time>2026-04-08T16:59:30.919Z</time></trkpt><trkpt lat="42.526435" lon="2.852865"><ele>79.33333333333334</ele><time>2026-04-08T16:59:31.918Z</time></trkpt><trkpt lat="42.52656" lon="2.8530617"><ele>80.0</ele><time>2026-04-08T16:59:32.919Z</time></trkpt><trkpt lat="42.5266833" lon="2.8532617"><ele>84.33333333333334</ele><time>2026-04-08T16:59:33.919Z</time></trkpt><trkpt lat="42.5268033" lon="2.8534583"><ele>88.66666666666667</ele><time>2026-04-08T16:59:34.919Z</time></trkpt><trkpt lat="42.5269233" lon="2.8536567"><ele>93.0</ele><time>2026-04-08T16:59:35.919Z</time></trkpt><trkpt lat="42.527045" lon="2.853855"><ele>88.33333333333333</ele><time>2026-04-08T16:59:36.919Z</time></trkpt><trkpt lat="42.5271717" lon="2.854045"><ele>83.66666666666666</ele><time>2026-04-08T16:59:37.919Z</time></trkpt><trkpt lat="42.5273017" lon="2.8542317"><ele>79.0</ele><time>2026-04-08T16:59:38.919Z</time></trkpt><trkpt lat="42.527435" lon="2.8544183"><ele>79.0</ele><time>2026-04-08T16:59:39.919Z</time></trkpt><trkpt lat="42.5275733" lon="2.8546033"><ele>79.0</ele><time>2026-04-08T16:59:40.919Z</time></trkpt><trkpt lat="42.52771" lon="2.8547883"><ele>79.0</ele><time>2026-04-08T16:59:41.919Z</time></trkpt><trkpt lat="42.52785" lon="2.8549767"><ele>77.33333333333333</ele><time>2026-04-08T16:59:42.919Z</time></trkpt><trkpt lat="42.5279883" lon="2.855165"><ele>75.66666666666667</ele><time>2026-04-08T16:59:43.919Z</time></trkpt><trkpt lat="42.52813" lon="2.855355"><ele>74.0</ele><time>2026-04-08T16:59:44.919Z</time></trkpt><trkpt lat="42.5282733" lon="2.85554"><ele>74.0</ele><time>2026-04-08T16:59:45.919Z</time></trkpt><trkpt lat="42.5284133" lon="2.8557267"><ele>74.0</ele><time>2026-04-08T16:59:46.919Z</time></trkpt><trkpt lat="42.5285517" lon="2.8559133"><ele>74.0</ele><time>2026-04-08T16:59:47.919Z</time></trkpt><trkpt lat="42.5286917" lon="2.8560967"><ele>73.33333333333334</ele><time>2026-04-08T16:59:48.919Z</time></trkpt><trkpt lat="42.52883" lon="2.85628"><ele>72.66666666666667</ele><time>2026-04-08T16:59:49.919Z</time></trkpt><trkpt lat="42.5289667" lon="2.856465"><ele>72.0</ele><time>2026-04-08T16:59:50.919Z</time></trkpt><trkpt lat="42.5291083" lon="2.8566533"><ele>72.33333333333333</ele><time>2026-04-08T16:59:51.919Z</time></trkpt><trkpt lat="42.5292483" lon="2.8568433"><ele>72.66666666666666</ele><time>2026-04-08T16:59:52.919Z</time></trkpt><trkpt lat="42.529385" lon="2.8570317"><ele>73.0</ele><time>2026-04-08T16:59:53.919Z</time></trkpt><trkpt lat="42.529525" lon="2.85723"><ele>72.0</ele><time>2026-04-08T16:59:54.919Z</time></trkpt><trkpt lat="42.5296617" lon="2.8574167"><ele>71.0</ele><time>2026-04-08T16:59:55.918Z</time></trkpt><trkpt lat="42.5297967" lon="2.8576017"><ele>70.0</ele><time>2026-04-08T16:59:56.918Z</time></trkpt><trkpt lat="42.5299367" lon="2.8577867"><ele>70.0</ele><time>2026-04-08T16:59:57.917Z</time></trkpt><trkpt lat="42.5300733" lon="2.857975"><ele>70.0</ele><time>2026-04-08T16:59:58.917Z</time></trkpt><trkpt lat="42.5302117" lon="2.85816"><ele>70.0</ele><time>2026-04-08T16:59:59.918Z</time></trkpt><trkpt lat="42.5303483" lon="2.85835"><ele>69.33333333333333</ele><time>2026-04-08T17:00:00.918Z</time></trkpt><trkpt lat="42.530485" lon="2.858555"><ele>68.66666666666667</ele><time>2026-04-08T17:00:01.918Z</time></trkpt><trkpt lat="42.5306183" lon="2.8587517"><ele>68.0</ele><time>2026-04-08T17:00:02.918Z</time></trkpt><trkpt lat="42.5307533" lon="2.8589367"><ele>68.0</ele><time>2026-04-08T17:00:03.917Z</time></trkpt><trkpt lat="42.5308883" lon="2.8591233"><ele>68.0</ele><time>2026-04-08T17:00:04.917Z</time></trkpt><trkpt lat="42.5310233" lon="2.85931"><ele>68.0</ele><time>2026-04-08T17:00:05.918Z</time></trkpt><trkpt lat="42.5311533" lon="2.8594983"><ele>68.66666666666667</ele><time>2026-04-08T17:00:06.918Z</time></trkpt><trkpt lat="42.5312833" lon="2.8596817"><ele>69.33333333333333</ele><time>2026-04-08T17:00:07.918Z</time></trkpt><trkpt lat="42.531415" lon="2.8598667"><ele>70.0</ele><time>2026-04-08T17:00:08.918Z</time></trkpt><trkpt lat="42.5315483" lon="2.86006"><ele>70.66666666666666</ele><time>2026-04-08T17:00:09.918Z</time></trkpt><trkpt lat="42.5316833" lon="2.8602583"><ele>71.33333333333333</ele><time>2026-04-08T17:00:10.918Z</time></trkpt><trkpt lat="42.5318217" lon="2.860465"><ele>72.0</ele><time>2026-04-08T17:00:11.917Z</time></trkpt><trkpt lat="42.52771" lon="2.8547883"><ele>72.66666666666667</ele><time>2026-04-08T16:59:41.919Z</time></trkpt><trkpt lat="42.52785" lon="2.8549767"><ele>73.33333333333334</ele><time>2026-04-08T16:59:42.919Z</time></trkpt><trkpt lat="42.5279883" lon="2.855165"><ele>74.0</ele><time>2026-04-08T16:59:43.919Z</time></trkpt><trkpt lat="42.52813" lon="2.855355"><ele>74.0</ele><time>2026-04-08T16:59:44.919Z</time></trkpt><trkpt lat="42.5282733" lon="2.85554"><ele>74.0</ele><time>2026-04-08T16:59:45.919Z</time></trkpt><trkpt lat="42.5284133" lon="2.8557267"><ele>74.0</ele><time>2026-04-08T16:59:46.919Z</time></trkpt><trkpt lat="42.5285517" lon="2.8559133"><ele>74.33333333333334</ele><time>2026-04-08T16:59:47.919Z</time></trkpt><trkpt lat="42.5286917" lon="2.8560967"><ele>74.66666666666667</ele><time>2026-04-08T16:59:48.919Z</time></trkpt><trkpt lat="42.52883" lon="2.85628"><ele>75.0</ele><time>2026-04-08T16:59:49.919Z</time></trkpt><trkpt lat="42.5289667" lon="2.856465"><ele>74.33333333333333</ele><time>2026-04-08T16:59:50.919Z</time></trkpt><trkpt lat="42.5291083" lon="2.8566533"><ele>73.66666666666666</ele><time>2026-04-08T16:59:51.919Z</time></trkpt><trkpt lat="42.5292483" lon="2.8568433"><ele>73.0</ele><time>2026-04-08T16:59:52.919Z</time></trkpt><trkpt lat="42.529385" lon="2.8570317"><ele>73.0</ele><time>2026-04-08T16:59:53.919Z</time></trkpt><trkpt lat="42.529525" lon="2.85723"><ele>73.0</ele><time>2026-04-08T16:59:54.919Z</time></trkpt><trkpt lat="42.5296617" lon="2.8574167"><ele>73.0</ele><time>2026-04-08T16:59:55.918Z</time></trkpt><trkpt lat="42.5297967" lon="2.8576017"><ele>72.0</ele><time>2026-04-08T16:59:56.918Z</time></trkpt><trkpt lat="42.5299367" lon="2.8577867"><ele>71.0</ele><time>2026-04-08T16:59:57.917Z</time></trkpt><trkpt lat="42.5300733" lon="2.857975"><ele>70.0</ele><time>2026-04-08T16:59:58.917Z</time></trkpt><trkpt lat="42.5302117" lon="2.85816"><ele>70.0</ele><time>2026-04-08T16:59:59.918Z</time></trkpt><trkpt lat="42.5303483" lon="2.85835"><ele>70.0</ele><time>2026-04-08T17:00:00.918Z</time></trkpt><trkpt lat="42.530485" lon="2.858555"><ele>70.0</ele><time>2026-04-08T17:00:01.918Z</time></trkpt><trkpt lat="42.5306183" lon="2.8587517"><ele>69.33333333333333</ele><time>2026-04-08T17:00:02.918Z</time></trkpt><trkpt lat="42.5307533" lon="2.8589367"><ele>68.66666666666667</ele><time>2026-04-08T17:00:03.917Z</time></trkpt><trkpt lat="42.5308883" lon="2.8591233"><ele>68.0</ele><time>2026-04-08T17:00:04.917Z</time></trkpt><trkpt lat="42.5310233" lon="2.85931"><ele>68.0</ele><time>2026-04-08T17:00:05.918Z</time></trkpt><trkpt lat="42.5311533" lon="2.8594983"><ele>68.0</ele><time>2026-04-08T17:00:06.918Z</time></trkpt><trkpt lat="42.5312833" lon="2.8596817"><ele>68.0</ele><time>2026-04-08T17:00:07.918Z</time></trkpt><trkpt lat="42.531415" lon="2.8598667"><ele>68.66666666666667</ele><time>2026-04-08T17:00:08.918Z</time></trkpt><trkpt lat="42.5315483" lon="2.86006"><ele>69.33333333333333</ele><time>2026-04-08T17:00:09.918Z</time></trkpt><trkpt lat="42.5316833" lon="2.8602583"><ele>70.0</ele><time>2026-04-08T17:00:10.918Z</time></trkpt><trkpt lat="42.5318217" lon="2.860465"><ele>70.0</ele><time>2026-04-08T17:00:11.917Z</time></trkpt><trkpt lat="42.5319617" lon="2.86068"><ele>70.0</ele><time>2026-04-08T17:00:12.917Z</time></trkpt><trkpt lat="42.5321017" lon="2.8609017"><ele>70.0</ele><time>2026-04-08T17:00:13.917Z</time></trkpt><trkpt lat="42.5322417" lon="2.8611283"><ele>70.33333333333333</ele><time>2026-04-08T17:00:14.918Z</time></trkpt><trkpt lat="42.53238" lon="2.8613583"><ele>70.66666666666667</ele><time>2026-04-08T17:00:15.918Z</time></trkpt><trkpt lat="42.5325183" lon="2.8615933"><ele>71.0</ele><time>2026-04-08T17:00:16.918Z</time></trkpt><trkpt lat="42.5326517" lon="2.8618283"><ele>71.0</ele><time>2026-04-08T17:00:17.918Z</time></trkpt><trkpt lat="42.5327833" lon="2.8620667"><ele>71.0</ele><time>2026-04-08T17:00:18.918Z</time></trkpt><trkpt lat="42.53291" lon="2.8623067"><ele>71.0</ele><time>2026-04-08T17:00:19.918Z</time></trkpt><trkpt lat="42.53303" lon="2.8625567"><ele>71.33333333333334</ele><time>2026-04-08T17:00:20.917Z</time></trkpt><trkpt lat="42.53315" lon="2.8628033"><ele>71.66666666666667</ele><time>2026-04-08T17:00:21.917Z</time></trkpt><trkpt lat="42.533265" lon="2.86305"><ele>72.0</ele><time>2026-04-08T17:00:22.918Z</time></trkpt><trkpt lat="42.5333783" lon="2.863295"><ele>71.66666666666667</ele><time>2026-04-08T17:00:23.918Z</time></trkpt><trkpt lat="42.5334917" lon="2.8635433"><ele>71.33333333333334</ele><time>2026-04-08T17:00:24.918Z</time></trkpt><trkpt lat="42.5336067" lon="2.8637917"><ele>71.0</ele><time>2026-04-08T17:00:25.918Z</time></trkpt><trkpt lat="42.5337183" lon="2.86404"><ele>70.33333333333334</ele><time>2026-04-08T17:00:26.918Z</time></trkpt><trkpt lat="42.5338333" lon="2.86429"><ele>69.66666666666667</ele><time>2026-04-08T17:00:27.918Z</time></trkpt><trkpt lat="42.53395" lon="2.8645367"><ele>69.0</ele><time>2026-04-08T17:00:28.918Z</time></trkpt><trkpt lat="42.5340617" lon="2.8647917"><ele>69.0</ele><time>2026-04-08T17:00:29.918Z</time></trkpt><trkpt lat="42.5341683" lon="2.865055"><ele>69.0</ele><time>2026-04-08T17:00:30.917Z</time></trkpt><trkpt lat="42.5342817" lon="2.8653083"><ele>69.0</ele><time>2026-04-08T17:00:31.917Z</time></trkpt><trkpt lat="42.534395" lon="2.8655633"><ele>69.33333333333333</ele><time>2026-04-08T17:00:32.918Z</time></trkpt><trkpt lat="42.5345083" lon="2.8658133"><ele>69.66666666666666</ele><time>2026-04-08T17:00:33.918Z</time></trkpt><trkpt lat="42.5346217" lon="2.8660683"><ele>70.0</ele><time>2026-04-08T17:00:34.917Z</time></trkpt><trkpt lat="42.534735" lon="2.86632"><ele>70.0</ele><time>2026-04-08T17:00:35.917Z</time></trkpt><trkpt lat="42.534845" lon="2.8665733"><ele>70.0</ele><time>2026-04-08T17:00:36.918Z</time></trkpt><trkpt lat="42.534955" lon="2.8668267"><ele>70.0</ele><time>2026-04-08T17:00:37.918Z</time></trkpt><trkpt lat="42.53506" lon="2.8670917"><ele>70.33333333333333</ele><time>2026-04-08T17:00:38.918Z</time></trkpt><trkpt lat="42.5351567" lon="2.8673583"><ele>70.66666666666667</ele><time>2026-04-08T17:00:39.918Z</time></trkpt><trkpt lat="42.5352517" lon="2.8676183"><ele>71.0</ele><time>2026-04-08T17:00:40.918Z</time></trkpt><trkpt lat="42.535345" lon="2.8678817"><ele>70.66666666666667</ele><time>2026-04-08T17:00:41.917Z</time></trkpt><trkpt lat="42.5354367" lon="2.868145"><ele>70.33333333333333</ele><time>2026-04-08T17:00:42.917Z</time></trkpt><trkpt lat="42.5355233" lon="2.8684167"><ele>70.0</ele><time>2026-04-08T17:00:43.917Z</time></trkpt><trkpt lat="42.535605" lon="2.8686867"><ele>69.33333333333333</ele><time>2026-04-08T17:00:44.917Z</time></trkpt><trkpt lat="42.535685" lon="2.86896"><ele>68.66666666666667</ele><time>2026-04-08T17:00:45.918Z</time></trkpt><trkpt lat="42.5357617" lon="2.8692383"><ele>68.0</ele><time>2026-04-08T17:00:46.918Z</time></trkpt><trkpt lat="42.535835" lon="2.8695233"><ele>68.0</ele><time>2026-04-08T17:00:47.917Z</time></trkpt><trkpt lat="42.5359083" lon="2.8698167"><ele>68.0</ele><time>2026-04-08T17:00:48.918Z</time></trkpt><trkpt lat="42.5359817" lon="2.8701183"><ele>67.0</ele><time>2026-04-08T17:00:49.917Z</time></trkpt><trkpt lat="42.5360533" lon="2.870425"><ele>66.0</ele><time>2026-04-08T17:00:50.917Z</time></trkpt><trkpt lat="42.5361217" lon="2.8707283"><ele>66.0</ele><time>2026-04-08T17:00:51.918Z</time></trkpt><trkpt lat="42.5361883" lon="2.871035"><ele>66.0</ele><time>2026-04-08T17:00:52.918Z</time></trkpt><trkpt lat="42.5362567" lon="2.8713383"><ele>66.0</ele><time>2026-04-08T17:00:53.918Z</time></trkpt><trkpt lat="42.5363233" lon="2.871645"><ele>66.0</ele><time>2026-04-08T17:00:54.918Z</time></trkpt><trkpt lat="42.5363883" lon="2.87195"><ele>66.0</ele><time>2026-04-08T17:00:55.918Z</time></trkpt><trkpt lat="42.5364567" lon="2.8722617"><ele>66.0</ele><time>2026-04-08T17:00:56.918Z</time></trkpt><trkpt lat="42.5365217" lon="2.8725683"><ele>65.0</ele><time>2026-04-08T17:00:57.918Z</time></trkpt><trkpt lat="42.5365867" lon="2.8728783"><ele>64.0</ele><time>2026-04-08T17:00:58.918Z</time></trkpt><trkpt lat="42.536655" lon="2.873195"><ele>64.0</ele><time>2026-04-08T17:00:59.917Z</time></trkpt><trkpt lat="42.536725" lon="2.8735233"><ele>64.0</ele><time>2026-04-08T17:01:00.918Z</time></trkpt><trkpt lat="42.5367983" lon="2.8738583"><ele>64.0</ele><time>2026-04-08T17:01:01.917Z</time></trkpt><trkpt lat="42.5368733" lon="2.87421"><ele>64.0</ele><time>2026-04-08T17:01:02.917Z</time></trkpt><trkpt lat="42.5369517" lon="2.8745683"><ele>64.5</ele><time>2026-04-08T17:01:03.918Z</time></trkpt><trkpt lat="42.53703" lon="2.8749267"><ele>65.0</ele><time>2026-04-08T17:01:04.918Z</time></trkpt><trkpt lat="42.537105" lon="2.8752833"><ele>65.0</ele><time>2026-04-08T17:01:05.918Z</time></trkpt><trkpt lat="42.5371817" lon="2.87563"><ele>65.0</ele><time>2026-04-08T17:01:06.918Z</time></trkpt><trkpt lat="42.5372567" lon="2.8759733"><ele>65.5</ele><time>2026-04-08T17:01:07.918Z</time></trkpt><trkpt lat="42.5373333" lon="2.876305"><ele>66.0</ele><time>2026-04-08T17:01:08.918Z</time></trkpt><trkpt lat="42.5374083" lon="2.8766283"><ele>64.5</ele><time>2026-04-08T17:01:09.918Z</time></trkpt><trkpt lat="42.5374833" lon="2.8769467"><ele>63.0</ele><time>2026-04-08T17:01:10.918Z</time></trkpt><trkpt lat="42.5375633" lon="2.877255"><ele>63.0</ele><time>2026-04-08T17:01:11.918Z</time></trkpt><trkpt lat="42.5376433" lon="2.8775567"><ele>63.0</ele><time>2026-04-08T17:01:12.918Z</time></trkpt><trkpt lat="42.537725" lon="2.8778517"><ele>63.33333333333333</ele><time>2026-04-08T17:01:13.918Z</time></trkpt><trkpt lat="42.53781" lon="2.8781367"><ele>63.666666666666664</ele><time>2026-04-08T17:01:14.918Z</time></trkpt><trkpt lat="42.5378933" lon="2.8784083"><ele>64.0</ele><time>2026-04-08T17:01:15.918Z</time></trkpt><trkpt lat="42.5379767" lon="2.87868"><ele>63.33333333333333</ele><time>2026-04-08T17:01:16.918Z</time></trkpt><trkpt lat="42.5380583" lon="2.87895"><ele>62.66666666666667</ele><time>2026-04-08T17:01:17.918Z</time></trkpt><trkpt lat="42.53814" lon="2.87922"><ele>62.0</ele><time>2026-04-08T17:01:18.918Z</time></trkpt><trkpt lat="42.53822" lon="2.879485"><ele>62.0</ele><time>2026-04-08T17:01:19.918Z</time></trkpt><trkpt lat="42.5383017" lon="2.8797433"><ele>62.0</ele><time>2026-04-08T17:01:20.918Z</time></trkpt><trkpt lat="42.53838" lon="2.8799967"><ele>62.0</ele><time>2026-04-08T17:01:21.917Z</time></trkpt><trkpt lat="42.53846" lon="2.8802517"><ele>61.66666666666667</ele><time>2026-04-08T17:01:22.918Z</time></trkpt><trkpt lat="42.53854" lon="2.8805083"><ele>61.33333333333333</ele><time>2026-04-08T17:01:23.918Z</time></trkpt><trkpt lat="42.5386183" lon="2.8807667"><ele>61.0</ele><time>2026-04-08T17:01:24.918Z</time></trkpt><trkpt lat="42.5387" lon="2.8810267"><ele>61.0</ele><time>2026-04-08T17:01:25.918Z</time></trkpt><trkpt lat="42.5387817" lon="2.8812883"><ele>61.0</ele><time>2026-04-08T17:01:26.918Z</time></trkpt><trkpt lat="42.5388617" lon="2.8815483"><ele>61.0</ele><time>2026-04-08T17:01:27.917Z</time></trkpt><trkpt lat="42.53894" lon="2.881805"><ele>60.666666666666664</ele><time>2026-04-08T17:01:28.918Z</time></trkpt><trkpt lat="42.53902" lon="2.88206"><ele>60.33333333333333</ele><time>2026-04-08T17:01:29.918Z</time></trkpt><trkpt lat="42.5390933" lon="2.8823083"><ele>60.0</ele><time>2026-04-08T17:01:30.918Z</time></trkpt><trkpt lat="42.53917" lon="2.882555"><ele>59.33333333333333</ele><time>2026-04-08T17:01:31.918Z</time></trkpt><trkpt lat="42.5392467" lon="2.8827967"><ele>58.666666666666664</ele><time>2026-04-08T17:01:32.918Z</time></trkpt><trkpt lat="42.5393217" lon="2.8830383"><ele>58.0</ele><time>2026-04-08T17:01:33.918Z</time></trkpt><trkpt lat="42.5393983" lon="2.8832817"><ele>58.0</ele><time>2026-04-08T17:01:34.917Z</time></trkpt><trkpt lat="42.5394733" lon="2.8835217"><ele>58.0</ele><time>2026-04-08T17:01:35.917Z</time></trkpt><trkpt lat="42.5395483" lon="2.8837617"><ele>58.0</ele><time>2026-04-08T17:01:36.917Z</time></trkpt><trkpt lat="42.5396217" lon="2.884"><ele>58.0</ele><time>2026-04-08T17:01:37.918Z</time></trkpt><trkpt lat="42.5396967" lon="2.8842417"><ele>58.0</ele><time>2026-04-08T17:01:38.917Z</time></trkpt><trkpt lat="42.5397717" lon="2.8844817"><ele>58.0</ele><time>2026-04-08T17:01:39.918Z</time></trkpt><trkpt lat="42.5398483" lon="2.8847217"><ele>57.666666666666664</ele><time>2026-04-08T17:01:40.918Z</time></trkpt><trkpt lat="42.5399217" lon="2.88496"><ele>57.33333333333333</ele><time>2026-04-08T17:01:41.918Z</time></trkpt><trkpt lat="42.5399967" lon="2.8852017"><ele>57.0</ele><time>2026-04-08T17:01:42.918Z</time></trkpt><trkpt lat="42.540075" lon="2.8854483"><ele>56.66666666666667</ele><time>2026-04-08T17:01:43.918Z</time></trkpt><trkpt lat="42.54015" lon="2.88569"><ele>56.333333333333336</ele><time>2026-04-08T17:01:44.918Z</time></trkpt><trkpt lat="42.5402233" lon="2.885935"><ele>56.0</ele><time>2026-04-08T17:01:45.918Z</time></trkpt><trkpt lat="42.5403" lon="2.8861783"><ele>55.66666666666667</ele><time>2026-04-08T17:01:46.917Z</time></trkpt><trkpt lat="42.540375" lon="2.88642"><ele>55.33333333333333</ele><time>2026-04-08T17:01:47.918Z</time></trkpt><trkpt lat="42.54045" lon="2.8866617"><ele>55.0</ele><time>2026-04-08T17:01:48.918Z</time></trkpt><trkpt lat="42.5405233" lon="2.8869017"><ele>55.33333333333333</ele><time>2026-04-08T17:01:49.917Z</time></trkpt><trkpt lat="42.5405983" lon="2.8871383"><ele>55.66666666666667</ele><time>2026-04-08T17:01:50.917Z</time></trkpt><trkpt lat="42.5406717" lon="2.8873783"><ele>56.0</ele><time>2026-04-08T17:01:51.917Z</time></trkpt><trkpt lat="42.5407483" lon="2.8876217"><ele>56.0</ele><time>2026-04-08T17:01:52.918Z</time></trkpt><trkpt lat="42.540825" lon="2.8878633"><ele>56.0</ele><time>2026-04-08T17:01:53.917Z</time></trkpt><trkpt lat="42.5408983" lon="2.8881"><ele>56.0</ele><time>2026-04-08T17:01:54.918Z</time></trkpt><trkpt lat="42.5409717" lon="2.88834"><ele>57.0</ele><time>2026-04-08T17:01:55.918Z</time></trkpt><trkpt lat="42.5410433" lon="2.88858"><ele>58.0</ele><time>2026-04-08T17:01:56.917Z</time></trkpt><trkpt lat="42.5411183" lon="2.8888183"><ele>59.0</ele><time>2026-04-08T17:01:57.917Z</time></trkpt><trkpt lat="42.5411933" lon="2.8890583"><ele>58.66666666666667</ele><time>2026-04-08T17:01:58.917Z</time></trkpt><trkpt lat="42.541265" lon="2.8892933"><ele>58.33333333333333</ele><time>2026-04-08T17:01:59.917Z</time></trkpt><trkpt lat="42.541335" lon="2.8895333"><ele>58.0</ele><time>2026-04-08T17:02:00.918Z</time></trkpt><trkpt lat="42.5414017" lon="2.8897783"><ele>58.0</ele><time>2026-04-08T17:02:01.918Z</time></trkpt><trkpt lat="42.54147" lon="2.8900233"><ele>58.0</ele><time>2026-04-08T17:02:02.918Z</time></trkpt><trkpt lat="42.5415333" lon="2.8902683"><ele>58.0</ele><time>2026-04-08T17:02:03.917Z</time></trkpt><trkpt lat="42.5415967" lon="2.890515"><ele>57.666666666666664</ele><time>2026-04-08T17:02:04.918Z</time></trkpt><trkpt lat="42.5416567" lon="2.8907667"><ele>57.33333333333333</ele><time>2026-04-08T17:02:05.918Z</time></trkpt><trkpt lat="42.5417133" lon="2.8910233"><ele>57.0</ele><time>2026-04-08T17:02:06.918Z</time></trkpt><trkpt lat="42.541765" lon="2.8912783"><ele>57.66666666666667</ele><time>2026-04-08T17:02:07.918Z</time></trkpt><trkpt lat="42.54181" lon="2.891535"><ele>58.333333333333336</ele><time>2026-04-08T17:02:08.918Z</time></trkpt><trkpt lat="42.5418533" lon="2.891795"><ele>59.0</ele><time>2026-04-08T17:02:09.918Z</time></trkpt><trkpt lat="42.5418933" lon="2.8920517"><ele>59.0</ele><time>2026-04-08T17:02:10.918Z</time></trkpt><trkpt lat="42.5419333" lon="2.8923067"><ele>59.0</ele><time>2026-04-08T17:02:11.918Z</time></trkpt><trkpt lat="42.5419733" lon="2.892565"><ele>59.0</ele><time>2026-04-08T17:02:12.917Z</time></trkpt><trkpt lat="42.5420083" lon="2.8928283"><ele>59.0</ele><time>2026-04-08T17:02:13.917Z</time></trkpt><trkpt lat="42.54204" lon="2.8930867"><ele>59.0</ele><time>2026-04-08T17:02:14.918Z</time></trkpt><trkpt lat="42.5420683" lon="2.893335"><ele>59.0</ele><time>2026-04-08T17:02:15.918Z</time></trkpt><trkpt lat="42.5420917" lon="2.89359"><ele>58.333333333333336</ele><time>2026-04-08T17:02:16.918Z</time></trkpt><trkpt lat="42.5421117" lon="2.8938517"><ele>57.66666666666667</ele><time>2026-04-08T17:02:17.918Z</time></trkpt><trkpt lat="42.5421317" lon="2.8941117"><ele>57.0</ele><time>2026-04-08T17:02:18.918Z</time></trkpt><trkpt lat="42.5421467" lon="2.8943733"><ele>57.0</ele><time>2026-04-08T17:02:19.917Z</time></trkpt><trkpt lat="42.5421617" lon="2.894635"><ele>57.0</ele><time>2026-04-08T17:02:20.918Z</time></trkpt><trkpt lat="42.542175" lon="2.8948933"><ele>57.0</ele><time>2026-04-08T17:02:21.918Z</time></trkpt><trkpt lat="42.5421783" lon="2.8951533"><ele>57.0</ele><time>2026-04-08T17:02:22.917Z</time></trkpt><trkpt lat="42.5421767" lon="2.89542"><ele>57.0</ele><time>2026-04-08T17:02:23.918Z</time></trkpt><trkpt lat="42.5421767" lon="2.89568"><ele>57.0</ele><time>2026-04-08T17:02:24.917Z</time></trkpt><trkpt lat="42.5421767" lon="2.8959467"><ele>56.66666666666667</ele><time>2026-04-08T17:02:25.917Z</time></trkpt><trkpt lat="42.542175" lon="2.8962117"><ele>56.333333333333336</ele><time>2026-04-08T17:02:26.917Z</time></trkpt><trkpt lat="42.5421767" lon="2.8964833"><ele>56.0</ele><time>2026-04-08T17:02:27.918Z</time></trkpt><trkpt lat="42.5421833" lon="2.8967467"><ele>56.333333333333336</ele><time>2026-04-08T17:02:28.918Z</time></trkpt><trkpt lat="42.5421917" lon="2.8970083"><ele>56.66666666666667</ele><time>2026-04-08T17:02:29.917Z</time></trkpt><trkpt lat="42.5422033" lon="2.8972667"><ele>57.0</ele><time>2026-04-08T17:02:30.918Z</time></trkpt><trkpt lat="42.5422167" lon="2.8975267"><ele>56.33333333333333</ele><time>2026-04-08T17:02:31.918Z</time></trkpt><trkpt lat="42.542235" lon="2.8977933"><ele>55.666666666666664</ele><time>2026-04-08T17:02:32.918Z</time></trkpt><trkpt lat="42.5422583" lon="2.8980567"><ele>55.0</ele><time>2026-04-08T17:02:33.917Z</time></trkpt><trkpt lat="42.5422833" lon="2.8983217"><ele>55.5</ele><time>2026-04-08T17:02:34.918Z</time></trkpt><trkpt lat="42.5423133" lon="2.898585"><ele>56.0</ele><time>2026-04-08T17:02:35.918Z</time></trkpt><trkpt lat="42.542425" lon="2.8994233"><ele>56.0</ele><time>2026-04-08T17:02:38.918Z</time></trkpt><trkpt lat="42.5424783" lon="2.8997283"><ele>56.0</ele><time>2026-04-08T17:02:39.918Z</time></trkpt><trkpt lat="42.5425383" lon="2.90004"><ele>55.5</ele><time>2026-04-08T17:02:40.918Z</time></trkpt><trkpt lat="42.5426033" lon="2.9003667"><ele>55.0</ele><time>2026-04-08T17:02:41.918Z</time></trkpt><trkpt lat="42.5426733" lon="2.900705"><ele>54.5</ele><time>2026-04-08T17:02:42.917Z</time></trkpt><trkpt lat="42.54275" lon="2.901045"><ele>54.0</ele><time>2026-04-08T17:02:43.918Z</time></trkpt><trkpt lat="42.54283" lon="2.9013867"><ele>53.0</ele><time>2026-04-08T17:02:44.918Z</time></trkpt><trkpt lat="42.5429183" lon="2.9017167"><ele>52.0</ele><time>2026-04-08T17:02:45.918Z</time></trkpt><trkpt lat="42.5430083" lon="2.9020417"><ele>52.0</ele><time>2026-04-08T17:02:46.917Z</time></trkpt><trkpt lat="42.5431083" lon="2.9023717"><ele>52.0</ele><time>2026-04-08T17:02:47.918Z</time></trkpt><trkpt lat="42.54321" lon="2.9026917"><ele>52.0</ele><time>2026-04-08T17:02:48.918Z</time></trkpt><trkpt lat="42.5433117" lon="2.903"><ele>52.0</ele><time>2026-04-08T17:02:49.917Z</time></trkpt><trkpt lat="42.5434183" lon="2.9032967"><ele>51.0</ele><time>2026-04-08T17:02:50.918Z</time></trkpt><trkpt lat="42.5435283" lon="2.90359"><ele>50.0</ele><time>2026-04-08T17:02:51.918Z</time></trkpt><trkpt lat="42.54364" lon="2.9038767"><ele>50.0</ele><time>2026-04-08T17:02:52.918Z</time></trkpt><trkpt lat="42.54375" lon="2.9041633"><ele>50.0</ele><time>2026-04-08T17:02:53.917Z</time></trkpt><trkpt lat="42.54386" lon="2.9044383"><ele>50.0</ele><time>2026-04-08T17:02:54.917Z</time></trkpt><trkpt lat="42.54397" lon="2.9047117"><ele>50.0</ele><time>2026-04-08T17:02:55.918Z</time></trkpt><trkpt lat="42.5440767" lon="2.9049833"><ele>50.0</ele><time>2026-04-08T17:02:56.918Z</time></trkpt><trkpt lat="42.544185" lon="2.9052483"><ele>50.0</ele><time>2026-04-08T17:02:57.918Z</time></trkpt><trkpt lat="42.5442917" lon="2.9055083"><ele>50.0</ele><time>2026-04-08T17:02:58.918Z</time></trkpt><trkpt lat="42.5443933" lon="2.9057633"><ele>50.0</ele><time>2026-04-08T17:02:59.917Z</time></trkpt><trkpt lat="42.5444967" lon="2.906015"><ele>50.0</ele><time>2026-04-08T17:03:00.918Z</time></trkpt><trkpt lat="42.5445983" lon="2.9062683"><ele>50.0</ele><time>2026-04-08T17:03:01.917Z</time></trkpt><trkpt lat="42.5446983" lon="2.906515"><ele>49.333333333333336</ele><time>2026-04-08T17:03:02.918Z</time></trkpt><trkpt lat="42.5447933" lon="2.90676"><ele>48.66666666666667</ele><time>2026-04-08T17:03:03.918Z</time></trkpt><trkpt lat="42.54489" lon="2.9070067"><ele>48.0</ele><time>2026-04-08T17:03:04.917Z</time></trkpt><trkpt lat="42.5449883" lon="2.907255"><ele>48.0</ele><time>2026-04-08T17:03:05.918Z</time></trkpt><trkpt lat="42.5450817" lon="2.9075017"><ele>48.0</ele><time>2026-04-08T17:03:06.918Z</time></trkpt><trkpt lat="42.5451733" lon="2.90775"><ele>48.0</ele><time>2026-04-08T17:03:07.918Z</time></trkpt><trkpt lat="42.5452717" lon="2.9079983"><ele>47.666666666666664</ele><time>2026-04-08T17:03:08.917Z</time></trkpt><trkpt lat="42.5453733" lon="2.9082433"><ele>47.33333333333333</ele><time>2026-04-08T17:03:09.918Z</time></trkpt><trkpt lat="42.54547" lon="2.9084867"><ele>47.0</ele><time>2026-04-08T17:03:10.918Z</time></trkpt><trkpt lat="42.5455683" lon="2.9087267"><ele>46.666666666666664</ele><time>2026-04-08T17:03:11.918Z</time></trkpt><trkpt lat="42.5456683" lon="2.908965"><ele>46.333333333333336</ele><time>2026-04-08T17:03:12.918Z</time></trkpt><trkpt lat="42.54577" lon="2.9092017"><ele>46.0</ele><time>2026-04-08T17:03:13.917Z</time></trkpt><trkpt lat="42.54587" lon="2.90944"><ele>46.0</ele><time>2026-04-08T17:03:14.917Z</time></trkpt><trkpt lat="42.5459667" lon="2.90968"><ele>46.0</ele><time>2026-04-08T17:03:15.918Z</time></trkpt><trkpt lat="42.54606" lon="2.909915"><ele>46.0</ele><time>2026-04-08T17:03:16.918Z</time></trkpt><trkpt lat="42.54615" lon="2.9101467"><ele>46.0</ele><time>2026-04-08T17:03:17.918Z</time></trkpt><trkpt lat="42.54624" lon="2.9103817"><ele>46.0</ele><time>2026-04-08T17:03:18.918Z</time></trkpt><trkpt lat="42.546335" lon="2.9106183"><ele>46.0</ele><time>2026-04-08T17:03:19.918Z</time></trkpt><trkpt lat="42.5464283" lon="2.91085"><ele>45.66666666666667</ele><time>2026-04-08T17:03:20.918Z</time></trkpt><trkpt lat="42.5465233" lon="2.9110817"><ele>45.333333333333336</ele><time>2026-04-08T17:03:21.918Z</time></trkpt><trkpt lat="42.5466233" lon="2.911315"><ele>45.0</ele><time>2026-04-08T17:03:22.917Z</time></trkpt><trkpt lat="42.546715" lon="2.9115467"><ele>44.333333333333336</ele><time>2026-04-08T17:03:23.918Z</time></trkpt><trkpt lat="42.5468067" lon="2.9117767"><ele>43.66666666666667</ele><time>2026-04-08T17:03:24.918Z</time></trkpt><trkpt lat="42.5468983" lon="2.9120033"><ele>43.0</ele><time>2026-04-08T17:03:25.918Z</time></trkpt><trkpt lat="42.546985" lon="2.912235"><ele>43.333333333333336</ele><time>2026-04-08T17:03:26.918Z</time></trkpt><trkpt lat="42.5470733" lon="2.912465"><ele>43.666666666666664</ele><time>2026-04-08T17:03:27.918Z</time></trkpt><trkpt lat="42.5471617" lon="2.9126983"><ele>44.0</ele><time>2026-04-08T17:03:28.918Z</time></trkpt><trkpt lat="42.5472433" lon="2.91293"><ele>44.33333333333333</ele><time>2026-04-08T17:03:29.918Z</time></trkpt><trkpt lat="42.5473233" lon="2.9131633"><ele>44.666666666666664</ele><time>2026-04-08T17:03:30.918Z</time></trkpt><trkpt lat="42.5474017" lon="2.9134017"><ele>45.0</ele><time>2026-04-08T17:03:31.918Z</time></trkpt><trkpt lat="42.547475" lon="2.9136433"><ele>45.333333333333336</ele><time>2026-04-08T17:03:32.918Z</time></trkpt><trkpt lat="42.547545" lon="2.913885"><ele>45.66666666666667</ele><time>2026-04-08T17:03:33.918Z</time></trkpt><trkpt lat="42.5476167" lon="2.9141433"><ele>46.0</ele><time>2026-04-08T17:03:34.917Z</time></trkpt><trkpt lat="42.5476767" lon="2.9143917"><ele>46.0</ele><time>2026-04-08T17:03:35.918Z</time></trkpt><trkpt lat="42.5477333" lon="2.91464"><ele>46.0</ele><time>2026-04-08T17:03:36.918Z</time></trkpt><trkpt lat="42.54779" lon="2.9148883"><ele>46.0</ele><time>2026-04-08T17:03:37.917Z</time></trkpt><trkpt lat="42.5478433" lon="2.9151383"><ele>45.66666666666667</ele><time>2026-04-08T17:03:38.918Z</time></trkpt><trkpt lat="42.54789" lon="2.91538"><ele>45.333333333333336</ele><time>2026-04-08T17:03:39.918Z</time></trkpt><trkpt lat="42.5479317" lon="2.91563"><ele>45.0</ele><time>2026-04-08T17:03:40.917Z</time></trkpt><trkpt lat="42.54797" lon="2.9158833"><ele>45.0</ele><time>2026-04-08T17:03:41.918Z</time></trkpt><trkpt lat="42.5480267" lon="2.9163667"><ele>45.0</ele><time>2026-04-08T17:03:43.917Z</time></trkpt><trkpt lat="42.5480433" lon="2.916605"><ele>45.0</ele><time>2026-04-08T17:03:44.918Z</time></trkpt><trkpt lat="42.5480583" lon="2.9168517"><ele>45.0</ele><time>2026-04-08T17:03:45.918Z</time></trkpt><trkpt lat="42.5480717" lon="2.917085"><ele>45.0</ele><time>2026-04-08T17:03:46.917Z</time></trkpt><trkpt lat="42.5480867" lon="2.9173017"><ele>45.0</ele><time>2026-04-08T17:03:47.918Z</time></trkpt><trkpt lat="42.5481" lon="2.9175033"><ele>45.0</ele><time>2026-04-08T17:03:48.918Z</time></trkpt><trkpt lat="42.54811" lon="2.9176933"><ele>45.0</ele><time>2026-04-08T17:03:49.918Z</time></trkpt><trkpt lat="42.5481217" lon="2.9178583"><ele>45.0</ele><time>2026-04-08T17:03:50.918Z</time></trkpt><trkpt lat="42.5481317" lon="2.9179983"><ele>44.8</ele><time>2026-04-08T17:03:51.918Z</time></trkpt><trkpt lat="42.548135" lon="2.9181017"><ele>44.6</ele><time>2026-04-08T17:03:52.917Z</time></trkpt><trkpt lat="42.5481067" lon="2.91823"><ele>44.400000000000006</ele><time>2026-04-08T17:03:54.918Z</time></trkpt><trkpt lat="42.548025" lon="2.9183167"><ele>44.2</ele><time>2026-04-08T17:03:56.917Z</time></trkpt><trkpt lat="42.5479533" lon="2.9184283"><ele>44.0</ele><time>2026-04-08T17:03:58.918Z</time></trkpt><trkpt lat="42.5479567" lon="2.9185683"><ele>44.0</ele><time>2026-04-08T17:04:00.918Z</time></trkpt><trkpt lat="42.5480367" lon="2.9186583"><ele>44.0</ele><time>2026-04-08T17:04:02.918Z</time></trkpt><trkpt lat="42.5481" lon="2.9186533"><ele>44.0</ele><time>2026-04-08T17:04:03.918Z</time></trkpt><trkpt lat="42.5482117" lon="2.9185683"><ele>44.0</ele><time>2026-04-08T17:04:05.917Z</time></trkpt><trkpt lat="42.5482783" lon="2.9185383"><ele>44.0</ele><time>2026-04-08T17:04:06.918Z</time></trkpt><trkpt lat="42.5483533" lon="2.9185183"><ele>44.0</ele><time>2026-04-08T17:04:07.918Z</time></trkpt><trkpt lat="42.5484267" lon="2.9185083"><ele>44.0</ele><time>2026-04-08T17:04:08.917Z</time></trkpt><trkpt lat="42.5484967" lon="2.91851"><ele>44.0</ele><time>2026-04-08T17:04:09.918Z</time></trkpt><trkpt lat="42.548565" lon="2.918535"><ele>44.0</ele><time>2026-04-08T17:04:10.918Z</time></trkpt><trkpt lat="42.548625" lon="2.9185667"><ele>44.0</ele><time>2026-04-08T17:04:11.918Z</time></trkpt><trkpt lat="42.5487367" lon="2.91857"><ele>44.0</ele><time>2026-04-08T17:04:13.918Z</time></trkpt><trkpt lat="42.5488183" lon="2.9184817"><ele>44.0</ele><time>2026-04-08T17:04:15.918Z</time></trkpt><trkpt lat="42.5488533" lon="2.91841"><ele>43.6</ele><time>2026-04-08T17:04:16.917Z</time></trkpt><trkpt lat="42.548905" lon="2.9183333"><ele>43.2</ele><time>2026-04-08T17:04:17.918Z</time></trkpt><trkpt lat="42.5489583" lon="2.9182383"><ele>42.800000000000004</ele><time>2026-04-08T17:04:18.918Z</time></trkpt><trkpt lat="42.5490217" lon="2.9181417"><ele>42.400000000000006</ele><time>2026-04-08T17:04:19.918Z</time></trkpt><trkpt lat="42.5490867" lon="2.9180467"><ele>42.0</ele><time>2026-04-08T17:04:20.918Z</time></trkpt><trkpt lat="42.5491583" lon="2.9179417"><ele>42.0</ele><time>2026-04-08T17:04:21.917Z</time></trkpt><trkpt lat="42.5492383" lon="2.9178467"><ele>42.0</ele><time>2026-04-08T17:04:22.918Z</time></trkpt><trkpt lat="42.54933" lon="2.9177433"><ele>42.0</ele><time>2026-04-08T17:04:23.918Z</time></trkpt><trkpt lat="42.549435" lon="2.91763"><ele>42.0</ele><time>2026-04-08T17:04:24.918Z</time></trkpt><trkpt lat="42.54982" lon="2.91731"><ele>42.333333333333336</ele><time>2026-04-08T17:04:27.918Z</time></trkpt><trkpt lat="42.5499617" lon="2.9172067"><ele>42.66666666666667</ele><time>2026-04-08T17:04:28.918Z</time></trkpt><trkpt lat="42.5501067" lon="2.917095"><ele>43.0</ele><time>2026-04-08T17:04:29.918Z</time></trkpt><trkpt lat="42.550255" lon="2.9169767"><ele>42.0</ele><time>2026-04-08T17:04:30.918Z</time></trkpt><trkpt lat="42.5507367" lon="2.9165983"><ele>42.0</ele><time>2026-04-08T17:04:33.918Z</time></trkpt><trkpt lat="42.550905" lon="2.9164617"><ele>42.0</ele><time>2026-04-08T17:04:34.917Z</time></trkpt><trkpt lat="42.5510683" lon="2.9163267"><ele>42.0</ele><time>2026-04-08T17:04:35.918Z</time></trkpt><trkpt lat="42.5512317" lon="2.916185"><ele>42.0</ele><time>2026-04-08T17:04:36.918Z</time></trkpt><trkpt lat="42.551395" lon="2.91604"><ele>42.0</ele><time>2026-04-08T17:04:37.918Z</time></trkpt><trkpt lat="42.5515633" lon="2.9158983"><ele>42.0</ele><time>2026-04-08T17:04:38.918Z</time></trkpt><trkpt lat="42.5517367" lon="2.91575"><ele>42.0</ele><time>2026-04-08T17:04:39.918Z</time></trkpt><trkpt lat="42.5519133" lon="2.9156017"><ele>42.0</ele><time>2026-04-08T17:04:40.918Z</time></trkpt><trkpt lat="42.5520867" lon="2.91545"><ele>42.0</ele><time>2026-04-08T17:04:41.917Z</time></trkpt><trkpt lat="42.5522583" lon="2.9152967"><ele>42.0</ele><time>2026-04-08T17:04:42.918Z</time></trkpt><trkpt lat="42.5527667" lon="2.9148617"><ele>42.0</ele><time>2026-04-08T17:04:45.918Z</time></trkpt><trkpt lat="42.5529283" lon="2.9147267"><ele>42.0</ele><time>2026-04-08T17:04:46.918Z</time></trkpt><trkpt lat="42.5530917" lon="2.9145917"><ele>42.0</ele><time>2026-04-08T17:04:47.918Z</time></trkpt><trkpt lat="42.553255" lon="2.9144533"><ele>42.0</ele><time>2026-04-08T17:04:48.918Z</time></trkpt><trkpt lat="42.55341" lon="2.9143033"><ele>42.0</ele><time>2026-04-08T17:04:49.918Z</time></trkpt><trkpt lat="42.553575" lon="2.9141583"><ele>42.0</ele><time>2026-04-08T17:04:50.919Z</time></trkpt><trkpt lat="42.5537367" lon="2.9140167"><ele>41.666666666666664</ele><time>2026-04-08T17:04:51.919Z</time></trkpt><trkpt lat="42.553905" lon="2.9138767"><ele>41.33333333333333</ele><time>2026-04-08T17:04:52.918Z</time></trkpt><trkpt lat="42.554065" lon="2.913735"><ele>41.0</ele><time>2026-04-08T17:04:53.919Z</time></trkpt><trkpt lat="42.554225" lon="2.9135967"><ele>41.0</ele><time>2026-04-08T17:04:54.918Z</time></trkpt><trkpt lat="42.5543817" lon="2.9134617"><ele>41.0</ele><time>2026-04-08T17:04:55.919Z</time></trkpt><trkpt lat="42.554535" lon="2.91332"><ele>41.0</ele><time>2026-04-08T17:04:56.919Z</time></trkpt><trkpt lat="42.5546817" lon="2.913175"><ele>41.33333333333333</ele><time>2026-04-08T17:04:57.918Z</time></trkpt><trkpt lat="42.5548283" lon="2.9130133"><ele>41.666666666666664</ele><time>2026-04-08T17:04:58.919Z</time></trkpt><trkpt lat="42.55497" lon="2.9128433"><ele>42.0</ele><time>2026-04-08T17:04:59.919Z</time></trkpt><trkpt lat="42.555105" lon="2.9126717"><ele>43.0</ele><time>2026-04-08T17:05:00.918Z</time></trkpt><trkpt lat="42.5555233" lon="2.9121583"><ele>43.0</ele><time>2026-04-08T17:05:03.919Z</time></trkpt><trkpt lat="42.5556767" lon="2.9119983"><ele>43.0</ele><time>2026-04-08T17:05:04.919Z</time></trkpt><trkpt lat="42.5558267" lon="2.9118283"><ele>43.0</ele><time>2026-04-08T17:05:05.919Z</time></trkpt><trkpt lat="42.5559783" lon="2.91166"><ele>43.0</ele><time>2026-04-08T17:05:06.919Z</time></trkpt><trkpt lat="42.5561267" lon="2.9114883"><ele>43.0</ele><time>2026-04-08T17:05:07.919Z</time></trkpt><trkpt lat="42.556275" lon="2.9113183"><ele>43.0</ele><time>2026-04-08T17:05:08.919Z</time></trkpt><trkpt lat="42.556425" lon="2.91115"><ele>43.0</ele><time>2026-04-08T17:05:09.919Z</time></trkpt><trkpt lat="42.556575" lon="2.9109883"><ele>43.0</ele><time>2026-04-08T17:05:10.919Z</time></trkpt><trkpt lat="42.5567167" lon="2.9108283"><ele>43.0</ele><time>2026-04-08T17:05:11.919Z</time></trkpt><trkpt lat="42.5568567" lon="2.91066"><ele>42.5</ele><time>2026-04-08T17:05:12.918Z</time></trkpt><trkpt lat="42.5571233" lon="2.9103467"><ele>42.0</ele><time>2026-04-08T17:05:14.919Z</time></trkpt><trkpt lat="42.5572467" lon="2.9101817"><ele>42.333333333333336</ele><time>2026-04-08T17:05:15.919Z</time></trkpt><trkpt lat="42.5573617" lon="2.9100083"><ele>42.66666666666667</ele><time>2026-04-08T17:05:16.919Z</time></trkpt><trkpt lat="42.55747" lon="2.909825"><ele>43.0</ele><time>2026-04-08T17:05:17.918Z</time></trkpt><trkpt lat="42.5575667" lon="2.909635"><ele>43.0</ele><time>2026-04-08T17:05:18.919Z</time></trkpt><trkpt lat="42.5576417" lon="2.90943"><ele>43.0</ele><time>2026-04-08T17:05:19.919Z</time></trkpt><trkpt lat="42.5576933" lon="2.9092167"><ele>43.0</ele><time>2026-04-08T17:05:20.918Z</time></trkpt><trkpt lat="42.5577333" lon="2.9089917"><ele>43.0</ele><time>2026-04-08T17:05:21.919Z</time></trkpt><trkpt lat="42.5577783" lon="2.9087617"><ele>43.0</ele><time>2026-04-08T17:05:22.919Z</time></trkpt><trkpt lat="42.5578217" lon="2.9085283"><ele>43.0</ele><time>2026-04-08T17:05:23.919Z</time></trkpt><trkpt lat="42.557865" lon="2.90829"><ele>43.0</ele><time>2026-04-08T17:05:24.919Z</time></trkpt><trkpt lat="42.5579533" lon="2.9078117"><ele>43.0</ele><time>2026-04-08T17:05:26.919Z</time></trkpt><trkpt lat="42.5579933" lon="2.907575"><ele>43.0</ele><time>2026-04-08T17:05:27.919Z</time></trkpt><trkpt lat="42.558035" lon="2.90734"><ele>43.0</ele><time>2026-04-08T17:05:28.918Z</time></trkpt><trkpt lat="42.5580783" lon="2.9071133"><ele>43.0</ele><time>2026-04-08T17:05:29.919Z</time></trkpt><trkpt lat="42.5581217" lon="2.9068933"><ele>43.0</ele><time>2026-04-08T17:05:30.919Z</time></trkpt><trkpt lat="42.5581733" lon="2.9066783"><ele>43.0</ele><time>2026-04-08T17:05:31.919Z</time></trkpt><trkpt lat="42.5582333" lon="2.9064683"><ele>43.0</ele><time>2026-04-08T17:05:32.919Z</time></trkpt><trkpt lat="42.55831" lon="2.9062783"><ele>43.0</ele><time>2026-04-08T17:05:33.919Z</time></trkpt><trkpt lat="42.5584033" lon="2.9061067"><ele>43.0</ele><time>2026-04-08T17:05:34.919Z</time></trkpt><trkpt lat="42.55851" lon="2.9059417"><ele>43.0</ele><time>2026-04-08T17:05:35.919Z</time></trkpt><trkpt lat="42.55863" lon="2.9057867"><ele>42.0</ele><time>2026-04-08T17:05:36.919Z</time></trkpt><trkpt lat="42.558765" lon="2.9056417"><ele>41.0</ele><time>2026-04-08T17:05:37.919Z</time></trkpt><trkpt lat="42.5589117" lon="2.9055117"><ele>40.0</ele><time>2026-04-08T17:05:38.919Z</time></trkpt><trkpt lat="42.5590633" lon="2.905375"><ele>40.0</ele><time>2026-04-08T17:05:39.919Z</time></trkpt><trkpt lat="42.559215" lon="2.905235"><ele>40.0</ele><time>2026-04-08T17:05:40.918Z</time></trkpt><trkpt lat="42.559365" lon="2.9050983"><ele>40.0</ele><time>2026-04-08T17:05:41.919Z</time></trkpt><trkpt lat="42.5595167" lon="2.9049667"><ele>39.0</ele><time>2026-04-08T17:05:42.919Z</time></trkpt><trkpt lat="42.5596683" lon="2.90484"><ele>38.0</ele><time>2026-04-08T17:05:43.919Z</time></trkpt><trkpt lat="42.55982" lon="2.9047267"><ele>37.0</ele><time>2026-04-08T17:05:44.919Z</time></trkpt><trkpt lat="42.5599433" lon="2.9046117"><ele>37.0</ele><time>2026-04-08T17:05:45.919Z</time></trkpt><trkpt lat="42.5600583" lon="2.90451"><ele>37.0</ele><time>2026-04-08T17:05:46.919Z</time></trkpt><trkpt lat="42.5601633" lon="2.9044183"><ele>37.0</ele><time>2026-04-08T17:05:47.919Z</time></trkpt><trkpt lat="42.5602533" lon="2.9043383"><ele>37.0</ele><time>2026-04-08T17:05:48.919Z</time></trkpt><trkpt lat="42.56034" lon="2.9042667"><ele>37.0</ele><time>2026-04-08T17:05:49.919Z</time></trkpt><trkpt lat="42.56042" lon="2.9041983"><ele>37.0</ele><time>2026-04-08T17:05:50.919Z</time></trkpt><trkpt lat="42.5604817" lon="2.904145"><ele>37.0</ele><time>2026-04-08T17:05:51.919Z</time></trkpt><trkpt lat="42.560575" lon="2.9040667"><ele>37.0</ele><time>2026-04-08T17:05:53.918Z</time></trkpt><trkpt lat="42.56066" lon="2.9039833"><ele>37.0</ele><time>2026-04-08T17:05:55.919Z</time></trkpt><trkpt lat="42.5607167" lon="2.9039317"><ele>37.0</ele><time>2026-04-08T17:05:56.919Z</time></trkpt><trkpt lat="42.5607817" lon="2.9038767"><ele>37.0</ele><time>2026-04-08T17:05:57.919Z</time></trkpt><trkpt lat="42.560855" lon="2.9038117"><ele>37.0</ele><time>2026-04-08T17:05:58.918Z</time></trkpt><trkpt lat="42.5609433" lon="2.903735"><ele>37.0</ele><time>2026-04-08T17:05:59.918Z</time></trkpt><trkpt lat="42.561055" lon="2.90364"><ele>37.0</ele><time>2026-04-08T17:06:00.918Z</time></trkpt><trkpt lat="42.56117" lon="2.9035367"><ele>36.66666666666667</ele><time>2026-04-08T17:06:01.919Z</time></trkpt><trkpt lat="42.5612933" lon="2.9034267"><ele>36.333333333333336</ele><time>2026-04-08T17:06:02.919Z</time></trkpt><trkpt lat="42.5614283" lon="2.90331"><ele>36.0</ele><time>2026-04-08T17:06:03.919Z</time></trkpt><trkpt lat="42.5615733" lon="2.9031833"><ele>36.0</ele><time>2026-04-08T17:06:04.919Z</time></trkpt><trkpt lat="42.561725" lon="2.9030533"><ele>36.0</ele><time>2026-04-08T17:06:05.918Z</time></trkpt><trkpt lat="42.5618817" lon="2.90292"><ele>36.0</ele><time>2026-04-08T17:06:06.919Z</time></trkpt><trkpt lat="42.5620483" lon="2.90278"><ele>36.333333333333336</ele><time>2026-04-08T17:06:07.919Z</time></trkpt><trkpt lat="42.5622183" lon="2.9026317"><ele>36.66666666666667</ele><time>2026-04-08T17:06:08.918Z</time></trkpt><trkpt lat="42.562395" lon="2.902475"><ele>37.0</ele><time>2026-04-08T17:06:09.918Z</time></trkpt><trkpt lat="42.562575" lon="2.9023183"><ele>38.333333333333336</ele><time>2026-04-08T17:06:10.919Z</time></trkpt><trkpt lat="42.5627483" lon="2.90217"><ele>39.666666666666664</ele><time>2026-04-08T17:06:11.919Z</time></trkpt><trkpt lat="42.5629183" lon="2.902025"><ele>41.0</ele><time>2026-04-08T17:06:12.918Z</time></trkpt><trkpt lat="42.5630933" lon="2.9018917"><ele>42.0</ele><time>2026-04-08T17:06:13.919Z</time></trkpt><trkpt lat="42.5632583" lon="2.901755"><ele>43.0</ele><time>2026-04-08T17:06:14.918Z</time></trkpt><trkpt lat="42.5634167" lon="2.9016233"><ele>44.0</ele><time>2026-04-08T17:06:15.918Z</time></trkpt><trkpt lat="42.5635617" lon="2.9014983"><ele>44.33333333333333</ele><time>2026-04-08T17:06:16.919Z</time></trkpt><trkpt lat="42.5637017" lon="2.9013817"><ele>44.666666666666664</ele><time>2026-04-08T17:06:17.919Z</time></trkpt><trkpt lat="42.5638383" lon="2.90126"><ele>45.0</ele><time>2026-04-08T17:06:18.919Z</time></trkpt><trkpt lat="42.5639783" lon="2.90113"><ele>45.0</ele><time>2026-04-08T17:06:19.918Z</time></trkpt><trkpt lat="42.56413" lon="2.9010083"><ele>45.0</ele><time>2026-04-08T17:06:20.919Z</time></trkpt><trkpt lat="42.5642767" lon="2.9008817"><ele>45.0</ele><time>2026-04-08T17:06:21.919Z</time></trkpt><trkpt lat="42.56443" lon="2.90076"><ele>44.75</ele><time>2026-04-08T17:06:22.919Z</time></trkpt><trkpt lat="42.564565" lon="2.9006383"><ele>44.5</ele><time>2026-04-08T17:06:23.919Z</time></trkpt><trkpt lat="42.5646833" lon="2.9005333"><ele>44.25</ele><time>2026-04-08T17:06:24.918Z</time></trkpt><trkpt lat="42.5647933" lon="2.9004567"><ele>44.0</ele><time>2026-04-08T17:06:25.919Z</time></trkpt><trkpt lat="42.564885" lon="2.9003833"><ele>44.0</ele><time>2026-04-08T17:06:26.919Z</time></trkpt><trkpt lat="42.5649683" lon="2.9003167"><ele>44.0</ele><time>2026-04-08T17:06:27.919Z</time></trkpt><trkpt lat="42.5650417" lon="2.9002567"><ele>44.0</ele><time>2026-04-08T17:06:28.919Z</time></trkpt><trkpt lat="42.56511" lon="2.9002133"><ele>44.0</ele><time>2026-04-08T17:06:29.918Z</time></trkpt><trkpt lat="42.565175" lon="2.90018"><ele>44.0</ele><time>2026-04-08T17:06:30.919Z</time></trkpt><trkpt lat="42.565295" lon="2.9001767"><ele>44.0</ele><time>2026-04-08T17:06:32.919Z</time></trkpt><trkpt lat="42.5653567" lon="2.900215"><ele>44.166666666666664</ele><time>2026-04-08T17:06:33.919Z</time></trkpt><trkpt lat="42.5654117" lon="2.9002867"><ele>44.33333333333333</ele><time>2026-04-08T17:06:34.919Z</time></trkpt><trkpt lat="42.5654583" lon="2.9003633"><ele>44.5</ele><time>2026-04-08T17:06:35.919Z</time></trkpt><trkpt lat="42.5655083" lon="2.90045"><ele>44.666666666666664</ele><time>2026-04-08T17:06:36.918Z</time></trkpt><trkpt lat="42.56556" lon="2.9005483"><ele>44.833333333333336</ele><time>2026-04-08T17:06:37.918Z</time></trkpt><trkpt lat="42.56562" lon="2.9006583"><ele>45.0</ele><time>2026-04-08T17:06:38.919Z</time></trkpt><trkpt lat="42.5656767" lon="2.9007683"><ele>45.0</ele><time>2026-04-08T17:06:39.919Z</time></trkpt><trkpt lat="42.565735" lon="2.9008783"><ele>45.0</ele><time>2026-04-08T17:06:40.919Z</time></trkpt><trkpt lat="42.5657933" lon="2.90099"><ele>45.0</ele><time>2026-04-08T17:06:41.919Z</time></trkpt><trkpt lat="42.5658467" lon="2.9011083"><ele>45.0</ele><time>2026-04-08T17:06:42.919Z</time></trkpt><trkpt lat="42.5659" lon="2.9012267"><ele>45.0</ele><time>2026-04-08T17:06:43.919Z</time></trkpt><trkpt lat="42.565955" lon="2.9013417"><ele>45.0</ele><time>2026-04-08T17:06:44.919Z</time></trkpt><trkpt lat="42.5660067" lon="2.9014533"><ele>45.0</ele><time>2026-04-08T17:06:45.919Z</time></trkpt><trkpt lat="42.5660583" lon="2.9015633"><ele>45.0</ele><time>2026-04-08T17:06:46.919Z</time></trkpt><trkpt lat="42.5661133" lon="2.9016683"><ele>45.0</ele><time>2026-04-08T17:06:47.919Z</time></trkpt><trkpt lat="42.5661617" lon="2.90176"><ele>45.0</ele><time>2026-04-08T17:06:48.919Z</time></trkpt><trkpt lat="42.566195" lon="2.9018333"><ele>45.0</ele><time>2026-04-08T17:06:49.919Z</time></trkpt><trkpt lat="42.5662117" lon="2.9019217"><ele>44.857142857142854</ele><time>2026-04-08T17:06:50.918Z</time></trkpt><trkpt lat="42.5662083" lon="2.902015"><ele>44.714285714285715</ele><time>2026-04-08T17:06:51.919Z</time></trkpt><trkpt lat="42.5662067" lon="2.90211"><ele>44.57142857142857</ele><time>2026-04-08T17:06:52.919Z</time></trkpt><trkpt lat="42.5662117" lon="2.9022167"><ele>44.42857142857143</ele><time>2026-04-08T17:06:53.919Z</time></trkpt><trkpt lat="42.56622" lon="2.9023133"><ele>44.285714285714285</ele><time>2026-04-08T17:06:54.918Z</time></trkpt><trkpt lat="42.5662333" lon="2.902415"><ele>44.142857142857146</ele><time>2026-04-08T17:06:55.919Z</time></trkpt><trkpt lat="42.5662433" lon="2.9025217"><ele>44.0</ele><time>2026-04-08T17:06:56.919Z</time></trkpt><trkpt lat="42.5662417" lon="2.9026217"><ele>44.33333333333333</ele><time>2026-04-08T17:06:57.919Z</time></trkpt><trkpt lat="42.5662333" lon="2.9027133"><ele>44.666666666666664</ele><time>2026-04-08T17:06:58.919Z</time></trkpt><trkpt lat="42.5662367" lon="2.9028683"><ele>45.0</ele><time>2026-04-08T17:07:00.919Z</time></trkpt><trkpt lat="42.566255" lon="2.9029867"><ele>45.333333333333336</ele><time>2026-04-08T17:07:02.919Z</time></trkpt><trkpt lat="42.566275" lon="2.9031367"><ele>45.66666666666667</ele><time>2026-04-08T17:07:04.919Z</time></trkpt><trkpt lat="42.5662667" lon="2.9032217"><ele>46.0</ele><time>2026-04-08T17:07:05.919Z</time></trkpt><trkpt lat="42.5662533" lon="2.90331"><ele>46.0</ele><time>2026-04-08T17:07:06.919Z</time></trkpt><trkpt lat="42.5662283" lon="2.9033933"><ele>46.0</ele><time>2026-04-08T17:07:07.919Z</time></trkpt><trkpt lat="42.5662067" lon="2.903485"><ele>46.0</ele><time>2026-04-08T17:07:08.919Z</time></trkpt><trkpt lat="42.5661933" lon="2.9036283"><ele>46.0</ele><time>2026-04-08T17:07:10.919Z</time></trkpt><trkpt lat="42.5662" lon="2.9037733"><ele>46.0</ele><time>2026-04-08T17:07:12.919Z</time></trkpt><trkpt lat="42.5662867" lon="2.9038867"><ele>45.85714285714286</ele><time>2026-04-08T17:07:14.918Z</time></trkpt><trkpt lat="42.5663467" lon="2.903925"><ele>45.71428571428571</ele><time>2026-04-08T17:07:15.919Z</time></trkpt><trkpt lat="42.5664033" lon="2.90398"><ele>45.57142857142857</ele><time>2026-04-08T17:07:16.918Z</time></trkpt><trkpt lat="42.5664483" lon="2.9040533"><ele>45.42857142857143</ele><time>2026-04-08T17:07:17.919Z</time></trkpt><trkpt lat="42.5664833" lon="2.9041417"><ele>45.28571428571429</ele><time>2026-04-08T17:07:18.918Z</time></trkpt><trkpt lat="42.5665267" lon="2.9042283"><ele>45.14285714285714</ele><time>2026-04-08T17:07:19.919Z</time></trkpt><trkpt lat="42.56657" lon="2.9043167"><ele>45.0</ele><time>2026-04-08T17:07:20.918Z</time></trkpt><trkpt lat="42.5666133" lon="2.9044117"><ele>44.166666666666664</ele><time>2026-04-08T17:07:21.918Z</time></trkpt><trkpt lat="42.566655" lon="2.9045167"><ele>43.333333333333336</ele><time>2026-04-08T17:07:22.919Z</time></trkpt><trkpt lat="42.5666917" lon="2.904625"><ele>42.5</ele><time>2026-04-08T17:07:23.919Z</time></trkpt><trkpt lat="42.5667317" lon="2.904725"><ele>41.66666666666667</ele><time>2026-04-08T17:07:24.919Z</time></trkpt><trkpt lat="42.5667733" lon="2.9048317"><ele>40.833333333333336</ele><time>2026-04-08T17:07:25.919Z</time></trkpt><trkpt lat="42.5668083" lon="2.9049317"><ele>40.0</ele><time>2026-04-08T17:07:26.919Z</time></trkpt><trkpt lat="42.5668267" lon="2.9050283"><ele>39.4</ele><time>2026-04-08T17:07:27.919Z</time></trkpt><trkpt lat="42.5668533" lon="2.905145"><ele>38.8</ele><time>2026-04-08T17:07:29.919Z</time></trkpt><trkpt lat="42.56689" lon="2.9052667"><ele>38.2</ele><time>2026-04-08T17:07:32.918Z</time></trkpt><trkpt lat="42.5669433" lon="2.9054133"><ele>37.6</ele><time>2026-04-08T17:07:34.919Z</time></trkpt><trkpt lat="42.5669767" lon="2.9055033"><ele>37.0</ele><time>2026-04-08T17:07:35.919Z</time></trkpt><trkpt lat="42.56701" lon="2.9055917"><ele>37.16666666666667</ele><time>2026-04-08T17:07:36.919Z</time></trkpt><trkpt lat="42.56705" lon="2.905675"><ele>37.333333333333336</ele><time>2026-04-08T17:07:37.918Z</time></trkpt><trkpt lat="42.567105" lon="2.9057517"><ele>37.5</ele><time>2026-04-08T17:07:38.919Z</time></trkpt><trkpt lat="42.5671733" lon="2.905825"><ele>37.666666666666664</ele><time>2026-04-08T17:07:39.919Z</time></trkpt><trkpt lat="42.5672517" lon="2.90588"><ele>37.83333333333333</ele><time>2026-04-08T17:07:40.918Z</time></trkpt><trkpt lat="42.56733" lon="2.9059367"><ele>38.0</ele><time>2026-04-08T17:07:41.919Z</time></trkpt><trkpt lat="42.5674167" lon="2.9059917"><ele>38.0</ele><time>2026-04-08T17:07:42.919Z</time></trkpt><trkpt lat="42.5675033" lon="2.9060517"><ele>38.0</ele><time>2026-04-08T17:07:43.919Z</time></trkpt><trkpt lat="42.5675867" lon="2.9061217"><ele>38.0</ele><time>2026-04-08T17:07:44.919Z</time></trkpt><trkpt lat="42.567675" lon="2.9061917"><ele>38.0</ele><time>2026-04-08T17:07:45.919Z</time></trkpt><trkpt lat="42.5677633" lon="2.90624"><ele>38.0</ele><time>2026-04-08T17:07:46.919Z</time></trkpt><trkpt lat="42.5678583" lon="2.9062733"><ele>38.0</ele><time>2026-04-08T17:07:47.918Z</time></trkpt><trkpt lat="42.5679533" lon="2.9063033"><ele>38.0</ele><time>2026-04-08T17:07:48.919Z</time></trkpt><trkpt lat="42.56804" lon="2.9063267"><ele>38.0</ele><time>2026-04-08T17:07:49.919Z</time></trkpt><trkpt lat="42.5681183" lon="2.9063517"><ele>38.0</ele><time>2026-04-08T17:07:50.919Z</time></trkpt><trkpt lat="42.5681967" lon="2.9063517"><ele>38.0</ele><time>2026-04-08T17:07:51.919Z</time></trkpt><trkpt lat="42.5682783" lon="2.9063517"><ele>38.0</ele><time>2026-04-08T17:07:52.919Z</time></trkpt><trkpt lat="42.5683683" lon="2.906355"><ele>38.0</ele><time>2026-04-08T17:07:53.919Z</time></trkpt><trkpt lat="42.5684733" lon="2.9063533"><ele>38.0</ele><time>2026-04-08T17:07:54.919Z</time></trkpt><trkpt lat="42.5685817" lon="2.9063617"><ele>38.0</ele><time>2026-04-08T17:07:55.919Z</time></trkpt><trkpt lat="42.56869" lon="2.9063817"><ele>38.0</ele><time>2026-04-08T17:07:56.919Z</time></trkpt><trkpt lat="42.5688017" lon="2.9064083"><ele>38.0</ele><time>2026-04-08T17:07:57.919Z</time></trkpt><trkpt lat="42.5689217" lon="2.9064533"><ele>37.25</ele><time>2026-04-08T17:07:58.918Z</time></trkpt><trkpt lat="42.5690367" lon="2.9065133"><ele>36.5</ele><time>2026-04-08T17:07:59.917Z</time></trkpt><trkpt lat="42.5691483" lon="2.90659"><ele>35.75</ele><time>2026-04-08T17:08:00.918Z</time></trkpt><trkpt lat="42.5692617" lon="2.9066733"><ele>35.0</ele><time>2026-04-08T17:08:01.918Z</time></trkpt><trkpt lat="42.56938" lon="2.9067617"><ele>35.0</ele><time>2026-04-08T17:08:02.918Z</time></trkpt><trkpt lat="42.56951" lon="2.906855"><ele>35.0</ele><time>2026-04-08T17:08:03.918Z</time></trkpt><trkpt lat="42.569655" lon="2.9069533"><ele>35.0</ele><time>2026-04-08T17:08:04.917Z</time></trkpt><trkpt lat="42.5698133" lon="2.9070567"><ele>35.0</ele><time>2026-04-08T17:08:05.918Z</time></trkpt><trkpt lat="42.5699767" lon="2.9071717"><ele>35.0</ele><time>2026-04-08T17:08:06.918Z</time></trkpt><trkpt lat="42.570145" lon="2.9072883"><ele>35.0</ele><time>2026-04-08T17:08:07.917Z</time></trkpt><trkpt lat="42.5703217" lon="2.9074117"><ele>34.666666666666664</ele><time>2026-04-08T17:08:08.917Z</time></trkpt><trkpt lat="42.5705033" lon="2.9075367"><ele>34.333333333333336</ele><time>2026-04-08T17:08:09.918Z</time></trkpt><trkpt lat="42.5706933" lon="2.9076683"><ele>34.0</ele><time>2026-04-08T17:08:10.918Z</time></trkpt><trkpt lat="42.57089" lon="2.90781"><ele>34.0</ele><time>2026-04-08T17:08:11.918Z</time></trkpt><trkpt lat="42.571085" lon="2.9079483"><ele>34.0</ele><time>2026-04-08T17:08:12.918Z</time></trkpt><trkpt lat="42.5712883" lon="2.9080983"><ele>34.0</ele><time>2026-04-08T17:08:13.918Z</time></trkpt><trkpt lat="42.5715083" lon="2.9082567"><ele>34.0</ele><time>2026-04-08T17:08:14.918Z</time></trkpt><trkpt lat="42.5717217" lon="2.9084067"><ele>33.5</ele><time>2026-04-08T17:08:15.917Z</time></trkpt><trkpt lat="42.5719317" lon="2.9085533"><ele>33.0</ele><time>2026-04-08T17:08:16.918Z</time></trkpt><trkpt lat="42.57214" lon="2.908705"><ele>34.0</ele><time>2026-04-08T17:08:17.918Z</time></trkpt><trkpt lat="42.5723417" lon="2.9088617"><ele>35.0</ele><time>2026-04-08T17:08:18.918Z</time></trkpt><trkpt lat="42.5725317" lon="2.9090233"><ele>35.0</ele><time>2026-04-08T17:08:19.918Z</time></trkpt><trkpt lat="42.572725" lon="2.909205"><ele>35.0</ele><time>2026-04-08T17:08:20.918Z</time></trkpt><trkpt lat="42.5729133" lon="2.90938"><ele>34.5</ele><time>2026-04-08T17:08:21.918Z</time></trkpt><trkpt lat="42.5730983" lon="2.909555"><ele>34.0</ele><time>2026-04-08T17:08:22.918Z</time></trkpt><trkpt lat="42.573295" lon="2.9097217"><ele>34.0</ele><time>2026-04-08T17:08:23.918Z</time></trkpt><trkpt lat="42.5734917" lon="2.90988"><ele>34.0</ele><time>2026-04-08T17:08:24.918Z</time></trkpt><trkpt lat="42.5736867" lon="2.9100333"><ele>33.66666666666667</ele><time>2026-04-08T17:08:25.918Z</time></trkpt><trkpt lat="42.5738817" lon="2.9101867"><ele>33.333333333333336</ele><time>2026-04-08T17:08:26.918Z</time></trkpt><trkpt lat="42.5740667" lon="2.9103383"><ele>33.0</ele><time>2026-04-08T17:08:27.918Z</time></trkpt><trkpt lat="42.5742417" lon="2.9104717"><ele>33.0</ele><time>2026-04-08T17:08:28.918Z</time></trkpt><trkpt lat="42.5744" lon="2.9105967"><ele>33.0</ele><time>2026-04-08T17:08:29.918Z</time></trkpt><trkpt lat="42.5745417" lon="2.91071"><ele>33.0</ele><time>2026-04-08T17:08:30.917Z</time></trkpt><trkpt lat="42.5746617" lon="2.910825"><ele>34.0</ele><time>2026-04-08T17:08:31.918Z</time></trkpt><trkpt lat="42.57476" lon="2.91094"><ele>35.0</ele><time>2026-04-08T17:08:32.917Z</time></trkpt><trkpt lat="42.574835" lon="2.9110717"><ele>36.0</ele><time>2026-04-08T17:08:33.918Z</time></trkpt><trkpt lat="42.5748767" lon="2.91124"><ele>37.0</ele><time>2026-04-08T17:08:34.917Z</time></trkpt><trkpt lat="42.5748983" lon="2.9114183"><ele>37.0</ele><time>2026-04-08T17:08:35.917Z</time></trkpt><trkpt lat="42.5749" lon="2.9116033"><ele>37.0</ele><time>2026-04-08T17:08:36.918Z</time></trkpt><trkpt lat="42.574905" lon="2.9117883"><ele>37.0</ele><time>2026-04-08T17:08:37.918Z</time></trkpt><trkpt lat="42.5749083" lon="2.9119717"><ele>37.0</ele><time>2026-04-08T17:08:38.918Z</time></trkpt><trkpt lat="42.5749383" lon="2.9121567"><ele>36.0</ele><time>2026-04-08T17:08:39.917Z</time></trkpt><trkpt lat="42.57499" lon="2.91234"><ele>35.0</ele><time>2026-04-08T17:08:40.918Z</time></trkpt><trkpt lat="42.575055" lon="2.9125183"><ele>34.0</ele><time>2026-04-08T17:08:41.917Z</time></trkpt><trkpt lat="42.5751267" lon="2.912695"><ele>33.0</ele><time>2026-04-08T17:08:42.917Z</time></trkpt><trkpt lat="42.5752117" lon="2.9128917"><ele>32.666666666666664</ele><time>2026-04-08T17:08:43.917Z</time></trkpt><trkpt lat="42.57531" lon="2.9131067"><ele>32.33333333333333</ele><time>2026-04-08T17:08:44.918Z</time></trkpt><trkpt lat="42.5754183" lon="2.913305"><ele>32.0</ele><time>2026-04-08T17:08:45.918Z</time></trkpt><trkpt lat="42.5755433" lon="2.9135017"><ele>33.0</ele><time>2026-04-08T17:08:46.918Z</time></trkpt><trkpt lat="42.5756633" lon="2.9136817"><ele>34.0</ele><time>2026-04-08T17:08:47.917Z</time></trkpt><trkpt lat="42.5757783" lon="2.913855"><ele>35.0</ele><time>2026-04-08T17:08:48.918Z</time></trkpt><trkpt lat="42.5758833" lon="2.9140133"><ele>35.0</ele><time>2026-04-08T17:08:49.918Z</time></trkpt><trkpt lat="42.575985" lon="2.9141383"><ele>35.0</ele><time>2026-04-08T17:08:50.918Z</time></trkpt><trkpt lat="42.5760817" lon="2.91422"><ele>35.0</ele><time>2026-04-08T17:08:51.918Z</time></trkpt><trkpt lat="42.5761933" lon="2.91426"><ele>35.0</ele><time>2026-04-08T17:08:52.918Z</time></trkpt><trkpt lat="42.576305" lon="2.9142467"><ele>36.5</ele><time>2026-04-08T17:08:53.918Z</time></trkpt><trkpt lat="42.5764033" lon="2.914175"><ele>38.0</ele><time>2026-04-08T17:08:54.918Z</time></trkpt><trkpt lat="42.5765" lon="2.9141"><ele>39.5</ele><time>2026-04-08T17:08:55.918Z</time></trkpt><trkpt lat="42.5766033" lon="2.914035"><ele>41.0</ele><time>2026-04-08T17:08:56.917Z</time></trkpt><trkpt lat="42.576725" lon="2.9140167"><ele>41.0</ele><time>2026-04-08T17:08:57.918Z</time></trkpt><trkpt lat="42.5768583" lon="2.9140417"><ele>41.0</ele><time>2026-04-08T17:08:58.918Z</time></trkpt><trkpt lat="42.5769933" lon="2.9140883"><ele>41.0</ele><time>2026-04-08T17:08:59.918Z</time></trkpt><trkpt lat="42.5771367" lon="2.9141367"><ele>41.0</ele><time>2026-04-08T17:09:00.918Z</time></trkpt><trkpt lat="42.57729" lon="2.9141717"><ele>42.666666666666664</ele><time>2026-04-08T17:09:01.918Z</time></trkpt><trkpt lat="42.5774467" lon="2.9142133"><ele>44.333333333333336</ele><time>2026-04-08T17:09:02.917Z</time></trkpt><trkpt lat="42.5776" lon="2.9142433"><ele>46.0</ele><time>2026-04-08T17:09:03.918Z</time></trkpt><trkpt lat="42.5777617" lon="2.914275"><ele>46.25</ele><time>2026-04-08T17:09:04.918Z</time></trkpt><trkpt lat="42.5779167" lon="2.9143133"><ele>46.5</ele><time>2026-04-08T17:09:05.918Z</time></trkpt><trkpt lat="42.5780633" lon="2.914345"><ele>46.75</ele><time>2026-04-08T17:09:06.917Z</time></trkpt><trkpt lat="42.578205" lon="2.914375"><ele>47.0</ele><time>2026-04-08T17:09:07.917Z</time></trkpt><trkpt lat="42.5783467" lon="2.9144117"><ele>47.0</ele><time>2026-04-08T17:09:08.918Z</time></trkpt><trkpt lat="42.578485" lon="2.9144483"><ele>47.0</ele><time>2026-04-08T17:09:09.918Z</time></trkpt><trkpt lat="42.5786167" lon="2.9144767"><ele>47.0</ele><time>2026-04-08T17:09:10.918Z</time></trkpt><trkpt lat="42.5787433" lon="2.914515"><ele>47.0</ele><time>2026-04-08T17:09:11.918Z</time></trkpt><trkpt lat="42.578865" lon="2.9145683"><ele>46.8</ele><time>2026-04-08T17:09:12.918Z</time></trkpt><trkpt lat="42.57898" lon="2.9146283"><ele>46.6</ele><time>2026-04-08T17:09:13.918Z</time></trkpt><trkpt lat="42.5790867" lon="2.9146867"><ele>46.4</ele><time>2026-04-08T17:09:14.918Z</time></trkpt><trkpt lat="42.579185" lon="2.9147583"><ele>46.199999999999996</ele><time>2026-04-08T17:09:15.918Z</time></trkpt><trkpt lat="42.5792617" lon="2.9148317"><ele>46.0</ele><time>2026-04-08T17:09:16.918Z</time></trkpt><trkpt lat="42.57931" lon="2.914905"><ele>46.0</ele><time>2026-04-08T17:09:17.918Z</time></trkpt><trkpt lat="42.5793633" lon="2.9150517"><ele>46.0</ele><time>2026-04-08T17:09:19.917Z</time></trkpt><trkpt lat="42.5793683" lon="2.9151383"><ele>46.0</ele><time>2026-04-08T17:09:20.917Z</time></trkpt><trkpt lat="42.5793817" lon="2.9152267"><ele>46.0</ele><time>2026-04-08T17:09:21.918Z</time></trkpt><trkpt lat="42.579475" lon="2.9153183"><ele>46.0</ele><time>2026-04-08T17:09:23.918Z</time></trkpt><trkpt lat="42.5795833" lon="2.9152483"><ele>46.333333333333336</ele><time>2026-04-08T17:09:25.918Z</time></trkpt><trkpt lat="42.5796467" lon="2.9152083"><ele>46.66666666666667</ele><time>2026-04-08T17:09:26.918Z</time></trkpt><trkpt lat="42.5797117" lon="2.9152"><ele>47.0</ele><time>2026-04-08T17:09:27.918Z</time></trkpt><trkpt lat="42.5797767" lon="2.9152233"><ele>47.333333333333336</ele><time>2026-04-08T17:09:28.917Z</time></trkpt><trkpt lat="42.5798417" lon="2.915265"><ele>47.666666666666664</ele><time>2026-04-08T17:09:29.918Z</time></trkpt><trkpt lat="42.579925" lon="2.9152983"><ele>48.0</ele><time>2026-04-08T17:09:30.917Z</time></trkpt><trkpt lat="42.5800167" lon="2.9153083"><ele>48.0</ele><time>2026-04-08T17:09:31.918Z</time></trkpt><trkpt lat="42.5800917" lon="2.9153"><ele>48.0</ele><time>2026-04-08T17:09:32.917Z</time></trkpt><trkpt lat="42.5801667" lon="2.9152883"><ele>48.0</ele><time>2026-04-08T17:09:33.918Z</time></trkpt><trkpt lat="42.580245" lon="2.9152967"><ele>48.0</ele><time>2026-04-08T17:09:34.918Z</time></trkpt><trkpt lat="42.5803233" lon="2.915335"><ele>48.0</ele><time>2026-04-08T17:09:35.918Z</time></trkpt><trkpt lat="42.58039" lon="2.915415"><ele>48.0</ele><time>2026-04-08T17:09:36.918Z</time></trkpt><trkpt lat="42.58046" lon="2.915505"><ele>48.2</ele><time>2026-04-08T17:09:37.917Z</time></trkpt><trkpt lat="42.58053" lon="2.91559"><ele>48.4</ele><time>2026-04-08T17:09:38.918Z</time></trkpt><trkpt lat="42.580615" lon="2.9156583"><ele>48.6</ele><time>2026-04-08T17:09:39.918Z</time></trkpt><trkpt lat="42.5807067" lon="2.91572"><ele>48.800000000000004</ele><time>2026-04-08T17:09:40.918Z</time></trkpt><trkpt lat="42.5808017" lon="2.9157783"><ele>49.0</ele><time>2026-04-08T17:09:41.918Z</time></trkpt><trkpt lat="42.580905" lon="2.9158383"><ele>49.0</ele><time>2026-04-08T17:09:42.918Z</time></trkpt><trkpt lat="42.581005" lon="2.915885"><ele>49.0</ele><time>2026-04-08T17:09:43.918Z</time></trkpt><trkpt lat="42.581115" lon="2.9159283"><ele>49.0</ele><time>2026-04-08T17:09:44.918Z</time></trkpt><trkpt lat="42.5812283" lon="2.9159617"><ele>49.0</ele><time>2026-04-08T17:09:45.918Z</time></trkpt><trkpt lat="42.5813467" lon="2.9159833"><ele>48.800000000000004</ele><time>2026-04-08T17:09:46.918Z</time></trkpt><trkpt lat="42.581465" lon="2.9159967"><ele>48.6</ele><time>2026-04-08T17:09:47.918Z</time></trkpt><trkpt lat="42.5815817" lon="2.9160083"><ele>48.4</ele><time>2026-04-08T17:09:48.917Z</time></trkpt><trkpt lat="42.58169" lon="2.916015"><ele>48.2</ele><time>2026-04-08T17:09:49.918Z</time></trkpt><trkpt lat="42.581795" lon="2.916015"><ele>48.0</ele><time>2026-04-08T17:09:50.918Z</time></trkpt><trkpt lat="42.5818983" lon="2.916015"><ele>48.0</ele><time>2026-04-08T17:09:51.918Z</time></trkpt><trkpt lat="42.5819967" lon="2.9160233"><ele>48.0</ele><time>2026-04-08T17:09:52.917Z</time></trkpt><trkpt lat="42.5821017" lon="2.9160333"><ele>48.0</ele><time>2026-04-08T17:09:53.918Z</time></trkpt><trkpt lat="42.5822133" lon="2.9160583"><ele>48.0</ele><time>2026-04-08T17:09:54.917Z</time></trkpt><trkpt lat="42.5823233" lon="2.916105"><ele>48.0</ele><time>2026-04-08T17:09:55.918Z</time></trkpt><trkpt lat="42.5824383" lon="2.9161567"><ele>48.0</ele><time>2026-04-08T17:09:56.918Z</time></trkpt><trkpt lat="42.582555" lon="2.916215"><ele>48.0</ele><time>2026-04-08T17:09:57.918Z</time></trkpt><trkpt lat="42.582675" lon="2.91627"><ele>48.0</ele><time>2026-04-08T17:09:58.918Z</time></trkpt><trkpt lat="42.5828" lon="2.91633"><ele>48.0</ele><time>2026-04-08T17:09:59.918Z</time></trkpt><trkpt lat="42.582925" lon="2.916385"><ele>48.5</ele><time>2026-04-08T17:10:00.917Z</time></trkpt><trkpt lat="42.5830517" lon="2.9164417"><ele>49.0</ele><time>2026-04-08T17:10:01.917Z</time></trkpt><trkpt lat="42.5831817" lon="2.9164983"><ele>49.5</ele><time>2026-04-08T17:10:02.918Z</time></trkpt><trkpt lat="42.5833217" lon="2.9165517"><ele>50.0</ele><time>2026-04-08T17:10:03.917Z</time></trkpt><trkpt lat="42.583465" lon="2.9166117"><ele>50.0</ele><time>2026-04-08T17:10:04.918Z</time></trkpt><trkpt lat="42.5836067" lon="2.9166733"><ele>50.0</ele><time>2026-04-08T17:10:05.918Z</time></trkpt><trkpt lat="42.5837467" lon="2.9167383"><ele>50.0</ele><time>2026-04-08T17:10:06.918Z</time></trkpt><trkpt lat="42.583885" lon="2.9168083"><ele>50.0</ele><time>2026-04-08T17:10:07.918Z</time></trkpt><trkpt lat="42.5840217" lon="2.9168867"><ele>51.333333333333336</ele><time>2026-04-08T17:10:08.918Z</time></trkpt><trkpt lat="42.5841583" lon="2.9169733"><ele>52.66666666666667</ele><time>2026-04-08T17:10:09.918Z</time></trkpt><trkpt lat="42.5842967" lon="2.9170717"><ele>54.0</ele><time>2026-04-08T17:10:10.918Z</time></trkpt><trkpt lat="42.5844283" lon="2.917175"><ele>55.0</ele><time>2026-04-08T17:10:11.918Z</time></trkpt><trkpt lat="42.5845633" lon="2.9172817"><ele>56.0</ele><time>2026-04-08T17:10:12.917Z</time></trkpt><trkpt lat="42.5846983" lon="2.91739"><ele>57.0</ele><time>2026-04-08T17:10:13.918Z</time></trkpt><trkpt lat="42.584835" lon="2.9175017"><ele>56.66666666666667</ele><time>2026-04-08T17:10:14.917Z</time></trkpt><trkpt lat="42.5849717" lon="2.917605"><ele>56.333333333333336</ele><time>2026-04-08T17:10:15.918Z</time></trkpt><trkpt lat="42.5851183" lon="2.9177133"><ele>56.0</ele><time>2026-04-08T17:10:16.917Z</time></trkpt><trkpt lat="42.58527" lon="2.917825"><ele>55.333333333333336</ele><time>2026-04-08T17:10:17.917Z</time></trkpt><trkpt lat="42.5854217" lon="2.9179383"><ele>54.66666666666667</ele><time>2026-04-08T17:10:18.918Z</time></trkpt><trkpt lat="42.5855733" lon="2.91806"><ele>54.0</ele><time>2026-04-08T17:10:19.918Z</time></trkpt><trkpt lat="42.585725" lon="2.918175"><ele>54.0</ele><time>2026-04-08T17:10:20.917Z</time></trkpt><trkpt lat="42.5858717" lon="2.9182933"><ele>54.0</ele><time>2026-04-08T17:10:21.918Z</time></trkpt><trkpt lat="42.5860117" lon="2.91842"><ele>54.0</ele><time>2026-04-08T17:10:22.917Z</time></trkpt><trkpt lat="42.5861433" lon="2.918555"><ele>53.66666666666667</ele><time>2026-04-08T17:10:23.918Z</time></trkpt><trkpt lat="42.5862667" lon="2.9186967"><ele>53.333333333333336</ele><time>2026-04-08T17:10:24.918Z</time></trkpt><trkpt lat="42.5863833" lon="2.9188433"><ele>53.0</ele><time>2026-04-08T17:10:25.918Z</time></trkpt><trkpt lat="42.5865" lon="2.9189817"><ele>53.0</ele><time>2026-04-08T17:10:26.918Z</time></trkpt><trkpt lat="42.586615" lon="2.9191217"><ele>53.0</ele><time>2026-04-08T17:10:27.918Z</time></trkpt><trkpt lat="42.5867333" lon="2.9192483"><ele>53.0</ele><time>2026-04-08T17:10:28.918Z</time></trkpt><trkpt lat="42.5868567" lon="2.91935"><ele>53.0</ele><time>2026-04-08T17:10:29.918Z</time></trkpt><trkpt lat="42.5869933" lon="2.9194133"><ele>52.333333333333336</ele><time>2026-04-08T17:10:30.918Z</time></trkpt><trkpt lat="42.5871417" lon="2.9194283"><ele>51.66666666666667</ele><time>2026-04-08T17:10:31.918Z</time></trkpt><trkpt lat="42.587295" lon="2.9193933"><ele>51.0</ele><time>2026-04-08T17:10:32.918Z</time></trkpt><trkpt lat="42.5874467" lon="2.9193267"><ele>51.0</ele><time>2026-04-08T17:10:33.918Z</time></trkpt><trkpt lat="42.5876017" lon="2.919245"><ele>51.0</ele><time>2026-04-08T17:10:34.918Z</time></trkpt><trkpt lat="42.587765" lon="2.919155"><ele>51.0</ele><time>2026-04-08T17:10:35.918Z</time></trkpt><trkpt lat="42.58793" lon="2.91906"><ele>49.666666666666664</ele><time>2026-04-08T17:10:36.917Z</time></trkpt><trkpt lat="42.5881033" lon="2.9189633"><ele>48.33333333333333</ele><time>2026-04-08T17:10:37.917Z</time></trkpt><trkpt lat="42.58828" lon="2.9188667"><ele>47.0</ele><time>2026-04-08T17:10:38.918Z</time></trkpt><trkpt lat="42.5884517" lon="2.9187733"><ele>47.0</ele><time>2026-04-08T17:10:39.917Z</time></trkpt><trkpt lat="42.5886283" lon="2.91868"><ele>47.0</ele><time>2026-04-08T17:10:40.918Z</time></trkpt><trkpt lat="42.588795" lon="2.9186"><ele>47.0</ele><time>2026-04-08T17:10:41.918Z</time></trkpt><trkpt lat="42.5889483" lon="2.918535"><ele>46.5</ele><time>2026-04-08T17:10:42.918Z</time></trkpt><trkpt lat="42.5890867" lon="2.9184817"><ele>46.0</ele><time>2026-04-08T17:10:43.918Z</time></trkpt><trkpt lat="42.5892183" lon="2.918435"><ele>45.5</ele><time>2026-04-08T17:10:44.918Z</time></trkpt><trkpt lat="42.5893533" lon="2.9183967"><ele>45.0</ele><time>2026-04-08T17:10:45.918Z</time></trkpt><trkpt lat="42.5895033" lon="2.91837"><ele>44.0</ele><time>2026-04-08T17:10:46.918Z</time></trkpt><trkpt lat="42.5896633" lon="2.9183667"><ele>43.0</ele><time>2026-04-08T17:10:47.918Z</time></trkpt><trkpt lat="42.58983" lon="2.9183667"><ele>42.0</ele><time>2026-04-08T17:10:48.918Z</time></trkpt><trkpt lat="42.58999" lon="2.918375"><ele>42.0</ele><time>2026-04-08T17:10:49.917Z</time></trkpt><trkpt lat="42.59015" lon="2.9183883"><ele>42.0</ele><time>2026-04-08T17:10:50.918Z</time></trkpt><trkpt lat="42.5903067" lon="2.9184133"><ele>42.0</ele><time>2026-04-08T17:10:51.918Z</time></trkpt><trkpt lat="42.590465" lon="2.918445"><ele>43.0</ele><time>2026-04-08T17:10:52.917Z</time></trkpt><trkpt lat="42.5906267" lon="2.9184883"><ele>44.0</ele><time>2026-04-08T17:10:53.918Z</time></trkpt><trkpt lat="42.590795" lon="2.91855"><ele>45.0</ele><time>2026-04-08T17:10:54.918Z</time></trkpt><trkpt lat="42.5909683" lon="2.9186117"><ele>45.0</ele><time>2026-04-08T17:10:55.918Z</time></trkpt><trkpt lat="42.5911533" lon="2.9186767"><ele>45.0</ele><time>2026-04-08T17:10:56.918Z</time></trkpt><trkpt lat="42.5913367" lon="2.9187433"><ele>45.0</ele><time>2026-04-08T17:10:57.918Z</time></trkpt><trkpt lat="42.591525" lon="2.9188117"><ele>43.666666666666664</ele><time>2026-04-08T17:10:58.918Z</time></trkpt><trkpt lat="42.5917133" lon="2.9188867"><ele>42.33333333333333</ele><time>2026-04-08T17:10:59.918Z</time></trkpt><trkpt lat="42.5919017" lon="2.918965"><ele>41.0</ele><time>2026-04-08T17:11:00.917Z</time></trkpt><trkpt lat="42.5920933" lon="2.9190383"><ele>40.666666666666664</ele><time>2026-04-08T17:11:01.917Z</time></trkpt><trkpt lat="42.5922883" lon="2.9191083"><ele>40.333333333333336</ele><time>2026-04-08T17:11:02.918Z</time></trkpt><trkpt lat="42.59248" lon="2.91918"><ele>40.0</ele><time>2026-04-08T17:11:03.917Z</time></trkpt><trkpt lat="42.5926733" lon="2.9192517"><ele>38.333333333333336</ele><time>2026-04-08T17:11:04.918Z</time></trkpt><trkpt lat="42.5928667" lon="2.9193233"><ele>36.666666666666664</ele><time>2026-04-08T17:11:05.917Z</time></trkpt><trkpt lat="42.5930667" lon="2.9193933"><ele>35.0</ele><time>2026-04-08T17:11:06.918Z</time></trkpt><trkpt lat="42.5932633" lon="2.919465"><ele>35.0</ele><time>2026-04-08T17:11:07.917Z</time></trkpt><trkpt lat="42.5934617" lon="2.9195367"><ele>35.0</ele><time>2026-04-08T17:11:08.918Z</time></trkpt><trkpt lat="42.5936567" lon="2.919615"><ele>35.0</ele><time>2026-04-08T17:11:09.918Z</time></trkpt><trkpt lat="42.593855" lon="2.9196933"><ele>33.33333333333333</ele><time>2026-04-08T17:11:10.918Z</time></trkpt><trkpt lat="42.5940567" lon="2.9197667"><ele>31.666666666666664</ele><time>2026-04-08T17:11:11.918Z</time></trkpt><trkpt lat="42.5942583" lon="2.91985"><ele>30.0</ele><time>2026-04-08T17:11:12.918Z</time></trkpt><trkpt lat="42.5944583" lon="2.9199333"><ele>29.666666666666664</ele><time>2026-04-08T17:11:13.917Z</time></trkpt><trkpt lat="42.5946533" lon="2.9200083"><ele>29.333333333333332</ele><time>2026-04-08T17:11:14.917Z</time></trkpt><trkpt lat="42.5948433" lon="2.9200883"><ele>29.0</ele><time>2026-04-08T17:11:15.918Z</time></trkpt><trkpt lat="42.5950317" lon="2.92016"><ele>29.0</ele><time>2026-04-08T17:11:16.918Z</time></trkpt><trkpt lat="42.5952283" lon="2.9202117"><ele>29.0</ele><time>2026-04-08T17:11:17.918Z</time></trkpt><trkpt lat="42.5954317" lon="2.920245"><ele>29.0</ele><time>2026-04-08T17:11:18.918Z</time></trkpt><trkpt lat="42.5956367" lon="2.920255"><ele>28.0</ele><time>2026-04-08T17:11:19.917Z</time></trkpt><trkpt lat="42.5958417" lon="2.9202517"><ele>27.0</ele><time>2026-04-08T17:11:20.917Z</time></trkpt><trkpt lat="42.59605" lon="2.92025"><ele>26.0</ele><time>2026-04-08T17:11:21.918Z</time></trkpt><trkpt lat="42.59626" lon="2.9202467"><ele>26.0</ele><time>2026-04-08T17:11:22.918Z</time></trkpt><trkpt lat="42.5964683" lon="2.9202383"><ele>26.0</ele><time>2026-04-08T17:11:23.918Z</time></trkpt><trkpt lat="42.5966617" lon="2.9202367"><ele>26.0</ele><time>2026-04-08T17:11:24.918Z</time></trkpt><trkpt lat="42.59686" lon="2.920235"><ele>25.333333333333332</ele><time>2026-04-08T17:11:25.918Z</time></trkpt><trkpt lat="42.5970717" lon="2.920235"><ele>24.666666666666664</ele><time>2026-04-08T17:11:26.917Z</time></trkpt><trkpt lat="42.5972983" lon="2.9202383"><ele>24.0</ele><time>2026-04-08T17:11:27.918Z</time></trkpt><trkpt lat="42.597525" lon="2.92024"><ele>24.0</ele><time>2026-04-08T17:11:28.918Z</time></trkpt><trkpt lat="42.5977467" lon="2.9202417"><ele>24.0</ele><time>2026-04-08T17:11:29.918Z</time></trkpt><trkpt lat="42.5979667" lon="2.9202467"><ele>24.0</ele><time>2026-04-08T17:11:30.918Z</time></trkpt><trkpt lat="42.5981683" lon="2.9202517"><ele>23.333333333333332</ele><time>2026-04-08T17:11:31.918Z</time></trkpt><trkpt lat="42.5983583" lon="2.9202717"><ele>22.666666666666664</ele><time>2026-04-08T17:11:32.918Z</time></trkpt><trkpt lat="42.59855" lon="2.9203283"><ele>22.0</ele><time>2026-04-08T17:11:33.918Z</time></trkpt><trkpt lat="42.598745" lon="2.9204117"><ele>22.0</ele><time>2026-04-08T17:11:34.918Z</time></trkpt><trkpt lat="42.5989517" lon="2.9205033"><ele>22.0</ele><time>2026-04-08T17:11:35.918Z</time></trkpt><trkpt lat="42.599165" lon="2.9206083"><ele>22.0</ele><time>2026-04-08T17:11:36.918Z</time></trkpt><trkpt lat="42.59938" lon="2.920715"><ele>20.5</ele><time>2026-04-08T17:11:37.918Z</time></trkpt><trkpt lat="42.5996033" lon="2.9208233"><ele>19.0</ele><time>2026-04-08T17:11:38.918Z</time></trkpt><trkpt lat="42.5998183" lon="2.92094"><ele>19.0</ele><time>2026-04-08T17:11:39.918Z</time></trkpt><trkpt lat="42.6000317" lon="2.921055"><ele>19.0</ele><time>2026-04-08T17:11:40.918Z</time></trkpt><trkpt lat="42.6002417" lon="2.92116"><ele>19.5</ele><time>2026-04-08T17:11:41.918Z</time></trkpt><trkpt lat="42.6004583" lon="2.9212733"><ele>20.0</ele><time>2026-04-08T17:11:42.918Z</time></trkpt><trkpt lat="42.60067" lon="2.9213883"><ele>20.0</ele><time>2026-04-08T17:11:43.918Z</time></trkpt><trkpt lat="42.600875" lon="2.9214983"><ele>20.0</ele><time>2026-04-08T17:11:44.918Z</time></trkpt><trkpt lat="42.6010817" lon="2.921615"><ele>20.0</ele><time>2026-04-08T17:11:45.918Z</time></trkpt><trkpt lat="42.6012783" lon="2.9217317"><ele>19.333333333333336</ele><time>2026-04-08T17:11:46.918Z</time></trkpt><trkpt lat="42.6014733" lon="2.9218433"><ele>18.666666666666668</ele><time>2026-04-08T17:11:47.918Z</time></trkpt><trkpt lat="42.6016667" lon="2.9219483"><ele>18.0</ele><time>2026-04-08T17:11:48.918Z</time></trkpt><trkpt lat="42.6018617" lon="2.9220533"><ele>17.666666666666668</ele><time>2026-04-08T17:11:49.917Z</time></trkpt><trkpt lat="42.6020617" lon="2.9221633"><ele>17.333333333333336</ele><time>2026-04-08T17:11:50.918Z</time></trkpt><trkpt lat="42.6022617" lon="2.922275"><ele>17.0</ele><time>2026-04-08T17:11:51.918Z</time></trkpt><trkpt lat="42.6024583" lon="2.9223883"><ele>17.0</ele><time>2026-04-08T17:11:52.918Z</time></trkpt><trkpt lat="42.6026667" lon="2.9224867"><ele>17.0</ele><time>2026-04-08T17:11:53.918Z</time></trkpt><trkpt lat="42.602875" lon="2.9225767"><ele>17.0</ele><time>2026-04-08T17:11:54.918Z</time></trkpt><trkpt lat="42.6030867" lon="2.9226567"><ele>17.0</ele><time>2026-04-08T17:11:55.918Z</time></trkpt><trkpt lat="42.6033033" lon="2.922735"><ele>17.0</ele><time>2026-04-08T17:11:56.918Z</time></trkpt><trkpt lat="42.6035117" lon="2.922815"><ele>17.0</ele><time>2026-04-08T17:11:57.917Z</time></trkpt><trkpt lat="42.6037167" lon="2.92289"><ele>17.0</ele><time>2026-04-08T17:11:58.918Z</time></trkpt><trkpt lat="42.6039183" lon="2.9229633"><ele>17.0</ele><time>2026-04-08T17:11:59.918Z</time></trkpt><trkpt lat="42.6041183" lon="2.9230333"><ele>17.0</ele><time>2026-04-08T17:12:00.918Z</time></trkpt><trkpt lat="42.6043167" lon="2.9231083"><ele>16.666666666666668</ele><time>2026-04-08T17:12:01.918Z</time></trkpt><trkpt lat="42.604505" lon="2.923175"><ele>16.333333333333332</ele><time>2026-04-08T17:12:02.918Z</time></trkpt><trkpt lat="42.6046917" lon="2.9232467"><ele>16.0</ele><time>2026-04-08T17:12:03.918Z</time></trkpt><trkpt lat="42.60487" lon="2.9233167"><ele>16.0</ele><time>2026-04-08T17:12:04.918Z</time></trkpt><trkpt lat="42.6050517" lon="2.9233883"><ele>16.0</ele><time>2026-04-08T17:12:05.918Z</time></trkpt><trkpt lat="42.6052367" lon="2.9234567"><ele>16.0</ele><time>2026-04-08T17:12:06.918Z</time></trkpt><trkpt lat="42.605425" lon="2.923525"><ele>15.666666666666666</ele><time>2026-04-08T17:12:07.917Z</time></trkpt><trkpt lat="42.6056083" lon="2.92359"><ele>15.333333333333332</ele><time>2026-04-08T17:12:08.917Z</time></trkpt><trkpt lat="42.6057917" lon="2.92365"><ele>15.0</ele><time>2026-04-08T17:12:09.917Z</time></trkpt><trkpt lat="42.60597" lon="2.92371"><ele>15.0</ele><time>2026-04-08T17:12:10.918Z</time></trkpt><trkpt lat="42.6061467" lon="2.92377"><ele>15.0</ele><time>2026-04-08T17:12:11.918Z</time></trkpt><trkpt lat="42.6063283" lon="2.923845"><ele>15.0</ele><time>2026-04-08T17:12:12.917Z</time></trkpt><trkpt lat="42.606505" lon="2.9239117"><ele>15.0</ele><time>2026-04-08T17:12:13.918Z</time></trkpt><trkpt lat="42.6066633" lon="2.9239717"><ele>15.0</ele><time>2026-04-08T17:12:14.917Z</time></trkpt><trkpt lat="42.6068033" lon="2.9240383"><ele>15.0</ele><time>2026-04-08T17:12:15.918Z</time></trkpt><trkpt lat="42.606935" lon="2.92411"><ele>15.0</ele><time>2026-04-08T17:12:16.917Z</time></trkpt><trkpt lat="42.6070583" lon="2.924165"><ele>15.0</ele><time>2026-04-08T17:12:17.917Z</time></trkpt><trkpt lat="42.60716" lon="2.9242117"><ele>15.0</ele><time>2026-04-08T17:12:18.918Z</time></trkpt><trkpt lat="42.607245" lon="2.9242533"><ele>15.0</ele><time>2026-04-08T17:12:19.917Z</time></trkpt><trkpt lat="42.6073183" lon="2.92431"><ele>15.0</ele><time>2026-04-08T17:12:20.918Z</time></trkpt><trkpt lat="42.607375" lon="2.9243767"><ele>15.166666666666666</ele><time>2026-04-08T17:12:21.917Z</time></trkpt><trkpt lat="42.6074383" lon="2.9244283"><ele>15.333333333333332</ele><time>2026-04-08T17:12:22.918Z</time></trkpt><trkpt lat="42.6075083" lon="2.9244533"><ele>15.5</ele><time>2026-04-08T17:12:23.918Z</time></trkpt><trkpt lat="42.60759" lon="2.924445"><ele>15.666666666666666</ele><time>2026-04-08T17:12:24.918Z</time></trkpt><trkpt lat="42.6076733" lon="2.9244433"><ele>15.833333333333332</ele><time>2026-04-08T17:12:25.918Z</time></trkpt><trkpt lat="42.607755" lon="2.9244467"><ele>16.0</ele><time>2026-04-08T17:12:26.918Z</time></trkpt><trkpt lat="42.6078367" lon="2.9244633"><ele>16.2</ele><time>2026-04-08T17:12:27.917Z</time></trkpt><trkpt lat="42.6079167" lon="2.924495"><ele>16.400000000000002</ele><time>2026-04-08T17:12:28.918Z</time></trkpt><trkpt lat="42.60801" lon="2.9245367"><ele>16.6</ele><time>2026-04-08T17:12:29.918Z</time></trkpt><trkpt lat="42.6081167" lon="2.9245833"><ele>16.8</ele><time>2026-04-08T17:12:30.917Z</time></trkpt><trkpt lat="42.60824" lon="2.9246333"><ele>17.0</ele><time>2026-04-08T17:12:31.918Z</time></trkpt><trkpt lat="42.6085083" lon="2.9247233"><ele>17.0</ele><time>2026-04-08T17:12:33.918Z</time></trkpt><trkpt lat="42.6086567" lon="2.9247767"><ele>17.0</ele><time>2026-04-08T17:12:34.918Z</time></trkpt><trkpt lat="42.6088183" lon="2.9248367"><ele>17.0</ele><time>2026-04-08T17:12:35.918Z</time></trkpt><trkpt lat="42.60898" lon="2.9249"><ele>19.0</ele><time>2026-04-08T17:12:36.918Z</time></trkpt><trkpt lat="42.6091533" lon="2.924965"><ele>21.0</ele><time>2026-04-08T17:12:37.918Z</time></trkpt><trkpt lat="42.609695" lon="2.9251883"><ele>21.333333333333332</ele><time>2026-04-08T17:12:40.918Z</time></trkpt><trkpt lat="42.6098733" lon="2.92527"><ele>21.666666666666664</ele><time>2026-04-08T17:12:41.918Z</time></trkpt><trkpt lat="42.6100483" lon="2.92535"><ele>22.0</ele><time>2026-04-08T17:12:42.918Z</time></trkpt><trkpt lat="42.610225" lon="2.9254267"><ele>18.0</ele><time>2026-04-08T17:12:43.918Z</time></trkpt><trkpt lat="42.6107567" lon="2.9256683"><ele>18.0</ele><time>2026-04-08T17:12:46.918Z</time></trkpt><trkpt lat="42.6109367" lon="2.9257433"><ele>18.0</ele><time>2026-04-08T17:12:47.918Z</time></trkpt><trkpt lat="42.6111167" lon="2.9258167"><ele>18.0</ele><time>2026-04-08T17:12:48.918Z</time></trkpt><trkpt lat="42.6112883" lon="2.9258783"><ele>11.0</ele><time>2026-04-08T17:12:49.918Z</time></trkpt><trkpt lat="42.6117483" lon="2.9259917"><ele>11.0</ele><time>2026-04-08T17:12:52.918Z</time></trkpt><trkpt lat="42.611875" lon="2.9260083"><ele>11.0</ele><time>2026-04-08T17:12:53.918Z</time></trkpt><trkpt lat="42.6119833" lon="2.9260283"><ele>11.0</ele><time>2026-04-08T17:12:54.918Z</time></trkpt><trkpt lat="42.6120883" lon="2.9260417"><ele>11.0</ele><time>2026-04-08T17:12:55.917Z</time></trkpt><trkpt lat="42.6121917" lon="2.9260217"><ele>11.0</ele><time>2026-04-08T17:12:56.918Z</time></trkpt><trkpt lat="42.6122917" lon="2.9259617"><ele>11.5</ele><time>2026-04-08T17:12:57.918Z</time></trkpt><trkpt lat="42.6123967" lon="2.9258917"><ele>12.0</ele><time>2026-04-08T17:12:58.918Z</time></trkpt><trkpt lat="42.6125167" lon="2.9258217"><ele>12.5</ele><time>2026-04-08T17:12:59.917Z</time></trkpt><trkpt lat="42.6126483" lon="2.92575"><ele>13.0</ele><time>2026-04-08T17:13:00.918Z</time></trkpt><trkpt lat="42.6127917" lon="2.925675"><ele>13.666666666666666</ele><time>2026-04-08T17:13:01.918Z</time></trkpt><trkpt lat="42.6129433" lon="2.9255917"><ele>14.333333333333332</ele><time>2026-04-08T17:13:02.918Z</time></trkpt><trkpt lat="42.6131" lon="2.925505"><ele>15.0</ele><time>2026-04-08T17:13:03.917Z</time></trkpt><trkpt lat="42.6132617" lon="2.92542"><ele>15.0</ele><time>2026-04-08T17:13:04.918Z</time></trkpt><trkpt lat="42.6134267" lon="2.9253367"><ele>15.0</ele><time>2026-04-08T17:13:05.918Z</time></trkpt><trkpt lat="42.613595" lon="2.925255"><ele>15.0</ele><time>2026-04-08T17:13:06.917Z</time></trkpt><trkpt lat="42.6137717" lon="2.925165"><ele>15.333333333333332</ele><time>2026-04-08T17:13:07.917Z</time></trkpt><trkpt lat="42.6139467" lon="2.9250733"><ele>15.666666666666666</ele><time>2026-04-08T17:13:08.918Z</time></trkpt><trkpt lat="42.6141317" lon="2.924975"><ele>16.0</ele><time>2026-04-08T17:13:09.919Z</time></trkpt><trkpt lat="42.6143167" lon="2.9248767"><ele>17.0</ele><time>2026-04-08T17:13:10.918Z</time></trkpt><trkpt lat="42.6144967" lon="2.9247733"><ele>18.0</ele><time>2026-04-08T17:13:11.919Z</time></trkpt><trkpt lat="42.6146767" lon="2.9246767"><ele>19.0</ele><time>2026-04-08T17:13:12.918Z</time></trkpt><trkpt lat="42.6148567" lon="2.92458"><ele>19.0</ele><time>2026-04-08T17:13:13.919Z</time></trkpt><trkpt lat="42.6150417" lon="2.9244867"><ele>19.0</ele><time>2026-04-08T17:13:14.919Z</time></trkpt><trkpt lat="42.6152267" lon="2.9243967"><ele>19.0</ele><time>2026-04-08T17:13:15.919Z</time></trkpt><trkpt lat="42.6154133" lon="2.9242967"><ele>17.666666666666664</ele><time>2026-04-08T17:13:16.919Z</time></trkpt><trkpt lat="42.6156" lon="2.9241967"><ele>16.333333333333332</ele><time>2026-04-08T17:13:17.919Z</time></trkpt><trkpt lat="42.6157883" lon="2.9240917"><ele>15.0</ele><time>2026-04-08T17:13:18.918Z</time></trkpt><trkpt lat="42.6159817" lon="2.9239883"><ele>13.666666666666666</ele><time>2026-04-08T17:13:19.918Z</time></trkpt><trkpt lat="42.6161767" lon="2.9238883"><ele>12.333333333333332</ele><time>2026-04-08T17:13:20.919Z</time></trkpt><trkpt lat="42.6163717" lon="2.9237867"><ele>11.0</ele><time>2026-04-08T17:13:21.919Z</time></trkpt><trkpt lat="42.6165717" lon="2.9236733"><ele>11.0</ele><time>2026-04-08T17:13:22.919Z</time></trkpt><trkpt lat="42.616775" lon="2.92356"><ele>11.0</ele><time>2026-04-08T17:13:23.919Z</time></trkpt><trkpt lat="42.6169767" lon="2.923455"><ele>11.0</ele><time>2026-04-08T17:13:24.919Z</time></trkpt><trkpt lat="42.6171767" lon="2.9233517"><ele>11.333333333333332</ele><time>2026-04-08T17:13:25.919Z</time></trkpt><trkpt lat="42.6173767" lon="2.9232467"><ele>11.666666666666666</ele><time>2026-04-08T17:13:26.918Z</time></trkpt><trkpt lat="42.6175783" lon="2.9231383"><ele>12.0</ele><time>2026-04-08T17:13:27.919Z</time></trkpt><trkpt lat="42.6177783" lon="2.9230283"><ele>11.666666666666666</ele><time>2026-04-08T17:13:28.919Z</time></trkpt><trkpt lat="42.6179817" lon="2.9229167"><ele>11.333333333333332</ele><time>2026-04-08T17:13:29.919Z</time></trkpt><trkpt lat="42.6181833" lon="2.9228067"><ele>11.0</ele><time>2026-04-08T17:13:30.919Z</time></trkpt><trkpt lat="42.6183867" lon="2.9226967"><ele>11.0</ele><time>2026-04-08T17:13:31.919Z</time></trkpt><trkpt lat="42.6185917" lon="2.922585"><ele>11.0</ele><time>2026-04-08T17:13:32.918Z</time></trkpt><trkpt lat="42.61879" lon="2.9224767"><ele>11.0</ele><time>2026-04-08T17:13:33.919Z</time></trkpt><trkpt lat="42.6189933" lon="2.9223683"><ele>12.0</ele><time>2026-04-08T17:13:34.919Z</time></trkpt><trkpt lat="42.6191917" lon="2.9222633"><ele>13.0</ele><time>2026-04-08T17:13:35.919Z</time></trkpt><trkpt lat="42.6193933" lon="2.9221633"><ele>14.0</ele><time>2026-04-08T17:13:36.919Z</time></trkpt><trkpt lat="42.6195917" lon="2.9220717"><ele>14.333333333333334</ele><time>2026-04-08T17:13:37.919Z</time></trkpt><trkpt lat="42.6197817" lon="2.9219967"><ele>14.666666666666668</ele><time>2026-04-08T17:13:38.919Z</time></trkpt><trkpt lat="42.6199767" lon="2.9219383"><ele>15.0</ele><time>2026-04-08T17:13:39.919Z</time></trkpt><trkpt lat="42.6201783" lon="2.921885"><ele>14.666666666666668</ele><time>2026-04-08T17:13:40.919Z</time></trkpt><trkpt lat="42.6203817" lon="2.9218333"><ele>14.333333333333334</ele><time>2026-04-08T17:13:41.919Z</time></trkpt><trkpt lat="42.620585" lon="2.9217767"><ele>14.0</ele><time>2026-04-08T17:13:42.919Z</time></trkpt><trkpt lat="42.6207917" lon="2.9217267"><ele>14.0</ele><time>2026-04-08T17:13:43.919Z</time></trkpt><trkpt lat="42.6209983" lon="2.9216783"><ele>14.0</ele><time>2026-04-08T17:13:44.919Z</time></trkpt><trkpt lat="42.6212067" lon="2.9216283"><ele>14.0</ele><time>2026-04-08T17:13:45.918Z</time></trkpt><trkpt lat="42.62141" lon="2.9215817"><ele>14.0</ele><time>2026-04-08T17:13:46.919Z</time></trkpt><trkpt lat="42.6216167" lon="2.9215367"><ele>14.0</ele><time>2026-04-08T17:13:47.919Z</time></trkpt><trkpt lat="42.621825" lon="2.921495"><ele>14.0</ele><time>2026-04-08T17:13:48.919Z</time></trkpt><trkpt lat="42.6220383" lon="2.92146"><ele>14.0</ele><time>2026-04-08T17:13:49.919Z</time></trkpt><trkpt lat="42.6222483" lon="2.9214283"><ele>14.0</ele><time>2026-04-08T17:13:50.919Z</time></trkpt><trkpt lat="42.622445" lon="2.9214033"><ele>14.0</ele><time>2026-04-08T17:13:51.918Z</time></trkpt><trkpt lat="42.622625" lon="2.921375"><ele>14.0</ele><time>2026-04-08T17:13:52.919Z</time></trkpt><trkpt lat="42.6227967" lon="2.9213467"><ele>14.0</ele><time>2026-04-08T17:13:53.919Z</time></trkpt><trkpt lat="42.62297" lon="2.9213233"><ele>14.0</ele><time>2026-04-08T17:13:54.918Z</time></trkpt><trkpt lat="42.623145" lon="2.9212983"><ele>14.333333333333334</ele><time>2026-04-08T17:13:55.919Z</time></trkpt><trkpt lat="42.6233183" lon="2.9212733"><ele>14.666666666666668</ele><time>2026-04-08T17:13:56.919Z</time></trkpt><trkpt lat="42.6234883" lon="2.9212483"><ele>15.0</ele><time>2026-04-08T17:13:57.919Z</time></trkpt><trkpt lat="42.6236633" lon="2.9212233"><ele>15.333333333333332</ele><time>2026-04-08T17:13:58.918Z</time></trkpt><trkpt lat="42.6238333" lon="2.9211967"><ele>15.666666666666666</ele><time>2026-04-08T17:13:59.919Z</time></trkpt><trkpt lat="42.623995" lon="2.9211733"><ele>16.0</ele><time>2026-04-08T17:14:00.919Z</time></trkpt><trkpt lat="42.624155" lon="2.92115"><ele>16.0</ele><time>2026-04-08T17:14:01.918Z</time></trkpt><trkpt lat="42.6243033" lon="2.92113"><ele>16.0</ele><time>2026-04-08T17:14:02.919Z</time></trkpt><trkpt lat="42.62444" lon="2.9211117"><ele>16.0</ele><time>2026-04-08T17:14:03.919Z</time></trkpt><trkpt lat="42.62456" lon="2.9210867"><ele>16.0</ele><time>2026-04-08T17:14:04.919Z</time></trkpt><trkpt lat="42.624665" lon="2.92105"><ele>15.999999999999998</ele><time>2026-04-08T17:14:05.919Z</time></trkpt><trkpt lat="42.6247533" lon="2.9210183"><ele>16.0</ele><time>2026-04-08T17:14:06.919Z</time></trkpt><trkpt lat="42.6248383" lon="2.9209883"><ele>16.0</ele><time>2026-04-08T17:14:07.919Z</time></trkpt><trkpt lat="42.62492" lon="2.9209683"><ele>16.0</ele><time>2026-04-08T17:14:08.919Z</time></trkpt><trkpt lat="42.62499" lon="2.920955"><ele>15.999999999999998</ele><time>2026-04-08T17:14:09.919Z</time></trkpt><trkpt lat="42.6250667" lon="2.92096"><ele>16.0</ele><time>2026-04-08T17:14:10.919Z</time></trkpt><trkpt lat="42.6251417" lon="2.9209917"><ele>16.0</ele><time>2026-04-08T17:14:11.919Z</time></trkpt><trkpt lat="42.625225" lon="2.9210117"><ele>16.0</ele><time>2026-04-08T17:14:12.919Z</time></trkpt><trkpt lat="42.6253183" lon="2.921015"><ele>16.0</ele><time>2026-04-08T17:14:13.918Z</time></trkpt><trkpt lat="42.6254183" lon="2.9210383"><ele>16.0</ele><time>2026-04-08T17:14:14.919Z</time></trkpt><trkpt lat="42.6255217" lon="2.9210917"><ele>16.0</ele><time>2026-04-08T17:14:15.919Z</time></trkpt><trkpt lat="42.625855" lon="2.9213117"><ele>15.25</ele><time>2026-04-08T17:14:18.918Z</time></trkpt><trkpt lat="42.6259933" lon="2.9213717"><ele>14.5</ele><time>2026-04-08T17:14:19.919Z</time></trkpt><trkpt lat="42.626135" lon="2.9214267"><ele>13.75</ele><time>2026-04-08T17:14:20.919Z</time></trkpt><trkpt lat="42.626285" lon="2.9214667"><ele>13.0</ele><time>2026-04-08T17:14:21.919Z</time></trkpt><trkpt lat="42.62644" lon="2.9215"><ele>12.0</ele><time>2026-04-08T17:14:22.919Z</time></trkpt><trkpt lat="42.6266067" lon="2.921505"><ele>11.0</ele><time>2026-04-08T17:14:23.919Z</time></trkpt><trkpt lat="42.6267783" lon="2.9214883"><ele>10.0</ele><time>2026-04-08T17:14:24.918Z</time></trkpt><trkpt lat="42.6269517" lon="2.9214633"><ele>10.333333333333334</ele><time>2026-04-08T17:14:25.919Z</time></trkpt><trkpt lat="42.6271283" lon="2.9214383"><ele>10.666666666666666</ele><time>2026-04-08T17:14:26.919Z</time></trkpt><trkpt lat="42.6273083" lon="2.9214133"><ele>11.0</ele><time>2026-04-08T17:14:27.919Z</time></trkpt><trkpt lat="42.6274767" lon="2.9213867"><ele>11.0</ele><time>2026-04-08T17:14:28.919Z</time></trkpt><trkpt lat="42.62765" lon="2.9213583"><ele>11.0</ele><time>2026-04-08T17:14:29.918Z</time></trkpt><trkpt lat="42.62782" lon="2.92133"><ele>11.0</ele><time>2026-04-08T17:14:30.919Z</time></trkpt><trkpt lat="42.627985" lon="2.9213"><ele>10.666666666666666</ele><time>2026-04-08T17:14:31.918Z</time></trkpt><trkpt lat="42.6281467" lon="2.92127"><ele>10.333333333333334</ele><time>2026-04-08T17:14:32.918Z</time></trkpt><trkpt lat="42.628305" lon="2.9212383"><ele>10.0</ele><time>2026-04-08T17:14:33.918Z</time></trkpt><trkpt lat="42.6287667" lon="2.9211667"><ele>10.0</ele><time>2026-04-08T17:14:36.919Z</time></trkpt><trkpt lat="42.6289117" lon="2.9211433"><ele>10.0</ele><time>2026-04-08T17:14:37.918Z</time></trkpt><trkpt lat="42.629055" lon="2.9211233"><ele>10.0</ele><time>2026-04-08T17:14:38.919Z</time></trkpt><trkpt lat="42.6291933" lon="2.9211"><ele>10.0</ele><time>2026-04-08T17:14:39.919Z</time></trkpt><trkpt lat="42.6294467" lon="2.9210483"><ele>10.2</ele><time>2026-04-08T17:14:41.918Z</time></trkpt><trkpt lat="42.6295583" lon="2.9210317"><ele>10.4</ele><time>2026-04-08T17:14:42.919Z</time></trkpt><trkpt lat="42.6296483" lon="2.9210217"><ele>10.600000000000001</ele><time>2026-04-08T17:14:43.919Z</time></trkpt><trkpt lat="42.6297133" lon="2.9210167"><ele>10.8</ele><time>2026-04-08T17:14:44.918Z</time></trkpt><trkpt lat="42.6298033" lon="2.9210383"><ele>11.0</ele><time>2026-04-08T17:14:46.919Z</time></trkpt><trkpt lat="42.62991" lon="2.9210767"><ele>11.0</ele><time>2026-04-08T17:14:48.919Z</time></trkpt><trkpt lat="42.6299817" lon="2.9210883"><ele>11.0</ele><time>2026-04-08T17:14:49.919Z</time></trkpt><trkpt lat="42.6300533" lon="2.9210667"><ele>11.0</ele><time>2026-04-08T17:14:50.919Z</time></trkpt><trkpt lat="42.6301333" lon="2.92104"><ele>11.0</ele><time>2026-04-08T17:14:51.919Z</time></trkpt><trkpt lat="42.6302183" lon="2.9210317"><ele>11.0</ele><time>2026-04-08T17:14:52.918Z</time></trkpt><trkpt lat="42.63032" lon="2.9210483"><ele>11.0</ele><time>2026-04-08T17:14:53.919Z</time></trkpt><trkpt lat="42.6304267" lon="2.92108"><ele>11.25</ele><time>2026-04-08T17:14:54.919Z</time></trkpt><trkpt lat="42.630535" lon="2.92112"><ele>11.5</ele><time>2026-04-08T17:14:55.918Z</time></trkpt><trkpt lat="42.6306467" lon="2.9211617"><ele>11.75</ele><time>2026-04-08T17:14:56.918Z</time></trkpt><trkpt lat="42.6307667" lon="2.9212117"><ele>12.0</ele><time>2026-04-08T17:14:57.918Z</time></trkpt><trkpt lat="42.630895" lon="2.9212567"><ele>12.0</ele><time>2026-04-08T17:14:58.919Z</time></trkpt><trkpt lat="42.6310217" lon="2.9213"><ele>12.0</ele><time>2026-04-08T17:14:59.919Z</time></trkpt><trkpt lat="42.6311417" lon="2.9213467"><ele>12.0</ele><time>2026-04-08T17:15:00.919Z</time></trkpt><trkpt lat="42.6312633" lon="2.9213867"><ele>12.0</ele><time>2026-04-08T17:15:01.918Z</time></trkpt><trkpt lat="42.6313817" lon="2.921435"><ele>12.0</ele><time>2026-04-08T17:15:02.919Z</time></trkpt><trkpt lat="42.6315" lon="2.9214867"><ele>12.0</ele><time>2026-04-08T17:15:03.919Z</time></trkpt><trkpt lat="42.6316217" lon="2.92154"><ele>12.0</ele><time>2026-04-08T17:15:04.919Z</time></trkpt><trkpt lat="42.6317433" lon="2.9215867"><ele>12.0</ele><time>2026-04-08T17:15:05.919Z</time></trkpt><trkpt lat="42.63187" lon="2.921635"><ele>12.0</ele><time>2026-04-08T17:15:06.919Z</time></trkpt><trkpt lat="42.6319967" lon="2.9216783"><ele>12.0</ele><time>2026-04-08T17:15:07.919Z</time></trkpt><trkpt lat="42.63212" lon="2.9217233"><ele>12.0</ele><time>2026-04-08T17:15:08.919Z</time></trkpt><trkpt lat="42.6322433" lon="2.9217667"><ele>12.0</ele><time>2026-04-08T17:15:09.919Z</time></trkpt><trkpt lat="42.63236" lon="2.92181"><ele>12.0</ele><time>2026-04-08T17:15:10.919Z</time></trkpt><trkpt lat="42.6324767" lon="2.9218517"><ele>12.0</ele><time>2026-04-08T17:15:11.919Z</time></trkpt><trkpt lat="42.632585" lon="2.9218917"><ele>12.0</ele><time>2026-04-08T17:15:12.919Z</time></trkpt><trkpt lat="42.6326833" lon="2.92193"><ele>12.0</ele><time>2026-04-08T17:15:13.918Z</time></trkpt><trkpt lat="42.63277" lon="2.9219667"><ele>12.0</ele><time>2026-04-08T17:15:14.918Z</time></trkpt><trkpt lat="42.6328433" lon="2.9219967"><ele>11.833333333333334</ele><time>2026-04-08T17:15:15.919Z</time></trkpt><trkpt lat="42.6329167" lon="2.92203"><ele>11.666666666666666</ele><time>2026-04-08T17:15:16.918Z</time></trkpt><trkpt lat="42.63298" lon="2.9220833"><ele>11.5</ele><time>2026-04-08T17:15:17.918Z</time></trkpt><trkpt lat="42.6330283" lon="2.9221517"><ele>11.333333333333332</ele><time>2026-04-08T17:15:18.919Z</time></trkpt><trkpt lat="42.6330817" lon="2.9221983"><ele>11.166666666666666</ele><time>2026-04-08T17:15:19.918Z</time></trkpt><trkpt lat="42.6332" lon="2.9222133"><ele>11.0</ele><time>2026-04-08T17:15:21.919Z</time></trkpt><trkpt lat="42.633275" lon="2.92221"><ele>11.0</ele><time>2026-04-08T17:15:22.919Z</time></trkpt><trkpt lat="42.633365" lon="2.9222233"><ele>11.0</ele><time>2026-04-08T17:15:23.919Z</time></trkpt><trkpt lat="42.6334583" lon="2.9222567"><ele>11.0</ele><time>2026-04-08T17:15:24.919Z</time></trkpt><trkpt lat="42.633555" lon="2.9222917"><ele>11.0</ele><time>2026-04-08T17:15:25.919Z</time></trkpt><trkpt lat="42.6336617" lon="2.9223333"><ele>11.0</ele><time>2026-04-08T17:15:26.919Z</time></trkpt><trkpt lat="42.63378" lon="2.9223767"><ele>11.5</ele><time>2026-04-08T17:15:27.918Z</time></trkpt><trkpt lat="42.6339067" lon="2.92242"><ele>12.0</ele><time>2026-04-08T17:15:28.918Z</time></trkpt><trkpt lat="42.6340433" lon="2.9224683"><ele>12.5</ele><time>2026-04-08T17:15:29.919Z</time></trkpt><trkpt lat="42.6341917" lon="2.9225233"><ele>13.0</ele><time>2026-04-08T17:15:30.919Z</time></trkpt><trkpt lat="42.6343383" lon="2.92258"><ele>14.5</ele><time>2026-04-08T17:15:31.919Z</time></trkpt><trkpt lat="42.6344883" lon="2.9226417"><ele>16.0</ele><time>2026-04-08T17:15:32.919Z</time></trkpt><trkpt lat="42.634965" lon="2.92282"><ele>16.0</ele><time>2026-04-08T17:15:35.919Z</time></trkpt><trkpt lat="42.6351333" lon="2.9228833"><ele>16.0</ele><time>2026-04-08T17:15:36.919Z</time></trkpt><trkpt lat="42.6353" lon="2.9229433"><ele>16.0</ele><time>2026-04-08T17:15:37.919Z</time></trkpt><trkpt lat="42.6354583" lon="2.9230033"><ele>17.333333333333332</ele><time>2026-04-08T17:15:38.919Z</time></trkpt><trkpt lat="42.6356117" lon="2.9230617"><ele>18.666666666666668</ele><time>2026-04-08T17:15:39.919Z</time></trkpt><trkpt lat="42.635765" lon="2.92312"><ele>20.0</ele><time>2026-04-08T17:15:40.918Z</time></trkpt><trkpt lat="42.6359183" lon="2.9231717"><ele>20.0</ele><time>2026-04-08T17:15:41.918Z</time></trkpt><trkpt lat="42.6360717" lon="2.9232133"><ele>20.0</ele><time>2026-04-08T17:15:42.919Z</time></trkpt><trkpt lat="42.6362317" lon="2.9232483"><ele>20.0</ele><time>2026-04-08T17:15:43.918Z</time></trkpt><trkpt lat="42.6363883" lon="2.9232617"><ele>22.5</ele><time>2026-04-08T17:15:44.919Z</time></trkpt><trkpt lat="42.6367783" lon="2.923235"><ele>25.0</ele><time>2026-04-08T17:15:47.919Z</time></trkpt><trkpt lat="42.6368733" lon="2.9232067"><ele>25.000000000000004</ele><time>2026-04-08T17:15:48.918Z</time></trkpt><trkpt lat="42.6369483" lon="2.92317"><ele>25.0</ele><time>2026-04-08T17:15:49.919Z</time></trkpt><trkpt lat="42.6370167" lon="2.9231483"><ele>25.0</ele><time>2026-04-08T17:15:50.919Z</time></trkpt><trkpt lat="42.6370883" lon="2.92316"><ele>25.0</ele><time>2026-04-08T17:15:51.918Z</time></trkpt><trkpt lat="42.6371517" lon="2.9231933"><ele>25.0</ele><time>2026-04-08T17:15:52.918Z</time></trkpt><trkpt lat="42.6372167" lon="2.9232167"><ele>25.000000000000004</ele><time>2026-04-08T17:15:53.919Z</time></trkpt><trkpt lat="42.6372967" lon="2.9232267"><ele>25.0</ele><time>2026-04-08T17:15:54.918Z</time></trkpt><trkpt lat="42.63739" lon="2.9232367"><ele>25.0</ele><time>2026-04-08T17:15:55.918Z</time></trkpt><trkpt lat="42.6374933" lon="2.923255"><ele>25.0</ele><time>2026-04-08T17:15:56.919Z</time></trkpt><trkpt lat="42.6375967" lon="2.9232733"><ele>25.0</ele><time>2026-04-08T17:15:57.919Z</time></trkpt><trkpt lat="42.637715" lon="2.9232867"><ele>25.0</ele><time>2026-04-08T17:15:58.919Z</time></trkpt><trkpt lat="42.637845" lon="2.9232917"><ele>24.75</ele><time>2026-04-08T17:15:59.919Z</time></trkpt><trkpt lat="42.6379883" lon="2.923295"><ele>24.5</ele><time>2026-04-08T17:16:00.919Z</time></trkpt><trkpt lat="42.638135" lon="2.9232917"><ele>24.25</ele><time>2026-04-08T17:16:01.918Z</time></trkpt><trkpt lat="42.638285" lon="2.9232883"><ele>24.0</ele><time>2026-04-08T17:16:02.918Z</time></trkpt><trkpt lat="42.638445" lon="2.9232883"><ele>24.0</ele><time>2026-04-08T17:16:03.919Z</time></trkpt><trkpt lat="42.6386133" lon="2.9232917"><ele>24.0</ele><time>2026-04-08T17:16:04.918Z</time></trkpt><trkpt lat="42.638785" lon="2.923295"><ele>24.0</ele><time>2026-04-08T17:16:05.918Z</time></trkpt><trkpt lat="42.638955" lon="2.9233033"><ele>24.0</ele><time>2026-04-08T17:16:06.919Z</time></trkpt><trkpt lat="42.639125" lon="2.9233033"><ele>24.0</ele><time>2026-04-08T17:16:07.919Z</time></trkpt><trkpt lat="42.6392933" lon="2.9233033"><ele>24.0</ele><time>2026-04-08T17:16:08.919Z</time></trkpt><trkpt lat="42.6394617" lon="2.9233167"><ele>23.666666666666668</ele><time>2026-04-08T17:16:09.918Z</time></trkpt><trkpt lat="42.6396317" lon="2.923355"><ele>23.333333333333336</ele><time>2026-04-08T17:16:10.918Z</time></trkpt><trkpt lat="42.6397933" lon="2.9234283"><ele>23.0</ele><time>2026-04-08T17:16:11.919Z</time></trkpt><trkpt lat="42.639945" lon="2.9235417"><ele>22.666666666666668</ele><time>2026-04-08T17:16:12.918Z</time></trkpt><trkpt lat="42.6400833" lon="2.9236883"><ele>22.333333333333332</ele><time>2026-04-08T17:16:13.919Z</time></trkpt><trkpt lat="42.6402117" lon="2.9238583"><ele>22.0</ele><time>2026-04-08T17:16:14.919Z</time></trkpt><trkpt lat="42.6403467" lon="2.9240333"><ele>22.0</ele><time>2026-04-08T17:16:15.918Z</time></trkpt><trkpt lat="42.6404867" lon="2.92421"><ele>22.0</ele><time>2026-04-08T17:16:16.918Z</time></trkpt><trkpt lat="42.6406233" lon="2.9243983"><ele>22.0</ele><time>2026-04-08T17:16:17.919Z</time></trkpt><trkpt lat="42.640755" lon="2.924575"><ele>21.666666666666664</ele><time>2026-04-08T17:16:18.919Z</time></trkpt><trkpt lat="42.6408767" lon="2.9247467"><ele>21.333333333333332</ele><time>2026-04-08T17:16:19.919Z</time></trkpt><trkpt lat="42.641" lon="2.9248883"><ele>21.0</ele><time>2026-04-08T17:16:20.919Z</time></trkpt><trkpt lat="42.641135" lon="2.9250067"><ele>21.0</ele><time>2026-04-08T17:16:21.919Z</time></trkpt><trkpt lat="42.641275" lon="2.9251117"><ele>21.0</ele><time>2026-04-08T17:16:22.919Z</time></trkpt><trkpt lat="42.64142" lon="2.9252133"><ele>21.0</ele><time>2026-04-08T17:16:23.918Z</time></trkpt><trkpt lat="42.6415583" lon="2.9253267"><ele>21.0</ele><time>2026-04-08T17:16:24.918Z</time></trkpt><trkpt lat="42.6416883" lon="2.9254533"><ele>21.0</ele><time>2026-04-08T17:16:25.919Z</time></trkpt><trkpt lat="42.6418167" lon="2.92559"><ele>21.0</ele><time>2026-04-08T17:16:26.919Z</time></trkpt><trkpt lat="42.64194" lon="2.925745"><ele>20.333333333333332</ele><time>2026-04-08T17:16:27.919Z</time></trkpt><trkpt lat="42.6420567" lon="2.925905"><ele>19.666666666666664</ele><time>2026-04-08T17:16:28.918Z</time></trkpt><trkpt lat="42.6421767" lon="2.92607"><ele>19.0</ele><time>2026-04-08T17:16:29.918Z</time></trkpt><trkpt lat="42.6422967" lon="2.9262283"><ele>19.0</ele><time>2026-04-08T17:16:30.917Z</time></trkpt><trkpt lat="42.6424233" lon="2.9263767"><ele>19.0</ele><time>2026-04-08T17:16:31.918Z</time></trkpt><trkpt lat="42.6425633" lon="2.9265033"><ele>19.0</ele><time>2026-04-08T17:16:32.918Z</time></trkpt><trkpt lat="42.6427117" lon="2.9266133"><ele>19.666666666666664</ele><time>2026-04-08T17:16:33.918Z</time></trkpt><trkpt lat="42.6428667" lon="2.926715"><ele>20.333333333333332</ele><time>2026-04-08T17:16:34.917Z</time></trkpt><trkpt lat="42.643025" lon="2.9268133"><ele>21.0</ele><time>2026-04-08T17:16:35.917Z</time></trkpt><trkpt lat="42.6431817" lon="2.9269017"><ele>19.666666666666668</ele><time>2026-04-08T17:16:36.918Z</time></trkpt><trkpt lat="42.6433367" lon="2.926995"><ele>18.333333333333336</ele><time>2026-04-08T17:16:37.918Z</time></trkpt><trkpt lat="42.643495" lon="2.9270883"><ele>17.0</ele><time>2026-04-08T17:16:38.918Z</time></trkpt><trkpt lat="42.6436467" lon="2.9271867"><ele>17.0</ele><time>2026-04-08T17:16:39.918Z</time></trkpt><trkpt lat="42.6437917" lon="2.9272833"><ele>17.0</ele><time>2026-04-08T17:16:40.918Z</time></trkpt><trkpt lat="42.6439217" lon="2.9273733"><ele>17.0</ele><time>2026-04-08T17:16:41.918Z</time></trkpt><trkpt lat="42.6440367" lon="2.92745"><ele>17.0</ele><time>2026-04-08T17:16:42.918Z</time></trkpt><trkpt lat="42.6441333" lon="2.9275217"><ele>16.8</ele><time>2026-04-08T17:16:43.918Z</time></trkpt><trkpt lat="42.6442183" lon="2.9275983"><ele>16.6</ele><time>2026-04-08T17:16:44.918Z</time></trkpt><trkpt lat="42.6442917" lon="2.9276883"><ele>16.400000000000002</ele><time>2026-04-08T17:16:45.918Z</time></trkpt><trkpt lat="42.6443717" lon="2.9277667"><ele>16.2</ele><time>2026-04-08T17:16:46.917Z</time></trkpt><trkpt lat="42.6444667" lon="2.9278117"><ele>16.0</ele><time>2026-04-08T17:16:47.917Z</time></trkpt><trkpt lat="42.6445683" lon="2.9278467"><ele>17.0</ele><time>2026-04-08T17:16:48.918Z</time></trkpt><trkpt lat="42.644675" lon="2.9279"><ele>18.0</ele><time>2026-04-08T17:16:49.918Z</time></trkpt><trkpt lat="42.6447883" lon="2.9279717"><ele>19.0</ele><time>2026-04-08T17:16:50.918Z</time></trkpt><trkpt lat="42.6449067" lon="2.9280617"><ele>20.0</ele><time>2026-04-08T17:16:51.918Z</time></trkpt><trkpt lat="42.6450367" lon="2.9281567"><ele>20.0</ele><time>2026-04-08T17:16:52.917Z</time></trkpt><trkpt lat="42.64517" lon="2.9282367"><ele>20.0</ele><time>2026-04-08T17:16:53.917Z</time></trkpt><trkpt lat="42.64532" lon="2.9282967"><ele>20.0</ele><time>2026-04-08T17:16:54.918Z</time></trkpt><trkpt lat="42.64547" lon="2.9283333"><ele>20.25</ele><time>2026-04-08T17:16:55.917Z</time></trkpt><trkpt lat="42.6456167" lon="2.9283633"><ele>20.5</ele><time>2026-04-08T17:16:56.917Z</time></trkpt><trkpt lat="42.64576" lon="2.9283917"><ele>20.75</ele><time>2026-04-08T17:16:57.917Z</time></trkpt><trkpt lat="42.6458983" lon="2.92842"><ele>21.0</ele><time>2026-04-08T17:16:58.917Z</time></trkpt><trkpt lat="42.646025" lon="2.9284517"><ele>21.0</ele><time>2026-04-08T17:16:59.918Z</time></trkpt><trkpt lat="42.646135" lon="2.9285"><ele>21.0</ele><time>2026-04-08T17:17:00.918Z</time></trkpt><trkpt lat="42.6462217" lon="2.9285633"><ele>21.0</ele><time>2026-04-08T17:17:01.918Z</time></trkpt><trkpt lat="42.6462917" lon="2.9286367"><ele>21.0</ele><time>2026-04-08T17:17:02.918Z</time></trkpt><trkpt lat="42.6463483" lon="2.9287367"><ele>21.0</ele><time>2026-04-08T17:17:03.918Z</time></trkpt><trkpt lat="42.64641" lon="2.928845"><ele>21.0</ele><time>2026-04-08T17:17:04.918Z</time></trkpt><trkpt lat="42.6464983" lon="2.928935"><ele>21.0</ele><time>2026-04-08T17:17:05.917Z</time></trkpt><trkpt lat="42.6466017" lon="2.9289917"><ele>21.0</ele><time>2026-04-08T17:17:06.918Z</time></trkpt><trkpt lat="42.6467233" lon="2.928995"><ele>21.0</ele><time>2026-04-08T17:17:07.918Z</time></trkpt><trkpt lat="42.646835" lon="2.9289333"><ele>21.0</ele><time>2026-04-08T17:17:08.918Z</time></trkpt><trkpt lat="42.6469283" lon="2.9288333"><ele>21.0</ele><time>2026-04-08T17:17:09.917Z</time></trkpt><trkpt lat="42.64702" lon="2.9287133"><ele>21.0</ele><time>2026-04-08T17:17:10.918Z</time></trkpt><trkpt lat="42.6471217" lon="2.9285867"><ele>21.0</ele><time>2026-04-08T17:17:11.918Z</time></trkpt><trkpt lat="42.6472367" lon="2.928445"><ele>22.333333333333336</ele><time>2026-04-08T17:17:12.918Z</time></trkpt><trkpt lat="42.64736" lon="2.928305"><ele>23.666666666666668</ele><time>2026-04-08T17:17:13.918Z</time></trkpt><trkpt lat="42.6474917" lon="2.9281733"><ele>25.0</ele><time>2026-04-08T17:17:14.918Z</time></trkpt><trkpt lat="42.64763" lon="2.9280533"><ele>25.0</ele><time>2026-04-08T17:17:15.918Z</time></trkpt><trkpt lat="42.647765" lon="2.927935"><ele>25.0</ele><time>2026-04-08T17:17:16.918Z</time></trkpt><trkpt lat="42.647895" lon="2.9278233"><ele>25.0</ele><time>2026-04-08T17:17:17.917Z</time></trkpt><trkpt lat="42.6480233" lon="2.9277267"><ele>24.25</ele><time>2026-04-08T17:17:18.917Z</time></trkpt><trkpt lat="42.6481583" lon="2.9276417"><ele>23.5</ele><time>2026-04-08T17:17:19.918Z</time></trkpt><trkpt lat="42.6482933" lon="2.9275733"><ele>22.75</ele><time>2026-04-08T17:17:20.917Z</time></trkpt><trkpt lat="42.6484267" lon="2.9275267"><ele>22.0</ele><time>2026-04-08T17:17:21.918Z</time></trkpt><trkpt lat="42.6485517" lon="2.9275"><ele>21.8</ele><time>2026-04-08T17:17:22.918Z</time></trkpt><trkpt lat="42.6486683" lon="2.9275017"><ele>21.6</ele><time>2026-04-08T17:17:23.918Z</time></trkpt><trkpt lat="42.6487783" lon="2.9275317"><ele>21.400000000000002</ele><time>2026-04-08T17:17:24.918Z</time></trkpt><trkpt lat="42.648875" lon="2.9275933"><ele>21.200000000000003</ele><time>2026-04-08T17:17:25.918Z</time></trkpt><trkpt lat="42.6489667" lon="2.9276833"><ele>21.0</ele><time>2026-04-08T17:17:26.918Z</time></trkpt><trkpt lat="42.6490533" lon="2.92779"><ele>21.0</ele><time>2026-04-08T17:17:27.918Z</time></trkpt><trkpt lat="42.6491383" lon="2.9279067"><ele>21.0</ele><time>2026-04-08T17:17:28.918Z</time></trkpt><trkpt lat="42.649225" lon="2.9280417"><ele>21.0</ele><time>2026-04-08T17:17:29.917Z</time></trkpt><trkpt lat="42.64931" lon="2.92818"><ele>21.0</ele><time>2026-04-08T17:17:30.918Z</time></trkpt><trkpt lat="42.6493967" lon="2.9283017"><ele>21.0</ele><time>2026-04-08T17:17:31.918Z</time></trkpt><trkpt lat="42.6494867" lon="2.928405"><ele>21.0</ele><time>2026-04-08T17:17:32.918Z</time></trkpt><trkpt lat="42.6495833" lon="2.92846"><ele>21.0</ele><time>2026-04-08T17:17:33.918Z</time></trkpt><trkpt lat="42.6496733" lon="2.9285"><ele>21.0</ele><time>2026-04-08T17:17:34.917Z</time></trkpt><trkpt lat="42.6497817" lon="2.9284617"><ele>21.0</ele><time>2026-04-08T17:17:35.918Z</time></trkpt><trkpt lat="42.649885" lon="2.9283717"><ele>21.0</ele><time>2026-04-08T17:17:36.918Z</time></trkpt><trkpt lat="42.6499717" lon="2.9282583"><ele>21.0</ele><time>2026-04-08T17:17:37.918Z</time></trkpt><trkpt lat="42.6500617" lon="2.928135"><ele>21.0</ele><time>2026-04-08T17:17:38.917Z</time></trkpt><trkpt lat="42.6501467" lon="2.928005"><ele>21.0</ele><time>2026-04-08T17:17:39.918Z</time></trkpt><trkpt lat="42.65024" lon="2.92789"><ele>21.0</ele><time>2026-04-08T17:17:40.917Z</time></trkpt><trkpt lat="42.650355" lon="2.9278083"><ele>21.0</ele><time>2026-04-08T17:17:41.918Z</time></trkpt><trkpt lat="42.6504867" lon="2.9277733"><ele>21.0</ele><time>2026-04-08T17:17:42.917Z</time></trkpt><trkpt lat="42.65063" lon="2.9277267"><ele>21.0</ele><time>2026-04-08T17:17:43.918Z</time></trkpt><trkpt lat="42.65078" lon="2.927665"><ele>21.0</ele><time>2026-04-08T17:17:44.918Z</time></trkpt><trkpt lat="42.650945" lon="2.9275933"><ele>21.0</ele><time>2026-04-08T17:17:45.918Z</time></trkpt><trkpt lat="42.6511233" lon="2.927525"><ele>21.0</ele><time>2026-04-08T17:17:46.917Z</time></trkpt><trkpt lat="42.6513183" lon="2.9274667"><ele>21.0</ele><time>2026-04-08T17:17:47.918Z</time></trkpt><trkpt lat="42.65151" lon="2.9274117"><ele>21.0</ele><time>2026-04-08T17:17:48.918Z</time></trkpt><trkpt lat="42.6517083" lon="2.92735"><ele>21.0</ele><time>2026-04-08T17:17:49.918Z</time></trkpt><trkpt lat="42.6519167" lon="2.9272883"><ele>21.0</ele><time>2026-04-08T17:17:50.917Z</time></trkpt><trkpt lat="42.6521267" lon="2.927225"><ele>21.0</ele><time>2026-04-08T17:17:51.917Z</time></trkpt><trkpt lat="42.6523383" lon="2.9271617"><ele>21.0</ele><time>2026-04-08T17:17:52.918Z</time></trkpt><trkpt lat="42.6525567" lon="2.9270917"><ele>21.0</ele><time>2026-04-08T17:17:53.917Z</time></trkpt><trkpt lat="42.6527733" lon="2.92703"><ele>21.0</ele><time>2026-04-08T17:17:54.918Z</time></trkpt><trkpt lat="42.6529967" lon="2.92697"><ele>21.0</ele><time>2026-04-08T17:17:55.918Z</time></trkpt><trkpt lat="42.6532233" lon="2.9269017"><ele>21.0</ele><time>2026-04-08T17:17:56.917Z</time></trkpt><trkpt lat="42.6534517" lon="2.926835"><ele>21.0</ele><time>2026-04-08T17:17:57.918Z</time></trkpt><trkpt lat="42.6536833" lon="2.92677"><ele>21.0</ele><time>2026-04-08T17:17:58.917Z</time></trkpt><trkpt lat="42.6539183" lon="2.9267033"><ele>21.0</ele><time>2026-04-08T17:17:59.917Z</time></trkpt><trkpt lat="42.6541567" lon="2.9266283"><ele>21.0</ele><time>2026-04-08T17:18:00.918Z</time></trkpt><trkpt lat="42.654405" lon="2.9265583"><ele>21.0</ele><time>2026-04-08T17:18:01.918Z</time></trkpt><trkpt lat="42.6546467" lon="2.92648"><ele>22.5</ele><time>2026-04-08T17:18:02.917Z</time></trkpt><trkpt lat="42.6548817" lon="2.9264033"><ele>24.0</ele><time>2026-04-08T17:18:03.918Z</time></trkpt><trkpt lat="42.6551133" lon="2.9263233"><ele>24.0</ele><time>2026-04-08T17:18:04.917Z</time></trkpt><trkpt lat="42.6553417" lon="2.9262383"><ele>24.0</ele><time>2026-04-08T17:18:05.917Z</time></trkpt><trkpt lat="42.655565" lon="2.9261467"><ele>24.0</ele><time>2026-04-08T17:18:06.917Z</time></trkpt><trkpt lat="42.6557833" lon="2.92605"><ele>24.0</ele><time>2026-04-08T17:18:07.918Z</time></trkpt><trkpt lat="42.6559967" lon="2.92595"><ele>23.666666666666668</ele><time>2026-04-08T17:18:08.918Z</time></trkpt><trkpt lat="42.6562" lon="2.9258483"><ele>23.333333333333336</ele><time>2026-04-08T17:18:09.918Z</time></trkpt><trkpt lat="42.65641" lon="2.92574"><ele>23.0</ele><time>2026-04-08T17:18:10.918Z</time></trkpt><trkpt lat="42.656615" lon="2.925625"><ele>23.0</ele><time>2026-04-08T17:18:11.918Z</time></trkpt><trkpt lat="42.6568133" lon="2.92551"><ele>23.0</ele><time>2026-04-08T17:18:12.918Z</time></trkpt><trkpt lat="42.6570083" lon="2.9253867"><ele>23.0</ele><time>2026-04-08T17:18:13.918Z</time></trkpt><trkpt lat="42.6572117" lon="2.92526"><ele>23.666666666666668</ele><time>2026-04-08T17:18:14.918Z</time></trkpt><trkpt lat="42.65741" lon="2.925125"><ele>24.333333333333336</ele><time>2026-04-08T17:18:15.918Z</time></trkpt><trkpt lat="42.657605" lon="2.9249833"><ele>25.0</ele><time>2026-04-08T17:18:16.918Z</time></trkpt><trkpt lat="42.6578033" lon="2.9248367"><ele>25.333333333333336</ele><time>2026-04-08T17:18:17.917Z</time></trkpt><trkpt lat="42.6579983" lon="2.9246917"><ele>25.666666666666664</ele><time>2026-04-08T17:18:18.917Z</time></trkpt><trkpt lat="42.65819" lon="2.9245483"><ele>26.0</ele><time>2026-04-08T17:18:19.918Z</time></trkpt><trkpt lat="42.65838" lon="2.92441"><ele>26.0</ele><time>2026-04-08T17:18:20.918Z</time></trkpt><trkpt lat="42.6585683" lon="2.9242733"><ele>26.0</ele><time>2026-04-08T17:18:21.917Z</time></trkpt><trkpt lat="42.6587583" lon="2.9241333"><ele>26.0</ele><time>2026-04-08T17:18:22.918Z</time></trkpt><trkpt lat="42.6589383" lon="2.9239983"><ele>26.333333333333332</ele><time>2026-04-08T17:18:23.918Z</time></trkpt><trkpt lat="42.6591217" lon="2.9238617"><ele>26.666666666666664</ele><time>2026-04-08T17:18:24.917Z</time></trkpt><trkpt lat="42.6593033" lon="2.9237233"><ele>27.0</ele><time>2026-04-08T17:18:25.918Z</time></trkpt><trkpt lat="42.659485" lon="2.9235833"><ele>27.0</ele><time>2026-04-08T17:18:26.918Z</time></trkpt><trkpt lat="42.6596583" lon="2.9234483"><ele>27.0</ele><time>2026-04-08T17:18:27.918Z</time></trkpt><trkpt lat="42.6598233" lon="2.9233217"><ele>27.0</ele><time>2026-04-08T17:18:28.917Z</time></trkpt><trkpt lat="42.659985" lon="2.9231983"><ele>27.0</ele><time>2026-04-08T17:18:29.918Z</time></trkpt><trkpt lat="42.660145" lon="2.9230783"><ele>27.0</ele><time>2026-04-08T17:18:30.918Z</time></trkpt><trkpt lat="42.6603067" lon="2.9229583"><ele>27.0</ele><time>2026-04-08T17:18:31.918Z</time></trkpt><trkpt lat="42.6604683" lon="2.9228367"><ele>27.0</ele><time>2026-04-08T17:18:32.917Z</time></trkpt><trkpt lat="42.6606217" lon="2.9227167"><ele>27.0</ele><time>2026-04-08T17:18:33.917Z</time></trkpt><trkpt lat="42.6607683" lon="2.9226083"><ele>27.0</ele><time>2026-04-08T17:18:34.917Z</time></trkpt><trkpt lat="42.660905" lon="2.922505"><ele>27.0</ele><time>2026-04-08T17:18:35.918Z</time></trkpt><trkpt lat="42.6610333" lon="2.9224"><ele>27.0</ele><time>2026-04-08T17:18:36.918Z</time></trkpt><trkpt lat="42.661165" lon="2.9222983"><ele>27.0</ele><time>2026-04-08T17:18:37.918Z</time></trkpt><trkpt lat="42.6612983" lon="2.9222"><ele>26.666666666666664</ele><time>2026-04-08T17:18:38.917Z</time></trkpt><trkpt lat="42.6614367" lon="2.9220983"><ele>26.333333333333332</ele><time>2026-04-08T17:18:39.917Z</time></trkpt><trkpt lat="42.6615783" lon="2.9219967"><ele>26.0</ele><time>2026-04-08T17:18:40.917Z</time></trkpt><trkpt lat="42.6617233" lon="2.9218867"><ele>26.0</ele><time>2026-04-08T17:18:41.918Z</time></trkpt><trkpt lat="42.6618783" lon="2.9217767"><ele>26.0</ele><time>2026-04-08T17:18:42.918Z</time></trkpt><trkpt lat="42.6620317" lon="2.921665"><ele>26.0</ele><time>2026-04-08T17:18:43.918Z</time></trkpt><trkpt lat="42.662195" lon="2.92155"><ele>26.666666666666664</ele><time>2026-04-08T17:18:44.917Z</time></trkpt><trkpt lat="42.6623533" lon="2.9214383"><ele>27.333333333333336</ele><time>2026-04-08T17:18:45.918Z</time></trkpt><trkpt lat="42.6625117" lon="2.9213283"><ele>28.0</ele><time>2026-04-08T17:18:46.917Z</time></trkpt><trkpt lat="42.662675" lon="2.9212167"><ele>27.666666666666668</ele><time>2026-04-08T17:18:47.918Z</time></trkpt><trkpt lat="42.6628417" lon="2.9211133"><ele>27.333333333333336</ele><time>2026-04-08T17:18:48.917Z</time></trkpt><trkpt lat="42.6630117" lon="2.9210133"><ele>27.0</ele><time>2026-04-08T17:18:49.917Z</time></trkpt><trkpt lat="42.6631817" lon="2.9209217"><ele>27.666666666666664</ele><time>2026-04-08T17:18:50.917Z</time></trkpt><trkpt lat="42.6633517" lon="2.9208317"><ele>28.333333333333332</ele><time>2026-04-08T17:18:51.917Z</time></trkpt><trkpt lat="42.6635183" lon="2.9207433"><ele>29.0</ele><time>2026-04-08T17:18:52.918Z</time></trkpt><trkpt lat="42.66369" lon="2.9206467"><ele>29.333333333333332</ele><time>2026-04-08T17:18:53.918Z</time></trkpt><trkpt lat="42.6638617" lon="2.9205417"><ele>29.666666666666664</ele><time>2026-04-08T17:18:54.917Z</time></trkpt><trkpt lat="42.6640317" lon="2.92043"><ele>30.0</ele><time>2026-04-08T17:18:55.918Z</time></trkpt><trkpt lat="42.6641983" lon="2.9203233"><ele>30.0</ele><time>2026-04-08T17:18:56.918Z</time></trkpt><trkpt lat="42.66437" lon="2.9202083"><ele>30.0</ele><time>2026-04-08T17:18:57.917Z</time></trkpt><trkpt lat="42.664535" lon="2.9200867"><ele>30.0</ele><time>2026-04-08T17:18:58.917Z</time></trkpt><trkpt lat="42.6646883" lon="2.9199717"><ele>29.75</ele><time>2026-04-08T17:18:59.918Z</time></trkpt><trkpt lat="42.66483" lon="2.919865"><ele>29.5</ele><time>2026-04-08T17:19:00.918Z</time></trkpt><trkpt lat="42.664955" lon="2.91977"><ele>29.25</ele><time>2026-04-08T17:19:01.918Z</time></trkpt><trkpt lat="42.6650617" lon="2.9196867"><ele>29.0</ele><time>2026-04-08T17:19:02.918Z</time></trkpt><trkpt lat="42.6651483" lon="2.91962"><ele>28.999999999999996</ele><time>2026-04-08T17:19:03.918Z</time></trkpt><trkpt lat="42.6652083" lon="2.9195733"><ele>29.0</ele><time>2026-04-08T17:19:04.918Z</time></trkpt><trkpt lat="42.6652717" lon="2.9195283"><ele>29.0</ele><time>2026-04-08T17:19:06.917Z</time></trkpt><trkpt lat="42.6653733" lon="2.9194617"><ele>29.0</ele><time>2026-04-08T17:19:09.918Z</time></trkpt><trkpt lat="42.66549" lon="2.9195017"><ele>28.999999999999996</ele><time>2026-04-08T17:19:11.918Z</time></trkpt><trkpt lat="42.6655533" lon="2.91954"><ele>29.0</ele><time>2026-04-08T17:19:12.917Z</time></trkpt><trkpt lat="42.6656267" lon="2.9195667"><ele>29.000000000000004</ele><time>2026-04-08T17:19:13.918Z</time></trkpt><trkpt lat="42.6657033" lon="2.9195617"><ele>29.0</ele><time>2026-04-08T17:19:14.918Z</time></trkpt><trkpt lat="42.6657717" lon="2.9195333"><ele>29.000000000000004</ele><time>2026-04-08T17:19:15.918Z</time></trkpt><trkpt lat="42.665835" lon="2.9194883"><ele>29.000000000000004</ele><time>2026-04-08T17:19:16.918Z</time></trkpt><trkpt lat="42.6658917" lon="2.9194283"><ele>29.0</ele><time>2026-04-08T17:19:17.917Z</time></trkpt><trkpt lat="42.665935" lon="2.91936"><ele>29.000000000000004</ele><time>2026-04-08T17:19:18.917Z</time></trkpt><trkpt lat="42.66596" lon="2.9192783"><ele>29.000000000000004</ele><time>2026-04-08T17:19:19.918Z</time></trkpt><trkpt lat="42.6659867" lon="2.9191833"><ele>29.0</ele><time>2026-04-08T17:19:20.918Z</time></trkpt><trkpt lat="42.66603" lon="2.91909"><ele>29.0</ele><time>2026-04-08T17:19:21.917Z</time></trkpt><trkpt lat="42.6660967" lon="2.9190083"><ele>29.0</ele><time>2026-04-08T17:19:22.918Z</time></trkpt><trkpt lat="42.6661833" lon="2.9189433"><ele>29.0</ele><time>2026-04-08T17:19:23.917Z</time></trkpt><trkpt lat="42.6662817" lon="2.9188833"><ele>29.0</ele><time>2026-04-08T17:19:24.917Z</time></trkpt><trkpt lat="42.6663883" lon="2.9188183"><ele>29.0</ele><time>2026-04-08T17:19:25.918Z</time></trkpt><trkpt lat="42.6665067" lon="2.9187483"><ele>29.0</ele><time>2026-04-08T17:19:26.917Z</time></trkpt><trkpt lat="42.66663" lon="2.9186717"><ele>29.0</ele><time>2026-04-08T17:19:27.918Z</time></trkpt><trkpt lat="42.6667567" lon="2.91859"><ele>29.0</ele><time>2026-04-08T17:19:28.917Z</time></trkpt><trkpt lat="42.66688" lon="2.9185133"><ele>29.25</ele><time>2026-04-08T17:19:29.918Z</time></trkpt><trkpt lat="42.667005" lon="2.9184433"><ele>29.5</ele><time>2026-04-08T17:19:30.917Z</time></trkpt><trkpt lat="42.6671333" lon="2.918365"><ele>29.75</ele><time>2026-04-08T17:19:31.918Z</time></trkpt><trkpt lat="42.6672583" lon="2.9182967"><ele>30.0</ele><time>2026-04-08T17:19:32.917Z</time></trkpt><trkpt lat="42.6673767" lon="2.9182333"><ele>30.0</ele><time>2026-04-08T17:19:33.918Z</time></trkpt><trkpt lat="42.6674767" lon="2.918175"><ele>30.0</ele><time>2026-04-08T17:19:34.918Z</time></trkpt><trkpt lat="42.6675683" lon="2.9181233"><ele>30.0</ele><time>2026-04-08T17:19:35.918Z</time></trkpt><trkpt lat="42.667655" lon="2.918075"><ele>30.0</ele><time>2026-04-08T17:19:36.918Z</time></trkpt><trkpt lat="42.6677383" lon="2.91803"><ele>30.0</ele><time>2026-04-08T17:19:37.918Z</time></trkpt><trkpt lat="42.6678217" lon="2.9179817"><ele>30.0</ele><time>2026-04-08T17:19:38.917Z</time></trkpt><trkpt lat="42.6679067" lon="2.9179367"><ele>30.0</ele><time>2026-04-08T17:19:39.917Z</time></trkpt><trkpt lat="42.6679983" lon="2.9178867"><ele>30.0</ele><time>2026-04-08T17:19:40.918Z</time></trkpt><trkpt lat="42.6680983" lon="2.91783"><ele>30.0</ele><time>2026-04-08T17:19:41.917Z</time></trkpt><trkpt lat="42.6681983" lon="2.9177783"><ele>30.0</ele><time>2026-04-08T17:19:42.918Z</time></trkpt><trkpt lat="42.668305" lon="2.9177233"><ele>30.0</ele><time>2026-04-08T17:19:43.918Z</time></trkpt><trkpt lat="42.66841" lon="2.9176683"><ele>30.0</ele><time>2026-04-08T17:19:44.918Z</time></trkpt><trkpt lat="42.66852" lon="2.9176083"><ele>30.0</ele><time>2026-04-08T17:19:45.918Z</time></trkpt><trkpt lat="42.6686233" lon="2.91755"><ele>30.0</ele><time>2026-04-08T17:19:46.918Z</time></trkpt><trkpt lat="42.6687333" lon="2.9174883"><ele>30.0</ele><time>2026-04-08T17:19:47.918Z</time></trkpt><trkpt lat="42.6688433" lon="2.9174283"><ele>30.0</ele><time>2026-04-08T17:19:48.918Z</time></trkpt><trkpt lat="42.6689533" lon="2.9173683"><ele>30.0</ele><time>2026-04-08T17:19:49.918Z</time></trkpt><trkpt lat="42.6690667" lon="2.91731"><ele>30.0</ele><time>2026-04-08T17:19:50.918Z</time></trkpt><trkpt lat="42.6691817" lon="2.9172467"><ele>30.0</ele><time>2026-04-08T17:19:51.917Z</time></trkpt><trkpt lat="42.6692967" lon="2.9171783"><ele>30.0</ele><time>2026-04-08T17:19:52.918Z</time></trkpt><trkpt lat="42.6694117" lon="2.917105"><ele>30.0</ele><time>2026-04-08T17:19:53.918Z</time></trkpt><trkpt lat="42.6695167" lon="2.91703"><ele>30.0</ele><time>2026-04-08T17:19:54.918Z</time></trkpt><trkpt lat="42.6696167" lon="2.9169567"><ele>30.5</ele><time>2026-04-08T17:19:55.918Z</time></trkpt><trkpt lat="42.669705" lon="2.916885"><ele>31.0</ele><time>2026-04-08T17:19:56.917Z</time></trkpt><trkpt lat="42.6697833" lon="2.916825"><ele>31.5</ele><time>2026-04-08T17:19:57.918Z</time></trkpt><trkpt lat="42.66985" lon="2.9167733"><ele>32.0</ele><time>2026-04-08T17:19:58.918Z</time></trkpt><trkpt lat="42.6699217" lon="2.9167467"><ele>32.5</ele><time>2026-04-08T17:19:59.917Z</time></trkpt><trkpt lat="42.6700033" lon="2.91675"><ele>33.0</ele><time>2026-04-08T17:20:00.917Z</time></trkpt><trkpt lat="42.670085" lon="2.9167583"><ele>33.199999999999996</ele><time>2026-04-08T17:20:01.918Z</time></trkpt><trkpt lat="42.670175" lon="2.916735"><ele>33.4</ele><time>2026-04-08T17:20:02.918Z</time></trkpt><trkpt lat="42.67026" lon="2.9166883"><ele>33.599999999999994</ele><time>2026-04-08T17:20:03.917Z</time></trkpt><trkpt lat="42.6703317" lon="2.9166133"><ele>33.8</ele><time>2026-04-08T17:20:04.918Z</time></trkpt><trkpt lat="42.6704" lon="2.9165267"><ele>34.0</ele><time>2026-04-08T17:20:05.918Z</time></trkpt><trkpt lat="42.6704817" lon="2.9164517"><ele>35.5</ele><time>2026-04-08T17:20:06.918Z</time></trkpt><trkpt lat="42.67059" lon="2.9163933"><ele>37.0</ele><time>2026-04-08T17:20:07.917Z</time></trkpt><trkpt lat="42.6706983" lon="2.9163483"><ele>38.5</ele><time>2026-04-08T17:20:08.917Z</time></trkpt><trkpt lat="42.6708183" lon="2.916295"><ele>40.0</ele><time>2026-04-08T17:20:09.918Z</time></trkpt><trkpt lat="42.6709533" lon="2.9162367"><ele>40.0</ele><time>2026-04-08T17:20:10.918Z</time></trkpt><trkpt lat="42.6711017" lon="2.91617"><ele>40.0</ele><time>2026-04-08T17:20:11.918Z</time></trkpt><trkpt lat="42.6712533" lon="2.9161"><ele>40.0</ele><time>2026-04-08T17:20:12.918Z</time></trkpt><trkpt lat="42.6714067" lon="2.91603"><ele>39.333333333333336</ele><time>2026-04-08T17:20:13.918Z</time></trkpt><trkpt lat="42.6715617" lon="2.915945"><ele>38.666666666666664</ele><time>2026-04-08T17:20:14.918Z</time></trkpt><trkpt lat="42.6717217" lon="2.9158517"><ele>38.0</ele><time>2026-04-08T17:20:15.918Z</time></trkpt><trkpt lat="42.6718867" lon="2.91576"><ele>38.666666666666664</ele><time>2026-04-08T17:20:16.917Z</time></trkpt><trkpt lat="42.6720583" lon="2.915665"><ele>39.333333333333336</ele><time>2026-04-08T17:20:17.918Z</time></trkpt><trkpt lat="42.6722283" lon="2.9155717"><ele>40.0</ele><time>2026-04-08T17:20:18.918Z</time></trkpt><trkpt lat="42.6723983" lon="2.915475"><ele>40.0</ele><time>2026-04-08T17:20:19.918Z</time></trkpt><trkpt lat="42.6725733" lon="2.91538"><ele>40.0</ele><time>2026-04-08T17:20:20.918Z</time></trkpt><trkpt lat="42.6727533" lon="2.9152817"><ele>40.0</ele><time>2026-04-08T17:20:21.917Z</time></trkpt><trkpt lat="42.6729333" lon="2.9151867"><ele>40.0</ele><time>2026-04-08T17:20:22.918Z</time></trkpt><trkpt lat="42.6731183" lon="2.9150833"><ele>40.0</ele><time>2026-04-08T17:20:23.918Z</time></trkpt><trkpt lat="42.6733017" lon="2.91498"><ele>40.0</ele><time>2026-04-08T17:20:24.918Z</time></trkpt><trkpt lat="42.6734867" lon="2.914875"><ele>40.333333333333336</ele><time>2026-04-08T17:20:25.918Z</time></trkpt><trkpt lat="42.673675" lon="2.914775"><ele>40.666666666666664</ele><time>2026-04-08T17:20:26.918Z</time></trkpt><trkpt lat="42.6738583" lon="2.9146717"><ele>41.0</ele><time>2026-04-08T17:20:27.918Z</time></trkpt><trkpt lat="42.6740433" lon="2.9145733"><ele>41.0</ele><time>2026-04-08T17:20:28.918Z</time></trkpt><trkpt lat="42.6742283" lon="2.9144733"><ele>41.0</ele><time>2026-04-08T17:20:29.918Z</time></trkpt><trkpt lat="42.6744033" lon="2.91438"><ele>41.0</ele><time>2026-04-08T17:20:30.918Z</time></trkpt><trkpt lat="42.674575" lon="2.91429"><ele>41.666666666666664</ele><time>2026-04-08T17:20:31.918Z</time></trkpt><trkpt lat="42.6747417" lon="2.9141967"><ele>42.333333333333336</ele><time>2026-04-08T17:20:32.918Z</time></trkpt><trkpt lat="42.674905" lon="2.9141"><ele>43.0</ele><time>2026-04-08T17:20:33.918Z</time></trkpt><trkpt lat="42.6750633" lon="2.9140067"><ele>43.0</ele><time>2026-04-08T17:20:34.918Z</time></trkpt><trkpt lat="42.6752233" lon="2.9139183"><ele>43.0</ele><time>2026-04-08T17:20:35.918Z</time></trkpt><trkpt lat="42.675385" lon="2.913835"><ele>43.0</ele><time>2026-04-08T17:20:36.917Z</time></trkpt><trkpt lat="42.6755517" lon="2.913755"><ele>43.0</ele><time>2026-04-08T17:20:37.917Z</time></trkpt><trkpt lat="42.67572" lon="2.9136767"><ele>43.0</ele><time>2026-04-08T17:20:38.918Z</time></trkpt><trkpt lat="42.6758883" lon="2.9135933"><ele>43.0</ele><time>2026-04-08T17:20:39.918Z</time></trkpt><trkpt lat="42.6760533" lon="2.9135167"><ele>43.0</ele><time>2026-04-08T17:20:40.918Z</time></trkpt><trkpt lat="42.6762217" lon="2.9134467"><ele>43.0</ele><time>2026-04-08T17:20:41.918Z</time></trkpt><trkpt lat="42.6763883" lon="2.9133933"><ele>43.0</ele><time>2026-04-08T17:20:42.918Z</time></trkpt><trkpt lat="42.6765467" lon="2.9133467"><ele>43.333333333333336</ele><time>2026-04-08T17:20:43.917Z</time></trkpt><trkpt lat="42.676705" lon="2.913305"><ele>43.666666666666664</ele><time>2026-04-08T17:20:44.918Z</time></trkpt><trkpt lat="42.676855" lon="2.9132667"><ele>44.0</ele><time>2026-04-08T17:20:45.918Z</time></trkpt><trkpt lat="42.67699" lon="2.9132433"><ele>43.25</ele><time>2026-04-08T17:20:46.918Z</time></trkpt><trkpt lat="42.6771217" lon="2.9132267"><ele>42.5</ele><time>2026-04-08T17:20:47.917Z</time></trkpt><trkpt lat="42.6772483" lon="2.91322"><ele>41.75</ele><time>2026-04-08T17:20:48.918Z</time></trkpt><trkpt lat="42.677365" lon="2.91322"><ele>41.0</ele><time>2026-04-08T17:20:49.918Z</time></trkpt><trkpt lat="42.6774683" lon="2.9132383"><ele>41.0</ele><time>2026-04-08T17:20:50.917Z</time></trkpt><trkpt lat="42.6775667" lon="2.9132817"><ele>41.0</ele><time>2026-04-08T17:20:51.918Z</time></trkpt><trkpt lat="42.6776567" lon="2.9133433"><ele>41.0</ele><time>2026-04-08T17:20:52.918Z</time></trkpt><trkpt lat="42.6777533" lon="2.913385"><ele>41.0</ele><time>2026-04-08T17:20:53.918Z</time></trkpt><trkpt lat="42.6778533" lon="2.9133817"><ele>41.0</ele><time>2026-04-08T17:20:54.918Z</time></trkpt><trkpt lat="42.677945" lon="2.9133267"><ele>40.0</ele><time>2026-04-08T17:20:55.917Z</time></trkpt><trkpt lat="42.6780233" lon="2.9132367"><ele>39.0</ele><time>2026-04-08T17:20:56.918Z</time></trkpt><trkpt lat="42.67806" lon="2.9131033"><ele>38.0</ele><time>2026-04-08T17:20:57.918Z</time></trkpt><trkpt lat="42.6780767" lon="2.9129433"><ele>37.0</ele><time>2026-04-08T17:20:58.918Z</time></trkpt><trkpt lat="42.678125" lon="2.912805"><ele>36.0</ele><time>2026-04-08T17:20:59.918Z</time></trkpt><trkpt lat="42.6782067" lon="2.9126933"><ele>36.0</ele><time>2026-04-08T17:21:00.918Z</time></trkpt><trkpt lat="42.6782967" lon="2.9125967"><ele>36.0</ele><time>2026-04-08T17:21:01.918Z</time></trkpt><trkpt lat="42.67839" lon="2.9124983"><ele>36.0</ele><time>2026-04-08T17:21:02.918Z</time></trkpt><trkpt lat="42.678485" lon="2.9124033"><ele>36.0</ele><time>2026-04-08T17:21:03.918Z</time></trkpt><trkpt lat="42.6785817" lon="2.9123117"><ele>36.0</ele><time>2026-04-08T17:21:04.918Z</time></trkpt><trkpt lat="42.6786733" lon="2.9122217"><ele>36.0</ele><time>2026-04-08T17:21:05.918Z</time></trkpt><trkpt lat="42.678775" lon="2.9121333"><ele>36.0</ele><time>2026-04-08T17:21:06.918Z</time></trkpt><trkpt lat="42.6788733" lon="2.91205"><ele>36.0</ele><time>2026-04-08T17:21:07.918Z</time></trkpt><trkpt lat="42.6789767" lon="2.9119783"><ele>36.0</ele><time>2026-04-08T17:21:08.918Z</time></trkpt><trkpt lat="42.6790767" lon="2.9119167"><ele>36.0</ele><time>2026-04-08T17:21:09.917Z</time></trkpt><trkpt lat="42.6791783" lon="2.9118517"><ele>36.0</ele><time>2026-04-08T17:21:10.918Z</time></trkpt><trkpt lat="42.679275" lon="2.9117917"><ele>36.0</ele><time>2026-04-08T17:21:11.918Z</time></trkpt><trkpt lat="42.67937" lon="2.9117367"><ele>36.0</ele><time>2026-04-08T17:21:12.917Z</time></trkpt><trkpt lat="42.679465" lon="2.9116817"><ele>36.8</ele><time>2026-04-08T17:21:13.917Z</time></trkpt><trkpt lat="42.6795567" lon="2.9116283"><ele>37.6</ele><time>2026-04-08T17:21:14.918Z</time></trkpt><trkpt lat="42.6796517" lon="2.91158"><ele>38.4</ele><time>2026-04-08T17:21:15.918Z</time></trkpt><trkpt lat="42.6797417" lon="2.9115267"><ele>39.2</ele><time>2026-04-08T17:21:16.918Z</time></trkpt><trkpt lat="42.6798317" lon="2.911475"><ele>40.0</ele><time>2026-04-08T17:21:17.918Z</time></trkpt><trkpt lat="42.6799183" lon="2.9114233"><ele>40.0</ele><time>2026-04-08T17:21:18.918Z</time></trkpt><trkpt lat="42.6800033" lon="2.9113783"><ele>40.0</ele><time>2026-04-08T17:21:19.918Z</time></trkpt><trkpt lat="42.6800883" lon="2.911335"><ele>40.0</ele><time>2026-04-08T17:21:20.918Z</time></trkpt><trkpt lat="42.68017" lon="2.9112917"><ele>40.0</ele><time>2026-04-08T17:21:21.918Z</time></trkpt><trkpt lat="42.68025" lon="2.9112483"><ele>40.0</ele><time>2026-04-08T17:21:22.918Z</time></trkpt><trkpt lat="42.6803283" lon="2.9112117"><ele>40.0</ele><time>2026-04-08T17:21:23.918Z</time></trkpt><trkpt lat="42.6804067" lon="2.9111767"><ele>40.0</ele><time>2026-04-08T17:21:24.917Z</time></trkpt><trkpt lat="42.6804867" lon="2.9111417"><ele>40.0</ele><time>2026-04-08T17:21:25.917Z</time></trkpt><trkpt lat="42.6805617" lon="2.911105"><ele>40.0</ele><time>2026-04-08T17:21:26.918Z</time></trkpt><trkpt lat="42.6806367" lon="2.9110717"><ele>40.0</ele><time>2026-04-08T17:21:27.918Z</time></trkpt><trkpt lat="42.68071" lon="2.9110517"><ele>40.0</ele><time>2026-04-08T17:21:28.918Z</time></trkpt><trkpt lat="42.6807833" lon="2.9110617"><ele>40.0</ele><time>2026-04-08T17:21:29.917Z</time></trkpt><trkpt lat="42.6808567" lon="2.9110867"><ele>40.0</ele><time>2026-04-08T17:21:30.918Z</time></trkpt><trkpt lat="42.68093" lon="2.911085"><ele>40.0</ele><time>2026-04-08T17:21:31.917Z</time></trkpt><trkpt lat="42.681" lon="2.9110533"><ele>40.0</ele><time>2026-04-08T17:21:32.918Z</time></trkpt><trkpt lat="42.6810533" lon="2.9109933"><ele>40.0</ele><time>2026-04-08T17:21:33.918Z</time></trkpt><trkpt lat="42.681095" lon="2.910915"><ele>40.0</ele><time>2026-04-08T17:21:34.918Z</time></trkpt><trkpt lat="42.681125" lon="2.9108267"><ele>40.0</ele><time>2026-04-08T17:21:35.918Z</time></trkpt><trkpt lat="42.6811683" lon="2.9107583"><ele>40.0</ele><time>2026-04-08T17:21:36.918Z</time></trkpt><trkpt lat="42.6812817" lon="2.9106817"><ele>40.0</ele><time>2026-04-08T17:21:38.918Z</time></trkpt><trkpt lat="42.6813483" lon="2.9106367"><ele>40.0</ele><time>2026-04-08T17:21:39.918Z</time></trkpt><trkpt lat="42.68142" lon="2.9105917"><ele>40.0</ele><time>2026-04-08T17:21:40.917Z</time></trkpt><trkpt lat="42.6814967" lon="2.91055"><ele>40.0</ele><time>2026-04-08T17:21:41.918Z</time></trkpt><trkpt lat="42.6815867" lon="2.9105033"><ele>40.0</ele><time>2026-04-08T17:21:42.918Z</time></trkpt><trkpt lat="42.6816733" lon="2.9104567"><ele>40.0</ele><time>2026-04-08T17:21:43.918Z</time></trkpt><trkpt lat="42.6817617" lon="2.9104117"><ele>40.0</ele><time>2026-04-08T17:21:44.918Z</time></trkpt><trkpt lat="42.6818533" lon="2.9103533"><ele>40.0</ele><time>2026-04-08T17:21:45.918Z</time></trkpt><trkpt lat="42.6819533" lon="2.9102917"><ele>40.0</ele><time>2026-04-08T17:21:46.917Z</time></trkpt><trkpt lat="42.6820567" lon="2.91023"><ele>40.0</ele><time>2026-04-08T17:21:47.918Z</time></trkpt><trkpt lat="42.682165" lon="2.9101733"><ele>40.0</ele><time>2026-04-08T17:21:48.918Z</time></trkpt><trkpt lat="42.682275" lon="2.9101133"><ele>40.6</ele><time>2026-04-08T17:21:49.918Z</time></trkpt><trkpt lat="42.6823833" lon="2.910045"><ele>41.2</ele><time>2026-04-08T17:21:50.918Z</time></trkpt><trkpt lat="42.6824817" lon="2.9099783"><ele>41.8</ele><time>2026-04-08T17:21:51.917Z</time></trkpt><trkpt lat="42.6825717" lon="2.90992"><ele>42.4</ele><time>2026-04-08T17:21:52.918Z</time></trkpt><trkpt lat="42.6826617" lon="2.909875"><ele>43.0</ele><time>2026-04-08T17:21:53.918Z</time></trkpt><trkpt lat="42.6827417" lon="2.909835"><ele>42.833333333333336</ele><time>2026-04-08T17:21:54.918Z</time></trkpt><trkpt lat="42.6828283" lon="2.9097933"><ele>42.66666666666667</ele><time>2026-04-08T17:21:55.918Z</time></trkpt><trkpt lat="42.6829083" lon="2.909755"><ele>42.5</ele><time>2026-04-08T17:21:56.918Z</time></trkpt><trkpt lat="42.6829817" lon="2.9097167"><ele>42.333333333333336</ele><time>2026-04-08T17:21:57.918Z</time></trkpt><trkpt lat="42.6830483" lon="2.909675"><ele>42.166666666666664</ele><time>2026-04-08T17:21:58.918Z</time></trkpt><trkpt lat="42.6831533" lon="2.90961"><ele>42.0</ele><time>2026-04-08T17:22:00.917Z</time></trkpt><trkpt lat="42.683235" lon="2.909565"><ele>42.0</ele><time>2026-04-08T17:22:02.918Z</time></trkpt><trkpt lat="42.6833117" lon="2.90953"><ele>42.0</ele><time>2026-04-08T17:22:04.918Z</time></trkpt><trkpt lat="42.6834033" lon="2.90949"><ele>42.0</ele><time>2026-04-08T17:22:07.918Z</time></trkpt><trkpt lat="42.6835133" lon="2.9094367"><ele>42.0</ele><time>2026-04-08T17:22:21.919Z</time></trkpt><trkpt lat="42.6835883" lon="2.909405"><ele>42.0</ele><time>2026-04-08T17:22:23.919Z</time></trkpt><trkpt lat="42.6836967" lon="2.9093533"><ele>42.0</ele><time>2026-04-08T17:22:25.919Z</time></trkpt><trkpt lat="42.6838133" lon="2.90929"><ele>42.0</ele><time>2026-04-08T17:22:27.918Z</time></trkpt><trkpt lat="42.6838717" lon="2.9092567"><ele>42.0</ele><time>2026-04-08T17:22:28.919Z</time></trkpt><trkpt lat="42.6839333" lon="2.9092267"><ele>42.0</ele><time>2026-04-08T17:22:29.919Z</time></trkpt><trkpt lat="42.6840583" lon="2.90916"><ele>42.0</ele><time>2026-04-08T17:22:31.919Z</time></trkpt><trkpt lat="42.6841283" lon="2.9091167"><ele>42.0</ele><time>2026-04-08T17:22:32.919Z</time></trkpt><trkpt lat="42.6841983" lon="2.9090767"><ele>42.0</ele><time>2026-04-08T17:22:33.919Z</time></trkpt><trkpt lat="42.68427" lon="2.9090367"><ele>42.0</ele><time>2026-04-08T17:22:34.919Z</time></trkpt><trkpt lat="42.6843583" lon="2.9089967"><ele>42.0</ele><time>2026-04-08T17:22:35.919Z</time></trkpt><trkpt lat="42.6844467" lon="2.9089467"><ele>42.0</ele><time>2026-04-08T17:22:36.919Z</time></trkpt><trkpt lat="42.68454" lon="2.9088967"><ele>42.0</ele><time>2026-04-08T17:22:37.919Z</time></trkpt><trkpt lat="42.68464" lon="2.9088483"><ele>42.8</ele><time>2026-04-08T17:22:38.919Z</time></trkpt><trkpt lat="42.6847417" lon="2.9087933"><ele>43.6</ele><time>2026-04-08T17:22:39.919Z</time></trkpt><trkpt lat="42.6848433" lon="2.908735"><ele>44.4</ele><time>2026-04-08T17:22:40.919Z</time></trkpt><trkpt lat="42.68494" lon="2.9086733"><ele>45.199999999999996</ele><time>2026-04-08T17:22:41.918Z</time></trkpt><trkpt lat="42.68503" lon="2.9086067"><ele>46.0</ele><time>2026-04-08T17:22:42.919Z</time></trkpt><trkpt lat="42.6851183" lon="2.9085333"><ele>46.0</ele><time>2026-04-08T17:22:43.918Z</time></trkpt><trkpt lat="42.6852067" lon="2.9084633"><ele>46.0</ele><time>2026-04-08T17:22:44.918Z</time></trkpt><trkpt lat="42.6852967" lon="2.90839"><ele>46.0</ele><time>2026-04-08T17:22:45.919Z</time></trkpt><trkpt lat="42.6853867" lon="2.9083167"><ele>46.0</ele><time>2026-04-08T17:22:46.919Z</time></trkpt><trkpt lat="42.68548" lon="2.9082417"><ele>46.0</ele><time>2026-04-08T17:22:47.918Z</time></trkpt><trkpt lat="42.685575" lon="2.908155"><ele>46.0</ele><time>2026-04-08T17:22:48.919Z</time></trkpt><trkpt lat="42.685665" lon="2.908065"><ele>46.0</ele><time>2026-04-08T17:22:49.919Z</time></trkpt><trkpt lat="42.6857517" lon="2.9079633"><ele>46.0</ele><time>2026-04-08T17:22:50.918Z</time></trkpt><trkpt lat="42.6858417" lon="2.90785"><ele>46.0</ele><time>2026-04-08T17:22:51.919Z</time></trkpt><trkpt lat="42.6859183" lon="2.90776"><ele>46.0</ele><time>2026-04-08T17:22:52.918Z</time></trkpt><trkpt lat="42.6859833" lon="2.9076817"><ele>46.0</ele><time>2026-04-08T17:22:53.919Z</time></trkpt><trkpt lat="42.6860333" lon="2.9076217"><ele>46.0</ele><time>2026-04-08T17:22:54.919Z</time></trkpt><trkpt lat="42.6860967" lon="2.9075533"><ele>46.0</ele><time>2026-04-08T17:22:56.918Z</time></trkpt><trkpt lat="42.68616" lon="2.9075033"><ele>46.0</ele><time>2026-04-08T17:23:00.919Z</time></trkpt><trkpt lat="42.68623" lon="2.90745"><ele>46.0</ele><time>2026-04-08T17:23:02.919Z</time></trkpt><trkpt lat="42.6863267" lon="2.9074167"><ele>46.0</ele><time>2026-04-08T17:23:04.919Z</time></trkpt><trkpt lat="42.68643" lon="2.907425"><ele>46.0</ele><time>2026-04-08T17:23:06.918Z</time></trkpt><trkpt lat="42.68653" lon="2.9074467"><ele>46.0</ele><time>2026-04-08T17:23:08.918Z</time></trkpt><trkpt lat="42.6866167" lon="2.9074767"><ele>46.0</ele><time>2026-04-08T17:23:10.919Z</time></trkpt><trkpt lat="42.6867067" lon="2.907545"><ele>46.0</ele><time>2026-04-08T17:23:13.919Z</time></trkpt><trkpt lat="42.6867967" lon="2.9076233"><ele>45.85714285714286</ele><time>2026-04-08T17:23:15.919Z</time></trkpt><trkpt lat="42.6868467" lon="2.9076817"><ele>45.71428571428571</ele><time>2026-04-08T17:23:16.919Z</time></trkpt><trkpt lat="42.6868967" lon="2.9077467"><ele>45.57142857142857</ele><time>2026-04-08T17:23:17.919Z</time></trkpt><trkpt lat="42.6869483" lon="2.9078133"><ele>45.42857142857143</ele><time>2026-04-08T17:23:18.919Z</time></trkpt><trkpt lat="42.687" lon="2.9078917"><ele>45.28571428571429</ele><time>2026-04-08T17:23:19.919Z</time></trkpt><trkpt lat="42.6870533" lon="2.907975"><ele>45.14285714285714</ele><time>2026-04-08T17:23:20.919Z</time></trkpt><trkpt lat="42.6871083" lon="2.9080583"><ele>45.0</ele><time>2026-04-08T17:23:21.918Z</time></trkpt><trkpt lat="42.687165" lon="2.9081417"><ele>45.0</ele><time>2026-04-08T17:23:22.919Z</time></trkpt><trkpt lat="42.6872233" lon="2.9082217"><ele>45.0</ele><time>2026-04-08T17:23:23.919Z</time></trkpt><trkpt lat="42.6872933" lon="2.9082833"><ele>45.0</ele><time>2026-04-08T17:23:24.919Z</time></trkpt><trkpt lat="42.6873617" lon="2.90832"><ele>45.0</ele><time>2026-04-08T17:23:25.919Z</time></trkpt><trkpt lat="42.6874367" lon="2.908355"><ele>45.0</ele><time>2026-04-08T17:23:26.919Z</time></trkpt><trkpt lat="42.6875033" lon="2.908405"><ele>45.0</ele><time>2026-04-08T17:23:27.918Z</time></trkpt><trkpt lat="42.687565" lon="2.90846"><ele>45.0</ele><time>2026-04-08T17:23:28.919Z</time></trkpt><trkpt lat="42.6876267" lon="2.9085017"><ele>45.0</ele><time>2026-04-08T17:23:29.919Z</time></trkpt><trkpt lat="42.6877467" lon="2.9084567"><ele>45.0</ele><time>2026-04-08T17:23:31.919Z</time></trkpt><trkpt lat="42.6878067" lon="2.908405"><ele>45.0</ele><time>2026-04-08T17:23:32.919Z</time></trkpt><trkpt lat="42.687855" lon="2.9083367"><ele>45.0</ele><time>2026-04-08T17:23:33.918Z</time></trkpt><trkpt lat="42.6879133" lon="2.90826"><ele>45.0</ele><time>2026-04-08T17:23:34.919Z</time></trkpt><trkpt lat="42.68797" lon="2.9081833"><ele>44.4</ele><time>2026-04-08T17:23:35.919Z</time></trkpt><trkpt lat="42.6880317" lon="2.908105"><ele>43.8</ele><time>2026-04-08T17:23:36.919Z</time></trkpt><trkpt lat="42.68815" lon="2.90795"><ele>43.2</ele><time>2026-04-08T17:23:38.918Z</time></trkpt><trkpt lat="42.6882067" lon="2.9078717"><ele>42.6</ele><time>2026-04-08T17:23:39.918Z</time></trkpt><trkpt lat="42.6882617" lon="2.9077933"><ele>42.0</ele><time>2026-04-08T17:23:40.918Z</time></trkpt><trkpt lat="42.6883217" lon="2.9077117"><ele>42.0</ele><time>2026-04-08T17:23:41.919Z</time></trkpt><trkpt lat="42.6883767" lon="2.90763"><ele>42.0</ele><time>2026-04-08T17:23:42.919Z</time></trkpt><trkpt lat="42.688435" lon="2.9075517"><ele>42.0</ele><time>2026-04-08T17:23:43.918Z</time></trkpt><trkpt lat="42.6884967" lon="2.9074683"><ele>42.0</ele><time>2026-04-08T17:23:44.918Z</time></trkpt><trkpt lat="42.68856" lon="2.907385"><ele>42.0</ele><time>2026-04-08T17:23:45.919Z</time></trkpt><trkpt lat="42.6886167" lon="2.9073"><ele>42.0</ele><time>2026-04-08T17:23:46.919Z</time></trkpt><trkpt lat="42.6886717" lon="2.9072167"><ele>42.166666666666664</ele><time>2026-04-08T17:23:47.918Z</time></trkpt><trkpt lat="42.68873" lon="2.9071383"><ele>42.333333333333336</ele><time>2026-04-08T17:23:48.919Z</time></trkpt><trkpt lat="42.6887917" lon="2.9070567"><ele>42.5</ele><time>2026-04-08T17:23:49.919Z</time></trkpt><trkpt lat="42.68885" lon="2.906975"><ele>42.66666666666667</ele><time>2026-04-08T17:23:50.918Z</time></trkpt><trkpt lat="42.68891" lon="2.90689"><ele>42.833333333333336</ele><time>2026-04-08T17:23:51.919Z</time></trkpt><trkpt lat="42.688975" lon="2.9068083"><ele>43.0</ele><time>2026-04-08T17:23:52.918Z</time></trkpt><trkpt lat="42.6890383" lon="2.9067317"><ele>43.0</ele><time>2026-04-08T17:23:53.919Z</time></trkpt><trkpt lat="42.6890933" lon="2.9066517"><ele>43.0</ele><time>2026-04-08T17:23:54.918Z</time></trkpt><trkpt lat="42.6891533" lon="2.9065867"><ele>43.0</ele><time>2026-04-08T17:23:55.918Z</time></trkpt><trkpt lat="42.6892167" lon="2.9065683"><ele>43.0</ele><time>2026-04-08T17:23:56.919Z</time></trkpt><trkpt lat="42.689285" lon="2.9065817"><ele>43.0</ele><time>2026-04-08T17:23:57.919Z</time></trkpt><trkpt lat="42.6893717" lon="2.9066817"><ele>43.0</ele><time>2026-04-08T17:23:59.918Z</time></trkpt><trkpt lat="42.6894067" lon="2.9067567"><ele>43.333333333333336</ele><time>2026-04-08T17:24:00.919Z</time></trkpt><trkpt lat="42.68944" lon="2.9068467"><ele>43.66666666666667</ele><time>2026-04-08T17:24:01.919Z</time></trkpt><trkpt lat="42.6894683" lon="2.9069317"><ele>44.0</ele><time>2026-04-08T17:24:02.919Z</time></trkpt><trkpt lat="42.6895017" lon="2.9070233"><ele>44.333333333333336</ele><time>2026-04-08T17:24:03.919Z</time></trkpt><trkpt lat="42.68954" lon="2.907115"><ele>44.666666666666664</ele><time>2026-04-08T17:24:04.919Z</time></trkpt><trkpt lat="42.689575" lon="2.9071933"><ele>45.0</ele><time>2026-04-08T17:24:05.919Z</time></trkpt><trkpt lat="42.68963" lon="2.9073183"><ele>45.0</ele><time>2026-04-08T17:24:07.919Z</time></trkpt><trkpt lat="42.689675" lon="2.9074217"><ele>45.0</ele><time>2026-04-08T17:24:09.918Z</time></trkpt><trkpt lat="42.689675" lon="2.9075633"><ele>45.0</ele><time>2026-04-08T17:24:52.919Z</time></trkpt><trkpt lat="42.6897817" lon="2.9075567"><ele>45.0</ele><time>2026-04-08T17:25:19.919Z</time></trkpt><trkpt lat="42.689715" lon="2.9075283"><ele>45.0</ele><time>2026-04-08T17:25:41.917Z</time></trkpt><trkpt lat="42.6896706" lon="2.9076193"><ele>45.0</ele><time>2026-04-08T17:26:41.954Z</time></trkpt><trkpt lat="42.689733" lon="2.9075992"><ele>44.8</ele><time>2026-04-08T17:27:02.218Z</time></trkpt><trkpt lat="42.6896611" lon="2.9075962"><ele>44.6</ele><time>2026-04-08T17:28:35.189Z</time></trkpt><trkpt lat="42.6897247" lon="2.9076043"><ele>44.400000000000006</ele><time>2026-04-08T17:28:42.187Z</time></trkpt><trkpt lat="42.6897143" lon="2.9076959"><ele>44.2</ele><time>2026-04-08T17:29:45.133Z</time></trkpt><trkpt lat="42.6897175" lon="2.9078277"><ele>44.0</ele><time>2026-04-08T17:29:49.137Z</time></trkpt><trkpt lat="42.6897168" lon="2.9081492"><ele>44.0</ele><time>2026-04-08T17:29:50.136Z</time></trkpt><trkpt lat="42.6896642" lon="2.9082059"><ele>44.0</ele><time>2026-04-08T17:29:53.139Z</time></trkpt><trkpt lat="42.6895842" lon="2.90819"><ele>44.0</ele><time>2026-04-08T17:30:12.054Z</time></trkpt><trkpt lat="42.6895494" lon="2.9081071"><ele>44.0</ele><time>2026-04-08T17:30:20.567Z</time></trkpt><trkpt lat="42.6895916" lon="2.9078929"><ele>44.0</ele><time>2026-04-08T17:30:40.173Z</time></trkpt><trkpt lat="42.689571" lon="2.9077806"><ele>44.0</ele><time>2026-04-08T17:30:43.06Z</time></trkpt><trkpt lat="42.6896131" lon="2.9076903"><ele>44.0</ele><time>2026-04-08T17:30:46.176Z</time></trkpt><trkpt lat="42.6896585" lon="2.9076112"><ele>44.0</ele><time>2026-04-08T17:30:49.079Z</time></trkpt><trkpt lat="42.68961" lon="2.9075505"><ele>44.0</ele><time>2026-04-08T17:31:56.124Z</time></trkpt><trkpt lat="42.689145" lon="2.9077539"><ele>43.75</ele><time>2026-04-08T17:32:48.919Z</time></trkpt><trkpt lat="42.6891742" lon="2.9075629"><ele>43.5</ele><time>2026-04-08T17:32:50.919Z</time></trkpt><trkpt lat="42.6892609" lon="2.9073689"><ele>43.25</ele><time>2026-04-08T17:32:52.918Z</time></trkpt><trkpt lat="42.6893597" lon="2.9072951"><ele>43.0</ele><time>2026-04-08T17:32:54.919Z</time></trkpt><trkpt lat="42.6894393" lon="2.9073244"><ele>43.2</ele><time>2026-04-08T17:32:56.919Z</time></trkpt><trkpt lat="42.6895314" lon="2.9073742"><ele>43.4</ele><time>2026-04-08T17:32:58.918Z</time></trkpt><trkpt lat="42.689588" lon="2.907426"><ele>43.6</ele><time>2026-04-08T17:33:00.919Z</time></trkpt><trkpt lat="42.6896422" lon="2.9074972"><ele>43.800000000000004</ele><time>2026-04-08T17:33:03.919Z</time></trkpt><trkpt lat="42.689618" lon="2.9075868"><ele>44.0</ele><time>2026-04-08T17:33:17.417Z</time></trkpt><trkpt lat="42.689752" lon="2.9065369"><ele>44.2</ele><time>2026-04-08T17:37:09.918Z</time></trkpt><trkpt lat="42.6897644" lon="2.9064392"><ele>44.400000000000006</ele><time>2026-04-08T17:37:12.918Z</time></trkpt><trkpt lat="42.689787" lon="2.9063426"><ele>44.6</ele><time>2026-04-08T17:37:15.918Z</time></trkpt><trkpt lat="42.6898361" lon="2.9062776"><ele>44.8</ele><time>2026-04-08T17:37:18.918Z</time></trkpt><trkpt lat="42.6898318" lon="2.9064734"><ele>45.0</ele><time>2026-04-08T17:37:21.917Z</time></trkpt><trkpt lat="42.6898417" lon="2.9067483"><ele>45.0</ele><time>2026-04-08T17:37:22.918Z</time></trkpt><trkpt lat="42.6898702" lon="2.9068527"><ele>45.0</ele><time>2026-04-08T17:37:23.917Z</time></trkpt><trkpt lat="42.6899205" lon="2.9069169"><ele>45.0</ele><time>2026-04-08T17:37:26.918Z</time></trkpt><trkpt lat="42.6899647" lon="2.9068411"><ele>45.0</ele><time>2026-04-08T17:37:56.917Z</time></trkpt><trkpt lat="42.6899646" lon="2.9069762"><ele>45.0</ele><time>2026-04-08T17:38:08.918Z</time></trkpt><trkpt lat="42.6899022" lon="2.9069455"><ele>45.0</ele><time>2026-04-08T17:46:56.918Z</time></trkpt><trkpt lat="42.6898222" lon="2.9069531"><ele>45.0</ele><time>2026-04-08T17:51:51.919Z</time></trkpt><trkpt lat="42.689715" lon="2.9070035"><ele>45.0</ele><time>2026-04-08T17:51:59.919Z</time></trkpt><trkpt lat="42.6897194" lon="2.9071555"><ele>45.0</ele><time>2026-04-08T17:52:03.919Z</time></trkpt><trkpt lat="42.6897249" lon="2.9072636"><ele>45.0</ele><time>2026-04-08T17:52:09.918Z</time></trkpt><trkpt lat="42.689757" lon="2.9074206"><ele>45.0</ele><time>2026-04-08T17:52:15.919Z</time></trkpt><trkpt lat="42.6897802" lon="2.907548"><ele>45.0</ele><time>2026-04-08T17:52:21.918Z</time></trkpt><trkpt lat="42.689941" lon="2.9075825"><ele>45.0</ele><time>2026-04-08T17:52:51.918Z</time></trkpt><trkpt lat="42.6900245" lon="2.9075417"><ele>45.0</ele><time>2026-04-08T17:53:33.919Z</time></trkpt><trkpt lat="42.6900605" lon="2.9074325"><ele>45.0</ele><time>2026-04-08T18:09:15.918Z</time></trkpt><trkpt lat="42.6900119" lon="2.9073704"><ele>45.0</ele><time>2026-04-08T18:26:34.917Z</time></trkpt><trkpt lat="42.6899861" lon="2.9072861"><ele>45.0</ele><time>2026-04-08T18:27:01.918Z</time></trkpt><trkpt lat="42.6899267" lon="2.9071931"><ele>45.0</ele><time>2026-04-08T18:27:13.918Z</time></trkpt><trkpt lat="42.6898928" lon="2.9070976"><ele>45.0</ele><time>2026-04-08T18:30:01.917Z</time></trkpt><trkpt lat="42.6898207" lon="2.907133"><ele>45.0</ele><time>2026-04-08T18:30:07.918Z</time></trkpt><trkpt lat="42.6897698" lon="2.9071919"><ele>45.0</ele><time>2026-04-08T18:30:11.918Z</time></trkpt><trkpt lat="42.6897229" lon="2.9072538"><ele>45.0</ele><time>2026-04-08T18:30:15.918Z</time></trkpt><trkpt lat="42.6896744" lon="2.9073303"><ele>45.0</ele><time>2026-04-08T18:30:21.099Z</time></trkpt><trkpt lat="42.6896856" lon="2.9074333"><ele>45.0</ele><time>2026-04-08T18:30:29.917Z</time></trkpt><trkpt lat="42.689602" lon="2.9075445"><ele>45.0</ele><time>2026-04-08T18:30:41.918Z</time></trkpt><trkpt lat="42.6895714" lon="2.9076476"><ele>45.0</ele><time>2026-04-08T18:30:44.918Z</time></trkpt><trkpt lat="42.6896557" lon="2.9076798"><ele>45.0</ele><time>2026-04-08T18:39:19.918Z</time></trkpt><trkpt lat="42.6897388" lon="2.907623"><ele>44.833333333333336</ele><time>2026-04-08T18:42:33.918Z</time></trkpt><trkpt lat="42.6897252" lon="2.9077113"><ele>44.666666666666664</ele><time>2026-04-08T18:44:19.918Z</time></trkpt><trkpt lat="42.689686" lon="2.907791"><ele>44.5</ele><time>2026-04-08T18:48:08.918Z</time></trkpt><trkpt lat="42.6896595" lon="2.9078691"><ele>44.33333333333333</ele><time>2026-04-08T18:48:10.919Z</time></trkpt><trkpt lat="42.6896325" lon="2.9079952"><ele>44.166666666666664</ele><time>2026-04-08T18:48:12.919Z</time></trkpt><trkpt lat="42.6896249" lon="2.9080945"><ele>44.0</ele><time>2026-04-08T18:48:14.919Z</time></trkpt><trkpt lat="42.6895976" lon="2.9082156"><ele>44.0</ele><time>2026-04-08T18:48:17.919Z</time></trkpt><trkpt lat="42.6895432" lon="2.9083323"><ele>44.0</ele><time>2026-04-08T18:48:19.918Z</time></trkpt><trkpt lat="42.689518" lon="2.9084259"><ele>44.0</ele><time>2026-04-08T18:48:24.919Z</time></trkpt><trkpt lat="42.6894853" lon="2.9085057"><ele>44.0</ele><time>2026-04-08T18:48:28.919Z</time></trkpt><trkpt lat="42.6894606" lon="2.9085925"><ele>44.0</ele><time>2026-04-08T18:48:34.919Z</time></trkpt><trkpt lat="42.6895886" lon="2.9076242"><ele>45.0</ele><time>2026-04-08T18:48:49.419Z</time></trkpt><trkpt lat="42.6897694" lon="2.9070202"><ele>45.0</ele><time>2026-04-08T18:50:40.919Z</time></trkpt><trkpt lat="42.6897968" lon="2.9069052"><ele>45.0</ele><time>2026-04-08T18:50:52.919Z</time></trkpt><trkpt lat="42.6897881" lon="2.9068155"><ele>45.0</ele><time>2026-04-08T18:50:56.918Z</time></trkpt><trkpt lat="42.6897958" lon="2.9067199"><ele>45.0</ele><time>2026-04-08T18:51:00.918Z</time></trkpt><trkpt lat="42.6896126" lon="2.9075334"><ele>45.0</ele><time>2026-04-08T18:51:12.431Z</time></trkpt><trkpt lat="42.6896507" lon="2.9068906"><ele>45.0</ele><time>2026-04-08T18:51:39.918Z</time></trkpt><trkpt lat="42.6896566" lon="2.9069872"><ele>45.0</ele><time>2026-04-08T19:04:42.918Z</time></trkpt><trkpt lat="42.689711" lon="2.9070417"><ele>45.0</ele><time>2026-04-08T19:04:49.917Z</time></trkpt><trkpt lat="42.6896682" lon="2.9071141"><ele>45.0</ele><time>2026-04-08T19:05:03.917Z</time></trkpt><trkpt lat="42.6895944" lon="2.9071219"><ele>45.0</ele><time>2026-04-08T19:05:07.918Z</time></trkpt><trkpt lat="42.6896091" lon="2.9072103"><ele>45.0</ele><time>2026-04-08T19:05:11.918Z</time></trkpt><trkpt lat="42.6896399" lon="2.9072916"><ele>45.0</ele><time>2026-04-08T19:05:16.918Z</time></trkpt><trkpt lat="42.6897252" lon="2.9072448"><ele>45.0</ele><time>2026-04-08T19:05:29.918Z</time></trkpt><trkpt lat="42.6897758" lon="2.9073025"><ele>45.0</ele><time>2026-04-08T19:05:41.918Z</time></trkpt><trkpt lat="42.6897317" lon="2.9073648"><ele>45.0</ele><time>2026-04-08T19:05:56.917Z</time></trkpt><trkpt lat="42.6897352" lon="2.9074532"><ele>45.0</ele><time>2026-04-08T19:06:11.918Z</time></trkpt><trkpt lat="42.6896741" lon="2.9073851"><ele>45.0</ele><time>2026-04-08T19:08:34.918Z</time></trkpt><trkpt lat="42.6896741" lon="2.9072946"><ele>45.0</ele><time>2026-04-08T19:08:37.918Z</time></trkpt><trkpt lat="42.689748" lon="2.9072765"><ele>45.0</ele><time>2026-04-08T19:08:52.918Z</time></trkpt><trkpt lat="42.6897956" lon="2.9073334"><ele>45.0</ele><time>2026-04-08T19:09:02.917Z</time></trkpt><trkpt lat="42.689841" lon="2.9074009"><ele>45.0</ele><time>2026-04-08T19:09:26.918Z</time></trkpt><trkpt lat="42.6898481" lon="2.9075385"><ele>45.0</ele><time>2026-04-08T19:09:58.854Z</time></trkpt><trkpt lat="42.6897873" lon="2.9074697"><ele>45.0</ele><time>2026-04-08T19:10:19.917Z</time></trkpt><trkpt lat="42.6897509" lon="2.9075419"><ele>45.0</ele><time>2026-04-08T19:10:37.918Z</time></trkpt><trkpt lat="42.6897475" lon="2.9076295"><ele>45.0</ele><time>2026-04-08T19:10:50.918Z</time></trkpt><trkpt lat="42.6896858" lon="2.9076089"><ele>45.0</ele><time>2026-04-08T19:10:54.918Z</time></trkpt><trkpt lat="42.6896174" lon="2.9075446"><ele>45.0</ele><time>2026-04-08T19:10:59.918Z</time></trkpt><trkpt lat="42.6896081" lon="2.9073867"><ele>45.0</ele><time>2026-04-08T19:11:35.918Z</time></trkpt><trkpt lat="42.6896081" lon="2.9073867"><ele>45.0</ele><time>2026-04-08T19:11:35.918Z</time></trkpt></trkseg></trk></gpx>